﻿<?xml version="1.0" encoding="utf-8"?><gpx creator="Garmin Desktop App" version="1.1" xsi:schemaLocation="http://www.topografix.com/GPX/1/1 http://www.topografix.com/GPX/1/1/gpx.xsd http://www.garmin.com/xmlschemas/WaypointExtension/v1 http://www8.garmin.com/xmlschemas/WaypointExtensionv1.xsd http://www.garmin.com/xmlschemas/TrackPointExtension/v1 http://www.garmin.com/xmlschemas/TrackPointExtensionv1.xsd http://www.garmin.com/xmlschemas/GpxExtensions/v3 http://www8.garmin.com/xmlschemas/GpxExtensionsv3.xsd http://www.garmin.com/xmlschemas/ActivityExtension/v1 http://www8.garmin.com/xmlschemas/ActivityExtensionv1.xsd http://www.garmin.com/xmlschemas/AdventuresExtensions/v1 http://www8.garmin.com/xmlschemas/AdventuresExtensionv1.xsd http://www.garmin.com/xmlschemas/PressureExtension/v1 http://www.garmin.com/xmlschemas/PressureExtensionv1.xsd http://www.garmin.com/xmlschemas/TripExtensions/v1 http://www.garmin.com/xmlschemas/TripExtensionsv1.xsd http://www.garmin.com/xmlschemas/TripMetaDataExtensions/v1 http://www.garmin.com/xmlschemas/TripMetaDataExtensionsv1.xsd http://www.garmin.com/xmlschemas/ViaPointTransportationModeExtensions/v1 http://www.garmin.com/xmlschemas/ViaPointTransportationModeExtensionsv1.xsd http://www.garmin.com/xmlschemas/CreationTimeExtension/v1 http://www.garmin.com/xmlschemas/CreationTimeExtensionsv1.xsd http://www.garmin.com/xmlschemas/AccelerationExtension/v1 http://www.garmin.com/xmlschemas/AccelerationExtensionv1.xsd http://www.garmin.com/xmlschemas/PowerExtension/v1 http://www.garmin.com/xmlschemas/PowerExtensionv1.xsd http://www.garmin.com/xmlschemas/VideoExtension/v1 http://www.garmin.com/xmlschemas/VideoExtensionv1.xsd" xmlns="http://www.topografix.com/GPX/1/1" xmlns:xsi="http://www.w3.org/2001/XMLSchema-instance" xmlns:wptx1="http://www.garmin.com/xmlschemas/WaypointExtension/v1" xmlns:gpxtrx="http://www.garmin.com/xmlschemas/GpxExtensions/v3" xmlns:gpxtpx="http://www.garmin.com/xmlschemas/TrackPointExtension/v1" xmlns:gpxx="http://www.garmin.com/xmlschemas/GpxExtensions/v3" xmlns:trp="http://www.garmin.com/xmlschemas/TripExtensions/v1" xmlns:adv="http://www.garmin.com/xmlschemas/AdventuresExtensions/v1" xmlns:prs="http://www.garmin.com/xmlschemas/PressureExtension/v1" xmlns:tmd="http://www.garmin.com/xmlschemas/TripMetaDataExtensions/v1" xmlns:vptm="http://www.garmin.com/xmlschemas/ViaPointTransportationModeExtensions/v1" xmlns:ctx="http://www.garmin.com/xmlschemas/CreationTimeExtension/v1" xmlns:gpxacc="http://www.garmin.com/xmlschemas/AccelerationExtension/v1" xmlns:gpxpx="http://www.garmin.com/xmlschemas/PowerExtension/v1" xmlns:vidx1="http://www.garmin.com/xmlschemas/VideoExtension/v1">

  <metadata>
    <link href="http://www.garmin.com">
      <text>Garmin International</text>
    </link>
    <time>2018-07-07T20:07:41Z</time>
    <bounds maxlat="48.11258596368134" maxlon="0.18163500353694" minlat="47.768026040866971" minlon="-3.585254978388548" />
  </metadata>

  <trk>
    <name>Track vom: 2018-07-07 09:11</name>
    <extensions>
      <gpxx:TrackExtension>
        <gpxx:DisplayColor>DarkGray</gpxx:DisplayColor>
      </gpxx:TrackExtension>
    </extensions>
    <trkseg>
      <trkpt lat="47.868949016556144" lon="-3.563053999096155">
        <ele>53.969999999999999</ele>
        <time>2018-07-07T07:11:43Z</time>
      </trkpt>
      <trkpt lat="47.869024034589529" lon="-3.562925001606345">
        <ele>53.969999999999999</ele>
        <time>2018-07-07T07:11:50Z</time>
      </trkpt>
      <trkpt lat="47.869039960205555" lon="-3.562897006049752">
        <ele>53.969999999999999</ele>
        <time>2018-07-07T07:11:51Z</time>
      </trkpt>
      <trkpt lat="47.869231989607215" lon="-3.562564998865128">
        <ele>52.530000000000001</ele>
        <time>2018-07-07T07:11:57Z</time>
      </trkpt>
      <trkpt lat="47.869344977661967" lon="-3.562370035797358">
        <ele>51.57</ele>
        <time>2018-07-07T07:12:00Z</time>
      </trkpt>
      <trkpt lat="47.869370961561799" lon="-3.56231102719903">
        <ele>51.57</ele>
        <time>2018-07-07T07:12:01Z</time>
      </trkpt>
      <trkpt lat="47.869450002908707" lon="-3.561998968943954">
        <ele>51.57</ele>
        <time>2018-07-07T07:12:05Z</time>
      </trkpt>
      <trkpt lat="47.869471041485667" lon="-3.561916993930936">
        <ele>51.090000000000003</ele>
        <time>2018-07-07T07:12:06Z</time>
      </trkpt>
      <trkpt lat="47.869516974315047" lon="-3.561740973964334">
        <ele>51.090000000000003</ele>
        <time>2018-07-07T07:12:08Z</time>
      </trkpt>
      <trkpt lat="47.869539018720388" lon="-3.561651958152652">
        <ele>50.609999999999999</ele>
        <time>2018-07-07T07:12:09Z</time>
      </trkpt>
      <trkpt lat="47.869641026481986" lon="-3.560994984582067">
        <ele>50.130000000000003</ele>
        <time>2018-07-07T07:12:15Z</time>
      </trkpt>
      <trkpt lat="47.869654018431902" lon="-3.56089498847723">
        <ele>49.649999999999999</ele>
        <time>2018-07-07T07:12:16Z</time>
      </trkpt>
      <trkpt lat="47.869664998725057" lon="-3.560804966837168">
        <ele>49.649999999999999</ele>
        <time>2018-07-07T07:12:17Z</time>
      </trkpt>
      <trkpt lat="47.869717972353101" lon="-3.560220999643207">
        <ele>47.240000000000002</ele>
        <time>2018-07-07T07:12:24Z</time>
      </trkpt>
      <trkpt lat="47.869770023971796" lon="-3.559963004663587">
        <ele>46.280000000000001</ele>
        <time>2018-07-07T07:12:27Z</time>
      </trkpt>
      <trkpt lat="47.870018966495991" lon="-3.559021968394518">
        <ele>46.280000000000001</ele>
        <time>2018-07-07T07:12:38Z</time>
      </trkpt>
      <trkpt lat="47.870047967880964" lon="-3.558940999209881">
        <ele>45.799999999999997</ele>
        <time>2018-07-07T07:12:39Z</time>
      </trkpt>
      <trkpt lat="47.870075041428208" lon="-3.558863969519734">
        <ele>45.799999999999997</ele>
        <time>2018-07-07T07:12:40Z</time>
      </trkpt>
      <trkpt lat="47.870126003399491" lon="-3.558719968423247">
        <ele>45.799999999999997</ele>
        <time>2018-07-07T07:12:42Z</time>
      </trkpt>
      <trkpt lat="47.870148969814181" lon="-3.558655008673668">
        <ele>46.280000000000001</ele>
        <time>2018-07-07T07:12:43Z</time>
      </trkpt>
      <trkpt lat="47.87022901698947" lon="-3.558430038392544">
        <ele>44.840000000000003</ele>
        <time>2018-07-07T07:12:48Z</time>
      </trkpt>
      <trkpt lat="47.870202027261257" lon="-3.558348985388875">
        <ele>44.359999999999999</ele>
        <time>2018-07-07T07:12:49Z</time>
      </trkpt>
      <trkpt lat="47.870172020047903" lon="-3.558318978175521">
        <ele>44.359999999999999</ele>
        <time>2018-07-07T07:12:50Z</time>
      </trkpt>
      <trkpt lat="47.87012298591435" lon="-3.558310009539127">
        <ele>43.880000000000003</ele>
        <time>2018-07-07T07:12:51Z</time>
      </trkpt>
      <trkpt lat="47.870076969265938" lon="-3.55831797234714">
        <ele>43.880000000000003</ele>
        <time>2018-07-07T07:12:52Z</time>
      </trkpt>
      <trkpt lat="47.870029024779797" lon="-3.558326018974185">
        <ele>43.880000000000003</ele>
        <time>2018-07-07T07:12:53Z</time>
      </trkpt>
      <trkpt lat="47.869704980403185" lon="-3.558117980137467">
        <ele>43.399999999999999</ele>
        <time>2018-07-07T07:12:59Z</time>
      </trkpt>
      <trkpt lat="47.869362998753786" lon="-3.557969033718109">
        <ele>41.950000000000003</ele>
        <time>2018-07-07T07:13:05Z</time>
      </trkpt>
      <trkpt lat="47.868689009919763" lon="-3.557502999901772">
        <ele>42.920000000000002</ele>
        <time>2018-07-07T07:13:15Z</time>
      </trkpt>
      <trkpt lat="47.868333030492067" lon="-3.556974017992616">
        <ele>40.990000000000002</ele>
        <time>2018-07-07T07:13:21Z</time>
      </trkpt>
      <trkpt lat="47.868294976651669" lon="-3.556846026331186">
        <ele>40.509999999999998</ele>
        <time>2018-07-07T07:13:22Z</time>
      </trkpt>
      <trkpt lat="47.868225993588567" lon="-3.556612003594637">
        <ele>39.549999999999997</ele>
        <time>2018-07-07T07:13:24Z</time>
      </trkpt>
      <trkpt lat="47.868190035223961" lon="-3.556491974741221">
        <ele>39.07</ele>
        <time>2018-07-07T07:13:25Z</time>
      </trkpt>
      <trkpt lat="47.868152987211943" lon="-3.556369012221694">
        <ele>38.590000000000003</ele>
        <time>2018-07-07T07:13:26Z</time>
      </trkpt>
      <trkpt lat="47.868116023018956" lon="-3.556244038045406">
        <ele>37.630000000000003</ele>
        <time>2018-07-07T07:13:27Z</time>
      </trkpt>
      <trkpt lat="47.868077969178557" lon="-3.556114034727216">
        <ele>37.149999999999999</ele>
        <time>2018-07-07T07:13:28Z</time>
      </trkpt>
      <trkpt lat="47.867624005302787" lon="-3.554594982415438">
        <ele>29.940000000000001</ele>
        <time>2018-07-07T07:13:40Z</time>
      </trkpt>
      <trkpt lat="47.867530966177583" lon="-3.554283007979393">
        <ele>29.460000000000001</ele>
        <time>2018-07-07T07:13:43Z</time>
      </trkpt>
      <trkpt lat="47.867509005591273" lon="-3.55421100743115">
        <ele>29.940000000000001</ele>
        <time>2018-07-07T07:13:44Z</time>
      </trkpt>
      <trkpt lat="47.8674609772861" lon="-3.554099025204778">
        <ele>29.940000000000001</ele>
        <time>2018-07-07T07:13:45Z</time>
      </trkpt>
      <trkpt lat="47.867423007264733" lon="-3.554099025204778">
        <ele>29.940000000000001</ele>
        <time>2018-07-07T07:13:46Z</time>
      </trkpt>
      <trkpt lat="47.867411021143198" lon="-3.554099025204778">
        <ele>29.940000000000001</ele>
        <time>2018-07-07T07:13:47Z</time>
      </trkpt>
      <trkpt lat="47.867359975352883" lon="-3.554196003824472">
        <ele>29.940000000000001</ele>
        <time>2018-07-07T07:13:48Z</time>
      </trkpt>
      <trkpt lat="47.86733097396791" lon="-3.554250989109278">
        <ele>30.420000000000002</ele>
        <time>2018-07-07T07:13:49Z</time>
      </trkpt>
      <trkpt lat="47.867297027260065" lon="-3.554316032677889">
        <ele>30.420000000000002</ele>
        <time>2018-07-07T07:13:50Z</time>
      </trkpt>
      <trkpt lat="47.866768967360258" lon="-3.555012987926602">
        <ele>32.82</ele>
        <time>2018-07-07T07:13:59Z</time>
      </trkpt>
      <trkpt lat="47.866099001839757" lon="-3.555499976500869">
        <ele>31.859999999999999</ele>
        <time>2018-07-07T07:14:08Z</time>
      </trkpt>
      <trkpt lat="47.866047034040093" lon="-3.555556973442435">
        <ele>31.859999999999999</ele>
        <time>2018-07-07T07:14:09Z</time>
      </trkpt>
      <trkpt lat="47.866001017391682" lon="-3.555606007575989">
        <ele>31.859999999999999</ele>
        <time>2018-07-07T07:14:10Z</time>
      </trkpt>
      <trkpt lat="47.865958018228412" lon="-3.555653030052781">
        <ele>31.859999999999999</ele>
        <time>2018-07-07T07:14:11Z</time>
      </trkpt>
      <trkpt lat="47.865908984094858" lon="-3.555857967585325">
        <ele>31.859999999999999</ele>
        <time>2018-07-07T07:14:12Z</time>
      </trkpt>
      <trkpt lat="47.865908984094858" lon="-3.555857967585325">
        <ele>32.340000000000003</ele>
        <time>2018-07-07T07:14:13Z</time>
      </trkpt>
      <trkpt lat="47.865896997973323" lon="-3.555942038074136">
        <ele>32.340000000000003</ele>
        <time>2018-07-07T07:14:14Z</time>
      </trkpt>
      <trkpt lat="47.865860033780336" lon="-3.556018983945251">
        <ele>32.82</ele>
        <time>2018-07-07T07:14:15Z</time>
      </trkpt>
      <trkpt lat="47.865803958848119" lon="-3.556039016693831">
        <ele>32.82</ele>
        <time>2018-07-07T07:14:16Z</time>
      </trkpt>
      <trkpt lat="47.865746961906552" lon="-3.55606097728014">
        <ele>33.299999999999997</ele>
        <time>2018-07-07T07:14:17Z</time>
      </trkpt>
      <trkpt lat="47.865687031298876" lon="-3.556028958410025">
        <ele>33.780000000000001</ele>
        <time>2018-07-07T07:14:18Z</time>
      </trkpt>
      <trkpt lat="47.865642020478845" lon="-3.555961987003684">
        <ele>33.780000000000001</ele>
        <time>2018-07-07T07:14:19Z</time>
      </trkpt>
      <trkpt lat="47.865630034357309" lon="-3.555875988677144">
        <ele>34.259999999999998</ele>
        <time>2018-07-07T07:14:20Z</time>
      </trkpt>
      <trkpt lat="47.865630034357309" lon="-3.555857967585325">
        <ele>34.740000000000002</ele>
        <time>2018-07-07T07:14:21Z</time>
      </trkpt>
      <trkpt lat="47.865646965801716" lon="-3.555611036717892">
        <ele>34.740000000000002</ele>
        <time>2018-07-07T07:14:22Z</time>
      </trkpt>
      <trkpt lat="47.865605978295207" lon="-3.555545993149281">
        <ele>35.229999999999997</ele>
        <time>2018-07-07T07:14:23Z</time>
      </trkpt>
      <trkpt lat="47.865560967475176" lon="-3.555471980944276">
        <ele>35.229999999999997</ele>
        <time>2018-07-07T07:14:24Z</time>
      </trkpt>
      <trkpt lat="47.865511011332273" lon="-3.555387994274497">
        <ele>35.710000000000001</ele>
        <time>2018-07-07T07:14:25Z</time>
      </trkpt>
      <trkpt lat="47.865458037704229" lon="-3.555299984291196">
        <ele>36.189999999999998</ele>
        <time>2018-07-07T07:14:26Z</time>
      </trkpt>
      <trkpt lat="47.865404980257154" lon="-3.555210968479514">
        <ele>36.189999999999998</ele>
        <time>2018-07-07T07:14:27Z</time>
      </trkpt>
      <trkpt lat="47.864704001694918" lon="-3.553984025493264">
        <ele>37.630000000000003</ele>
        <time>2018-07-07T07:14:38Z</time>
      </trkpt>
      <trkpt lat="47.86384996958077" lon="-3.552202032878995">
        <ele>39.549999999999997</ele>
        <time>2018-07-07T07:14:50Z</time>
      </trkpt>
      <trkpt lat="47.863563979044557" lon="-3.551924005150795">
        <ele>41.469999999999999</ele>
        <time>2018-07-07T07:14:53Z</time>
      </trkpt>
      <trkpt lat="47.863471023738384" lon="-3.551847981289029">
        <ele>41.950000000000003</ele>
        <time>2018-07-07T07:14:54Z</time>
      </trkpt>
      <trkpt lat="47.863382007926702" lon="-3.551780004054308">
        <ele>42.920000000000002</ele>
        <time>2018-07-07T07:14:55Z</time>
      </trkpt>
      <trkpt lat="47.863284023478627" lon="-3.55174396187067">
        <ele>43.399999999999999</ele>
        <time>2018-07-07T07:14:56Z</time>
      </trkpt>
      <trkpt lat="47.86318302154541" lon="-3.551722001284361">
        <ele>44.359999999999999</ele>
        <time>2018-07-07T07:14:57Z</time>
      </trkpt>
      <trkpt lat="47.86307699047029" lon="-3.551702974364162">
        <ele>45.32</ele>
        <time>2018-07-07T07:14:58Z</time>
      </trkpt>
      <trkpt lat="47.86185197532177" lon="-3.551825014874339">
        <ele>53.009999999999998</ele>
        <time>2018-07-07T07:15:09Z</time>
      </trkpt>
      <trkpt lat="47.861760025843978" lon="-3.551871031522751">
        <ele>53.969999999999999</ele>
        <time>2018-07-07T07:15:10Z</time>
      </trkpt>
      <trkpt lat="47.861671010032296" lon="-3.551915036514401">
        <ele>54.450000000000003</ele>
        <time>2018-07-07T07:15:11Z</time>
      </trkpt>
      <trkpt lat="47.861584005877376" lon="-3.551985025405884">
        <ele>54.93</ele>
        <time>2018-07-07T07:15:12Z</time>
      </trkpt>
      <trkpt lat="47.861392982304096" lon="-3.552059959620237">
        <ele>56.369999999999997</ele>
        <time>2018-07-07T07:15:14Z</time>
      </trkpt>
      <trkpt lat="47.861287035048008" lon="-3.552113017067313">
        <ele>56.369999999999997</ele>
        <time>2018-07-07T07:15:15Z</time>
      </trkpt>
      <trkpt lat="47.86120698787272" lon="-3.552207984030247">
        <ele>57.340000000000003</ele>
        <time>2018-07-07T07:15:16Z</time>
      </trkpt>
      <trkpt lat="47.86114202812314" lon="-3.552348967641592">
        <ele>57.82</ele>
        <time>2018-07-07T07:15:17Z</time>
      </trkpt>
      <trkpt lat="47.861091988161206" lon="-3.552477965131402">
        <ele>58.780000000000001</ele>
        <time>2018-07-07T07:15:18Z</time>
      </trkpt>
      <trkpt lat="47.860339041799307" lon="-3.553981008008122">
        <ele>66.469999999999999</ele>
        <time>2018-07-07T07:15:30Z</time>
      </trkpt>
      <trkpt lat="47.859506970271468" lon="-3.555290009826422">
        <ele>71.269999999999996</ele>
        <time>2018-07-07T07:15:40Z</time>
      </trkpt>
      <trkpt lat="47.859264984726906" lon="-3.555655041709542">
        <ele>70.790000000000006</ele>
        <time>2018-07-07T07:15:44Z</time>
      </trkpt>
      <trkpt lat="47.859220979735255" lon="-3.555693011730909">
        <ele>70.310000000000002</ele>
        <time>2018-07-07T07:15:45Z</time>
      </trkpt>
      <trkpt lat="47.859189966693521" lon="-3.555720001459122">
        <ele>70.310000000000002</ele>
        <time>2018-07-07T07:15:46Z</time>
      </trkpt>
      <trkpt lat="47.85910002887249" lon="-3.555655041709542">
        <ele>69.829999999999998</ele>
        <time>2018-07-07T07:15:47Z</time>
      </trkpt>
      <trkpt lat="47.859085025265813" lon="-3.555594021454454">
        <ele>69.349999999999994</ele>
        <time>2018-07-07T07:15:48Z</time>
      </trkpt>
      <trkpt lat="47.859068010002375" lon="-3.555520009249449">
        <ele>68.870000000000005</ele>
        <time>2018-07-07T07:15:49Z</time>
      </trkpt>
      <trkpt lat="47.859046971425414" lon="-3.555434010922909">
        <ele>68.390000000000001</ele>
        <time>2018-07-07T07:15:50Z</time>
      </trkpt>
      <trkpt lat="47.859024005010724" lon="-3.555339965969324">
        <ele>67.430000000000007</ele>
        <time>2018-07-07T07:15:51Z</time>
      </trkpt>
      <trkpt lat="47.859000032767653" lon="-3.555236030369997">
        <ele>66.950000000000003</ele>
        <time>2018-07-07T07:15:52Z</time>
      </trkpt>
      <trkpt lat="47.85897396504879" lon="-3.555129999294877">
        <ele>66.469999999999999</ele>
        <time>2018-07-07T07:15:53Z</time>
      </trkpt>
      <trkpt lat="47.858948986977339" lon="-3.555025979876518">
        <ele>65.510000000000005</ele>
        <time>2018-07-07T07:15:54Z</time>
      </trkpt>
      <trkpt lat="47.858925014734268" lon="-3.554924977943301">
        <ele>65.030000000000001</ele>
        <time>2018-07-07T07:15:55Z</time>
      </trkpt>
      <trkpt lat="47.858901964500546" lon="-3.554826993495226">
        <ele>64.069999999999993</ele>
        <time>2018-07-07T07:15:56Z</time>
      </trkpt>
      <trkpt lat="47.858832981437445" lon="-3.554542008787394">
        <ele>62.140000000000001</ele>
        <time>2018-07-07T07:15:59Z</time>
      </trkpt>
      <trkpt lat="47.858810015022755" lon="-3.554444024339318">
        <ele>61.659999999999997</ele>
        <time>2018-07-07T07:16:00Z</time>
      </trkpt>
      <trkpt lat="47.858786964789033" lon="-3.554347967728972">
        <ele>61.18</ele>
        <time>2018-07-07T07:16:01Z</time>
      </trkpt>
      <trkpt lat="47.858762992545962" lon="-3.554248977452517">
        <ele>60.700000000000003</ele>
        <time>2018-07-07T07:16:02Z</time>
      </trkpt>
      <trkpt lat="47.858732985332608" lon="-3.554157027974725">
        <ele>60.219999999999999</ele>
        <time>2018-07-07T07:16:03Z</time>
      </trkpt>
      <trkpt lat="47.858703983947635" lon="-3.554070023819804">
        <ele>60.219999999999999</ele>
        <time>2018-07-07T07:16:04Z</time>
      </trkpt>
      <trkpt lat="47.858384968712926" lon="-3.553195958957076">
        <ele>57.340000000000003</ele>
        <time>2018-07-07T07:16:13Z</time>
      </trkpt>
      <trkpt lat="47.858356973156333" lon="-3.553086994215846">
        <ele>56.859999999999999</ele>
        <time>2018-07-07T07:16:14Z</time>
      </trkpt>
      <trkpt lat="47.858257982879877" lon="-3.552547032013536">
        <ele>53.490000000000002</ele>
        <time>2018-07-07T07:16:19Z</time>
      </trkpt>
      <trkpt lat="47.858233004808426" lon="-3.552328012883663">
        <ele>52.530000000000001</ele>
        <time>2018-07-07T07:16:21Z</time>
      </trkpt>
      <trkpt lat="47.858226969838142" lon="-3.552275039255619">
        <ele>52.049999999999997</ele>
        <time>2018-07-07T07:16:22Z</time>
      </trkpt>
      <trkpt lat="47.858227975666523" lon="-3.552120979875326">
        <ele>52.049999999999997</ele>
        <time>2018-07-07T07:16:23Z</time>
      </trkpt>
      <trkpt lat="47.858234010636806" lon="-3.552027018740773">
        <ele>51.57</ele>
        <time>2018-07-07T07:16:24Z</time>
      </trkpt>
      <trkpt lat="47.858239039778709" lon="-3.551931967958808">
        <ele>51.57</ele>
        <time>2018-07-07T07:16:25Z</time>
      </trkpt>
      <trkpt lat="47.858244990929961" lon="-3.551837000995874">
        <ele>51.090000000000003</ele>
        <time>2018-07-07T07:16:26Z</time>
      </trkpt>
      <trkpt lat="47.858279021456838" lon="-3.551244987174869">
        <ele>50.130000000000003</ele>
        <time>2018-07-07T07:16:32Z</time>
      </trkpt>
      <trkpt lat="47.858279021456838" lon="-3.550943993031979">
        <ele>50.609999999999999</ele>
        <time>2018-07-07T07:16:35Z</time>
      </trkpt>
      <trkpt lat="47.858264017850161" lon="-3.550842991098762">
        <ele>50.609999999999999</ele>
        <time>2018-07-07T07:16:36Z</time>
      </trkpt>
      <trkpt lat="47.858248008415103" lon="-3.550730003044009">
        <ele>50.130000000000003</ele>
        <time>2018-07-07T07:16:37Z</time>
      </trkpt>
      <trkpt lat="47.858182964846492" lon="-3.550550965592265">
        <ele>49.649999999999999</ele>
        <time>2018-07-07T07:16:39Z</time>
      </trkpt>
      <trkpt lat="47.858162010088563" lon="-3.550493968650699">
        <ele>49.159999999999997</ele>
        <time>2018-07-07T07:16:40Z</time>
      </trkpt>
      <trkpt lat="47.858019014820457" lon="-3.550404030829668">
        <ele>48.68</ele>
        <time>2018-07-07T07:16:42Z</time>
      </trkpt>
      <trkpt lat="47.857892028987408" lon="-3.550386009737849">
        <ele>48.200000000000003</ele>
        <time>2018-07-07T07:16:44Z</time>
      </trkpt>
      <trkpt lat="47.85703900270164" lon="-3.550551971420646">
        <ele>47.240000000000002</ele>
        <time>2018-07-07T07:16:55Z</time>
      </trkpt>
      <trkpt lat="47.856963984668255" lon="-3.550573009997606">
        <ele>46.759999999999998</ele>
        <time>2018-07-07T07:16:56Z</time>
      </trkpt>
      <trkpt lat="47.856915034353733" lon="-3.550552977249026">
        <ele>46.280000000000001</ele>
        <time>2018-07-07T07:16:57Z</time>
      </trkpt>
      <trkpt lat="47.856864994391799" lon="-3.55049598030746">
        <ele>45.799999999999997</ele>
        <time>2018-07-07T07:16:58Z</time>
      </trkpt>
      <trkpt lat="47.856814032420516" lon="-3.550438983365893">
        <ele>44.840000000000003</ele>
        <time>2018-07-07T07:16:59Z</time>
      </trkpt>
      <trkpt lat="47.856762986630201" lon="-3.550378968939185">
        <ele>44.840000000000003</ele>
        <time>2018-07-07T07:17:00Z</time>
      </trkpt>
      <trkpt lat="47.856710013002157" lon="-3.550289031118155">
        <ele>44.359999999999999</ele>
        <time>2018-07-07T07:17:01Z</time>
      </trkpt>
      <trkpt lat="47.856655027717352" lon="-3.55019599199295">
        <ele>43.880000000000003</ele>
        <time>2018-07-07T07:17:02Z</time>
      </trkpt>
      <trkpt lat="47.856182036921382" lon="-3.549380013719201">
        <ele>39.07</ele>
        <time>2018-07-07T07:17:10Z</time>
      </trkpt>
      <trkpt lat="47.856119005009532" lon="-3.549273982644081">
        <ele>38.590000000000003</ele>
        <time>2018-07-07T07:17:11Z</time>
      </trkpt>
      <trkpt lat="47.855626987293363" lon="-3.548501003533602">
        <ele>35.229999999999997</ele>
        <time>2018-07-07T07:17:18Z</time>
      </trkpt>
      <trkpt lat="47.85553302615881" lon="-3.548416011035442">
        <ele>35.229999999999997</ele>
        <time>2018-07-07T07:17:19Z</time>
      </trkpt>
      <trkpt lat="47.855435963720083" lon="-3.548335963860154">
        <ele>34.740000000000002</ele>
        <time>2018-07-07T07:17:20Z</time>
      </trkpt>
      <trkpt lat="47.855334039777517" lon="-3.54828299023211">
        <ele>34.740000000000002</ele>
        <time>2018-07-07T07:17:21Z</time>
      </trkpt>
      <trkpt lat="47.85523496568203" lon="-3.548233034089208">
        <ele>34.259999999999998</ele>
        <time>2018-07-07T07:17:22Z</time>
      </trkpt>
      <trkpt lat="47.854816038161516" lon="-3.548016026616097">
        <ele>28.5</ele>
        <time>2018-07-07T07:17:29Z</time>
      </trkpt>
      <trkpt lat="47.854744037613273" lon="-3.548047039657831">
        <ele>27.530000000000001</ele>
        <time>2018-07-07T07:17:30Z</time>
      </trkpt>
      <trkpt lat="47.854701038450003" lon="-3.548084003850818">
        <ele>26.57</ele>
        <time>2018-07-07T07:17:31Z</time>
      </trkpt>
      <trkpt lat="47.854016991332173" lon="-3.548542996868491">
        <ele>23.690000000000001</ele>
        <time>2018-07-07T07:17:39Z</time>
      </trkpt>
      <trkpt lat="47.852861965075135" lon="-3.548753969371319">
        <ele>26.09</ele>
        <time>2018-07-07T07:17:47Z</time>
      </trkpt>
      <trkpt lat="47.851484986022115" lon="-3.548379968851805">
        <ele>29.940000000000001</ele>
        <time>2018-07-07T07:17:55Z</time>
      </trkpt>
      <trkpt lat="47.850217977538705" lon="-3.548455992713571">
        <ele>36.670000000000002</ele>
        <time>2018-07-07T07:18:02Z</time>
      </trkpt>
      <trkpt lat="47.848732033744454" lon="-3.548703007400036">
        <ele>45.32</ele>
        <time>2018-07-07T07:18:11Z</time>
      </trkpt>
      <trkpt lat="47.847583964467049" lon="-3.54884197935462">
        <ele>47.719999999999999</ele>
        <time>2018-07-07T07:18:19Z</time>
      </trkpt>
      <trkpt lat="47.847438035532832" lon="-3.548932000994682">
        <ele>47.719999999999999</ele>
        <time>2018-07-07T07:18:20Z</time>
      </trkpt>
      <trkpt lat="47.847301997244358" lon="-3.549015987664461">
        <ele>48.200000000000003</ele>
        <time>2018-07-07T07:18:21Z</time>
      </trkpt>
      <trkpt lat="47.845882019028068" lon="-3.549896003678441">
        <ele>54.450000000000003</ele>
        <time>2018-07-07T07:18:31Z</time>
      </trkpt>
      <trkpt lat="47.844521971419454" lon="-3.550665965303779">
        <ele>52.530000000000001</ele>
        <time>2018-07-07T07:18:39Z</time>
      </trkpt>
      <trkpt lat="47.84358898177743" lon="-3.55109604075551">
        <ele>52.049999999999997</ele>
        <time>2018-07-07T07:18:44Z</time>
      </trkpt>
      <trkpt lat="47.841971023008227" lon="-3.551359986886382">
        <ele>51.57</ele>
        <time>2018-07-07T07:18:52Z</time>
      </trkpt>
      <trkpt lat="47.84041098318994" lon="-3.551608007401228">
        <ele>55.409999999999997</ele>
        <time>2018-07-07T07:19:00Z</time>
      </trkpt>
      <trkpt lat="47.838149964809418" lon="-3.551967004314065">
        <ele>59.740000000000002</ele>
        <time>2018-07-07T07:19:11Z</time>
      </trkpt>
      <trkpt lat="47.836737027391791" lon="-3.552145035937429">
        <ele>56.859999999999999</ele>
        <time>2018-07-07T07:19:18Z</time>
      </trkpt>
      <trkpt lat="47.836416000500321" lon="-3.552281996235251">
        <ele>55.409999999999997</ele>
        <time>2018-07-07T07:19:20Z</time>
      </trkpt>
      <trkpt lat="47.836255989968777" lon="-3.552395990118384">
        <ele>54.93</ele>
        <time>2018-07-07T07:19:21Z</time>
      </trkpt>
      <trkpt lat="47.836094973608851" lon="-3.552519036456943">
        <ele>53.969999999999999</ele>
        <time>2018-07-07T07:19:22Z</time>
      </trkpt>
      <trkpt lat="47.834826037287712" lon="-3.553755031898618">
        <ele>51.090000000000003</ele>
        <time>2018-07-07T07:19:30Z</time>
      </trkpt>
      <trkpt lat="47.833700012415648" lon="-3.554853983223438">
        <ele>57.82</ele>
        <time>2018-07-07T07:19:37Z</time>
      </trkpt>
      <trkpt lat="47.831993037834764" lon="-3.556521981954575">
        <ele>64.069999999999993</ele>
        <time>2018-07-07T07:19:47Z</time>
      </trkpt>
      <trkpt lat="47.830272987484932" lon="-3.558195009827614">
        <ele>68.870000000000005</ele>
        <time>2018-07-07T07:19:57Z</time>
      </trkpt>
      <trkpt lat="47.828562995418906" lon="-3.559880023822188">
        <ele>75.599999999999994</ele>
        <time>2018-07-07T07:20:07Z</time>
      </trkpt>
      <trkpt lat="47.828042982146144" lon="-3.560400037094951">
        <ele>75.599999999999994</ele>
        <time>2018-07-07T07:20:10Z</time>
      </trkpt>
      <trkpt lat="47.827880037948489" lon="-3.560561975464225">
        <ele>75.120000000000005</ele>
        <time>2018-07-07T07:20:11Z</time>
      </trkpt>
      <trkpt lat="47.826493000611663" lon="-3.561927974224091">
        <ele>71.269999999999996</ele>
        <time>2018-07-07T07:20:19Z</time>
      </trkpt>
      <trkpt lat="47.825737036764622" lon="-3.562628030776978">
        <ele>69.829999999999998</ele>
        <time>2018-07-07T07:20:24Z</time>
      </trkpt>
      <trkpt lat="47.825575014576316" lon="-3.562711011618376">
        <ele>69.349999999999994</ele>
        <time>2018-07-07T07:20:25Z</time>
      </trkpt>
      <trkpt lat="47.825407041236758" lon="-3.562746969982982">
        <ele>69.829999999999998</ele>
        <time>2018-07-07T07:20:26Z</time>
      </trkpt>
      <trkpt lat="47.825242001563311" lon="-3.562761973589659">
        <ele>70.310000000000002</ele>
        <time>2018-07-07T07:20:27Z</time>
      </trkpt>
      <trkpt lat="47.825062964111567" lon="-3.562746969982982">
        <ele>70.790000000000006</ele>
        <time>2018-07-07T07:20:28Z</time>
      </trkpt>
      <trkpt lat="47.824875041842461" lon="-3.562730960547924">
        <ele>71.269999999999996</ele>
        <time>2018-07-07T07:20:29Z</time>
      </trkpt>
      <trkpt lat="47.82339395955205" lon="-3.562699025496841">
        <ele>74.159999999999997</ele>
        <time>2018-07-07T07:20:36Z</time>
      </trkpt>
      <trkpt lat="47.821989990770817" lon="-3.562661977484822">
        <ele>77.040000000000006</ele>
        <time>2018-07-07T07:20:43Z</time>
      </trkpt>
      <trkpt lat="47.820009011775255" lon="-3.562606992200017">
        <ele>72.719999999999999</ele>
        <time>2018-07-07T07:20:54Z</time>
      </trkpt>
      <trkpt lat="47.819607015699148" lon="-3.562592994421721">
        <ele>69.349999999999994</ele>
        <time>2018-07-07T07:20:57Z</time>
      </trkpt>
      <trkpt lat="47.819468965753913" lon="-3.562588971108198">
        <ele>67.909999999999997</ele>
        <time>2018-07-07T07:20:58Z</time>
      </trkpt>
      <trkpt lat="47.818850968033075" lon="-3.562619984149933">
        <ele>63.100000000000001</ele>
        <time>2018-07-07T07:21:02Z</time>
      </trkpt>
      <trkpt lat="47.818684000521898" lon="-3.562658959999681">
        <ele>62.140000000000001</ele>
        <time>2018-07-07T07:21:03Z</time>
      </trkpt>
      <trkpt lat="47.818517033010721" lon="-3.562738001346588">
        <ele>61.659999999999997</ele>
        <time>2018-07-07T07:21:04Z</time>
      </trkpt>
      <trkpt lat="47.817196967080235" lon="-3.563125999644399">
        <ele>55.409999999999997</ele>
        <time>2018-07-07T07:21:12Z</time>
      </trkpt>
      <trkpt lat="47.815967006608844" lon="-3.563087023794651">
        <ele>53.490000000000002</ele>
        <time>2018-07-07T07:21:20Z</time>
      </trkpt>
      <trkpt lat="47.81522898003459" lon="-3.562969006597996">
        <ele>54.93</ele>
        <time>2018-07-07T07:21:25Z</time>
      </trkpt>
      <trkpt lat="47.815075004473329" lon="-3.562888037413359">
        <ele>55.409999999999997</ele>
        <time>2018-07-07T07:21:26Z</time>
      </trkpt>
      <trkpt lat="47.814918011426926" lon="-3.562792986631393">
        <ele>55.409999999999997</ele>
        <time>2018-07-07T07:21:27Z</time>
      </trkpt>
      <trkpt lat="47.813491998240352" lon="-3.561615999788046">
        <ele>59.740000000000002</ele>
        <time>2018-07-07T07:21:36Z</time>
      </trkpt>
      <trkpt lat="47.812100015580654" lon="-3.560347985476255">
        <ele>63.100000000000001</ele>
        <time>2018-07-07T07:21:46Z</time>
      </trkpt>
      <trkpt lat="47.81073896214366" lon="-3.55928298085928">
        <ele>64.549999999999997</ele>
        <time>2018-07-07T07:21:56Z</time>
      </trkpt>
      <trkpt lat="47.809807984158397" lon="-3.558950973674655">
        <ele>63.579999999999998</ele>
        <time>2018-07-07T07:22:06Z</time>
      </trkpt>
      <trkpt lat="47.808532007038593" lon="-3.558142958208919">
        <ele>62.619999999999997</ele>
        <time>2018-07-07T07:22:18Z</time>
      </trkpt>
      <trkpt lat="47.806950006633997" lon="-3.557036966085434">
        <ele>60.700000000000003</ele>
        <time>2018-07-07T07:22:30Z</time>
      </trkpt>
      <trkpt lat="47.805742006748915" lon="-3.556384015828371">
        <ele>60.219999999999999</ele>
        <time>2018-07-07T07:22:38Z</time>
      </trkpt>
      <trkpt lat="47.803518958389759" lon="-3.555698962882161">
        <ele>57.340000000000003</ele>
        <time>2018-07-07T07:22:51Z</time>
      </trkpt>
      <trkpt lat="47.802183972671628" lon="-3.555424958467484">
        <ele>56.369999999999997</ele>
        <time>2018-07-07T07:22:59Z</time>
      </trkpt>
      <trkpt lat="47.801015032455325" lon="-3.55532999150455">
        <ele>57.340000000000003</ele>
        <time>2018-07-07T07:23:08Z</time>
      </trkpt>
      <trkpt lat="47.800778998062015" lon="-3.555322028696537">
        <ele>56.859999999999999</ele>
        <time>2018-07-07T07:23:11Z</time>
      </trkpt>
      <trkpt lat="47.800742033869028" lon="-3.555471980944276">
        <ele>56.859999999999999</ele>
        <time>2018-07-07T07:23:12Z</time>
      </trkpt>
      <trkpt lat="47.800644971430302" lon="-3.555569965392351">
        <ele>57.340000000000003</ele>
        <time>2018-07-07T07:23:13Z</time>
      </trkpt>
      <trkpt lat="47.8005759883672" lon="-3.555558985099196">
        <ele>57.340000000000003</ele>
        <time>2018-07-07T07:23:14Z</time>
      </trkpt>
      <trkpt lat="47.800505999475718" lon="-3.555450020357966">
        <ele>57.340000000000003</ele>
        <time>2018-07-07T07:23:15Z</time>
      </trkpt>
      <trkpt lat="47.800414972007275" lon="-3.555409032851458">
        <ele>57.340000000000003</ele>
        <time>2018-07-07T07:23:16Z</time>
      </trkpt>
      <trkpt lat="47.80031799338758" lon="-3.555365027859807">
        <ele>57.340000000000003</ele>
        <time>2018-07-07T07:23:17Z</time>
      </trkpt>
      <trkpt lat="47.800212968140841" lon="-3.555316999554634">
        <ele>57.340000000000003</ele>
        <time>2018-07-07T07:23:18Z</time>
      </trkpt>
      <trkpt lat="47.79984500259161" lon="-3.555181967094541">
        <ele>57.340000000000003</ele>
        <time>2018-07-07T07:23:21Z</time>
      </trkpt>
      <trkpt lat="47.798916036263108" lon="-3.554921038448811">
        <ele>57.340000000000003</ele>
        <time>2018-07-07T07:23:27Z</time>
      </trkpt>
      <trkpt lat="47.798752002418041" lon="-3.554826993495226">
        <ele>57.340000000000003</ele>
        <time>2018-07-07T07:23:28Z</time>
      </trkpt>
      <trkpt lat="47.798591991886497" lon="-3.554703025147319">
        <ele>57.340000000000003</ele>
        <time>2018-07-07T07:23:29Z</time>
      </trkpt>
      <trkpt lat="47.797343004494905" lon="-3.553972039371729">
        <ele>56.859999999999999</ele>
        <time>2018-07-07T07:23:36Z</time>
      </trkpt>
      <trkpt lat="47.796501964330673" lon="-3.553644977509975">
        <ele>55.409999999999997</ele>
        <time>2018-07-07T07:23:41Z</time>
      </trkpt>
      <trkpt lat="47.79634396545589" lon="-3.553540036082268">
        <ele>54.93</ele>
        <time>2018-07-07T07:23:42Z</time>
      </trkpt>
      <trkpt lat="47.795302011072636" lon="-3.552651973441243">
        <ele>50.609999999999999</ele>
        <time>2018-07-07T07:23:49Z</time>
      </trkpt>
      <trkpt lat="47.795178964734077" lon="-3.552481988444924">
        <ele>49.649999999999999</ele>
        <time>2018-07-07T07:23:50Z</time>
      </trkpt>
      <trkpt lat="47.794532971456647" lon="-3.55137700214982">
        <ele>43.880000000000003</ele>
        <time>2018-07-07T07:23:56Z</time>
      </trkpt>
      <trkpt lat="47.794407997280359" lon="-3.551252027973533">
        <ele>42.439999999999998</ele>
        <time>2018-07-07T07:23:57Z</time>
      </trkpt>
      <trkpt lat="47.794303977862" lon="-3.551158988848329">
        <ele>41.469999999999999</ele>
        <time>2018-07-07T07:23:58Z</time>
      </trkpt>
      <trkpt lat="47.794147990643978" lon="-3.55109503492713">
        <ele>40.030000000000001</ele>
        <time>2018-07-07T07:23:59Z</time>
      </trkpt>
      <trkpt lat="47.794013964012265" lon="-3.551038959994912">
        <ele>39.07</ele>
        <time>2018-07-07T07:24:00Z</time>
      </trkpt>
      <trkpt lat="47.793867029249668" lon="-3.551016999408603">
        <ele>38.590000000000003</ele>
        <time>2018-07-07T07:24:01Z</time>
      </trkpt>
      <trkpt lat="47.793714981526136" lon="-3.551036026328802">
        <ele>37.630000000000003</ele>
        <time>2018-07-07T07:24:02Z</time>
      </trkpt>
      <trkpt lat="47.793558994308114" lon="-3.55105496942997">
        <ele>37.149999999999999</ele>
        <time>2018-07-07T07:24:03Z</time>
      </trkpt>
      <trkpt lat="47.792920041829348" lon="-3.551106015220285">
        <ele>33.780000000000001</ele>
        <time>2018-07-07T07:24:07Z</time>
      </trkpt>
      <trkpt lat="47.792776962742209" lon="-3.55109604075551">
        <ele>33.299999999999997</ele>
        <time>2018-07-07T07:24:08Z</time>
      </trkpt>
      <trkpt lat="47.792673027142882" lon="-3.551008030772209">
        <ele>32.340000000000003</ele>
        <time>2018-07-07T07:24:09Z</time>
      </trkpt>
      <trkpt lat="47.792573031038046" lon="-3.550908034667373">
        <ele>31.859999999999999</ele>
        <time>2018-07-07T07:24:10Z</time>
      </trkpt>
      <trkpt lat="47.792489966377616" lon="-3.550805021077395">
        <ele>30.899999999999999</ele>
        <time>2018-07-07T07:24:11Z</time>
      </trkpt>
      <trkpt lat="47.792428024113178" lon="-3.550636041909456">
        <ele>29.460000000000001</ele>
        <time>2018-07-07T07:24:12Z</time>
      </trkpt>
      <trkpt lat="47.792359963059425" lon="-3.550451975315809">
        <ele>28.5</ele>
        <time>2018-07-07T07:24:13Z</time>
      </trkpt>
      <trkpt lat="47.792315036058426" lon="-3.550247037783265">
        <ele>28.02</ele>
        <time>2018-07-07T07:24:14Z</time>
      </trkpt>
      <trkpt lat="47.792272036895156" lon="-3.550028018653393">
        <ele>27.050000000000001</ele>
        <time>2018-07-07T07:24:15Z</time>
      </trkpt>
      <trkpt lat="47.792228031903505" lon="-3.549810005351901">
        <ele>26.09</ele>
        <time>2018-07-07T07:24:16Z</time>
      </trkpt>
      <trkpt lat="47.792186960577965" lon="-3.549602972343564">
        <ele>25.129999999999999</ele>
        <time>2018-07-07T07:24:17Z</time>
      </trkpt>
      <trkpt lat="47.792112026363611" lon="-3.549444973468781">
        <ele>24.170000000000002</ele>
        <time>2018-07-07T07:24:18Z</time>
      </trkpt>
      <trkpt lat="47.792032985016704" lon="-3.549298038706183">
        <ele>22.73</ele>
        <time>2018-07-07T07:24:19Z</time>
      </trkpt>
      <trkpt lat="47.791947992518544" lon="-3.549199970439076">
        <ele>21.77</ele>
        <time>2018-07-07T07:24:20Z</time>
      </trkpt>
      <trkpt lat="47.791859982535243" lon="-3.549100980162621">
        <ele>20.32</ele>
        <time>2018-07-07T07:24:21Z</time>
      </trkpt>
      <trkpt lat="47.791602993384004" lon="-3.548967037349939">
        <ele>17.440000000000001</ele>
        <time>2018-07-07T07:24:23Z</time>
      </trkpt>
      <trkpt lat="47.791310967877507" lon="-3.548814989626408">
        <ele>14.56</ele>
        <time>2018-07-07T07:24:25Z</time>
      </trkpt>
      <trkpt lat="47.791177025064826" lon="-3.548804009333253">
        <ele>13.119999999999999</ele>
        <time>2018-07-07T07:24:26Z</time>
      </trkpt>
      <trkpt lat="47.791049033403397" lon="-3.548810966312885">
        <ele>12.15</ele>
        <time>2018-07-07T07:24:27Z</time>
      </trkpt>
      <trkpt lat="47.790933027863503" lon="-3.548817001283169">
        <ele>11.19</ele>
        <time>2018-07-07T07:24:28Z</time>
      </trkpt>
      <trkpt lat="47.790828002616763" lon="-3.548864023759961">
        <ele>10.23</ele>
        <time>2018-07-07T07:24:29Z</time>
      </trkpt>
      <trkpt lat="47.79073697514832" lon="-3.548953961580992">
        <ele>9.27</ele>
        <time>2018-07-07T07:24:30Z</time>
      </trkpt>
      <trkpt lat="47.790634967386723" lon="-3.549055969342589">
        <ele>8.310000000000001</ele>
        <time>2018-07-07T07:24:31Z</time>
      </trkpt>
      <trkpt lat="47.79058400541544" lon="-3.54918303899467">
        <ele>7.35</ele>
        <time>2018-07-07T07:24:32Z</time>
      </trkpt>
      <trkpt lat="47.790535977110267" lon="-3.549352018162608">
        <ele>6.39</ele>
        <time>2018-07-07T07:24:33Z</time>
      </trkpt>
      <trkpt lat="47.790508987382054" lon="-3.549522003158927">
        <ele>5.42</ele>
        <time>2018-07-07T07:24:34Z</time>
      </trkpt>
      <trkpt lat="47.79047797434032" lon="-3.549712020903826">
        <ele>4.46</ele>
        <time>2018-07-07T07:24:35Z</time>
      </trkpt>
      <trkpt lat="47.790444027632475" lon="-3.549922993406653">
        <ele>3.98</ele>
        <time>2018-07-07T07:24:36Z</time>
      </trkpt>
      <trkpt lat="47.790402034297585" lon="-3.550094990059733">
        <ele>2.54</ele>
        <time>2018-07-07T07:24:37Z</time>
      </trkpt>
      <trkpt lat="47.790315030142665" lon="-3.550231028348208">
        <ele>1.58</ele>
        <time>2018-07-07T07:24:38Z</time>
      </trkpt>
      <trkpt lat="47.790212016552687" lon="-3.550319960340858">
        <ele>0.62</ele>
        <time>2018-07-07T07:24:39Z</time>
      </trkpt>
      <trkpt lat="47.790100034326315" lon="-3.550357008352876">
        <ele>0.14</ele>
        <time>2018-07-07T07:24:40Z</time>
      </trkpt>
      <trkpt lat="47.789990985766053" lon="-3.550393972545862">
        <ele>-0.82</ele>
        <time>2018-07-07T07:24:41Z</time>
      </trkpt>
      <trkpt lat="47.789870034903288" lon="-3.550371006131172">
        <ele>-1.79</ele>
        <time>2018-07-07T07:24:42Z</time>
      </trkpt>
      <trkpt lat="47.789756963029504" lon="-3.550318032503128">
        <ele>-2.27</ele>
        <time>2018-07-07T07:24:43Z</time>
      </trkpt>
      <trkpt lat="47.78964196331799" lon="-3.550263969227672">
        <ele>-2.75</ele>
        <time>2018-07-07T07:24:44Z</time>
      </trkpt>
      <trkpt lat="47.789529981091619" lon="-3.550159027799964">
        <ele>-2.75</ele>
        <time>2018-07-07T07:24:45Z</time>
      </trkpt>
      <trkpt lat="47.789439959451556" lon="-3.550031036138535">
        <ele>-2.75</ele>
        <time>2018-07-07T07:24:46Z</time>
      </trkpt>
      <trkpt lat="47.789350021630526" lon="-3.549902038648725">
        <ele>-2.27</ele>
        <time>2018-07-07T07:24:47Z</time>
      </trkpt>
      <trkpt lat="47.789282966405153" lon="-3.549806987866759">
        <ele>-1.79</ele>
        <time>2018-07-07T07:24:48Z</time>
      </trkpt>
      <trkpt lat="47.789157992228866" lon="-3.549711015075445">
        <ele>-1.3</ele>
        <time>2018-07-07T07:24:49Z</time>
      </trkpt>
      <trkpt lat="47.78903997503221" lon="-3.549619987607002">
        <ele>-1.3</ele>
        <time>2018-07-07T07:24:50Z</time>
      </trkpt>
      <trkpt lat="47.788918018341064" lon="-3.549569025635719">
        <ele>-0.82</ele>
        <time>2018-07-07T07:24:51Z</time>
      </trkpt>
      <trkpt lat="47.78878097422421" lon="-3.549530971795321">
        <ele>-0.34</ele>
        <time>2018-07-07T07:24:52Z</time>
      </trkpt>
      <trkpt lat="47.788233971223235" lon="-3.549381019547582">
        <ele>2.06</ele>
        <time>2018-07-07T07:24:56Z</time>
      </trkpt>
      <trkpt lat="47.787940017879009" lon="-3.549323016777635">
        <ele>3.5</ele>
        <time>2018-07-07T07:24:58Z</time>
      </trkpt>
      <trkpt lat="47.787800962105393" lon="-3.549300972372294">
        <ele>3.98</ele>
        <time>2018-07-07T07:24:59Z</time>
      </trkpt>
      <trkpt lat="47.787656038999557" lon="-3.549278005957604">
        <ele>4.94</ele>
        <time>2018-07-07T07:25:00Z</time>
      </trkpt>
      <trkpt lat="47.787344986572862" lon="-3.549181027337909">
        <ele>5.42</ele>
        <time>2018-07-07T07:25:02Z</time>
      </trkpt>
      <trkpt lat="47.787177013233304" lon="-3.549094023182988">
        <ele>5.91</ele>
        <time>2018-07-07T07:25:03Z</time>
      </trkpt>
      <trkpt lat="47.787065031006932" lon="-3.548954967409372">
        <ele>6.39</ele>
        <time>2018-07-07T07:25:04Z</time>
      </trkpt>
      <trkpt lat="47.786923041567206" lon="-3.548777019605041">
        <ele>7.35</ele>
        <time>2018-07-07T07:25:05Z</time>
      </trkpt>
      <trkpt lat="47.786845006048679" lon="-3.548651961609721">
        <ele>7.83</ele>
        <time>2018-07-07T07:25:06Z</time>
      </trkpt>
      <trkpt lat="47.786745009943843" lon="-3.548493040725589">
        <ele>8.789999999999999</ele>
        <time>2018-07-07T07:25:07Z</time>
      </trkpt>
      <trkpt lat="47.786648031324148" lon="-3.548336969688535">
        <ele>9.75</ele>
        <time>2018-07-07T07:25:08Z</time>
      </trkpt>
      <trkpt lat="47.786559015512466" lon="-3.548193974420428">
        <ele>10.23</ele>
        <time>2018-07-07T07:25:09Z</time>
      </trkpt>
      <trkpt lat="47.786478968337178" lon="-3.54806698858738">
        <ele>10.710000000000001</ele>
        <time>2018-07-07T07:25:10Z</time>
      </trkpt>
      <trkpt lat="47.786401016637683" lon="-3.547942014411092">
        <ele>11.19</ele>
        <time>2018-07-07T07:25:11Z</time>
      </trkpt>
      <trkpt lat="47.785926014184952" lon="-3.547203987836838">
        <ele>16</ele>
        <time>2018-07-07T07:25:17Z</time>
      </trkpt>
      <trkpt lat="47.785830963402987" lon="-3.547116983681917">
        <ele>16</ele>
        <time>2018-07-07T07:25:18Z</time>
      </trkpt>
      <trkpt lat="47.785732978954911" lon="-3.547028973698616">
        <ele>16</ele>
        <time>2018-07-07T07:25:19Z</time>
      </trkpt>
      <trkpt lat="47.785626025870442" lon="-3.546955967321992">
        <ele>16</ele>
        <time>2018-07-07T07:25:20Z</time>
      </trkpt>
      <trkpt lat="47.785527035593987" lon="-3.546892013400793">
        <ele>16</ele>
        <time>2018-07-07T07:25:21Z</time>
      </trkpt>
      <trkpt lat="47.78461198322475" lon="-3.546388009563088">
        <ele>17.920000000000002</ele>
        <time>2018-07-07T07:25:30Z</time>
      </trkpt>
      <trkpt lat="47.784527996554971" lon="-3.546346016228199">
        <ele>17.920000000000002</ele>
        <time>2018-07-07T07:25:31Z</time>
      </trkpt>
      <trkpt lat="47.783660972490907" lon="-3.546171002089977">
        <ele>16.48</ele>
        <time>2018-07-07T07:25:38Z</time>
      </trkpt>
      <trkpt lat="47.782051982358098" lon="-3.546020966023207">
        <ele>19.84</ele>
        <time>2018-07-07T07:25:48Z</time>
      </trkpt>
      <trkpt lat="47.781141959130764" lon="-3.545847041532397">
        <ele>24.170000000000002</ele>
        <time>2018-07-07T07:25:54Z</time>
      </trkpt>
      <trkpt lat="47.780979014933109" lon="-3.545794989913702">
        <ele>24.170000000000002</ele>
        <time>2018-07-07T07:25:55Z</time>
      </trkpt>
      <trkpt lat="47.780841970816255" lon="-3.545695999637246">
        <ele>24.649999999999999</ele>
        <time>2018-07-07T07:25:56Z</time>
      </trkpt>
      <trkpt lat="47.779233986511827" lon="-3.544663013890386">
        <ele>23.210000000000001</ele>
        <time>2018-07-07T07:26:07Z</time>
      </trkpt>
      <trkpt lat="47.77795298025012" lon="-3.544312985613942">
        <ele>17.920000000000002</ele>
        <time>2018-07-07T07:26:16Z</time>
      </trkpt>
      <trkpt lat="47.777834963053465" lon="-3.544192034751177">
        <ele>16.48</ele>
        <time>2018-07-07T07:26:17Z</time>
      </trkpt>
      <trkpt lat="47.776819998398423" lon="-3.543215962126851">
        <ele>10.23</ele>
        <time>2018-07-07T07:26:25Z</time>
      </trkpt>
      <trkpt lat="47.77638103812933" lon="-3.543051006272435">
        <ele>9.75</ele>
        <time>2018-07-07T07:26:29Z</time>
      </trkpt>
      <trkpt lat="47.776265032589436" lon="-3.543029967695475">
        <ele>10.23</ele>
        <time>2018-07-07T07:26:30Z</time>
      </trkpt>
      <trkpt lat="47.775193993002176" lon="-3.542903987690806">
        <ele>14.56</ele>
        <time>2018-07-07T07:26:39Z</time>
      </trkpt>
      <trkpt lat="47.775097014382482" lon="-3.542893007397652">
        <ele>14.56</ele>
        <time>2018-07-07T07:26:40Z</time>
      </trkpt>
      <trkpt lat="47.774998024106026" lon="-3.542883032932878">
        <ele>15.039999999999999</ele>
        <time>2018-07-07T07:26:41Z</time>
      </trkpt>
      <trkpt lat="47.77406201697886" lon="-3.542780019342899">
        <ele>21.77</ele>
        <time>2018-07-07T07:26:50Z</time>
      </trkpt>
      <trkpt lat="47.773768985643983" lon="-3.542769039049745">
        <ele>24.170000000000002</ele>
        <time>2018-07-07T07:26:53Z</time>
      </trkpt>
      <trkpt lat="47.773665972054005" lon="-3.542779013514519">
        <ele>25.129999999999999</ele>
        <time>2018-07-07T07:26:54Z</time>
      </trkpt>
      <trkpt lat="47.773303035646677" lon="-3.542826035991311">
        <ele>26.09</ele>
        <time>2018-07-07T07:26:58Z</time>
      </trkpt>
      <trkpt lat="47.773025007918477" lon="-3.542927959933877">
        <ele>26.09</ele>
        <time>2018-07-07T07:27:02Z</time>
      </trkpt>
      <trkpt lat="47.772973040118814" lon="-3.542946986854076">
        <ele>26.09</ele>
        <time>2018-07-07T07:27:03Z</time>
      </trkpt>
      <trkpt lat="47.772926017642021" lon="-3.543000966310501">
        <ele>26.09</ele>
        <time>2018-07-07T07:27:04Z</time>
      </trkpt>
      <trkpt lat="47.772915959358215" lon="-3.543062992393971">
        <ele>26.57</ele>
        <time>2018-07-07T07:27:05Z</time>
      </trkpt>
      <trkpt lat="47.772943032905459" lon="-3.543158965185285">
        <ele>26.57</ele>
        <time>2018-07-07T07:27:06Z</time>
      </trkpt>
      <trkpt lat="47.772973040118814" lon="-3.543224008753896">
        <ele>27.050000000000001</ele>
        <time>2018-07-07T07:27:07Z</time>
      </trkpt>
      <trkpt lat="47.773040011525154" lon="-3.543370021507144">
        <ele>27.050000000000001</ele>
        <time>2018-07-07T07:27:08Z</time>
      </trkpt>
      <trkpt lat="47.773070018738508" lon="-3.543406985700131">
        <ele>27.530000000000001</ele>
        <time>2018-07-07T07:27:09Z</time>
      </trkpt>
      <trkpt lat="47.773134978488088" lon="-3.543487032875419">
        <ele>27.530000000000001</ele>
        <time>2018-07-07T07:27:10Z</time>
      </trkpt>
      <trkpt lat="47.773201027885079" lon="-3.543569007888436">
        <ele>27.530000000000001</ele>
        <time>2018-07-07T07:27:11Z</time>
      </trkpt>
      <trkpt lat="47.773491963744164" lon="-3.543934039771557">
        <ele>28.98</ele>
        <time>2018-07-07T07:27:15Z</time>
      </trkpt>
      <trkpt lat="47.773573016747832" lon="-3.544038981199265">
        <ele>29.940000000000001</ele>
        <time>2018-07-07T07:27:16Z</time>
      </trkpt>
      <trkpt lat="47.773980963975191" lon="-3.544642981141806">
        <ele>34.259999999999998</ele>
        <time>2018-07-07T07:27:21Z</time>
      </trkpt>
      <trkpt lat="47.774055982008576" lon="-3.544778013601899">
        <ele>34.740000000000002</ele>
        <time>2018-07-07T07:27:22Z</time>
      </trkpt>
      <trkpt lat="47.774526961147785" lon="-3.545973021537066">
        <ele>36.189999999999998</ele>
        <time>2018-07-07T07:27:29Z</time>
      </trkpt>
      <trkpt lat="47.774575995281339" lon="-3.54617795906961">
        <ele>36.189999999999998</ele>
        <time>2018-07-07T07:27:30Z</time>
      </trkpt>
      <trkpt lat="47.775089973583817" lon="-3.548578033223748">
        <ele>33.780000000000001</ele>
        <time>2018-07-07T07:27:40Z</time>
      </trkpt>
      <trkpt lat="47.775666983798146" lon="-3.550693960860372">
        <ele>33.299999999999997</ele>
        <time>2018-07-07T07:27:49Z</time>
      </trkpt>
      <trkpt lat="47.776239970698953" lon="-3.552242014557123">
        <ele>35.229999999999997</ele>
        <time>2018-07-07T07:27:59Z</time>
      </trkpt>
      <trkpt lat="47.776528978720307" lon="-3.552993033081293">
        <ele>34.740000000000002</ele>
        <time>2018-07-07T07:28:04Z</time>
      </trkpt>
      <trkpt lat="47.776933992281556" lon="-3.554026018828154">
        <ele>32.340000000000003</ele>
        <time>2018-07-07T07:28:12Z</time>
      </trkpt>
      <trkpt lat="47.777117975056171" lon="-3.554478976875544">
        <ele>30.420000000000002</ele>
        <time>2018-07-07T07:28:15Z</time>
      </trkpt>
      <trkpt lat="47.77719902805984" lon="-3.554611997678876">
        <ele>29.940000000000001</ele>
        <time>2018-07-07T07:28:16Z</time>
      </trkpt>
      <trkpt lat="47.777288965880871" lon="-3.554736971855164">
        <ele>29.940000000000001</ele>
        <time>2018-07-07T07:28:17Z</time>
      </trkpt>
      <trkpt lat="47.77810201048851" lon="-3.556129038333893">
        <ele>31.379999999999999</ele>
        <time>2018-07-07T07:28:27Z</time>
      </trkpt>
      <trkpt lat="47.778781028464437" lon="-3.557652030140162">
        <ele>32.82</ele>
        <time>2018-07-07T07:28:35Z</time>
      </trkpt>
      <trkpt lat="47.779471026733518" lon="-3.559336038306356">
        <ele>34.740000000000002</ele>
        <time>2018-07-07T07:28:43Z</time>
      </trkpt>
      <trkpt lat="47.780052982270718" lon="-3.561566965654492">
        <ele>39.549999999999997</ele>
        <time>2018-07-07T07:28:53Z</time>
      </trkpt>
      <trkpt lat="47.780399993062019" lon="-3.563248040154576">
        <ele>41.950000000000003</ele>
        <time>2018-07-07T07:29:01Z</time>
      </trkpt>
      <trkpt lat="47.780424971133471" lon="-3.563453983515501">
        <ele>41.950000000000003</ele>
        <time>2018-07-07T07:29:02Z</time>
      </trkpt>
      <trkpt lat="47.780454978346825" lon="-3.563668979331851">
        <ele>41.469999999999999</ele>
        <time>2018-07-07T07:29:03Z</time>
      </trkpt>
      <trkpt lat="47.780908020213246" lon="-3.566078022122383">
        <ele>44.359999999999999</ele>
        <time>2018-07-07T07:29:14Z</time>
      </trkpt>
      <trkpt lat="47.781396014615893" lon="-3.567763036116958">
        <ele>48.68</ele>
        <time>2018-07-07T07:29:24Z</time>
      </trkpt>
      <trkpt lat="47.781513025984168" lon="-3.567997980862856">
        <ele>48.68</ele>
        <time>2018-07-07T07:29:27Z</time>
      </trkpt>
      <trkpt lat="47.781538004055619" lon="-3.56804802082479">
        <ele>48.68</ele>
        <time>2018-07-07T07:29:28Z</time>
      </trkpt>
      <trkpt lat="47.781558958813548" lon="-3.568089008331299">
        <ele>48.68</ele>
        <time>2018-07-07T07:29:29Z</time>
      </trkpt>
      <trkpt lat="47.781529035419226" lon="-3.568211970850825">
        <ele>48.68</ele>
        <time>2018-07-07T07:29:30Z</time>
      </trkpt>
      <trkpt lat="47.781501039862633" lon="-3.568210965022445">
        <ele>48.68</ele>
        <time>2018-07-07T07:29:31Z</time>
      </trkpt>
      <trkpt lat="47.78145301155746" lon="-3.568208031356335">
        <ele>48.68</ele>
        <time>2018-07-07T07:29:32Z</time>
      </trkpt>
      <trkpt lat="47.781394002959132" lon="-3.568204008042812">
        <ele>48.68</ele>
        <time>2018-07-07T07:29:33Z</time>
      </trkpt>
      <trkpt lat="47.781331976875663" lon="-3.568200990557671">
        <ele>48.68</ele>
        <time>2018-07-07T07:29:34Z</time>
      </trkpt>
      <trkpt lat="47.781257964670658" lon="-3.568195961415768">
        <ele>48.68</ele>
        <time>2018-07-07T07:29:35Z</time>
      </trkpt>
      <trkpt lat="47.781194010749459" lon="-3.568161008879542">
        <ele>48.200000000000003</ele>
        <time>2018-07-07T07:29:36Z</time>
      </trkpt>
      <trkpt lat="47.78113198466599" lon="-3.568125972524285">
        <ele>48.200000000000003</ele>
        <time>2018-07-07T07:29:37Z</time>
      </trkpt>
      <trkpt lat="47.781065013259649" lon="-3.568089008331299">
        <ele>47.719999999999999</ele>
        <time>2018-07-07T07:29:38Z</time>
      </trkpt>
      <trkpt lat="47.78098396025598" lon="-3.568043997511268">
        <ele>47.719999999999999</ele>
        <time>2018-07-07T07:29:39Z</time>
      </trkpt>
      <trkpt lat="47.780815986916423" lon="-3.567968979477882">
        <ele>47.240000000000002</ele>
        <time>2018-07-07T07:29:41Z</time>
      </trkpt>
      <trkpt lat="47.780730994418263" lon="-3.567950036376715">
        <ele>47.240000000000002</ele>
        <time>2018-07-07T07:29:42Z</time>
      </trkpt>
      <trkpt lat="47.780640972778201" lon="-3.567930003628135">
        <ele>47.240000000000002</ele>
        <time>2018-07-07T07:29:43Z</time>
      </trkpt>
      <trkpt lat="47.7805529627949" lon="-3.567909970879555">
        <ele>47.719999999999999</ele>
        <time>2018-07-07T07:29:44Z</time>
      </trkpt>
      <trkpt lat="47.780468976125121" lon="-3.567891027778387">
        <ele>47.719999999999999</ele>
        <time>2018-07-07T07:29:45Z</time>
      </trkpt>
      <trkpt lat="47.780384989455342" lon="-3.567872000858188">
        <ele>48.200000000000003</ele>
        <time>2018-07-07T07:29:46Z</time>
      </trkpt>
      <trkpt lat="47.78022900223732" lon="-3.567836964502931">
        <ele>48.68</ele>
        <time>2018-07-07T07:29:48Z</time>
      </trkpt>
      <trkpt lat="47.779548978433013" lon="-3.567681983113289">
        <ele>44.840000000000003</ele>
        <time>2018-07-07T07:29:56Z</time>
      </trkpt>
      <trkpt lat="47.779389973729849" lon="-3.56759799644351">
        <ele>43.880000000000003</ele>
        <time>2018-07-07T07:29:58Z</time>
      </trkpt>
      <trkpt lat="47.779316967353225" lon="-3.567560026422143">
        <ele>42.920000000000002</ele>
        <time>2018-07-07T07:29:59Z</time>
      </trkpt>
      <trkpt lat="47.779252007603645" lon="-3.567522978410125">
        <ele>42.439999999999998</ele>
        <time>2018-07-07T07:30:00Z</time>
      </trkpt>
      <trkpt lat="47.779153017327189" lon="-3.56744896620512">
        <ele>40.990000000000002</ele>
        <time>2018-07-07T07:30:02Z</time>
      </trkpt>
      <trkpt lat="47.77909099124372" lon="-3.56740202754736">
        <ele>40.509999999999998</ele>
        <time>2018-07-07T07:30:03Z</time>
      </trkpt>
      <trkpt lat="47.779060984030366" lon="-3.56742499396205">
        <ele>40.030000000000001</ele>
        <time>2018-07-07T07:30:04Z</time>
      </trkpt>
      <trkpt lat="47.779019996523857" lon="-3.567456007003784">
        <ele>39.07</ele>
        <time>2018-07-07T07:30:05Z</time>
      </trkpt>
      <trkpt lat="47.778985965996981" lon="-3.567480985075235">
        <ele>38.590000000000003</ele>
        <time>2018-07-07T07:30:06Z</time>
      </trkpt>
      <trkpt lat="47.778960987925529" lon="-3.567500011995435">
        <ele>38.109999999999999</ele>
        <time>2018-07-07T07:30:07Z</time>
      </trkpt>
      <trkpt lat="47.778938021510839" lon="-3.567517027258873">
        <ele>37.630000000000003</ele>
        <time>2018-07-07T07:30:08Z</time>
      </trkpt>
      <trkpt lat="47.778925029560924" lon="-3.567527001723647">
        <ele>37.630000000000003</ele>
        <time>2018-07-07T07:30:16Z</time>
      </trkpt>
      <trkpt lat="47.77889896184206" lon="-3.567547034472227">
        <ele>37.630000000000003</ele>
        <time>2018-07-07T07:30:17Z</time>
      </trkpt>
      <trkpt lat="47.778820004314184" lon="-3.567578969523311">
        <ele>37.630000000000003</ele>
        <time>2018-07-07T07:30:18Z</time>
      </trkpt>
      <trkpt lat="47.778762001544237" lon="-3.56751099228859">
        <ele>37.630000000000003</ele>
        <time>2018-07-07T07:30:19Z</time>
      </trkpt>
      <trkpt lat="47.778694024309516" lon="-3.567430023103952">
        <ele>37.630000000000003</ele>
        <time>2018-07-07T07:30:20Z</time>
      </trkpt>
      <trkpt lat="47.778083989396691" lon="-3.566792998462915">
        <ele>36.670000000000002</ele>
        <time>2018-07-07T07:30:26Z</time>
      </trkpt>
      <trkpt lat="47.777940994128585" lon="-3.56669501401484">
        <ele>36.670000000000002</ele>
        <time>2018-07-07T07:30:27Z</time>
      </trkpt>
      <trkpt lat="47.777792969718575" lon="-3.566594012081623">
        <ele>36.670000000000002</ele>
        <time>2018-07-07T07:30:28Z</time>
      </trkpt>
      <trkpt lat="47.777618039399385" lon="-3.566554030403495">
        <ele>36.670000000000002</ele>
        <time>2018-07-07T07:30:29Z</time>
      </trkpt>
      <trkpt lat="47.7774359844625" lon="-3.566517988219857">
        <ele>36.670000000000002</ele>
        <time>2018-07-07T07:30:30Z</time>
      </trkpt>
      <trkpt lat="47.777245966717601" lon="-3.566509019583464">
        <ele>36.670000000000002</ele>
        <time>2018-07-07T07:30:31Z</time>
      </trkpt>
      <trkpt lat="47.777056032791734" lon="-3.566524023190141">
        <ele>36.670000000000002</ele>
        <time>2018-07-07T07:30:32Z</time>
      </trkpt>
      <trkpt lat="47.776279030367732" lon="-3.566560987383127">
        <ele>37.630000000000003</ele>
        <time>2018-07-07T07:30:37Z</time>
      </trkpt>
      <trkpt lat="47.77614701539278" lon="-3.566510025411844">
        <ele>38.109999999999999</ele>
        <time>2018-07-07T07:30:39Z</time>
      </trkpt>
      <trkpt lat="47.776114996522665" lon="-3.566497033461928">
        <ele>38.109999999999999</ele>
        <time>2018-07-07T07:30:40Z</time>
      </trkpt>
      <trkpt lat="47.776095969602466" lon="-3.566489992663264">
        <ele>38.590000000000003</ele>
        <time>2018-07-07T07:30:41Z</time>
      </trkpt>
      <trkpt lat="47.776095969602466" lon="-3.566489992663264">
        <ele>38.590000000000003</ele>
        <time>2018-07-07T07:30:51Z</time>
      </trkpt>
      <trkpt lat="47.776090018451214" lon="-3.566487981006503">
        <ele>38.590000000000003</ele>
        <time>2018-07-07T07:30:53Z</time>
      </trkpt>
      <trkpt lat="47.776111979037523" lon="-3.566496027633548">
        <ele>39.07</ele>
        <time>2018-07-07T07:30:54Z</time>
      </trkpt>
      <trkpt lat="47.776151038706303" lon="-3.566511031240225">
        <ele>39.549999999999997</ele>
        <time>2018-07-07T07:30:55Z</time>
      </trkpt>
      <trkpt lat="47.776206023991108" lon="-3.566532991826534">
        <ele>40.030000000000001</ele>
        <time>2018-07-07T07:30:56Z</time>
      </trkpt>
      <trkpt lat="47.776271989569068" lon="-3.566558975726366">
        <ele>40.030000000000001</ele>
        <time>2018-07-07T07:30:57Z</time>
      </trkpt>
      <trkpt lat="47.776336027309299" lon="-3.566584037616849">
        <ele>40.030000000000001</ele>
        <time>2018-07-07T07:30:58Z</time>
      </trkpt>
      <trkpt lat="47.776343990117311" lon="-3.566586971282959">
        <ele>40.509999999999998</ele>
        <time>2018-07-07T07:30:59Z</time>
      </trkpt>
      <trkpt lat="47.776346001774073" lon="-3.566701970994473">
        <ele>40.509999999999998</ele>
        <time>2018-07-07T07:31:00Z</time>
      </trkpt>
      <trkpt lat="47.776347007602453" lon="-3.566784029826522">
        <ele>40.509999999999998</ele>
        <time>2018-07-07T07:31:01Z</time>
      </trkpt>
      <trkpt lat="47.776348013430834" lon="-3.566883020102978">
        <ele>40.990000000000002</ele>
        <time>2018-07-07T07:31:02Z</time>
      </trkpt>
      <trkpt lat="47.776350025087595" lon="-3.567001959308982">
        <ele>41.469999999999999</ele>
        <time>2018-07-07T07:31:03Z</time>
      </trkpt>
      <trkpt lat="47.776352036744356" lon="-3.567143026739359">
        <ele>41.469999999999999</ele>
        <time>2018-07-07T07:31:04Z</time>
      </trkpt>
      <trkpt lat="47.776352958753705" lon="-3.568620001897216">
        <ele>41.950000000000003</ele>
        <time>2018-07-07T07:31:12Z</time>
      </trkpt>
      <trkpt lat="47.776343990117311" lon="-3.568989979103208">
        <ele>41.469999999999999</ele>
        <time>2018-07-07T07:31:14Z</time>
      </trkpt>
      <trkpt lat="47.776354970410466" lon="-3.569177985191345">
        <ele>40.990000000000002</ele>
        <time>2018-07-07T07:31:15Z</time>
      </trkpt>
      <trkpt lat="47.776483967900276" lon="-3.571113031357527">
        <ele>34.740000000000002</ele>
        <time>2018-07-07T07:31:24Z</time>
      </trkpt>
      <trkpt lat="47.776571977883577" lon="-3.572007967159152">
        <ele>35.710000000000001</ele>
        <time>2018-07-07T07:31:29Z</time>
      </trkpt>
      <trkpt lat="47.776567032560706" lon="-3.572167977690697">
        <ele>36.189999999999998</ele>
        <time>2018-07-07T07:31:30Z</time>
      </trkpt>
      <trkpt lat="47.776560997590423" lon="-3.572321031242609">
        <ele>36.189999999999998</ele>
        <time>2018-07-07T07:31:31Z</time>
      </trkpt>
      <trkpt lat="47.77653300203383" lon="-3.572468971833587">
        <ele>36.670000000000002</ele>
        <time>2018-07-07T07:31:32Z</time>
      </trkpt>
      <trkpt lat="47.77649000287056" lon="-3.572614984586835">
        <ele>37.149999999999999</ele>
        <time>2018-07-07T07:31:33Z</time>
      </trkpt>
      <trkpt lat="47.77644700370729" lon="-3.572763008996844">
        <ele>37.630000000000003</ele>
        <time>2018-07-07T07:31:34Z</time>
      </trkpt>
      <trkpt lat="47.776407022029161" lon="-3.572917990386486">
        <ele>38.109999999999999</ele>
        <time>2018-07-07T07:31:35Z</time>
      </trkpt>
      <trkpt lat="47.776366034522653" lon="-3.573073977604508">
        <ele>38.590000000000003</ele>
        <time>2018-07-07T07:31:36Z</time>
      </trkpt>
      <trkpt lat="47.776322029531002" lon="-3.57324798591435">
        <ele>39.07</ele>
        <time>2018-07-07T07:31:37Z</time>
      </trkpt>
      <trkpt lat="47.776238964870572" lon="-3.575005000457168">
        <ele>39.07</ele>
        <time>2018-07-07T07:31:46Z</time>
      </trkpt>
      <trkpt lat="47.776172999292612" lon="-3.576221968978643">
        <ele>37.149999999999999</ele>
        <time>2018-07-07T07:31:53Z</time>
      </trkpt>
      <trkpt lat="47.776191020384431" lon="-3.576318025588989">
        <ele>36.670000000000002</ele>
        <time>2018-07-07T07:31:54Z</time>
      </trkpt>
      <trkpt lat="47.776215998455882" lon="-3.57644903473556">
        <ele>36.189999999999998</ele>
        <time>2018-07-07T07:31:55Z</time>
      </trkpt>
      <trkpt lat="47.776409033685923" lon="-3.577873958274722">
        <ele>30.420000000000002</ele>
        <time>2018-07-07T07:32:03Z</time>
      </trkpt>
      <trkpt lat="47.776409033685923" lon="-3.57819096185267">
        <ele>28.98</ele>
        <time>2018-07-07T07:32:05Z</time>
      </trkpt>
      <trkpt lat="47.776391012594104" lon="-3.57836295850575">
        <ele>28.98</ele>
        <time>2018-07-07T07:32:06Z</time>
      </trkpt>
      <trkpt lat="47.776366034522653" lon="-3.578535038977861">
        <ele>28.98</ele>
        <time>2018-07-07T07:32:07Z</time>
      </trkpt>
      <trkpt lat="47.776339966803789" lon="-3.578712986782193">
        <ele>29.460000000000001</ele>
        <time>2018-07-07T07:32:08Z</time>
      </trkpt>
      <trkpt lat="47.776308031752706" lon="-3.578869979828596">
        <ele>29.940000000000001</ele>
        <time>2018-07-07T07:32:09Z</time>
      </trkpt>
      <trkpt lat="47.776300990954041" lon="-3.579020015895367">
        <ele>30.899999999999999</ele>
        <time>2018-07-07T07:32:10Z</time>
      </trkpt>
      <trkpt lat="47.776300990954041" lon="-3.579173991456628">
        <ele>31.859999999999999</ele>
        <time>2018-07-07T07:32:11Z</time>
      </trkpt>
      <trkpt lat="47.776307025924325" lon="-3.579322015866637">
        <ele>32.340000000000003</ele>
        <time>2018-07-07T07:32:12Z</time>
      </trkpt>
      <trkpt lat="47.776330998167396" lon="-3.579465011134744">
        <ele>33.299999999999997</ele>
        <time>2018-07-07T07:32:13Z</time>
      </trkpt>
      <trkpt lat="47.776367962360382" lon="-3.579596020281315">
        <ele>33.780000000000001</ele>
        <time>2018-07-07T07:32:14Z</time>
      </trkpt>
      <trkpt lat="47.776423031464219" lon="-3.579710014164448">
        <ele>34.259999999999998</ele>
        <time>2018-07-07T07:32:15Z</time>
      </trkpt>
      <trkpt lat="47.776481034234166" lon="-3.579830965027213">
        <ele>35.229999999999997</ele>
        <time>2018-07-07T07:32:16Z</time>
      </trkpt>
      <trkpt lat="47.776540964841843" lon="-3.579956023022533">
        <ele>35.710000000000001</ele>
        <time>2018-07-07T07:32:17Z</time>
      </trkpt>
      <trkpt lat="47.776815975084901" lon="-3.580448962748051">
        <ele>37.630000000000003</ele>
        <time>2018-07-07T07:32:21Z</time>
      </trkpt>
      <trkpt lat="47.776838019490242" lon="-3.580620037391782">
        <ele>37.630000000000003</ele>
        <time>2018-07-07T07:32:22Z</time>
      </trkpt>
      <trkpt lat="47.776840031147003" lon="-3.580765966325998">
        <ele>37.630000000000003</ele>
        <time>2018-07-07T07:32:23Z</time>
      </trkpt>
      <trkpt lat="47.776842964813113" lon="-3.580922959372401">
        <ele>37.149999999999999</ele>
        <time>2018-07-07T07:32:24Z</time>
      </trkpt>
      <trkpt lat="47.776845982298255" lon="-3.581097973510623">
        <ele>37.149999999999999</ele>
        <time>2018-07-07T07:32:25Z</time>
      </trkpt>
      <trkpt lat="47.776870038360357" lon="-3.582647033035755">
        <ele>39.07</ele>
        <time>2018-07-07T07:32:33Z</time>
      </trkpt>
      <trkpt lat="47.776879006996751" lon="-3.583177020773292">
        <ele>39.549999999999997</ele>
        <time>2018-07-07T07:32:39Z</time>
      </trkpt>
      <trkpt lat="47.776829972863197" lon="-3.583310041576624">
        <ele>40.030000000000001</ele>
        <time>2018-07-07T07:32:45Z</time>
      </trkpt>
      <trkpt lat="47.776756966486573" lon="-3.583321021869779">
        <ele>40.030000000000001</ele>
        <time>2018-07-07T07:32:46Z</time>
      </trkpt>
      <trkpt lat="47.775927996262908" lon="-3.583441972732544">
        <ele>39.549999999999997</ele>
        <time>2018-07-07T07:32:53Z</time>
      </trkpt>
      <trkpt lat="47.774577001109719" lon="-3.583543980494142">
        <ele>40.030000000000001</ele>
        <time>2018-07-07T07:33:03Z</time>
      </trkpt>
      <trkpt lat="47.773590032011271" lon="-3.583200993016362">
        <ele>40.030000000000001</ele>
        <time>2018-07-07T07:33:10Z</time>
      </trkpt>
      <trkpt lat="47.772685959935188" lon="-3.583203004673123">
        <ele>39.549999999999997</ele>
        <time>2018-07-07T07:33:18Z</time>
      </trkpt>
      <trkpt lat="47.772167036309838" lon="-3.583166040480137">
        <ele>39.07</ele>
        <time>2018-07-07T07:33:23Z</time>
      </trkpt>
      <trkpt lat="47.772100986912847" lon="-3.583157993853092">
        <ele>39.07</ele>
        <time>2018-07-07T07:33:24Z</time>
      </trkpt>
      <trkpt lat="47.772030998021364" lon="-3.583171991631389">
        <ele>39.07</ele>
        <time>2018-07-07T07:33:25Z</time>
      </trkpt>
      <trkpt lat="47.771968971937895" lon="-3.583229994401336">
        <ele>39.07</ele>
        <time>2018-07-07T07:33:26Z</time>
      </trkpt>
      <trkpt lat="47.771897977218032" lon="-3.583294032141566">
        <ele>38.590000000000003</ele>
        <time>2018-07-07T07:33:27Z</time>
      </trkpt>
      <trkpt lat="47.771524982526898" lon="-3.583655040711165">
        <ele>37.149999999999999</ele>
        <time>2018-07-07T07:33:32Z</time>
      </trkpt>
      <trkpt lat="47.771486006677151" lon="-3.583752019330859">
        <ele>36.670000000000002</ele>
        <time>2018-07-07T07:33:33Z</time>
      </trkpt>
      <trkpt lat="47.771402020007372" lon="-3.583958968520165">
        <ele>35.710000000000001</ele>
        <time>2018-07-07T07:33:35Z</time>
      </trkpt>
      <trkpt lat="47.771319961175323" lon="-3.584159966558218">
        <ele>34.259999999999998</ele>
        <time>2018-07-07T07:33:37Z</time>
      </trkpt>
      <trkpt lat="47.771278973668814" lon="-3.584260968491435">
        <ele>33.780000000000001</ele>
        <time>2018-07-07T07:33:38Z</time>
      </trkpt>
      <trkpt lat="47.771231029182673" lon="-3.584345960989595">
        <ele>32.82</ele>
        <time>2018-07-07T07:33:39Z</time>
      </trkpt>
      <trkpt lat="47.77116003446281" lon="-3.584417039528489">
        <ele>32.340000000000003</ele>
        <time>2018-07-07T07:33:40Z</time>
      </trkpt>
      <trkpt lat="47.771089961752295" lon="-3.584412010386586">
        <ele>31.379999999999999</ele>
        <time>2018-07-07T07:33:41Z</time>
      </trkpt>
      <trkpt lat="47.771017039194703" lon="-3.584405975416303">
        <ele>30.420000000000002</ele>
        <time>2018-07-07T07:33:42Z</time>
      </trkpt>
      <trkpt lat="47.770946966484189" lon="-3.584401030093432">
        <ele>29.460000000000001</ele>
        <time>2018-07-07T07:33:43Z</time>
      </trkpt>
      <trkpt lat="47.770870020613074" lon="-3.584382003173232">
        <ele>28.98</ele>
        <time>2018-07-07T07:33:44Z</time>
      </trkpt>
      <trkpt lat="47.770792990922928" lon="-3.584333974868059">
        <ele>28.02</ele>
        <time>2018-07-07T07:33:45Z</time>
      </trkpt>
      <trkpt lat="47.770714033395052" lon="-3.584285024553537">
        <ele>27.530000000000001</ele>
        <time>2018-07-07T07:33:46Z</time>
      </trkpt>
      <trkpt lat="47.770633986219764" lon="-3.584234984591603">
        <ele>27.050000000000001</ele>
        <time>2018-07-07T07:33:47Z</time>
      </trkpt>
      <trkpt lat="47.770421002060175" lon="-3.584102969616652">
        <ele>25.609999999999999</ele>
        <time>2018-07-07T07:33:50Z</time>
      </trkpt>
      <trkpt lat="47.770284963771701" lon="-3.584018982946873">
        <ele>24.649999999999999</ele>
        <time>2018-07-07T07:33:52Z</time>
      </trkpt>
      <trkpt lat="47.770225033164024" lon="-3.583956034854055">
        <ele>23.690000000000001</ele>
        <time>2018-07-07T07:33:53Z</time>
      </trkpt>
      <trkpt lat="47.770164012908936" lon="-3.58388596214354">
        <ele>23.210000000000001</ele>
        <time>2018-07-07T07:33:54Z</time>
      </trkpt>
      <trkpt lat="47.770097963511944" lon="-3.583810022100806">
        <ele>22.73</ele>
        <time>2018-07-07T07:33:55Z</time>
      </trkpt>
      <trkpt lat="47.769993022084236" lon="-3.583688987419009">
        <ele>22.25</ele>
        <time>2018-07-07T07:33:56Z</time>
      </trkpt>
      <trkpt lat="47.769966032356024" lon="-3.583621010184288">
        <ele>21.77</ele>
        <time>2018-07-07T07:33:57Z</time>
      </trkpt>
      <trkpt lat="47.769768973812461" lon="-3.583120023831725">
        <ele>20.809999999999999</ele>
        <time>2018-07-07T07:34:01Z</time>
      </trkpt>
      <trkpt lat="47.76972496882081" lon="-3.583008041605353">
        <ele>20.809999999999999</ele>
        <time>2018-07-07T07:34:02Z</time>
      </trkpt>
      <trkpt lat="47.769639976322651" lon="-3.58293604105711">
        <ele>21.289999999999999</ele>
        <time>2018-07-07T07:34:03Z</time>
      </trkpt>
      <trkpt lat="47.769558001309633" lon="-3.582887006923556">
        <ele>21.289999999999999</ele>
        <time>2018-07-07T07:34:04Z</time>
      </trkpt>
      <trkpt lat="47.769476026296616" lon="-3.582837972790003">
        <ele>21.289999999999999</ele>
        <time>2018-07-07T07:34:05Z</time>
      </trkpt>
      <trkpt lat="47.769389022141695" lon="-3.582786004990339">
        <ele>21.289999999999999</ele>
        <time>2018-07-07T07:34:06Z</time>
      </trkpt>
      <trkpt lat="47.769215013831854" lon="-3.582681985571981">
        <ele>20.32</ele>
        <time>2018-07-07T07:34:08Z</time>
      </trkpt>
      <trkpt lat="47.768989037722349" lon="-3.582659019157291">
        <ele>17.920000000000002</ele>
        <time>2018-07-07T07:34:11Z</time>
      </trkpt>
      <trkpt lat="47.768920976668596" lon="-3.582659019157291">
        <ele>16.960000000000001</ele>
        <time>2018-07-07T07:34:12Z</time>
      </trkpt>
      <trkpt lat="47.768855011090636" lon="-3.582659019157291">
        <ele>16</ele>
        <time>2018-07-07T07:34:13Z</time>
      </trkpt>
      <trkpt lat="47.768797008320689" lon="-3.582667987793684">
        <ele>15.52</ele>
        <time>2018-07-07T07:34:14Z</time>
      </trkpt>
      <trkpt lat="47.768737999722362" lon="-3.582700006663799">
        <ele>14.56</ele>
        <time>2018-07-07T07:34:15Z</time>
      </trkpt>
      <trkpt lat="47.768683014437556" lon="-3.582730013877153">
        <ele>14.08</ele>
        <time>2018-07-07T07:34:16Z</time>
      </trkpt>
      <trkpt lat="47.768414039164782" lon="-3.582878038287163">
        <ele>9.75</ele>
        <time>2018-07-07T07:34:25Z</time>
      </trkpt>
      <trkpt lat="47.768180016428232" lon="-3.582625994458795">
        <ele>9.27</ele>
        <time>2018-07-07T07:34:34Z</time>
      </trkpt>
      <trkpt lat="47.768084965646267" lon="-3.582464978098869">
        <ele>7.83</ele>
        <time>2018-07-07T07:34:40Z</time>
      </trkpt>
      <trkpt lat="47.768054036423564" lon="-3.582404041662812">
        <ele>8.310000000000001</ele>
        <time>2018-07-07T07:34:54Z</time>
      </trkpt>
      <trkpt lat="47.768043978139758" lon="-3.582429019734263">
        <ele>11.19</ele>
        <time>2018-07-07T08:00:10Z</time>
      </trkpt>
      <trkpt lat="47.768026040866971" lon="-3.582424996420741">
        <ele>16.960000000000001</ele>
        <time>2018-07-07T08:01:11Z</time>
      </trkpt>
      <trkpt lat="47.7680279687047" lon="-3.582418961450458">
        <ele>18.399999999999999</ele>
        <time>2018-07-07T08:01:58Z</time>
      </trkpt>
      <trkpt lat="47.768126958981156" lon="-3.582391971722245">
        <ele>17.440000000000001</ele>
        <time>2018-07-07T08:02:05Z</time>
      </trkpt>
      <trkpt lat="47.768160989508033" lon="-3.582448968663812">
        <ele>16.960000000000001</ele>
        <time>2018-07-07T08:02:07Z</time>
      </trkpt>
      <trkpt lat="47.76841202750802" lon="-3.582878960296512">
        <ele>14.56</ele>
        <time>2018-07-07T08:02:16Z</time>
      </trkpt>
      <trkpt lat="47.7684769872576" lon="-3.582844007760286">
        <ele>14.08</ele>
        <time>2018-07-07T08:02:19Z</time>
      </trkpt>
      <trkpt lat="47.76851998642087" lon="-3.582820035517216">
        <ele>14.08</ele>
        <time>2018-07-07T08:02:20Z</time>
      </trkpt>
      <trkpt lat="47.768566003069282" lon="-3.582793967798352">
        <ele>14.08</ele>
        <time>2018-07-07T08:02:21Z</time>
      </trkpt>
      <trkpt lat="47.768942015245557" lon="-3.582659019157291">
        <ele>15.52</ele>
        <time>2018-07-07T08:02:29Z</time>
      </trkpt>
      <trkpt lat="47.769004041329026" lon="-3.582659019157291">
        <ele>16</ele>
        <time>2018-07-07T08:02:30Z</time>
      </trkpt>
      <trkpt lat="47.769066989421844" lon="-3.582659019157291">
        <ele>16</ele>
        <time>2018-07-07T08:02:31Z</time>
      </trkpt>
      <trkpt lat="47.769132032990456" lon="-3.582659019157291">
        <ele>16.48</ele>
        <time>2018-07-07T08:02:32Z</time>
      </trkpt>
      <trkpt lat="47.769193975254893" lon="-3.582668993622065">
        <ele>16.48</ele>
        <time>2018-07-07T08:02:33Z</time>
      </trkpt>
      <trkpt lat="47.769256001338363" lon="-3.582706041634083">
        <ele>16.960000000000001</ele>
        <time>2018-07-07T08:02:34Z</time>
      </trkpt>
      <trkpt lat="47.76959496550262" lon="-3.582908967509866">
        <ele>17.920000000000002</ele>
        <time>2018-07-07T08:02:39Z</time>
      </trkpt>
      <trkpt lat="47.769667971879244" lon="-3.582952972501516">
        <ele>18.399999999999999</ele>
        <time>2018-07-07T08:02:40Z</time>
      </trkpt>
      <trkpt lat="47.769737038761377" lon="-3.583039976656437">
        <ele>18.879999999999999</ele>
        <time>2018-07-07T08:02:41Z</time>
      </trkpt>
      <trkpt lat="47.769781965762377" lon="-3.58315397053957">
        <ele>18.879999999999999</ele>
        <time>2018-07-07T08:02:42Z</time>
      </trkpt>
      <trkpt lat="47.769826976582408" lon="-3.583268970251083">
        <ele>18.879999999999999</ele>
        <time>2018-07-07T08:02:43Z</time>
      </trkpt>
      <trkpt lat="47.76987299323082" lon="-3.583383969962597">
        <ele>19.359999999999999</ele>
        <time>2018-07-07T08:02:44Z</time>
      </trkpt>
      <trkpt lat="47.770052030682564" lon="-3.58375696465373">
        <ele>20.32</ele>
        <time>2018-07-07T08:02:48Z</time>
      </trkpt>
      <trkpt lat="47.770106010138988" lon="-3.58381999656558">
        <ele>20.32</ele>
        <time>2018-07-07T08:02:49Z</time>
      </trkpt>
      <trkpt lat="47.770163007080555" lon="-3.583885040134192">
        <ele>20.809999999999999</ele>
        <time>2018-07-07T08:02:50Z</time>
      </trkpt>
      <trkpt lat="47.770271971821785" lon="-3.58401102013886">
        <ele>21.289999999999999</ele>
        <time>2018-07-07T08:02:52Z</time>
      </trkpt>
      <trkpt lat="47.770329974591732" lon="-3.584046978503466">
        <ele>21.77</ele>
        <time>2018-07-07T08:02:53Z</time>
      </trkpt>
      <trkpt lat="47.770398035645485" lon="-3.584088971838355">
        <ele>22.25</ele>
        <time>2018-07-07T08:02:54Z</time>
      </trkpt>
      <trkpt lat="47.770917965099216" lon="-3.58439901843667">
        <ele>25.609999999999999</ele>
        <time>2018-07-07T08:03:02Z</time>
      </trkpt>
      <trkpt lat="47.770978985354304" lon="-3.584403041750193">
        <ele>26.09</ele>
        <time>2018-07-07T08:03:03Z</time>
      </trkpt>
      <trkpt lat="47.771148970350623" lon="-3.584416033700109">
        <ele>27.530000000000001</ele>
        <time>2018-07-07T08:03:06Z</time>
      </trkpt>
      <trkpt lat="47.77120697312057" lon="-3.584375968202949">
        <ele>27.530000000000001</ele>
        <time>2018-07-07T08:03:07Z</time>
      </trkpt>
      <trkpt lat="47.771242009475827" lon="-3.584331963211298">
        <ele>28.02</ele>
        <time>2018-07-07T08:03:08Z</time>
      </trkpt>
      <trkpt lat="47.771259024739265" lon="-3.584311008453369">
        <ele>28.5</ele>
        <time>2018-07-07T08:03:10Z</time>
      </trkpt>
      <trkpt lat="47.771287020295858" lon="-3.584343027323484">
        <ele>28.98</ele>
        <time>2018-07-07T08:03:11Z</time>
      </trkpt>
      <trkpt lat="47.771299006417394" lon="-3.5843560192734">
        <ele>29.460000000000001</ele>
        <time>2018-07-07T08:03:12Z</time>
      </trkpt>
      <trkpt lat="47.771321972832084" lon="-3.584382003173232">
        <ele>29.460000000000001</ele>
        <time>2018-07-07T08:03:13Z</time>
      </trkpt>
      <trkpt lat="47.771352985873818" lon="-3.584416033700109">
        <ele>29.460000000000001</ele>
        <time>2018-07-07T08:03:14Z</time>
      </trkpt>
      <trkpt lat="47.771388022229075" lon="-3.584456015378237">
        <ele>28.98</ele>
        <time>2018-07-07T08:03:15Z</time>
      </trkpt>
      <trkpt lat="47.77142196893692" lon="-3.584494991227984">
        <ele>29.460000000000001</ele>
        <time>2018-07-07T08:03:16Z</time>
      </trkpt>
      <trkpt lat="47.771453987807035" lon="-3.584530027583242">
        <ele>29.460000000000001</ele>
        <time>2018-07-07T08:03:17Z</time>
      </trkpt>
      <trkpt lat="47.77148500084877" lon="-3.584565985947847">
        <ele>29.460000000000001</ele>
        <time>2018-07-07T08:03:18Z</time>
      </trkpt>
      <trkpt lat="47.771520959213376" lon="-3.584605967625976">
        <ele>29.460000000000001</ele>
        <time>2018-07-07T08:03:19Z</time>
      </trkpt>
      <trkpt lat="47.771761016920209" lon="-3.584876032546163">
        <ele>30.899999999999999</ele>
        <time>2018-07-07T08:03:24Z</time>
      </trkpt>
      <trkpt lat="47.771818013861775" lon="-3.584996983408928">
        <ele>31.379999999999999</ele>
        <time>2018-07-07T08:03:26Z</time>
      </trkpt>
      <trkpt lat="47.771838968619704" lon="-3.585049035027623">
        <ele>31.379999999999999</ele>
        <time>2018-07-07T08:03:27Z</time>
      </trkpt>
      <trkpt lat="47.771859001368284" lon="-3.585096979513764">
        <ele>31.379999999999999</ele>
        <time>2018-07-07T08:03:28Z</time>
      </trkpt>
      <trkpt lat="47.771923961117864" lon="-3.585254978388548">
        <ele>32.340000000000003</ele>
        <time>2018-07-07T08:03:38Z</time>
      </trkpt>
      <trkpt lat="47.771923961117864" lon="-3.585254978388548">
        <ele>33.299999999999997</ele>
        <time>2018-07-07T08:03:48Z</time>
      </trkpt>
      <trkpt lat="47.771923961117864" lon="-3.585254978388548">
        <ele>33.780000000000001</ele>
        <time>2018-07-07T08:03:49Z</time>
      </trkpt>
      <trkpt lat="47.771917004138231" lon="-3.58523896895349">
        <ele>33.780000000000001</ele>
        <time>2018-07-07T08:03:50Z</time>
      </trkpt>
      <trkpt lat="47.771832011640072" lon="-3.585031013935804">
        <ele>33.780000000000001</ele>
        <time>2018-07-07T08:03:56Z</time>
      </trkpt>
      <trkpt lat="47.771800998598337" lon="-3.5849570017308">
        <ele>33.780000000000001</ele>
        <time>2018-07-07T08:03:57Z</time>
      </trkpt>
      <trkpt lat="47.771766968071461" lon="-3.584881983697414">
        <ele>33.780000000000001</ele>
        <time>2018-07-07T08:03:58Z</time>
      </trkpt>
      <trkpt lat="47.771352985873818" lon="-3.584417039528489">
        <ele>32.82</ele>
        <time>2018-07-07T08:04:07Z</time>
      </trkpt>
      <trkpt lat="47.771321972832084" lon="-3.584383009001613">
        <ele>32.82</ele>
        <time>2018-07-07T08:04:08Z</time>
      </trkpt>
      <trkpt lat="47.771295988932252" lon="-3.584351995959878">
        <ele>32.82</ele>
        <time>2018-07-07T08:04:09Z</time>
      </trkpt>
      <trkpt lat="47.771261036396027" lon="-3.584305979311466">
        <ele>32.82</ele>
        <time>2018-07-07T08:04:10Z</time>
      </trkpt>
      <trkpt lat="47.771281991153955" lon="-3.584253005683422">
        <ele>32.82</ele>
        <time>2018-07-07T08:04:11Z</time>
      </trkpt>
      <trkpt lat="47.771310992538929" lon="-3.58418301679194">
        <ele>33.299999999999997</ele>
        <time>2018-07-07T08:04:12Z</time>
      </trkpt>
      <trkpt lat="47.771343011409044" lon="-3.584103975445032">
        <ele>33.299999999999997</ele>
        <time>2018-07-07T08:04:13Z</time>
      </trkpt>
      <trkpt lat="47.771508973091841" lon="-3.583694016560912">
        <ele>35.710000000000001</ele>
        <time>2018-07-07T08:04:18Z</time>
      </trkpt>
      <trkpt lat="47.771546021103859" lon="-3.583616986870766">
        <ele>36.189999999999998</ele>
        <time>2018-07-07T08:04:19Z</time>
      </trkpt>
      <trkpt lat="47.771607041358948" lon="-3.58356099575758">
        <ele>36.670000000000002</ele>
        <time>2018-07-07T08:04:20Z</time>
      </trkpt>
      <trkpt lat="47.771675018593669" lon="-3.58349896967411">
        <ele>37.149999999999999</ele>
        <time>2018-07-07T08:04:21Z</time>
      </trkpt>
      <trkpt lat="47.771747019141912" lon="-3.58343199826777">
        <ele>37.630000000000003</ele>
        <time>2018-07-07T08:04:22Z</time>
      </trkpt>
      <trkpt lat="47.771819019690156" lon="-3.58336603268981">
        <ele>38.109999999999999</ele>
        <time>2018-07-07T08:04:23Z</time>
      </trkpt>
      <trkpt lat="47.7718910202384" lon="-3.583300989121199">
        <ele>38.590000000000003</ele>
        <time>2018-07-07T08:04:24Z</time>
      </trkpt>
      <trkpt lat="47.77195799164474" lon="-3.58323996886611">
        <ele>38.590000000000003</ele>
        <time>2018-07-07T08:04:25Z</time>
      </trkpt>
      <trkpt lat="47.772015994414687" lon="-3.583186995238066">
        <ele>39.549999999999997</ele>
        <time>2018-07-07T08:04:26Z</time>
      </trkpt>
      <trkpt lat="47.772052958607674" lon="-3.583151958882809">
        <ele>40.030000000000001</ele>
        <time>2018-07-07T08:04:27Z</time>
      </trkpt>
      <trkpt lat="47.772147003561258" lon="-3.583163022994995">
        <ele>40.509999999999998</ele>
        <time>2018-07-07T08:04:28Z</time>
      </trkpt>
      <trkpt lat="47.772225039079785" lon="-3.583171991631389">
        <ele>40.509999999999998</ele>
        <time>2018-07-07T08:04:29Z</time>
      </trkpt>
      <trkpt lat="47.772316988557577" lon="-3.583182971924543">
        <ele>40.509999999999998</ele>
        <time>2018-07-07T08:04:30Z</time>
      </trkpt>
      <trkpt lat="47.773420969024301" lon="-3.583183977752924">
        <ele>41.469999999999999</ele>
        <time>2018-07-07T08:04:41Z</time>
      </trkpt>
      <trkpt lat="47.773521970957518" lon="-3.583191018551588">
        <ele>41.469999999999999</ele>
        <time>2018-07-07T08:04:42Z</time>
      </trkpt>
      <trkpt lat="47.774582030251622" lon="-3.583543980494142">
        <ele>41.950000000000003</ele>
        <time>2018-07-07T08:04:52Z</time>
      </trkpt>
      <trkpt lat="47.775838980451226" lon="-3.58345496468246">
        <ele>43.399999999999999</ele>
        <time>2018-07-07T08:05:03Z</time>
      </trkpt>
      <trkpt lat="47.776788985356688" lon="-3.583315992727876">
        <ele>41.950000000000003</ele>
        <time>2018-07-07T08:05:12Z</time>
      </trkpt>
      <trkpt lat="47.776838019490242" lon="-3.583309035748243">
        <ele>41.469999999999999</ele>
        <time>2018-07-07T08:05:13Z</time>
      </trkpt>
      <trkpt lat="47.776879006996751" lon="-3.583186995238066">
        <ele>41.469999999999999</ele>
        <time>2018-07-07T08:05:14Z</time>
      </trkpt>
      <trkpt lat="47.77687699533999" lon="-3.583085993304849">
        <ele>40.990000000000002</ele>
        <time>2018-07-07T08:05:15Z</time>
      </trkpt>
      <trkpt lat="47.776874983683228" lon="-3.5829590074718">
        <ele>40.509999999999998</ele>
        <time>2018-07-07T08:05:16Z</time>
      </trkpt>
      <trkpt lat="47.776872972026467" lon="-3.582807965576649">
        <ele>40.509999999999998</ele>
        <time>2018-07-07T08:05:17Z</time>
      </trkpt>
      <trkpt lat="47.776870038360357" lon="-3.582639992237091">
        <ele>40.030000000000001</ele>
        <time>2018-07-07T08:05:18Z</time>
      </trkpt>
      <trkpt lat="47.776842964813113" lon="-3.580962019041181">
        <ele>37.630000000000003</ele>
        <time>2018-07-07T08:05:26Z</time>
      </trkpt>
      <trkpt lat="47.776828967034817" lon="-3.580550970509648">
        <ele>37.149999999999999</ele>
        <time>2018-07-07T08:05:28Z</time>
      </trkpt>
      <trkpt lat="47.776772975921631" lon="-3.580377968028188">
        <ele>37.630000000000003</ele>
        <time>2018-07-07T08:05:29Z</time>
      </trkpt>
      <trkpt lat="47.776681026443839" lon="-3.580228015780449">
        <ele>37.630000000000003</ele>
        <time>2018-07-07T08:05:30Z</time>
      </trkpt>
      <trkpt lat="47.776424959301949" lon="-3.57971303164959">
        <ele>37.149999999999999</ele>
        <time>2018-07-07T08:05:33Z</time>
      </trkpt>
      <trkpt lat="47.776343990117311" lon="-3.579546986147761">
        <ele>36.670000000000002</ele>
        <time>2018-07-07T08:05:34Z</time>
      </trkpt>
      <trkpt lat="47.776315994560719" lon="-3.579373983666301">
        <ele>35.710000000000001</ele>
        <time>2018-07-07T08:05:35Z</time>
      </trkpt>
      <trkpt lat="47.776300990954041" lon="-3.579202992841601">
        <ele>35.229999999999997</ele>
        <time>2018-07-07T08:05:36Z</time>
      </trkpt>
      <trkpt lat="47.776300990954041" lon="-3.579038036987186">
        <ele>35.229999999999997</ele>
        <time>2018-07-07T08:05:37Z</time>
      </trkpt>
      <trkpt lat="47.776308031752706" lon="-3.578869979828596">
        <ele>34.740000000000002</ele>
        <time>2018-07-07T08:05:38Z</time>
      </trkpt>
      <trkpt lat="47.776343990117311" lon="-3.578693037852645">
        <ele>34.259999999999998</ele>
        <time>2018-07-07T08:05:39Z</time>
      </trkpt>
      <trkpt lat="47.776370979845524" lon="-3.578505031764507">
        <ele>33.780000000000001</ele>
        <time>2018-07-07T08:05:40Z</time>
      </trkpt>
      <trkpt lat="47.776397969573736" lon="-3.578310990706086">
        <ele>33.299999999999997</ele>
        <time>2018-07-07T08:05:41Z</time>
      </trkpt>
      <trkpt lat="47.776409033685923" lon="-3.57810596935451">
        <ele>32.340000000000003</ele>
        <time>2018-07-07T08:05:42Z</time>
      </trkpt>
      <trkpt lat="47.776409033685923" lon="-3.577891979366541">
        <ele>31.859999999999999</ele>
        <time>2018-07-07T08:05:43Z</time>
      </trkpt>
      <trkpt lat="47.776392018422484" lon="-3.577677989378572">
        <ele>31.859999999999999</ele>
        <time>2018-07-07T08:05:44Z</time>
      </trkpt>
      <trkpt lat="47.776195965707302" lon="-3.57634199783206">
        <ele>34.259999999999998</ele>
        <time>2018-07-07T08:05:51Z</time>
      </trkpt>
      <trkpt lat="47.776175010949373" lon="-3.576185004785657">
        <ele>34.740000000000002</ele>
        <time>2018-07-07T08:05:52Z</time>
      </trkpt>
      <trkpt lat="47.776182973757386" lon="-3.576032035052776">
        <ele>35.229999999999997</ele>
        <time>2018-07-07T08:05:53Z</time>
      </trkpt>
      <trkpt lat="47.776258997619152" lon="-3.574630999937654">
        <ele>37.149999999999999</ele>
        <time>2018-07-07T08:06:01Z</time>
      </trkpt>
      <trkpt lat="47.776429988443851" lon="-3.572828974574804">
        <ele>39.549999999999997</ele>
        <time>2018-07-07T08:06:11Z</time>
      </trkpt>
      <trkpt lat="47.776525039225817" lon="-3.572495961561799">
        <ele>39.549999999999997</ele>
        <time>2018-07-07T08:06:13Z</time>
      </trkpt>
      <trkpt lat="47.776560997590423" lon="-3.572317007929087">
        <ele>39.549999999999997</ele>
        <time>2018-07-07T08:06:14Z</time>
      </trkpt>
      <trkpt lat="47.776568038389087" lon="-3.572139982134104">
        <ele>39.07</ele>
        <time>2018-07-07T08:06:15Z</time>
      </trkpt>
      <trkpt lat="47.776580024510622" lon="-3.571779979392886">
        <ele>39.07</ele>
        <time>2018-07-07T08:06:17Z</time>
      </trkpt>
      <trkpt lat="47.776407022029161" lon="-3.57013201341033">
        <ele>38.109999999999999</ele>
        <time>2018-07-07T08:06:25Z</time>
      </trkpt>
      <trkpt lat="47.776365028694272" lon="-3.56802798807621">
        <ele>44.840000000000003</ele>
        <time>2018-07-07T08:06:36Z</time>
      </trkpt>
      <trkpt lat="47.776350025087595" lon="-3.56697203591466">
        <ele>45.799999999999997</ele>
        <time>2018-07-07T08:06:43Z</time>
      </trkpt>
      <trkpt lat="47.776349019259214" lon="-3.566896012052894">
        <ele>45.799999999999997</ele>
        <time>2018-07-07T08:06:44Z</time>
      </trkpt>
      <trkpt lat="47.776348013430834" lon="-3.566837003454566">
        <ele>45.799999999999997</ele>
        <time>2018-07-07T08:06:45Z</time>
      </trkpt>
      <trkpt lat="47.776346001774073" lon="-3.566701970994473">
        <ele>45.32</ele>
        <time>2018-07-07T08:06:53Z</time>
      </trkpt>
      <trkpt lat="47.776346001774073" lon="-3.566687973216176">
        <ele>45.32</ele>
        <time>2018-07-07T08:06:58Z</time>
      </trkpt>
      <trkpt lat="47.776396963745356" lon="-3.566582025960088">
        <ele>45.32</ele>
        <time>2018-07-07T08:06:59Z</time>
      </trkpt>
      <trkpt lat="47.776455972343683" lon="-3.566575990989804">
        <ele>45.32</ele>
        <time>2018-07-07T08:07:00Z</time>
      </trkpt>
      <trkpt lat="47.77653400786221" lon="-3.566569034010172">
        <ele>44.840000000000003</ele>
        <time>2018-07-07T08:07:01Z</time>
      </trkpt>
      <trkpt lat="47.776623023673892" lon="-3.566560987383127">
        <ele>44.840000000000003</ele>
        <time>2018-07-07T08:07:02Z</time>
      </trkpt>
      <trkpt lat="47.777451993897557" lon="-3.566521005704999">
        <ele>43.880000000000003</ele>
        <time>2018-07-07T08:07:08Z</time>
      </trkpt>
      <trkpt lat="47.777632959187031" lon="-3.566556964069605">
        <ele>43.880000000000003</ele>
        <time>2018-07-07T08:07:09Z</time>
      </trkpt>
      <trkpt lat="47.777821971103549" lon="-3.566613961011171">
        <ele>43.880000000000003</ele>
        <time>2018-07-07T08:07:10Z</time>
      </trkpt>
      <trkpt lat="47.778002014383674" lon="-3.56673700734973">
        <ele>43.880000000000003</ele>
        <time>2018-07-07T08:07:11Z</time>
      </trkpt>
      <trkpt lat="47.778190020471811" lon="-3.566864999011159">
        <ele>43.880000000000003</ele>
        <time>2018-07-07T08:07:12Z</time>
      </trkpt>
      <trkpt lat="47.778362017124891" lon="-3.567036995664239">
        <ele>43.399999999999999</ele>
        <time>2018-07-07T08:07:13Z</time>
      </trkpt>
      <trkpt lat="47.778524039313197" lon="-3.567229025065899">
        <ele>43.880000000000003</ele>
        <time>2018-07-07T08:07:14Z</time>
      </trkpt>
      <trkpt lat="47.779512014240026" lon="-3.568374998867512">
        <ele>45.32</ele>
        <time>2018-07-07T08:07:21Z</time>
      </trkpt>
      <trkpt lat="47.780684977769852" lon="-3.569369008764625">
        <ele>47.719999999999999</ele>
        <time>2018-07-07T08:07:28Z</time>
      </trkpt>
      <trkpt lat="47.782149966806173" lon="-3.570425966754556">
        <ele>50.130000000000003</ele>
        <time>2018-07-07T08:07:37Z</time>
      </trkpt>
      <trkpt lat="47.78237602673471" lon="-3.570583965629339">
        <ele>50.609999999999999</ele>
        <time>2018-07-07T08:07:39Z</time>
      </trkpt>
      <trkpt lat="47.782470993697643" lon="-3.570645991712809">
        <ele>50.609999999999999</ele>
        <time>2018-07-07T08:07:40Z</time>
      </trkpt>
      <trkpt lat="47.782557997852564" lon="-3.570672981441021">
        <ele>50.609999999999999</ele>
        <time>2018-07-07T08:07:41Z</time>
      </trkpt>
      <trkpt lat="47.782628992572427" lon="-3.570694020017982">
        <ele>50.609999999999999</ele>
        <time>2018-07-07T08:07:42Z</time>
      </trkpt>
      <trkpt lat="47.782760001718998" lon="-3.570578014478087">
        <ele>51.090000000000003</ele>
        <time>2018-07-07T08:07:43Z</time>
      </trkpt>
      <trkpt lat="47.782760001718998" lon="-3.570578014478087">
        <ele>51.090000000000003</ele>
        <time>2018-07-07T08:07:44Z</time>
      </trkpt>
      <trkpt lat="47.782760001718998" lon="-3.570578014478087">
        <ele>51.57</ele>
        <time>2018-07-07T08:07:45Z</time>
      </trkpt>
      <trkpt lat="47.782815992832184" lon="-3.570386990904808">
        <ele>51.57</ele>
        <time>2018-07-07T08:07:46Z</time>
      </trkpt>
      <trkpt lat="47.782780034467578" lon="-3.570281965658069">
        <ele>51.57</ele>
        <time>2018-07-07T08:07:47Z</time>
      </trkpt>
      <trkpt lat="47.782732006162405" lon="-3.570149028673768">
        <ele>51.57</ele>
        <time>2018-07-07T08:07:48Z</time>
      </trkpt>
      <trkpt lat="47.782590016722679" lon="-3.569841999560595">
        <ele>52.049999999999997</ele>
        <time>2018-07-07T08:07:50Z</time>
      </trkpt>
      <trkpt lat="47.781808990985155" lon="-3.568513970822096">
        <ele>51.57</ele>
        <time>2018-07-07T08:08:00Z</time>
      </trkpt>
      <trkpt lat="47.781317979097366" lon="-3.567606965079904">
        <ele>50.609999999999999</ele>
        <time>2018-07-07T08:08:07Z</time>
      </trkpt>
      <trkpt lat="47.780878012999892" lon="-3.565946007147431">
        <ele>48.68</ele>
        <time>2018-07-07T08:08:17Z</time>
      </trkpt>
      <trkpt lat="47.780571989715099" lon="-3.564314972609282">
        <ele>45.799999999999997</ele>
        <time>2018-07-07T08:08:25Z</time>
      </trkpt>
      <trkpt lat="47.780313994735479" lon="-3.562681004405022">
        <ele>42.920000000000002</ele>
        <time>2018-07-07T08:08:34Z</time>
      </trkpt>
      <trkpt lat="47.780270995572209" lon="-3.562424015253782">
        <ele>41.950000000000003</ele>
        <time>2018-07-07T08:08:36Z</time>
      </trkpt>
      <trkpt lat="47.780278958380222" lon="-3.562293006107211">
        <ele>41.950000000000003</ele>
        <time>2018-07-07T08:08:37Z</time>
      </trkpt>
      <trkpt lat="47.780284993350506" lon="-3.562183035537601">
        <ele>41.950000000000003</ele>
        <time>2018-07-07T08:08:38Z</time>
      </trkpt>
      <trkpt lat="47.780297985300422" lon="-3.561950018629432">
        <ele>42.439999999999998</ele>
        <time>2018-07-07T08:08:40Z</time>
      </trkpt>
      <trkpt lat="47.780305026099086" lon="-3.561816997826099">
        <ele>42.920000000000002</ele>
        <time>2018-07-07T08:08:41Z</time>
      </trkpt>
      <trkpt lat="47.780348025262356" lon="-3.560022013261914">
        <ele>42.920000000000002</ele>
        <time>2018-07-07T08:08:52Z</time>
      </trkpt>
      <trkpt lat="47.780178962275386" lon="-3.558038016781211">
        <ele>42.920000000000002</ele>
        <time>2018-07-07T08:09:03Z</time>
      </trkpt>
      <trkpt lat="47.779964972287416" lon="-3.55608101002872">
        <ele>42.920000000000002</ele>
        <time>2018-07-07T08:09:11Z</time>
      </trkpt>
      <trkpt lat="47.779980981722474" lon="-3.553809011355043">
        <ele>41.950000000000003</ele>
        <time>2018-07-07T08:09:20Z</time>
      </trkpt>
      <trkpt lat="47.780210981145501" lon="-3.550744000822306">
        <ele>39.549999999999997</ele>
        <time>2018-07-07T08:09:32Z</time>
      </trkpt>
      <trkpt lat="47.780410973355174" lon="-3.549513034522533">
        <ele>36.189999999999998</ele>
        <time>2018-07-07T08:09:37Z</time>
      </trkpt>
      <trkpt lat="47.780478028580546" lon="-3.549304995685816">
        <ele>36.189999999999998</ele>
        <time>2018-07-07T08:09:38Z</time>
      </trkpt>
      <trkpt lat="47.780553968623281" lon="-3.549094023182988">
        <ele>36.189999999999998</ele>
        <time>2018-07-07T08:09:39Z</time>
      </trkpt>
      <trkpt lat="47.781213959679008" lon="-3.547083036974073">
        <ele>38.590000000000003</ele>
        <time>2018-07-07T08:09:49Z</time>
      </trkpt>
      <trkpt lat="47.781471032649279" lon="-3.546131020411849">
        <ele>40.509999999999998</ele>
        <time>2018-07-07T08:09:57Z</time>
      </trkpt>
      <trkpt lat="47.78149701654911" lon="-3.546034963801503">
        <ele>41.469999999999999</ele>
        <time>2018-07-07T08:10:04Z</time>
      </trkpt>
      <trkpt lat="47.781505985185504" lon="-3.546002022922039">
        <ele>41.469999999999999</ele>
        <time>2018-07-07T08:10:11Z</time>
      </trkpt>
      <trkpt lat="47.781523000448942" lon="-3.545966986566782">
        <ele>41.950000000000003</ele>
        <time>2018-07-07T08:10:12Z</time>
      </trkpt>
      <trkpt lat="47.781570022925735" lon="-3.545972015708685">
        <ele>41.950000000000003</ele>
        <time>2018-07-07T08:10:13Z</time>
      </trkpt>
      <trkpt lat="47.781643029302359" lon="-3.545978972688317">
        <ele>41.950000000000003</ele>
        <time>2018-07-07T08:10:14Z</time>
      </trkpt>
      <trkpt lat="47.781730033457279" lon="-3.545988025143743">
        <ele>42.439999999999998</ele>
        <time>2018-07-07T08:10:15Z</time>
      </trkpt>
      <trkpt lat="47.782711973413825" lon="-3.546087015420198">
        <ele>40.990000000000002</ele>
        <time>2018-07-07T08:10:23Z</time>
      </trkpt>
      <trkpt lat="47.784530008211732" lon="-3.54634702205658">
        <ele>37.149999999999999</ele>
        <time>2018-07-07T08:10:35Z</time>
      </trkpt>
      <trkpt lat="47.785631977021694" lon="-3.546959990635514">
        <ele>35.710000000000001</ele>
        <time>2018-07-07T08:10:44Z</time>
      </trkpt>
      <trkpt lat="47.785878991708159" lon="-3.547160988673568">
        <ele>34.740000000000002</ele>
        <time>2018-07-07T08:10:46Z</time>
      </trkpt>
      <trkpt lat="47.785994997248054" lon="-3.54729300364852">
        <ele>34.259999999999998</ele>
        <time>2018-07-07T08:10:47Z</time>
      </trkpt>
      <trkpt lat="47.786791026592255" lon="-3.548565963283181">
        <ele>24.170000000000002</ele>
        <time>2018-07-07T08:10:55Z</time>
      </trkpt>
      <trkpt lat="47.787069976329803" lon="-3.548959996551275">
        <ele>20.809999999999999</ele>
        <time>2018-07-07T08:10:58Z</time>
      </trkpt>
      <trkpt lat="47.787281032651663" lon="-3.549149008467794">
        <ele>18.879999999999999</ele>
        <time>2018-07-07T08:11:00Z</time>
      </trkpt>
      <trkpt lat="47.78740600682795" lon="-3.549212040379643">
        <ele>17.920000000000002</ele>
        <time>2018-07-07T08:11:01Z</time>
      </trkpt>
      <trkpt lat="47.787674982100725" lon="-3.549280017614365">
        <ele>16</ele>
        <time>2018-07-07T08:11:03Z</time>
      </trkpt>
      <trkpt lat="47.788623981177807" lon="-3.549487972632051">
        <ele>12.15</ele>
        <time>2018-07-07T08:11:09Z</time>
      </trkpt>
      <trkpt lat="47.789052966982126" lon="-3.549629962071776">
        <ele>9.75</ele>
        <time>2018-07-07T08:11:12Z</time>
      </trkpt>
      <trkpt lat="47.789166960865259" lon="-3.549717972055078">
        <ele>8.789999999999999</ele>
        <time>2018-07-07T08:11:13Z</time>
      </trkpt>
      <trkpt lat="47.789292018860579" lon="-3.549819979816675">
        <ele>7.83</ele>
        <time>2018-07-07T08:11:14Z</time>
      </trkpt>
      <trkpt lat="47.78950902633369" lon="-3.55012902058661">
        <ele>5.91</ele>
        <time>2018-07-07T08:11:16Z</time>
      </trkpt>
      <trkpt lat="47.789613967761397" lon="-3.550249971449375">
        <ele>4.94</ele>
        <time>2018-07-07T08:11:17Z</time>
      </trkpt>
      <trkpt lat="47.789750006049871" lon="-3.550314009189606">
        <ele>4.94</ele>
        <time>2018-07-07T08:11:18Z</time>
      </trkpt>
      <trkpt lat="47.789889983832836" lon="-3.550379974767566">
        <ele>4.46</ele>
        <time>2018-07-07T08:11:19Z</time>
      </trkpt>
      <trkpt lat="47.790030967444181" lon="-3.550380980595946">
        <ele>4.46</ele>
        <time>2018-07-07T08:11:20Z</time>
      </trkpt>
      <trkpt lat="47.790169017389417" lon="-3.550334963947535">
        <ele>4.94</ele>
        <time>2018-07-07T08:11:21Z</time>
      </trkpt>
      <trkpt lat="47.790298014879227" lon="-3.550257012248039">
        <ele>5.42</ele>
        <time>2018-07-07T08:11:22Z</time>
      </trkpt>
      <trkpt lat="47.790379989892244" lon="-3.55012902058661">
        <ele>5.91</ele>
        <time>2018-07-07T08:11:23Z</time>
      </trkpt>
      <trkpt lat="47.790436986833811" lon="-3.549964986741543">
        <ele>6.39</ele>
        <time>2018-07-07T08:11:24Z</time>
      </trkpt>
      <trkpt lat="47.790464982390404" lon="-3.549793995916843">
        <ele>7.35</ele>
        <time>2018-07-07T08:11:25Z</time>
      </trkpt>
      <trkpt lat="47.790492977946997" lon="-3.549616970121861">
        <ele>7.83</ele>
        <time>2018-07-07T08:11:26Z</time>
      </trkpt>
      <trkpt lat="47.79052197933197" lon="-3.549442039802671">
        <ele>8.310000000000001</ele>
        <time>2018-07-07T08:11:27Z</time>
      </trkpt>
      <trkpt lat="47.790548969060183" lon="-3.549273982644081">
        <ele>8.789999999999999</ele>
        <time>2018-07-07T08:11:28Z</time>
      </trkpt>
      <trkpt lat="47.790601020678878" lon="-3.5491400398314">
        <ele>9.75</ele>
        <time>2018-07-07T08:11:29Z</time>
      </trkpt>
      <trkpt lat="47.790661035105586" lon="-3.549030991271138">
        <ele>10.710000000000001</ele>
        <time>2018-07-07T08:11:30Z</time>
      </trkpt>
      <trkpt lat="47.790734963491559" lon="-3.548956979066134">
        <ele>12.15</ele>
        <time>2018-07-07T08:11:31Z</time>
      </trkpt>
      <trkpt lat="47.790808975696564" lon="-3.548882966861129">
        <ele>13.6</ele>
        <time>2018-07-07T08:11:32Z</time>
      </trkpt>
      <trkpt lat="47.790889022871852" lon="-3.54881901293993">
        <ele>15.039999999999999</ele>
        <time>2018-07-07T08:11:33Z</time>
      </trkpt>
      <trkpt lat="47.790984995663166" lon="-3.548813983798027">
        <ele>16</ele>
        <time>2018-07-07T08:11:34Z</time>
      </trkpt>
      <trkpt lat="47.791087003424764" lon="-3.548809038475156">
        <ele>16.48</ele>
        <time>2018-07-07T08:11:35Z</time>
      </trkpt>
      <trkpt lat="47.791195968165994" lon="-3.548803003504872">
        <ele>17.440000000000001</ele>
        <time>2018-07-07T08:11:36Z</time>
      </trkpt>
      <trkpt lat="47.791308034211397" lon="-3.548812977969647">
        <ele>17.920000000000002</ele>
        <time>2018-07-07T08:11:37Z</time>
      </trkpt>
      <trkpt lat="47.791427979245782" lon="-3.548876009881496">
        <ele>17.920000000000002</ele>
        <time>2018-07-07T08:11:38Z</time>
      </trkpt>
      <trkpt lat="47.791553037241101" lon="-3.548940969631076">
        <ele>18.879999999999999</ele>
        <time>2018-07-07T08:11:39Z</time>
      </trkpt>
      <trkpt lat="47.791682034730911" lon="-3.549007019028068">
        <ele>19.84</ele>
        <time>2018-07-07T08:11:40Z</time>
      </trkpt>
      <trkpt lat="47.791907005012035" lon="-3.549154037609696">
        <ele>20.809999999999999</ele>
        <time>2018-07-07T08:11:42Z</time>
      </trkpt>
      <trkpt lat="47.791998032480478" lon="-3.549255961552262">
        <ele>21.77</ele>
        <time>2018-07-07T08:11:43Z</time>
      </trkpt>
      <trkpt lat="47.792073972523212" lon="-3.549373978748918">
        <ele>22.73</ele>
        <time>2018-07-07T08:11:44Z</time>
      </trkpt>
      <trkpt lat="47.792146978899837" lon="-3.549509011209011">
        <ele>23.210000000000001</ele>
        <time>2018-07-07T08:11:45Z</time>
      </trkpt>
      <trkpt lat="47.792197018861771" lon="-3.549653012305498">
        <ele>24.170000000000002</ele>
        <time>2018-07-07T08:11:46Z</time>
      </trkpt>
      <trkpt lat="47.792229037731886" lon="-3.549814028665423">
        <ele>25.129999999999999</ele>
        <time>2018-07-07T08:11:47Z</time>
      </trkpt>
      <trkpt lat="47.792259966954589" lon="-3.549971021711826">
        <ele>25.609999999999999</ele>
        <time>2018-07-07T08:11:48Z</time>
      </trkpt>
      <trkpt lat="47.792289974167943" lon="-3.550119968131185">
        <ele>26.09</ele>
        <time>2018-07-07T08:11:49Z</time>
      </trkpt>
      <trkpt lat="47.792318975552917" lon="-3.550264975056052">
        <ele>27.050000000000001</ele>
        <time>2018-07-07T08:11:50Z</time>
      </trkpt>
      <trkpt lat="47.792397011071444" lon="-3.550552977249026">
        <ele>28.5</ele>
        <time>2018-07-07T08:11:52Z</time>
      </trkpt>
      <trkpt lat="47.792450990527868" lon="-3.550698990002275">
        <ele>28.98</ele>
        <time>2018-07-07T08:11:53Z</time>
      </trkpt>
      <trkpt lat="47.792502036318183" lon="-3.55083703994751">
        <ele>29.460000000000001</ele>
        <time>2018-07-07T08:11:54Z</time>
      </trkpt>
      <trkpt lat="47.792609995231032" lon="-3.550944998860359">
        <ele>29.460000000000001</ele>
        <time>2018-07-07T08:11:55Z</time>
      </trkpt>
      <trkpt lat="47.792706973850727" lon="-3.551041977480054">
        <ele>29.940000000000001</ele>
        <time>2018-07-07T08:11:56Z</time>
      </trkpt>
      <trkpt lat="47.792809987440705" lon="-3.55109796859324">
        <ele>29.940000000000001</ele>
        <time>2018-07-07T08:11:57Z</time>
      </trkpt>
      <trkpt lat="47.792925992980599" lon="-3.551106015220285">
        <ele>29.940000000000001</ele>
        <time>2018-07-07T08:11:58Z</time>
      </trkpt>
      <trkpt lat="47.793046021834016" lon="-3.551114983856678">
        <ele>30.420000000000002</ele>
        <time>2018-07-07T08:11:59Z</time>
      </trkpt>
      <trkpt lat="47.793583972379565" lon="-3.55105203576386">
        <ele>33.299999999999997</ele>
        <time>2018-07-07T08:12:04Z</time>
      </trkpt>
      <trkpt lat="47.793690003454685" lon="-3.551038959994912">
        <ele>33.780000000000001</ele>
        <time>2018-07-07T08:12:05Z</time>
      </trkpt>
      <trkpt lat="47.793800979852676" lon="-3.551025968044996">
        <ele>34.259999999999998</ele>
        <time>2018-07-07T08:12:06Z</time>
      </trkpt>
      <trkpt lat="47.793912040069699" lon="-3.5510119702667">
        <ele>34.740000000000002</ele>
        <time>2018-07-07T08:12:07Z</time>
      </trkpt>
      <trkpt lat="47.794017987325788" lon="-3.551040971651673">
        <ele>35.710000000000001</ele>
        <time>2018-07-07T08:12:08Z</time>
      </trkpt>
      <trkpt lat="47.794124018400908" lon="-3.551084976643324">
        <ele>36.189999999999998</ele>
        <time>2018-07-07T08:12:09Z</time>
      </trkpt>
      <trkpt lat="47.794230971485376" lon="-3.551128981634975">
        <ele>37.149999999999999</ele>
        <time>2018-07-07T08:12:10Z</time>
      </trkpt>
      <trkpt lat="47.794332979246974" lon="-3.55118396691978">
        <ele>38.109999999999999</ele>
        <time>2018-07-07T08:12:11Z</time>
      </trkpt>
      <trkpt lat="47.794423000887036" lon="-3.551265019923449">
        <ele>39.549999999999997</ele>
        <time>2018-07-07T08:12:12Z</time>
      </trkpt>
      <trkpt lat="47.794505981728435" lon="-3.551340959966183">
        <ele>40.509999999999998</ele>
        <time>2018-07-07T08:12:13Z</time>
      </trkpt>
      <trkpt lat="47.795249037444592" lon="-3.552587013691664">
        <ele>45.799999999999997</ele>
        <time>2018-07-07T08:12:23Z</time>
      </trkpt>
      <trkpt lat="47.795453974977136" lon="-3.552813995629549">
        <ele>46.759999999999998</ele>
        <time>2018-07-07T08:12:25Z</time>
      </trkpt>
      <trkpt lat="47.795561011880636" lon="-3.552927989512682">
        <ele>47.240000000000002</ele>
        <time>2018-07-07T08:12:26Z</time>
      </trkpt>
      <trkpt lat="47.796742022037506" lon="-3.55376098304987">
        <ele>52.049999999999997</ele>
        <time>2018-07-07T08:12:36Z</time>
      </trkpt>
      <trkpt lat="47.797887995839119" lon="-3.554162979125977">
        <ele>52.049999999999997</ele>
        <time>2018-07-07T08:12:45Z</time>
      </trkpt>
      <trkpt lat="47.798949982970953" lon="-3.554937969893217">
        <ele>53.490000000000002</ele>
        <time>2018-07-07T08:12:55Z</time>
      </trkpt>
      <trkpt lat="47.799064982682467" lon="-3.554992033168674">
        <ele>53.969999999999999</ele>
        <time>2018-07-07T08:12:56Z</time>
      </trkpt>
      <trkpt lat="47.799182999879122" lon="-3.555048024281859">
        <ele>53.969999999999999</ele>
        <time>2018-07-07T08:12:57Z</time>
      </trkpt>
      <trkpt lat="47.800085982307792" lon="-3.555257990956307">
        <ele>55.890000000000001</ele>
        <time>2018-07-07T08:13:06Z</time>
      </trkpt>
      <trkpt lat="47.800387982279062" lon="-3.555396962910891">
        <ele>55.409999999999997</ele>
        <time>2018-07-07T08:13:13Z</time>
      </trkpt>
      <trkpt lat="47.800436010584235" lon="-3.555418001487851">
        <ele>55.409999999999997</ele>
        <time>2018-07-07T08:13:14Z</time>
      </trkpt>
      <trkpt lat="47.800505999475718" lon="-3.555322028696537">
        <ele>55.409999999999997</ele>
        <time>2018-07-07T08:13:15Z</time>
      </trkpt>
      <trkpt lat="47.80053399503231" lon="-3.555274000391364">
        <ele>55.409999999999997</ele>
        <time>2018-07-07T08:13:16Z</time>
      </trkpt>
      <trkpt lat="47.800600966438651" lon="-3.555208034813404">
        <ele>55.409999999999997</ele>
        <time>2018-07-07T08:13:17Z</time>
      </trkpt>
      <trkpt lat="47.800642037764192" lon="-3.555199988186359">
        <ele>55.409999999999997</ele>
        <time>2018-07-07T08:13:18Z</time>
      </trkpt>
      <trkpt lat="47.80066198669374" lon="-3.555195964872837">
        <ele>55.409999999999997</ele>
        <time>2018-07-07T08:13:19Z</time>
      </trkpt>
      <trkpt lat="47.800674978643656" lon="-3.555194037035108">
        <ele>55.409999999999997</ele>
        <time>2018-07-07T08:13:20Z</time>
      </trkpt>
      <trkpt lat="47.8008349891752" lon="-3.555324040353298">
        <ele>54.93</ele>
        <time>2018-07-07T08:13:25Z</time>
      </trkpt>
      <trkpt lat="47.801614003255963" lon="-3.555365027859807">
        <ele>53.490000000000002</ele>
        <time>2018-07-07T08:13:32Z</time>
      </trkpt>
      <trkpt lat="47.802876988425851" lon="-3.555502993986011">
        <ele>53.969999999999999</ele>
        <time>2018-07-07T08:13:39Z</time>
      </trkpt>
      <trkpt lat="47.804972967132926" lon="-3.556141024455428">
        <ele>55.890000000000001</ele>
        <time>2018-07-07T08:13:49Z</time>
      </trkpt>
      <trkpt lat="47.806714978069067" lon="-3.556872010231018">
        <ele>56.859999999999999</ele>
        <time>2018-07-07T08:13:59Z</time>
      </trkpt>
      <trkpt lat="47.808470986783504" lon="-3.558099959045649">
        <ele>55.409999999999997</ele>
        <time>2018-07-07T08:14:11Z</time>
      </trkpt>
      <trkpt lat="47.810056004673243" lon="-3.559038983657956">
        <ele>57.82</ele>
        <time>2018-07-07T08:14:22Z</time>
      </trkpt>
      <trkpt lat="47.810907019302249" lon="-3.559377025812864">
        <ele>58.299999999999997</ele>
        <time>2018-07-07T08:14:27Z</time>
      </trkpt>
      <trkpt lat="47.811072980985045" lon="-3.55947601608932">
        <ele>58.299999999999997</ele>
        <time>2018-07-07T08:14:28Z</time>
      </trkpt>
      <trkpt lat="47.811238020658493" lon="-3.559572994709015">
        <ele>58.299999999999997</ele>
        <time>2018-07-07T08:14:29Z</time>
      </trkpt>
      <trkpt lat="47.813034011051059" lon="-3.561197994276881">
        <ele>56.859999999999999</ele>
        <time>2018-07-07T08:14:41Z</time>
      </trkpt>
      <trkpt lat="47.814659010618925" lon="-3.56259198859334">
        <ele>56.369999999999997</ele>
        <time>2018-07-07T08:14:52Z</time>
      </trkpt>
      <trkpt lat="47.815172988921404" lon="-3.562940005213022">
        <ele>55.890000000000001</ele>
        <time>2018-07-07T08:14:56Z</time>
      </trkpt>
      <trkpt lat="47.815300980582833" lon="-3.563006976619363">
        <ele>55.409999999999997</ele>
        <time>2018-07-07T08:14:57Z</time>
      </trkpt>
      <trkpt lat="47.815440958365798" lon="-3.563050981611013">
        <ele>54.93</ele>
        <time>2018-07-07T08:14:58Z</time>
      </trkpt>
      <trkpt lat="47.816683994606137" lon="-3.563134968280792">
        <ele>53.490000000000002</ele>
        <time>2018-07-07T08:15:06Z</time>
      </trkpt>
      <trkpt lat="47.817874979227781" lon="-3.56304201297462">
        <ele>55.890000000000001</ele>
        <time>2018-07-07T08:15:13Z</time>
      </trkpt>
      <trkpt lat="47.819153973832726" lon="-3.562577990815043">
        <ele>61.18</ele>
        <time>2018-07-07T08:15:21Z</time>
      </trkpt>
      <trkpt lat="47.820604965090752" lon="-3.562625013291836">
        <ele>65.510000000000005</ele>
        <time>2018-07-07T08:15:29Z</time>
      </trkpt>
      <trkpt lat="47.822388969361782" lon="-3.562672035768628">
        <ele>67.430000000000007</ele>
        <time>2018-07-07T08:15:38Z</time>
      </trkpt>
      <trkpt lat="47.824280010536313" lon="-3.562721991911531">
        <ele>66.950000000000003</ele>
        <time>2018-07-07T08:15:47Z</time>
      </trkpt>
      <trkpt lat="47.825374016538262" lon="-3.562754010781646">
        <ele>66.469999999999999</ele>
        <time>2018-07-07T08:15:53Z</time>
      </trkpt>
      <trkpt lat="47.825535032898188" lon="-3.562719980254769">
        <ele>65.510000000000005</ele>
        <time>2018-07-07T08:15:54Z</time>
      </trkpt>
      <trkpt lat="47.825700994580984" lon="-3.562649991363287">
        <ele>65.030000000000001</ele>
        <time>2018-07-07T08:15:55Z</time>
      </trkpt>
      <trkpt lat="47.825858993455768" lon="-3.562543038278818">
        <ele>64.549999999999997</ele>
        <time>2018-07-07T08:15:56Z</time>
      </trkpt>
      <trkpt lat="47.826006012037396" lon="-3.562406999990344">
        <ele>63.579999999999998</ele>
        <time>2018-07-07T08:15:57Z</time>
      </trkpt>
      <trkpt lat="47.826161999255419" lon="-3.562258975580335">
        <ele>62.619999999999997</ele>
        <time>2018-07-07T08:15:58Z</time>
      </trkpt>
      <trkpt lat="47.827137988060713" lon="-3.561283992603421">
        <ele>60.219999999999999</ele>
        <time>2018-07-07T08:16:04Z</time>
      </trkpt>
      <trkpt lat="47.82730302773416" lon="-3.561120964586735">
        <ele>59.740000000000002</ele>
        <time>2018-07-07T08:16:05Z</time>
      </trkpt>
      <trkpt lat="47.827473012730479" lon="-3.560956008732319">
        <ele>59.740000000000002</ele>
        <time>2018-07-07T08:16:06Z</time>
      </trkpt>
      <trkpt lat="47.828847980126739" lon="-3.559595039114356">
        <ele>61.18</ele>
        <time>2018-07-07T08:16:14Z</time>
      </trkpt>
      <trkpt lat="47.830255972221494" lon="-3.558212025091052">
        <ele>58.780000000000001</ele>
        <time>2018-07-07T08:16:22Z</time>
      </trkpt>
      <trkpt lat="47.83157997764647" lon="-3.556924983859062">
        <ele>56.369999999999997</ele>
        <time>2018-07-07T08:16:30Z</time>
      </trkpt>
      <trkpt lat="47.833094000816345" lon="-3.555445997044444">
        <ele>53.969999999999999</ele>
        <time>2018-07-07T08:16:39Z</time>
      </trkpt>
      <trkpt lat="47.83379003405571" lon="-3.554765973240137">
        <ele>52.049999999999997</ele>
        <time>2018-07-07T08:16:43Z</time>
      </trkpt>
      <trkpt lat="47.834965009242296" lon="-3.553618993610144">
        <ele>47.719999999999999</ele>
        <time>2018-07-07T08:16:50Z</time>
      </trkpt>
      <trkpt lat="47.835780987516046" lon="-3.552823970094323">
        <ele>44.359999999999999</ele>
        <time>2018-07-07T08:16:55Z</time>
      </trkpt>
      <trkpt lat="47.835942003875971" lon="-3.55266697704792">
        <ele>42.920000000000002</ele>
        <time>2018-07-07T08:16:56Z</time>
      </trkpt>
      <trkpt lat="47.836247021332383" lon="-3.552402025088668">
        <ele>41.469999999999999</ele>
        <time>2018-07-07T08:16:58Z</time>
      </trkpt>
      <trkpt lat="47.836425974965096" lon="-3.552275039255619">
        <ele>40.990000000000002</ele>
        <time>2018-07-07T08:16:59Z</time>
      </trkpt>
      <trkpt lat="47.836583973839879" lon="-3.552206978201866">
        <ele>40.509999999999998</ele>
        <time>2018-07-07T08:17:00Z</time>
      </trkpt>
      <trkpt lat="47.836762005463243" lon="-3.552142018452287">
        <ele>40.030000000000001</ele>
        <time>2018-07-07T08:17:01Z</time>
      </trkpt>
      <trkpt lat="47.836951017379761" lon="-3.552118968218565">
        <ele>39.549999999999997</ele>
        <time>2018-07-07T08:17:02Z</time>
      </trkpt>
      <trkpt lat="47.837142962962389" lon="-3.552096001803875">
        <ele>39.549999999999997</ele>
        <time>2018-07-07T08:17:03Z</time>
      </trkpt>
      <trkpt lat="47.838944988325238" lon="-3.551841024309397">
        <ele>40.990000000000002</ele>
        <time>2018-07-07T08:17:12Z</time>
      </trkpt>
      <trkpt lat="47.840653974562883" lon="-3.551570037379861">
        <ele>44.359999999999999</ele>
        <time>2018-07-07T08:17:20Z</time>
      </trkpt>
      <trkpt lat="47.842419035732746" lon="-3.551288992166519">
        <ele>46.759999999999998</ele>
        <time>2018-07-07T08:17:28Z</time>
      </trkpt>
      <trkpt lat="47.843818981200457" lon="-3.551038037985563">
        <ele>51.090000000000003</ele>
        <time>2018-07-07T08:17:35Z</time>
      </trkpt>
      <trkpt lat="47.843992989510298" lon="-3.550952961668372">
        <ele>51.090000000000003</ele>
        <time>2018-07-07T08:17:36Z</time>
      </trkpt>
      <trkpt lat="47.8441690094769" lon="-3.550857994705439">
        <ele>51.57</ele>
        <time>2018-07-07T08:17:37Z</time>
      </trkpt>
      <trkpt lat="47.844348968937993" lon="-3.550760010257363">
        <ele>52.049999999999997</ele>
        <time>2018-07-07T08:17:38Z</time>
      </trkpt>
      <trkpt lat="47.84453496336937" lon="-3.550659008324146">
        <ele>52.530000000000001</ele>
        <time>2018-07-07T08:17:39Z</time>
      </trkpt>
      <trkpt lat="47.845896016806364" lon="-3.549888040870428">
        <ele>52.049999999999997</ele>
        <time>2018-07-07T08:17:47Z</time>
      </trkpt>
      <trkpt lat="47.846937971189618" lon="-3.549242969602346">
        <ele>48.68</ele>
        <time>2018-07-07T08:17:56Z</time>
      </trkpt>
      <trkpt lat="47.847999958321452" lon="-3.548780037090182">
        <ele>43.880000000000003</ele>
        <time>2018-07-07T08:18:04Z</time>
      </trkpt>
      <trkpt lat="47.850151006132364" lon="-3.548468984663487">
        <ele>37.149999999999999</ele>
        <time>2018-07-07T08:18:18Z</time>
      </trkpt>
      <trkpt lat="47.851188015192747" lon="-3.548332024365664">
        <ele>31.859999999999999</ele>
        <time>2018-07-07T08:18:25Z</time>
      </trkpt>
      <trkpt lat="47.851347019895911" lon="-3.548358008265495">
        <ele>31.379999999999999</ele>
        <time>2018-07-07T08:18:26Z</time>
      </trkpt>
      <trkpt lat="47.851506024599075" lon="-3.548382986336947">
        <ele>30.420000000000002</ele>
        <time>2018-07-07T08:18:27Z</time>
      </trkpt>
      <trkpt lat="47.853034967556596" lon="-3.548767967149615">
        <ele>23.210000000000001</ele>
        <time>2018-07-07T08:18:37Z</time>
      </trkpt>
      <trkpt lat="47.854273980483413" lon="-3.548407964408398">
        <ele>21.77</ele>
        <time>2018-07-07T08:18:44Z</time>
      </trkpt>
      <trkpt lat="47.855455996468663" lon="-3.547386964783073">
        <ele>19.359999999999999</ele>
        <time>2018-07-07T08:18:51Z</time>
      </trkpt>
      <trkpt lat="47.857129024341702" lon="-3.545798007398844">
        <ele>12.630000000000001</ele>
        <time>2018-07-07T08:19:01Z</time>
      </trkpt>
      <trkpt lat="47.858405001461506" lon="-3.544710958376527">
        <ele>2.54</ele>
        <time>2018-07-07T08:19:09Z</time>
      </trkpt>
      <trkpt lat="47.859895974397659" lon="-3.544076029211283">
        <ele>0.62</ele>
        <time>2018-07-07T08:19:18Z</time>
      </trkpt>
      <trkpt lat="47.861082013696432" lon="-3.543656012043357">
        <ele>1.58</ele>
        <time>2018-07-07T08:19:26Z</time>
      </trkpt>
      <trkpt lat="47.862083986401558" lon="-3.543264996260405">
        <ele>5.91</ele>
        <time>2018-07-07T08:19:34Z</time>
      </trkpt>
      <trkpt lat="47.862699972465634" lon="-3.542883032932878">
        <ele>7.35</ele>
        <time>2018-07-07T08:19:40Z</time>
      </trkpt>
      <trkpt lat="47.86279602907598" lon="-3.542770966887474">
        <ele>7.35</ele>
        <time>2018-07-07T08:19:41Z</time>
      </trkpt>
      <trkpt lat="47.863098029047251" lon="-3.542485982179642">
        <ele>8.310000000000001</ele>
        <time>2018-07-07T08:19:44Z</time>
      </trkpt>
      <trkpt lat="47.863790960982442" lon="-3.542090021073818">
        <ele>8.310000000000001</ele>
        <time>2018-07-07T08:19:49Z</time>
      </trkpt>
      <trkpt lat="47.863930016756058" lon="-3.542032018303871">
        <ele>8.310000000000001</ele>
        <time>2018-07-07T08:19:50Z</time>
      </trkpt>
      <trkpt lat="47.864190023392439" lon="-3.541933028027415">
        <ele>8.310000000000001</ele>
        <time>2018-07-07T08:19:52Z</time>
      </trkpt>
      <trkpt lat="47.864310974255204" lon="-3.541940990835428">
        <ele>8.310000000000001</ele>
        <time>2018-07-07T08:19:53Z</time>
      </trkpt>
      <trkpt lat="47.864433014765382" lon="-3.541949959471822">
        <ele>8.310000000000001</ele>
        <time>2018-07-07T08:19:54Z</time>
      </trkpt>
      <trkpt lat="47.864556983113289" lon="-3.541993964463472">
        <ele>8.310000000000001</ele>
        <time>2018-07-07T08:19:55Z</time>
      </trkpt>
      <trkpt lat="47.864680029451847" lon="-3.542068982496858">
        <ele>8.310000000000001</ele>
        <time>2018-07-07T08:19:56Z</time>
      </trkpt>
      <trkpt lat="47.864807015284896" lon="-3.542151041328907">
        <ele>8.789999999999999</ele>
        <time>2018-07-07T08:19:57Z</time>
      </trkpt>
      <trkpt lat="47.86559097468853" lon="-3.542724028229713">
        <ele>8.310000000000001</ele>
        <time>2018-07-07T08:20:04Z</time>
      </trkpt>
      <trkpt lat="47.865777974948287" lon="-3.542860988527536">
        <ele>7.83</ele>
        <time>2018-07-07T08:20:06Z</time>
      </trkpt>
      <trkpt lat="47.866264963522553" lon="-3.543110014870763">
        <ele>8.310000000000001</ele>
        <time>2018-07-07T08:20:11Z</time>
      </trkpt>
      <trkpt lat="47.86632196046412" lon="-3.543127030134201">
        <ele>8.310000000000001</ele>
        <time>2018-07-07T08:20:12Z</time>
      </trkpt>
      <trkpt lat="47.866430003196001" lon="-3.543160976842046">
        <ele>8.310000000000001</ele>
        <time>2018-07-07T08:20:14Z</time>
      </trkpt>
      <trkpt lat="47.866487000137568" lon="-3.543178997933865">
        <ele>8.310000000000001</ele>
        <time>2018-07-07T08:20:15Z</time>
      </trkpt>
      <trkpt lat="47.866551037877798" lon="-3.543199030682445">
        <ele>8.310000000000001</ele>
        <time>2018-07-07T08:20:16Z</time>
      </trkpt>
      <trkpt lat="47.8666200209409" lon="-3.543219985440373">
        <ele>8.310000000000001</ele>
        <time>2018-07-07T08:20:17Z</time>
      </trkpt>
      <trkpt lat="47.866695960983634" lon="-3.543234989047051">
        <ele>8.310000000000001</ele>
        <time>2018-07-07T08:20:18Z</time>
      </trkpt>
      <trkpt lat="47.86754596978426" lon="-3.543536989018321">
        <ele>6.39</ele>
        <time>2018-07-07T08:20:29Z</time>
      </trkpt>
      <trkpt lat="47.867699023336172" lon="-3.54359901510179">
        <ele>6.39</ele>
        <time>2018-07-07T08:20:31Z</time>
      </trkpt>
      <trkpt lat="47.867775969207287" lon="-3.543631033971906">
        <ele>6.39</ele>
        <time>2018-07-07T08:20:32Z</time>
      </trkpt>
      <trkpt lat="47.86784403026104" lon="-3.543671015650034">
        <ele>5.91</ele>
        <time>2018-07-07T08:20:33Z</time>
      </trkpt>
      <trkpt lat="47.867912007495761" lon="-3.543730024248362">
        <ele>5.91</ele>
        <time>2018-07-07T08:20:34Z</time>
      </trkpt>
      <trkpt lat="47.867978978902102" lon="-3.543789032846689">
        <ele>5.91</ele>
        <time>2018-07-07T08:20:35Z</time>
      </trkpt>
      <trkpt lat="47.868047961965203" lon="-3.543848963454366">
        <ele>5.42</ele>
        <time>2018-07-07T08:20:36Z</time>
      </trkpt>
      <trkpt lat="47.868298999965191" lon="-3.54424299672246">
        <ele>4.46</ele>
        <time>2018-07-07T08:20:43Z</time>
      </trkpt>
      <trkpt lat="47.868379969149828" lon="-3.544353973120451">
        <ele>3.98</ele>
        <time>2018-07-07T08:20:46Z</time>
      </trkpt>
      <trkpt lat="47.868467979133129" lon="-3.544463021680713">
        <ele>3.02</ele>
        <time>2018-07-07T08:20:48Z</time>
      </trkpt>
      <trkpt lat="47.868517013266683" lon="-3.544523036107421">
        <ele>2.54</ele>
        <time>2018-07-07T08:20:49Z</time>
      </trkpt>
      <trkpt lat="47.868565041571856" lon="-3.544582966715097">
        <ele>2.54</ele>
        <time>2018-07-07T08:20:50Z</time>
      </trkpt>
      <trkpt lat="47.868617009371519" lon="-3.544635018333793">
        <ele>2.06</ele>
        <time>2018-07-07T08:20:51Z</time>
      </trkpt>
      <trkpt lat="47.868668977171183" lon="-3.544675000011921">
        <ele>2.06</ele>
        <time>2018-07-07T08:20:52Z</time>
      </trkpt>
      <trkpt lat="47.86915403790772" lon="-3.545021004974842">
        <ele>-0.82</ele>
        <time>2018-07-07T08:21:01Z</time>
      </trkpt>
      <trkpt lat="47.869191002100706" lon="-3.545042965561152">
        <ele>-0.82</ele>
        <time>2018-07-07T08:21:02Z</time>
      </trkpt>
      <trkpt lat="47.869213968515396" lon="-3.545056963339448">
        <ele>-1.3</ele>
        <time>2018-07-07T08:21:03Z</time>
      </trkpt>
      <trkpt lat="47.869230983778834" lon="-3.545067021623254">
        <ele>-1.3</ele>
        <time>2018-07-07T08:21:04Z</time>
      </trkpt>
      <trkpt lat="47.86924296990037" lon="-3.545073978602886">
        <ele>-1.3</ele>
        <time>2018-07-07T08:21:05Z</time>
      </trkpt>
      <trkpt lat="47.86924296990037" lon="-3.545073978602886">
        <ele>-1.79</ele>
        <time>2018-07-07T08:21:19Z</time>
      </trkpt>
      <trkpt lat="47.86924296990037" lon="-3.545073978602886">
        <ele>-1.79</ele>
        <time>2018-07-07T08:22:18Z</time>
      </trkpt>
      <trkpt lat="47.86930600181222" lon="-3.545112032443285">
        <ele>-1.3</ele>
        <time>2018-07-07T08:23:01Z</time>
      </trkpt>
      <trkpt lat="47.869352018460631" lon="-3.545140027999878">
        <ele>-1.3</ele>
        <time>2018-07-07T08:23:02Z</time>
      </trkpt>
      <trkpt lat="47.869804976508021" lon="-3.545412020757794">
        <ele>-1.3</ele>
        <time>2018-07-07T08:23:10Z</time>
      </trkpt>
      <trkpt lat="47.869834983721375" lon="-3.545430041849613">
        <ele>-1.3</ele>
        <time>2018-07-07T08:23:11Z</time>
      </trkpt>
      <trkpt lat="47.870017038658261" lon="-3.545498019084334">
        <ele>-1.79</ele>
        <time>2018-07-07T08:23:14Z</time>
      </trkpt>
      <trkpt lat="47.870155004784465" lon="-3.545549986883998">
        <ele>-1.3</ele>
        <time>2018-07-07T08:23:21Z</time>
      </trkpt>
      <trkpt lat="47.87031602114439" lon="-3.545565996319056">
        <ele>-1.79</ele>
        <time>2018-07-07T08:23:32Z</time>
      </trkpt>
      <trkpt lat="47.870862018316984" lon="-3.545569013804197">
        <ele>-1.79</ele>
        <time>2018-07-07T08:23:40Z</time>
      </trkpt>
      <trkpt lat="47.870923960581422" lon="-3.545567002147436">
        <ele>-1.79</ele>
        <time>2018-07-07T08:23:41Z</time>
      </trkpt>
      <trkpt lat="47.871093023568392" lon="-3.545561973005533">
        <ele>-1.3</ele>
        <time>2018-07-07T08:23:44Z</time>
      </trkpt>
      <trkpt lat="47.871287986636162" lon="-3.545570019632578">
        <ele>-0.34</ele>
        <time>2018-07-07T08:23:48Z</time>
      </trkpt>
      <trkpt lat="47.871380019932985" lon="-3.545579994097352">
        <ele>0.14</ele>
        <time>2018-07-07T08:23:49Z</time>
      </trkpt>
      <trkpt lat="47.871389994397759" lon="-3.545573959127069">
        <ele>0.62</ele>
        <time>2018-07-07T08:23:50Z</time>
      </trkpt>
      <trkpt lat="47.871429976075888" lon="-3.545546969398856">
        <ele>1.58</ele>
        <time>2018-07-07T08:23:51Z</time>
      </trkpt>
      <trkpt lat="47.871463000774384" lon="-3.545448984950781">
        <ele>2.06</ele>
        <time>2018-07-07T08:23:52Z</time>
      </trkpt>
      <trkpt lat="47.871475992724299" lon="-3.545388970524073">
        <ele>2.06</ele>
        <time>2018-07-07T08:23:53Z</time>
      </trkpt>
      <trkpt lat="47.871488984674215" lon="-3.545325016602874">
        <ele>2.54</ele>
        <time>2018-07-07T08:23:54Z</time>
      </trkpt>
      <trkpt lat="47.871501976624131" lon="-3.545267013832927">
        <ele>2.54</ele>
        <time>2018-07-07T08:23:55Z</time>
      </trkpt>
      <trkpt lat="47.871546987444162" lon="-3.544957973062992">
        <ele>3.98</ele>
        <time>2018-07-07T08:24:00Z</time>
      </trkpt>
      <trkpt lat="47.871531983837485" lon="-3.544897958636284">
        <ele>3.98</ele>
        <time>2018-07-07T08:24:01Z</time>
      </trkpt>
      <trkpt lat="47.871487978845835" lon="-3.544843979179859">
        <ele>3.98</ele>
        <time>2018-07-07T08:24:02Z</time>
      </trkpt>
      <trkpt lat="47.871451014652848" lon="-3.544800980016589">
        <ele>3.98</ele>
        <time>2018-07-07T08:24:03Z</time>
      </trkpt>
      <trkpt lat="47.871401980519295" lon="-3.544742977246642">
        <ele>3.98</ele>
        <time>2018-07-07T08:24:04Z</time>
      </trkpt>
      <trkpt lat="47.871298966929317" lon="-3.544683968648315">
        <ele>3.98</ele>
        <time>2018-07-07T08:24:06Z</time>
      </trkpt>
      <trkpt lat="47.870610980316997" lon="-3.544328995049">
        <ele>5.42</ele>
        <time>2018-07-07T08:24:18Z</time>
      </trkpt>
      <trkpt lat="47.869916036725044" lon="-3.54387897066772">
        <ele>5.91</ele>
        <time>2018-07-07T08:24:29Z</time>
      </trkpt>
      <trkpt lat="47.869855016469955" lon="-3.543818034231663">
        <ele>5.91</ele>
        <time>2018-07-07T08:24:30Z</time>
      </trkpt>
      <trkpt lat="47.869782010093331" lon="-3.543666992336512">
        <ele>6.39</ele>
        <time>2018-07-07T08:24:32Z</time>
      </trkpt>
      <trkpt lat="47.869753008708358" lon="-3.543563978746533">
        <ele>6.39</ele>
        <time>2018-07-07T08:24:33Z</time>
      </trkpt>
      <trkpt lat="47.869725013151765" lon="-3.543462976813316">
        <ele>6.87</ele>
        <time>2018-07-07T08:24:34Z</time>
      </trkpt>
      <trkpt lat="47.86963096819818" lon="-3.542896024882793">
        <ele>9.27</ele>
        <time>2018-07-07T08:24:39Z</time>
      </trkpt>
      <trkpt lat="47.869599033147097" lon="-3.542786976322532">
        <ele>10.23</ele>
        <time>2018-07-07T08:24:40Z</time>
      </trkpt>
      <trkpt lat="47.869552010670304" lon="-3.542687986046076">
        <ele>10.710000000000001</ele>
        <time>2018-07-07T08:24:41Z</time>
      </trkpt>
      <trkpt lat="47.869448997080326" lon="-3.542468966916204">
        <ele>12.15</ele>
        <time>2018-07-07T08:24:43Z</time>
      </trkpt>
      <trkpt lat="47.868854971602559" lon="-3.54170897975564">
        <ele>16</ele>
        <time>2018-07-07T08:24:51Z</time>
      </trkpt>
      <trkpt lat="47.868782971054316" lon="-3.541564978659153">
        <ele>16.48</ele>
        <time>2018-07-07T08:24:52Z</time>
      </trkpt>
      <trkpt lat="47.868664031848311" lon="-3.541220985352993">
        <ele>17.440000000000001</ele>
        <time>2018-07-07T08:24:54Z</time>
      </trkpt>
      <trkpt lat="47.868604017421603" lon="-3.541044965386391">
        <ele>17.920000000000002</ele>
        <time>2018-07-07T08:24:55Z</time>
      </trkpt>
      <trkpt lat="47.868552971631289" lon="-3.540858970955014">
        <ele>18.399999999999999</ele>
        <time>2018-07-07T08:24:56Z</time>
      </trkpt>
      <trkpt lat="47.868411988019943" lon="-3.540103007107973">
        <ele>21.289999999999999</ele>
        <time>2018-07-07T08:25:00Z</time>
      </trkpt>
      <trkpt lat="47.868249965831637" lon="-3.539026016369462">
        <ele>25.609999999999999</ele>
        <time>2018-07-07T08:25:06Z</time>
      </trkpt>
      <trkpt lat="47.868174025788903" lon="-3.538518995046616">
        <ele>27.530000000000001</ele>
        <time>2018-07-07T08:25:09Z</time>
      </trkpt>
      <trkpt lat="47.868148041889071" lon="-3.538351021707058">
        <ele>28.02</ele>
        <time>2018-07-07T08:25:10Z</time>
      </trkpt>
      <trkpt lat="47.868123985826969" lon="-3.538188999518752">
        <ele>28.5</ele>
        <time>2018-07-07T08:25:11Z</time>
      </trkpt>
      <trkpt lat="47.868014015257359" lon="-3.537490032613277">
        <ele>31.379999999999999</ele>
        <time>2018-07-07T08:25:17Z</time>
      </trkpt>
      <trkpt lat="47.868022983893752" lon="-3.537419959902763">
        <ele>31.859999999999999</ele>
        <time>2018-07-07T08:25:18Z</time>
      </trkpt>
      <trkpt lat="47.868139995262027" lon="-3.537382995709777">
        <ele>32.340000000000003</ele>
        <time>2018-07-07T08:25:19Z</time>
      </trkpt>
      <trkpt lat="47.868300005793571" lon="-3.53721996769309">
        <ele>32.340000000000003</ele>
        <time>2018-07-07T08:25:22Z</time>
      </trkpt>
      <trkpt lat="47.869047001004219" lon="-3.536130990833044">
        <ele>33.299999999999997</ele>
        <time>2018-07-07T08:25:32Z</time>
      </trkpt>
      <trkpt lat="47.870021983981133" lon="-3.534693997353315">
        <ele>42.439999999999998</ele>
        <time>2018-07-07T08:25:43Z</time>
      </trkpt>
      <trkpt lat="47.870977018028498" lon="-3.533292962238193">
        <ele>52.049999999999997</ele>
        <time>2018-07-07T08:25:54Z</time>
      </trkpt>
      <trkpt lat="47.871066033840179" lon="-3.533167988061905">
        <ele>52.530000000000001</ele>
        <time>2018-07-07T08:25:55Z</time>
      </trkpt>
      <trkpt lat="47.871859967708588" lon="-3.532030982896686">
        <ele>61.659999999999997</ele>
        <time>2018-07-07T08:26:04Z</time>
      </trkpt>
      <trkpt lat="47.872755993157625" lon="-3.530762968584895">
        <ele>67.430000000000007</ele>
        <time>2018-07-07T08:26:14Z</time>
      </trkpt>
      <trkpt lat="47.873292015865445" lon="-3.529964005574584">
        <ele>68.390000000000001</ele>
        <time>2018-07-07T08:26:20Z</time>
      </trkpt>
      <trkpt lat="47.87336996756494" lon="-3.529816986992955">
        <ele>68.870000000000005</ele>
        <time>2018-07-07T08:26:21Z</time>
      </trkpt>
      <trkpt lat="47.873430987820029" lon="-3.529643984511495">
        <ele>68.870000000000005</ele>
        <time>2018-07-07T08:26:22Z</time>
      </trkpt>
      <trkpt lat="47.873480021953583" lon="-3.529468970373273">
        <ele>69.349999999999994</ele>
        <time>2018-07-07T08:26:23Z</time>
      </trkpt>
      <trkpt lat="47.873515980318189" lon="-3.529281970113516">
        <ele>69.349999999999994</ele>
        <time>2018-07-07T08:26:24Z</time>
      </trkpt>
      <trkpt lat="47.873540036380291" lon="-3.529092958196998">
        <ele>69.349999999999994</ele>
        <time>2018-07-07T08:26:25Z</time>
      </trkpt>
      <trkpt lat="47.873910013586283" lon="-3.52647403255105">
        <ele>68.390000000000001</ele>
        <time>2018-07-07T08:26:39Z</time>
      </trkpt>
      <trkpt lat="47.874231040477753" lon="-3.524625990539789">
        <ele>72.239999999999995</ele>
        <time>2018-07-07T08:26:49Z</time>
      </trkpt>
      <trkpt lat="47.874859012663364" lon="-3.52252003736794">
        <ele>71.269999999999996</ele>
        <time>2018-07-07T08:27:01Z</time>
      </trkpt>
      <trkpt lat="47.875397969037294" lon="-3.521226961165667">
        <ele>68.870000000000005</ele>
        <time>2018-07-07T08:27:09Z</time>
      </trkpt>
      <trkpt lat="47.876180000603199" lon="-3.519270960241556">
        <ele>65.510000000000005</ele>
        <time>2018-07-07T08:27:21Z</time>
      </trkpt>
      <trkpt lat="47.876521982252598" lon="-3.517674962058663">
        <ele>63.100000000000001</ele>
        <time>2018-07-07T08:27:28Z</time>
      </trkpt>
      <trkpt lat="47.876715017482638" lon="-3.516489006578922">
        <ele>62.619999999999997</ele>
        <time>2018-07-07T08:27:32Z</time>
      </trkpt>
      <trkpt lat="47.876768996939063" lon="-3.516172003000975">
        <ele>62.140000000000001</ele>
        <time>2018-07-07T08:27:33Z</time>
      </trkpt>
      <trkpt lat="47.877274006605148" lon="-3.513432964682579">
        <ele>60.219999999999999</ele>
        <time>2018-07-07T08:27:42Z</time>
      </trkpt>
      <trkpt lat="47.878147987648845" lon="-3.510469039902091">
        <ele>52.530000000000001</ele>
        <time>2018-07-07T08:27:53Z</time>
      </trkpt>
      <trkpt lat="47.878880985081196" lon="-3.507400006055832">
        <ele>53.009999999999998</ele>
        <time>2018-07-07T08:28:04Z</time>
      </trkpt>
      <trkpt lat="47.879033032804728" lon="-3.504750989377499">
        <ele>57.82</ele>
        <time>2018-07-07T08:28:13Z</time>
      </trkpt>
      <trkpt lat="47.879136968404055" lon="-3.50174498744309">
        <ele>64.069999999999993</ele>
        <time>2018-07-07T08:28:23Z</time>
      </trkpt>
      <trkpt lat="47.879252973943949" lon="-3.498571012169123">
        <ele>70.310000000000002</ele>
        <time>2018-07-07T08:28:34Z</time>
      </trkpt>
      <trkpt lat="47.879499988630414" lon="-3.495785035192967">
        <ele>76.079999999999998</ele>
        <time>2018-07-07T08:28:45Z</time>
      </trkpt>
      <trkpt lat="47.87964197807014" lon="-3.492772998288274">
        <ele>74.640000000000001</ele>
        <time>2018-07-07T08:28:55Z</time>
      </trkpt>
      <trkpt lat="47.879958981648088" lon="-3.490101015195251">
        <ele>67.909999999999997</ele>
        <time>2018-07-07T08:29:04Z</time>
      </trkpt>
      <trkpt lat="47.880041962489486" lon="-3.489834973588586">
        <ele>67.430000000000007</ele>
        <time>2018-07-07T08:29:05Z</time>
      </trkpt>
      <trkpt lat="47.880138019099832" lon="-3.489582007750869">
        <ele>67.430000000000007</ele>
        <time>2018-07-07T08:29:06Z</time>
      </trkpt>
      <trkpt lat="47.880811002105474" lon="-3.487442024052143">
        <ele>73.680000000000007</ele>
        <time>2018-07-07T08:29:14Z</time>
      </trkpt>
      <trkpt lat="47.881411984562874" lon="-3.484233012422919">
        <ele>76.560000000000002</ele>
        <time>2018-07-07T08:29:25Z</time>
      </trkpt>
      <trkpt lat="47.881880030035973" lon="-3.480098973959684">
        <ele>81.370000000000005</ele>
        <time>2018-07-07T08:29:39Z</time>
      </trkpt>
      <trkpt lat="47.882129978388548" lon="-3.476787032559514">
        <ele>81.849999999999994</ele>
        <time>2018-07-07T08:29:50Z</time>
      </trkpt>
      <trkpt lat="47.882815031334758" lon="-3.472989024594426">
        <ele>75.599999999999994</ele>
        <time>2018-07-07T08:30:03Z</time>
      </trkpt>
      <trkpt lat="47.883539982140064" lon="-3.470217967405915">
        <ele>76.560000000000002</ele>
        <time>2018-07-07T08:30:13Z</time>
      </trkpt>
      <trkpt lat="47.883662022650242" lon="-3.469986040145159">
        <ele>76.560000000000002</ele>
        <time>2018-07-07T08:30:14Z</time>
      </trkpt>
      <trkpt lat="47.883784985169768" lon="-3.469751011580229">
        <ele>76.560000000000002</ele>
        <time>2018-07-07T08:30:15Z</time>
      </trkpt>
      <trkpt lat="47.885197000578046" lon="-3.467183969914913">
        <ele>80.890000000000001</ele>
        <time>2018-07-07T08:30:26Z</time>
      </trkpt>
      <trkpt lat="47.886652015149593" lon="-3.464627992361784">
        <ele>73.680000000000007</ele>
        <time>2018-07-07T08:30:37Z</time>
      </trkpt>
      <trkpt lat="47.888293024152517" lon="-3.461650991812348">
        <ele>73.680000000000007</ele>
        <time>2018-07-07T08:30:50Z</time>
      </trkpt>
      <trkpt lat="47.889595991000533" lon="-3.458613976836205">
        <ele>72.719999999999999</ele>
        <time>2018-07-07T08:31:02Z</time>
      </trkpt>
      <trkpt lat="47.890610033646226" lon="-3.456769036129117">
        <ele>75.120000000000005</ele>
        <time>2018-07-07T08:31:10Z</time>
      </trkpt>
      <trkpt lat="47.891892967745662" lon="-3.455308992415667">
        <ele>75.599999999999994</ele>
        <time>2018-07-07T08:31:18Z</time>
      </trkpt>
      <trkpt lat="47.892499985173345" lon="-3.454860979691148">
        <ele>76.079999999999998</ele>
        <time>2018-07-07T08:31:23Z</time>
      </trkpt>
      <trkpt lat="47.892762003466487" lon="-3.454667022451758">
        <ele>75.599999999999994</ele>
        <time>2018-07-07T08:31:30Z</time>
      </trkpt>
      <trkpt lat="47.892820006236434" lon="-3.454621005803347">
        <ele>75.599999999999994</ele>
        <time>2018-07-07T08:31:31Z</time>
      </trkpt>
      <trkpt lat="47.892888989299536" lon="-3.454559985548258">
        <ele>75.599999999999994</ele>
        <time>2018-07-07T08:31:32Z</time>
      </trkpt>
      <trkpt lat="47.892966018989682" lon="-3.454491002485156">
        <ele>75.599999999999994</ele>
        <time>2018-07-07T08:31:33Z</time>
      </trkpt>
      <trkpt lat="47.893056962639093" lon="-3.4544110391289">
        <ele>75.120000000000005</ele>
        <time>2018-07-07T08:31:34Z</time>
      </trkpt>
      <trkpt lat="47.893165005370975" lon="-3.454315988346934">
        <ele>75.120000000000005</ele>
        <time>2018-07-07T08:31:35Z</time>
      </trkpt>
      <trkpt lat="47.893282016739249" lon="-3.454212974756956">
        <ele>75.120000000000005</ele>
        <time>2018-07-07T08:31:36Z</time>
      </trkpt>
      <trkpt lat="47.893944019451737" lon="-3.45340202562511">
        <ele>74.640000000000001</ele>
        <time>2018-07-07T08:31:42Z</time>
      </trkpt>
      <trkpt lat="47.894704006612301" lon="-3.452211041003466">
        <ele>76.560000000000002</ele>
        <time>2018-07-07T08:31:50Z</time>
      </trkpt>
      <trkpt lat="47.895277999341488" lon="-3.45076197758317">
        <ele>78</ele>
        <time>2018-07-07T08:31:58Z</time>
      </trkpt>
      <trkpt lat="47.895606989040971" lon="-3.450002996250987">
        <ele>78.969999999999999</ele>
        <time>2018-07-07T08:32:02Z</time>
      </trkpt>
      <trkpt lat="47.895716959610581" lon="-3.449848014861345">
        <ele>78.480000000000004</ele>
        <time>2018-07-07T08:32:03Z</time>
      </trkpt>
      <trkpt lat="47.896557999774814" lon="-3.448731964454055">
        <ele>77.040000000000006</ele>
        <time>2018-07-07T08:32:12Z</time>
      </trkpt>
      <trkpt lat="47.8977329749614" lon="-3.447197992354631">
        <ele>72.719999999999999</ele>
        <time>2018-07-07T08:32:25Z</time>
      </trkpt>
      <trkpt lat="47.898615002632141" lon="-3.445984963327646">
        <ele>70.310000000000002</ele>
        <time>2018-07-07T08:32:35Z</time>
      </trkpt>
      <trkpt lat="47.899521002545953" lon="-3.444375973194838">
        <ele>74.159999999999997</ele>
        <time>2018-07-07T08:32:47Z</time>
      </trkpt>
      <trkpt lat="47.899608006700873" lon="-3.444261979311705">
        <ele>74.640000000000001</ele>
        <time>2018-07-07T08:32:48Z</time>
      </trkpt>
      <trkpt lat="47.899978989735246" lon="-3.443899964913726">
        <ele>76.079999999999998</ele>
        <time>2018-07-07T08:32:52Z</time>
      </trkpt>
      <trkpt lat="47.900219969451427" lon="-3.443677006289363">
        <ele>76.079999999999998</ele>
        <time>2018-07-07T08:32:55Z</time>
      </trkpt>
      <trkpt lat="47.90028995834291" lon="-3.443571981042624">
        <ele>76.079999999999998</ele>
        <time>2018-07-07T08:32:56Z</time>
      </trkpt>
      <trkpt lat="47.900355001911521" lon="-3.443473996594548">
        <ele>76.079999999999998</ele>
        <time>2018-07-07T08:32:57Z</time>
      </trkpt>
      <trkpt lat="47.900433959439397" lon="-3.443355979397893">
        <ele>76.560000000000002</ele>
        <time>2018-07-07T08:32:58Z</time>
      </trkpt>
      <trkpt lat="47.900464972481132" lon="-3.44326201826334">
        <ele>77.040000000000006</ele>
        <time>2018-07-07T08:32:59Z</time>
      </trkpt>
      <trkpt lat="47.900497997179627" lon="-3.443163027986884">
        <ele>77.519999999999996</ele>
        <time>2018-07-07T08:33:00Z</time>
      </trkpt>
      <trkpt lat="47.900648033246398" lon="-3.442734964191914">
        <ele>80.409999999999997</ele>
        <time>2018-07-07T08:33:06Z</time>
      </trkpt>
      <trkpt lat="47.900673011317849" lon="-3.44265902414918">
        <ele>80.890000000000001</ele>
        <time>2018-07-07T08:33:07Z</time>
      </trkpt>
      <trkpt lat="47.900698995217681" lon="-3.442583000287414">
        <ele>81.370000000000005</ele>
        <time>2018-07-07T08:33:08Z</time>
      </trkpt>
      <trkpt lat="47.900966964662075" lon="-3.44167398288846">
        <ele>85.689999999999998</ele>
        <time>2018-07-07T08:33:18Z</time>
      </trkpt>
      <trkpt lat="47.900992026552558" lon="-3.441476002335548">
        <ele>86.180000000000007</ele>
        <time>2018-07-07T08:33:20Z</time>
      </trkpt>
      <trkpt lat="47.901006024330854" lon="-3.441367959603667">
        <ele>86.659999999999997</ele>
        <time>2018-07-07T08:33:21Z</time>
      </trkpt>
      <trkpt lat="47.901021027937531" lon="-3.441252037882805">
        <ele>87.620000000000005</ele>
        <time>2018-07-07T08:33:22Z</time>
      </trkpt>
      <trkpt lat="47.901036031544209" lon="-3.441138966009021">
        <ele>88.099999999999994</ele>
        <time>2018-07-07T08:33:23Z</time>
      </trkpt>
      <trkpt lat="47.901050029322505" lon="-3.441026983782649">
        <ele>88.099999999999994</ele>
        <time>2018-07-07T08:33:24Z</time>
      </trkpt>
      <trkpt lat="47.901130998507142" lon="-3.44031997025013">
        <ele>89.060000000000002</ele>
        <time>2018-07-07T08:33:30Z</time>
      </trkpt>
      <trkpt lat="47.901165029034019" lon="-3.439802974462509">
        <ele>90.019999999999996</ele>
        <time>2018-07-07T08:33:35Z</time>
      </trkpt>
      <trkpt lat="47.901171986013651" lon="-3.439726028591394">
        <ele>90.019999999999996</ele>
        <time>2018-07-07T08:33:36Z</time>
      </trkpt>
      <trkpt lat="47.901178020983934" lon="-3.439657967537642">
        <ele>90.5</ele>
        <time>2018-07-07T08:33:37Z</time>
      </trkpt>
      <trkpt lat="47.901219008490443" lon="-3.439358985051513">
        <ele>90.5</ele>
        <time>2018-07-07T08:33:42Z</time>
      </trkpt>
      <trkpt lat="47.901230994611979" lon="-3.43928899616003">
        <ele>90.5</ele>
        <time>2018-07-07T08:33:43Z</time>
      </trkpt>
      <trkpt lat="47.901258990168571" lon="-3.439134014770389">
        <ele>90.5</ele>
        <time>2018-07-07T08:33:45Z</time>
      </trkpt>
      <trkpt lat="47.901328979060054" lon="-3.438888005912304">
        <ele>90.5</ele>
        <time>2018-07-07T08:33:48Z</time>
      </trkpt>
      <trkpt lat="47.901502987369895" lon="-3.43845197930932">
        <ele>90.5</ele>
        <time>2018-07-07T08:33:52Z</time>
      </trkpt>
      <trkpt lat="47.901559984311461" lon="-3.438319964334369">
        <ele>90.5</ele>
        <time>2018-07-07T08:33:53Z</time>
      </trkpt>
      <trkpt lat="47.902279989793897" lon="-3.436646014451981">
        <ele>87.620000000000005</ele>
        <time>2018-07-07T08:34:04Z</time>
      </trkpt>
      <trkpt lat="47.903185989707708" lon="-3.434550035744906">
        <ele>81.370000000000005</ele>
        <time>2018-07-07T08:34:18Z</time>
      </trkpt>
      <trkpt lat="47.903888979926705" lon="-3.43290600925684">
        <ele>77.519999999999996</ele>
        <time>2018-07-07T08:34:29Z</time>
      </trkpt>
      <trkpt lat="47.904775030910969" lon="-3.431430961936712">
        <ele>74.159999999999997</ele>
        <time>2018-07-07T08:34:40Z</time>
      </trkpt>
      <trkpt lat="47.905857972800732" lon="-3.430034033954144">
        <ele>68.390000000000001</ele>
        <time>2018-07-07T08:34:52Z</time>
      </trkpt>
      <trkpt lat="47.906813006848097" lon="-3.428683038800955">
        <ele>61.18</ele>
        <time>2018-07-07T08:35:03Z</time>
      </trkpt>
      <trkpt lat="47.906872015446424" lon="-3.428530991077423">
        <ele>60.700000000000003</ele>
        <time>2018-07-07T08:35:04Z</time>
      </trkpt>
      <trkpt lat="47.906936975196004" lon="-3.428365029394627">
        <ele>59.740000000000002</ele>
        <time>2018-07-07T08:35:05Z</time>
      </trkpt>
      <trkpt lat="47.906982991844416" lon="-3.428171994164586">
        <ele>58.780000000000001</ele>
        <time>2018-07-07T08:35:06Z</time>
      </trkpt>
      <trkpt lat="47.907022973522544" lon="-3.427950963377953">
        <ele>57.82</ele>
        <time>2018-07-07T08:35:07Z</time>
      </trkpt>
      <trkpt lat="47.907043006271124" lon="-3.42770897783339">
        <ele>56.859999999999999</ele>
        <time>2018-07-07T08:35:08Z</time>
      </trkpt>
      <trkpt lat="47.907043006271124" lon="-3.427446959540248">
        <ele>55.890000000000001</ele>
        <time>2018-07-07T08:35:09Z</time>
      </trkpt>
      <trkpt lat="47.907043006271124" lon="-3.427171027287841">
        <ele>54.93</ele>
        <time>2018-07-07T08:35:10Z</time>
      </trkpt>
      <trkpt lat="47.906974023208022" lon="-3.426005020737648">
        <ele>51.57</ele>
        <time>2018-07-07T08:35:14Z</time>
      </trkpt>
      <trkpt lat="47.90694996714592" lon="-3.425726993009448">
        <ele>50.609999999999999</ele>
        <time>2018-07-07T08:35:15Z</time>
      </trkpt>
      <trkpt lat="47.906828010454774" lon="-3.424671040847898">
        <ele>45.799999999999997</ele>
        <time>2018-07-07T08:35:19Z</time>
      </trkpt>
      <trkpt lat="47.90679800324142" lon="-3.424427965655923">
        <ele>44.359999999999999</ele>
        <time>2018-07-07T08:35:20Z</time>
      </trkpt>
      <trkpt lat="47.906738994643092" lon="-3.424188997596502">
        <ele>43.399999999999999</ele>
        <time>2018-07-07T08:35:21Z</time>
      </trkpt>
      <trkpt lat="47.906659031286836" lon="-3.423965033143759">
        <ele>41.950000000000003</ele>
        <time>2018-07-07T08:35:22Z</time>
      </trkpt>
      <trkpt lat="47.90656297467649" lon="-3.423747019842267">
        <ele>40.030000000000001</ele>
        <time>2018-07-07T08:35:23Z</time>
      </trkpt>
      <trkpt lat="47.906463984400034" lon="-3.423526994884014">
        <ele>38.590000000000003</ele>
        <time>2018-07-07T08:35:24Z</time>
      </trkpt>
      <trkpt lat="47.906271032989025" lon="-3.423070013523102">
        <ele>36.189999999999998</ele>
        <time>2018-07-07T08:35:26Z</time>
      </trkpt>
      <trkpt lat="47.90619601495564" lon="-3.422816041857004">
        <ele>34.740000000000002</ele>
        <time>2018-07-07T08:35:27Z</time>
      </trkpt>
      <trkpt lat="47.906144969165325" lon="-3.422553017735481">
        <ele>33.299999999999997</ele>
        <time>2018-07-07T08:35:28Z</time>
      </trkpt>
      <trkpt lat="47.906117979437113" lon="-3.422289993613958">
        <ele>32.340000000000003</ele>
        <time>2018-07-07T08:35:29Z</time>
      </trkpt>
      <trkpt lat="47.906112028285861" lon="-3.422026969492436">
        <ele>30.899999999999999</ele>
        <time>2018-07-07T08:35:30Z</time>
      </trkpt>
      <trkpt lat="47.906105993315578" lon="-3.421759000048041">
        <ele>29.460000000000001</ele>
        <time>2018-07-07T08:35:31Z</time>
      </trkpt>
      <trkpt lat="47.906099958345294" lon="-3.421488013118506">
        <ele>28.5</ele>
        <time>2018-07-07T08:35:32Z</time>
      </trkpt>
      <trkpt lat="47.906050002202392" lon="-3.421209985390306">
        <ele>27.050000000000001</ele>
        <time>2018-07-07T08:35:33Z</time>
      </trkpt>
      <trkpt lat="47.905994011089206" lon="-3.420941010117531">
        <ele>26.09</ele>
        <time>2018-07-07T08:35:34Z</time>
      </trkpt>
      <trkpt lat="47.90591798722744" lon="-3.420673040673137">
        <ele>24.649999999999999</ele>
        <time>2018-07-07T08:35:35Z</time>
      </trkpt>
      <trkpt lat="47.905841041356325" lon="-3.420399958267808">
        <ele>23.690000000000001</ele>
        <time>2018-07-07T08:35:36Z</time>
      </trkpt>
      <trkpt lat="47.905364027246833" lon="-3.418147992342711">
        <ele>18.399999999999999</ele>
        <time>2018-07-07T08:35:44Z</time>
      </trkpt>
      <trkpt lat="47.904720967635512" lon="-3.414377979934216">
        <ele>28.5</ele>
        <time>2018-07-07T08:35:57Z</time>
      </trkpt>
      <trkpt lat="47.904518963769078" lon="-3.412980968132615">
        <ele>32.82</ele>
        <time>2018-07-07T08:36:02Z</time>
      </trkpt>
      <trkpt lat="47.904537990689278" lon="-3.412740994244814">
        <ele>33.780000000000001</ele>
        <time>2018-07-07T08:36:03Z</time>
      </trkpt>
      <trkpt lat="47.904570009559393" lon="-3.412514012306929">
        <ele>34.740000000000002</ele>
        <time>2018-07-07T08:36:04Z</time>
      </trkpt>
      <trkpt lat="47.904682997614145" lon="-3.411710020154715">
        <ele>37.630000000000003</ele>
        <time>2018-07-07T08:36:08Z</time>
      </trkpt>
      <trkpt lat="47.904692972078919" lon="-3.410917008295655">
        <ele>40.030000000000001</ele>
        <time>2018-07-07T08:36:13Z</time>
      </trkpt>
      <trkpt lat="47.904694983735681" lon="-3.410750040784478">
        <ele>40.990000000000002</ele>
        <time>2018-07-07T08:36:14Z</time>
      </trkpt>
      <trkpt lat="47.904811995103955" lon="-3.409265018999577">
        <ele>45.799999999999997</ele>
        <time>2018-07-07T08:36:22Z</time>
      </trkpt>
      <trkpt lat="47.904849965125322" lon="-3.40907801873982">
        <ele>45.799999999999997</ele>
        <time>2018-07-07T08:36:23Z</time>
      </trkpt>
      <trkpt lat="47.904962031170726" lon="-3.408530009910464">
        <ele>46.280000000000001</ele>
        <time>2018-07-07T08:36:26Z</time>
      </trkpt>
      <trkpt lat="47.904974017292261" lon="-3.408314008265734">
        <ele>46.280000000000001</ele>
        <time>2018-07-07T08:36:27Z</time>
      </trkpt>
      <trkpt lat="47.904979968443513" lon="-3.408127008005977">
        <ele>46.280000000000001</ele>
        <time>2018-07-07T08:36:28Z</time>
      </trkpt>
      <trkpt lat="47.904945015907288" lon="-3.4079410135746">
        <ele>46.759999999999998</ele>
        <time>2018-07-07T08:36:29Z</time>
      </trkpt>
      <trkpt lat="47.904909979552031" lon="-3.40774898417294">
        <ele>46.759999999999998</ele>
        <time>2018-07-07T08:36:30Z</time>
      </trkpt>
      <trkpt lat="47.904872009530663" lon="-3.407546980306506">
        <ele>46.759999999999998</ele>
        <time>2018-07-07T08:36:31Z</time>
      </trkpt>
      <trkpt lat="47.904801014810801" lon="-3.407115982845426">
        <ele>47.240000000000002</ele>
        <time>2018-07-07T08:36:33Z</time>
      </trkpt>
      <trkpt lat="47.904733037576079" lon="-3.406410980969667">
        <ele>48.200000000000003</ele>
        <time>2018-07-07T08:36:36Z</time>
      </trkpt>
      <trkpt lat="47.904665982350707" lon="-3.406182993203402">
        <ele>48.200000000000003</ele>
        <time>2018-07-07T08:36:37Z</time>
      </trkpt>
      <trkpt lat="47.90458501316607" lon="-3.405966991558671">
        <ele>48.68</ele>
        <time>2018-07-07T08:36:38Z</time>
      </trkpt>
      <trkpt lat="47.90443598292768" lon="-3.405568012967706">
        <ele>49.159999999999997</ele>
        <time>2018-07-07T08:36:40Z</time>
      </trkpt>
      <trkpt lat="47.904373034834862" lon="-3.405400039628148">
        <ele>49.649999999999999</ele>
        <time>2018-07-07T08:36:41Z</time>
      </trkpt>
      <trkpt lat="47.904339004307985" lon="-3.405250003561378">
        <ele>49.649999999999999</ele>
        <time>2018-07-07T08:36:42Z</time>
      </trkpt>
      <trkpt lat="47.904339004307985" lon="-3.405117988586426">
        <ele>49.649999999999999</ele>
        <time>2018-07-07T08:36:43Z</time>
      </trkpt>
      <trkpt lat="47.904390972107649" lon="-3.404948003590107">
        <ele>50.130000000000003</ele>
        <time>2018-07-07T08:36:44Z</time>
      </trkpt>
      <trkpt lat="47.904462972655892" lon="-3.404801990836859">
        <ele>50.130000000000003</ele>
        <time>2018-07-07T08:36:45Z</time>
      </trkpt>
      <trkpt lat="47.904556011781096" lon="-3.404640974476934">
        <ele>50.609999999999999</ele>
        <time>2018-07-07T08:36:46Z</time>
      </trkpt>
      <trkpt lat="47.904957002028823" lon="-3.403855003416538">
        <ele>53.009999999999998</ele>
        <time>2018-07-07T08:36:50Z</time>
      </trkpt>
      <trkpt lat="47.90503503754735" lon="-3.403617041185498">
        <ele>53.490000000000002</ele>
        <time>2018-07-07T08:36:51Z</time>
      </trkpt>
      <trkpt lat="47.90542203001678" lon="-3.401638995856047">
        <ele>58.299999999999997</ele>
        <time>2018-07-07T08:36:58Z</time>
      </trkpt>
      <trkpt lat="47.905512973666191" lon="-3.400726960971952">
        <ele>60.700000000000003</ele>
        <time>2018-07-07T08:37:02Z</time>
      </trkpt>
      <trkpt lat="47.905520014464855" lon="-3.400505008175969">
        <ele>61.659999999999997</ele>
        <time>2018-07-07T08:37:03Z</time>
      </trkpt>
      <trkpt lat="47.90546603500843" lon="-3.400352038443089">
        <ele>62.619999999999997</ele>
        <time>2018-07-07T08:37:04Z</time>
      </trkpt>
      <trkpt lat="47.905279034748673" lon="-3.399746026843786">
        <ele>65.030000000000001</ele>
        <time>2018-07-07T08:37:07Z</time>
      </trkpt>
      <trkpt lat="47.905266964808106" lon="-3.39951703324914">
        <ele>65.989999999999995</ele>
        <time>2018-07-07T08:37:08Z</time>
      </trkpt>
      <trkpt lat="47.905278028920293" lon="-3.399276975542307">
        <ele>66.469999999999999</ele>
        <time>2018-07-07T08:37:09Z</time>
      </trkpt>
      <trkpt lat="47.905356986448169" lon="-3.398797027766705">
        <ele>67.909999999999997</ele>
        <time>2018-07-07T08:37:11Z</time>
      </trkpt>
      <trkpt lat="47.905526971444488" lon="-3.398131001740694">
        <ele>68.870000000000005</ele>
        <time>2018-07-07T08:37:14Z</time>
      </trkpt>
      <trkpt lat="47.905577011406422" lon="-3.397934027016163">
        <ele>69.349999999999994</ele>
        <time>2018-07-07T08:37:15Z</time>
      </trkpt>
      <trkpt lat="47.905590003356338" lon="-3.397729005664587">
        <ele>69.349999999999994</ele>
        <time>2018-07-07T08:37:16Z</time>
      </trkpt>
      <trkpt lat="47.905597966164351" lon="-3.397505041211844">
        <ele>69.349999999999994</ele>
        <time>2018-07-07T08:37:17Z</time>
      </trkpt>
      <trkpt lat="47.905602995306253" lon="-3.397273030132055">
        <ele>69.349999999999994</ele>
        <time>2018-07-07T08:37:18Z</time>
      </trkpt>
      <trkpt lat="47.905562007799745" lon="-3.397039007395506">
        <ele>69.349999999999994</ele>
        <time>2018-07-07T08:37:19Z</time>
      </trkpt>
      <trkpt lat="47.905520014464855" lon="-3.396795010194182">
        <ele>69.349999999999994</ele>
        <time>2018-07-07T08:37:20Z</time>
      </trkpt>
      <trkpt lat="47.905069990083575" lon="-3.394228974357247">
        <ele>71.760000000000005</ele>
        <time>2018-07-07T08:37:29Z</time>
      </trkpt>
      <trkpt lat="47.904969993978739" lon="-3.393322974443436">
        <ele>73.200000000000003</ele>
        <time>2018-07-07T08:37:32Z</time>
      </trkpt>
      <trkpt lat="47.904989020898938" lon="-3.393037989735603">
        <ele>73.680000000000007</ele>
        <time>2018-07-07T08:37:33Z</time>
      </trkpt>
      <trkpt lat="47.905035959556699" lon="-3.392747975885868">
        <ele>74.159999999999997</ele>
        <time>2018-07-07T08:37:34Z</time>
      </trkpt>
      <trkpt lat="47.905083987861872" lon="-3.392456034198403">
        <ele>74.640000000000001</ele>
        <time>2018-07-07T08:37:35Z</time>
      </trkpt>
      <trkpt lat="47.905150037258863" lon="-3.392165014520288">
        <ele>74.640000000000001</ele>
        <time>2018-07-07T08:37:36Z</time>
      </trkpt>
      <trkpt lat="47.90535899810493" lon="-3.391292039304972">
        <ele>76.560000000000002</ele>
        <time>2018-07-07T08:37:39Z</time>
      </trkpt>
      <trkpt lat="47.905725035816431" lon="-3.388618966564536">
        <ele>83.290000000000006</ele>
        <time>2018-07-07T08:37:48Z</time>
      </trkpt>
      <trkpt lat="47.905734004452825" lon="-3.388326019048691">
        <ele>83.769999999999996</ele>
        <time>2018-07-07T08:37:49Z</time>
      </trkpt>
      <trkpt lat="47.905601989477873" lon="-3.384878961369395">
        <ele>84.730000000000004</ele>
        <time>2018-07-07T08:38:00Z</time>
      </trkpt>
      <trkpt lat="47.905522026121616" lon="-3.380753975361586">
        <ele>86.180000000000007</ele>
        <time>2018-07-07T08:38:13Z</time>
      </trkpt>
      <trkpt lat="47.90581002831459" lon="-3.377736993134022">
        <ele>90.019999999999996</ele>
        <time>2018-07-07T08:38:23Z</time>
      </trkpt>
      <trkpt lat="47.90647697634995" lon="-3.3751339931041">
        <ele>88.099999999999994</ele>
        <time>2018-07-07T08:38:32Z</time>
      </trkpt>
      <trkpt lat="47.906629024073482" lon="-3.374624960124493">
        <ele>86.659999999999997</ele>
        <time>2018-07-07T08:38:34Z</time>
      </trkpt>
      <trkpt lat="47.906724996864796" lon="-3.374406024813652">
        <ele>85.689999999999998</ele>
        <time>2018-07-07T08:38:35Z</time>
      </trkpt>
      <trkpt lat="47.906828010454774" lon="-3.374176025390625">
        <ele>84.730000000000004</ele>
        <time>2018-07-07T08:38:36Z</time>
      </trkpt>
      <trkpt lat="47.90819501504302" lon="-3.372348016127944">
        <ele>75.599999999999994</ele>
        <time>2018-07-07T08:38:45Z</time>
      </trkpt>
      <trkpt lat="47.909560007974505" lon="-3.370626037940383">
        <ele>66.950000000000003</ele>
        <time>2018-07-07T08:38:54Z</time>
      </trkpt>
      <trkpt lat="47.910677986219525" lon="-3.369168005883694">
        <ele>61.18</ele>
        <time>2018-07-07T08:39:04Z</time>
      </trkpt>
      <trkpt lat="47.911627991124988" lon="-3.367638979107142">
        <ele>58.780000000000001</ele>
        <time>2018-07-07T08:39:15Z</time>
      </trkpt>
      <trkpt lat="47.911683982238173" lon="-3.367476034909487">
        <ele>58.780000000000001</ele>
        <time>2018-07-07T08:39:16Z</time>
      </trkpt>
      <trkpt lat="47.911727987229824" lon="-3.367303032428026">
        <ele>58.299999999999997</ele>
        <time>2018-07-07T08:39:17Z</time>
      </trkpt>
      <trkpt lat="47.911766963079572" lon="-3.367132041603327">
        <ele>58.299999999999997</ele>
        <time>2018-07-07T08:39:18Z</time>
      </trkpt>
      <trkpt lat="47.911785989999771" lon="-3.366950992494822">
        <ele>58.299999999999997</ele>
        <time>2018-07-07T08:39:19Z</time>
      </trkpt>
      <trkpt lat="47.911861008033156" lon="-3.366030994802713">
        <ele>58.780000000000001</ele>
        <time>2018-07-07T08:39:24Z</time>
      </trkpt>
      <trkpt lat="47.911867965012789" lon="-3.365849023684859">
        <ele>59.740000000000002</ele>
        <time>2018-07-07T08:39:25Z</time>
      </trkpt>
      <trkpt lat="47.912045996636152" lon="-3.363222973421216">
        <ele>64.069999999999993</ele>
        <time>2018-07-07T08:39:39Z</time>
      </trkpt>
      <trkpt lat="47.912188991904259" lon="-3.360493993386626">
        <ele>65.989999999999995</ele>
        <time>2018-07-07T08:39:52Z</time>
      </trkpt>
      <trkpt lat="47.91221497580409" lon="-3.360252007842064">
        <ele>65.989999999999995</ele>
        <time>2018-07-07T08:39:53Z</time>
      </trkpt>
      <trkpt lat="47.91229804046452" lon="-3.359768958762288">
        <ele>65.989999999999995</ele>
        <time>2018-07-07T08:39:55Z</time>
      </trkpt>
      <trkpt lat="47.912914026528597" lon="-3.357874983921647">
        <ele>66.469999999999999</ele>
        <time>2018-07-07T08:40:03Z</time>
      </trkpt>
      <trkpt lat="47.913753977045417" lon="-3.355521010234952">
        <ele>69.829999999999998</ele>
        <time>2018-07-07T08:40:13Z</time>
      </trkpt>
      <trkpt lat="47.914423020556569" lon="-3.353486973792315">
        <ele>71.269999999999996</ele>
        <time>2018-07-07T08:40:22Z</time>
      </trkpt>
      <trkpt lat="47.914469037204981" lon="-3.353274995461106">
        <ele>71.269999999999996</ele>
        <time>2018-07-07T08:40:23Z</time>
      </trkpt>
      <trkpt lat="47.914479011669755" lon="-3.353051031008363">
        <ele>71.269999999999996</ele>
        <time>2018-07-07T08:40:24Z</time>
      </trkpt>
      <trkpt lat="47.914488986134529" lon="-3.352821031585336">
        <ele>70.790000000000006</ele>
        <time>2018-07-07T08:40:25Z</time>
      </trkpt>
      <trkpt lat="47.914508013054729" lon="-3.352109994739294">
        <ele>69.829999999999998</ele>
        <time>2018-07-07T08:40:28Z</time>
      </trkpt>
      <trkpt lat="47.914501978084445" lon="-3.351860968396068">
        <ele>68.870000000000005</ele>
        <time>2018-07-07T08:40:29Z</time>
      </trkpt>
      <trkpt lat="47.914496026933193" lon="-3.351629041135311">
        <ele>67.909999999999997</ele>
        <time>2018-07-07T08:40:30Z</time>
      </trkpt>
      <trkpt lat="47.91448999196291" lon="-3.351401975378394">
        <ele>67.430000000000007</ele>
        <time>2018-07-07T08:40:31Z</time>
      </trkpt>
      <trkpt lat="47.914445986971259" lon="-3.351171975955367">
        <ele>67.430000000000007</ele>
        <time>2018-07-07T08:40:32Z</time>
      </trkpt>
      <trkpt lat="47.914397958666086" lon="-3.350953962653875">
        <ele>66.950000000000003</ele>
        <time>2018-07-07T08:40:33Z</time>
      </trkpt>
      <trkpt lat="47.914349008351564" lon="-3.350734021514654">
        <ele>67.430000000000007</ele>
        <time>2018-07-07T08:40:34Z</time>
      </trkpt>
      <trkpt lat="47.914202995598316" lon="-3.350072018802166">
        <ele>68.390000000000001</ele>
        <time>2018-07-07T08:40:37Z</time>
      </trkpt>
      <trkpt lat="47.914165025576949" lon="-3.34984696470201">
        <ele>69.349999999999994</ele>
        <time>2018-07-07T08:40:38Z</time>
      </trkpt>
      <trkpt lat="47.914155973121524" lon="-3.349606990814209">
        <ele>70.310000000000002</ele>
        <time>2018-07-07T08:40:39Z</time>
      </trkpt>
      <trkpt lat="47.914179023355246" lon="-3.346495963633061">
        <ele>75.599999999999994</ele>
        <time>2018-07-07T08:40:51Z</time>
      </trkpt>
      <trkpt lat="47.914213975891471" lon="-3.345052013173699">
        <ele>78.969999999999999</ele>
        <time>2018-07-07T08:40:58Z</time>
      </trkpt>
      <trkpt lat="47.914297040551901" lon="-3.344544991850853">
        <ele>80.890000000000001</ele>
        <time>2018-07-07T08:41:01Z</time>
      </trkpt>
      <trkpt lat="47.914457973092794" lon="-3.343632034957409">
        <ele>82.810000000000002</ele>
        <time>2018-07-07T08:41:08Z</time>
      </trkpt>
      <trkpt lat="47.914656037464738" lon="-3.342465022578836">
        <ele>88.099999999999994</ele>
        <time>2018-07-07T08:41:20Z</time>
      </trkpt>
      <trkpt lat="47.914708005264401" lon="-3.342113988474011">
        <ele>88.579999999999998</ele>
        <time>2018-07-07T08:41:23Z</time>
      </trkpt>
      <trkpt lat="47.914730971679091" lon="-3.341979961842299">
        <ele>88.579999999999998</ele>
        <time>2018-07-07T08:41:24Z</time>
      </trkpt>
      <trkpt lat="47.914755027741194" lon="-3.341836966574192">
        <ele>88.579999999999998</ele>
        <time>2018-07-07T08:41:25Z</time>
      </trkpt>
      <trkpt lat="47.914966000244021" lon="-3.340127980336547">
        <ele>90.980000000000004</ele>
        <time>2018-07-07T08:41:36Z</time>
      </trkpt>
      <trkpt lat="47.915246039628983" lon="-3.338686041533947">
        <ele>90.980000000000004</ele>
        <time>2018-07-07T08:41:47Z</time>
      </trkpt>
      <trkpt lat="47.915532030165195" lon="-3.337364969775081">
        <ele>89.540000000000006</ele>
        <time>2018-07-07T08:41:59Z</time>
      </trkpt>
      <trkpt lat="47.915655998513103" lon="-3.337003961205483">
        <ele>87.140000000000001</ele>
        <time>2018-07-07T08:42:06Z</time>
      </trkpt>
      <trkpt lat="47.915681982412934" lon="-3.336947970092297">
        <ele>86.659999999999997</ele>
        <time>2018-07-07T08:42:07Z</time>
      </trkpt>
      <trkpt lat="47.915711989626288" lon="-3.336883010342717">
        <ele>86.180000000000007</ele>
        <time>2018-07-07T08:42:08Z</time>
      </trkpt>
      <trkpt lat="47.9157770331949" lon="-3.336817966774106">
        <ele>85.209999999999994</ele>
        <time>2018-07-07T08:42:10Z</time>
      </trkpt>
      <trkpt lat="47.915811985731125" lon="-3.3367820084095">
        <ele>84.25</ele>
        <time>2018-07-07T08:42:11Z</time>
      </trkpt>
      <trkpt lat="47.915862025693059" lon="-3.336903965100646">
        <ele>83.290000000000006</ele>
        <time>2018-07-07T08:42:12Z</time>
      </trkpt>
      <trkpt lat="47.915864959359169" lon="-3.336906982585788">
        <ele>82.329999999999998</ele>
        <time>2018-07-07T08:42:13Z</time>
      </trkpt>
      <trkpt lat="47.915913993492723" lon="-3.336956016719341">
        <ele>81.849999999999994</ele>
        <time>2018-07-07T08:42:14Z</time>
      </trkpt>
      <trkpt lat="47.91597300209105" lon="-3.337015025317669">
        <ele>80.890000000000001</ele>
        <time>2018-07-07T08:42:15Z</time>
      </trkpt>
      <trkpt lat="47.916034022346139" lon="-3.337076967582107">
        <ele>80.409999999999997</ele>
        <time>2018-07-07T08:42:16Z</time>
      </trkpt>
      <trkpt lat="47.916603991761804" lon="-3.338025966659188">
        <ele>76.560000000000002</ele>
        <time>2018-07-07T08:42:26Z</time>
      </trkpt>
      <trkpt lat="47.916886964812875" lon="-3.338498035445809">
        <ele>75.599999999999994</ele>
        <time>2018-07-07T08:42:32Z</time>
      </trkpt>
      <trkpt lat="47.916925018653274" lon="-3.338560983538628">
        <ele>75.120000000000005</ele>
        <time>2018-07-07T08:42:33Z</time>
      </trkpt>
      <trkpt lat="47.916967011988163" lon="-3.338573975488544">
        <ele>75.120000000000005</ele>
        <time>2018-07-07T08:42:34Z</time>
      </trkpt>
      <trkpt lat="47.917023003101349" lon="-3.338567018508911">
        <ele>74.640000000000001</ele>
        <time>2018-07-07T08:42:35Z</time>
      </trkpt>
      <trkpt lat="47.917083017528057" lon="-3.338558971881867">
        <ele>74.640000000000001</ele>
        <time>2018-07-07T08:42:36Z</time>
      </trkpt>
      <trkpt lat="47.917130962014198" lon="-3.338525025174022">
        <ele>74.640000000000001</ele>
        <time>2018-07-07T08:42:37Z</time>
      </trkpt>
      <trkpt lat="47.917185025289655" lon="-3.338454030454159">
        <ele>74.640000000000001</ele>
        <time>2018-07-07T08:42:38Z</time>
      </trkpt>
      <trkpt lat="47.917243028059602" lon="-3.338380018249154">
        <ele>75.120000000000005</ele>
        <time>2018-07-07T08:42:39Z</time>
      </trkpt>
      <trkpt lat="47.917334977537394" lon="-3.338236017152667">
        <ele>75.599999999999994</ele>
        <time>2018-07-07T08:42:41Z</time>
      </trkpt>
      <trkpt lat="47.917362973093987" lon="-3.338153036311269">
        <ele>76.079999999999998</ele>
        <time>2018-07-07T08:42:42Z</time>
      </trkpt>
      <trkpt lat="47.917386023327708" lon="-3.338083969429135">
        <ele>76.079999999999998</ele>
        <time>2018-07-07T08:42:43Z</time>
      </trkpt>
      <trkpt lat="47.917386023327708" lon="-3.337891018018127">
        <ele>76.079999999999998</ele>
        <time>2018-07-07T08:42:44Z</time>
      </trkpt>
      <trkpt lat="47.917366996407509" lon="-3.337823962792754">
        <ele>76.560000000000002</ele>
        <time>2018-07-07T08:42:45Z</time>
      </trkpt>
      <trkpt lat="47.917334977537394" lon="-3.337706029415131">
        <ele>76.560000000000002</ele>
        <time>2018-07-07T08:42:46Z</time>
      </trkpt>
      <trkpt lat="47.916978998109698" lon="-3.336322009563446">
        <ele>78</ele>
        <time>2018-07-07T08:42:56Z</time>
      </trkpt>
      <trkpt lat="47.916669035330415" lon="-3.335018958896399">
        <ele>77.040000000000006</ele>
        <time>2018-07-07T08:43:07Z</time>
      </trkpt>
      <trkpt lat="47.916655959561467" lon="-3.334931032732129">
        <ele>77.040000000000006</ele>
        <time>2018-07-07T08:43:08Z</time>
      </trkpt>
      <trkpt lat="47.916727960109711" lon="-3.334555020555854">
        <ele>77.519999999999996</ele>
        <time>2018-07-07T08:43:16Z</time>
      </trkpt>
      <trkpt lat="47.916718991473317" lon="-3.334428034722805">
        <ele>77.519999999999996</ele>
        <time>2018-07-07T08:43:17Z</time>
      </trkpt>
      <trkpt lat="47.916688984259963" lon="-3.334358967840672">
        <ele>77.519999999999996</ele>
        <time>2018-07-07T08:43:18Z</time>
      </trkpt>
      <trkpt lat="47.916582031175494" lon="-3.334115976467729">
        <ele>77.040000000000006</ele>
        <time>2018-07-07T08:43:21Z</time>
      </trkpt>
      <trkpt lat="47.916544983163476" lon="-3.334030983969569">
        <ele>77.040000000000006</ele>
        <time>2018-07-07T08:43:22Z</time>
      </trkpt>
      <trkpt lat="47.916505001485348" lon="-3.333940040320158">
        <ele>76.560000000000002</ele>
        <time>2018-07-07T08:43:23Z</time>
      </trkpt>
      <trkpt lat="47.9161879979074" lon="-3.333213999867439">
        <ele>76.560000000000002</ele>
        <time>2018-07-07T08:43:31Z</time>
      </trkpt>
      <trkpt lat="47.916157990694046" lon="-3.333146022632718">
        <ele>77.040000000000006</ele>
        <time>2018-07-07T08:43:32Z</time>
      </trkpt>
      <trkpt lat="47.916174000129104" lon="-3.333059018477798">
        <ele>77.040000000000006</ele>
        <time>2018-07-07T08:43:33Z</time>
      </trkpt>
      <trkpt lat="47.916218005120754" lon="-3.332997998222709">
        <ele>77.040000000000006</ele>
        <time>2018-07-07T08:43:34Z</time>
      </trkpt>
      <trkpt lat="47.916265027597547" lon="-3.332932032644749">
        <ele>77.040000000000006</ele>
        <time>2018-07-07T08:43:35Z</time>
      </trkpt>
      <trkpt lat="47.916312972083688" lon="-3.332863971590996">
        <ele>77.519999999999996</ele>
        <time>2018-07-07T08:43:36Z</time>
      </trkpt>
      <trkpt lat="47.916357982903719" lon="-3.332800017669797">
        <ele>77.519999999999996</ele>
        <time>2018-07-07T08:43:37Z</time>
      </trkpt>
      <trkpt lat="47.916948990896344" lon="-3.33196802996099">
        <ele>77.040000000000006</ele>
        <time>2018-07-07T08:43:47Z</time>
      </trkpt>
      <trkpt lat="47.917155018076301" lon="-3.331670975312591">
        <ele>78.480000000000004</ele>
        <time>2018-07-07T08:43:50Z</time>
      </trkpt>
      <trkpt lat="47.917226012796164" lon="-3.331569973379374">
        <ele>78.480000000000004</ele>
        <time>2018-07-07T08:43:51Z</time>
      </trkpt>
      <trkpt lat="47.918208036571741" lon="-3.330175979062915">
        <ele>83.290000000000006</ele>
        <time>2018-07-07T08:44:04Z</time>
      </trkpt>
      <trkpt lat="47.918973974883556" lon="-3.329093037173152">
        <ele>86.659999999999997</ele>
        <time>2018-07-07T08:44:15Z</time>
      </trkpt>
      <trkpt lat="47.919026026502252" lon="-3.329030005261302">
        <ele>86.659999999999997</ele>
        <time>2018-07-07T08:44:16Z</time>
      </trkpt>
      <trkpt lat="47.919187964871526" lon="-3.328792965039611">
        <ele>87.140000000000001</ele>
        <time>2018-07-07T08:44:18Z</time>
      </trkpt>
      <trkpt lat="47.91919601149857" lon="-3.328781984746456">
        <ele>87.140000000000001</ele>
        <time>2018-07-07T08:44:19Z</time>
      </trkpt>
      <trkpt lat="47.919259965419769" lon="-3.328692968934774">
        <ele>87.140000000000001</ele>
        <time>2018-07-07T08:44:20Z</time>
      </trkpt>
      <trkpt lat="47.919332971796393" lon="-3.328590039163828">
        <ele>87.140000000000001</ele>
        <time>2018-07-07T08:44:21Z</time>
      </trkpt>
      <trkpt lat="47.919407989829779" lon="-3.328485013917089">
        <ele>87.140000000000001</ele>
        <time>2018-07-07T08:44:22Z</time>
      </trkpt>
      <trkpt lat="47.920240983366966" lon="-3.327292017638683">
        <ele>86.659999999999997</ele>
        <time>2018-07-07T08:44:33Z</time>
      </trkpt>
      <trkpt lat="47.920842971652746" lon="-3.32644703797996">
        <ele>87.140000000000001</ele>
        <time>2018-07-07T08:44:43Z</time>
      </trkpt>
      <trkpt lat="47.921611005440354" lon="-3.325307015329599">
        <ele>89.060000000000002</ele>
        <time>2018-07-07T08:44:57Z</time>
      </trkpt>
      <trkpt lat="47.922385996207595" lon="-3.32421300932765">
        <ele>90.5</ele>
        <time>2018-07-07T08:45:06Z</time>
      </trkpt>
      <trkpt lat="47.923225024715066" lon="-3.322841981425881">
        <ele>93.390000000000001</ele>
        <time>2018-07-07T08:45:13Z</time>
      </trkpt>
      <trkpt lat="47.923369025811553" lon="-3.322690017521381">
        <ele>93.870000000000005</ele>
        <time>2018-07-07T08:45:14Z</time>
      </trkpt>
      <trkpt lat="47.923533981665969" lon="-3.322584992274642">
        <ele>94.829999999999998</ele>
        <time>2018-07-07T08:45:15Z</time>
      </trkpt>
      <trkpt lat="47.924830997362733" lon="-3.322119964286685">
        <ele>98.670000000000002</ele>
        <time>2018-07-07T08:45:23Z</time>
      </trkpt>
      <trkpt lat="47.926152991130948" lon="-3.321636999025941">
        <ele>103.95999999999999</ele>
        <time>2018-07-07T08:45:32Z</time>
      </trkpt>
      <trkpt lat="47.926411991938949" lon="-3.321430971845985">
        <ele>104.92</ele>
        <time>2018-07-07T08:45:34Z</time>
      </trkpt>
      <trkpt lat="47.926529003307223" lon="-3.321295017376542">
        <ele>105.40000000000001</ele>
        <time>2018-07-07T08:45:35Z</time>
      </trkpt>
      <trkpt lat="47.926640985533595" lon="-3.321149004623294">
        <ele>105.88</ele>
        <time>2018-07-07T08:45:36Z</time>
      </trkpt>
      <trkpt lat="47.926743999123573" lon="-3.320978013798595">
        <ele>106.36</ele>
        <time>2018-07-07T08:45:37Z</time>
      </trkpt>
      <trkpt lat="47.926848018541932" lon="-3.320805011317134">
        <ele>106.84</ele>
        <time>2018-07-07T08:45:38Z</time>
      </trkpt>
      <trkpt lat="47.92695002630353" lon="-3.320605019107461">
        <ele>107.31999999999999</ele>
        <time>2018-07-07T08:45:39Z</time>
      </trkpt>
      <trkpt lat="47.927293013781309" lon="-3.319416968151927">
        <ele>110.20999999999999</ele>
        <time>2018-07-07T08:45:44Z</time>
      </trkpt>
      <trkpt lat="47.927505997940898" lon="-3.317309003323317">
        <ele>112.61</ele>
        <time>2018-07-07T08:45:52Z</time>
      </trkpt>
      <trkpt lat="47.927441038191319" lon="-3.316205022856593">
        <ele>113.56999999999999</ele>
        <time>2018-07-07T08:45:56Z</time>
      </trkpt>
      <trkpt lat="47.927567018195987" lon="-3.314077025279403">
        <ele>115.5</ele>
        <time>2018-07-07T08:46:03Z</time>
      </trkpt>
      <trkpt lat="47.927542040124536" lon="-3.311649961397052">
        <ele>118.38</ele>
        <time>2018-07-07T08:46:11Z</time>
      </trkpt>
      <trkpt lat="47.927626026794314" lon="-3.309070011600852">
        <ele>123.67</ele>
        <time>2018-07-07T08:46:19Z</time>
      </trkpt>
      <trkpt lat="47.927846973761916" lon="-3.307250970974565">
        <ele>125.11</ele>
        <time>2018-07-07T08:46:25Z</time>
      </trkpt>
      <trkpt lat="47.9278530087322" lon="-3.306976966559887">
        <ele>125.11</ele>
        <time>2018-07-07T08:46:26Z</time>
      </trkpt>
      <trkpt lat="47.927818978205323" lon="-3.306700028479099">
        <ele>125.11</ele>
        <time>2018-07-07T08:46:27Z</time>
      </trkpt>
      <trkpt lat="47.927784025669098" lon="-3.306413032114506">
        <ele>126.06999999999999</ele>
        <time>2018-07-07T08:46:28Z</time>
      </trkpt>
      <trkpt lat="47.927727028727531" lon="-3.306125029921532">
        <ele>126.55</ele>
        <time>2018-07-07T08:46:29Z</time>
      </trkpt>
      <trkpt lat="47.927138032391667" lon="-3.303753035143018">
        <ele>129.43000000000001</ele>
        <time>2018-07-07T08:46:37Z</time>
      </trkpt>
      <trkpt lat="47.927026972174644" lon="-3.303166972473264">
        <ele>130.40000000000001</ele>
        <time>2018-07-07T08:46:39Z</time>
      </trkpt>
      <trkpt lat="47.927005011588335" lon="-3.302862960845232">
        <ele>130.88</ele>
        <time>2018-07-07T08:46:40Z</time>
      </trkpt>
      <trkpt lat="47.926987996324897" lon="-3.302559033036232">
        <ele>131.84</ele>
        <time>2018-07-07T08:46:41Z</time>
      </trkpt>
      <trkpt lat="47.92705899104476" lon="-3.301008967682719">
        <ele>136.16</ele>
        <time>2018-07-07T08:46:46Z</time>
      </trkpt>
      <trkpt lat="47.927117999643087" lon="-3.300728006288409">
        <ele>137.61000000000001</ele>
        <time>2018-07-07T08:46:47Z</time>
      </trkpt>
      <trkpt lat="47.927221013233066" lon="-3.300464982166886">
        <ele>138.56999999999999</ele>
        <time>2018-07-07T08:46:48Z</time>
      </trkpt>
      <trkpt lat="47.927327966317534" lon="-3.300216039642692">
        <ele>140.00999999999999</ele>
        <time>2018-07-07T08:46:49Z</time>
      </trkpt>
      <trkpt lat="47.927442966029048" lon="-3.299986040219665">
        <ele>140.97</ele>
        <time>2018-07-07T08:46:50Z</time>
      </trkpt>
      <trkpt lat="47.928423983976245" lon="-3.298335978761315">
        <ele>150.58000000000001</ele>
        <time>2018-07-07T08:46:57Z</time>
      </trkpt>
      <trkpt lat="47.929589990526438" lon="-3.296315018087626">
        <ele>160.68000000000001</ele>
        <time>2018-07-07T08:47:05Z</time>
      </trkpt>
      <trkpt lat="47.93060596100986" lon="-3.294527996331453">
        <ele>158.27000000000001</ele>
        <time>2018-07-07T08:47:13Z</time>
      </trkpt>
      <trkpt lat="47.9309699870646" lon="-3.293821988627315">
        <ele>157.31</ele>
        <time>2018-07-07T08:47:16Z</time>
      </trkpt>
      <trkpt lat="47.931088004261255" lon="-3.293577991425991">
        <ele>156.83000000000001</ele>
        <time>2018-07-07T08:47:17Z</time>
      </trkpt>
      <trkpt lat="47.932084025815129" lon="-3.29095495864749">
        <ele>153.94999999999999</ele>
        <time>2018-07-07T08:47:27Z</time>
      </trkpt>
      <trkpt lat="47.932443022727966" lon="-3.288615988567472">
        <ele>157.31</ele>
        <time>2018-07-07T08:47:35Z</time>
      </trkpt>
      <trkpt lat="47.93283898383379" lon="-3.285653991624713">
        <ele>156.34999999999999</ele>
        <time>2018-07-07T08:47:45Z</time>
      </trkpt>
      <trkpt lat="47.933652028441429" lon="-3.283595982939005">
        <ele>155.38999999999999</ele>
        <time>2018-07-07T08:47:53Z</time>
      </trkpt>
      <trkpt lat="47.934689959511161" lon="-3.282199976965785">
        <ele>154.43000000000001</ele>
        <time>2018-07-07T08:48:00Z</time>
      </trkpt>
      <trkpt lat="47.936170035973191" lon="-3.280156971886754">
        <ele>155.38999999999999</ele>
        <time>2018-07-07T08:48:10Z</time>
      </trkpt>
      <trkpt lat="47.936302972957492" lon="-3.27993200160563">
        <ele>155.87</ele>
        <time>2018-07-07T08:48:11Z</time>
      </trkpt>
      <trkpt lat="47.937524970620871" lon="-3.27793300151825">
        <ele>157.78999999999999</ele>
        <time>2018-07-07T08:48:20Z</time>
      </trkpt>
      <trkpt lat="47.93866298161447" lon="-3.276025028899312">
        <ele>158.75</ele>
        <time>2018-07-07T08:48:29Z</time>
      </trkpt>
      <trkpt lat="47.939381981268525" lon="-3.274802025407553">
        <ele>157.78999999999999</ele>
        <time>2018-07-07T08:48:35Z</time>
      </trkpt>
      <trkpt lat="47.939505027607083" lon="-3.27460203319788">
        <ele>157.78999999999999</ele>
        <time>2018-07-07T08:48:36Z</time>
      </trkpt>
      <trkpt lat="47.940804976969957" lon="-3.272429024800658">
        <ele>161.63999999999999</ele>
        <time>2018-07-07T08:48:47Z</time>
      </trkpt>
      <trkpt lat="47.941476032137871" lon="-3.270898992195725">
        <ele>164.52000000000001</ele>
        <time>2018-07-07T08:48:54Z</time>
      </trkpt>
      <trkpt lat="47.941559012979269" lon="-3.270683996379376">
        <ele>164.52000000000001</ele>
        <time>2018-07-07T08:48:55Z</time>
      </trkpt>
      <trkpt lat="47.941961009055376" lon="-3.269680012017489">
        <ele>164.52000000000001</ele>
        <time>2018-07-07T08:49:01Z</time>
      </trkpt>
      <trkpt lat="47.942616976797581" lon="-3.26826598495245">
        <ele>161.16</ele>
        <time>2018-07-07T08:49:13Z</time>
      </trkpt>
      <trkpt lat="47.943018972873688" lon="-3.26738404110074">
        <ele>159.24000000000001</ele>
        <time>2018-07-07T08:49:19Z</time>
      </trkpt>
      <trkpt lat="47.943078987300396" lon="-3.267240040004253">
        <ele>158.75</ele>
        <time>2018-07-07T08:49:20Z</time>
      </trkpt>
      <trkpt lat="47.943867975845933" lon="-3.265485959127545">
        <ele>154.43000000000001</ele>
        <time>2018-07-07T08:49:32Z</time>
      </trkpt>
      <trkpt lat="47.944670040160418" lon="-3.263742020353675">
        <ele>150.58000000000001</ele>
        <time>2018-07-07T08:49:44Z</time>
      </trkpt>
      <trkpt lat="47.945463974028826" lon="-3.26229203492403">
        <ele>147.22</ele>
        <time>2018-07-07T08:49:53Z</time>
      </trkpt>
      <trkpt lat="47.946669962257147" lon="-3.260466037318111">
        <ele>142.88999999999999</ele>
        <time>2018-07-07T08:50:02Z</time>
      </trkpt>
      <trkpt lat="47.94740698300302" lon="-3.258367041125894">
        <ele>139.05000000000001</ele>
        <time>2018-07-07T08:50:10Z</time>
      </trkpt>
      <trkpt lat="47.948452038690448" lon="-3.255494982004166">
        <ele>141.93000000000001</ele>
        <time>2018-07-07T08:50:21Z</time>
      </trkpt>
      <trkpt lat="47.949176989495754" lon="-3.253790019080043">
        <ele>150.09999999999999</ele>
        <time>2018-07-07T08:50:29Z</time>
      </trkpt>
      <trkpt lat="47.950013000518084" lon="-3.251679036766291">
        <ele>157.31</ele>
        <time>2018-07-07T08:50:41Z</time>
      </trkpt>
      <trkpt lat="47.95047702267766" lon="-3.249737033620477">
        <ele>162.59999999999999</ele>
        <time>2018-07-07T08:50:53Z</time>
      </trkpt>
      <trkpt lat="47.950739040970802" lon="-3.248259974643588">
        <ele>164.03999999999999</ele>
        <time>2018-07-07T08:51:04Z</time>
      </trkpt>
      <trkpt lat="47.950817998498678" lon="-3.246526010334492">
        <ele>159.72</ele>
        <time>2018-07-07T08:51:13Z</time>
      </trkpt>
      <trkpt lat="47.950897039845586" lon="-3.244493985548616">
        <ele>153.94999999999999</ele>
        <time>2018-07-07T08:51:22Z</time>
      </trkpt>
      <trkpt lat="47.950989995151758" lon="-3.241836000233889">
        <ele>142.41</ele>
        <time>2018-07-07T08:51:31Z</time>
      </trkpt>
      <trkpt lat="47.950974991545081" lon="-3.239540029317141">
        <ele>138.56999999999999</ele>
        <time>2018-07-07T08:51:39Z</time>
      </trkpt>
      <trkpt lat="47.95097297988832" lon="-3.239248003810644">
        <ele>138.56999999999999</ele>
        <time>2018-07-07T08:51:40Z</time>
      </trkpt>
      <trkpt lat="47.951012039557099" lon="-3.238969976082444">
        <ele>138.56999999999999</ele>
        <time>2018-07-07T08:51:41Z</time>
      </trkpt>
      <trkpt lat="47.951250001788139" lon="-3.236695965752006">
        <ele>138.56999999999999</ele>
        <time>2018-07-07T08:51:49Z</time>
      </trkpt>
      <trkpt lat="47.951094014570117" lon="-3.234102018177509">
        <ele>144.34</ele>
        <time>2018-07-07T08:51:58Z</time>
      </trkpt>
      <trkpt lat="47.951070964336395" lon="-3.231808980926871">
        <ele>143.37</ele>
        <time>2018-07-07T08:52:07Z</time>
      </trkpt>
      <trkpt lat="47.951114969328046" lon="-3.229559026658535">
        <ele>145.30000000000001</ele>
        <time>2018-07-07T08:52:18Z</time>
      </trkpt>
      <trkpt lat="47.951142964884639" lon="-3.227918017655611">
        <ele>146.74000000000001</ele>
        <time>2018-07-07T08:52:26Z</time>
      </trkpt>
      <trkpt lat="47.951159980148077" lon="-3.225334966555238">
        <ele>146.74000000000001</ele>
        <time>2018-07-07T08:52:39Z</time>
      </trkpt>
      <trkpt lat="47.951139025390148" lon="-3.224963983520865">
        <ele>146.25999999999999</ele>
        <time>2018-07-07T08:52:41Z</time>
      </trkpt>
      <trkpt lat="47.951064007356763" lon="-3.22458696551621">
        <ele>145.30000000000001</ele>
        <time>2018-07-07T08:52:43Z</time>
      </trkpt>
      <trkpt lat="47.950677014887333" lon="-3.222685027867556">
        <ele>143.37</ele>
        <time>2018-07-07T08:52:52Z</time>
      </trkpt>
      <trkpt lat="47.950395969673991" lon="-3.220200967043638">
        <ele>139.53</ele>
        <time>2018-07-07T08:53:02Z</time>
      </trkpt>
      <trkpt lat="47.950173011049628" lon="-3.217170992866159">
        <ele>138.09</ele>
        <time>2018-07-07T08:53:14Z</time>
      </trkpt>
      <trkpt lat="47.950331009924412" lon="-3.21491802111268">
        <ele>138.56999999999999</ele>
        <time>2018-07-07T08:53:22Z</time>
      </trkpt>
      <trkpt lat="47.950453972443938" lon="-3.212456004694104">
        <ele>137.61000000000001</ele>
        <time>2018-07-07T08:53:31Z</time>
      </trkpt>
      <trkpt lat="47.950531002134085" lon="-3.211379013955593">
        <ele>135.19999999999999</ele>
        <time>2018-07-07T08:53:35Z</time>
      </trkpt>
      <trkpt lat="47.950595961883664" lon="-3.211111966520548">
        <ele>134.24000000000001</ele>
        <time>2018-07-07T08:53:36Z</time>
      </trkpt>
      <trkpt lat="47.951171966269612" lon="-3.208741983398795">
        <ele>126.06999999999999</ele>
        <time>2018-07-07T08:53:44Z</time>
      </trkpt>
      <trkpt lat="47.951948968693614" lon="-3.206049967557192">
        <ele>125.11</ele>
        <time>2018-07-07T08:53:53Z</time>
      </trkpt>
      <trkpt lat="47.953344974666834" lon="-3.202098989859223">
        <ele>130.40000000000001</ele>
        <time>2018-07-07T08:54:07Z</time>
      </trkpt>
      <trkpt lat="47.953848978504539" lon="-3.199870996177197">
        <ele>134.72</ele>
        <time>2018-07-07T08:54:15Z</time>
      </trkpt>
      <trkpt lat="47.953951992094517" lon="-3.199309995397925">
        <ele>136.16</ele>
        <time>2018-07-07T08:54:17Z</time>
      </trkpt>
      <trkpt lat="47.953969007357955" lon="-3.199006989598274">
        <ele>136.63999999999999</ele>
        <time>2018-07-07T08:54:18Z</time>
      </trkpt>
      <trkpt lat="47.953949980437756" lon="-3.195831002667546">
        <ele>142.41</ele>
        <time>2018-07-07T08:54:28Z</time>
      </trkpt>
      <trkpt lat="47.953949980437756" lon="-3.193811969831586">
        <ele>144.81999999999999</ele>
        <time>2018-07-07T08:54:35Z</time>
      </trkpt>
      <trkpt lat="47.953995997086167" lon="-3.192770015448332">
        <ele>144.81999999999999</ele>
        <time>2018-07-07T08:54:39Z</time>
      </trkpt>
      <trkpt lat="47.954028015956283" lon="-3.192503973841667">
        <ele>144.34</ele>
        <time>2018-07-07T08:54:40Z</time>
      </trkpt>
      <trkpt lat="47.954359017312527" lon="-3.190783001482487">
        <ele>144.81999999999999</ele>
        <time>2018-07-07T08:54:48Z</time>
      </trkpt>
      <trkpt lat="47.954408973455429" lon="-3.190607987344265">
        <ele>144.81999999999999</ele>
        <time>2018-07-07T08:54:49Z</time>
      </trkpt>
      <trkpt lat="47.954455995932221" lon="-3.19044403731823">
        <ele>145.30000000000001</ele>
        <time>2018-07-07T08:54:50Z</time>
      </trkpt>
      <trkpt lat="47.954523973166943" lon="-3.190292995423079">
        <ele>144.81999999999999</ele>
        <time>2018-07-07T08:54:51Z</time>
      </trkpt>
      <trkpt lat="47.95460200868547" lon="-3.190138014033437">
        <ele>144.81999999999999</ele>
        <time>2018-07-07T08:54:52Z</time>
      </trkpt>
      <trkpt lat="47.954679038375616" lon="-3.189983032643795">
        <ele>145.30000000000001</ele>
        <time>2018-07-07T08:54:53Z</time>
      </trkpt>
      <trkpt lat="47.955681011080742" lon="-3.188901012763381">
        <ele>148.18000000000001</ele>
        <time>2018-07-07T08:55:02Z</time>
      </trkpt>
      <trkpt lat="47.956594973802567" lon="-3.187833996489644">
        <ele>150.58000000000001</ele>
        <time>2018-07-07T08:55:10Z</time>
      </trkpt>
      <trkpt lat="47.956718020141125" lon="-3.187666023150086">
        <ele>150.09999999999999</ele>
        <time>2018-07-07T08:55:11Z</time>
      </trkpt>
      <trkpt lat="47.956860009580851" lon="-3.187344996258616">
        <ele>150.09999999999999</ele>
        <time>2018-07-07T08:55:13Z</time>
      </trkpt>
      <trkpt lat="47.95722302980721" lon="-3.186632031574845">
        <ele>149.13999999999999</ele>
        <time>2018-07-07T08:55:18Z</time>
      </trkpt>
      <trkpt lat="47.957298969849944" lon="-3.186507979407907">
        <ele>148.66</ele>
        <time>2018-07-07T08:55:19Z</time>
      </trkpt>
      <trkpt lat="47.957375999540091" lon="-3.186424998566508">
        <ele>147.69999999999999</ele>
        <time>2018-07-07T08:55:20Z</time>
      </trkpt>
      <trkpt lat="47.957475995644927" lon="-3.186374958604574">
        <ele>147.22</ele>
        <time>2018-07-07T08:55:21Z</time>
      </trkpt>
      <trkpt lat="47.957573980093002" lon="-3.186346963047981">
        <ele>146.25999999999999</ele>
        <time>2018-07-07T08:55:22Z</time>
      </trkpt>
      <trkpt lat="47.957670036703348" lon="-3.186331959441304">
        <ele>145.78</ele>
        <time>2018-07-07T08:55:23Z</time>
      </trkpt>
      <trkpt lat="47.958068009465933" lon="-3.186264988034964">
        <ele>142.88999999999999</ele>
        <time>2018-07-07T08:55:27Z</time>
      </trkpt>
      <trkpt lat="47.958166999742389" lon="-3.186231963336468">
        <ele>141.93000000000001</ele>
        <time>2018-07-07T08:55:28Z</time>
      </trkpt>
      <trkpt lat="47.958261966705322" lon="-3.186183013021946">
        <ele>140.97</ele>
        <time>2018-07-07T08:55:29Z</time>
      </trkpt>
      <trkpt lat="47.958337990567088" lon="-3.186096008867025">
        <ele>140.00999999999999</ele>
        <time>2018-07-07T08:55:30Z</time>
      </trkpt>
      <trkpt lat="47.958409991115332" lon="-3.185999030247331">
        <ele>139.53</ele>
        <time>2018-07-07T08:55:31Z</time>
      </trkpt>
      <trkpt lat="47.958468999713659" lon="-3.185879001393914">
        <ele>138.56999999999999</ele>
        <time>2018-07-07T08:55:32Z</time>
      </trkpt>
      <trkpt lat="47.958523984998465" lon="-3.185750003904104">
        <ele>138.09</ele>
        <time>2018-07-07T08:55:33Z</time>
      </trkpt>
      <trkpt lat="47.958548041060567" lon="-3.185592005029321">
        <ele>137.13</ele>
        <time>2018-07-07T08:55:34Z</time>
      </trkpt>
      <trkpt lat="47.958572013303638" lon="-3.185425959527493">
        <ele>136.63999999999999</ele>
        <time>2018-07-07T08:55:35Z</time>
      </trkpt>
      <trkpt lat="47.958597997203469" lon="-3.185255974531174">
        <ele>136.16</ele>
        <time>2018-07-07T08:55:36Z</time>
      </trkpt>
      <trkpt lat="47.958712996914983" lon="-3.184484001249075">
        <ele>133.28</ele>
        <time>2018-07-07T08:55:40Z</time>
      </trkpt>
      <trkpt lat="47.958831014111638" lon="-3.184073958545923">
        <ele>131.36000000000001</ele>
        <time>2018-07-07T08:55:42Z</time>
      </trkpt>
      <trkpt lat="47.958906032145023" lon="-3.183868015184999">
        <ele>130.40000000000001</ele>
        <time>2018-07-07T08:55:43Z</time>
      </trkpt>
      <trkpt lat="47.959856959059834" lon="-3.181873960420489">
        <ele>119.34</ele>
        <time>2018-07-07T08:55:54Z</time>
      </trkpt>
      <trkpt lat="47.960493983700871" lon="-3.180805016309023">
        <ele>112.61</ele>
        <time>2018-07-07T08:56:01Z</time>
      </trkpt>
      <trkpt lat="47.960843006148934" lon="-3.18028399720788">
        <ele>108.77</ele>
        <time>2018-07-07T08:56:05Z</time>
      </trkpt>
      <trkpt lat="47.960903020575643" lon="-3.180139996111393">
        <ele>107.81</ele>
        <time>2018-07-07T08:56:06Z</time>
      </trkpt>
      <trkpt lat="47.960947025567293" lon="-3.179998006671667">
        <ele>107.31999999999999</ele>
        <time>2018-07-07T08:56:07Z</time>
      </trkpt>
      <trkpt lat="47.961031012237072" lon="-3.17966197617352">
        <ele>105.40000000000001</ele>
        <time>2018-07-07T08:56:09Z</time>
      </trkpt>
      <trkpt lat="47.961036041378975" lon="-3.179504983127117">
        <ele>104.44</ele>
        <time>2018-07-07T08:56:10Z</time>
      </trkpt>
      <trkpt lat="47.961041992530227" lon="-3.179343966767192">
        <ele>103.48</ele>
        <time>2018-07-07T08:56:11Z</time>
      </trkpt>
      <trkpt lat="47.961036963388324" lon="-3.177973022684455">
        <ele>99.629999999999995</ele>
        <time>2018-07-07T08:56:21Z</time>
      </trkpt>
      <trkpt lat="47.961031012237072" lon="-3.177559040486813">
        <ele>98.670000000000002</ele>
        <time>2018-07-07T08:56:24Z</time>
      </trkpt>
      <trkpt lat="47.961046015843749" lon="-3.177420990541577">
        <ele>98.670000000000002</ele>
        <time>2018-07-07T08:56:25Z</time>
      </trkpt>
      <trkpt lat="47.961061019450426" lon="-3.177285036072135">
        <ele>98.670000000000002</ele>
        <time>2018-07-07T08:56:26Z</time>
      </trkpt>
      <trkpt lat="47.961079962551594" lon="-3.177148997783661">
        <ele>98.670000000000002</ele>
        <time>2018-07-07T08:56:27Z</time>
      </trkpt>
      <trkpt lat="47.961116004735231" lon="-3.177021006122232">
        <ele>98.189999999999998</ele>
        <time>2018-07-07T08:56:28Z</time>
      </trkpt>
      <trkpt lat="47.961151041090488" lon="-3.176893014460802">
        <ele>97.230000000000004</ele>
        <time>2018-07-07T08:56:29Z</time>
      </trkpt>
      <trkpt lat="47.961271991953254" lon="-3.176527982577682">
        <ele>96.269999999999996</ele>
        <time>2018-07-07T08:56:32Z</time>
      </trkpt>
      <trkpt lat="47.961588995531201" lon="-3.175766989588738">
        <ele>95.310000000000002</ele>
        <time>2018-07-07T08:56:40Z</time>
      </trkpt>
      <trkpt lat="47.961931983008981" lon="-3.175259968265891">
        <ele>95.310000000000002</ele>
        <time>2018-07-07T08:56:47Z</time>
      </trkpt>
      <trkpt lat="47.961979005485773" lon="-3.175190985202789">
        <ele>95.310000000000002</ele>
        <time>2018-07-07T08:56:48Z</time>
      </trkpt>
      <trkpt lat="47.962113032117486" lon="-3.175002979114652">
        <ele>95.310000000000002</ele>
        <time>2018-07-07T08:56:51Z</time>
      </trkpt>
      <trkpt lat="47.962157037109137" lon="-3.174941036850214">
        <ele>95.790000000000006</ele>
        <time>2018-07-07T08:56:52Z</time>
      </trkpt>
      <trkpt lat="47.962319981306791" lon="-3.174714976921678">
        <ele>96.269999999999996</ele>
        <time>2018-07-07T08:56:56Z</time>
      </trkpt>
      <trkpt lat="47.96235996298492" lon="-3.174658985808492">
        <ele>96.75</ele>
        <time>2018-07-07T08:56:57Z</time>
      </trkpt>
      <trkpt lat="47.96240002848208" lon="-3.174604000523686">
        <ele>96.75</ele>
        <time>2018-07-07T08:56:58Z</time>
      </trkpt>
      <trkpt lat="47.962483009323478" lon="-3.174475003033876">
        <ele>97.709999999999994</ele>
        <time>2018-07-07T08:57:00Z</time>
      </trkpt>
      <trkpt lat="47.962523996829987" lon="-3.174411971122026">
        <ele>98.189999999999998</ele>
        <time>2018-07-07T08:57:01Z</time>
      </trkpt>
      <trkpt lat="47.962565990164876" lon="-3.174346005544066">
        <ele>98.670000000000002</ele>
        <time>2018-07-07T08:57:02Z</time>
      </trkpt>
      <trkpt lat="47.962679984048009" lon="-3.174152970314026">
        <ele>99.150000000000006</ele>
        <time>2018-07-07T08:57:05Z</time>
      </trkpt>
      <trkpt lat="47.96270202845335" lon="-3.174094967544079">
        <ele>99.629999999999995</ele>
        <time>2018-07-07T08:57:06Z</time>
      </trkpt>
      <trkpt lat="47.962726000696421" lon="-3.174030007794499">
        <ele>100.11</ele>
        <time>2018-07-07T08:57:07Z</time>
      </trkpt>
      <trkpt lat="47.96274796128273" lon="-3.17396798171103">
        <ele>100.11</ele>
        <time>2018-07-07T08:57:08Z</time>
      </trkpt>
      <trkpt lat="47.962771011516452" lon="-3.173900004476309">
        <ele>100.59999999999999</ele>
        <time>2018-07-07T08:57:09Z</time>
      </trkpt>
      <trkpt lat="47.96278802677989" lon="-3.173828003928065">
        <ele>100.59999999999999</ele>
        <time>2018-07-07T08:57:10Z</time>
      </trkpt>
      <trkpt lat="47.962823985144496" lon="-3.173674028366804">
        <ele>101.08</ele>
        <time>2018-07-07T08:57:12Z</time>
      </trkpt>
      <trkpt lat="47.962983995676041" lon="-3.173027029260993">
        <ele>101.08</ele>
        <time>2018-07-07T08:57:20Z</time>
      </trkpt>
      <trkpt lat="47.9630689881742" lon="-3.172710025683045">
        <ele>101.56</ele>
        <time>2018-07-07T08:57:24Z</time>
      </trkpt>
      <trkpt lat="47.963133025914431" lon="-3.172607012093067">
        <ele>101.08</ele>
        <time>2018-07-07T08:57:26Z</time>
      </trkpt>
      <trkpt lat="47.963167978450656" lon="-3.172551020979881">
        <ele>101.08</ele>
        <time>2018-07-07T08:57:27Z</time>
      </trkpt>
      <trkpt lat="47.963176025077701" lon="-3.172538029029965">
        <ele>101.08</ele>
        <time>2018-07-07T08:57:28Z</time>
      </trkpt>
      <trkpt lat="47.963262023404241" lon="-3.172387992963195">
        <ele>101.08</ele>
        <time>2018-07-07T08:57:29Z</time>
      </trkpt>
      <trkpt lat="47.963278032839298" lon="-3.172372989356518">
        <ele>101.08</ele>
        <time>2018-07-07T08:57:30Z</time>
      </trkpt>
      <trkpt lat="47.963331006467342" lon="-3.172318004071713">
        <ele>101.08</ele>
        <time>2018-07-07T08:57:31Z</time>
      </trkpt>
      <trkpt lat="47.963384985923767" lon="-3.172262012958527">
        <ele>101.56</ele>
        <time>2018-07-07T08:57:32Z</time>
      </trkpt>
      <trkpt lat="47.963431002572179" lon="-3.172212978824973">
        <ele>102.04000000000001</ele>
        <time>2018-07-07T08:57:33Z</time>
      </trkpt>
      <trkpt lat="47.963472995907068" lon="-3.172168973833323">
        <ele>102.04000000000001</ele>
        <time>2018-07-07T08:57:34Z</time>
      </trkpt>
      <trkpt lat="47.963593024760485" lon="-3.172042993828654">
        <ele>103</ele>
        <time>2018-07-07T08:57:37Z</time>
      </trkpt>
      <trkpt lat="47.963629988953471" lon="-3.172004017978907">
        <ele>103.48</ele>
        <time>2018-07-07T08:57:38Z</time>
      </trkpt>
      <trkpt lat="47.963665025308728" lon="-3.171967975795269">
        <ele>103.48</ele>
        <time>2018-07-07T08:57:39Z</time>
      </trkpt>
      <trkpt lat="47.963697966188192" lon="-3.171934029087424">
        <ele>103.95999999999999</ele>
        <time>2018-07-07T08:57:40Z</time>
      </trkpt>
      <trkpt lat="47.963755968958139" lon="-3.171873008832336">
        <ele>103.95999999999999</ele>
        <time>2018-07-07T08:57:41Z</time>
      </trkpt>
      <trkpt lat="47.963755968958139" lon="-3.171870997175574">
        <ele>103.95999999999999</ele>
        <time>2018-07-07T08:57:42Z</time>
      </trkpt>
      <trkpt lat="47.963769966736436" lon="-3.171833027154207">
        <ele>103.95999999999999</ele>
        <time>2018-07-07T08:57:43Z</time>
      </trkpt>
      <trkpt lat="47.963783964514732" lon="-3.171794973313808">
        <ele>104.44</ele>
        <time>2018-07-07T08:57:44Z</time>
      </trkpt>
      <trkpt lat="47.96379997394979" lon="-3.171752979978919">
        <ele>104.44</ele>
        <time>2018-07-07T08:57:45Z</time>
      </trkpt>
      <trkpt lat="47.963817995041609" lon="-3.171701012179256">
        <ele>104.92</ele>
        <time>2018-07-07T08:57:46Z</time>
      </trkpt>
      <trkpt lat="47.963841967284679" lon="-3.171402029693127">
        <ele>104.92</ele>
        <time>2018-07-07T08:57:49Z</time>
      </trkpt>
      <trkpt lat="47.963952021673322" lon="-3.170068971812725">
        <ele>102.52</ele>
        <time>2018-07-07T08:57:59Z</time>
      </trkpt>
      <trkpt lat="47.963984040543437" lon="-3.169934023171663">
        <ele>102.04000000000001</ele>
        <time>2018-07-07T08:58:00Z</time>
      </trkpt>
      <trkpt lat="47.964025028049946" lon="-3.169806031510234">
        <ele>102.04000000000001</ele>
        <time>2018-07-07T08:58:01Z</time>
      </trkpt>
      <trkpt lat="47.964168023318052" lon="-3.16941199824214">
        <ele>101.56</ele>
        <time>2018-07-07T08:58:04Z</time>
      </trkpt>
      <trkpt lat="47.964427024126053" lon="-3.168696016073227">
        <ele>99.629999999999995</ele>
        <time>2018-07-07T08:58:09Z</time>
      </trkpt>
      <trkpt lat="47.964479997754097" lon="-3.168547991663218">
        <ele>99.629999999999995</ele>
        <time>2018-07-07T08:58:10Z</time>
      </trkpt>
      <trkpt lat="47.965329000726342" lon="-3.166684024035931">
        <ele>106.36</ele>
        <time>2018-07-07T08:58:23Z</time>
      </trkpt>
      <trkpt lat="47.965848008170724" lon="-3.165583983063698">
        <ele>111.65000000000001</ele>
        <time>2018-07-07T08:58:29Z</time>
      </trkpt>
      <trkpt lat="47.96592797152698" lon="-3.165389019995928">
        <ele>112.61</ele>
        <time>2018-07-07T08:58:30Z</time>
      </trkpt>
      <trkpt lat="47.966572036966681" lon="-3.162671020254493">
        <ele>115.98</ele>
        <time>2018-07-07T08:58:42Z</time>
      </trkpt>
      <trkpt lat="47.967192968353629" lon="-3.161001009866595">
        <ele>118.38</ele>
        <time>2018-07-07T08:58:50Z</time>
      </trkpt>
      <trkpt lat="47.967341998592019" lon="-3.160630026832223">
        <ele>118.86</ele>
        <time>2018-07-07T08:58:52Z</time>
      </trkpt>
      <trkpt lat="47.967368988320231" lon="-3.160429028794169">
        <ele>119.34</ele>
        <time>2018-07-07T08:58:53Z</time>
      </trkpt>
      <trkpt lat="47.967397989705205" lon="-3.160220989957452">
        <ele>119.81999999999999</ele>
        <time>2018-07-07T08:58:54Z</time>
      </trkpt>
      <trkpt lat="47.967389021068811" lon="-3.159993002191186">
        <ele>120.3</ele>
        <time>2018-07-07T08:58:55Z</time>
      </trkpt>
      <trkpt lat="47.967369994148612" lon="-3.159759985283017">
        <ele>120.78</ele>
        <time>2018-07-07T08:58:56Z</time>
      </trkpt>
      <trkpt lat="47.967350967228413" lon="-3.159514982253313">
        <ele>121.73999999999999</ele>
        <time>2018-07-07T08:58:57Z</time>
      </trkpt>
      <trkpt lat="47.967330012470484" lon="-3.159255981445313">
        <ele>122.70999999999999</ele>
        <time>2018-07-07T08:58:58Z</time>
      </trkpt>
      <trkpt lat="47.967261029407382" lon="-3.157413974404335">
        <ele>127.03</ele>
        <time>2018-07-07T08:59:05Z</time>
      </trkpt>
      <trkpt lat="47.967275027185678" lon="-3.157197972759605">
        <ele>127.51000000000001</ele>
        <time>2018-07-07T08:59:06Z</time>
      </trkpt>
      <trkpt lat="47.967329006642103" lon="-3.156994041055441">
        <ele>127.98999999999999</ele>
        <time>2018-07-07T08:59:07Z</time>
      </trkpt>
      <trkpt lat="47.967381980270147" lon="-3.156798994168639">
        <ele>127.98999999999999</ele>
        <time>2018-07-07T08:59:08Z</time>
      </trkpt>
      <trkpt lat="47.967439983040094" lon="-3.15660797059536">
        <ele>128.47</ele>
        <time>2018-07-07T08:59:09Z</time>
      </trkpt>
      <trkpt lat="47.967523969709873" lon="-3.156438991427422">
        <ele>128.47</ele>
        <time>2018-07-07T08:59:10Z</time>
      </trkpt>
      <trkpt lat="47.967609968036413" lon="-3.156269006431103">
        <ele>128.47</ele>
        <time>2018-07-07T08:59:11Z</time>
      </trkpt>
      <trkpt lat="47.968329973518848" lon="-3.154874006286264">
        <ele>134.72</ele>
        <time>2018-07-07T08:59:19Z</time>
      </trkpt>
      <trkpt lat="47.969236979261041" lon="-3.153171977028251">
        <ele>138.09</ele>
        <time>2018-07-07T08:59:27Z</time>
      </trkpt>
      <trkpt lat="47.969548031687737" lon="-3.152508968487382">
        <ele>139.53</ele>
        <time>2018-07-07T08:59:30Z</time>
      </trkpt>
      <trkpt lat="47.969726985320449" lon="-3.152055004611611">
        <ele>140.00999999999999</ele>
        <time>2018-07-07T08:59:32Z</time>
      </trkpt>
      <trkpt lat="47.969770990312099" lon="-3.151811007410288">
        <ele>140.00999999999999</ele>
        <time>2018-07-07T08:59:33Z</time>
      </trkpt>
      <trkpt lat="47.969816001132131" lon="-3.1515599694103">
        <ele>140.00999999999999</ele>
        <time>2018-07-07T08:59:34Z</time>
      </trkpt>
      <trkpt lat="47.969863023608923" lon="-3.15129904076457">
        <ele>140.00999999999999</ele>
        <time>2018-07-07T08:59:35Z</time>
      </trkpt>
      <trkpt lat="47.969903005287051" lon="-3.151025958359242">
        <ele>140.00999999999999</ele>
        <time>2018-07-07T08:59:36Z</time>
      </trkpt>
      <trkpt lat="47.970100985839963" lon="-3.149909991770983">
        <ele>139.53</ele>
        <time>2018-07-07T08:59:40Z</time>
      </trkpt>
      <trkpt lat="47.970168041065335" lon="-3.149663982912898">
        <ele>139.53</ele>
        <time>2018-07-07T08:59:41Z</time>
      </trkpt>
      <trkpt lat="47.970250016078353" lon="-3.149425014853478">
        <ele>139.53</ele>
        <time>2018-07-07T08:59:42Z</time>
      </trkpt>
      <trkpt lat="47.970365015789866" lon="-3.149207001551986">
        <ele>140.00999999999999</ele>
        <time>2018-07-07T08:59:43Z</time>
      </trkpt>
      <trkpt lat="47.970482027158141" lon="-3.148983959108591">
        <ele>140.97</ele>
        <time>2018-07-07T08:59:44Z</time>
      </trkpt>
      <trkpt lat="47.971904017031193" lon="-3.146325973793864">
        <ele>142.88999999999999</ele>
        <time>2018-07-07T08:59:56Z</time>
      </trkpt>
      <trkpt lat="47.972208028659225" lon="-3.145730020478368">
        <ele>141.93000000000001</ele>
        <time>2018-07-07T08:59:59Z</time>
      </trkpt>
      <trkpt lat="47.972266031429172" lon="-3.145513013005257">
        <ele>141.44999999999999</ele>
        <time>2018-07-07T09:00:00Z</time>
      </trkpt>
      <trkpt lat="47.972324034199119" lon="-3.145297011360526">
        <ele>140.97</ele>
        <time>2018-07-07T09:00:01Z</time>
      </trkpt>
      <trkpt lat="47.972353035584092" lon="-3.145062988623977">
        <ele>140.97</ele>
        <time>2018-07-07T09:00:02Z</time>
      </trkpt>
      <trkpt lat="47.97237197868526" lon="-3.144813040271401">
        <ele>140.97</ele>
        <time>2018-07-07T09:00:03Z</time>
      </trkpt>
      <trkpt lat="47.97239301726222" lon="-3.144549010321498">
        <ele>140.97</ele>
        <time>2018-07-07T09:00:04Z</time>
      </trkpt>
      <trkpt lat="47.97256400808692" lon="-3.142454959452152">
        <ele>140.49000000000001</ele>
        <time>2018-07-07T09:00:12Z</time>
      </trkpt>
      <trkpt lat="47.972641037777066" lon="-3.141981968656182">
        <ele>139.53</ele>
        <time>2018-07-07T09:00:14Z</time>
      </trkpt>
      <trkpt lat="47.972702980041504" lon="-3.141750041395426">
        <ele>139.05000000000001</ele>
        <time>2018-07-07T09:00:15Z</time>
      </trkpt>
      <trkpt lat="47.972804987803102" lon="-3.141554994508624">
        <ele>138.56999999999999</ele>
        <time>2018-07-07T09:00:16Z</time>
      </trkpt>
      <trkpt lat="47.97290900722146" lon="-3.141363970935345">
        <ele>137.61000000000001</ele>
        <time>2018-07-07T09:00:17Z</time>
      </trkpt>
      <trkpt lat="47.973029036074877" lon="-3.141192980110645">
        <ele>137.13</ele>
        <time>2018-07-07T09:00:18Z</time>
      </trkpt>
      <trkpt lat="47.97314302995801" lon="-3.14103196375072">
        <ele>137.13</ele>
        <time>2018-07-07T09:00:19Z</time>
      </trkpt>
      <trkpt lat="47.973927995190024" lon="-3.139935024082661">
        <ele>138.56999999999999</ele>
        <time>2018-07-07T09:00:27Z</time>
      </trkpt>
      <trkpt lat="47.974944971501827" lon="-3.138349000364542">
        <ele>140.00999999999999</ele>
        <time>2018-07-07T09:00:38Z</time>
      </trkpt>
      <trkpt lat="47.975138006731868" lon="-3.138014981523156">
        <ele>140.49000000000001</ele>
        <time>2018-07-07T09:00:40Z</time>
      </trkpt>
      <trkpt lat="47.975235991179943" lon="-3.137847008183599">
        <ele>140.49000000000001</ele>
        <time>2018-07-07T09:00:41Z</time>
      </trkpt>
      <trkpt lat="47.975743012502789" lon="-3.136932961642742">
        <ele>140.49000000000001</ele>
        <time>2018-07-07T09:00:46Z</time>
      </trkpt>
      <trkpt lat="47.976350029930472" lon="-3.134906971827149">
        <ele>135.68000000000001</ele>
        <time>2018-07-07T09:00:54Z</time>
      </trkpt>
      <trkpt lat="47.976578017696738" lon="-3.133654966950417">
        <ele>130.88</ele>
        <time>2018-07-07T09:00:59Z</time>
      </trkpt>
      <trkpt lat="47.976576006039977" lon="-3.133439971134067">
        <ele>129.91999999999999</ele>
        <time>2018-07-07T09:01:00Z</time>
      </trkpt>
      <trkpt lat="47.976559996604919" lon="-3.133220029994845">
        <ele>128.47</ele>
        <time>2018-07-07T09:01:01Z</time>
      </trkpt>
      <trkpt lat="47.976543987169862" lon="-3.132992964237928">
        <ele>127.51000000000001</ele>
        <time>2018-07-07T09:01:02Z</time>
      </trkpt>
      <trkpt lat="47.976526971906424" lon="-3.132766988128424">
        <ele>126.06999999999999</ele>
        <time>2018-07-07T09:01:03Z</time>
      </trkpt>
      <trkpt lat="47.976510962471366" lon="-3.132545035332441">
        <ele>125.11</ele>
        <time>2018-07-07T09:01:04Z</time>
      </trkpt>
      <trkpt lat="47.976514985784888" lon="-3.132324004545808">
        <ele>123.67</ele>
        <time>2018-07-07T09:01:05Z</time>
      </trkpt>
      <trkpt lat="47.976549016311765" lon="-3.132090987637639">
        <ele>122.70999999999999</ele>
        <time>2018-07-07T09:01:06Z</time>
      </trkpt>
      <trkpt lat="47.976586986333132" lon="-3.131832992658019">
        <ele>121.73999999999999</ele>
        <time>2018-07-07T09:01:07Z</time>
      </trkpt>
      <trkpt lat="47.976642977446318" lon="-3.131603999063373">
        <ele>120.78</ele>
        <time>2018-07-07T09:01:08Z</time>
      </trkpt>
      <trkpt lat="47.976866019889712" lon="-3.13067402690649">
        <ele>116.45999999999999</ele>
        <time>2018-07-07T09:01:12Z</time>
      </trkpt>
      <trkpt lat="47.976866019889712" lon="-3.130460036918521">
        <ele>115.5</ele>
        <time>2018-07-07T09:01:13Z</time>
      </trkpt>
      <trkpt lat="47.976826038211584" lon="-3.130245041102171">
        <ele>114.05</ele>
        <time>2018-07-07T09:01:14Z</time>
      </trkpt>
      <trkpt lat="47.976785972714424" lon="-3.13003096729517">
        <ele>113.56999999999999</ele>
        <time>2018-07-07T09:01:15Z</time>
      </trkpt>
      <trkpt lat="47.976738028228283" lon="-3.12977297231555">
        <ele>112.61</ele>
        <time>2018-07-07T09:01:16Z</time>
      </trkpt>
      <trkpt lat="47.97668999992311" lon="-3.129564011469483">
        <ele>111.65000000000001</ele>
        <time>2018-07-07T09:01:17Z</time>
      </trkpt>
      <trkpt lat="47.976387999951839" lon="-3.128234976902604">
        <ele>106.36</ele>
        <time>2018-07-07T09:01:22Z</time>
      </trkpt>
      <trkpt lat="47.975874021649361" lon="-3.126543005928397">
        <ele>99.629999999999995</ele>
        <time>2018-07-07T09:01:29Z</time>
      </trkpt>
      <trkpt lat="47.975835967808962" lon="-3.126309989020228">
        <ele>98.670000000000002</ele>
        <time>2018-07-07T09:01:30Z</time>
      </trkpt>
      <trkpt lat="47.975835967808962" lon="-3.126071020960808">
        <ele>97.709999999999994</ele>
        <time>2018-07-07T09:01:31Z</time>
      </trkpt>
      <trkpt lat="47.975835967808962" lon="-3.125834986567497">
        <ele>96.75</ele>
        <time>2018-07-07T09:01:32Z</time>
      </trkpt>
      <trkpt lat="47.975835967808962" lon="-3.12560398131609">
        <ele>96.269999999999996</ele>
        <time>2018-07-07T09:01:33Z</time>
      </trkpt>
      <trkpt lat="47.975804032757878" lon="-3.125393008813262">
        <ele>95.310000000000002</ele>
        <time>2018-07-07T09:01:34Z</time>
      </trkpt>
      <trkpt lat="47.97576698474586" lon="-3.125170972198248">
        <ele>94.349999999999994</ele>
        <time>2018-07-07T09:01:35Z</time>
      </trkpt>
      <trkpt lat="47.975706970319152" lon="-3.124973997473717">
        <ele>93.390000000000001</ele>
        <time>2018-07-07T09:01:36Z</time>
      </trkpt>
      <trkpt lat="47.975619966164231" lon="-3.124775011092424">
        <ele>92.420000000000002</ele>
        <time>2018-07-07T09:01:37Z</time>
      </trkpt>
      <trkpt lat="47.97552902251482" lon="-3.124567978084087">
        <ele>91.459999999999994</ele>
        <time>2018-07-07T09:01:38Z</time>
      </trkpt>
      <trkpt lat="47.975419973954558" lon="-3.124359017238021">
        <ele>90.019999999999996</ele>
        <time>2018-07-07T09:01:39Z</time>
      </trkpt>
      <trkpt lat="47.975310003384948" lon="-3.12414200976491">
        <ele>88.579999999999998</ele>
        <time>2018-07-07T09:01:40Z</time>
      </trkpt>
      <trkpt lat="47.975226016715169" lon="-3.123913016170263">
        <ele>87.620000000000005</ele>
        <time>2018-07-07T09:01:41Z</time>
      </trkpt>
      <trkpt lat="47.975150998681784" lon="-3.123667007312179">
        <ele>86.659999999999997</ele>
        <time>2018-07-07T09:01:42Z</time>
      </trkpt>
      <trkpt lat="47.974801976233721" lon="-3.121914016082883">
        <ele>79.450000000000003</ele>
        <time>2018-07-07T09:01:49Z</time>
      </trkpt>
      <trkpt lat="47.974792001768947" lon="-3.121673036366701">
        <ele>78</ele>
        <time>2018-07-07T09:01:50Z</time>
      </trkpt>
      <trkpt lat="47.974795019254088" lon="-3.121432978659868">
        <ele>76.560000000000002</ele>
        <time>2018-07-07T09:01:51Z</time>
      </trkpt>
      <trkpt lat="47.974824020639062" lon="-3.121187975630164">
        <ele>75.599999999999994</ele>
        <time>2018-07-07T09:01:52Z</time>
      </trkpt>
      <trkpt lat="47.974855033680797" lon="-3.120938027277589">
        <ele>74.159999999999997</ele>
        <time>2018-07-07T09:01:53Z</time>
      </trkpt>
      <trkpt lat="47.975124008953571" lon="-3.119729021564126">
        <ele>68.390000000000001</ele>
        <time>2018-07-07T09:01:58Z</time>
      </trkpt>
      <trkpt lat="47.975158039480448" lon="-3.119494998827577">
        <ele>67.430000000000007</ele>
        <time>2018-07-07T09:01:59Z</time>
      </trkpt>
      <trkpt lat="47.975171031430364" lon="-3.11926499940455">
        <ele>66.469999999999999</ele>
        <time>2018-07-07T09:02:00Z</time>
      </trkpt>
      <trkpt lat="47.975171031430364" lon="-3.119043968617916">
        <ele>65.510000000000005</ele>
        <time>2018-07-07T09:02:01Z</time>
      </trkpt>
      <trkpt lat="47.975115962326527" lon="-3.11881204135716">
        <ele>64.549999999999997</ele>
        <time>2018-07-07T09:02:02Z</time>
      </trkpt>
      <trkpt lat="47.975059971213341" lon="-3.118582963943481">
        <ele>63.579999999999998</ele>
        <time>2018-07-07T09:02:03Z</time>
      </trkpt>
      <trkpt lat="47.974974978715181" lon="-3.118376014754176">
        <ele>62.619999999999997</ele>
        <time>2018-07-07T09:02:04Z</time>
      </trkpt>
      <trkpt lat="47.974888980388641" lon="-3.118166970089078">
        <ele>61.659999999999997</ele>
        <time>2018-07-07T09:02:05Z</time>
      </trkpt>
      <trkpt lat="47.974491007626057" lon="-3.117192992940545">
        <ele>57.82</ele>
        <time>2018-07-07T09:02:10Z</time>
      </trkpt>
      <trkpt lat="47.974472986534238" lon="-3.116963999345899">
        <ele>57.340000000000003</ele>
        <time>2018-07-07T09:02:11Z</time>
      </trkpt>
      <trkpt lat="47.974466029554605" lon="-3.116747997701168">
        <ele>56.369999999999997</ele>
        <time>2018-07-07T09:02:12Z</time>
      </trkpt>
      <trkpt lat="47.974494025111198" lon="-3.11653601936996">
        <ele>55.890000000000001</ele>
        <time>2018-07-07T09:02:13Z</time>
      </trkpt>
      <trkpt lat="47.974544987082481" lon="-3.116338038817048">
        <ele>55.409999999999997</ele>
        <time>2018-07-07T09:02:14Z</time>
      </trkpt>
      <trkpt lat="47.974610030651093" lon="-3.116152966395021">
        <ele>54.93</ele>
        <time>2018-07-07T09:02:15Z</time>
      </trkpt>
      <trkpt lat="47.974696028977633" lon="-3.115981975570321">
        <ele>54.93</ele>
        <time>2018-07-07T09:02:16Z</time>
      </trkpt>
      <trkpt lat="47.974785966798663" lon="-3.115831017494202">
        <ele>54.450000000000003</ele>
        <time>2018-07-07T09:02:17Z</time>
      </trkpt>
      <trkpt lat="47.974870959296823" lon="-3.115690033882856">
        <ele>54.450000000000003</ele>
        <time>2018-07-07T09:02:18Z</time>
      </trkpt>
      <trkpt lat="47.975417962297797" lon="-3.114892998710275">
        <ele>53.969999999999999</ele>
        <time>2018-07-07T09:02:24Z</time>
      </trkpt>
      <trkpt lat="47.976289009675384" lon="-3.11410702764988">
        <ele>52.049999999999997</ele>
        <time>2018-07-07T09:02:33Z</time>
      </trkpt>
      <trkpt lat="47.977302968502045" lon="-3.113234974443913">
        <ele>53.009999999999998</ele>
        <time>2018-07-07T09:02:44Z</time>
      </trkpt>
      <trkpt lat="47.978181978687644" lon="-3.112445985898376">
        <ele>54.450000000000003</ele>
        <time>2018-07-07T09:02:54Z</time>
      </trkpt>
      <trkpt lat="47.978242998942733" lon="-3.112392006441951">
        <ele>54.450000000000003</ele>
        <time>2018-07-07T09:02:55Z</time>
      </trkpt>
      <trkpt lat="47.979064006358385" lon="-3.111694967374206">
        <ele>58.299999999999997</ele>
        <time>2018-07-07T09:03:08Z</time>
      </trkpt>
      <trkpt lat="47.979135001078248" lon="-3.111663032323122">
        <ele>59.259999999999998</ele>
        <time>2018-07-07T09:03:09Z</time>
      </trkpt>
      <trkpt lat="47.979207001626492" lon="-3.111636964604259">
        <ele>59.740000000000002</ele>
        <time>2018-07-07T09:03:10Z</time>
      </trkpt>
      <trkpt lat="47.97929098829627" lon="-3.111620033159852">
        <ele>60.219999999999999</ele>
        <time>2018-07-07T09:03:11Z</time>
      </trkpt>
      <trkpt lat="47.979359971359372" lon="-3.111604023724794">
        <ele>60.700000000000003</ele>
        <time>2018-07-07T09:03:12Z</time>
      </trkpt>
      <trkpt lat="47.979657026007771" lon="-3.111536968499422">
        <ele>61.659999999999997</ele>
        <time>2018-07-07T09:03:16Z</time>
      </trkpt>
      <trkpt lat="47.979792980477214" lon="-3.11146697960794">
        <ele>62.619999999999997</ele>
        <time>2018-07-07T09:03:18Z</time>
      </trkpt>
      <trkpt lat="47.979845032095909" lon="-3.111386010423303">
        <ele>62.619999999999997</ele>
        <time>2018-07-07T09:03:19Z</time>
      </trkpt>
      <trkpt lat="47.979895994067192" lon="-3.111307974904776">
        <ele>63.100000000000001</ele>
        <time>2018-07-07T09:03:20Z</time>
      </trkpt>
      <trkpt lat="47.979995990172029" lon="-3.111152993515134">
        <ele>63.100000000000001</ele>
        <time>2018-07-07T09:03:22Z</time>
      </trkpt>
      <trkpt lat="47.980053992941976" lon="-3.111092979088426">
        <ele>62.619999999999997</ele>
        <time>2018-07-07T09:03:23Z</time>
      </trkpt>
      <trkpt lat="47.980115013197064" lon="-3.111031958833337">
        <ele>62.619999999999997</ele>
        <time>2018-07-07T09:03:24Z</time>
      </trkpt>
      <trkpt lat="47.98017100431025" lon="-3.110976973548532">
        <ele>63.100000000000001</ele>
        <time>2018-07-07T09:03:25Z</time>
      </trkpt>
      <trkpt lat="47.980231018736959" lon="-3.110927017405629">
        <ele>63.579999999999998</ele>
        <time>2018-07-07T09:03:26Z</time>
      </trkpt>
      <trkpt lat="47.980302013456821" lon="-3.110902039334178">
        <ele>63.579999999999998</ele>
        <time>2018-07-07T09:03:27Z</time>
      </trkpt>
      <trkpt lat="47.980374014005065" lon="-3.110876977443695">
        <ele>63.579999999999998</ele>
        <time>2018-07-07T09:03:28Z</time>
      </trkpt>
      <trkpt lat="47.980447020381689" lon="-3.110850993543863">
        <ele>64.069999999999993</ele>
        <time>2018-07-07T09:03:29Z</time>
      </trkpt>
      <trkpt lat="47.980668973177671" lon="-3.110773041844368">
        <ele>64.549999999999997</ele>
        <time>2018-07-07T09:03:32Z</time>
      </trkpt>
      <trkpt lat="47.980743991211057" lon="-3.110745968297124">
        <ele>65.030000000000001</ele>
        <time>2018-07-07T09:03:33Z</time>
      </trkpt>
      <trkpt lat="47.981096031144261" lon="-3.110623005777597">
        <ele>67.430000000000007</ele>
        <time>2018-07-07T09:03:38Z</time>
      </trkpt>
      <trkpt lat="47.981166020035744" lon="-3.110599033534527">
        <ele>67.909999999999997</ele>
        <time>2018-07-07T09:03:39Z</time>
      </trkpt>
      <trkpt lat="47.981313038617373" lon="-3.110548993572593">
        <ele>68.870000000000005</ele>
        <time>2018-07-07T09:03:41Z</time>
      </trkpt>
      <trkpt lat="47.98201996833086" lon="-3.110298961400986">
        <ele>73.200000000000003</ele>
        <time>2018-07-07T09:03:51Z</time>
      </trkpt>
      <trkpt lat="47.982162041589618" lon="-3.110235007479787">
        <ele>73.680000000000007</ele>
        <time>2018-07-07T09:03:53Z</time>
      </trkpt>
      <trkpt lat="47.982225995510817" lon="-3.110188990831375">
        <ele>74.159999999999997</ele>
        <time>2018-07-07T09:03:54Z</time>
      </trkpt>
      <trkpt lat="47.982274023815989" lon="-3.110053958371282">
        <ele>74.640000000000001</ele>
        <time>2018-07-07T09:03:55Z</time>
      </trkpt>
      <trkpt lat="47.982301013544202" lon="-3.110016994178295">
        <ele>74.640000000000001</ele>
        <time>2018-07-07T09:03:56Z</time>
      </trkpt>
      <trkpt lat="47.9823839943856" lon="-3.110052030533552">
        <ele>75.120000000000005</ele>
        <time>2018-07-07T09:03:57Z</time>
      </trkpt>
      <trkpt lat="47.982439985498786" lon="-3.110010959208012">
        <ele>75.120000000000005</ele>
        <time>2018-07-07T09:03:58Z</time>
      </trkpt>
      <trkpt lat="47.982511986047029" lon="-3.109959997236729">
        <ele>75.599999999999994</ele>
        <time>2018-07-07T09:03:59Z</time>
      </trkpt>
      <trkpt lat="47.982601001858711" lon="-3.109896965324879">
        <ele>75.599999999999994</ele>
        <time>2018-07-07T09:04:00Z</time>
      </trkpt>
      <trkpt lat="47.983571961522102" lon="-3.109190035611391">
        <ele>80.409999999999997</ele>
        <time>2018-07-07T09:04:08Z</time>
      </trkpt>
      <trkpt lat="47.984499000012875" lon="-3.108487967401743">
        <ele>83.290000000000006</ele>
        <time>2018-07-07T09:04:17Z</time>
      </trkpt>
      <trkpt lat="47.985748993232846" lon="-3.107565036043525">
        <ele>82.810000000000002</ele>
        <time>2018-07-07T09:04:29Z</time>
      </trkpt>
      <trkpt lat="47.98668198287487" lon="-3.106846958398819">
        <ele>80.409999999999997</ele>
        <time>2018-07-07T09:04:35Z</time>
      </trkpt>
      <trkpt lat="47.986961016431451" lon="-3.106488967314363">
        <ele>80.890000000000001</ele>
        <time>2018-07-07T09:04:37Z</time>
      </trkpt>
      <trkpt lat="47.987729972228408" lon="-3.105201004073024">
        <ele>85.209999999999994</ele>
        <time>2018-07-07T09:04:43Z</time>
      </trkpt>
      <trkpt lat="47.987874979153275" lon="-3.105039987713099">
        <ele>86.180000000000007</ele>
        <time>2018-07-07T09:04:44Z</time>
      </trkpt>
      <trkpt lat="47.988026021048427" lon="-3.104899004101753">
        <ele>87.140000000000001</ele>
        <time>2018-07-07T09:04:45Z</time>
      </trkpt>
      <trkpt lat="47.988193994387984" lon="-3.104782998561859">
        <ele>88.579999999999998</ele>
        <time>2018-07-07T09:04:46Z</time>
      </trkpt>
      <trkpt lat="47.988363979384303" lon="-3.10467797331512">
        <ele>90.019999999999996</ele>
        <time>2018-07-07T09:04:47Z</time>
      </trkpt>
      <trkpt lat="47.989486986771226" lon="-3.103751018643379">
        <ele>100.11</ele>
        <time>2018-07-07T09:04:54Z</time>
      </trkpt>
      <trkpt lat="47.989964000880718" lon="-3.103265035897493">
        <ele>103.48</ele>
        <time>2018-07-07T09:04:57Z</time>
      </trkpt>
      <trkpt lat="47.990151001140475" lon="-3.103170990943909">
        <ele>104.44</ele>
        <time>2018-07-07T09:04:58Z</time>
      </trkpt>
      <trkpt lat="47.990338001400232" lon="-3.103084992617369">
        <ele>105.40000000000001</ele>
        <time>2018-07-07T09:04:59Z</time>
      </trkpt>
      <trkpt lat="47.99155899323523" lon="-3.102458026260138">
        <ele>112.13</ele>
        <time>2018-07-07T09:05:06Z</time>
      </trkpt>
      <trkpt lat="47.991711040958762" lon="-3.102329028770328">
        <ele>112.61</ele>
        <time>2018-07-07T09:05:07Z</time>
      </trkpt>
      <trkpt lat="47.991846995428205" lon="-3.102152002975345">
        <ele>112.61</ele>
        <time>2018-07-07T09:05:08Z</time>
      </trkpt>
      <trkpt lat="47.991992002353072" lon="-3.101963996887207">
        <ele>112.61</ele>
        <time>2018-07-07T09:05:09Z</time>
      </trkpt>
      <trkpt lat="47.992142960429192" lon="-3.101769033819437">
        <ele>113.09</ele>
        <time>2018-07-07T09:05:10Z</time>
      </trkpt>
      <trkpt lat="47.992300959303975" lon="-3.101593013852835">
        <ele>113.09</ele>
        <time>2018-07-07T09:05:11Z</time>
      </trkpt>
      <trkpt lat="47.992605976760387" lon="-3.101286990568042">
        <ele>113.56999999999999</ele>
        <time>2018-07-07T09:05:13Z</time>
      </trkpt>
      <trkpt lat="47.992776967585087" lon="-3.101181965321302">
        <ele>113.56999999999999</ele>
        <time>2018-07-07T09:05:14Z</time>
      </trkpt>
      <trkpt lat="47.992967991158366" lon="-3.101120023056865">
        <ele>113.56999999999999</ele>
        <time>2018-07-07T09:05:15Z</time>
      </trkpt>
      <trkpt lat="47.993166977539659" lon="-3.101055985316634">
        <ele>113.56999999999999</ele>
        <time>2018-07-07T09:05:16Z</time>
      </trkpt>
      <trkpt lat="47.993367975577712" lon="-3.100991025567055">
        <ele>113.56999999999999</ele>
        <time>2018-07-07T09:05:17Z</time>
      </trkpt>
      <trkpt lat="47.994739003479481" lon="-3.100558016449213">
        <ele>112.61</ele>
        <time>2018-07-07T09:05:25Z</time>
      </trkpt>
      <trkpt lat="47.996001988649368" lon="-3.099780008196831">
        <ele>113.09</ele>
        <time>2018-07-07T09:05:33Z</time>
      </trkpt>
      <trkpt lat="47.997181992977858" lon="-3.098408980295062">
        <ele>115.01000000000001</ele>
        <time>2018-07-07T09:05:42Z</time>
      </trkpt>
      <trkpt lat="47.997814994305372" lon="-3.097524018958211">
        <ele>114.05</ele>
        <time>2018-07-07T09:05:49Z</time>
      </trkpt>
      <trkpt lat="47.997858999297023" lon="-3.0974589753896">
        <ele>114.05</ele>
        <time>2018-07-07T09:05:50Z</time>
      </trkpt>
      <trkpt lat="47.997932005673647" lon="-3.097441038116813">
        <ele>114.05</ele>
        <time>2018-07-07T09:05:51Z</time>
      </trkpt>
      <trkpt lat="47.998009035363793" lon="-3.097445983439684">
        <ele>114.53</ele>
        <time>2018-07-07T09:05:52Z</time>
      </trkpt>
      <trkpt lat="47.99875502474606" lon="-3.097470961511135">
        <ele>114.53</ele>
        <time>2018-07-07T09:05:58Z</time>
      </trkpt>
      <trkpt lat="48.000384969636798" lon="-3.097384963184595">
        <ele>122.70999999999999</ele>
        <time>2018-07-07T09:06:07Z</time>
      </trkpt>
      <trkpt lat="48.001149985939264" lon="-3.097210032865405">
        <ele>126.06999999999999</ele>
        <time>2018-07-07T09:06:12Z</time>
      </trkpt>
      <trkpt lat="48.00131200812757" lon="-3.097125962376595">
        <ele>126.06999999999999</ele>
        <time>2018-07-07T09:06:13Z</time>
      </trkpt>
      <trkpt lat="48.002551021054387" lon="-3.096599997952581">
        <ele>123.19</ele>
        <time>2018-07-07T09:06:20Z</time>
      </trkpt>
      <trkpt lat="48.002883028239012" lon="-3.096599997952581">
        <ele>122.70999999999999</ele>
        <time>2018-07-07T09:06:22Z</time>
      </trkpt>
      <trkpt lat="48.003220986574888" lon="-3.096599997952581">
        <ele>122.70999999999999</ele>
        <time>2018-07-07T09:06:24Z</time>
      </trkpt>
      <trkpt lat="48.003377979621291" lon="-3.096554987132549">
        <ele>122.70999999999999</ele>
        <time>2018-07-07T09:06:25Z</time>
      </trkpt>
      <trkpt lat="48.003533966839314" lon="-3.096506036818028">
        <ele>123.19</ele>
        <time>2018-07-07T09:06:26Z</time>
      </trkpt>
      <trkpt lat="48.00490097142756" lon="-3.095776978880167">
        <ele>128.94999999999999</ele>
        <time>2018-07-07T09:06:34Z</time>
      </trkpt>
      <trkpt lat="48.005765983834863" lon="-3.095260988920927">
        <ele>130.40000000000001</ele>
        <time>2018-07-07T09:06:39Z</time>
      </trkpt>
      <trkpt lat="48.005924988538027" lon="-3.09511698782444">
        <ele>130.40000000000001</ele>
        <time>2018-07-07T09:06:40Z</time>
      </trkpt>
      <trkpt lat="48.006370989605784" lon="-3.094710968434811">
        <ele>131.36000000000001</ele>
        <time>2018-07-07T09:06:43Z</time>
      </trkpt>
      <trkpt lat="48.006541980430484" lon="-3.094637962058187">
        <ele>130.88</ele>
        <time>2018-07-07T09:06:44Z</time>
      </trkpt>
      <trkpt lat="48.006707020103931" lon="-3.094566967338324">
        <ele>130.88</ele>
        <time>2018-07-07T09:06:45Z</time>
      </trkpt>
      <trkpt lat="48.006869964301586" lon="-3.094526985660195">
        <ele>130.40000000000001</ele>
        <time>2018-07-07T09:06:46Z</time>
      </trkpt>
      <trkpt lat="48.007023017853498" lon="-3.09455699287355">
        <ele>130.40000000000001</ele>
        <time>2018-07-07T09:06:47Z</time>
      </trkpt>
      <trkpt lat="48.00715696066618" lon="-3.094581970945001">
        <ele>130.40000000000001</ele>
        <time>2018-07-07T09:06:48Z</time>
      </trkpt>
      <trkpt lat="48.007279001176357" lon="-3.094608960673213">
        <ele>130.40000000000001</ele>
        <time>2018-07-07T09:06:49Z</time>
      </trkpt>
      <trkpt lat="48.007395006716251" lon="-3.094696970656514">
        <ele>129.91999999999999</ele>
        <time>2018-07-07T09:06:50Z</time>
      </trkpt>
      <trkpt lat="48.007529033347964" lon="-3.094796966761351">
        <ele>129.43000000000001</ele>
        <time>2018-07-07T09:06:51Z</time>
      </trkpt>
      <trkpt lat="48.007645960897207" lon="-3.094937028363347">
        <ele>129.43000000000001</ele>
        <time>2018-07-07T09:06:52Z</time>
      </trkpt>
      <trkpt lat="48.007775964215398" lon="-3.095092009752989">
        <ele>129.43000000000001</ele>
        <time>2018-07-07T09:06:53Z</time>
      </trkpt>
      <trkpt lat="48.008559001609683" lon="-3.095987029373646">
        <ele>129.43000000000001</ele>
        <time>2018-07-07T09:06:59Z</time>
      </trkpt>
      <trkpt lat="48.008670983836055" lon="-3.096090964972973">
        <ele>129.43000000000001</ele>
        <time>2018-07-07T09:07:00Z</time>
      </trkpt>
      <trkpt lat="48.008773997426033" lon="-3.096115021035075">
        <ele>128.94999999999999</ele>
        <time>2018-07-07T09:07:01Z</time>
      </trkpt>
      <trkpt lat="48.008882962167263" lon="-3.09612600132823">
        <ele>128.94999999999999</ele>
        <time>2018-07-07T09:07:02Z</time>
      </trkpt>
      <trkpt lat="48.008979018777609" lon="-3.096089037135243">
        <ele>128.94999999999999</ele>
        <time>2018-07-07T09:07:03Z</time>
      </trkpt>
      <trkpt lat="48.0090899951756" lon="-3.096029022708535">
        <ele>128.94999999999999</ele>
        <time>2018-07-07T09:07:04Z</time>
      </trkpt>
      <trkpt lat="48.009210024029016" lon="-3.095934977754951">
        <ele>128.94999999999999</ele>
        <time>2018-07-07T09:07:05Z</time>
      </trkpt>
      <trkpt lat="48.010170003399253" lon="-3.095214972272515">
        <ele>129.91999999999999</ele>
        <time>2018-07-07T09:07:12Z</time>
      </trkpt>
      <trkpt lat="48.010304030030966" lon="-3.09515998698771">
        <ele>130.88</ele>
        <time>2018-07-07T09:07:13Z</time>
      </trkpt>
      <trkpt lat="48.010435961186886" lon="-3.095146995037794">
        <ele>131.84</ele>
        <time>2018-07-07T09:07:14Z</time>
      </trkpt>
      <trkpt lat="48.010577028617263" lon="-3.095152024179697">
        <ele>132.31999999999999</ele>
        <time>2018-07-07T09:07:15Z</time>
      </trkpt>
      <trkpt lat="48.010719018056989" lon="-3.095177002251148">
        <ele>133.28</ele>
        <time>2018-07-07T09:07:16Z</time>
      </trkpt>
      <trkpt lat="48.011850994080305" lon="-3.095231987535954">
        <ele>137.61000000000001</ele>
        <time>2018-07-07T09:07:24Z</time>
      </trkpt>
      <trkpt lat="48.012104965746403" lon="-3.095198040828109">
        <ele>139.05000000000001</ele>
        <time>2018-07-07T09:07:26Z</time>
      </trkpt>
      <trkpt lat="48.012237986549735" lon="-3.095181025564671">
        <ele>139.53</ele>
        <time>2018-07-07T09:07:27Z</time>
      </trkpt>
      <trkpt lat="48.01237897016108" lon="-3.095161998644471">
        <ele>140.00999999999999</ele>
        <time>2018-07-07T09:07:28Z</time>
      </trkpt>
      <trkpt lat="48.012516014277935" lon="-3.095184965059161">
        <ele>140.49000000000001</ele>
        <time>2018-07-07T09:07:29Z</time>
      </trkpt>
      <trkpt lat="48.012664038687944" lon="-3.095210026949644">
        <ele>140.49000000000001</ele>
        <time>2018-07-07T09:07:30Z</time>
      </trkpt>
      <trkpt lat="48.012818014249206" lon="-3.095254031941295">
        <ele>140.49000000000001</ele>
        <time>2018-07-07T09:07:31Z</time>
      </trkpt>
      <trkpt lat="48.012975007295609" lon="-3.095337012782693">
        <ele>140.49000000000001</ele>
        <time>2018-07-07T09:07:32Z</time>
      </trkpt>
      <trkpt lat="48.013765001669526" lon="-3.095703972503543">
        <ele>143.37</ele>
        <time>2018-07-07T09:07:37Z</time>
      </trkpt>
      <trkpt lat="48.014824977144599" lon="-3.095999015495181">
        <ele>144.81999999999999</ele>
        <time>2018-07-07T09:07:44Z</time>
      </trkpt>
      <trkpt lat="48.014971995726228" lon="-3.096123989671469">
        <ele>144.34</ele>
        <time>2018-07-07T09:07:45Z</time>
      </trkpt>
      <trkpt lat="48.015100993216038" lon="-3.096233960241079">
        <ele>143.84999999999999</ele>
        <time>2018-07-07T09:07:46Z</time>
      </trkpt>
      <trkpt lat="48.015468036755919" lon="-3.096517017111182">
        <ele>141.44999999999999</ele>
        <time>2018-07-07T09:07:49Z</time>
      </trkpt>
      <trkpt lat="48.015594016760588" lon="-3.096564961597323">
        <ele>140.49000000000001</ele>
        <time>2018-07-07T09:07:50Z</time>
      </trkpt>
      <trkpt lat="48.015716979280114" lon="-3.096589017659426">
        <ele>140.00999999999999</ele>
        <time>2018-07-07T09:07:51Z</time>
      </trkpt>
      <trkpt lat="48.015854023396969" lon="-3.096544006839395">
        <ele>139.05000000000001</ele>
        <time>2018-07-07T09:07:52Z</time>
      </trkpt>
      <trkpt lat="48.01600799895823" lon="-3.096493966877461">
        <ele>138.56999999999999</ele>
        <time>2018-07-07T09:07:53Z</time>
      </trkpt>
      <trkpt lat="48.016170021146536" lon="-3.096441999077797">
        <ele>138.09</ele>
        <time>2018-07-07T09:07:54Z</time>
      </trkpt>
      <trkpt lat="48.01764297299087" lon="-3.096027011051774">
        <ele>136.16</ele>
        <time>2018-07-07T09:08:02Z</time>
      </trkpt>
      <trkpt lat="48.019190020859241" lon="-3.095931960269809">
        <ele>138.56999999999999</ele>
        <time>2018-07-07T09:08:10Z</time>
      </trkpt>
      <trkpt lat="48.019936010241508" lon="-3.095830036327243">
        <ele>140.97</ele>
        <time>2018-07-07T09:08:15Z</time>
      </trkpt>
      <trkpt lat="48.020035000517964" lon="-3.095784019678831">
        <ele>141.44999999999999</ele>
        <time>2018-07-07T09:08:16Z</time>
      </trkpt>
      <trkpt lat="48.020125022158027" lon="-3.095709001645446">
        <ele>141.93000000000001</ele>
        <time>2018-07-07T09:08:17Z</time>
      </trkpt>
      <trkpt lat="48.020198028534651" lon="-3.095617974177003">
        <ele>142.41</ele>
        <time>2018-07-07T09:08:18Z</time>
      </trkpt>
      <trkpt lat="48.020269023254514" lon="-3.095512026920915">
        <ele>142.41</ele>
        <time>2018-07-07T09:08:19Z</time>
      </trkpt>
      <trkpt lat="48.0203250143677" lon="-3.095378000289202">
        <ele>142.88999999999999</ele>
        <time>2018-07-07T09:08:20Z</time>
      </trkpt>
      <trkpt lat="48.020383017137647" lon="-3.095225030556321">
        <ele>143.37</ele>
        <time>2018-07-07T09:08:21Z</time>
      </trkpt>
      <trkpt lat="48.020442025735974" lon="-3.095049010589719">
        <ele>143.84999999999999</ele>
        <time>2018-07-07T09:08:22Z</time>
      </trkpt>
      <trkpt lat="48.020501034334302" lon="-3.094869973137975">
        <ele>144.34</ele>
        <time>2018-07-07T09:08:23Z</time>
      </trkpt>
      <trkpt lat="48.020597007125616" lon="-3.094582976773381">
        <ele>144.34</ele>
        <time>2018-07-07T09:08:25Z</time>
      </trkpt>
      <trkpt lat="48.020697003230453" lon="-3.094455990940332">
        <ele>144.34</ele>
        <time>2018-07-07T09:08:26Z</time>
      </trkpt>
      <trkpt lat="48.020787024870515" lon="-3.094340991228819">
        <ele>144.34</ele>
        <time>2018-07-07T09:08:27Z</time>
      </trkpt>
      <trkpt lat="48.020876962691545" lon="-3.094268990680575">
        <ele>143.84999999999999</ele>
        <time>2018-07-07T09:08:28Z</time>
      </trkpt>
      <trkpt lat="48.021000009030104" lon="-3.094232026487589">
        <ele>143.84999999999999</ele>
        <time>2018-07-07T09:08:29Z</time>
      </trkpt>
      <trkpt lat="48.021134035661817" lon="-3.094191960990429">
        <ele>143.37</ele>
        <time>2018-07-07T09:08:30Z</time>
      </trkpt>
      <trkpt lat="48.02127099595964" lon="-3.094153990969062">
        <ele>142.88999999999999</ele>
        <time>2018-07-07T09:08:31Z</time>
      </trkpt>
      <trkpt lat="48.021408040076494" lon="-3.094157008454204">
        <ele>142.88999999999999</ele>
        <time>2018-07-07T09:08:32Z</time>
      </trkpt>
      <trkpt lat="48.02152999676764" lon="-3.094161031767726">
        <ele>142.41</ele>
        <time>2018-07-07T09:08:33Z</time>
      </trkpt>
      <trkpt lat="48.021627981215715" lon="-3.094163965433836">
        <ele>142.41</ele>
        <time>2018-07-07T09:08:34Z</time>
      </trkpt>
      <trkpt lat="48.021996030583978" lon="-3.094174023717642">
        <ele>140.49000000000001</ele>
        <time>2018-07-07T09:08:41Z</time>
      </trkpt>
      <trkpt lat="48.022049004212022" lon="-3.094168994575739">
        <ele>139.05000000000001</ele>
        <time>2018-07-07T09:08:48Z</time>
      </trkpt>
      <trkpt lat="48.021997036412358" lon="-3.094037985429168">
        <ele>138.56999999999999</ele>
        <time>2018-07-07T09:08:50Z</time>
      </trkpt>
      <trkpt lat="48.021953031420708" lon="-3.09402097016573">
        <ele>138.56999999999999</ele>
        <time>2018-07-07T09:08:51Z</time>
      </trkpt>
      <trkpt lat="48.021887987852097" lon="-3.093994986265898">
        <ele>138.09</ele>
        <time>2018-07-07T09:08:52Z</time>
      </trkpt>
      <trkpt lat="48.021812969818711" lon="-3.093965984880924">
        <ele>138.09</ele>
        <time>2018-07-07T09:08:53Z</time>
      </trkpt>
      <trkpt lat="48.021727977320552" lon="-3.09391301125288">
        <ele>138.09</ele>
        <time>2018-07-07T09:08:54Z</time>
      </trkpt>
      <trkpt lat="48.021638039499521" lon="-3.093825001269579">
        <ele>138.09</ele>
        <time>2018-07-07T09:08:55Z</time>
      </trkpt>
      <trkpt lat="48.021560003980994" lon="-3.093701032921672">
        <ele>138.56999999999999</ele>
        <time>2018-07-07T09:08:56Z</time>
      </trkpt>
      <trkpt lat="48.021482974290848" lon="-3.09354898519814">
        <ele>138.56999999999999</ele>
        <time>2018-07-07T09:08:57Z</time>
      </trkpt>
      <trkpt lat="48.021413991227746" lon="-3.093380006030202">
        <ele>138.56999999999999</ele>
        <time>2018-07-07T09:08:58Z</time>
      </trkpt>
      <trkpt lat="48.021212993189692" lon="-3.092886982485652">
        <ele>137.61000000000001</ele>
        <time>2018-07-07T09:09:01Z</time>
      </trkpt>
      <trkpt lat="48.021149039268494" lon="-3.09273099526763">
        <ele>137.13</ele>
        <time>2018-07-07T09:09:02Z</time>
      </trkpt>
      <trkpt lat="48.021091036498547" lon="-3.092586994171143">
        <ele>136.16</ele>
        <time>2018-07-07T09:09:03Z</time>
      </trkpt>
      <trkpt lat="48.020977964624763" lon="-3.092455985024571">
        <ele>135.19999999999999</ele>
        <time>2018-07-07T09:09:04Z</time>
      </trkpt>
      <trkpt lat="48.020873023197055" lon="-3.092333022505045">
        <ele>134.72</ele>
        <time>2018-07-07T09:09:05Z</time>
      </trkpt>
      <trkpt lat="48.020763974636793" lon="-3.092206036671996">
        <ele>134.24000000000001</ele>
        <time>2018-07-07T09:09:06Z</time>
      </trkpt>
      <trkpt lat="48.020639000460505" lon="-3.092097993940115">
        <ele>133.28</ele>
        <time>2018-07-07T09:09:07Z</time>
      </trkpt>
      <trkpt lat="48.020501034334302" lon="-3.092018030583859">
        <ele>132.31999999999999</ele>
        <time>2018-07-07T09:09:08Z</time>
      </trkpt>
      <trkpt lat="48.020367007702589" lon="-3.091938989236951">
        <ele>131.36000000000001</ele>
        <time>2018-07-07T09:09:09Z</time>
      </trkpt>
      <trkpt lat="48.020107001066208" lon="-3.091787025332451">
        <ele>130.40000000000001</ele>
        <time>2018-07-07T09:09:11Z</time>
      </trkpt>
      <trkpt lat="48.019994013011456" lon="-3.091671019792557">
        <ele>129.91999999999999</ele>
        <time>2018-07-07T09:09:12Z</time>
      </trkpt>
      <trkpt lat="48.019895022735" lon="-3.091517966240645">
        <ele>128.94999999999999</ele>
        <time>2018-07-07T09:09:13Z</time>
      </trkpt>
      <trkpt lat="48.019808018580079" lon="-3.091327026486397">
        <ele>128.47</ele>
        <time>2018-07-07T09:09:14Z</time>
      </trkpt>
      <trkpt lat="48.019717996940017" lon="-3.091128040105104">
        <ele>127.51000000000001</ele>
        <time>2018-07-07T09:09:15Z</time>
      </trkpt>
      <trkpt lat="48.019548011943698" lon="-3.090752027928829">
        <ele>126.06999999999999</ele>
        <time>2018-07-07T09:09:17Z</time>
      </trkpt>
      <trkpt lat="48.019469976425171" lon="-3.090580031275749">
        <ele>125.11</ele>
        <time>2018-07-07T09:09:18Z</time>
      </trkpt>
      <trkpt lat="48.01938196644187" lon="-3.090423960238695">
        <ele>124.15000000000001</ele>
        <time>2018-07-07T09:09:19Z</time>
      </trkpt>
      <trkpt lat="48.019290016964078" lon="-3.090323964133859">
        <ele>123.19</ele>
        <time>2018-07-07T09:09:20Z</time>
      </trkpt>
      <trkpt lat="48.019183985888958" lon="-3.090223968029022">
        <ele>122.22</ele>
        <time>2018-07-07T09:09:21Z</time>
      </trkpt>
      <trkpt lat="48.019063035026193" lon="-3.090203013271093">
        <ele>121.73999999999999</ele>
        <time>2018-07-07T09:09:22Z</time>
      </trkpt>
      <trkpt lat="48.018934037536383" lon="-3.090180968865752">
        <ele>120.78</ele>
        <time>2018-07-07T09:09:23Z</time>
      </trkpt>
      <trkpt lat="48.018792970106006" lon="-3.090158002451062">
        <ele>119.81999999999999</ele>
        <time>2018-07-07T09:09:24Z</time>
      </trkpt>
      <trkpt lat="48.017679015174508" lon="-3.089968990534544">
        <ele>116.45999999999999</ele>
        <time>2018-07-07T09:09:31Z</time>
      </trkpt>
      <trkpt lat="48.017528979107738" lon="-3.089915011078119">
        <ele>116.45999999999999</ele>
        <time>2018-07-07T09:09:32Z</time>
      </trkpt>
      <trkpt lat="48.017397969961166" lon="-3.089848039671779">
        <ele>115.98</ele>
        <time>2018-07-07T09:09:33Z</time>
      </trkpt>
      <trkpt lat="48.017266960814595" lon="-3.089743014425039">
        <ele>115.5</ele>
        <time>2018-07-07T09:09:34Z</time>
      </trkpt>
      <trkpt lat="48.01714600995183" lon="-3.089588033035398">
        <ele>115.01000000000001</ele>
        <time>2018-07-07T09:09:35Z</time>
      </trkpt>
      <trkpt lat="48.017024975270033" lon="-3.089405978098512">
        <ele>114.53</ele>
        <time>2018-07-07T09:09:36Z</time>
      </trkpt>
      <trkpt lat="48.016900001093745" lon="-3.0892079975456">
        <ele>114.05</ele>
        <time>2018-07-07T09:09:37Z</time>
      </trkpt>
      <trkpt lat="48.016472021117806" lon="-3.088410040363669">
        <ele>110.69</ele>
        <time>2018-07-07T09:09:41Z</time>
      </trkpt>
      <trkpt lat="48.01635199226439" lon="-3.088260004296899">
        <ele>109.73</ele>
        <time>2018-07-07T09:09:42Z</time>
      </trkpt>
      <trkpt lat="48.015976985916495" lon="-3.08789798989892">
        <ele>107.31999999999999</ele>
        <time>2018-07-07T09:09:45Z</time>
      </trkpt>
      <trkpt lat="48.015884030610323" lon="-3.087738985195756">
        <ele>106.36</ele>
        <time>2018-07-07T09:09:46Z</time>
      </trkpt>
      <trkpt lat="48.015805995091796" lon="-3.087547961622477">
        <ele>105.40000000000001</ele>
        <time>2018-07-07T09:09:47Z</time>
      </trkpt>
      <trkpt lat="48.015747992321849" lon="-3.087330032140017">
        <ele>104.44</ele>
        <time>2018-07-07T09:09:48Z</time>
      </trkpt>
      <trkpt lat="48.015713961794972" lon="-3.087097015231848">
        <ele>103.48</ele>
        <time>2018-07-07T09:09:49Z</time>
      </trkpt>
      <trkpt lat="48.015597034245729" lon="-3.086278019472957">
        <ele>101.08</ele>
        <time>2018-07-07T09:09:53Z</time>
      </trkpt>
      <trkpt lat="48.015540959313512" lon="-3.086143992841244">
        <ele>101.08</ele>
        <time>2018-07-07T09:09:54Z</time>
      </trkpt>
      <trkpt lat="48.015489997342229" lon="-3.086021030321717">
        <ele>100.59999999999999</ele>
        <time>2018-07-07T09:09:55Z</time>
      </trkpt>
      <trkpt lat="48.015365023165941" lon="-3.085930002853274">
        <ele>99.629999999999995</ele>
        <time>2018-07-07T09:09:56Z</time>
      </trkpt>
      <trkpt lat="48.015238959342241" lon="-3.085842998698354">
        <ele>98.670000000000002</ele>
        <time>2018-07-07T09:09:57Z</time>
      </trkpt>
      <trkpt lat="48.015074003487825" lon="-3.085777033120394">
        <ele>97.709999999999994</ele>
        <time>2018-07-07T09:09:58Z</time>
      </trkpt>
      <trkpt lat="48.014120981097221" lon="-3.085391968488693">
        <ele>93.390000000000001</ele>
        <time>2018-07-07T09:10:03Z</time>
      </trkpt>
      <trkpt lat="48.013932975009084" lon="-3.085264982655644">
        <ele>91.939999999999998</ele>
        <time>2018-07-07T09:10:04Z</time>
      </trkpt>
      <trkpt lat="48.012641994282603" lon="-3.084113979712129">
        <ele>88.099999999999994</ele>
        <time>2018-07-07T09:10:12Z</time>
      </trkpt>
      <trkpt lat="48.012486007064581" lon="-3.084024963900447">
        <ele>88.099999999999994</ele>
        <time>2018-07-07T09:10:13Z</time>
      </trkpt>
      <trkpt lat="48.0123330373317" lon="-3.083972996100783">
        <ele>88.099999999999994</ele>
        <time>2018-07-07T09:10:14Z</time>
      </trkpt>
      <trkpt lat="48.011886030435562" lon="-3.083819020539522">
        <ele>89.060000000000002</ele>
        <time>2018-07-07T09:10:17Z</time>
      </trkpt>
      <trkpt lat="48.011772958561778" lon="-3.08372899889946">
        <ele>89.060000000000002</ele>
        <time>2018-07-07T09:10:18Z</time>
      </trkpt>
      <trkpt lat="48.011663993820548" lon="-3.083630008623004">
        <ele>89.060000000000002</ele>
        <time>2018-07-07T09:10:19Z</time>
      </trkpt>
      <trkpt lat="48.011571960523725" lon="-3.083477038890123">
        <ele>89.060000000000002</ele>
        <time>2018-07-07T09:10:20Z</time>
      </trkpt>
      <trkpt lat="48.011486968025565" lon="-3.083292972296476">
        <ele>89.060000000000002</ele>
        <time>2018-07-07T09:10:21Z</time>
      </trkpt>
      <trkpt lat="48.011393006891012" lon="-3.083090968430042">
        <ele>88.579999999999998</ele>
        <time>2018-07-07T09:10:22Z</time>
      </trkpt>
      <trkpt lat="48.011295022442937" lon="-3.082882007583976">
        <ele>88.579999999999998</ele>
        <time>2018-07-07T09:10:23Z</time>
      </trkpt>
      <trkpt lat="48.011196032166481" lon="-3.082670029252768">
        <ele>88.099999999999994</ele>
        <time>2018-07-07T09:10:24Z</time>
      </trkpt>
      <trkpt lat="48.010824965313077" lon="-3.082214975729585">
        <ele>86.659999999999997</ele>
        <time>2018-07-07T09:10:27Z</time>
      </trkpt>
      <trkpt lat="48.010705020278692" lon="-3.082083966583014">
        <ele>86.180000000000007</ele>
        <time>2018-07-07T09:10:28Z</time>
      </trkpt>
      <trkpt lat="48.01057199947536" lon="-3.082023030146956">
        <ele>85.689999999999998</ele>
        <time>2018-07-07T09:10:29Z</time>
      </trkpt>
      <trkpt lat="48.010427998378873" lon="-3.081964021548629">
        <ele>85.689999999999998</ele>
        <time>2018-07-07T09:10:30Z</time>
      </trkpt>
      <trkpt lat="48.010273016989231" lon="-3.081949017941952">
        <ele>85.209999999999994</ele>
        <time>2018-07-07T09:10:31Z</time>
      </trkpt>
      <trkpt lat="48.010108983144164" lon="-3.081934014335275">
        <ele>85.209999999999994</ele>
        <time>2018-07-07T09:10:32Z</time>
      </trkpt>
      <trkpt lat="48.009940003976226" lon="-3.081918004900217">
        <ele>84.730000000000004</ele>
        <time>2018-07-07T09:10:33Z</time>
      </trkpt>
      <trkpt lat="48.009778987616301" lon="-3.08190300129354">
        <ele>84.25</ele>
        <time>2018-07-07T09:10:34Z</time>
      </trkpt>
      <trkpt lat="48.00964898429811" lon="-3.081804011017084">
        <ele>83.769999999999996</ele>
        <time>2018-07-07T09:10:35Z</time>
      </trkpt>
      <trkpt lat="48.009515963494778" lon="-3.081689011305571">
        <ele>83.769999999999996</ele>
        <time>2018-07-07T09:10:36Z</time>
      </trkpt>
      <trkpt lat="48.009399035945535" lon="-3.081551967188716">
        <ele>83.769999999999996</ele>
        <time>2018-07-07T09:10:37Z</time>
      </trkpt>
      <trkpt lat="48.009291999042034" lon="-3.081363961100578">
        <ele>83.290000000000006</ele>
        <time>2018-07-07T09:10:38Z</time>
      </trkpt>
      <trkpt lat="48.009180016815662" lon="-3.081165980547667">
        <ele>83.290000000000006</ele>
        <time>2018-07-07T09:10:39Z</time>
      </trkpt>
      <trkpt lat="48.0082300119102" lon="-3.079743990674615">
        <ele>78.969999999999999</ele>
        <time>2018-07-07T09:10:46Z</time>
      </trkpt>
      <trkpt lat="48.008086010813713" lon="-3.079590015113354">
        <ele>78</ele>
        <time>2018-07-07T09:10:47Z</time>
      </trkpt>
      <trkpt lat="48.007958019152284" lon="-3.07945498265326">
        <ele>77.519999999999996</ele>
        <time>2018-07-07T09:10:48Z</time>
      </trkpt>
      <trkpt lat="48.007795996963978" lon="-3.079364039003849">
        <ele>77.040000000000006</ele>
        <time>2018-07-07T09:10:49Z</time>
      </trkpt>
      <trkpt lat="48.007641015574336" lon="-3.079278962686658">
        <ele>76.560000000000002</ele>
        <time>2018-07-07T09:10:50Z</time>
      </trkpt>
      <trkpt lat="48.007462983950973" lon="-3.079228000715375">
        <ele>76.079999999999998</ele>
        <time>2018-07-07T09:10:51Z</time>
      </trkpt>
      <trkpt lat="48.007281012833118" lon="-3.079207967966795">
        <ele>76.079999999999998</ele>
        <time>2018-07-07T09:10:52Z</time>
      </trkpt>
      <trkpt lat="48.006582967936993" lon="-3.079075030982494">
        <ele>73.680000000000007</ele>
        <time>2018-07-07T09:10:56Z</time>
      </trkpt>
      <trkpt lat="48.00642304122448" lon="-3.079016022384167">
        <ele>73.200000000000003</ele>
        <time>2018-07-07T09:10:57Z</time>
      </trkpt>
      <trkpt lat="48.006269987672567" lon="-3.078890964388847">
        <ele>73.200000000000003</ele>
        <time>2018-07-07T09:10:58Z</time>
      </trkpt>
      <trkpt lat="48.006127998232841" lon="-3.078760039061308">
        <ele>72.719999999999999</ele>
        <time>2018-07-07T09:10:59Z</time>
      </trkpt>
      <trkpt lat="48.006020039319992" lon="-3.078573038801551">
        <ele>71.760000000000005</ele>
        <time>2018-07-07T09:11:00Z</time>
      </trkpt>
      <trkpt lat="48.005929011851549" lon="-3.078386960551143">
        <ele>71.269999999999996</ele>
        <time>2018-07-07T09:11:01Z</time>
      </trkpt>
      <trkpt lat="48.005860028788447" lon="-3.078169031068683">
        <ele>70.790000000000006</ele>
        <time>2018-07-07T09:11:02Z</time>
      </trkpt>
      <trkpt lat="48.005789034068584" lon="-3.077935008332133">
        <ele>70.310000000000002</ele>
        <time>2018-07-07T09:11:03Z</time>
      </trkpt>
      <trkpt lat="48.005753997713327" lon="-3.077679025009275">
        <ele>69.829999999999998</ele>
        <time>2018-07-07T09:11:04Z</time>
      </trkpt>
      <trkpt lat="48.005717033520341" lon="-3.077410971745849">
        <ele>69.829999999999998</ele>
        <time>2018-07-07T09:11:05Z</time>
      </trkpt>
      <trkpt lat="48.005678979679942" lon="-3.077127998694778">
        <ele>69.349999999999994</ele>
        <time>2018-07-07T09:11:06Z</time>
      </trkpt>
      <trkpt lat="48.005654001608491" lon="-3.076823987066746">
        <ele>69.349999999999994</ele>
        <time>2018-07-07T09:11:07Z</time>
      </trkpt>
      <trkpt lat="48.00550295971334" lon="-3.073564013466239">
        <ele>69.349999999999994</ele>
        <time>2018-07-07T09:11:18Z</time>
      </trkpt>
      <trkpt lat="48.005531961098313" lon="-3.072999995201826">
        <ele>69.349999999999994</ele>
        <time>2018-07-07T09:11:20Z</time>
      </trkpt>
      <trkpt lat="48.005583006888628" lon="-3.072722973302007">
        <ele>69.349999999999994</ele>
        <time>2018-07-07T09:11:21Z</time>
      </trkpt>
      <trkpt lat="48.006005035713315" lon="-3.070463966578245">
        <ele>70.790000000000006</ele>
        <time>2018-07-07T09:11:30Z</time>
      </trkpt>
      <trkpt lat="48.006043005734682" lon="-3.070104969665408">
        <ele>71.269999999999996</ele>
        <time>2018-07-07T09:11:32Z</time>
      </trkpt>
      <trkpt lat="48.006035964936018" lon="-3.069951999932528">
        <ele>71.269999999999996</ele>
        <time>2018-07-07T09:11:33Z</time>
      </trkpt>
      <trkpt lat="48.006030013784766" lon="-3.069817973300815">
        <ele>71.760000000000005</ele>
        <time>2018-07-07T09:11:34Z</time>
      </trkpt>
      <trkpt lat="48.005982991307974" lon="-3.069692999124527">
        <ele>71.760000000000005</ele>
        <time>2018-07-07T09:11:35Z</time>
      </trkpt>
      <trkpt lat="48.005929011851549" lon="-3.069614041596651">
        <ele>71.760000000000005</ele>
        <time>2018-07-07T09:11:36Z</time>
      </trkpt>
      <trkpt lat="48.005878971889615" lon="-3.069542041048408">
        <ele>71.760000000000005</ele>
        <time>2018-07-07T09:11:37Z</time>
      </trkpt>
      <trkpt lat="48.005819963291287" lon="-3.069471968337894">
        <ele>71.760000000000005</ele>
        <time>2018-07-07T09:11:38Z</time>
      </trkpt>
      <trkpt lat="48.005774030461907" lon="-3.069456964731216">
        <ele>72.239999999999995</ele>
        <time>2018-07-07T09:11:39Z</time>
      </trkpt>
      <trkpt lat="48.00573798827827" lon="-3.069444978609681">
        <ele>72.239999999999995</ele>
        <time>2018-07-07T09:11:40Z</time>
      </trkpt>
      <trkpt lat="48.005710998550057" lon="-3.069436009973288">
        <ele>72.239999999999995</ele>
        <time>2018-07-07T09:11:41Z</time>
      </trkpt>
      <trkpt lat="48.005692977458239" lon="-3.069429975003004">
        <ele>72.239999999999995</ele>
        <time>2018-07-07T09:11:42Z</time>
      </trkpt>
      <trkpt lat="48.005660036578774" lon="-3.069418994709849">
        <ele>72.239999999999995</ele>
        <time>2018-07-07T09:11:43Z</time>
      </trkpt>
      <trkpt lat="48.00563002936542" lon="-3.069400973618031">
        <ele>72.719999999999999</ele>
        <time>2018-07-07T09:11:44Z</time>
      </trkpt>
      <trkpt lat="48.005574960261583" lon="-3.069340959191322">
        <ele>72.719999999999999</ele>
        <time>2018-07-07T09:11:45Z</time>
      </trkpt>
      <trkpt lat="48.005229961127043" lon="-3.068961007520556">
        <ele>75.599999999999994</ele>
        <time>2018-07-07T09:11:49Z</time>
      </trkpt>
      <trkpt lat="48.00515896640718" lon="-3.068795967847109">
        <ele>76.079999999999998</ele>
        <time>2018-07-07T09:11:50Z</time>
      </trkpt>
      <trkpt lat="48.005090989172459" lon="-3.068609973415732">
        <ele>77.040000000000006</ele>
        <time>2018-07-07T09:11:51Z</time>
      </trkpt>
      <trkpt lat="48.005017982795835" lon="-3.06841098703444">
        <ele>78</ele>
        <time>2018-07-07T09:11:52Z</time>
      </trkpt>
      <trkpt lat="48.004960985854268" lon="-3.06817201897502">
        <ele>78.969999999999999</ele>
        <time>2018-07-07T09:11:53Z</time>
      </trkpt>
      <trkpt lat="48.004930978640914" lon="-3.067908994853497">
        <ele>79.930000000000007</ele>
        <time>2018-07-07T09:11:54Z</time>
      </trkpt>
      <trkpt lat="48.00489803776145" lon="-3.067633984610438">
        <ele>80.890000000000001</ele>
        <time>2018-07-07T09:11:55Z</time>
      </trkpt>
      <trkpt lat="48.004477014765143" lon="-3.064814982935786">
        <ele>91.459999999999994</ele>
        <time>2018-07-07T09:12:05Z</time>
      </trkpt>
      <trkpt lat="48.004134027287364" lon="-3.063797000795603">
        <ele>94.349999999999994</ele>
        <time>2018-07-07T09:12:09Z</time>
      </trkpt>
      <trkpt lat="48.004012992605567" lon="-3.063598014414311">
        <ele>94.829999999999998</ele>
        <time>2018-07-07T09:12:10Z</time>
      </trkpt>
      <trkpt lat="48.003898998722434" lon="-3.063410008326173">
        <ele>95.790000000000006</ele>
        <time>2018-07-07T09:12:11Z</time>
      </trkpt>
      <trkpt lat="48.00378299318254" lon="-3.063249997794628">
        <ele>95.790000000000006</ele>
        <time>2018-07-07T09:12:12Z</time>
      </trkpt>
      <trkpt lat="48.003650978207588" lon="-3.063151007518172">
        <ele>96.269999999999996</ele>
        <time>2018-07-07T09:12:13Z</time>
      </trkpt>
      <trkpt lat="48.003508988767862" lon="-3.063069032505155">
        <ele>96.269999999999996</ele>
        <time>2018-07-07T09:12:14Z</time>
      </trkpt>
      <trkpt lat="48.003351995721459" lon="-3.063027961179614">
        <ele>95.790000000000006</ele>
        <time>2018-07-07T09:12:15Z</time>
      </trkpt>
      <trkpt lat="48.003177987411618" lon="-3.062982028350234">
        <ele>95.790000000000006</ele>
        <time>2018-07-07T09:12:16Z</time>
      </trkpt>
      <trkpt lat="48.001507977023721" lon="-3.06256796233356">
        <ele>92.420000000000002</ele>
        <time>2018-07-07T09:12:24Z</time>
      </trkpt>
      <trkpt lat="48.000056985765696" lon="-3.061744021251798">
        <ele>100.11</ele>
        <time>2018-07-07T09:12:31Z</time>
      </trkpt>
      <trkpt lat="47.999059958383441" lon="-3.060404006391764">
        <ele>107.81</ele>
        <time>2018-07-07T09:12:37Z</time>
      </trkpt>
      <trkpt lat="47.998335007578135" lon="-3.058814965188503">
        <ele>109.25</ele>
        <time>2018-07-07T09:12:43Z</time>
      </trkpt>
      <trkpt lat="47.997273020446301" lon="-3.056398965418339">
        <ele>115.5</ele>
        <time>2018-07-07T09:12:55Z</time>
      </trkpt>
      <trkpt lat="47.996740015223622" lon="-3.055186020210385">
        <ele>118.38</ele>
        <time>2018-07-07T09:13:03Z</time>
      </trkpt>
      <trkpt lat="47.996658040210605" lon="-3.055002959445119">
        <ele>117.90000000000001</ele>
        <time>2018-07-07T09:13:04Z</time>
      </trkpt>
      <trkpt lat="47.996471039950848" lon="-3.054604986682534">
        <ele>117.42</ele>
        <time>2018-07-07T09:13:06Z</time>
      </trkpt>
      <trkpt lat="47.995652966201305" lon="-3.053408972918987">
        <ele>117.90000000000001</ele>
        <time>2018-07-07T09:13:12Z</time>
      </trkpt>
      <trkpt lat="47.994530964642763" lon="-3.051957981660962">
        <ele>120.3</ele>
        <time>2018-07-07T09:13:19Z</time>
      </trkpt>
      <trkpt lat="47.994362991303205" lon="-3.051821021363139">
        <ele>119.81999999999999</ele>
        <time>2018-07-07T09:13:20Z</time>
      </trkpt>
      <trkpt lat="47.994186971336603" lon="-3.051695041358471">
        <ele>119.81999999999999</ele>
        <time>2018-07-07T09:13:21Z</time>
      </trkpt>
      <trkpt lat="47.993989996612072" lon="-3.051618011668325">
        <ele>119.34</ele>
        <time>2018-07-07T09:13:22Z</time>
      </trkpt>
      <trkpt lat="47.993787992745638" lon="-3.051538970321417">
        <ele>118.86</ele>
        <time>2018-07-07T09:13:23Z</time>
      </trkpt>
      <trkpt lat="47.991984961554408" lon="-3.050866993144155">
        <ele>117.42</ele>
        <time>2018-07-07T09:13:32Z</time>
      </trkpt>
      <trkpt lat="47.989999037235975" lon="-3.050139024853706">
        <ele>111.17</ele>
        <time>2018-07-07T09:13:42Z</time>
      </trkpt>
      <trkpt lat="47.98732596449554" lon="-3.049137974157929">
        <ele>112.13</ele>
        <time>2018-07-07T09:13:55Z</time>
      </trkpt>
      <trkpt lat="47.986321980133653" lon="-3.048763973638415">
        <ele>113.09</ele>
        <time>2018-07-07T09:14:02Z</time>
      </trkpt>
      <trkpt lat="47.984911976382136" lon="-3.04825502447784">
        <ele>106.84</ele>
        <time>2018-07-07T09:14:13Z</time>
      </trkpt>
      <trkpt lat="47.984164981171489" lon="-3.04791497066617">
        <ele>103.48</ele>
        <time>2018-07-07T09:14:19Z</time>
      </trkpt>
      <trkpt lat="47.984057022258639" lon="-3.047807011753321">
        <ele>103</ele>
        <time>2018-07-07T09:14:20Z</time>
      </trkpt>
      <trkpt lat="47.983955014497042" lon="-3.04769603535533">
        <ele>102.52</ele>
        <time>2018-07-07T09:14:21Z</time>
      </trkpt>
      <trkpt lat="47.98358797095716" lon="-3.047132017090917">
        <ele>101.08</ele>
        <time>2018-07-07T09:14:25Z</time>
      </trkpt>
      <trkpt lat="47.98236102797091" lon="-3.045640960335732">
        <ele>95.790000000000006</ele>
        <time>2018-07-07T09:14:37Z</time>
      </trkpt>
      <trkpt lat="47.981404988095164" lon="-3.044704031199217">
        <ele>93.390000000000001</ele>
        <time>2018-07-07T09:14:47Z</time>
      </trkpt>
      <trkpt lat="47.981307003647089" lon="-3.044629013165832">
        <ele>93.870000000000005</ele>
        <time>2018-07-07T09:14:48Z</time>
      </trkpt>
      <trkpt lat="47.981204995885491" lon="-3.044551983475685">
        <ele>93.390000000000001</ele>
        <time>2018-07-07T09:14:49Z</time>
      </trkpt>
      <trkpt lat="47.979845032095909" lon="-3.043500976637006">
        <ele>86.659999999999997</ele>
        <time>2018-07-07T09:15:02Z</time>
      </trkpt>
      <trkpt lat="47.978865019977093" lon="-3.042769990861416">
        <ele>81.849999999999994</ele>
        <time>2018-07-07T09:15:10Z</time>
      </trkpt>
      <trkpt lat="47.977364994585514" lon="-3.042187029495835">
        <ele>78.480000000000004</ele>
        <time>2018-07-07T09:15:19Z</time>
      </trkpt>
      <trkpt lat="47.976108966395259" lon="-3.041791990399361">
        <ele>76.560000000000002</ele>
        <time>2018-07-07T09:15:28Z</time>
      </trkpt>
      <trkpt lat="47.975968988612294" lon="-3.04179098457098">
        <ele>76.560000000000002</ele>
        <time>2018-07-07T09:15:29Z</time>
      </trkpt>
      <trkpt lat="47.975564980879426" lon="-3.041882012039423">
        <ele>76.560000000000002</ele>
        <time>2018-07-07T09:15:32Z</time>
      </trkpt>
      <trkpt lat="47.974614975973964" lon="-3.042513001710177">
        <ele>77.040000000000006</ele>
        <time>2018-07-07T09:15:40Z</time>
      </trkpt>
      <trkpt lat="47.974409032613039" lon="-3.042609980329871">
        <ele>76.560000000000002</ele>
        <time>2018-07-07T09:15:42Z</time>
      </trkpt>
      <trkpt lat="47.974291015416384" lon="-3.042633030563593">
        <ele>76.560000000000002</ele>
        <time>2018-07-07T09:15:43Z</time>
      </trkpt>
      <trkpt lat="47.974174004048109" lon="-3.042549965903163">
        <ele>76.560000000000002</ele>
        <time>2018-07-07T09:15:44Z</time>
      </trkpt>
      <trkpt lat="47.974053975194693" lon="-3.042463967576623">
        <ele>76.560000000000002</ele>
        <time>2018-07-07T09:15:45Z</time>
      </trkpt>
      <trkpt lat="47.973938975483179" lon="-3.042319966480136">
        <ele>76.079999999999998</ele>
        <time>2018-07-07T09:15:46Z</time>
      </trkpt>
      <trkpt lat="47.973845014348626" lon="-3.042142018675804">
        <ele>75.120000000000005</ele>
        <time>2018-07-07T09:15:47Z</time>
      </trkpt>
      <trkpt lat="47.97374602407217" lon="-3.041954012587667">
        <ele>74.640000000000001</ele>
        <time>2018-07-07T09:15:48Z</time>
      </trkpt>
      <trkpt lat="47.973548965528607" lon="-3.041566014289856">
        <ele>73.200000000000003</ele>
        <time>2018-07-07T09:15:50Z</time>
      </trkpt>
      <trkpt lat="47.973482999950647" lon="-3.041368033736944">
        <ele>72.719999999999999</ele>
        <time>2018-07-07T09:15:51Z</time>
      </trkpt>
      <trkpt lat="47.973442012444139" lon="-3.041171981021762">
        <ele>72.239999999999995</ele>
        <time>2018-07-07T09:15:52Z</time>
      </trkpt>
      <trkpt lat="47.973418040201068" lon="-3.040967965498567">
        <ele>71.269999999999996</ele>
        <time>2018-07-07T09:15:53Z</time>
      </trkpt>
      <trkpt lat="47.973443018272519" lon="-3.040777025744319">
        <ele>70.790000000000006</ele>
        <time>2018-07-07T09:15:54Z</time>
      </trkpt>
      <trkpt lat="47.973485011607409" lon="-3.04058600217104">
        <ele>69.829999999999998</ele>
        <time>2018-07-07T09:15:55Z</time>
      </trkpt>
      <trkpt lat="47.97355399467051" lon="-3.040431020781398">
        <ele>69.349999999999994</ele>
        <time>2018-07-07T09:15:56Z</time>
      </trkpt>
      <trkpt lat="47.973642004653811" lon="-3.040273021906614">
        <ele>68.390000000000001</ele>
        <time>2018-07-07T09:15:57Z</time>
      </trkpt>
      <trkpt lat="47.973728002980351" lon="-3.040162967517972">
        <ele>67.430000000000007</ele>
        <time>2018-07-07T09:15:58Z</time>
      </trkpt>
      <trkpt lat="47.973846020177007" lon="-3.040088033303618">
        <ele>66.950000000000003</ele>
        <time>2018-07-07T09:15:59Z</time>
      </trkpt>
      <trkpt lat="47.973991027101874" lon="-3.039993988350034">
        <ele>65.989999999999995</ele>
        <time>2018-07-07T09:16:00Z</time>
      </trkpt>
      <trkpt lat="47.974064033478498" lon="-3.039996000006795">
        <ele>65.030000000000001</ele>
        <time>2018-07-07T09:16:01Z</time>
      </trkpt>
      <trkpt lat="47.974196970462799" lon="-3.040001029148698">
        <ele>64.069999999999993</ele>
        <time>2018-07-07T09:16:02Z</time>
      </trkpt>
      <trkpt lat="47.97460500150919" lon="-3.040013015270233">
        <ele>61.659999999999997</ele>
        <time>2018-07-07T09:16:05Z</time>
      </trkpt>
      <trkpt lat="47.974742967635393" lon="-3.040048973634839">
        <ele>60.700000000000003</ele>
        <time>2018-07-07T09:16:06Z</time>
      </trkpt>
      <trkpt lat="47.9748859629035" lon="-3.040119968354702">
        <ele>60.219999999999999</ele>
        <time>2018-07-07T09:16:07Z</time>
      </trkpt>
      <trkpt lat="47.976040989160538" lon="-3.040699996054173">
        <ele>51.57</ele>
        <time>2018-07-07T09:16:15Z</time>
      </trkpt>
      <trkpt lat="47.97701396048069" lon="-3.041192013770342">
        <ele>41.950000000000003</ele>
        <time>2018-07-07T09:16:23Z</time>
      </trkpt>
      <trkpt lat="47.977344961836934" lon="-3.041246999055147">
        <ele>40.030000000000001</ele>
        <time>2018-07-07T09:16:26Z</time>
      </trkpt>
      <trkpt lat="47.977504972368479" lon="-3.041234007105231">
        <ele>39.549999999999997</ele>
        <time>2018-07-07T09:16:28Z</time>
      </trkpt>
      <trkpt lat="47.977617038413882" lon="-3.041196037083864">
        <ele>39.549999999999997</ele>
        <time>2018-07-07T09:16:29Z</time>
      </trkpt>
      <trkpt lat="47.977652996778488" lon="-3.041087994351983">
        <ele>39.549999999999997</ele>
        <time>2018-07-07T09:16:31Z</time>
      </trkpt>
      <trkpt lat="47.977679986506701" lon="-3.041007025167346">
        <ele>39.549999999999997</ele>
        <time>2018-07-07T09:16:32Z</time>
      </trkpt>
      <trkpt lat="47.978020962327719" lon="-3.039773963391781">
        <ele>41.469999999999999</ele>
        <time>2018-07-07T09:16:43Z</time>
      </trkpt>
      <trkpt lat="47.978132022544742" lon="-3.039175998419523">
        <ele>44.840000000000003</ele>
        <time>2018-07-07T09:16:47Z</time>
      </trkpt>
      <trkpt lat="47.978132022544742" lon="-3.039011964574456">
        <ele>45.32</ele>
        <time>2018-07-07T09:16:48Z</time>
      </trkpt>
      <trkpt lat="47.978132022544742" lon="-3.038844997063279">
        <ele>46.280000000000001</ele>
        <time>2018-07-07T09:16:49Z</time>
      </trkpt>
      <trkpt lat="47.978127999231219" lon="-3.037025034427643">
        <ele>51.57</ele>
        <time>2018-07-07T09:16:58Z</time>
      </trkpt>
      <trkpt lat="47.978140991181135" lon="-3.036818001419306">
        <ele>52.049999999999997</ele>
        <time>2018-07-07T09:16:59Z</time>
      </trkpt>
      <trkpt lat="47.978211985900998" lon="-3.036632006987929">
        <ele>52.049999999999997</ele>
        <time>2018-07-07T09:17:00Z</time>
      </trkpt>
      <trkpt lat="47.978282980620861" lon="-3.036446012556553">
        <ele>52.530000000000001</ele>
        <time>2018-07-07T09:17:01Z</time>
      </trkpt>
      <trkpt lat="47.978352969512343" lon="-3.036260018125176">
        <ele>53.009999999999998</ele>
        <time>2018-07-07T09:17:02Z</time>
      </trkpt>
      <trkpt lat="47.978423964232206" lon="-3.036075029522181">
        <ele>53.490000000000002</ele>
        <time>2018-07-07T09:17:03Z</time>
      </trkpt>
      <trkpt lat="47.978480039164424" lon="-3.035885011777282">
        <ele>53.969999999999999</ele>
        <time>2018-07-07T09:17:04Z</time>
      </trkpt>
      <trkpt lat="47.978498982265592" lon="-3.035672027617693">
        <ele>53.969999999999999</ele>
        <time>2018-07-07T09:17:05Z</time>
      </trkpt>
      <trkpt lat="47.97851700335741" lon="-3.035458959639072">
        <ele>53.969999999999999</ele>
        <time>2018-07-07T09:17:06Z</time>
      </trkpt>
      <trkpt lat="47.978509040549397" lon="-3.035252010449767">
        <ele>54.450000000000003</ele>
        <time>2018-07-07T09:17:07Z</time>
      </trkpt>
      <trkpt lat="47.978499988093972" lon="-3.035045983269811">
        <ele>54.93</ele>
        <time>2018-07-07T09:17:08Z</time>
      </trkpt>
      <trkpt lat="47.978446008637547" lon="-3.034862000495195">
        <ele>54.93</ele>
        <time>2018-07-07T09:17:09Z</time>
      </trkpt>
      <trkpt lat="47.978377025574446" lon="-3.034685980528593">
        <ele>55.409999999999997</ele>
        <time>2018-07-07T09:17:10Z</time>
      </trkpt>
      <trkpt lat="47.978297984227538" lon="-3.034529993310571">
        <ele>56.369999999999997</ele>
        <time>2018-07-07T09:17:11Z</time>
      </trkpt>
      <trkpt lat="47.978205028921366" lon="-3.034380963072181">
        <ele>57.340000000000003</ele>
        <time>2018-07-07T09:17:12Z</time>
      </trkpt>
      <trkpt lat="47.977925995364785" lon="-3.033881988376379">
        <ele>59.740000000000002</ele>
        <time>2018-07-07T09:17:15Z</time>
      </trkpt>
      <trkpt lat="47.977832034230232" lon="-3.033706974238157">
        <ele>60.700000000000003</ele>
        <time>2018-07-07T09:17:16Z</time>
      </trkpt>
      <trkpt lat="47.977775959298015" lon="-3.03349600173533">
        <ele>61.18</ele>
        <time>2018-07-07T09:17:17Z</time>
      </trkpt>
      <trkpt lat="47.977720974013209" lon="-3.033274970948696">
        <ele>61.659999999999997</ele>
        <time>2018-07-07T09:17:18Z</time>
      </trkpt>
      <trkpt lat="47.977689960971475" lon="-3.033041032031179">
        <ele>62.619999999999997</ele>
        <time>2018-07-07T09:17:19Z</time>
      </trkpt>
      <trkpt lat="47.977450992912054" lon="-3.031221991404891">
        <ele>66.950000000000003</ele>
        <time>2018-07-07T09:17:26Z</time>
      </trkpt>
      <trkpt lat="47.977460967376828" lon="-3.030943041667342">
        <ele>67.909999999999997</ele>
        <time>2018-07-07T09:17:27Z</time>
      </trkpt>
      <trkpt lat="47.977494997903705" lon="-3.030664008110762">
        <ele>68.390000000000001</ele>
        <time>2018-07-07T09:17:28Z</time>
      </trkpt>
      <trkpt lat="47.977554006502032" lon="-3.030396038666368">
        <ele>68.870000000000005</ele>
        <time>2018-07-07T09:17:29Z</time>
      </trkpt>
      <trkpt lat="47.977620977908373" lon="-3.030128991231322">
        <ele>68.870000000000005</ele>
        <time>2018-07-07T09:17:30Z</time>
      </trkpt>
      <trkpt lat="47.977703036740422" lon="-3.029869990423322">
        <ele>69.349999999999994</ele>
        <time>2018-07-07T09:17:31Z</time>
      </trkpt>
      <trkpt lat="47.978546004742384" lon="-3.027324993163347">
        <ele>74.640000000000001</ele>
        <time>2018-07-07T09:17:41Z</time>
      </trkpt>
      <trkpt lat="47.978669973090291" lon="-3.027138998731971">
        <ele>75.120000000000005</ele>
        <time>2018-07-07T09:17:42Z</time>
      </trkpt>
      <trkpt lat="47.9788179975003" lon="-3.0270079895854">
        <ele>75.599999999999994</ele>
        <time>2018-07-07T09:17:43Z</time>
      </trkpt>
      <trkpt lat="47.978982031345367" lon="-3.026901036500931">
        <ele>76.079999999999998</ele>
        <time>2018-07-07T09:17:44Z</time>
      </trkpt>
      <trkpt lat="47.979151010513306" lon="-3.026790982112289">
        <ele>77.040000000000006</ele>
        <time>2018-07-07T09:17:45Z</time>
      </trkpt>
      <trkpt lat="47.979798009619117" lon="-3.026312040165067">
        <ele>78.969999999999999</ele>
        <time>2018-07-07T09:17:49Z</time>
      </trkpt>
      <trkpt lat="47.979930024594069" lon="-3.026145994663239">
        <ele>79.930000000000007</ele>
        <time>2018-07-07T09:17:50Z</time>
      </trkpt>
      <trkpt lat="47.980038989335299" lon="-3.025935022160411">
        <ele>80.890000000000001</ele>
        <time>2018-07-07T09:17:51Z</time>
      </trkpt>
      <trkpt lat="47.98014703206718" lon="-3.025726983323693">
        <ele>81.370000000000005</ele>
        <time>2018-07-07T09:17:52Z</time>
      </trkpt>
      <trkpt lat="47.980224983766675" lon="-3.025496983900666">
        <ele>81.849999999999994</ele>
        <time>2018-07-07T09:17:53Z</time>
      </trkpt>
      <trkpt lat="47.980281980708241" lon="-3.025249969214201">
        <ele>82.810000000000002</ele>
        <time>2018-07-07T09:17:54Z</time>
      </trkpt>
      <trkpt lat="47.980340989306569" lon="-3.024994991719723">
        <ele>83.769999999999996</ele>
        <time>2018-07-07T09:17:55Z</time>
      </trkpt>
      <trkpt lat="47.980391029268503" lon="-3.02472903393209">
        <ele>84.730000000000004</ele>
        <time>2018-07-07T09:17:56Z</time>
      </trkpt>
      <trkpt lat="47.980403015390038" lon="-3.024448994547129">
        <ele>86.180000000000007</ele>
        <time>2018-07-07T09:17:57Z</time>
      </trkpt>
      <trkpt lat="47.980387005954981" lon="-3.024183958768845">
        <ele>87.140000000000001</ele>
        <time>2018-07-07T09:17:58Z</time>
      </trkpt>
      <trkpt lat="47.980372002348304" lon="-3.023919006809592">
        <ele>88.099999999999994</ele>
        <time>2018-07-07T09:17:59Z</time>
      </trkpt>
      <trkpt lat="47.980219032615423" lon="-3.021353976801038">
        <ele>98.189999999999998</ele>
        <time>2018-07-07T09:18:08Z</time>
      </trkpt>
      <trkpt lat="47.980078971013427" lon="-3.019558992236853">
        <ele>103</ele>
        <time>2018-07-07T09:18:15Z</time>
      </trkpt>
      <trkpt lat="47.980033960193396" lon="-3.019331004470587">
        <ele>103.48</ele>
        <time>2018-07-07T09:18:16Z</time>
      </trkpt>
      <trkpt lat="47.979942010715604" lon="-3.019108967855573">
        <ele>103.95999999999999</ele>
        <time>2018-07-07T09:18:17Z</time>
      </trkpt>
      <trkpt lat="47.979834973812103" lon="-3.018893972039223">
        <ele>104.44</ele>
        <time>2018-07-07T09:18:18Z</time>
      </trkpt>
      <trkpt lat="47.979709999635816" lon="-3.018690040335059">
        <ele>104.92</ele>
        <time>2018-07-07T09:18:19Z</time>
      </trkpt>
      <trkpt lat="47.978506023064256" lon="-3.016844009980559">
        <ele>113.09</ele>
        <time>2018-07-07T09:18:29Z</time>
      </trkpt>
      <trkpt lat="47.977939993143082" lon="-3.015871038660407">
        <ele>118.38</ele>
        <time>2018-07-07T09:18:34Z</time>
      </trkpt>
      <trkpt lat="47.977834967896342" lon="-3.015665011480451">
        <ele>119.34</ele>
        <time>2018-07-07T09:18:35Z</time>
      </trkpt>
      <trkpt lat="47.977762967348099" lon="-3.015419002622366">
        <ele>120.3</ele>
        <time>2018-07-07T09:18:36Z</time>
      </trkpt>
      <trkpt lat="47.977245971560478" lon="-3.012938965111971">
        <ele>122.22</ele>
        <time>2018-07-07T09:18:45Z</time>
      </trkpt>
      <trkpt lat="47.976869037374854" lon="-3.009816035628319">
        <ele>124.63</ele>
        <time>2018-07-07T09:18:54Z</time>
      </trkpt>
      <trkpt lat="47.976550022140145" lon="-3.008149964734912">
        <ele>127.03</ele>
        <time>2018-07-07T09:19:00Z</time>
      </trkpt>
      <trkpt lat="47.975871004164219" lon="-3.006106959655881">
        <ele>129.43000000000001</ele>
        <time>2018-07-07T09:19:09Z</time>
      </trkpt>
      <trkpt lat="47.975312015041709" lon="-3.004528982564807">
        <ele>130.88</ele>
        <time>2018-07-07T09:19:17Z</time>
      </trkpt>
      <trkpt lat="47.974470974877477" lon="-3.00313800573349">
        <ele>133.75999999999999</ele>
        <time>2018-07-07T09:19:25Z</time>
      </trkpt>
      <trkpt lat="47.97333799302578" lon="-3.001643009483814">
        <ele>135.19999999999999</ele>
        <time>2018-07-07T09:19:32Z</time>
      </trkpt>
      <trkpt lat="47.972040977329016" lon="-3.000459987670183">
        <ele>136.63999999999999</ele>
        <time>2018-07-07T09:19:39Z</time>
      </trkpt>
      <trkpt lat="47.970885029062629" lon="-2.999452985823154">
        <ele>138.56999999999999</ele>
        <time>2018-07-07T09:19:47Z</time>
      </trkpt>
      <trkpt lat="47.969846008345485" lon="-2.998548997566104">
        <ele>140.97</ele>
        <time>2018-07-07T09:19:57Z</time>
      </trkpt>
      <trkpt lat="47.968683019280434" lon="-2.997308978810906">
        <ele>140.97</ele>
        <time>2018-07-07T09:20:08Z</time>
      </trkpt>
      <trkpt lat="47.968027973547578" lon="-2.995896963402629">
        <ele>137.61000000000001</ele>
        <time>2018-07-07T09:20:16Z</time>
      </trkpt>
      <trkpt lat="47.967432020232081" lon="-2.9945860337466">
        <ele>134.24000000000001</ele>
        <time>2018-07-07T09:20:24Z</time>
      </trkpt>
      <trkpt lat="47.966701034456491" lon="-2.99295399338007">
        <ele>131.36000000000001</ele>
        <time>2018-07-07T09:20:34Z</time>
      </trkpt>
      <trkpt lat="47.966501964256167" lon="-2.992894984781742">
        <ele>130.88</ele>
        <time>2018-07-07T09:20:35Z</time>
      </trkpt>
      <trkpt lat="47.966489978134632" lon="-2.992884004488587">
        <ele>131.36000000000001</ele>
        <time>2018-07-07T09:20:36Z</time>
      </trkpt>
      <trkpt lat="47.966423006728292" lon="-2.992829019203782">
        <ele>131.36000000000001</ele>
        <time>2018-07-07T09:20:37Z</time>
      </trkpt>
      <trkpt lat="47.966382019221783" lon="-2.992690969258547">
        <ele>131.84</ele>
        <time>2018-07-07T09:20:38Z</time>
      </trkpt>
      <trkpt lat="47.966392999514937" lon="-2.992570018395782">
        <ele>131.84</ele>
        <time>2018-07-07T09:20:39Z</time>
      </trkpt>
      <trkpt lat="47.966395011171699" lon="-2.992550991475582">
        <ele>131.84</ele>
        <time>2018-07-07T09:20:40Z</time>
      </trkpt>
      <trkpt lat="47.966373972594738" lon="-2.992228958755732">
        <ele>130.88</ele>
        <time>2018-07-07T09:20:41Z</time>
      </trkpt>
      <trkpt lat="47.966320998966694" lon="-2.992097027599812">
        <ele>130.88</ele>
        <time>2018-07-07T09:20:42Z</time>
      </trkpt>
      <trkpt lat="47.966250004246831" lon="-2.991921007633209">
        <ele>130.40000000000001</ele>
        <time>2018-07-07T09:20:43Z</time>
      </trkpt>
      <trkpt lat="47.965457998216152" lon="-2.990156030282378">
        <ele>128.47</ele>
        <time>2018-07-07T09:20:51Z</time>
      </trkpt>
      <trkpt lat="47.964477986097336" lon="-2.987934993579984">
        <ele>131.36000000000001</ele>
        <time>2018-07-07T09:21:01Z</time>
      </trkpt>
      <trkpt lat="47.963765021413565" lon="-2.986346958205104">
        <ele>132.80000000000001</ele>
        <time>2018-07-07T09:21:10Z</time>
      </trkpt>
      <trkpt lat="47.963159009814262" lon="-2.985007027164102">
        <ele>127.51000000000001</ele>
        <time>2018-07-07T09:21:20Z</time>
      </trkpt>
      <trkpt lat="47.962367003783584" lon="-2.983242971822619">
        <ele>119.34</ele>
        <time>2018-07-07T09:21:33Z</time>
      </trkpt>
      <trkpt lat="47.961716987192631" lon="-2.981788963079453">
        <ele>115.98</ele>
        <time>2018-07-07T09:21:44Z</time>
      </trkpt>
      <trkpt lat="47.960931016132236" lon="-2.980027003213763">
        <ele>115.5</ele>
        <time>2018-07-07T09:21:57Z</time>
      </trkpt>
      <trkpt lat="47.960020992904902" lon="-2.977987015619874">
        <ele>115.01000000000001</ele>
        <time>2018-07-07T09:22:12Z</time>
      </trkpt>
      <trkpt lat="47.959449011832476" lon="-2.976719001308084">
        <ele>119.34</ele>
        <time>2018-07-07T09:22:23Z</time>
      </trkpt>
      <trkpt lat="47.958949031308293" lon="-2.975600017234683">
        <ele>120.78</ele>
        <time>2018-07-07T09:22:33Z</time>
      </trkpt>
      <trkpt lat="47.958902008831501" lon="-2.975497003644705">
        <ele>120.78</ele>
        <time>2018-07-07T09:22:34Z</time>
      </trkpt>
      <trkpt lat="47.958653988316655" lon="-2.974945977330208">
        <ele>119.34</ele>
        <time>2018-07-07T09:22:40Z</time>
      </trkpt>
      <trkpt lat="47.958613000810146" lon="-2.97486299648881">
        <ele>118.86</ele>
        <time>2018-07-07T09:22:41Z</time>
      </trkpt>
      <trkpt lat="47.958571007475257" lon="-2.974773980677128">
        <ele>118.86</ele>
        <time>2018-07-07T09:22:42Z</time>
      </trkpt>
      <trkpt lat="47.958530019968748" lon="-2.974677002057433">
        <ele>118.86</ele>
        <time>2018-07-07T09:22:43Z</time>
      </trkpt>
      <trkpt lat="47.958489032462239" lon="-2.9745820350945">
        <ele>118.38</ele>
        <time>2018-07-07T09:22:44Z</time>
      </trkpt>
      <trkpt lat="47.958376966416836" lon="-2.974319010972977">
        <ele>117.90000000000001</ele>
        <time>2018-07-07T09:22:47Z</time>
      </trkpt>
      <trkpt lat="47.958347965031862" lon="-2.974249022081494">
        <ele>117.42</ele>
        <time>2018-07-07T09:22:48Z</time>
      </trkpt>
      <trkpt lat="47.958322986960411" lon="-2.974190013483167">
        <ele>116.94</ele>
        <time>2018-07-07T09:22:49Z</time>
      </trkpt>
      <trkpt lat="47.95829901471734" lon="-2.974134022369981">
        <ele>116.45999999999999</ele>
        <time>2018-07-07T09:22:50Z</time>
      </trkpt>
      <trkpt lat="47.958276970311999" lon="-2.974080964922905">
        <ele>116.45999999999999</ele>
        <time>2018-07-07T09:22:51Z</time>
      </trkpt>
      <trkpt lat="47.958254003897309" lon="-2.974027991294861">
        <ele>115.98</ele>
        <time>2018-07-07T09:22:52Z</time>
      </trkpt>
      <trkpt lat="47.958231959491968" lon="-2.973976023495197">
        <ele>115.5</ele>
        <time>2018-07-07T09:22:53Z</time>
      </trkpt>
      <trkpt lat="47.958175968378782" lon="-2.973843002691865">
        <ele>115.01000000000001</ele>
        <time>2018-07-07T09:22:55Z</time>
      </trkpt>
      <trkpt lat="47.958145039156079" lon="-2.973771002143621">
        <ele>114.53</ele>
        <time>2018-07-07T09:22:56Z</time>
      </trkpt>
      <trkpt lat="47.958112014457583" lon="-2.973692966625094">
        <ele>114.53</ele>
        <time>2018-07-07T09:22:57Z</time>
      </trkpt>
      <trkpt lat="47.958079995587468" lon="-2.97361702658236">
        <ele>114.05</ele>
        <time>2018-07-07T09:22:58Z</time>
      </trkpt>
      <trkpt lat="47.958048982545733" lon="-2.973546031862497">
        <ele>113.56999999999999</ele>
        <time>2018-07-07T09:22:59Z</time>
      </trkpt>
      <trkpt lat="47.958017969503999" lon="-2.973473025485873">
        <ele>113.56999999999999</ele>
        <time>2018-07-07T09:23:00Z</time>
      </trkpt>
      <trkpt lat="47.957986034452915" lon="-2.973395995795727">
        <ele>113.56999999999999</ele>
        <time>2018-07-07T09:23:01Z</time>
      </trkpt>
      <trkpt lat="47.9579540155828" lon="-2.973322989419103">
        <ele>113.56999999999999</ele>
        <time>2018-07-07T09:23:02Z</time>
      </trkpt>
      <trkpt lat="47.957925014197826" lon="-2.97325300052762">
        <ele>113.09</ele>
        <time>2018-07-07T09:23:03Z</time>
      </trkpt>
      <trkpt lat="47.957877991721034" lon="-2.973125008866191">
        <ele>113.09</ele>
        <time>2018-07-07T09:23:05Z</time>
      </trkpt>
      <trkpt lat="47.957800962030888" lon="-2.972912024706602">
        <ele>113.09</ele>
        <time>2018-07-07T09:23:08Z</time>
      </trkpt>
      <trkpt lat="47.957771960645914" lon="-2.972830971702933">
        <ele>112.61</ele>
        <time>2018-07-07T09:23:09Z</time>
      </trkpt>
      <trkpt lat="47.957743965089321" lon="-2.972755031660199">
        <ele>112.61</ele>
        <time>2018-07-07T09:23:10Z</time>
      </trkpt>
      <trkpt lat="47.957625025883317" lon="-2.972356975078583">
        <ele>112.13</ele>
        <time>2018-07-07T09:23:15Z</time>
      </trkpt>
      <trkpt lat="47.957595018669963" lon="-2.972136028110981">
        <ele>112.13</ele>
        <time>2018-07-07T09:23:17Z</time>
      </trkpt>
      <trkpt lat="47.957578003406525" lon="-2.972008958458901">
        <ele>111.65000000000001</ele>
        <time>2018-07-07T09:23:18Z</time>
      </trkpt>
      <trkpt lat="47.957426039502025" lon="-2.970901038497686">
        <ele>109.73</ele>
        <time>2018-07-07T09:23:25Z</time>
      </trkpt>
      <trkpt lat="47.957201991230249" lon="-2.970126969739795">
        <ele>107.31999999999999</ele>
        <time>2018-07-07T09:23:30Z</time>
      </trkpt>
      <trkpt lat="47.957152035087347" lon="-2.969954973086715">
        <ele>106.84</ele>
        <time>2018-07-07T09:23:31Z</time>
      </trkpt>
      <trkpt lat="47.956608971580863" lon="-2.968072984367609">
        <ele>105.88</ele>
        <time>2018-07-07T09:23:42Z</time>
      </trkpt>
      <trkpt lat="47.955775978043675" lon="-2.965212995186448">
        <ele>105.88</ele>
        <time>2018-07-07T09:23:58Z</time>
      </trkpt>
      <trkpt lat="47.955570034682751" lon="-2.964429035782814">
        <ele>106.84</ele>
        <time>2018-07-07T09:24:02Z</time>
      </trkpt>
      <trkpt lat="47.955223023891449" lon="-2.962434981018305">
        <ele>106.36</ele>
        <time>2018-07-07T09:24:09Z</time>
      </trkpt>
      <trkpt lat="47.954820021986961" lon="-2.959966007620096">
        <ele>102.04000000000001</ele>
        <time>2018-07-07T09:24:18Z</time>
      </trkpt>
      <trkpt lat="47.95404301956296" lon="-2.95694500207901">
        <ele>91.939999999999998</ele>
        <time>2018-07-07T09:24:28Z</time>
      </trkpt>
      <trkpt lat="47.953193010762334" lon="-2.953523006290197">
        <ele>91.459999999999994</ele>
        <time>2018-07-07T09:24:39Z</time>
      </trkpt>
      <trkpt lat="47.952534025534987" lon="-2.950356993824244">
        <ele>104.44</ele>
        <time>2018-07-07T09:24:50Z</time>
      </trkpt>
      <trkpt lat="47.951843021437526" lon="-2.947604041546583">
        <ele>112.13</ele>
        <time>2018-07-07T09:25:00Z</time>
      </trkpt>
      <trkpt lat="47.950794026255608" lon="-2.944540036842227">
        <ele>110.20999999999999</ele>
        <time>2018-07-07T09:25:11Z</time>
      </trkpt>
      <trkpt lat="47.949954997748137" lon="-2.942107021808624">
        <ele>116.94</ele>
        <time>2018-07-07T09:25:20Z</time>
      </trkpt>
      <trkpt lat="47.949846033006907" lon="-2.94186101295054">
        <ele>117.42</ele>
        <time>2018-07-07T09:25:21Z</time>
      </trkpt>
      <trkpt lat="47.949702031910419" lon="-2.94164702296257">
        <ele>117.90000000000001</ele>
        <time>2018-07-07T09:25:22Z</time>
      </trkpt>
      <trkpt lat="47.948245005682111" lon="-2.939469991251826">
        <ele>115.5</ele>
        <time>2018-07-07T09:25:31Z</time>
      </trkpt>
      <trkpt lat="47.94712501578033" lon="-2.937539974227548">
        <ele>112.13</ele>
        <time>2018-07-07T09:25:39Z</time>
      </trkpt>
      <trkpt lat="47.945991028100252" lon="-2.934745028614998">
        <ele>102.04000000000001</ele>
        <time>2018-07-07T09:25:49Z</time>
      </trkpt>
      <trkpt lat="47.944889981299639" lon="-2.932014958932996">
        <ele>89.540000000000006</ele>
        <time>2018-07-07T09:25:59Z</time>
      </trkpt>
      <trkpt lat="47.943845009431243" lon="-2.929627960547805">
        <ele>79.450000000000003</ele>
        <time>2018-07-07T09:26:08Z</time>
      </trkpt>
      <trkpt lat="47.943708971142769" lon="-2.929391004145145">
        <ele>78</ele>
        <time>2018-07-07T09:26:09Z</time>
      </trkpt>
      <trkpt lat="47.942277006804943" lon="-2.927428968250752">
        <ele>69.349999999999994</ele>
        <time>2018-07-07T09:26:18Z</time>
      </trkpt>
      <trkpt lat="47.941309986636043" lon="-2.92622197419405">
        <ele>65.510000000000005</ele>
        <time>2018-07-07T09:26:25Z</time>
      </trkpt>
      <trkpt lat="47.940778993070126" lon="-2.925675977021456">
        <ele>63.100000000000001</ele>
        <time>2018-07-07T09:26:29Z</time>
      </trkpt>
      <trkpt lat="47.940615965053439" lon="-2.925586039200425">
        <ele>62.619999999999997</ele>
        <time>2018-07-07T09:26:30Z</time>
      </trkpt>
      <trkpt lat="47.940446985885501" lon="-2.925494005903602">
        <ele>61.659999999999997</ele>
        <time>2018-07-07T09:26:31Z</time>
      </trkpt>
      <trkpt lat="47.939942982047796" lon="-2.925303988158703">
        <ele>59.259999999999998</ele>
        <time>2018-07-07T09:26:34Z</time>
      </trkpt>
      <trkpt lat="47.939781965687871" lon="-2.925202986225486">
        <ele>58.780000000000001</ele>
        <time>2018-07-07T09:26:35Z</time>
      </trkpt>
      <trkpt lat="47.939626984298229" lon="-2.925056973472238">
        <ele>57.82</ele>
        <time>2018-07-07T09:26:36Z</time>
      </trkpt>
      <trkpt lat="47.939490024000406" lon="-2.924881037324667">
        <ele>57.340000000000003</ele>
        <time>2018-07-07T09:26:37Z</time>
      </trkpt>
      <trkpt lat="47.939359014853835" lon="-2.924684984609485">
        <ele>56.369999999999997</ele>
        <time>2018-07-07T09:26:38Z</time>
      </trkpt>
      <trkpt lat="47.939246026799083" lon="-2.924466971307993">
        <ele>55.409999999999997</ele>
        <time>2018-07-07T09:26:39Z</time>
      </trkpt>
      <trkpt lat="47.93913303874433" lon="-2.924250969663262">
        <ele>54.93</ele>
        <time>2018-07-07T09:26:40Z</time>
      </trkpt>
      <trkpt lat="47.939012004062533" lon="-2.924057012423873">
        <ele>53.969999999999999</ele>
        <time>2018-07-07T09:26:41Z</time>
      </trkpt>
      <trkpt lat="47.938875965774059" lon="-2.923887027427554">
        <ele>53.490000000000002</ele>
        <time>2018-07-07T09:26:42Z</time>
      </trkpt>
      <trkpt lat="47.93833801522851" lon="-2.92325695976615">
        <ele>53.009999999999998</ele>
        <time>2018-07-07T09:26:46Z</time>
      </trkpt>
      <trkpt lat="47.938230978325009" lon="-2.923075994476676">
        <ele>52.530000000000001</ele>
        <time>2018-07-07T09:26:47Z</time>
      </trkpt>
      <trkpt lat="47.938141962513328" lon="-2.922850018367171">
        <ele>52.049999999999997</ele>
        <time>2018-07-07T09:26:48Z</time>
      </trkpt>
      <trkpt lat="47.938079014420509" lon="-2.922610966488719">
        <ele>51.57</ele>
        <time>2018-07-07T09:26:49Z</time>
      </trkpt>
      <trkpt lat="47.938014976680279" lon="-2.922368980944157">
        <ele>51.090000000000003</ele>
        <time>2018-07-07T09:26:50Z</time>
      </trkpt>
      <trkpt lat="47.937978012487292" lon="-2.922102017328143">
        <ele>50.130000000000003</ele>
        <time>2018-07-07T09:26:51Z</time>
      </trkpt>
      <trkpt lat="47.937966026365757" lon="-2.921842010691762">
        <ele>49.649999999999999</ele>
        <time>2018-07-07T09:26:52Z</time>
      </trkpt>
      <trkpt lat="47.937954040244222" lon="-2.921589966863394">
        <ele>48.68</ele>
        <time>2018-07-07T09:26:53Z</time>
      </trkpt>
      <trkpt lat="47.937941970303655" lon="-2.921332977712154">
        <ele>47.719999999999999</ele>
        <time>2018-07-07T09:26:54Z</time>
      </trkpt>
      <trkpt lat="47.937941970303655" lon="-2.921110019087791">
        <ele>47.240000000000002</ele>
        <time>2018-07-07T09:26:55Z</time>
      </trkpt>
      <trkpt lat="47.937913974747062" lon="-2.920889994129539">
        <ele>46.280000000000001</ele>
        <time>2018-07-07T09:26:56Z</time>
      </trkpt>
      <trkpt lat="47.937854966148734" lon="-2.92067801579833">
        <ele>45.32</ele>
        <time>2018-07-07T09:26:57Z</time>
      </trkpt>
      <trkpt lat="47.937792018055916" lon="-2.920453967526555">
        <ele>44.359999999999999</ele>
        <time>2018-07-07T09:26:58Z</time>
      </trkpt>
      <trkpt lat="47.937680035829544" lon="-2.920319018885493">
        <ele>43.399999999999999</ele>
        <time>2018-07-07T09:26:59Z</time>
      </trkpt>
      <trkpt lat="47.937557995319366" lon="-2.920173006132245">
        <ele>42.439999999999998</ele>
        <time>2018-07-07T09:27:00Z</time>
      </trkpt>
      <trkpt lat="47.937428997829556" lon="-2.920051971450448">
        <ele>41.950000000000003</ele>
        <time>2018-07-07T09:27:01Z</time>
      </trkpt>
      <trkpt lat="47.937288014218211" lon="-2.919997991994023">
        <ele>40.990000000000002</ele>
        <time>2018-07-07T09:27:02Z</time>
      </trkpt>
      <trkpt lat="47.937154993414879" lon="-2.91994703002274">
        <ele>40.509999999999998</ele>
        <time>2018-07-07T09:27:03Z</time>
      </trkpt>
      <trkpt lat="47.937031025066972" lon="-2.919900007545948">
        <ele>40.509999999999998</ele>
        <time>2018-07-07T09:27:04Z</time>
      </trkpt>
      <trkpt lat="47.936357958242297" lon="-2.919537993147969">
        <ele>41.469999999999999</ele>
        <time>2018-07-07T09:27:10Z</time>
      </trkpt>
      <trkpt lat="47.936215968802571" lon="-2.919392986223102">
        <ele>41.950000000000003</ele>
        <time>2018-07-07T09:27:11Z</time>
      </trkpt>
      <trkpt lat="47.936084959656" lon="-2.919206991791725">
        <ele>43.399999999999999</ele>
        <time>2018-07-07T09:27:12Z</time>
      </trkpt>
      <trkpt lat="47.935117017477751" lon="-2.917349981144071">
        <ele>48.200000000000003</ele>
        <time>2018-07-07T09:27:19Z</time>
      </trkpt>
      <trkpt lat="47.934272959828377" lon="-2.915429016575217">
        <ele>52.049999999999997</ele>
        <time>2018-07-07T09:27:26Z</time>
      </trkpt>
      <trkpt lat="47.934027034789324" lon="-2.91496298275888">
        <ele>53.009999999999998</ele>
        <time>2018-07-07T09:27:28Z</time>
      </trkpt>
      <trkpt lat="47.932888017967343" lon="-2.913461029529572">
        <ele>56.369999999999997</ele>
        <time>2018-07-07T09:27:35Z</time>
      </trkpt>
      <trkpt lat="47.932382002472878" lon="-2.912973035126925">
        <ele>58.780000000000001</ele>
        <time>2018-07-07T09:27:38Z</time>
      </trkpt>
      <trkpt lat="47.932244958356023" lon="-2.91283599101007">
        <ele>59.259999999999998</ele>
        <time>2018-07-07T09:27:39Z</time>
      </trkpt>
      <trkpt lat="47.932146973907948" lon="-2.912653014063835">
        <ele>59.740000000000002</ele>
        <time>2018-07-07T09:27:40Z</time>
      </trkpt>
      <trkpt lat="47.932061981409788" lon="-2.912445981055498">
        <ele>60.700000000000003</ele>
        <time>2018-07-07T09:27:41Z</time>
      </trkpt>
      <trkpt lat="47.932004984468222" lon="-2.912221010774374">
        <ele>61.18</ele>
        <time>2018-07-07T09:27:42Z</time>
      </trkpt>
      <trkpt lat="47.931948993355036" lon="-2.911979025229812">
        <ele>61.659999999999997</ele>
        <time>2018-07-07T09:27:43Z</time>
      </trkpt>
      <trkpt lat="47.931723017245531" lon="-2.91044999845326">
        <ele>66.469999999999999</ele>
        <time>2018-07-07T09:27:50Z</time>
      </trkpt>
      <trkpt lat="47.931697033345699" lon="-2.910252017900348">
        <ele>67.430000000000007</ele>
        <time>2018-07-07T09:27:51Z</time>
      </trkpt>
      <trkpt lat="47.931688986718655" lon="-2.910039033740759">
        <ele>68.390000000000001</ele>
        <time>2018-07-07T09:27:52Z</time>
      </trkpt>
      <trkpt lat="47.931681023910642" lon="-2.909820014610887">
        <ele>68.870000000000005</ele>
        <time>2018-07-07T09:27:53Z</time>
      </trkpt>
      <trkpt lat="47.931682029739022" lon="-2.909597977995873">
        <ele>69.349999999999994</ele>
        <time>2018-07-07T09:27:54Z</time>
      </trkpt>
      <trkpt lat="47.931755958124995" lon="-2.90862400084734">
        <ele>72.719999999999999</ele>
        <time>2018-07-07T09:27:58Z</time>
      </trkpt>
      <trkpt lat="47.93182703666389" lon="-2.908390983939171">
        <ele>73.200000000000003</ele>
        <time>2018-07-07T09:27:59Z</time>
      </trkpt>
      <trkpt lat="47.931899037212133" lon="-2.908156961202622">
        <ele>74.159999999999997</ele>
        <time>2018-07-07T09:28:00Z</time>
      </trkpt>
      <trkpt lat="47.93212903663516" lon="-2.907404014840722">
        <ele>76.079999999999998</ele>
        <time>2018-07-07T09:28:03Z</time>
      </trkpt>
      <trkpt lat="47.932548969984055" lon="-2.905769040808082">
        <ele>80.409999999999997</ele>
        <time>2018-07-07T09:28:10Z</time>
      </trkpt>
      <trkpt lat="47.932951971888542" lon="-2.904019989073277">
        <ele>88.579999999999998</ele>
        <time>2018-07-07T09:28:20Z</time>
      </trkpt>
      <trkpt lat="47.933350028470159" lon="-2.902257023379207">
        <ele>91.939999999999998</ele>
        <time>2018-07-07T09:28:31Z</time>
      </trkpt>
      <trkpt lat="47.933489000424743" lon="-2.90162100456655">
        <ele>92.900000000000006</ele>
        <time>2018-07-07T09:28:35Z</time>
      </trkpt>
      <trkpt lat="47.93350400403142" lon="-2.901469962671399">
        <ele>93.390000000000001</ele>
        <time>2018-07-07T09:28:36Z</time>
      </trkpt>
      <trkpt lat="47.933520013466477" lon="-2.901006024330854">
        <ele>93.870000000000005</ele>
        <time>2018-07-07T09:28:39Z</time>
      </trkpt>
      <trkpt lat="47.933535017073154" lon="-2.900701006874442">
        <ele>93.870000000000005</ele>
        <time>2018-07-07T09:28:41Z</time>
      </trkpt>
      <trkpt lat="47.933693015947938" lon="-2.898936029523611">
        <ele>96.269999999999996</ele>
        <time>2018-07-07T09:28:53Z</time>
      </trkpt>
      <trkpt lat="47.933714976534247" lon="-2.898695971816778">
        <ele>95.790000000000006</ele>
        <time>2018-07-07T09:28:55Z</time>
      </trkpt>
      <trkpt lat="47.933700978755951" lon="-2.898624977096915">
        <ele>95.790000000000006</ele>
        <time>2018-07-07T09:28:56Z</time>
      </trkpt>
      <trkpt lat="47.933651022613049" lon="-2.898545013740659">
        <ele>95.790000000000006</ele>
        <time>2018-07-07T09:28:57Z</time>
      </trkpt>
      <trkpt lat="47.933605005964637" lon="-2.89848399348557">
        <ele>95.790000000000006</ele>
        <time>2018-07-07T09:28:58Z</time>
      </trkpt>
      <trkpt lat="47.933539962396026" lon="-2.898395983502269">
        <ele>96.269999999999996</ele>
        <time>2018-07-07T09:28:59Z</time>
      </trkpt>
      <trkpt lat="47.932939985767007" lon="-2.897729035466909">
        <ele>96.269999999999996</ele>
        <time>2018-07-07T09:29:08Z</time>
      </trkpt>
      <trkpt lat="47.932524997740984" lon="-2.897378001362085">
        <ele>95.790000000000006</ele>
        <time>2018-07-07T09:29:15Z</time>
      </trkpt>
      <trkpt lat="47.931843968108296" lon="-2.896834015846252">
        <ele>98.670000000000002</ele>
        <time>2018-07-07T09:29:25Z</time>
      </trkpt>
      <trkpt lat="47.930916007608175" lon="-2.896087020635605">
        <ele>103</ele>
        <time>2018-07-07T09:29:35Z</time>
      </trkpt>
      <trkpt lat="47.930369004607201" lon="-2.895642025396228">
        <ele>105.40000000000001</ele>
        <time>2018-07-07T09:29:44Z</time>
      </trkpt>
      <trkpt lat="47.930237995460629" lon="-2.895532976835966">
        <ele>105.88</ele>
        <time>2018-07-07T09:29:46Z</time>
      </trkpt>
      <trkpt lat="47.93017303571105" lon="-2.895478997379541">
        <ele>106.36</ele>
        <time>2018-07-07T09:29:47Z</time>
      </trkpt>
      <trkpt lat="47.929595019668341" lon="-2.894995026290417">
        <ele>108.77</ele>
        <time>2018-07-07T09:29:54Z</time>
      </trkpt>
      <trkpt lat="47.92866999283433" lon="-2.894265968352556">
        <ele>112.13</ele>
        <time>2018-07-07T09:30:03Z</time>
      </trkpt>
      <trkpt lat="47.928351983428001" lon="-2.894019037485123">
        <ele>114.05</ele>
        <time>2018-07-07T09:30:08Z</time>
      </trkpt>
      <trkpt lat="47.928292974829674" lon="-2.893974026665092">
        <ele>114.53</ele>
        <time>2018-07-07T09:30:09Z</time>
      </trkpt>
      <trkpt lat="47.92753198184073" lon="-2.893401039764285">
        <ele>119.34</ele>
        <time>2018-07-07T09:30:21Z</time>
      </trkpt>
      <trkpt lat="47.926807031035423" lon="-2.892926037311554">
        <ele>120.3</ele>
        <time>2018-07-07T09:30:28Z</time>
      </trkpt>
      <trkpt lat="47.925565000623465" lon="-2.892061024904251">
        <ele>121.26000000000001</ele>
        <time>2018-07-07T09:30:35Z</time>
      </trkpt>
      <trkpt lat="47.923607993870974" lon="-2.890769960358739">
        <ele>115.5</ele>
        <time>2018-07-07T09:30:44Z</time>
      </trkpt>
      <trkpt lat="47.92151796631515" lon="-2.889390969648957">
        <ele>107.81</ele>
        <time>2018-07-07T09:30:54Z</time>
      </trkpt>
      <trkpt lat="47.918844977393746" lon="-2.887572012841702">
        <ele>102.52</ele>
        <time>2018-07-07T09:31:08Z</time>
      </trkpt>
      <trkpt lat="47.916938010603189" lon="-2.886257981881499">
        <ele>96.75</ele>
        <time>2018-07-07T09:31:18Z</time>
      </trkpt>
      <trkpt lat="47.916348008438945" lon="-2.885923041030765">
        <ele>95.310000000000002</ele>
        <time>2018-07-07T09:31:21Z</time>
      </trkpt>
      <trkpt lat="47.916152961552143" lon="-2.885832013562322">
        <ele>94.829999999999998</ele>
        <time>2018-07-07T09:31:22Z</time>
      </trkpt>
      <trkpt lat="47.914277007803321" lon="-2.885352987796068">
        <ele>91.939999999999998</ele>
        <time>2018-07-07T09:31:31Z</time>
      </trkpt>
      <trkpt lat="47.912904974073172" lon="-2.884678998962045">
        <ele>92.420000000000002</ele>
        <time>2018-07-07T09:31:38Z</time>
      </trkpt>
      <trkpt lat="47.911707032471895" lon="-2.883617011830211">
        <ele>94.349999999999994</ele>
        <time>2018-07-07T09:31:45Z</time>
      </trkpt>
      <trkpt lat="47.910652002319694" lon="-2.882866999134421">
        <ele>94.829999999999998</ele>
        <time>2018-07-07T09:31:51Z</time>
      </trkpt>
      <trkpt lat="47.908675968647003" lon="-2.8815539740026">
        <ele>98.189999999999998</ele>
        <time>2018-07-07T09:32:02Z</time>
      </trkpt>
      <trkpt lat="47.908510006964207" lon="-2.881387006491423">
        <ele>98.189999999999998</ele>
        <time>2018-07-07T09:32:03Z</time>
      </trkpt>
      <trkpt lat="47.907945988699794" lon="-2.88067102432251">
        <ele>100.11</ele>
        <time>2018-07-07T09:32:07Z</time>
      </trkpt>
      <trkpt lat="47.907842975109816" lon="-2.880446976050735">
        <ele>100.59999999999999</ele>
        <time>2018-07-07T09:32:08Z</time>
      </trkpt>
      <trkpt lat="47.907750019803643" lon="-2.880195016041398">
        <ele>100.59999999999999</ele>
        <time>2018-07-07T09:32:09Z</time>
      </trkpt>
      <trkpt lat="47.907687993720174" lon="-2.879915982484818">
        <ele>100.59999999999999</ele>
        <time>2018-07-07T09:32:10Z</time>
      </trkpt>
      <trkpt lat="47.907650023698807" lon="-2.879615994170308">
        <ele>101.08</ele>
        <time>2018-07-07T09:32:11Z</time>
      </trkpt>
      <trkpt lat="47.907626973465085" lon="-2.879312988370657">
        <ele>101.56</ele>
        <time>2018-07-07T09:32:12Z</time>
      </trkpt>
      <trkpt lat="47.907459000125527" lon="-2.876794980838895">
        <ele>111.17</ele>
        <time>2018-07-07T09:32:21Z</time>
      </trkpt>
      <trkpt lat="47.907345006242394" lon="-2.875562002882361">
        <ele>115.98</ele>
        <time>2018-07-07T09:32:27Z</time>
      </trkpt>
      <trkpt lat="47.907306030392647" lon="-2.875350024551153">
        <ele>116.45999999999999</ele>
        <time>2018-07-07T09:32:28Z</time>
      </trkpt>
      <trkpt lat="47.90724903345108" lon="-2.875134022906423">
        <ele>116.94</ele>
        <time>2018-07-07T09:32:29Z</time>
      </trkpt>
      <trkpt lat="47.907153982669115" lon="-2.874931013211608">
        <ele>117.90000000000001</ele>
        <time>2018-07-07T09:32:30Z</time>
      </trkpt>
      <trkpt lat="47.907058009877801" lon="-2.874723980203271">
        <ele>118.86</ele>
        <time>2018-07-07T09:32:31Z</time>
      </trkpt>
      <trkpt lat="47.90675500407815" lon="-2.874073041602969">
        <ele>121.73999999999999</ele>
        <time>2018-07-07T09:32:34Z</time>
      </trkpt>
      <trkpt lat="47.905196975916624" lon="-2.870773002505302">
        <ele>130.88</ele>
        <time>2018-07-07T09:32:49Z</time>
      </trkpt>
      <trkpt lat="47.904517035931349" lon="-2.869468024000526">
        <ele>133.75999999999999</ele>
        <time>2018-07-07T09:32:55Z</time>
      </trkpt>
      <trkpt lat="47.904373034834862" lon="-2.869268031790853">
        <ele>134.24000000000001</ele>
        <time>2018-07-07T09:32:56Z</time>
      </trkpt>
      <trkpt lat="47.904203971847892" lon="-2.869098968803883">
        <ele>135.19999999999999</ele>
        <time>2018-07-07T09:32:57Z</time>
      </trkpt>
      <trkpt lat="47.902550976723433" lon="-2.867468018084765">
        <ele>139.53</ele>
        <time>2018-07-07T09:33:06Z</time>
      </trkpt>
      <trkpt lat="47.902177982032299" lon="-2.867133999243379">
        <ele>140.00999999999999</ele>
        <time>2018-07-07T09:33:08Z</time>
      </trkpt>
      <trkpt lat="47.901970027014613" lon="-2.866999972611666">
        <ele>140.00999999999999</ele>
        <time>2018-07-07T09:33:09Z</time>
      </trkpt>
      <trkpt lat="47.899492001160979" lon="-2.865521991625428">
        <ele>140.49000000000001</ele>
        <time>2018-07-07T09:33:21Z</time>
      </trkpt>
      <trkpt lat="47.897040965035558" lon="-2.864061025902629">
        <ele>139.53</ele>
        <time>2018-07-07T09:33:34Z</time>
      </trkpt>
      <trkpt lat="47.895808992907405" lon="-2.863332973793149">
        <ele>140.49000000000001</ele>
        <time>2018-07-07T09:33:41Z</time>
      </trkpt>
      <trkpt lat="47.894802996888757" lon="-2.862529987469316">
        <ele>139.53</ele>
        <time>2018-07-07T09:33:48Z</time>
      </trkpt>
      <trkpt lat="47.894586995244026" lon="-2.862363019958139">
        <ele>139.05000000000001</ele>
        <time>2018-07-07T09:33:50Z</time>
      </trkpt>
      <trkpt lat="47.89448699913919" lon="-2.86230300553143">
        <ele>138.56999999999999</ele>
        <time>2018-07-07T09:33:51Z</time>
      </trkpt>
      <trkpt lat="47.894394965842366" lon="-2.86230300553143">
        <ele>138.09</ele>
        <time>2018-07-07T09:33:52Z</time>
      </trkpt>
      <trkpt lat="47.89431500248611" lon="-2.862310968339443">
        <ele>137.61000000000001</ele>
        <time>2018-07-07T09:33:53Z</time>
      </trkpt>
      <trkpt lat="47.894214000552893" lon="-2.862278027459979">
        <ele>137.13</ele>
        <time>2018-07-07T09:33:54Z</time>
      </trkpt>
      <trkpt lat="47.894176030531526" lon="-2.862181970849633">
        <ele>136.63999999999999</ele>
        <time>2018-07-07T09:33:55Z</time>
      </trkpt>
      <trkpt lat="47.894147029146552" lon="-2.86210997030139">
        <ele>136.16</ele>
        <time>2018-07-07T09:33:56Z</time>
      </trkpt>
      <trkpt lat="47.894150968641043" lon="-2.861877037212253">
        <ele>135.68000000000001</ele>
        <time>2018-07-07T09:33:57Z</time>
      </trkpt>
      <trkpt lat="47.89407997392118" lon="-2.861764971166849">
        <ele>135.19999999999999</ele>
        <time>2018-07-07T09:33:58Z</time>
      </trkpt>
      <trkpt lat="47.894000010564923" lon="-2.861638991162181">
        <ele>134.72</ele>
        <time>2018-07-07T09:33:59Z</time>
      </trkpt>
      <trkpt lat="47.893913006410003" lon="-2.861502030864358">
        <ele>134.72</ele>
        <time>2018-07-07T09:34:00Z</time>
      </trkpt>
      <trkpt lat="47.893781997263432" lon="-2.861294997856021">
        <ele>133.75999999999999</ele>
        <time>2018-07-07T09:34:02Z</time>
      </trkpt>
      <trkpt lat="47.893644031137228" lon="-2.861039014533162">
        <ele>133.28</ele>
        <time>2018-07-07T09:34:03Z</time>
      </trkpt>
      <trkpt lat="47.893555015325546" lon="-2.860853020101786">
        <ele>132.80000000000001</ele>
        <time>2018-07-07T09:34:04Z</time>
      </trkpt>
      <trkpt lat="47.893464993685484" lon="-2.860664008185267">
        <ele>132.31999999999999</ele>
        <time>2018-07-07T09:34:05Z</time>
      </trkpt>
      <trkpt lat="47.893377989530563" lon="-2.86047700792551">
        <ele>131.84</ele>
        <time>2018-07-07T09:34:06Z</time>
      </trkpt>
      <trkpt lat="47.893217978999019" lon="-2.859806036576629">
        <ele>130.40000000000001</ele>
        <time>2018-07-07T09:34:09Z</time>
      </trkpt>
      <trkpt lat="47.892752029001713" lon="-2.857363969087601">
        <ele>121.26000000000001</ele>
        <time>2018-07-07T09:34:18Z</time>
      </trkpt>
      <trkpt lat="47.892279960215092" lon="-2.855339990928769">
        <ele>116.45999999999999</ele>
        <time>2018-07-07T09:34:26Z</time>
      </trkpt>
      <trkpt lat="47.891645031049848" lon="-2.853631004691124">
        <ele>114.53</ele>
        <time>2018-07-07T09:34:34Z</time>
      </trkpt>
      <trkpt lat="47.891226019710302" lon="-2.851919000968337">
        <ele>112.13</ele>
        <time>2018-07-07T09:34:42Z</time>
      </trkpt>
      <trkpt lat="47.891182014718652" lon="-2.851739963516593">
        <ele>112.13</ele>
        <time>2018-07-07T09:34:43Z</time>
      </trkpt>
      <trkpt lat="47.890862999483943" lon="-2.850389974191785">
        <ele>112.13</ele>
        <time>2018-07-07T09:34:52Z</time>
      </trkpt>
      <trkpt lat="47.890544990077615" lon="-2.849080972373486">
        <ele>114.05</ele>
        <time>2018-07-07T09:35:00Z</time>
      </trkpt>
      <trkpt lat="47.890369975939393" lon="-2.847589999437332">
        <ele>108.29000000000001</ele>
        <time>2018-07-07T09:35:09Z</time>
      </trkpt>
      <trkpt lat="47.890392020344734" lon="-2.847111979499459">
        <ele>105.88</ele>
        <time>2018-07-07T09:35:12Z</time>
      </trkpt>
      <trkpt lat="47.890412975102663" lon="-2.846939982846379">
        <ele>104.44</ele>
        <time>2018-07-07T09:35:13Z</time>
      </trkpt>
      <trkpt lat="47.890458991751075" lon="-2.846794975921512">
        <ele>103.95999999999999</ele>
        <time>2018-07-07T09:35:14Z</time>
      </trkpt>
      <trkpt lat="47.890675999224186" lon="-2.845999030396342">
        <ele>100.59999999999999</ele>
        <time>2018-07-07T09:35:19Z</time>
      </trkpt>
      <trkpt lat="47.890692008659244" lon="-2.845887970179319">
        <ele>100.59999999999999</ele>
        <time>2018-07-07T09:35:20Z</time>
      </trkpt>
      <trkpt lat="47.890653032809496" lon="-2.845693007111549">
        <ele>101.08</ele>
        <time>2018-07-07T09:35:21Z</time>
      </trkpt>
      <trkpt lat="47.890623025596142" lon="-2.845542971044779">
        <ele>101.08</ele>
        <time>2018-07-07T09:35:22Z</time>
      </trkpt>
      <trkpt lat="47.890582960098982" lon="-2.845406010746956">
        <ele>101.56</ele>
        <time>2018-07-07T09:35:23Z</time>
      </trkpt>
      <trkpt lat="47.890522023662925" lon="-2.845270978286862">
        <ele>102.04000000000001</ele>
        <time>2018-07-07T09:35:24Z</time>
      </trkpt>
      <trkpt lat="47.88991098292172" lon="-2.843896010890603">
        <ele>107.31999999999999</ele>
        <time>2018-07-07T09:35:34Z</time>
      </trkpt>
      <trkpt lat="47.889325004070997" lon="-2.842354997992516">
        <ele>108.77</ele>
        <time>2018-07-07T09:35:46Z</time>
      </trkpt>
      <trkpt lat="47.889011017978191" lon="-2.84148302860558">
        <ele>106.84</ele>
        <time>2018-07-07T09:35:53Z</time>
      </trkpt>
      <trkpt lat="47.88892200216651" lon="-2.841228973120451">
        <ele>105.88</ele>
        <time>2018-07-07T09:35:55Z</time>
      </trkpt>
      <trkpt lat="47.88887900300324" lon="-2.841106010600925">
        <ele>104.92</ele>
        <time>2018-07-07T09:35:56Z</time>
      </trkpt>
      <trkpt lat="47.888426966965199" lon="-2.839715033769608">
        <ele>98.670000000000002</ele>
        <time>2018-07-07T09:36:08Z</time>
      </trkpt>
      <trkpt lat="47.888392014428973" lon="-2.839604979380965">
        <ele>98.189999999999998</ele>
        <time>2018-07-07T09:36:09Z</time>
      </trkpt>
      <trkpt lat="47.888354966416955" lon="-2.839489979669452">
        <ele>98.189999999999998</ele>
        <time>2018-07-07T09:36:10Z</time>
      </trkpt>
      <trkpt lat="47.888140976428986" lon="-2.838799981400371">
        <ele>94.349999999999994</ele>
        <time>2018-07-07T09:36:16Z</time>
      </trkpt>
      <trkpt lat="47.888051960617304" lon="-2.83862697891891">
        <ele>93.390000000000001</ele>
        <time>2018-07-07T09:36:18Z</time>
      </trkpt>
      <trkpt lat="47.887928998097777" lon="-2.838448025286198">
        <ele>91.459999999999994</ele>
        <time>2018-07-07T09:36:21Z</time>
      </trkpt>
      <trkpt lat="47.887899996712804" lon="-2.838405026122928">
        <ele>90.980000000000004</ele>
        <time>2018-07-07T09:36:22Z</time>
      </trkpt>
      <trkpt lat="47.887878958135843" lon="-2.838352974504232">
        <ele>90.5</ele>
        <time>2018-07-07T09:36:23Z</time>
      </trkpt>
      <trkpt lat="47.887864960357547" lon="-2.838200004771352">
        <ele>90.019999999999996</ele>
        <time>2018-07-07T09:36:25Z</time>
      </trkpt>
      <trkpt lat="47.887858003377914" lon="-2.838123980909586">
        <ele>90.019999999999996</ele>
        <time>2018-07-07T09:36:26Z</time>
      </trkpt>
      <trkpt lat="47.887838976457715" lon="-2.837924994528294">
        <ele>89.060000000000002</ele>
        <time>2018-07-07T09:36:29Z</time>
      </trkpt>
      <trkpt lat="47.887834031134844" lon="-2.837866991758347">
        <ele>88.579999999999998</ele>
        <time>2018-07-07T09:36:30Z</time>
      </trkpt>
      <trkpt lat="47.887829001992941" lon="-2.837814018130302">
        <ele>89.060000000000002</ele>
        <time>2018-07-07T09:36:31Z</time>
      </trkpt>
      <trkpt lat="47.887822967022657" lon="-2.837760038673878">
        <ele>89.060000000000002</ele>
        <time>2018-07-07T09:36:32Z</time>
      </trkpt>
      <trkpt lat="47.887817015871406" lon="-2.837690971791744">
        <ele>88.579999999999998</ele>
        <time>2018-07-07T09:36:33Z</time>
      </trkpt>
      <trkpt lat="47.887813998386264" lon="-2.837646966800094">
        <ele>88.579999999999998</ele>
        <time>2018-07-07T09:36:34Z</time>
      </trkpt>
      <trkpt lat="47.887809975072742" lon="-2.837585024535656">
        <ele>88.579999999999998</ele>
        <time>2018-07-07T09:36:35Z</time>
      </trkpt>
      <trkpt lat="47.887806035578251" lon="-2.837517969310284">
        <ele>88.579999999999998</ele>
        <time>2018-07-07T09:36:36Z</time>
      </trkpt>
      <trkpt lat="47.887802012264729" lon="-2.837452003732324">
        <ele>88.579999999999998</ele>
        <time>2018-07-07T09:36:37Z</time>
      </trkpt>
      <trkpt lat="47.887797988951206" lon="-2.837394000962377">
        <ele>88.579999999999998</ele>
        <time>2018-07-07T09:36:38Z</time>
      </trkpt>
      <trkpt lat="47.887794971466064" lon="-2.837346978485584">
        <ele>88.579999999999998</ele>
        <time>2018-07-07T09:36:39Z</time>
      </trkpt>
      <trkpt lat="47.887792959809303" lon="-2.837314959615469">
        <ele>89.060000000000002</ele>
        <time>2018-07-07T09:36:40Z</time>
      </trkpt>
      <trkpt lat="47.887791031971574" lon="-2.83729400485754">
        <ele>89.060000000000002</ele>
        <time>2018-07-07T09:36:41Z</time>
      </trkpt>
      <trkpt lat="47.887791031971574" lon="-2.83729400485754">
        <ele>89.540000000000006</ele>
        <time>2018-07-07T09:36:51Z</time>
      </trkpt>
      <trkpt lat="47.887791031971574" lon="-2.83729400485754">
        <ele>89.540000000000006</ele>
        <time>2018-07-07T09:37:13Z</time>
      </trkpt>
      <trkpt lat="47.887789020314813" lon="-2.83724999986589">
        <ele>89.540000000000006</ele>
        <time>2018-07-07T09:37:19Z</time>
      </trkpt>
      <trkpt lat="47.887787008658051" lon="-2.837218986824155">
        <ele>90.019999999999996</ele>
        <time>2018-07-07T09:37:20Z</time>
      </trkpt>
      <trkpt lat="47.88778399117291" lon="-2.837185962125659">
        <ele>90.019999999999996</ele>
        <time>2018-07-07T09:37:21Z</time>
      </trkpt>
      <trkpt lat="47.887781979516149" lon="-2.837156038731337">
        <ele>90.5</ele>
        <time>2018-07-07T09:37:22Z</time>
      </trkpt>
      <trkpt lat="47.887780973687768" lon="-2.837127037346363">
        <ele>90.980000000000004</ele>
        <time>2018-07-07T09:37:23Z</time>
      </trkpt>
      <trkpt lat="47.887780973687768" lon="-2.837127037346363">
        <ele>90.980000000000004</ele>
        <time>2018-07-07T09:37:24Z</time>
      </trkpt>
      <trkpt lat="47.887792037799954" lon="-2.836954034864903">
        <ele>90.5</ele>
        <time>2018-07-07T09:37:29Z</time>
      </trkpt>
      <trkpt lat="47.88780796341598" lon="-2.836889997124672">
        <ele>90.980000000000004</ele>
        <time>2018-07-07T09:37:30Z</time>
      </trkpt>
      <trkpt lat="47.887823972851038" lon="-2.836826965212822">
        <ele>90.980000000000004</ele>
        <time>2018-07-07T09:37:31Z</time>
      </trkpt>
      <trkpt lat="47.887837970629334" lon="-2.836771979928017">
        <ele>90.5</ele>
        <time>2018-07-07T09:37:32Z</time>
      </trkpt>
      <trkpt lat="47.887860015034676" lon="-2.836681958287954">
        <ele>90.5</ele>
        <time>2018-07-07T09:37:33Z</time>
      </trkpt>
      <trkpt lat="47.887910977005959" lon="-2.836758987978101">
        <ele>90.5</ele>
        <time>2018-07-07T09:37:34Z</time>
      </trkpt>
      <trkpt lat="47.887926986441016" lon="-2.836783966049552">
        <ele>90.019999999999996</ele>
        <time>2018-07-07T09:37:35Z</time>
      </trkpt>
      <trkpt lat="47.887944001704454" lon="-2.836809027940035">
        <ele>90.019999999999996</ele>
        <time>2018-07-07T09:37:36Z</time>
      </trkpt>
      <trkpt lat="47.887923968955874" lon="-2.836983036249876">
        <ele>89.540000000000006</ele>
        <time>2018-07-07T09:37:46Z</time>
      </trkpt>
      <trkpt lat="47.887715008109808" lon="-2.837011031806469">
        <ele>89.060000000000002</ele>
        <time>2018-07-07T09:37:59Z</time>
      </trkpt>
      <trkpt lat="47.887701010331511" lon="-2.837008014321327">
        <ele>89.540000000000006</ele>
        <time>2018-07-07T09:38:15Z</time>
      </trkpt>
      <trkpt lat="47.887701010331511" lon="-2.837008014321327">
        <ele>88.579999999999998</ele>
        <time>2018-07-07T09:38:49Z</time>
      </trkpt>
      <trkpt lat="47.887749038636684" lon="-2.836920004338026">
        <ele>113.09</ele>
        <time>2018-07-07T09:48:52Z</time>
      </trkpt>
      <trkpt lat="47.887720037251711" lon="-2.837039027363062">
        <ele>103</ele>
        <time>2018-07-07T09:49:20Z</time>
      </trkpt>
      <trkpt lat="47.88767896592617" lon="-2.837066017091274">
        <ele>102.04000000000001</ele>
        <time>2018-07-07T09:50:09Z</time>
      </trkpt>
      <trkpt lat="47.887677038088441" lon="-2.837068028748035">
        <ele>102.52</ele>
        <time>2018-07-07T09:50:45Z</time>
      </trkpt>
      <trkpt lat="47.887677038088441" lon="-2.837068028748035">
        <ele>102.52</ele>
        <time>2018-07-07T09:50:55Z</time>
      </trkpt>
      <trkpt lat="47.887647030875087" lon="-2.836994016543031">
        <ele>102.04000000000001</ele>
        <time>2018-07-07T09:50:57Z</time>
      </trkpt>
      <trkpt lat="47.887601014226675" lon="-2.836983036249876">
        <ele>102.04000000000001</ele>
        <time>2018-07-07T09:50:58Z</time>
      </trkpt>
      <trkpt lat="47.887548040598631" lon="-2.836969960480928">
        <ele>101.56</ele>
        <time>2018-07-07T09:50:59Z</time>
      </trkpt>
      <trkpt lat="47.887508980929852" lon="-2.836956968531013">
        <ele>102.04000000000001</ele>
        <time>2018-07-07T09:51:00Z</time>
      </trkpt>
      <trkpt lat="47.887474028393626" lon="-2.836936013773084">
        <ele>102.04000000000001</ele>
        <time>2018-07-07T09:51:01Z</time>
      </trkpt>
      <trkpt lat="47.887260038405657" lon="-2.836725041270256">
        <ele>102.04000000000001</ele>
        <time>2018-07-07T09:51:09Z</time>
      </trkpt>
      <trkpt lat="47.887242017313838" lon="-2.836679024621844">
        <ele>102.04000000000001</ele>
        <time>2018-07-07T09:51:10Z</time>
      </trkpt>
      <trkpt lat="47.887212010100484" lon="-2.836604006588459">
        <ele>102.04000000000001</ele>
        <time>2018-07-07T09:51:12Z</time>
      </trkpt>
      <trkpt lat="47.887199018150568" lon="-2.836570981889963">
        <ele>102.04000000000001</ele>
        <time>2018-07-07T09:51:13Z</time>
      </trkpt>
      <trkpt lat="47.887188037857413" lon="-2.83654198050499">
        <ele>102.04000000000001</ele>
        <time>2018-07-07T09:51:14Z</time>
      </trkpt>
      <trkpt lat="47.887108996510506" lon="-2.836339976638556">
        <ele>99.150000000000006</ele>
        <time>2018-07-07T09:51:22Z</time>
      </trkpt>
      <trkpt lat="47.887108996510506" lon="-2.836339976638556">
        <ele>99.150000000000006</ele>
        <time>2018-07-07T09:51:23Z</time>
      </trkpt>
      <trkpt lat="47.887044036760926" lon="-2.836103020235896">
        <ele>98.189999999999998</ele>
        <time>2018-07-07T09:51:26Z</time>
      </trkpt>
      <trkpt lat="47.887005982920527" lon="-2.835611002519727">
        <ele>96.269999999999996</ele>
        <time>2018-07-07T09:51:36Z</time>
      </trkpt>
      <trkpt lat="47.88701101206243" lon="-2.835561968386173">
        <ele>95.790000000000006</ele>
        <time>2018-07-07T09:51:37Z</time>
      </trkpt>
      <trkpt lat="47.887015035375953" lon="-2.835517041385174">
        <ele>95.310000000000002</ele>
        <time>2018-07-07T09:51:38Z</time>
      </trkpt>
      <trkpt lat="47.887017969042063" lon="-2.835484016686678">
        <ele>95.310000000000002</ele>
        <time>2018-07-07T09:51:39Z</time>
      </trkpt>
      <trkpt lat="47.887022998183966" lon="-2.835438000038266">
        <ele>94.829999999999998</ele>
        <time>2018-07-07T09:51:40Z</time>
      </trkpt>
      <trkpt lat="47.887022998183966" lon="-2.835438000038266">
        <ele>94.349999999999994</ele>
        <time>2018-07-07T09:51:45Z</time>
      </trkpt>
      <trkpt lat="47.887039007619023" lon="-2.835344960913062">
        <ele>93.390000000000001</ele>
        <time>2018-07-07T09:51:46Z</time>
      </trkpt>
      <trkpt lat="47.887088041752577" lon="-2.835305985063314">
        <ele>93.390000000000001</ele>
        <time>2018-07-07T09:51:47Z</time>
      </trkpt>
      <trkpt lat="47.88728803396225" lon="-2.835148992016912">
        <ele>93.390000000000001</ele>
        <time>2018-07-07T09:51:51Z</time>
      </trkpt>
      <trkpt lat="47.887345030903816" lon="-2.835116973146796">
        <ele>93.390000000000001</ele>
        <time>2018-07-07T09:51:52Z</time>
      </trkpt>
      <trkpt lat="47.887485008686781" lon="-2.835045978426933">
        <ele>93.390000000000001</ele>
        <time>2018-07-07T09:51:55Z</time>
      </trkpt>
      <trkpt lat="47.887519961223006" lon="-2.835028963163495">
        <ele>93.390000000000001</ele>
        <time>2018-07-07T09:51:56Z</time>
      </trkpt>
      <trkpt lat="47.88754896260798" lon="-2.835014965385199">
        <ele>93.870000000000005</ele>
        <time>2018-07-07T09:51:57Z</time>
      </trkpt>
      <trkpt lat="47.887587016448379" lon="-2.835087971761823">
        <ele>93.870000000000005</ele>
        <time>2018-07-07T09:51:58Z</time>
      </trkpt>
      <trkpt lat="47.887610988691449" lon="-2.835154021158814">
        <ele>94.349999999999994</ele>
        <time>2018-07-07T09:51:59Z</time>
      </trkpt>
      <trkpt lat="47.88763496093452" lon="-2.835221998393536">
        <ele>94.829999999999998</ele>
        <time>2018-07-07T09:52:00Z</time>
      </trkpt>
      <trkpt lat="47.887660022825003" lon="-2.835292993113399">
        <ele>94.829999999999998</ele>
        <time>2018-07-07T09:52:01Z</time>
      </trkpt>
      <trkpt lat="47.887708973139524" lon="-2.835627011954784">
        <ele>96.269999999999996</ele>
        <time>2018-07-07T09:52:05Z</time>
      </trkpt>
      <trkpt lat="47.887745015323162" lon="-2.835804037749767">
        <ele>96.75</ele>
        <time>2018-07-07T09:52:07Z</time>
      </trkpt>
      <trkpt lat="47.887787008658051" lon="-2.836052980273962">
        <ele>98.189999999999998</ele>
        <time>2018-07-07T09:52:10Z</time>
      </trkpt>
      <trkpt lat="47.887796983122826" lon="-2.836120035499334">
        <ele>98.670000000000002</ele>
        <time>2018-07-07T09:52:11Z</time>
      </trkpt>
      <trkpt lat="47.887816010043025" lon="-2.836325978860259">
        <ele>99.150000000000006</ele>
        <time>2018-07-07T09:52:14Z</time>
      </trkpt>
      <trkpt lat="47.887824978679419" lon="-2.836405020207167">
        <ele>99.150000000000006</ele>
        <time>2018-07-07T09:52:15Z</time>
      </trkpt>
      <trkpt lat="47.887835036963224" lon="-2.836482971906662">
        <ele>99.150000000000006</ele>
        <time>2018-07-07T09:52:16Z</time>
      </trkpt>
      <trkpt lat="47.887911982834339" lon="-2.836643988266587">
        <ele>100.59999999999999</ele>
        <time>2018-07-07T09:52:22Z</time>
      </trkpt>
      <trkpt lat="47.887940984219313" lon="-2.836622027680278">
        <ele>100.59999999999999</ele>
        <time>2018-07-07T09:52:23Z</time>
      </trkpt>
      <trkpt lat="47.887980965897441" lon="-2.836592020466924">
        <ele>101.08</ele>
        <time>2018-07-07T09:52:24Z</time>
      </trkpt>
      <trkpt lat="47.88802002556622" lon="-2.83656301908195">
        <ele>101.08</ele>
        <time>2018-07-07T09:52:25Z</time>
      </trkpt>
      <trkpt lat="47.888069981709123" lon="-2.836531000211835">
        <ele>101.56</ele>
        <time>2018-07-07T09:52:26Z</time>
      </trkpt>
      <trkpt lat="47.888120021671057" lon="-2.8364999871701">
        <ele>101.56</ele>
        <time>2018-07-07T09:52:27Z</time>
      </trkpt>
      <trkpt lat="47.888172995299101" lon="-2.836467968299985">
        <ele>102.04000000000001</ele>
        <time>2018-07-07T09:52:28Z</time>
      </trkpt>
      <trkpt lat="47.888226974755526" lon="-2.836435027420521">
        <ele>102.04000000000001</ele>
        <time>2018-07-07T09:52:29Z</time>
      </trkpt>
      <trkpt lat="47.888339962810278" lon="-2.836366966366768">
        <ele>102.52</ele>
        <time>2018-07-07T09:52:31Z</time>
      </trkpt>
      <trkpt lat="47.888400983065367" lon="-2.836328996345401">
        <ele>102.52</ele>
        <time>2018-07-07T09:52:32Z</time>
      </trkpt>
      <trkpt lat="47.888534003868699" lon="-2.836249032989144">
        <ele>103.48</ele>
        <time>2018-07-07T09:52:34Z</time>
      </trkpt>
      <trkpt lat="47.888599969446659" lon="-2.836216008290649">
        <ele>103.48</ele>
        <time>2018-07-07T09:52:35Z</time>
      </trkpt>
      <trkpt lat="47.888790993019938" lon="-2.836121041327715">
        <ele>104.44</ele>
        <time>2018-07-07T09:52:38Z</time>
      </trkpt>
      <trkpt lat="47.888850001618266" lon="-2.836083993315697">
        <ele>104.92</ele>
        <time>2018-07-07T09:52:39Z</time>
      </trkpt>
      <trkpt lat="47.888912027701735" lon="-2.836036970838904">
        <ele>105.40000000000001</ele>
        <time>2018-07-07T09:52:40Z</time>
      </trkpt>
      <trkpt lat="47.888971036300063" lon="-2.835991038009524">
        <ele>106.36</ele>
        <time>2018-07-07T09:52:41Z</time>
      </trkpt>
      <trkpt lat="47.889033984392881" lon="-2.835942003875971">
        <ele>106.84</ele>
        <time>2018-07-07T09:52:42Z</time>
      </trkpt>
      <trkpt lat="47.889097016304731" lon="-2.835892969742417">
        <ele>107.31999999999999</ele>
        <time>2018-07-07T09:52:43Z</time>
      </trkpt>
      <trkpt lat="47.88915703073144" lon="-2.835847036913037">
        <ele>107.31999999999999</ele>
        <time>2018-07-07T09:52:44Z</time>
      </trkpt>
      <trkpt lat="47.889216961339116" lon="-2.835801020264626">
        <ele>107.81</ele>
        <time>2018-07-07T09:52:45Z</time>
      </trkpt>
      <trkpt lat="47.889406979084015" lon="-2.835654001682997">
        <ele>109.25</ele>
        <time>2018-07-07T09:52:48Z</time>
      </trkpt>
      <trkpt lat="47.889740997925401" lon="-2.835410004481673">
        <ele>111.17</ele>
        <time>2018-07-07T09:52:53Z</time>
      </trkpt>
      <trkpt lat="47.889812998473644" lon="-2.83535803668201">
        <ele>111.65000000000001</ele>
        <time>2018-07-07T09:52:54Z</time>
      </trkpt>
      <trkpt lat="47.889887010678649" lon="-2.835304979234934">
        <ele>112.13</ele>
        <time>2018-07-07T09:52:55Z</time>
      </trkpt>
      <trkpt lat="47.890689997002482" lon="-2.834726041182876">
        <ele>116.45999999999999</ele>
        <time>2018-07-07T09:53:04Z</time>
      </trkpt>
      <trkpt lat="47.891219984740019" lon="-2.83424399793148">
        <ele>117.90000000000001</ele>
        <time>2018-07-07T09:53:09Z</time>
      </trkpt>
      <trkpt lat="47.891408996656537" lon="-2.833996983245015">
        <ele>117.42</ele>
        <time>2018-07-07T09:53:11Z</time>
      </trkpt>
      <trkpt lat="47.89150002412498" lon="-2.833924982696772">
        <ele>116.94</ele>
        <time>2018-07-07T09:53:12Z</time>
      </trkpt>
      <trkpt lat="47.891594991087914" lon="-2.833860022947192">
        <ele>116.94</ele>
        <time>2018-07-07T09:53:13Z</time>
      </trkpt>
      <trkpt lat="47.891792971640825" lon="-2.833719961345196">
        <ele>116.45999999999999</ele>
        <time>2018-07-07T09:53:16Z</time>
      </trkpt>
      <trkpt lat="47.891847034916282" lon="-2.833681991323829">
        <ele>115.98</ele>
        <time>2018-07-07T09:53:17Z</time>
      </trkpt>
      <trkpt lat="47.891924986615777" lon="-2.833442017436028">
        <ele>115.98</ele>
        <time>2018-07-07T09:53:19Z</time>
      </trkpt>
      <trkpt lat="47.892000004649162" lon="-2.833409998565912">
        <ele>115.98</ele>
        <time>2018-07-07T09:53:20Z</time>
      </trkpt>
      <trkpt lat="47.892078962177038" lon="-2.833301033824682">
        <ele>115.5</ele>
        <time>2018-07-07T09:53:21Z</time>
      </trkpt>
      <trkpt lat="47.892136964946985" lon="-2.833172958344221">
        <ele>115.01000000000001</ele>
        <time>2018-07-07T09:53:22Z</time>
      </trkpt>
      <trkpt lat="47.8921880107373" lon="-2.833037003874779">
        <ele>114.53</ele>
        <time>2018-07-07T09:53:23Z</time>
      </trkpt>
      <trkpt lat="47.892389008775353" lon="-2.832582034170628">
        <ele>113.09</ele>
        <time>2018-07-07T09:53:26Z</time>
      </trkpt>
      <trkpt lat="47.89246897213161" lon="-2.832441972568631">
        <ele>112.61</ele>
        <time>2018-07-07T09:53:27Z</time>
      </trkpt>
      <trkpt lat="47.892568968236446" lon="-2.832338036969304">
        <ele>113.09</ele>
        <time>2018-07-07T09:53:28Z</time>
      </trkpt>
      <trkpt lat="47.893269024789333" lon="-2.831561034545302">
        <ele>117.42</ele>
        <time>2018-07-07T09:53:35Z</time>
      </trkpt>
      <trkpt lat="47.893359968438745" lon="-2.831413010135293">
        <ele>118.38</ele>
        <time>2018-07-07T09:53:36Z</time>
      </trkpt>
      <trkpt lat="47.893443033099174" lon="-2.831245036795735">
        <ele>118.86</ele>
        <time>2018-07-07T09:53:37Z</time>
      </trkpt>
      <trkpt lat="47.893508998677135" lon="-2.831053007394075">
        <ele>119.34</ele>
        <time>2018-07-07T09:53:38Z</time>
      </trkpt>
      <trkpt lat="47.893576975911856" lon="-2.830857038497925">
        <ele>119.81999999999999</ele>
        <time>2018-07-07T09:53:39Z</time>
      </trkpt>
      <trkpt lat="47.89420897141099" lon="-2.828676989302039">
        <ele>116.45999999999999</ele>
        <time>2018-07-07T09:53:49Z</time>
      </trkpt>
      <trkpt lat="47.894715992733836" lon="-2.826933972537518">
        <ele>114.05</ele>
        <time>2018-07-07T09:53:56Z</time>
      </trkpt>
      <trkpt lat="47.894825041294098" lon="-2.826703973114491">
        <ele>114.05</ele>
        <time>2018-07-07T09:53:57Z</time>
      </trkpt>
      <trkpt lat="47.894934006035328" lon="-2.826476991176605">
        <ele>114.53</ele>
        <time>2018-07-07T09:53:58Z</time>
      </trkpt>
      <trkpt lat="47.896050978451967" lon="-2.824468016624451">
        <ele>121.26000000000001</ele>
        <time>2018-07-07T09:54:08Z</time>
      </trkpt>
      <trkpt lat="47.897462993860245" lon="-2.822052016854286">
        <ele>128.47</ele>
        <time>2018-07-07T09:54:20Z</time>
      </trkpt>
      <trkpt lat="47.898637969046831" lon="-2.819888982921839">
        <ele>130.40000000000001</ele>
        <time>2018-07-07T09:54:31Z</time>
      </trkpt>
      <trkpt lat="47.898788005113602" lon="-2.819467959925532">
        <ele>131.36000000000001</ele>
        <time>2018-07-07T09:54:34Z</time>
      </trkpt>
      <trkpt lat="47.898818012326956" lon="-2.819321025162935">
        <ele>131.36000000000001</ele>
        <time>2018-07-07T09:54:35Z</time>
      </trkpt>
      <trkpt lat="47.898802002891898" lon="-2.819208959117532">
        <ele>131.36000000000001</ele>
        <time>2018-07-07T09:54:36Z</time>
      </trkpt>
      <trkpt lat="47.898781970143318" lon="-2.818851973861456">
        <ele>131.36000000000001</ele>
        <time>2018-07-07T09:54:39Z</time>
      </trkpt>
      <trkpt lat="47.898792028427124" lon="-2.818737979978323">
        <ele>131.36000000000001</ele>
        <time>2018-07-07T09:54:40Z</time>
      </trkpt>
      <trkpt lat="47.898837039247155" lon="-2.818668996915221">
        <ele>131.36000000000001</ele>
        <time>2018-07-07T09:54:41Z</time>
      </trkpt>
      <trkpt lat="47.898905016481876" lon="-2.818646030500531">
        <ele>131.84</ele>
        <time>2018-07-07T09:54:42Z</time>
      </trkpt>
      <trkpt lat="47.898932006210089" lon="-2.818636978045106">
        <ele>131.84</ele>
        <time>2018-07-07T09:54:43Z</time>
      </trkpt>
      <trkpt lat="47.899065027013421" lon="-2.818535976111889">
        <ele>132.31999999999999</ele>
        <time>2018-07-07T09:54:44Z</time>
      </trkpt>
      <trkpt lat="47.899112971499562" lon="-2.818435980007052">
        <ele>132.31999999999999</ele>
        <time>2018-07-07T09:54:45Z</time>
      </trkpt>
      <trkpt lat="47.899167034775019" lon="-2.81832198612392">
        <ele>132.31999999999999</ele>
        <time>2018-07-07T09:54:46Z</time>
      </trkpt>
      <trkpt lat="47.899455958977342" lon="-2.817071992903948">
        <ele>128.94999999999999</ele>
        <time>2018-07-07T09:54:53Z</time>
      </trkpt>
      <trkpt lat="47.899509016424417" lon="-2.815355965867639">
        <ele>123.67</ele>
        <time>2018-07-07T09:55:00Z</time>
      </trkpt>
      <trkpt lat="47.899711020290852" lon="-2.813570033758879">
        <ele>122.22</ele>
        <time>2018-07-07T09:55:09Z</time>
      </trkpt>
      <trkpt lat="47.899961974471807" lon="-2.811237014830113">
        <ele>122.22</ele>
        <time>2018-07-07T09:55:21Z</time>
      </trkpt>
      <trkpt lat="47.899961974471807" lon="-2.811021013185382">
        <ele>122.22</ele>
        <time>2018-07-07T09:55:22Z</time>
      </trkpt>
      <trkpt lat="47.899930961430073" lon="-2.81080299988389">
        <ele>121.73999999999999</ele>
        <time>2018-07-07T09:55:23Z</time>
      </trkpt>
      <trkpt lat="47.899882011115551" lon="-2.810598984360695">
        <ele>122.22</ele>
        <time>2018-07-07T09:55:24Z</time>
      </trkpt>
      <trkpt lat="47.899834988638759" lon="-2.810402009636164">
        <ele>122.22</ele>
        <time>2018-07-07T09:55:25Z</time>
      </trkpt>
      <trkpt lat="47.899748990312219" lon="-2.810041001066566">
        <ele>122.70999999999999</ele>
        <time>2018-07-07T09:55:27Z</time>
      </trkpt>
      <trkpt lat="47.899720994755626" lon="-2.809872021898627">
        <ele>122.70999999999999</ele>
        <time>2018-07-07T09:55:28Z</time>
      </trkpt>
      <trkpt lat="47.89970900863409" lon="-2.809696001932025">
        <ele>122.70999999999999</ele>
        <time>2018-07-07T09:55:29Z</time>
      </trkpt>
      <trkpt lat="47.899714959785342" lon="-2.809526016935706">
        <ele>122.22</ele>
        <time>2018-07-07T09:55:30Z</time>
      </trkpt>
      <trkpt lat="47.89973197504878" lon="-2.80936298891902">
        <ele>122.22</ele>
        <time>2018-07-07T09:55:31Z</time>
      </trkpt>
      <trkpt lat="47.899746978655457" lon="-2.809216976165772">
        <ele>122.22</ele>
        <time>2018-07-07T09:55:32Z</time>
      </trkpt>
      <trkpt lat="47.899661986157298" lon="-2.809060988947749">
        <ele>122.22</ele>
        <time>2018-07-07T09:55:33Z</time>
      </trkpt>
      <trkpt lat="47.899661986157298" lon="-2.808939032256603">
        <ele>122.22</ele>
        <time>2018-07-07T09:55:34Z</time>
      </trkpt>
      <trkpt lat="47.899703979492188" lon="-2.808724958449602">
        <ele>122.22</ele>
        <time>2018-07-07T09:55:35Z</time>
      </trkpt>
      <trkpt lat="47.899840017780662" lon="-2.808658992871642">
        <ele>122.70999999999999</ele>
        <time>2018-07-07T09:55:36Z</time>
      </trkpt>
      <trkpt lat="47.899921992793679" lon="-2.808658992871642">
        <ele>123.19</ele>
        <time>2018-07-07T09:55:37Z</time>
      </trkpt>
      <trkpt lat="47.899961974471807" lon="-2.808658992871642">
        <ele>123.19</ele>
        <time>2018-07-07T09:55:38Z</time>
      </trkpt>
      <trkpt lat="47.900057025253773" lon="-2.808544998988509">
        <ele>123.67</ele>
        <time>2018-07-07T09:55:39Z</time>
      </trkpt>
      <trkpt lat="47.900130031630397" lon="-2.808457994833589">
        <ele>123.67</ele>
        <time>2018-07-07T09:55:40Z</time>
      </trkpt>
      <trkpt lat="47.900186022743583" lon="-2.808379037305713">
        <ele>123.67</ele>
        <time>2018-07-07T09:55:41Z</time>
      </trkpt>
      <trkpt lat="47.900645015761256" lon="-2.807180006057024">
        <ele>124.15000000000001</ele>
        <time>2018-07-07T09:55:48Z</time>
      </trkpt>
      <trkpt lat="47.901153964921832" lon="-2.804998029023409">
        <ele>129.91999999999999</ele>
        <time>2018-07-07T09:55:56Z</time>
      </trkpt>
      <trkpt lat="47.90161999873817" lon="-2.801490034908056">
        <ele>134.72</ele>
        <time>2018-07-07T09:56:06Z</time>
      </trkpt>
      <trkpt lat="47.902377974241972" lon="-2.796940002590418">
        <ele>137.13</ele>
        <time>2018-07-07T09:56:18Z</time>
      </trkpt>
      <trkpt lat="47.903032014146447" lon="-2.793439971283078">
        <ele>134.24000000000001</ele>
        <time>2018-07-07T09:56:28Z</time>
      </trkpt>
      <trkpt lat="47.903872970491648" lon="-2.788747027516365">
        <ele>128.47</ele>
        <time>2018-07-07T09:56:41Z</time>
      </trkpt>
      <trkpt lat="47.904785005375743" lon="-2.783390991389751">
        <ele>127.03</ele>
        <time>2018-07-07T09:56:55Z</time>
      </trkpt>
      <trkpt lat="47.905155988410115" lon="-2.7792629878968">
        <ele>127.03</ele>
        <time>2018-07-07T09:57:05Z</time>
      </trkpt>
      <trkpt lat="47.90559402666986" lon="-2.773727998137474">
        <ele>111.65000000000001</ele>
        <time>2018-07-07T09:57:18Z</time>
      </trkpt>
      <trkpt lat="47.906165001913905" lon="-2.768891975283623">
        <ele>103.95999999999999</ele>
        <time>2018-07-07T09:57:30Z</time>
      </trkpt>
      <trkpt lat="47.907110983505845" lon="-2.764165000990033">
        <ele>120.78</ele>
        <time>2018-07-07T09:57:42Z</time>
      </trkpt>
      <trkpt lat="47.908200966194272" lon="-2.760338997468352">
        <ele>138.09</ele>
        <time>2018-07-07T09:57:52Z</time>
      </trkpt>
      <trkpt lat="47.909520026296377" lon="-2.756647020578384">
        <ele>146.74000000000001</ele>
        <time>2018-07-07T09:58:02Z</time>
      </trkpt>
      <trkpt lat="47.911368990316987" lon="-2.75195499882102">
        <ele>152.50999999999999</ele>
        <time>2018-07-07T09:58:15Z</time>
      </trkpt>
      <trkpt lat="47.913380982354283" lon="-2.746918983757496">
        <ele>153.47</ele>
        <time>2018-07-07T09:58:29Z</time>
      </trkpt>
      <trkpt lat="47.914718985557556" lon="-2.743236981332302">
        <ele>150.58000000000001</ele>
        <time>2018-07-07T09:58:39Z</time>
      </trkpt>
      <trkpt lat="47.915838975459337" lon="-2.738933963701129">
        <ele>140.97</ele>
        <time>2018-07-07T09:58:50Z</time>
      </trkpt>
      <trkpt lat="47.917100032791495" lon="-2.733839023858309">
        <ele>125.59</ele>
        <time>2018-07-07T09:59:03Z</time>
      </trkpt>
      <trkpt lat="47.918152967467904" lon="-2.729583028703928">
        <ele>127.51000000000001</ele>
        <time>2018-07-07T09:59:14Z</time>
      </trkpt>
      <trkpt lat="47.919264994561672" lon="-2.724821018055081">
        <ele>128.47</ele>
        <time>2018-07-07T09:59:26Z</time>
      </trkpt>
      <trkpt lat="47.919749971479177" lon="-2.721143960952759">
        <ele>127.98999999999999</ele>
        <time>2018-07-07T09:59:35Z</time>
      </trkpt>
      <trkpt lat="47.919843010604382" lon="-2.720324965193868">
        <ele>128.94999999999999</ele>
        <time>2018-07-07T09:59:37Z</time>
      </trkpt>
      <trkpt lat="47.919891038909554" lon="-2.719906037673354">
        <ele>129.91999999999999</ele>
        <time>2018-07-07T09:59:38Z</time>
      </trkpt>
      <trkpt lat="47.920453967526555" lon="-2.714977981522679">
        <ele>129.91999999999999</ele>
        <time>2018-07-07T09:59:50Z</time>
      </trkpt>
      <trkpt lat="47.921007005497813" lon="-2.710020001977682">
        <ele>131.36000000000001</ele>
        <time>2018-07-07T10:00:02Z</time>
      </trkpt>
      <trkpt lat="47.921692980453372" lon="-2.703865002840757">
        <ele>132.80000000000001</ele>
        <time>2018-07-07T10:00:17Z</time>
      </trkpt>
      <trkpt lat="47.922083996236324" lon="-2.700572004541755">
        <ele>134.72</ele>
        <time>2018-07-07T10:00:25Z</time>
      </trkpt>
      <trkpt lat="47.922571990638971" lon="-2.696456992998719">
        <ele>135.68000000000001</ele>
        <time>2018-07-07T10:00:35Z</time>
      </trkpt>
      <trkpt lat="47.92325796559453" lon="-2.690688986331224">
        <ele>134.72</ele>
        <time>2018-07-07T10:00:49Z</time>
      </trkpt>
      <trkpt lat="47.923483019694686" lon="-2.686540028080344">
        <ele>134.24000000000001</ele>
        <time>2018-07-07T10:00:59Z</time>
      </trkpt>
      <trkpt lat="47.923421999439597" lon="-2.680733967572451">
        <ele>135.68000000000001</ele>
        <time>2018-07-07T10:01:13Z</time>
      </trkpt>
      <trkpt lat="47.92297700420022" lon="-2.677104016765952">
        <ele>136.16</ele>
        <time>2018-07-07T10:01:22Z</time>
      </trkpt>
      <trkpt lat="47.922536032274365" lon="-2.674316028133035">
        <ele>135.19999999999999</ele>
        <time>2018-07-07T10:01:29Z</time>
      </trkpt>
      <trkpt lat="47.922279965132475" lon="-2.670684987679124">
        <ele>137.61000000000001</ele>
        <time>2018-07-07T10:01:38Z</time>
      </trkpt>
      <trkpt lat="47.922481968998909" lon="-2.667012959718704">
        <ele>137.13</ele>
        <time>2018-07-07T10:01:47Z</time>
      </trkpt>
      <trkpt lat="47.923262994736433" lon="-2.660526959225535">
        <ele>133.28</ele>
        <time>2018-07-07T10:02:03Z</time>
      </trkpt>
      <trkpt lat="47.923975959420204" lon="-2.655292041599751">
        <ele>131.84</ele>
        <time>2018-07-07T10:02:16Z</time>
      </trkpt>
      <trkpt lat="47.924880031496286" lon="-2.651887983083725">
        <ele>128.47</ele>
        <time>2018-07-07T10:02:25Z</time>
      </trkpt>
      <trkpt lat="47.926426995545626" lon="-2.648015040904284">
        <ele>126.55</ele>
        <time>2018-07-07T10:02:36Z</time>
      </trkpt>
      <trkpt lat="47.928162971511483" lon="-2.643825011327863">
        <ele>125.59</ele>
        <time>2018-07-07T10:02:48Z</time>
      </trkpt>
      <trkpt lat="47.929931972175837" lon="-2.639176994562149">
        <ele>116.45999999999999</ele>
        <time>2018-07-07T10:03:01Z</time>
      </trkpt>
      <trkpt lat="47.931126980111003" lon="-2.634643977507949">
        <ele>117.90000000000001</ele>
        <time>2018-07-07T10:03:13Z</time>
      </trkpt>
      <trkpt lat="47.932321988046169" lon="-2.6309700217098">
        <ele>123.67</ele>
        <time>2018-07-07T10:03:23Z</time>
      </trkpt>
      <trkpt lat="47.93384900316596" lon="-2.628055969253182">
        <ele>126.06999999999999</ele>
        <time>2018-07-07T10:03:32Z</time>
      </trkpt>
      <trkpt lat="47.935762004926801" lon="-2.625682968646288">
        <ele>125.59</ele>
        <time>2018-07-07T10:03:41Z</time>
      </trkpt>
      <trkpt lat="47.938046995550394" lon="-2.622703034430742">
        <ele>120.3</ele>
        <time>2018-07-07T10:03:52Z</time>
      </trkpt>
      <trkpt lat="47.939475020393729" lon="-2.61977699585259">
        <ele>114.53</ele>
        <time>2018-07-07T10:04:01Z</time>
      </trkpt>
      <trkpt lat="47.941192975267768" lon="-2.615788970142603">
        <ele>110.20999999999999</ele>
        <time>2018-07-07T10:04:13Z</time>
      </trkpt>
      <trkpt lat="47.942924005910754" lon="-2.611369024962187">
        <ele>104.44</ele>
        <time>2018-07-07T10:04:26Z</time>
      </trkpt>
      <trkpt lat="47.943338993936777" lon="-2.608688995242119">
        <ele>103</ele>
        <time>2018-07-07T10:04:33Z</time>
      </trkpt>
      <trkpt lat="47.943295994773507" lon="-2.605923973023891">
        <ele>101.56</ele>
        <time>2018-07-07T10:04:40Z</time>
      </trkpt>
      <trkpt lat="47.943285014480352" lon="-2.602777993306518">
        <ele>98.189999999999998</ele>
        <time>2018-07-07T10:04:48Z</time>
      </trkpt>
      <trkpt lat="47.943811984732747" lon="-2.600116990506649">
        <ele>94.349999999999994</ele>
        <time>2018-07-07T10:04:55Z</time>
      </trkpt>
      <trkpt lat="47.945393985137343" lon="-2.593838023021817">
        <ele>86.180000000000007</ele>
        <time>2018-07-07T10:05:12Z</time>
      </trkpt>
      <trkpt lat="47.946122959256172" lon="-2.589636007323861">
        <ele>81.370000000000005</ele>
        <time>2018-07-07T10:05:23Z</time>
      </trkpt>
      <trkpt lat="47.946324963122606" lon="-2.587217995896936">
        <ele>78</ele>
        <time>2018-07-07T10:05:30Z</time>
      </trkpt>
      <trkpt lat="47.946627968922257" lon="-2.583731962367892">
        <ele>72.719999999999999</ele>
        <time>2018-07-07T10:05:41Z</time>
      </trkpt>
      <trkpt lat="47.947468003258109" lon="-2.581473961472511">
        <ele>65.030000000000001</ele>
        <time>2018-07-07T10:05:48Z</time>
      </trkpt>
      <trkpt lat="47.948561003431678" lon="-2.579733040183783">
        <ele>56.369999999999997</ele>
        <time>2018-07-07T10:05:55Z</time>
      </trkpt>
      <trkpt lat="47.950558997690678" lon="-2.576809013262391">
        <ele>48.200000000000003</ele>
        <time>2018-07-07T10:06:09Z</time>
      </trkpt>
      <trkpt lat="47.951795998960733" lon="-2.575688017532229">
        <ele>43.399999999999999</ele>
        <time>2018-07-07T10:06:16Z</time>
      </trkpt>
      <trkpt lat="47.95305403880775" lon="-2.575075970962644">
        <ele>40.990000000000002</ele>
        <time>2018-07-07T10:06:23Z</time>
      </trkpt>
      <trkpt lat="47.953977975994349" lon="-2.574468031525612">
        <ele>40.509999999999998</ele>
        <time>2018-07-07T10:06:30Z</time>
      </trkpt>
      <trkpt lat="47.954075038433075" lon="-2.57437901571393">
        <ele>40.509999999999998</ele>
        <time>2018-07-07T10:06:31Z</time>
      </trkpt>
      <trkpt lat="47.954096999019384" lon="-2.574139041826129">
        <ele>40.990000000000002</ele>
        <time>2018-07-07T10:06:32Z</time>
      </trkpt>
      <trkpt lat="47.954133963212371" lon="-2.573997974395752">
        <ele>40.990000000000002</ele>
        <time>2018-07-07T10:06:33Z</time>
      </trkpt>
      <trkpt lat="47.954155001789331" lon="-2.573811979964376">
        <ele>40.990000000000002</ele>
        <time>2018-07-07T10:06:34Z</time>
      </trkpt>
      <trkpt lat="47.954177968204021" lon="-2.573615005239844">
        <ele>40.509999999999998</ele>
        <time>2018-07-07T10:06:35Z</time>
      </trkpt>
      <trkpt lat="47.954305037856102" lon="-2.572018001228571">
        <ele>40.990000000000002</ele>
        <time>2018-07-07T10:06:43Z</time>
      </trkpt>
      <trkpt lat="47.954334961250424" lon="-2.571626985445619">
        <ele>41.469999999999999</ele>
        <time>2018-07-07T10:06:45Z</time>
      </trkpt>
      <trkpt lat="47.954349964857101" lon="-2.57143696770072">
        <ele>41.469999999999999</ele>
        <time>2018-07-07T10:06:46Z</time>
      </trkpt>
      <trkpt lat="47.954363040626049" lon="-2.571261031553149">
        <ele>41.950000000000003</ele>
        <time>2018-07-07T10:06:47Z</time>
      </trkpt>
      <trkpt lat="47.954532019793987" lon="-2.569374013692141">
        <ele>41.950000000000003</ele>
        <time>2018-07-07T10:06:58Z</time>
      </trkpt>
      <trkpt lat="47.954579964280128" lon="-2.568849977105856">
        <ele>41.469999999999999</ele>
        <time>2018-07-07T10:07:01Z</time>
      </trkpt>
      <trkpt lat="47.954598991200328" lon="-2.568670017644763">
        <ele>41.950000000000003</ele>
        <time>2018-07-07T10:07:02Z</time>
      </trkpt>
      <trkpt lat="47.954654982313514" lon="-2.567777009680867">
        <ele>41.950000000000003</ele>
        <time>2018-07-07T10:07:07Z</time>
      </trkpt>
      <trkpt lat="47.954650958999991" lon="-2.567607024684548">
        <ele>41.950000000000003</ele>
        <time>2018-07-07T10:07:08Z</time>
      </trkpt>
      <trkpt lat="47.954638972878456" lon="-2.567436033859849">
        <ele>42.439999999999998</ele>
        <time>2018-07-07T10:07:09Z</time>
      </trkpt>
      <trkpt lat="47.954605026170611" lon="-2.567279040813446">
        <ele>42.439999999999998</ele>
        <time>2018-07-07T10:07:10Z</time>
      </trkpt>
      <trkpt lat="47.9545590095222" lon="-2.567119030281901">
        <ele>42.439999999999998</ele>
        <time>2018-07-07T10:07:11Z</time>
      </trkpt>
      <trkpt lat="47.954511987045407" lon="-2.566960025578737">
        <ele>42.920000000000002</ele>
        <time>2018-07-07T10:07:12Z</time>
      </trkpt>
      <trkpt lat="47.954466976225376" lon="-2.566801020875573">
        <ele>42.920000000000002</ele>
        <time>2018-07-07T10:07:13Z</time>
      </trkpt>
      <trkpt lat="47.954305959865451" lon="-2.566191991791129">
        <ele>42.439999999999998</ele>
        <time>2018-07-07T10:07:17Z</time>
      </trkpt>
      <trkpt lat="47.954276958480477" lon="-2.566060982644558">
        <ele>42.439999999999998</ele>
        <time>2018-07-07T10:07:18Z</time>
      </trkpt>
      <trkpt lat="47.954276958480477" lon="-2.565937014296651">
        <ele>41.950000000000003</ele>
        <time>2018-07-07T10:07:19Z</time>
      </trkpt>
      <trkpt lat="47.954228008165956" lon="-2.564900005236268">
        <ele>41.469999999999999</ele>
        <time>2018-07-07T10:07:28Z</time>
      </trkpt>
      <trkpt lat="47.953984010964632" lon="-2.563692005351186">
        <ele>41.469999999999999</ele>
        <time>2018-07-07T10:07:36Z</time>
      </trkpt>
      <trkpt lat="47.953741019591689" lon="-2.562421979382634">
        <ele>39.549999999999997</ele>
        <time>2018-07-07T10:07:46Z</time>
      </trkpt>
      <trkpt lat="47.953591989353299" lon="-2.561684958636761">
        <ele>38.590000000000003</ele>
        <time>2018-07-07T10:07:54Z</time>
      </trkpt>
      <trkpt lat="47.953499034047127" lon="-2.56127399392426">
        <ele>38.590000000000003</ele>
        <time>2018-07-07T10:07:59Z</time>
      </trkpt>
      <trkpt lat="47.953333994373679" lon="-2.56043697707355">
        <ele>39.07</ele>
        <time>2018-07-07T10:08:08Z</time>
      </trkpt>
      <trkpt lat="47.95331597328186" lon="-2.560344021767378">
        <ele>39.549999999999997</ele>
        <time>2018-07-07T10:08:09Z</time>
      </trkpt>
      <trkpt lat="47.953260987997055" lon="-2.560064988210797">
        <ele>40.030000000000001</ele>
        <time>2018-07-07T10:08:12Z</time>
      </trkpt>
      <trkpt lat="47.953225029632449" lon="-2.559886034578085">
        <ele>40.030000000000001</ele>
        <time>2018-07-07T10:08:14Z</time>
      </trkpt>
      <trkpt lat="47.952990001067519" lon="-2.55878297612071">
        <ele>39.549999999999997</ele>
        <time>2018-07-07T10:08:26Z</time>
      </trkpt>
      <trkpt lat="47.952972985804081" lon="-2.558477958664298">
        <ele>38.109999999999999</ele>
        <time>2018-07-07T10:08:29Z</time>
      </trkpt>
      <trkpt lat="47.952979020774364" lon="-2.558371005579829">
        <ele>37.630000000000003</ele>
        <time>2018-07-07T10:08:30Z</time>
      </trkpt>
      <trkpt lat="47.953038029372692" lon="-2.557396022602916">
        <ele>35.229999999999997</ele>
        <time>2018-07-07T10:08:39Z</time>
      </trkpt>
      <trkpt lat="47.953045992180705" lon="-2.557295020669699">
        <ele>35.229999999999997</ele>
        <time>2018-07-07T10:08:40Z</time>
      </trkpt>
      <trkpt lat="47.953107012435794" lon="-2.556524975225329">
        <ele>33.780000000000001</ele>
        <time>2018-07-07T10:08:48Z</time>
      </trkpt>
      <trkpt lat="47.953124027699232" lon="-2.556318026036024">
        <ele>33.780000000000001</ele>
        <time>2018-07-07T10:08:50Z</time>
      </trkpt>
      <trkpt lat="47.953231986612082" lon="-2.555195018649101">
        <ele>31.859999999999999</ele>
        <time>2018-07-07T10:09:01Z</time>
      </trkpt>
      <trkpt lat="47.953241961076856" lon="-2.555098962038755">
        <ele>31.859999999999999</ele>
        <time>2018-07-07T10:09:02Z</time>
      </trkpt>
      <trkpt lat="47.953259982168674" lon="-2.55491397343576">
        <ele>31.379999999999999</ele>
        <time>2018-07-07T10:09:04Z</time>
      </trkpt>
      <trkpt lat="47.953278003260493" lon="-2.554728984832764">
        <ele>30.899999999999999</ele>
        <time>2018-07-07T10:09:06Z</time>
      </trkpt>
      <trkpt lat="47.953288983553648" lon="-2.554279966279864">
        <ele>29.940000000000001</ele>
        <time>2018-07-07T10:09:11Z</time>
      </trkpt>
      <trkpt lat="47.953280014917254" lon="-2.554187010973692">
        <ele>29.940000000000001</ele>
        <time>2018-07-07T10:09:12Z</time>
      </trkpt>
      <trkpt lat="47.953172978013754" lon="-2.55310800857842">
        <ele>28.5</ele>
        <time>2018-07-07T10:09:24Z</time>
      </trkpt>
      <trkpt lat="47.953165015205741" lon="-2.553016981109977">
        <ele>28.5</ele>
        <time>2018-07-07T10:09:25Z</time>
      </trkpt>
      <trkpt lat="47.953155962750316" lon="-2.552926959469914">
        <ele>28.5</ele>
        <time>2018-07-07T10:09:26Z</time>
      </trkpt>
      <trkpt lat="47.953157974407077" lon="-2.552828975021839">
        <ele>28.5</ele>
        <time>2018-07-07T10:09:27Z</time>
      </trkpt>
      <trkpt lat="47.953169960528612" lon="-2.552297981455922">
        <ele>28.02</ele>
        <time>2018-07-07T10:09:33Z</time>
      </trkpt>
      <trkpt lat="47.953161997720599" lon="-2.551967985928059">
        <ele>27.050000000000001</ele>
        <time>2018-07-07T10:09:38Z</time>
      </trkpt>
      <trkpt lat="47.95312101021409" lon="-2.55192699842155">
        <ele>26.57</ele>
        <time>2018-07-07T10:09:39Z</time>
      </trkpt>
      <trkpt lat="47.95303501188755" lon="-2.55184100009501">
        <ele>26.09</ele>
        <time>2018-07-07T10:09:41Z</time>
      </trkpt>
      <trkpt lat="47.95299201272428" lon="-2.55179800093174">
        <ele>26.09</ele>
        <time>2018-07-07T10:09:42Z</time>
      </trkpt>
      <trkpt lat="47.952950019389391" lon="-2.55175600759685">
        <ele>25.609999999999999</ele>
        <time>2018-07-07T10:09:43Z</time>
      </trkpt>
      <trkpt lat="47.952895034104586" lon="-2.551658023148775">
        <ele>25.609999999999999</ele>
        <time>2018-07-07T10:09:45Z</time>
      </trkpt>
      <trkpt lat="47.952875001356006" lon="-2.551602032035589">
        <ele>25.129999999999999</ele>
        <time>2018-07-07T10:09:46Z</time>
      </trkpt>
      <trkpt lat="47.952856980264187" lon="-2.551551992073655">
        <ele>25.129999999999999</ele>
        <time>2018-07-07T10:09:47Z</time>
      </trkpt>
      <trkpt lat="47.952834013849497" lon="-2.551488960161805">
        <ele>24.649999999999999</ele>
        <time>2018-07-07T10:09:48Z</time>
      </trkpt>
      <trkpt lat="47.952830996364355" lon="-2.551439004018903">
        <ele>24.170000000000002</ele>
        <time>2018-07-07T10:09:49Z</time>
      </trkpt>
      <trkpt lat="47.952828984707594" lon="-2.551381001248956">
        <ele>24.170000000000002</ele>
        <time>2018-07-07T10:09:50Z</time>
      </trkpt>
      <trkpt lat="47.952825967222452" lon="-2.55132501013577">
        <ele>23.690000000000001</ele>
        <time>2018-07-07T10:09:51Z</time>
      </trkpt>
      <trkpt lat="47.952805012464523" lon="-2.550886971876025">
        <ele>20.809999999999999</ele>
        <time>2018-07-07T10:10:02Z</time>
      </trkpt>
      <trkpt lat="47.952803000807762" lon="-2.550865011289716">
        <ele>20.809999999999999</ele>
        <time>2018-07-07T10:10:03Z</time>
      </trkpt>
      <trkpt lat="47.952803000807762" lon="-2.550865011289716">
        <ele>21.289999999999999</ele>
        <time>2018-07-07T10:10:18Z</time>
      </trkpt>
      <trkpt lat="47.952803000807762" lon="-2.550865011289716">
        <ele>21.289999999999999</ele>
        <time>2018-07-07T10:11:03Z</time>
      </trkpt>
      <trkpt lat="47.952783973887563" lon="-2.550468966364861">
        <ele>21.77</ele>
        <time>2018-07-07T10:11:10Z</time>
      </trkpt>
      <trkpt lat="47.952760001644492" lon="-2.549962028861046">
        <ele>20.809999999999999</ele>
        <time>2018-07-07T10:11:16Z</time>
      </trkpt>
      <trkpt lat="47.95275597833097" lon="-2.549888016656041">
        <ele>20.32</ele>
        <time>2018-07-07T10:11:17Z</time>
      </trkpt>
      <trkpt lat="47.952752960845828" lon="-2.549817021936178">
        <ele>19.84</ele>
        <time>2018-07-07T10:11:18Z</time>
      </trkpt>
      <trkpt lat="47.952749021351337" lon="-2.549747033044696">
        <ele>19.84</ele>
        <time>2018-07-07T10:11:19Z</time>
      </trkpt>
      <trkpt lat="47.952746003866196" lon="-2.549677966162562">
        <ele>19.359999999999999</ele>
        <time>2018-07-07T10:11:20Z</time>
      </trkpt>
      <trkpt lat="47.952695963904262" lon="-2.549055023118854">
        <ele>18.399999999999999</ele>
        <time>2018-07-07T10:11:30Z</time>
      </trkpt>
      <trkpt lat="47.952686995267868" lon="-2.548989979550242">
        <ele>18.879999999999999</ele>
        <time>2018-07-07T10:11:31Z</time>
      </trkpt>
      <trkpt lat="47.952677020803094" lon="-2.548923008143902">
        <ele>18.879999999999999</ele>
        <time>2018-07-07T10:11:32Z</time>
      </trkpt>
      <trkpt lat="47.952668974176049" lon="-2.548859976232052">
        <ele>19.359999999999999</ele>
        <time>2018-07-07T10:11:33Z</time>
      </trkpt>
      <trkpt lat="47.952660005539656" lon="-2.548799961805344">
        <ele>19.84</ele>
        <time>2018-07-07T10:11:34Z</time>
      </trkpt>
      <trkpt lat="47.952653970569372" lon="-2.548751011490822">
        <ele>19.84</ele>
        <time>2018-07-07T10:11:35Z</time>
      </trkpt>
      <trkpt lat="47.952599991112947" lon="-2.548668030649424">
        <ele>20.32</ele>
        <time>2018-07-07T10:11:36Z</time>
      </trkpt>
      <trkpt lat="47.952569983899593" lon="-2.548676999285817">
        <ele>21.289999999999999</ele>
        <time>2018-07-07T10:11:37Z</time>
      </trkpt>
      <trkpt lat="47.952533019706607" lon="-2.548686973750591">
        <ele>22.25</ele>
        <time>2018-07-07T10:11:38Z</time>
      </trkpt>
      <trkpt lat="47.95249798335135" lon="-2.548697032034397">
        <ele>22.73</ele>
        <time>2018-07-07T10:11:39Z</time>
      </trkpt>
      <trkpt lat="47.952204030007124" lon="-2.548871962353587">
        <ele>28.5</ele>
        <time>2018-07-07T10:11:49Z</time>
      </trkpt>
      <trkpt lat="47.952039996162057" lon="-2.549000037834048">
        <ele>26.57</ele>
        <time>2018-07-07T10:11:56Z</time>
      </trkpt>
      <trkpt lat="47.952039996162057" lon="-2.549000037834048">
        <ele>26.57</ele>
        <time>2018-07-07T10:11:57Z</time>
      </trkpt>
      <trkpt lat="47.952039996162057" lon="-2.549000037834048">
        <ele>25.609999999999999</ele>
        <time>2018-07-07T10:12:06Z</time>
      </trkpt>
      <trkpt lat="47.952039996162057" lon="-2.549000037834048">
        <ele>25.609999999999999</ele>
        <time>2018-07-07T10:12:32Z</time>
      </trkpt>
      <trkpt lat="47.952039996162057" lon="-2.549000037834048">
        <ele>25.609999999999999</ele>
        <time>2018-07-07T10:13:29Z</time>
      </trkpt>
      <trkpt lat="47.952039996162057" lon="-2.549000037834048">
        <ele>26.09</ele>
        <time>2018-07-07T10:14:15Z</time>
      </trkpt>
      <trkpt lat="47.951994985342026" lon="-2.548989979550242">
        <ele>26.09</ele>
        <time>2018-07-07T10:14:21Z</time>
      </trkpt>
      <trkpt lat="47.951913010329008" lon="-2.548971958458424">
        <ele>26.09</ele>
        <time>2018-07-07T10:14:23Z</time>
      </trkpt>
      <trkpt lat="47.951431972905993" lon="-2.548609022051096">
        <ele>28.02</ele>
        <time>2018-07-07T10:14:31Z</time>
      </trkpt>
      <trkpt lat="47.951298030093312" lon="-2.548495028167963">
        <ele>28.5</ele>
        <time>2018-07-07T10:14:33Z</time>
      </trkpt>
      <trkpt lat="47.950375014916062" lon="-2.547714002430439">
        <ele>33.780000000000001</ele>
        <time>2018-07-07T10:14:45Z</time>
      </trkpt>
      <trkpt lat="47.949880985543132" lon="-2.547257021069527">
        <ele>37.149999999999999</ele>
        <time>2018-07-07T10:14:51Z</time>
      </trkpt>
      <trkpt lat="47.949548978358507" lon="-2.546832980588079">
        <ele>40.509999999999998</ele>
        <time>2018-07-07T10:14:55Z</time>
      </trkpt>
      <trkpt lat="47.94946800917387" lon="-2.54668403416872">
        <ele>40.990000000000002</ele>
        <time>2018-07-07T10:14:56Z</time>
      </trkpt>
      <trkpt lat="47.949377987533808" lon="-2.546520000323653">
        <ele>41.950000000000003</ele>
        <time>2018-07-07T10:14:57Z</time>
      </trkpt>
      <trkpt lat="47.949284026399255" lon="-2.546340962871909">
        <ele>42.920000000000002</ele>
        <time>2018-07-07T10:14:58Z</time>
      </trkpt>
      <trkpt lat="47.94918897561729" lon="-2.546140970662236">
        <ele>43.880000000000003</ele>
        <time>2018-07-07T10:14:59Z</time>
      </trkpt>
      <trkpt lat="47.949089985340834" lon="-2.545936033129692">
        <ele>44.840000000000003</ele>
        <time>2018-07-07T10:15:00Z</time>
      </trkpt>
      <trkpt lat="47.948894016444683" lon="-2.545529007911682">
        <ele>46.759999999999998</ele>
        <time>2018-07-07T10:15:02Z</time>
      </trkpt>
      <trkpt lat="47.948805000633001" lon="-2.545343013480306">
        <ele>47.240000000000002</ele>
        <time>2018-07-07T10:15:03Z</time>
      </trkpt>
      <trkpt lat="47.948701987043023" lon="-2.545186020433903">
        <ele>48.200000000000003</ele>
        <time>2018-07-07T10:15:04Z</time>
      </trkpt>
      <trkpt lat="47.948593022301793" lon="-2.545041013509035">
        <ele>49.159999999999997</ele>
        <time>2018-07-07T10:15:05Z</time>
      </trkpt>
      <trkpt lat="47.948481040075421" lon="-2.544890977442265">
        <ele>49.649999999999999</ele>
        <time>2018-07-07T10:15:06Z</time>
      </trkpt>
      <trkpt lat="47.948364028707147" lon="-2.544734990224242">
        <ele>50.130000000000003</ele>
        <time>2018-07-07T10:15:07Z</time>
      </trkpt>
      <trkpt lat="47.948233019560575" lon="-2.54464304074645">
        <ele>50.609999999999999</ele>
        <time>2018-07-07T10:15:08Z</time>
      </trkpt>
      <trkpt lat="47.948104022070765" lon="-2.544584032148123">
        <ele>51.57</ele>
        <time>2018-07-07T10:15:09Z</time>
      </trkpt>
      <trkpt lat="47.947990028187633" lon="-2.544563999399543">
        <ele>51.57</ele>
        <time>2018-07-07T10:15:10Z</time>
      </trkpt>
      <trkpt lat="47.94783404096961" lon="-2.5445800088346">
        <ele>52.049999999999997</ele>
        <time>2018-07-07T10:15:11Z</time>
      </trkpt>
      <trkpt lat="47.947731027379632" lon="-2.544663995504379">
        <ele>52.530000000000001</ele>
        <time>2018-07-07T10:15:12Z</time>
      </trkpt>
      <trkpt lat="47.947597000747919" lon="-2.544774971902371">
        <ele>52.530000000000001</ele>
        <time>2018-07-07T10:15:13Z</time>
      </trkpt>
      <trkpt lat="47.947507984936237" lon="-2.544953003525734">
        <ele>52.530000000000001</ele>
        <time>2018-07-07T10:15:14Z</time>
      </trkpt>
      <trkpt lat="47.94744998216629" lon="-2.545164981856942">
        <ele>52.530000000000001</ele>
        <time>2018-07-07T10:15:15Z</time>
      </trkpt>
      <trkpt lat="47.947425004094839" lon="-2.545381989330053">
        <ele>52.530000000000001</ele>
        <time>2018-07-07T10:15:16Z</time>
      </trkpt>
      <trkpt lat="47.947417963296175" lon="-2.545602014288306">
        <ele>52.049999999999997</ele>
        <time>2018-07-07T10:15:17Z</time>
      </trkpt>
      <trkpt lat="47.947411006316543" lon="-2.545823967084289">
        <ele>52.530000000000001</ele>
        <time>2018-07-07T10:15:18Z</time>
      </trkpt>
      <trkpt lat="47.947361972182989" lon="-2.546779001131654">
        <ele>53.969999999999999</ele>
        <time>2018-07-07T10:15:23Z</time>
      </trkpt>
      <trkpt lat="47.947447970509529" lon="-2.547003971412778">
        <ele>54.450000000000003</ele>
        <time>2018-07-07T10:15:24Z</time>
      </trkpt>
      <trkpt lat="47.947442019358277" lon="-2.547041019424796">
        <ele>54.93</ele>
        <time>2018-07-07T10:15:25Z</time>
      </trkpt>
      <trkpt lat="47.947394996881485" lon="-2.547155013307929">
        <ele>55.409999999999997</ele>
        <time>2018-07-07T10:15:26Z</time>
      </trkpt>
      <trkpt lat="47.947347974404693" lon="-2.547188960015774">
        <ele>55.890000000000001</ele>
        <time>2018-07-07T10:15:27Z</time>
      </trkpt>
      <trkpt lat="47.94725501909852" lon="-2.54722299054265">
        <ele>55.890000000000001</ele>
        <time>2018-07-07T10:15:28Z</time>
      </trkpt>
      <trkpt lat="47.947192993015051" lon="-2.547171022742987">
        <ele>56.369999999999997</ele>
        <time>2018-07-07T10:15:29Z</time>
      </trkpt>
      <trkpt lat="47.947146976366639" lon="-2.547132968902588">
        <ele>55.890000000000001</ele>
        <time>2018-07-07T10:15:30Z</time>
      </trkpt>
      <trkpt lat="47.947088973596692" lon="-2.54685795865953">
        <ele>55.890000000000001</ele>
        <time>2018-07-07T10:15:31Z</time>
      </trkpt>
      <trkpt lat="47.946988977491856" lon="-2.546771038323641">
        <ele>55.409999999999997</ele>
        <time>2018-07-07T10:15:32Z</time>
      </trkpt>
      <trkpt lat="47.946885963901877" lon="-2.546632988378406">
        <ele>54.93</ele>
        <time>2018-07-07T10:15:33Z</time>
      </trkpt>
      <trkpt lat="47.946774987503886" lon="-2.546482030302286">
        <ele>54.93</ele>
        <time>2018-07-07T10:15:34Z</time>
      </trkpt>
      <trkpt lat="47.94665495865047" lon="-2.546321013942361">
        <ele>55.409999999999997</ele>
        <time>2018-07-07T10:15:35Z</time>
      </trkpt>
      <trkpt lat="47.946525039151311" lon="-2.546145999804139">
        <ele>55.409999999999997</ele>
        <time>2018-07-07T10:15:36Z</time>
      </trkpt>
      <trkpt lat="47.945409994572401" lon="-2.545020980760455">
        <ele>56.859999999999999</ele>
        <time>2018-07-07T10:15:43Z</time>
      </trkpt>
      <trkpt lat="47.944062016904354" lon="-2.543710973113775">
        <ele>56.859999999999999</ele>
        <time>2018-07-07T10:15:51Z</time>
      </trkpt>
      <trkpt lat="47.942815041169524" lon="-2.543041007593274">
        <ele>52.049999999999997</ele>
        <time>2018-07-07T10:15:58Z</time>
      </trkpt>
      <trkpt lat="47.940798019990325" lon="-2.542515965178609">
        <ele>45.32</ele>
        <time>2018-07-07T10:16:08Z</time>
      </trkpt>
      <trkpt lat="47.939664032310247" lon="-2.541747009381652">
        <ele>40.030000000000001</ele>
        <time>2018-07-07T10:16:14Z</time>
      </trkpt>
      <trkpt lat="47.936784010380507" lon="-2.539664022624493">
        <ele>31.379999999999999</ele>
        <time>2018-07-07T10:16:29Z</time>
      </trkpt>
      <trkpt lat="47.934590969234705" lon="-2.538316966965795">
        <ele>28.98</ele>
        <time>2018-07-07T10:16:41Z</time>
      </trkpt>
      <trkpt lat="47.933159004896879" lon="-2.537507023662329">
        <ele>27.530000000000001</ele>
        <time>2018-07-07T10:16:49Z</time>
      </trkpt>
      <trkpt lat="47.93264796026051" lon="-2.537095975130796">
        <ele>28.02</ele>
        <time>2018-07-07T10:16:52Z</time>
      </trkpt>
      <trkpt lat="47.932509994134307" lon="-2.536914004012942">
        <ele>28.02</ele>
        <time>2018-07-07T10:16:53Z</time>
      </trkpt>
      <trkpt lat="47.93238703161478" lon="-2.536720968782902">
        <ele>28.02</ele>
        <time>2018-07-07T10:16:54Z</time>
      </trkpt>
      <trkpt lat="47.931703990325332" lon="-2.535372991114855">
        <ele>29.460000000000001</ele>
        <time>2018-07-07T10:17:01Z</time>
      </trkpt>
      <trkpt lat="47.931390004232526" lon="-2.534757005050778">
        <ele>29.940000000000001</ele>
        <time>2018-07-07T10:17:06Z</time>
      </trkpt>
      <trkpt lat="47.931387992575765" lon="-2.534603029489517">
        <ele>29.940000000000001</ele>
        <time>2018-07-07T10:17:07Z</time>
      </trkpt>
      <trkpt lat="47.931429985910654" lon="-2.534499010071158">
        <ele>29.940000000000001</ele>
        <time>2018-07-07T10:17:08Z</time>
      </trkpt>
      <trkpt lat="47.931530987843871" lon="-2.534206984564662">
        <ele>29.460000000000001</ele>
        <time>2018-07-07T10:17:10Z</time>
      </trkpt>
      <trkpt lat="47.931545991450548" lon="-2.534025013446808">
        <ele>29.460000000000001</ele>
        <time>2018-07-07T10:17:11Z</time>
      </trkpt>
      <trkpt lat="47.931562000885606" lon="-2.533598961308599">
        <ele>29.460000000000001</ele>
        <time>2018-07-07T10:17:13Z</time>
      </trkpt>
      <trkpt lat="47.931550014764071" lon="-2.533366028219461">
        <ele>29.460000000000001</ele>
        <time>2018-07-07T10:17:14Z</time>
      </trkpt>
      <trkpt lat="47.931511038914323" lon="-2.533126976341009">
        <ele>29.460000000000001</ele>
        <time>2018-07-07T10:17:15Z</time>
      </trkpt>
      <trkpt lat="47.931465022265911" lon="-2.532888008281589">
        <ele>29.460000000000001</ele>
        <time>2018-07-07T10:17:16Z</time>
      </trkpt>
      <trkpt lat="47.931417999789119" lon="-2.532645016908646">
        <ele>29.460000000000001</ele>
        <time>2018-07-07T10:17:17Z</time>
      </trkpt>
      <trkpt lat="47.930933022871614" lon="-2.530368994921446">
        <ele>33.299999999999997</ele>
        <time>2018-07-07T10:17:26Z</time>
      </trkpt>
      <trkpt lat="47.930878037586808" lon="-2.530105970799923">
        <ele>34.259999999999998</ele>
        <time>2018-07-07T10:17:27Z</time>
      </trkpt>
      <trkpt lat="47.930821962654591" lon="-2.52984001301229">
        <ele>34.740000000000002</ele>
        <time>2018-07-07T10:17:28Z</time>
      </trkpt>
      <trkpt lat="47.930715009570122" lon="-2.529330980032682">
        <ele>36.189999999999998</ele>
        <time>2018-07-07T10:17:30Z</time>
      </trkpt>
      <trkpt lat="47.930663963779807" lon="-2.529080025851727">
        <ele>37.149999999999999</ele>
        <time>2018-07-07T10:17:31Z</time>
      </trkpt>
      <trkpt lat="47.930556004866958" lon="-2.528300005942583">
        <ele>39.07</ele>
        <time>2018-07-07T10:17:34Z</time>
      </trkpt>
      <trkpt lat="47.930403035134077" lon="-2.52681003883481">
        <ele>38.590000000000003</ele>
        <time>2018-07-07T10:17:40Z</time>
      </trkpt>
      <trkpt lat="47.930337991565466" lon="-2.526085004210472">
        <ele>37.630000000000003</ele>
        <time>2018-07-07T10:17:43Z</time>
      </trkpt>
      <trkpt lat="47.930341009050608" lon="-2.525849975645542">
        <ele>37.149999999999999</ele>
        <time>2018-07-07T10:17:44Z</time>
      </trkpt>
      <trkpt lat="47.930387025699019" lon="-2.525660041719675">
        <ele>37.149999999999999</ele>
        <time>2018-07-07T10:17:45Z</time>
      </trkpt>
      <trkpt lat="47.930444022640586" lon="-2.525487961247563">
        <ele>37.630000000000003</ele>
        <time>2018-07-07T10:17:46Z</time>
      </trkpt>
      <trkpt lat="47.930500013753772" lon="-2.525320993736386">
        <ele>38.109999999999999</ele>
        <time>2018-07-07T10:17:47Z</time>
      </trkpt>
      <trkpt lat="47.930544018745422" lon="-2.525142040103674">
        <ele>39.07</ele>
        <time>2018-07-07T10:17:48Z</time>
      </trkpt>
      <trkpt lat="47.930559022352099" lon="-2.524941964074969">
        <ele>40.030000000000001</ele>
        <time>2018-07-07T10:17:49Z</time>
      </trkpt>
      <trkpt lat="47.930538989603519" lon="-2.524740966036916">
        <ele>40.990000000000002</ele>
        <time>2018-07-07T10:17:50Z</time>
      </trkpt>
      <trkpt lat="47.930513005703688" lon="-2.524523036554456">
        <ele>41.950000000000003</ele>
        <time>2018-07-07T10:17:51Z</time>
      </trkpt>
      <trkpt lat="47.930478975176811" lon="-2.524296976625919">
        <ele>42.439999999999998</ele>
        <time>2018-07-07T10:17:52Z</time>
      </trkpt>
      <trkpt lat="47.930143028497696" lon="-2.522896025329828">
        <ele>44.359999999999999</ele>
        <time>2018-07-07T10:17:58Z</time>
      </trkpt>
      <trkpt lat="47.92961597442627" lon="-2.520876992493868">
        <ele>44.359999999999999</ele>
        <time>2018-07-07T10:18:06Z</time>
      </trkpt>
      <trkpt lat="47.92931598611176" lon="-2.519580982625485">
        <ele>42.920000000000002</ele>
        <time>2018-07-07T10:18:11Z</time>
      </trkpt>
      <trkpt lat="47.92929301969707" lon="-2.519284011796117">
        <ele>42.439999999999998</ele>
        <time>2018-07-07T10:18:12Z</time>
      </trkpt>
      <trkpt lat="47.929270975291729" lon="-2.519007995724678">
        <ele>41.950000000000003</ele>
        <time>2018-07-07T10:18:13Z</time>
      </trkpt>
      <trkpt lat="47.929236022755504" lon="-2.518230993300676">
        <ele>39.549999999999997</ele>
        <time>2018-07-07T10:18:16Z</time>
      </trkpt>
      <trkpt lat="47.929222024977207" lon="-2.517998982220888">
        <ele>38.590000000000003</ele>
        <time>2018-07-07T10:18:17Z</time>
      </trkpt>
      <trkpt lat="47.9291429836303" lon="-2.517835032194853">
        <ele>38.109999999999999</ele>
        <time>2018-07-07T10:18:18Z</time>
      </trkpt>
      <trkpt lat="47.929058996960521" lon="-2.517664041370153">
        <ele>37.149999999999999</ele>
        <time>2018-07-07T10:18:19Z</time>
      </trkpt>
      <trkpt lat="47.9289719928056" lon="-2.517483998090029">
        <ele>36.670000000000002</ele>
        <time>2018-07-07T10:18:20Z</time>
      </trkpt>
      <trkpt lat="47.928803013637662" lon="-2.517115026712418">
        <ele>34.740000000000002</ele>
        <time>2018-07-07T10:18:22Z</time>
      </trkpt>
      <trkpt lat="47.928635040298104" lon="-2.516568023711443">
        <ele>33.299999999999997</ele>
        <time>2018-07-07T10:18:25Z</time>
      </trkpt>
      <trkpt lat="47.928288029506803" lon="-2.515276959165931">
        <ele>31.859999999999999</ele>
        <time>2018-07-07T10:18:34Z</time>
      </trkpt>
      <trkpt lat="47.928232038393617" lon="-2.515069004148245">
        <ele>31.859999999999999</ele>
        <time>2018-07-07T10:18:36Z</time>
      </trkpt>
      <trkpt lat="47.928223991766572" lon="-2.514969008043408">
        <ele>31.859999999999999</ele>
        <time>2018-07-07T10:18:37Z</time>
      </trkpt>
      <trkpt lat="47.928231032565236" lon="-2.514707995578647">
        <ele>30.899999999999999</ele>
        <time>2018-07-07T10:18:39Z</time>
      </trkpt>
      <trkpt lat="47.928235977888107" lon="-2.514560976997018">
        <ele>30.420000000000002</ele>
        <time>2018-07-07T10:18:40Z</time>
      </trkpt>
      <trkpt lat="47.92824000120163" lon="-2.514403983950615">
        <ele>29.940000000000001</ele>
        <time>2018-07-07T10:18:41Z</time>
      </trkpt>
      <trkpt lat="47.928253998979926" lon="-2.514255959540606">
        <ele>28.98</ele>
        <time>2018-07-07T10:18:42Z</time>
      </trkpt>
      <trkpt lat="47.928292974829674" lon="-2.51409200951457">
        <ele>28.5</ele>
        <time>2018-07-07T10:18:43Z</time>
      </trkpt>
      <trkpt lat="47.928333040326834" lon="-2.513924036175013">
        <ele>28.5</ele>
        <time>2018-07-07T10:18:44Z</time>
      </trkpt>
      <trkpt lat="47.928548958152533" lon="-2.513205036520958">
        <ele>28.5</ele>
        <time>2018-07-07T10:18:49Z</time>
      </trkpt>
      <trkpt lat="47.928603021427989" lon="-2.513089030981064">
        <ele>28.98</ele>
        <time>2018-07-07T10:18:50Z</time>
      </trkpt>
      <trkpt lat="47.928664963692427" lon="-2.512989034876227">
        <ele>28.98</ele>
        <time>2018-07-07T10:18:51Z</time>
      </trkpt>
      <trkpt lat="47.9289910197258" lon="-2.512579998001456">
        <ele>31.379999999999999</ele>
        <time>2018-07-07T10:18:56Z</time>
      </trkpt>
      <trkpt lat="47.929063020274043" lon="-2.512468015775085">
        <ele>31.379999999999999</ele>
        <time>2018-07-07T10:18:57Z</time>
      </trkpt>
      <trkpt lat="47.929115993902087" lon="-2.512319991365075">
        <ele>31.379999999999999</ele>
        <time>2018-07-07T10:18:58Z</time>
      </trkpt>
      <trkpt lat="47.929177014157176" lon="-2.512154029682279">
        <ele>30.899999999999999</ele>
        <time>2018-07-07T10:18:59Z</time>
      </trkpt>
      <trkpt lat="47.929239962249994" lon="-2.511966023594141">
        <ele>30.899999999999999</ele>
        <time>2018-07-07T10:19:00Z</time>
      </trkpt>
      <trkpt lat="47.929572975263" lon="-2.510614022612572">
        <ele>29.460000000000001</ele>
        <time>2018-07-07T10:19:06Z</time>
      </trkpt>
      <trkpt lat="47.9296800121665" lon="-2.510407995432615">
        <ele>29.940000000000001</ele>
        <time>2018-07-07T10:19:07Z</time>
      </trkpt>
      <trkpt lat="47.929785959422588" lon="-2.51020397990942">
        <ele>29.940000000000001</ele>
        <time>2018-07-07T10:19:08Z</time>
      </trkpt>
      <trkpt lat="47.929886039346457" lon="-2.510010022670031">
        <ele>30.420000000000002</ele>
        <time>2018-07-07T10:19:09Z</time>
      </trkpt>
      <trkpt lat="47.92998100630939" lon="-2.509827967733145">
        <ele>30.899999999999999</ele>
        <time>2018-07-07T10:19:10Z</time>
      </trkpt>
      <trkpt lat="47.930069016292691" lon="-2.509656976908445">
        <ele>31.379999999999999</ele>
        <time>2018-07-07T10:19:11Z</time>
      </trkpt>
      <trkpt lat="47.930155014619231" lon="-2.509491015225649">
        <ele>31.859999999999999</ele>
        <time>2018-07-07T10:19:12Z</time>
      </trkpt>
      <trkpt lat="47.930258028209209" lon="-2.509362017735839">
        <ele>32.82</ele>
        <time>2018-07-07T10:19:13Z</time>
      </trkpt>
      <trkpt lat="47.930359030142426" lon="-2.509251963347197">
        <ele>33.299999999999997</ele>
        <time>2018-07-07T10:19:14Z</time>
      </trkpt>
      <trkpt lat="47.930463971570134" lon="-2.509156996384263">
        <ele>33.780000000000001</ele>
        <time>2018-07-07T10:19:15Z</time>
      </trkpt>
      <trkpt lat="47.930561034008861" lon="-2.509089019149542">
        <ele>34.740000000000002</ele>
        <time>2018-07-07T10:19:16Z</time>
      </trkpt>
      <trkpt lat="47.930679973214865" lon="-2.508980976417661">
        <ele>35.710000000000001</ele>
        <time>2018-07-07T10:19:17Z</time>
      </trkpt>
      <trkpt lat="47.930901004001498" lon="-2.508780984207988">
        <ele>37.149999999999999</ele>
        <time>2018-07-07T10:19:19Z</time>
      </trkpt>
      <trkpt lat="47.931014997884631" lon="-2.508674031123519">
        <ele>37.630000000000003</ele>
        <time>2018-07-07T10:19:20Z</time>
      </trkpt>
      <trkpt lat="47.931105019524693" lon="-2.508521983399987">
        <ele>38.590000000000003</ele>
        <time>2018-07-07T10:19:21Z</time>
      </trkpt>
      <trkpt lat="47.931372988969088" lon="-2.508062990382314">
        <ele>41.950000000000003</ele>
        <time>2018-07-07T10:19:24Z</time>
      </trkpt>
      <trkpt lat="47.931459993124008" lon="-2.507913960143924">
        <ele>42.920000000000002</ele>
        <time>2018-07-07T10:19:25Z</time>
      </trkpt>
      <trkpt lat="47.931726034730673" lon="-2.507501989603043">
        <ele>45.799999999999997</ele>
        <time>2018-07-07T10:19:28Z</time>
      </trkpt>
      <trkpt lat="47.93182997033" lon="-2.50740802846849">
        <ele>47.240000000000002</ele>
        <time>2018-07-07T10:19:29Z</time>
      </trkpt>
      <trkpt lat="47.931939018890262" lon="-2.507321024313569">
        <ele>48.200000000000003</ele>
        <time>2018-07-07T10:19:30Z</time>
      </trkpt>
      <trkpt lat="47.93307401239872" lon="-2.50668098218739">
        <ele>58.299999999999997</ele>
        <time>2018-07-07T10:19:39Z</time>
      </trkpt>
      <trkpt lat="47.933700978755951" lon="-2.506277980282903">
        <ele>65.510000000000005</ele>
        <time>2018-07-07T10:19:44Z</time>
      </trkpt>
      <trkpt lat="47.93382503092289" lon="-2.506165998056531">
        <ele>66.469999999999999</ele>
        <time>2018-07-07T10:19:45Z</time>
      </trkpt>
      <trkpt lat="47.933941036462784" lon="-2.506026020273566">
        <ele>67.909999999999997</ele>
        <time>2018-07-07T10:19:46Z</time>
      </trkpt>
      <trkpt lat="47.934058969840407" lon="-2.505874978378415">
        <ele>69.349999999999994</ele>
        <time>2018-07-07T10:19:47Z</time>
      </trkpt>
      <trkpt lat="47.934182016178966" lon="-2.505717985332012">
        <ele>71.269999999999996</ele>
        <time>2018-07-07T10:19:48Z</time>
      </trkpt>
      <trkpt lat="47.934312019497156" lon="-2.505554035305977">
        <ele>72.719999999999999</ele>
        <time>2018-07-07T10:19:49Z</time>
      </trkpt>
      <trkpt lat="47.934447973966599" lon="-2.505381032824516">
        <ele>73.680000000000007</ele>
        <time>2018-07-07T10:19:50Z</time>
      </trkpt>
      <trkpt lat="47.934590969234705" lon="-2.505198977887631">
        <ele>75.120000000000005</ele>
        <time>2018-07-07T10:19:51Z</time>
      </trkpt>
      <trkpt lat="47.935920003801584" lon="-2.503532990813255">
        <ele>79.930000000000007</ele>
        <time>2018-07-07T10:19:59Z</time>
      </trkpt>
      <trkpt lat="47.937341993674636" lon="-2.501703975722194">
        <ele>85.689999999999998</ele>
        <time>2018-07-07T10:20:08Z</time>
      </trkpt>
      <trkpt lat="47.937900982797146" lon="-2.500656992197037">
        <ele>89.060000000000002</ele>
        <time>2018-07-07T10:20:13Z</time>
      </trkpt>
      <trkpt lat="47.937969965860248" lon="-2.500429004430771">
        <ele>89.540000000000006</ele>
        <time>2018-07-07T10:20:14Z</time>
      </trkpt>
      <trkpt lat="47.938024029135704" lon="-2.500190958380699">
        <ele>90.019999999999996</ele>
        <time>2018-07-07T10:20:15Z</time>
      </trkpt>
      <trkpt lat="47.938353018835187" lon="-2.497754003852606">
        <ele>94.349999999999994</ele>
        <time>2018-07-07T10:20:24Z</time>
      </trkpt>
      <trkpt lat="47.938435999676585" lon="-2.497509000822902">
        <ele>94.829999999999998</ele>
        <time>2018-07-07T10:20:25Z</time>
      </trkpt>
      <trkpt lat="47.938546976074576" lon="-2.497310014441609">
        <ele>95.310000000000002</ele>
        <time>2018-07-07T10:20:26Z</time>
      </trkpt>
      <trkpt lat="47.938658036291599" lon="-2.497110022231937">
        <ele>95.790000000000006</ele>
        <time>2018-07-07T10:20:27Z</time>
      </trkpt>
      <trkpt lat="47.938785022124648" lon="-2.496935008093715">
        <ele>95.790000000000006</ele>
        <time>2018-07-07T10:20:28Z</time>
      </trkpt>
      <trkpt lat="47.938927011564374" lon="-2.496786983683705">
        <ele>96.269999999999996</ele>
        <time>2018-07-07T10:20:29Z</time>
      </trkpt>
      <trkpt lat="47.939595971256495" lon="-2.496111989021301">
        <ele>94.829999999999998</ele>
        <time>2018-07-07T10:20:35Z</time>
      </trkpt>
      <trkpt lat="47.939717005938292" lon="-2.496014004573226">
        <ele>94.349999999999994</ele>
        <time>2018-07-07T10:20:37Z</time>
      </trkpt>
      <trkpt lat="47.939769979566336" lon="-2.495848964899778">
        <ele>93.870000000000005</ele>
        <time>2018-07-07T10:20:38Z</time>
      </trkpt>
      <trkpt lat="47.93975698761642" lon="-2.49576598405838">
        <ele>93.390000000000001</ele>
        <time>2018-07-07T10:20:39Z</time>
      </trkpt>
      <trkpt lat="47.939737038686872" lon="-2.495646961033344">
        <ele>92.900000000000006</ele>
        <time>2018-07-07T10:20:40Z</time>
      </trkpt>
      <trkpt lat="47.939711976796389" lon="-2.495493991300464">
        <ele>93.390000000000001</ele>
        <time>2018-07-07T10:20:41Z</time>
      </trkpt>
      <trkpt lat="47.939682975411415" lon="-2.495309002697468">
        <ele>93.390000000000001</ele>
        <time>2018-07-07T10:20:42Z</time>
      </trkpt>
      <trkpt lat="47.93964802287519" lon="-2.49509702436626">
        <ele>93.870000000000005</ele>
        <time>2018-07-07T10:20:43Z</time>
      </trkpt>
      <trkpt lat="47.93939296156168" lon="-2.493452997878194">
        <ele>90.980000000000004</ele>
        <time>2018-07-07T10:20:49Z</time>
      </trkpt>
      <trkpt lat="47.938860962167382" lon="-2.490244992077351">
        <ele>86.659999999999997</ele>
        <time>2018-07-07T10:20:59Z</time>
      </trkpt>
      <trkpt lat="47.938049007207155" lon="-2.485993020236492">
        <ele>86.659999999999997</ele>
        <time>2018-07-07T10:21:12Z</time>
      </trkpt>
      <trkpt lat="47.937526982277632" lon="-2.483048960566521">
        <ele>79.930000000000007</ele>
        <time>2018-07-07T10:21:22Z</time>
      </trkpt>
      <trkpt lat="47.937354985624552" lon="-2.482045982033014">
        <ele>75.599999999999994</ele>
        <time>2018-07-07T10:21:27Z</time>
      </trkpt>
      <trkpt lat="47.937336964532733" lon="-2.481937017291784">
        <ele>75.120000000000005</ele>
        <time>2018-07-07T10:21:28Z</time>
      </trkpt>
      <trkpt lat="47.937274016439915" lon="-2.481832997873426">
        <ele>74.640000000000001</ele>
        <time>2018-07-07T10:21:29Z</time>
      </trkpt>
      <trkpt lat="47.937197992578149" lon="-2.481825035065413">
        <ele>74.159999999999997</ele>
        <time>2018-07-07T10:21:30Z</time>
      </trkpt>
      <trkpt lat="47.937097996473312" lon="-2.481814976781607">
        <ele>73.680000000000007</ele>
        <time>2018-07-07T10:21:31Z</time>
      </trkpt>
      <trkpt lat="47.936976039782166" lon="-2.481789998710156">
        <ele>73.200000000000003</ele>
        <time>2018-07-07T10:21:32Z</time>
      </trkpt>
      <trkpt lat="47.936723995953798" lon="-2.481730990111828">
        <ele>72.239999999999995</ele>
        <time>2018-07-07T10:21:34Z</time>
      </trkpt>
      <trkpt lat="47.936612013727427" lon="-2.481729984283447">
        <ele>71.760000000000005</ele>
        <time>2018-07-07T10:21:35Z</time>
      </trkpt>
      <trkpt lat="47.936526015400887" lon="-2.481715986505151">
        <ele>71.269999999999996</ele>
        <time>2018-07-07T10:21:36Z</time>
      </trkpt>
      <trkpt lat="47.936444962397218" lon="-2.481631999835372">
        <ele>70.790000000000006</ele>
        <time>2018-07-07T10:21:37Z</time>
      </trkpt>
      <trkpt lat="47.936400035396218" lon="-2.48154298402369">
        <ele>70.310000000000002</ele>
        <time>2018-07-07T10:21:38Z</time>
      </trkpt>
      <trkpt lat="47.936397017911077" lon="-2.481393031775951">
        <ele>69.829999999999998</ele>
        <time>2018-07-07T10:21:39Z</time>
      </trkpt>
      <trkpt lat="47.936420990154147" lon="-2.481245007365942">
        <ele>70.310000000000002</ele>
        <time>2018-07-07T10:21:40Z</time>
      </trkpt>
      <trkpt lat="47.936459966003895" lon="-2.481084996834397">
        <ele>70.790000000000006</ele>
        <time>2018-07-07T10:21:41Z</time>
      </trkpt>
      <trkpt lat="47.936503970995545" lon="-2.480902019888163">
        <ele>71.269999999999996</ele>
        <time>2018-07-07T10:21:42Z</time>
      </trkpt>
      <trkpt lat="47.936553005129099" lon="-2.480700016021729">
        <ele>71.760000000000005</ele>
        <time>2018-07-07T10:21:43Z</time>
      </trkpt>
      <trkpt lat="47.936920970678329" lon="-2.479141987860203">
        <ele>75.120000000000005</ele>
        <time>2018-07-07T10:21:49Z</time>
      </trkpt>
      <trkpt lat="47.937388010323048" lon="-2.476602019742131">
        <ele>74.159999999999997</ele>
        <time>2018-07-07T10:21:56Z</time>
      </trkpt>
      <trkpt lat="47.938224021345377" lon="-2.471950985491276">
        <ele>68.870000000000005</ele>
        <time>2018-07-07T10:22:08Z</time>
      </trkpt>
      <trkpt lat="47.938909996300936" lon="-2.467352002859116">
        <ele>59.259999999999998</ele>
        <time>2018-07-07T10:22:20Z</time>
      </trkpt>
      <trkpt lat="47.938950983807445" lon="-2.463830010965467">
        <ele>48.68</ele>
        <time>2018-07-07T10:22:29Z</time>
      </trkpt>
      <trkpt lat="47.938630962744355" lon="-2.460758965462446">
        <ele>40.030000000000001</ele>
        <time>2018-07-07T10:22:37Z</time>
      </trkpt>
      <trkpt lat="47.938041966408491" lon="-2.456649988889694">
        <ele>40.990000000000002</ele>
        <time>2018-07-07T10:22:48Z</time>
      </trkpt>
      <trkpt lat="47.937388010323048" lon="-2.452085958793759">
        <ele>51.57</ele>
        <time>2018-07-07T10:23:00Z</time>
      </trkpt>
      <trkpt lat="47.936502965167165" lon="-2.445907993242145">
        <ele>53.969999999999999</ele>
        <time>2018-07-07T10:23:16Z</time>
      </trkpt>
      <trkpt lat="47.935794023796916" lon="-2.440920006483793">
        <ele>45.32</ele>
        <time>2018-07-07T10:23:29Z</time>
      </trkpt>
      <trkpt lat="47.935075024142861" lon="-2.43595096282661">
        <ele>37.149999999999999</ele>
        <time>2018-07-07T10:23:42Z</time>
      </trkpt>
      <trkpt lat="47.934352001175284" lon="-2.430963981896639">
        <ele>28.02</ele>
        <time>2018-07-07T10:23:55Z</time>
      </trkpt>
      <trkpt lat="47.933708019554615" lon="-2.426415961235762">
        <ele>24.649999999999999</ele>
        <time>2018-07-07T10:24:07Z</time>
      </trkpt>
      <trkpt lat="47.933380035683513" lon="-2.424646960571408">
        <ele>26.09</ele>
        <time>2018-07-07T10:24:13Z</time>
      </trkpt>
      <trkpt lat="47.932649971917272" lon="-2.4230379704386">
        <ele>33.780000000000001</ele>
        <time>2018-07-07T10:24:21Z</time>
      </trkpt>
      <trkpt lat="47.932005990296602" lon="-2.421939019113779">
        <ele>39.07</ele>
        <time>2018-07-07T10:24:27Z</time>
      </trkpt>
      <trkpt lat="47.931930972263217" lon="-2.421735003590584">
        <ele>40.030000000000001</ele>
        <time>2018-07-07T10:24:28Z</time>
      </trkpt>
      <trkpt lat="47.931883027777076" lon="-2.421521013602614">
        <ele>40.990000000000002</ele>
        <time>2018-07-07T10:24:29Z</time>
      </trkpt>
      <trkpt lat="47.931865006685257" lon="-2.421294031664729">
        <ele>41.950000000000003</ele>
        <time>2018-07-07T10:24:30Z</time>
      </trkpt>
      <trkpt lat="47.931847991421819" lon="-2.421068977564573">
        <ele>43.399999999999999</ele>
        <time>2018-07-07T10:24:31Z</time>
      </trkpt>
      <trkpt lat="47.931882021948695" lon="-2.420849036425352">
        <ele>44.840000000000003</ele>
        <time>2018-07-07T10:24:32Z</time>
      </trkpt>
      <trkpt lat="47.93191596865654" lon="-2.42063102312386">
        <ele>46.280000000000001</ele>
        <time>2018-07-07T10:24:33Z</time>
      </trkpt>
      <trkpt lat="47.931961985304952" lon="-2.42041602730751">
        <ele>47.240000000000002</ele>
        <time>2018-07-07T10:24:34Z</time>
      </trkpt>
      <trkpt lat="47.93202199973166" lon="-2.420208994299173">
        <ele>48.200000000000003</ele>
        <time>2018-07-07T10:24:35Z</time>
      </trkpt>
      <trkpt lat="47.932618958875537" lon="-2.41829096339643">
        <ele>50.609999999999999</ele>
        <time>2018-07-07T10:24:43Z</time>
      </trkpt>
      <trkpt lat="47.933510039001703" lon="-2.415467016398907">
        <ele>51.090000000000003</ele>
        <time>2018-07-07T10:24:54Z</time>
      </trkpt>
      <trkpt lat="47.933908011764288" lon="-2.413213960826397">
        <ele>61.659999999999997</ele>
        <time>2018-07-07T10:25:03Z</time>
      </trkpt>
      <trkpt lat="47.93399803340435" lon="-2.412133030593395">
        <ele>67.909999999999997</ele>
        <time>2018-07-07T10:25:09Z</time>
      </trkpt>
      <trkpt lat="47.934012031182647" lon="-2.411789037287235">
        <ele>68.390000000000001</ele>
        <time>2018-07-07T10:25:11Z</time>
      </trkpt>
      <trkpt lat="47.934001972898841" lon="-2.411617040634155">
        <ele>68.870000000000005</ele>
        <time>2018-07-07T10:25:12Z</time>
      </trkpt>
      <trkpt lat="47.933915974572301" lon="-2.409698003903031">
        <ele>68.390000000000001</ele>
        <time>2018-07-07T10:25:23Z</time>
      </trkpt>
      <trkpt lat="47.933811033144593" lon="-2.407951969653368">
        <ele>63.579999999999998</ele>
        <time>2018-07-07T10:25:33Z</time>
      </trkpt>
      <trkpt lat="47.933779014274478" lon="-2.407791959121823">
        <ele>63.100000000000001</ele>
        <time>2018-07-07T10:25:34Z</time>
      </trkpt>
      <trkpt lat="47.933730985969305" lon="-2.407658016309142">
        <ele>62.140000000000001</ele>
        <time>2018-07-07T10:25:35Z</time>
      </trkpt>
      <trkpt lat="47.933684969320893" lon="-2.407532036304474">
        <ele>61.18</ele>
        <time>2018-07-07T10:25:36Z</time>
      </trkpt>
      <trkpt lat="47.933640964329243" lon="-2.407412007451057">
        <ele>60.700000000000003</ele>
        <time>2018-07-07T10:25:37Z</time>
      </trkpt>
      <trkpt lat="47.933420017361641" lon="-2.406899034976959">
        <ele>57.82</ele>
        <time>2018-07-07T10:25:42Z</time>
      </trkpt>
      <trkpt lat="47.933414988219738" lon="-2.406789986416698">
        <ele>57.82</ele>
        <time>2018-07-07T10:25:43Z</time>
      </trkpt>
      <trkpt lat="47.933414988219738" lon="-2.406695019453764">
        <ele>57.340000000000003</ele>
        <time>2018-07-07T10:25:44Z</time>
      </trkpt>
      <trkpt lat="47.933414988219738" lon="-2.40651598200202">
        <ele>56.859999999999999</ele>
        <time>2018-07-07T10:25:46Z</time>
      </trkpt>
      <trkpt lat="47.933328989893198" lon="-2.406349014490843">
        <ele>55.890000000000001</ele>
        <time>2018-07-07T10:25:48Z</time>
      </trkpt>
      <trkpt lat="47.933319015428424" lon="-2.406272990629077">
        <ele>55.409999999999997</ele>
        <time>2018-07-07T10:25:49Z</time>
      </trkpt>
      <trkpt lat="47.933308035135269" lon="-2.406181041151285">
        <ele>55.409999999999997</ele>
        <time>2018-07-07T10:25:50Z</time>
      </trkpt>
      <trkpt lat="47.933298982679844" lon="-2.406080961227417">
        <ele>54.93</ele>
        <time>2018-07-07T10:25:51Z</time>
      </trkpt>
      <trkpt lat="47.93329001404345" lon="-2.405975013971329">
        <ele>54.450000000000003</ele>
        <time>2018-07-07T10:25:52Z</time>
      </trkpt>
      <trkpt lat="47.933261012658477" lon="-2.405875017866492">
        <ele>53.969999999999999</ele>
        <time>2018-07-07T10:25:53Z</time>
      </trkpt>
      <trkpt lat="47.933209966868162" lon="-2.405779967084527">
        <ele>53.009999999999998</ele>
        <time>2018-07-07T10:25:54Z</time>
      </trkpt>
      <trkpt lat="47.933154981583357" lon="-2.405677037313581">
        <ele>52.530000000000001</ele>
        <time>2018-07-07T10:25:55Z</time>
      </trkpt>
      <trkpt lat="47.932501025497913" lon="-2.404656037688255">
        <ele>52.530000000000001</ele>
        <time>2018-07-07T10:26:05Z</time>
      </trkpt>
      <trkpt lat="47.932229032739997" lon="-2.404100988060236">
        <ele>53.009999999999998</ele>
        <time>2018-07-07T10:26:10Z</time>
      </trkpt>
      <trkpt lat="47.932179998606443" lon="-2.403990011662245">
        <ele>53.490000000000002</ele>
        <time>2018-07-07T10:26:11Z</time>
      </trkpt>
      <trkpt lat="47.931995010003448" lon="-2.403416018933058">
        <ele>55.409999999999997</ele>
        <time>2018-07-07T10:26:16Z</time>
      </trkpt>
      <trkpt lat="47.931942958384752" lon="-2.403087029233575">
        <ele>55.890000000000001</ele>
        <time>2018-07-07T10:26:19Z</time>
      </trkpt>
      <trkpt lat="47.931926026940346" lon="-2.402857029810548">
        <ele>56.369999999999997</ele>
        <time>2018-07-07T10:26:21Z</time>
      </trkpt>
      <trkpt lat="47.931917980313301" lon="-2.402745969593525">
        <ele>55.890000000000001</ele>
        <time>2018-07-07T10:26:22Z</time>
      </trkpt>
      <trkpt lat="47.93189400807023" lon="-2.402426032349467">
        <ele>55.890000000000001</ele>
        <time>2018-07-07T10:26:25Z</time>
      </trkpt>
      <trkpt lat="47.931891996413469" lon="-2.402328969910741">
        <ele>56.369999999999997</ele>
        <time>2018-07-07T10:26:26Z</time>
      </trkpt>
      <trkpt lat="47.931895013898611" lon="-2.402229979634285">
        <ele>56.369999999999997</ele>
        <time>2018-07-07T10:26:27Z</time>
      </trkpt>
      <trkpt lat="47.931898031383753" lon="-2.402119003236294">
        <ele>56.369999999999997</ele>
        <time>2018-07-07T10:26:28Z</time>
      </trkpt>
      <trkpt lat="47.931900965049863" lon="-2.40200400352478">
        <ele>56.859999999999999</ele>
        <time>2018-07-07T10:26:29Z</time>
      </trkpt>
      <trkpt lat="47.931908005848527" lon="-2.401772998273373">
        <ele>57.82</ele>
        <time>2018-07-07T10:26:31Z</time>
      </trkpt>
      <trkpt lat="47.931911023333669" lon="-2.401654981076717">
        <ele>58.299999999999997</ele>
        <time>2018-07-07T10:26:32Z</time>
      </trkpt>
      <trkpt lat="47.93191404081881" lon="-2.401537969708443">
        <ele>58.299999999999997</ele>
        <time>2018-07-07T10:26:33Z</time>
      </trkpt>
      <trkpt lat="47.931916974484921" lon="-2.401416013017297">
        <ele>58.780000000000001</ele>
        <time>2018-07-07T10:26:34Z</time>
      </trkpt>
      <trkpt lat="47.931920997798443" lon="-2.401290033012629">
        <ele>59.259999999999998</ele>
        <time>2018-07-07T10:26:35Z</time>
      </trkpt>
      <trkpt lat="47.931924015283585" lon="-2.401170004159212">
        <ele>59.740000000000002</ele>
        <time>2018-07-07T10:26:36Z</time>
      </trkpt>
      <trkpt lat="47.931927032768726" lon="-2.401056010276079">
        <ele>60.219999999999999</ele>
        <time>2018-07-07T10:26:37Z</time>
      </trkpt>
      <trkpt lat="47.931933989748359" lon="-2.400636998936534">
        <ele>61.18</ele>
        <time>2018-07-07T10:26:41Z</time>
      </trkpt>
      <trkpt lat="47.93193600140512" lon="-2.400525016710162">
        <ele>61.659999999999997</ele>
        <time>2018-07-07T10:26:42Z</time>
      </trkpt>
      <trkpt lat="47.931941030547023" lon="-2.400427032262087">
        <ele>62.140000000000001</ele>
        <time>2018-07-07T10:26:43Z</time>
      </trkpt>
      <trkpt lat="47.931953016668558" lon="-2.399343000724912">
        <ele>67.430000000000007</ele>
        <time>2018-07-07T10:26:54Z</time>
      </trkpt>
      <trkpt lat="47.931917980313301" lon="-2.398984003812075">
        <ele>69.349999999999994</ele>
        <time>2018-07-07T10:26:58Z</time>
      </trkpt>
      <trkpt lat="47.93191303499043" lon="-2.398924995213747">
        <ele>69.829999999999998</ele>
        <time>2018-07-07T10:26:59Z</time>
      </trkpt>
      <trkpt lat="47.931866012513638" lon="-2.398862969130278">
        <ele>70.310000000000002</ele>
        <time>2018-07-07T10:27:00Z</time>
      </trkpt>
      <trkpt lat="47.931675994768739" lon="-2.398582007735968">
        <ele>70.790000000000006</ele>
        <time>2018-07-07T10:27:04Z</time>
      </trkpt>
      <trkpt lat="47.931675994768739" lon="-2.398582007735968">
        <ele>71.269999999999996</ele>
        <time>2018-07-07T10:27:05Z</time>
      </trkpt>
      <trkpt lat="47.931671971455216" lon="-2.398529034107924">
        <ele>71.269999999999996</ele>
        <time>2018-07-07T10:27:06Z</time>
      </trkpt>
      <trkpt lat="47.931666020303965" lon="-2.398460973054171">
        <ele>71.269999999999996</ele>
        <time>2018-07-07T10:27:07Z</time>
      </trkpt>
      <trkpt lat="47.931658979505301" lon="-2.398388972505927">
        <ele>71.269999999999996</ele>
        <time>2018-07-07T10:27:08Z</time>
      </trkpt>
      <trkpt lat="47.931652022525668" lon="-2.398312026634812">
        <ele>71.269999999999996</ele>
        <time>2018-07-07T10:27:09Z</time>
      </trkpt>
      <trkpt lat="47.931599970906973" lon="-2.397540975362063">
        <ele>74.159999999999997</ele>
        <time>2018-07-07T10:27:17Z</time>
      </trkpt>
      <trkpt lat="47.931593013927341" lon="-2.397434022277594">
        <ele>74.159999999999997</ele>
        <time>2018-07-07T10:27:18Z</time>
      </trkpt>
      <trkpt lat="47.931582033634186" lon="-2.397322040051222">
        <ele>74.640000000000001</ele>
        <time>2018-07-07T10:27:19Z</time>
      </trkpt>
      <trkpt lat="47.93156904168427" lon="-2.397207040339708">
        <ele>74.640000000000001</ele>
        <time>2018-07-07T10:27:20Z</time>
      </trkpt>
      <trkpt lat="47.931557977572083" lon="-2.397090028971434">
        <ele>75.599999999999994</ele>
        <time>2018-07-07T10:27:21Z</time>
      </trkpt>
      <trkpt lat="47.931545991450548" lon="-2.396970000118017">
        <ele>75.599999999999994</ele>
        <time>2018-07-07T10:27:22Z</time>
      </trkpt>
      <trkpt lat="47.931535011157393" lon="-2.396851982921362">
        <ele>76.079999999999998</ele>
        <time>2018-07-07T10:27:23Z</time>
      </trkpt>
      <trkpt lat="47.931524030864239" lon="-2.396734971553087">
        <ele>76.079999999999998</ele>
        <time>2018-07-07T10:27:24Z</time>
      </trkpt>
      <trkpt lat="47.931512966752052" lon="-2.396619971841574">
        <ele>76.560000000000002</ele>
        <time>2018-07-07T10:27:25Z</time>
      </trkpt>
      <trkpt lat="47.931490000337362" lon="-2.396382009610534">
        <ele>76.560000000000002</ele>
        <time>2018-07-07T10:27:27Z</time>
      </trkpt>
      <trkpt lat="47.931478014215827" lon="-2.396258963271976">
        <ele>77.040000000000006</ele>
        <time>2018-07-07T10:27:28Z</time>
      </trkpt>
      <trkpt lat="47.931406013667583" lon="-2.395625039935112">
        <ele>78.480000000000004</ele>
        <time>2018-07-07T10:27:33Z</time>
      </trkpt>
      <trkpt lat="47.931255977600813" lon="-2.395142996683717">
        <ele>78.969999999999999</ele>
        <time>2018-07-07T10:27:37Z</time>
      </trkpt>
      <trkpt lat="47.931170985102654" lon="-2.39489397034049">
        <ele>78.969999999999999</ele>
        <time>2018-07-07T10:27:39Z</time>
      </trkpt>
      <trkpt lat="47.93099001981318" lon="-2.394409999251366">
        <ele>79.450000000000003</ele>
        <time>2018-07-07T10:27:43Z</time>
      </trkpt>
      <trkpt lat="47.930945008993149" lon="-2.394297011196613">
        <ele>79.450000000000003</ele>
        <time>2018-07-07T10:27:44Z</time>
      </trkpt>
      <trkpt lat="47.930901004001498" lon="-2.394186034798622">
        <ele>79.930000000000007</ele>
        <time>2018-07-07T10:27:45Z</time>
      </trkpt>
      <trkpt lat="47.930593974888325" lon="-2.393358992412686">
        <ele>79.930000000000007</ele>
        <time>2018-07-07T10:27:55Z</time>
      </trkpt>
      <trkpt lat="47.930561034008861" lon="-2.393295960500836">
        <ele>79.930000000000007</ele>
        <time>2018-07-07T10:27:56Z</time>
      </trkpt>
      <trkpt lat="47.930518034845591" lon="-2.39323896355927">
        <ele>79.930000000000007</ele>
        <time>2018-07-07T10:27:57Z</time>
      </trkpt>
      <trkpt lat="47.930518034845591" lon="-2.393180960789323">
        <ele>79.930000000000007</ele>
        <time>2018-07-07T10:27:58Z</time>
      </trkpt>
      <trkpt lat="47.930534966289997" lon="-2.393093034625053">
        <ele>79.930000000000007</ele>
        <time>2018-07-07T10:27:59Z</time>
      </trkpt>
      <trkpt lat="47.930604033172131" lon="-2.39302396774292">
        <ele>79.450000000000003</ele>
        <time>2018-07-07T10:28:00Z</time>
      </trkpt>
      <trkpt lat="47.930656000971794" lon="-2.392760021612048">
        <ele>78.969999999999999</ele>
        <time>2018-07-07T10:28:03Z</time>
      </trkpt>
      <trkpt lat="47.930678967386484" lon="-2.392648961395025">
        <ele>78.480000000000004</ele>
        <time>2018-07-07T10:28:04Z</time>
      </trkpt>
      <trkpt lat="47.930702017620206" lon="-2.392533039674163">
        <ele>78</ele>
        <time>2018-07-07T10:28:05Z</time>
      </trkpt>
      <trkpt lat="47.930893963202834" lon="-2.391570964828134">
        <ele>76.560000000000002</ele>
        <time>2018-07-07T10:28:12Z</time>
      </trkpt>
      <trkpt lat="47.930923970416188" lon="-2.391421012580395">
        <ele>76.560000000000002</ele>
        <time>2018-07-07T10:28:13Z</time>
      </trkpt>
      <trkpt lat="47.930954983457923" lon="-2.391266031190753">
        <ele>76.560000000000002</ele>
        <time>2018-07-07T10:28:14Z</time>
      </trkpt>
      <trkpt lat="47.931285984814167" lon="-2.389676989987493">
        <ele>72.719999999999999</ele>
        <time>2018-07-07T10:28:24Z</time>
      </trkpt>
      <trkpt lat="47.93148597702384" lon="-2.388664958998561">
        <ele>73.200000000000003</ele>
        <time>2018-07-07T10:28:32Z</time>
      </trkpt>
      <trkpt lat="47.931536016985774" lon="-2.388408975675702">
        <ele>74.159999999999997</ele>
        <time>2018-07-07T10:28:35Z</time>
      </trkpt>
      <trkpt lat="47.931568035855889" lon="-2.388245025649667">
        <ele>74.159999999999997</ele>
        <time>2018-07-07T10:28:37Z</time>
      </trkpt>
      <trkpt lat="47.931525958701968" lon="-2.388046039268374">
        <ele>74.640000000000001</ele>
        <time>2018-07-07T10:28:38Z</time>
      </trkpt>
      <trkpt lat="47.931525958701968" lon="-2.388046039268374">
        <ele>74.640000000000001</ele>
        <time>2018-07-07T10:28:39Z</time>
      </trkpt>
      <trkpt lat="47.931525958701968" lon="-2.38799499347806">
        <ele>74.640000000000001</ele>
        <time>2018-07-07T10:28:40Z</time>
      </trkpt>
      <trkpt lat="47.93152897618711" lon="-2.387891979888082">
        <ele>74.640000000000001</ele>
        <time>2018-07-07T10:28:41Z</time>
      </trkpt>
      <trkpt lat="47.931566024199128" lon="-2.38784302957356">
        <ele>74.640000000000001</ele>
        <time>2018-07-07T10:28:42Z</time>
      </trkpt>
      <trkpt lat="47.931591002270579" lon="-2.387810004875064">
        <ele>75.120000000000005</ele>
        <time>2018-07-07T10:28:43Z</time>
      </trkpt>
      <trkpt lat="47.931695021688938" lon="-2.387718977406621">
        <ele>75.120000000000005</ele>
        <time>2018-07-07T10:28:44Z</time>
      </trkpt>
      <trkpt lat="47.931713964790106" lon="-2.387623004615307">
        <ele>75.599999999999994</ele>
        <time>2018-07-07T10:28:45Z</time>
      </trkpt>
      <trkpt lat="47.93200297281146" lon="-2.386187016963959">
        <ele>79.930000000000007</ele>
        <time>2018-07-07T10:28:56Z</time>
      </trkpt>
      <trkpt lat="47.932420978322625" lon="-2.384109981358051">
        <ele>84.730000000000004</ele>
        <time>2018-07-07T10:29:08Z</time>
      </trkpt>
      <trkpt lat="47.932746028527617" lon="-2.382553964853287">
        <ele>89.540000000000006</ele>
        <time>2018-07-07T10:29:18Z</time>
      </trkpt>
      <trkpt lat="47.932776035740972" lon="-2.382411975413561">
        <ele>89.540000000000006</ele>
        <time>2018-07-07T10:29:19Z</time>
      </trkpt>
      <trkpt lat="47.932961024343967" lon="-2.381457025185227">
        <ele>93.390000000000001</ele>
        <time>2018-07-07T10:29:26Z</time>
      </trkpt>
      <trkpt lat="47.932930011302233" lon="-2.381244963034987">
        <ele>93.870000000000005</ele>
        <time>2018-07-07T10:29:27Z</time>
      </trkpt>
      <trkpt lat="47.932834960520267" lon="-2.381135998293757">
        <ele>94.349999999999994</ele>
        <time>2018-07-07T10:29:28Z</time>
      </trkpt>
      <trkpt lat="47.9328160174191" lon="-2.381059974431992">
        <ele>94.829999999999998</ele>
        <time>2018-07-07T10:29:29Z</time>
      </trkpt>
      <trkpt lat="47.932782992720604" lon="-2.380927037447691">
        <ele>95.310000000000002</ele>
        <time>2018-07-07T10:29:30Z</time>
      </trkpt>
      <trkpt lat="47.932791039347649" lon="-2.380760991945863">
        <ele>95.790000000000006</ele>
        <time>2018-07-07T10:29:31Z</time>
      </trkpt>
      <trkpt lat="47.932791961356997" lon="-2.380619002506137">
        <ele>96.269999999999996</ele>
        <time>2018-07-07T10:29:32Z</time>
      </trkpt>
      <trkpt lat="47.932782992720604" lon="-2.38047600723803">
        <ele>96.269999999999996</ele>
        <time>2018-07-07T10:29:33Z</time>
      </trkpt>
      <trkpt lat="47.932748040184379" lon="-2.380338041111827">
        <ele>96.75</ele>
        <time>2018-07-07T10:29:34Z</time>
      </trkpt>
      <trkpt lat="47.932680984959006" lon="-2.380213988944888">
        <ele>96.75</ele>
        <time>2018-07-07T10:29:35Z</time>
      </trkpt>
      <trkpt lat="47.932599009945989" lon="-2.380139976739883">
        <ele>96.75</ele>
        <time>2018-07-07T10:29:36Z</time>
      </trkpt>
      <trkpt lat="47.932522986084223" lon="-2.380070993676782">
        <ele>96.269999999999996</ele>
        <time>2018-07-07T10:29:37Z</time>
      </trkpt>
      <trkpt lat="47.932256022468209" lon="-2.379828002303839">
        <ele>95.310000000000002</ele>
        <time>2018-07-07T10:29:41Z</time>
      </trkpt>
      <trkpt lat="47.932190978899598" lon="-2.379762958735228">
        <ele>95.310000000000002</ele>
        <time>2018-07-07T10:29:43Z</time>
      </trkpt>
      <trkpt lat="47.932203970849514" lon="-2.379729012027383">
        <ele>95.310000000000002</ele>
        <time>2018-07-07T10:29:44Z</time>
      </trkpt>
      <trkpt lat="47.932218974456191" lon="-2.379690036177635">
        <ele>94.829999999999998</ele>
        <time>2018-07-07T10:29:45Z</time>
      </trkpt>
      <trkpt lat="47.932233978062868" lon="-2.379647959023714">
        <ele>94.829999999999998</ele>
        <time>2018-07-07T10:29:46Z</time>
      </trkpt>
      <trkpt lat="47.932190978899598" lon="-2.379762958735228">
        <ele>94.829999999999998</ele>
        <time>2018-07-07T10:29:47Z</time>
      </trkpt>
      <trkpt lat="47.932226015254855" lon="-2.379797995090485">
        <ele>94.829999999999998</ele>
        <time>2018-07-07T10:29:48Z</time>
      </trkpt>
      <trkpt lat="47.932256022468209" lon="-2.379828002303839">
        <ele>94.829999999999998</ele>
        <time>2018-07-07T10:29:49Z</time>
      </trkpt>
      <trkpt lat="47.932316036894917" lon="-2.379881981760263">
        <ele>94.829999999999998</ele>
        <time>2018-07-07T10:29:50Z</time>
      </trkpt>
      <trkpt lat="47.932375967502594" lon="-2.379936967045069">
        <ele>94.829999999999998</ele>
        <time>2018-07-07T10:29:51Z</time>
      </trkpt>
      <trkpt lat="47.932446962222457" lon="-2.38000201061368">
        <ele>94.829999999999998</ele>
        <time>2018-07-07T10:29:52Z</time>
      </trkpt>
      <trkpt lat="47.932523991912603" lon="-2.380071999505162">
        <ele>95.310000000000002</ele>
        <time>2018-07-07T10:29:53Z</time>
      </trkpt>
      <trkpt lat="47.932896986603737" lon="-2.380352960899472">
        <ele>98.189999999999998</ele>
        <time>2018-07-07T10:29:58Z</time>
      </trkpt>
      <trkpt lat="47.932961024343967" lon="-2.38039000891149">
        <ele>99.150000000000006</ele>
        <time>2018-07-07T10:29:59Z</time>
      </trkpt>
      <trkpt lat="47.933027995750308" lon="-2.380427978932858">
        <ele>99.150000000000006</ele>
        <time>2018-07-07T10:30:00Z</time>
      </trkpt>
      <trkpt lat="47.933081975206733" lon="-2.380351033061743">
        <ele>99.150000000000006</ele>
        <time>2018-07-07T10:30:01Z</time>
      </trkpt>
      <trkpt lat="47.93311801739037" lon="-2.380266962572932">
        <ele>99.629999999999995</ele>
        <time>2018-07-07T10:30:02Z</time>
      </trkpt>
      <trkpt lat="47.933163028210402" lon="-2.380162021145225">
        <ele>99.629999999999995</ele>
        <time>2018-07-07T10:30:03Z</time>
      </trkpt>
      <trkpt lat="47.933214996010065" lon="-2.380037968978286">
        <ele>99.629999999999995</ele>
        <time>2018-07-07T10:30:04Z</time>
      </trkpt>
      <trkpt lat="47.933285990729928" lon="-2.379869995638728">
        <ele>100.11</ele>
        <time>2018-07-07T10:30:05Z</time>
      </trkpt>
      <trkpt lat="47.93361397460103" lon="-2.378238039091229">
        <ele>101.56</ele>
        <time>2018-07-07T10:30:12Z</time>
      </trkpt>
      <trkpt lat="47.934162989258766" lon="-2.37555499188602">
        <ele>103.95999999999999</ele>
        <time>2018-07-07T10:30:21Z</time>
      </trkpt>
      <trkpt lat="47.934674033895135" lon="-2.373045030981302">
        <ele>103.48</ele>
        <time>2018-07-07T10:30:30Z</time>
      </trkpt>
      <trkpt lat="47.935376018285751" lon="-2.369634015485644">
        <ele>97.709999999999994</ele>
        <time>2018-07-07T10:30:41Z</time>
      </trkpt>
      <trkpt lat="47.936183027923107" lon="-2.365614976733923">
        <ele>88.579999999999998</ele>
        <time>2018-07-07T10:30:55Z</time>
      </trkpt>
      <trkpt lat="47.936499025672674" lon="-2.364050997421145">
        <ele>93.390000000000001</ele>
        <time>2018-07-07T10:31:02Z</time>
      </trkpt>
      <trkpt lat="47.936705974861979" lon="-2.363038966432214">
        <ele>94.349999999999994</ele>
        <time>2018-07-07T10:31:10Z</time>
      </trkpt>
      <trkpt lat="47.936879983171821" lon="-2.362185018137097">
        <ele>93.390000000000001</ele>
        <time>2018-07-07T10:31:19Z</time>
      </trkpt>
      <trkpt lat="47.937169997021556" lon="-2.360875010490418">
        <ele>92.420000000000002</ele>
        <time>2018-07-07T10:31:32Z</time>
      </trkpt>
      <trkpt lat="47.937362026423216" lon="-2.360044028609991">
        <ele>90.980000000000004</ele>
        <time>2018-07-07T10:31:40Z</time>
      </trkpt>
      <trkpt lat="47.937388010323048" lon="-2.359931040555239">
        <ele>90.5</ele>
        <time>2018-07-07T10:31:41Z</time>
      </trkpt>
      <trkpt lat="47.937418017536402" lon="-2.359801959246397">
        <ele>90.019999999999996</ele>
        <time>2018-07-07T10:31:42Z</time>
      </trkpt>
      <trkpt lat="47.937792018055916" lon="-2.358379969373345">
        <ele>88.579999999999998</ele>
        <time>2018-07-07T10:31:50Z</time>
      </trkpt>
      <trkpt lat="47.938314964994788" lon="-2.356353979557753">
        <ele>85.689999999999998</ele>
        <time>2018-07-07T10:31:59Z</time>
      </trkpt>
      <trkpt lat="47.938943020999432" lon="-2.353997994214296">
        <ele>80.890000000000001</ele>
        <time>2018-07-07T10:32:07Z</time>
      </trkpt>
      <trkpt lat="47.939797975122929" lon="-2.35071798786521">
        <ele>86.659999999999997</ele>
        <time>2018-07-07T10:32:19Z</time>
      </trkpt>
      <trkpt lat="47.941031036898494" lon="-2.346126968041062">
        <ele>86.659999999999997</ele>
        <time>2018-07-07T10:32:35Z</time>
      </trkpt>
      <trkpt lat="47.942135017365217" lon="-2.341903997585177">
        <ele>77.519999999999996</ele>
        <time>2018-07-07T10:32:50Z</time>
      </trkpt>
      <trkpt lat="47.94308896176517" lon="-2.337305014953017">
        <ele>84.25</ele>
        <time>2018-07-07T10:33:06Z</time>
      </trkpt>
      <trkpt lat="47.94394601136446" lon="-2.333234008401632">
        <ele>85.209999999999994</ele>
        <time>2018-07-07T10:33:20Z</time>
      </trkpt>
      <trkpt lat="47.944802977144718" lon="-2.329543037340045">
        <ele>89.540000000000006</ele>
        <time>2018-07-07T10:33:33Z</time>
      </trkpt>
      <trkpt lat="47.946212980896235" lon="-2.325517041608691">
        <ele>93.870000000000005</ele>
        <time>2018-07-07T10:33:48Z</time>
      </trkpt>
      <trkpt lat="47.947733039036393" lon="-2.321177981793881">
        <ele>95.310000000000002</ele>
        <time>2018-07-07T10:34:04Z</time>
      </trkpt>
      <trkpt lat="47.948037972673774" lon="-2.319433037191629">
        <ele>91.939999999999998</ele>
        <time>2018-07-07T10:34:10Z</time>
      </trkpt>
      <trkpt lat="47.948019029572606" lon="-2.316413959488273">
        <ele>90.980000000000004</ele>
        <time>2018-07-07T10:34:20Z</time>
      </trkpt>
      <trkpt lat="47.948320023715496" lon="-2.314661974087358">
        <ele>90.980000000000004</ele>
        <time>2018-07-07T10:34:26Z</time>
      </trkpt>
      <trkpt lat="47.949241027235985" lon="-2.311595035716891">
        <ele>81.370000000000005</ele>
        <time>2018-07-07T10:34:37Z</time>
      </trkpt>
      <trkpt lat="47.950162030756474" lon="-2.308561960235238">
        <ele>76.079999999999998</ele>
        <time>2018-07-07T10:34:48Z</time>
      </trkpt>
      <trkpt lat="47.950638961046934" lon="-2.307238038629293">
        <ele>72.239999999999995</ele>
        <time>2018-07-07T10:34:53Z</time>
      </trkpt>
      <trkpt lat="47.950761001557112" lon="-2.307000998407602">
        <ele>71.760000000000005</ele>
        <time>2018-07-07T10:34:54Z</time>
      </trkpt>
      <trkpt lat="47.952418019995093" lon="-2.304399004206061">
        <ele>72.239999999999995</ele>
        <time>2018-07-07T10:35:06Z</time>
      </trkpt>
      <trkpt lat="47.954153995960951" lon="-2.301779994741082">
        <ele>71.269999999999996</ele>
        <time>2018-07-07T10:35:18Z</time>
      </trkpt>
      <trkpt lat="47.9549890011549" lon="-2.300468981266022">
        <ele>70.790000000000006</ele>
        <time>2018-07-07T10:35:24Z</time>
      </trkpt>
      <trkpt lat="47.955101989209652" lon="-2.300222972407937">
        <ele>70.790000000000006</ele>
        <time>2018-07-07T10:35:25Z</time>
      </trkpt>
      <trkpt lat="47.955210031941533" lon="-2.299987021833658">
        <ele>71.269999999999996</ele>
        <time>2018-07-07T10:35:26Z</time>
      </trkpt>
      <trkpt lat="47.955663995817304" lon="-2.298622028902173">
        <ele>73.200000000000003</ele>
        <time>2018-07-07T10:35:33Z</time>
      </trkpt>
      <trkpt lat="47.956349970772862" lon="-2.29644600301981">
        <ele>78.480000000000004</ele>
        <time>2018-07-07T10:35:47Z</time>
      </trkpt>
      <trkpt lat="47.956620035693049" lon="-2.295589037239552">
        <ele>78</ele>
        <time>2018-07-07T10:35:55Z</time>
      </trkpt>
      <trkpt lat="47.957050027325749" lon="-2.294429987668991">
        <ele>78</ele>
        <time>2018-07-07T10:36:08Z</time>
      </trkpt>
      <trkpt lat="47.957115992903709" lon="-2.294237958267331">
        <ele>78</ele>
        <time>2018-07-07T10:36:10Z</time>
      </trkpt>
      <trkpt lat="47.957147005945444" lon="-2.294137040153146">
        <ele>78.480000000000004</ele>
        <time>2018-07-07T10:36:11Z</time>
      </trkpt>
      <trkpt lat="47.957154968753457" lon="-2.294037966057658">
        <ele>78.969999999999999</ele>
        <time>2018-07-07T10:36:12Z</time>
      </trkpt>
      <trkpt lat="47.957170978188515" lon="-2.293833028525114">
        <ele>79.930000000000007</ele>
        <time>2018-07-07T10:36:14Z</time>
      </trkpt>
      <trkpt lat="47.957179024815559" lon="-2.293728003278375">
        <ele>80.409999999999997</ele>
        <time>2018-07-07T10:36:15Z</time>
      </trkpt>
      <trkpt lat="47.957186987623572" lon="-2.293617026880384">
        <ele>80.890000000000001</ele>
        <time>2018-07-07T10:36:16Z</time>
      </trkpt>
      <trkpt lat="47.957196040078998" lon="-2.293510995805264">
        <ele>81.370000000000005</ele>
        <time>2018-07-07T10:36:17Z</time>
      </trkpt>
      <trkpt lat="47.957204002887011" lon="-2.293403958901763">
        <ele>81.849999999999994</ele>
        <time>2018-07-07T10:36:18Z</time>
      </trkpt>
      <trkpt lat="47.957214983180165" lon="-2.293297005817294">
        <ele>81.849999999999994</ele>
        <time>2018-07-07T10:36:19Z</time>
      </trkpt>
      <trkpt lat="47.957241972908378" lon="-2.293196003884077">
        <ele>82.329999999999998</ele>
        <time>2018-07-07T10:36:20Z</time>
      </trkpt>
      <trkpt lat="47.95726896263659" lon="-2.293096007779241">
        <ele>82.329999999999998</ele>
        <time>2018-07-07T10:36:21Z</time>
      </trkpt>
      <trkpt lat="47.957686968147755" lon="-2.291975012049079">
        <ele>79.930000000000007</ele>
        <time>2018-07-07T10:36:31Z</time>
      </trkpt>
      <trkpt lat="47.958388030529022" lon="-2.290346994996071">
        <ele>77.519999999999996</ele>
        <time>2018-07-07T10:36:41Z</time>
      </trkpt>
      <trkpt lat="47.959223035722971" lon="-2.288495013490319">
        <ele>76.560000000000002</ele>
        <time>2018-07-07T10:36:52Z</time>
      </trkpt>
      <trkpt lat="47.959818989038467" lon="-2.287101019173861">
        <ele>77.519999999999996</ele>
        <time>2018-07-07T10:37:01Z</time>
      </trkpt>
      <trkpt lat="47.960665980353951" lon="-2.285198997706175">
        <ele>83.290000000000006</ele>
        <time>2018-07-07T10:37:12Z</time>
      </trkpt>
      <trkpt lat="47.961341980844736" lon="-2.283467967063189">
        <ele>80.890000000000001</ele>
        <time>2018-07-07T10:37:20Z</time>
      </trkpt>
      <trkpt lat="47.961396966129541" lon="-2.283191028982401">
        <ele>80.409999999999997</ele>
        <time>2018-07-07T10:37:21Z</time>
      </trkpt>
      <trkpt lat="47.961652027443051" lon="-2.280633961781859">
        <ele>82.329999999999998</ele>
        <time>2018-07-07T10:37:30Z</time>
      </trkpt>
      <trkpt lat="47.961903987452388" lon="-2.277767015621066">
        <ele>90.980000000000004</ele>
        <time>2018-07-07T10:37:40Z</time>
      </trkpt>
      <trkpt lat="47.962182015180588" lon="-2.274206969887018">
        <ele>83.769999999999996</ele>
        <time>2018-07-07T10:37:52Z</time>
      </trkpt>
      <trkpt lat="47.962086964398623" lon="-2.271132990717888">
        <ele>80.409999999999997</ele>
        <time>2018-07-07T10:38:03Z</time>
      </trkpt>
      <trkpt lat="47.962029967457056" lon="-2.267734967172146">
        <ele>86.180000000000007</ele>
        <time>2018-07-07T10:38:16Z</time>
      </trkpt>
      <trkpt lat="47.961953021585941" lon="-2.264352031052113">
        <ele>80.409999999999997</ele>
        <time>2018-07-07T10:38:28Z</time>
      </trkpt>
      <trkpt lat="47.962057963013649" lon="-2.260849988088012">
        <ele>86.659999999999997</ele>
        <time>2018-07-07T10:38:40Z</time>
      </trkpt>
      <trkpt lat="47.96218603849411" lon="-2.256971010938287">
        <ele>96.75</ele>
        <time>2018-07-07T10:38:53Z</time>
      </trkpt>
      <trkpt lat="47.962300032377243" lon="-2.253404008224607">
        <ele>105.88</ele>
        <time>2018-07-07T10:39:05Z</time>
      </trkpt>
      <trkpt lat="47.962376978248358" lon="-2.250993037596345">
        <ele>106.36</ele>
        <time>2018-07-07T10:39:13Z</time>
      </trkpt>
      <trkpt lat="47.962470017373562" lon="-2.248074961826205">
        <ele>110.20999999999999</ele>
        <time>2018-07-07T10:39:23Z</time>
      </trkpt>
      <trkpt lat="47.962528020143509" lon="-2.244531009346247">
        <ele>120.78</ele>
        <time>2018-07-07T10:39:35Z</time>
      </trkpt>
      <trkpt lat="47.962497007101774" lon="-2.243934972211719">
        <ele>122.70999999999999</ele>
        <time>2018-07-07T10:39:37Z</time>
      </trkpt>
      <trkpt lat="47.962441015988588" lon="-2.243641018867493">
        <ele>123.67</ele>
        <time>2018-07-07T10:39:38Z</time>
      </trkpt>
      <trkpt lat="47.962363986298442" lon="-2.243375983089209">
        <ele>124.15000000000001</ele>
        <time>2018-07-07T10:39:39Z</time>
      </trkpt>
      <trkpt lat="47.962183021008968" lon="-2.242859993129969">
        <ele>126.55</ele>
        <time>2018-07-07T10:39:41Z</time>
      </trkpt>
      <trkpt lat="47.961237039417028" lon="-2.240538960322738">
        <ele>132.80000000000001</ele>
        <time>2018-07-07T10:39:50Z</time>
      </trkpt>
      <trkpt lat="47.960116965696216" lon="-2.237789025530219">
        <ele>140.49000000000001</ele>
        <time>2018-07-07T10:40:01Z</time>
      </trkpt>
      <trkpt lat="47.959686974063516" lon="-2.235855991020799">
        <ele>148.18000000000001</ele>
        <time>2018-07-07T10:40:08Z</time>
      </trkpt>
      <trkpt lat="47.959822006523609" lon="-2.2340979706496">
        <ele>152.99000000000001</ele>
        <time>2018-07-07T10:40:14Z</time>
      </trkpt>
      <trkpt lat="47.960457019507885" lon="-2.232562992721796">
        <ele>151.53999999999999</ele>
        <time>2018-07-07T10:40:20Z</time>
      </trkpt>
      <trkpt lat="47.961518000811338" lon="-2.230773959308863">
        <ele>145.78</ele>
        <time>2018-07-07T10:40:28Z</time>
      </trkpt>
      <trkpt lat="47.961616991087794" lon="-2.230519987642765">
        <ele>144.81999999999999</ele>
        <time>2018-07-07T10:40:29Z</time>
      </trkpt>
      <trkpt lat="47.961707012727857" lon="-2.230256041511893">
        <ele>143.84999999999999</ele>
        <time>2018-07-07T10:40:30Z</time>
      </trkpt>
      <trkpt lat="47.962074978277087" lon="-2.228571027517319">
        <ele>140.49000000000001</ele>
        <time>2018-07-07T10:40:36Z</time>
      </trkpt>
      <trkpt lat="47.962170029059052" lon="-2.226473959162831">
        <ele>136.63999999999999</ele>
        <time>2018-07-07T10:40:43Z</time>
      </trkpt>
      <trkpt lat="47.962267007678747" lon="-2.224416034296155">
        <ele>132.80000000000001</ele>
        <time>2018-07-07T10:40:50Z</time>
      </trkpt>
      <trkpt lat="47.962672021239996" lon="-2.222450980916619">
        <ele>130.88</ele>
        <time>2018-07-07T10:40:57Z</time>
      </trkpt>
      <trkpt lat="47.963494034484029" lon="-2.219709008932114">
        <ele>125.11</ele>
        <time>2018-07-07T10:41:07Z</time>
      </trkpt>
      <trkpt lat="47.964082024991512" lon="-2.217849986627698">
        <ele>121.73999999999999</ele>
        <time>2018-07-07T10:41:14Z</time>
      </trkpt>
      <trkpt lat="47.964738998562098" lon="-2.215999010950327">
        <ele>117.42</ele>
        <time>2018-07-07T10:41:21Z</time>
      </trkpt>
      <trkpt lat="47.965262029320002" lon="-2.213766993954778">
        <ele>113.56999999999999</ele>
        <time>2018-07-07T10:41:29Z</time>
      </trkpt>
      <trkpt lat="47.965696966275573" lon="-2.211197018623352">
        <ele>113.56999999999999</ele>
        <time>2018-07-07T10:41:38Z</time>
      </trkpt>
      <trkpt lat="47.96607599593699" lon="-2.208966007456183">
        <ele>117.90000000000001</ele>
        <time>2018-07-07T10:41:46Z</time>
      </trkpt>
      <trkpt lat="47.966403979808092" lon="-2.20659401267767">
        <ele>124.15000000000001</ele>
        <time>2018-07-07T10:41:54Z</time>
      </trkpt>
      <trkpt lat="47.966619981452823" lon="-2.203875007107854">
        <ele>127.51000000000001</ele>
        <time>2018-07-07T10:42:03Z</time>
      </trkpt>
      <trkpt lat="47.966803964227438" lon="-2.201222972944379">
        <ele>124.63</ele>
        <time>2018-07-07T10:42:12Z</time>
      </trkpt>
      <trkpt lat="47.966822991147637" lon="-2.200941005721688">
        <ele>124.63</ele>
        <time>2018-07-07T10:42:13Z</time>
      </trkpt>
      <trkpt lat="47.966843023896217" lon="-2.200646968558431">
        <ele>124.15000000000001</ele>
        <time>2018-07-07T10:42:14Z</time>
      </trkpt>
      <trkpt lat="47.967026000842452" lon="-2.198008010163903">
        <ele>123.19</ele>
        <time>2018-07-07T10:42:23Z</time>
      </trkpt>
      <trkpt lat="47.967232028022408" lon="-2.195020029321313">
        <ele>124.63</ele>
        <time>2018-07-07T10:42:33Z</time>
      </trkpt>
      <trkpt lat="47.967397989705205" lon="-2.192619033157826">
        <ele>121.73999999999999</ele>
        <time>2018-07-07T10:42:41Z</time>
      </trkpt>
      <trkpt lat="47.96758197247982" lon="-2.190305041149259">
        <ele>121.26000000000001</ele>
        <time>2018-07-07T10:42:49Z</time>
      </trkpt>
      <trkpt lat="47.968022022396326" lon="-2.18768703751266">
        <ele>116.94</ele>
        <time>2018-07-07T10:42:58Z</time>
      </trkpt>
      <trkpt lat="47.968368027359247" lon="-2.186042005196214">
        <ele>116.94</ele>
        <time>2018-07-07T10:43:04Z</time>
      </trkpt>
      <trkpt lat="47.968426030129194" lon="-2.185768000781536">
        <ele>117.90000000000001</ele>
        <time>2018-07-07T10:43:05Z</time>
      </trkpt>
      <trkpt lat="47.968914024531841" lon="-2.18347798101604">
        <ele>122.70999999999999</ele>
        <time>2018-07-07T10:43:13Z</time>
      </trkpt>
      <trkpt lat="47.969498997554183" lon="-2.180621009320021">
        <ele>118.86</ele>
        <time>2018-07-07T10:43:23Z</time>
      </trkpt>
      <trkpt lat="47.969998978078365" lon="-2.178315985947847">
        <ele>107.81</ele>
        <time>2018-07-07T10:43:32Z</time>
      </trkpt>
      <trkpt lat="47.970255967229605" lon="-2.176849991083145">
        <ele>107.31999999999999</ele>
        <time>2018-07-07T10:43:41Z</time>
      </trkpt>
      <trkpt lat="47.970341965556145" lon="-2.175524979829788">
        <ele>110.69</ele>
        <time>2018-07-07T10:43:50Z</time>
      </trkpt>
      <trkpt lat="47.970369961112738" lon="-2.174672959372401">
        <ele>112.13</ele>
        <time>2018-07-07T10:43:56Z</time>
      </trkpt>
      <trkpt lat="47.97037398442626" lon="-2.174572041258216">
        <ele>112.61</ele>
        <time>2018-07-07T10:43:57Z</time>
      </trkpt>
      <trkpt lat="47.970388988032937" lon="-2.174183037132025">
        <ele>114.05</ele>
        <time>2018-07-07T10:44:01Z</time>
      </trkpt>
      <trkpt lat="47.970393011346459" lon="-2.174072982743383">
        <ele>114.53</ele>
        <time>2018-07-07T10:44:02Z</time>
      </trkpt>
      <trkpt lat="47.970426036044955" lon="-2.173413997516036">
        <ele>118.86</ele>
        <time>2018-07-07T10:44:08Z</time>
      </trkpt>
      <trkpt lat="47.970433998852968" lon="-2.173306960612536">
        <ele>119.34</ele>
        <time>2018-07-07T10:44:09Z</time>
      </trkpt>
      <trkpt lat="47.970441039651632" lon="-2.173205958679318">
        <ele>120.3</ele>
        <time>2018-07-07T10:44:10Z</time>
      </trkpt>
      <trkpt lat="47.970447996631265" lon="-2.17309900559485">
        <ele>120.78</ele>
        <time>2018-07-07T10:44:11Z</time>
      </trkpt>
      <trkpt lat="47.970455959439278" lon="-2.172991968691349">
        <ele>121.73999999999999</ele>
        <time>2018-07-07T10:44:12Z</time>
      </trkpt>
      <trkpt lat="47.970610018819571" lon="-2.171929981559515">
        <ele>125.59</ele>
        <time>2018-07-07T10:44:22Z</time>
      </trkpt>
      <trkpt lat="47.970645977184176" lon="-2.171396976336837">
        <ele>127.51000000000001</ele>
        <time>2018-07-07T10:44:27Z</time>
      </trkpt>
      <trkpt lat="47.970670033246279" lon="-2.171298991888762">
        <ele>127.98999999999999</ele>
        <time>2018-07-07T10:44:28Z</time>
      </trkpt>
      <trkpt lat="47.970861978828907" lon="-2.170570017769933">
        <ele>128.47</ele>
        <time>2018-07-07T10:44:35Z</time>
      </trkpt>
      <trkpt lat="47.970890980213881" lon="-2.170474966987968">
        <ele>128.94999999999999</ele>
        <time>2018-07-07T10:44:36Z</time>
      </trkpt>
      <trkpt lat="47.970983013510704" lon="-2.170162992551923">
        <ele>128.94999999999999</ele>
        <time>2018-07-07T10:44:39Z</time>
      </trkpt>
      <trkpt lat="47.971017966046929" lon="-2.17004899866879">
        <ele>128.94999999999999</ele>
        <time>2018-07-07T10:44:40Z</time>
      </trkpt>
      <trkpt lat="47.971510989591479" lon="-2.168796993792057">
        <ele>125.11</ele>
        <time>2018-07-07T10:44:50Z</time>
      </trkpt>
      <trkpt lat="47.972018010914326" lon="-2.167533002793789">
        <ele>120.3</ele>
        <time>2018-07-07T10:45:00Z</time>
      </trkpt>
      <trkpt lat="47.972339037805796" lon="-2.166744014248252">
        <ele>116.45999999999999</ele>
        <time>2018-07-07T10:45:07Z</time>
      </trkpt>
      <trkpt lat="47.972762994468212" lon="-2.165674986317754">
        <ele>113.09</ele>
        <time>2018-07-07T10:45:16Z</time>
      </trkpt>
      <trkpt lat="47.973473025485873" lon="-2.163971029222012">
        <ele>108.77</ele>
        <time>2018-07-07T10:45:28Z</time>
      </trkpt>
      <trkpt lat="47.974269976839423" lon="-2.162054004147649">
        <ele>99.629999999999995</ele>
        <time>2018-07-07T10:45:39Z</time>
      </trkpt>
      <trkpt lat="47.975020995363593" lon="-2.160164974629879">
        <ele>96.269999999999996</ele>
        <time>2018-07-07T10:45:47Z</time>
      </trkpt>
      <trkpt lat="47.976744985207915" lon="-2.155995983630419">
        <ele>97.709999999999994</ele>
        <time>2018-07-07T10:46:03Z</time>
      </trkpt>
      <trkpt lat="47.977722985669971" lon="-2.153609991073608">
        <ele>92.900000000000006</ele>
        <time>2018-07-07T10:46:12Z</time>
      </trkpt>
      <trkpt lat="47.978873988613486" lon="-2.150785038247705">
        <ele>91.939999999999998</ele>
        <time>2018-07-07T10:46:23Z</time>
      </trkpt>
      <trkpt lat="47.980172010138631" lon="-2.147638974711299">
        <ele>94.349999999999994</ele>
        <time>2018-07-07T10:46:35Z</time>
      </trkpt>
      <trkpt lat="47.981249000877142" lon="-2.145033041015267">
        <ele>83.769999999999996</ele>
        <time>2018-07-07T10:46:45Z</time>
      </trkpt>
      <trkpt lat="47.982333032414317" lon="-2.142410008236766">
        <ele>70.310000000000002</ele>
        <time>2018-07-07T10:46:56Z</time>
      </trkpt>
      <trkpt lat="47.983454028144479" lon="-2.139695025980473">
        <ele>70.790000000000006</ele>
        <time>2018-07-07T10:47:09Z</time>
      </trkpt>
      <trkpt lat="47.983791986480355" lon="-2.139075016602874">
        <ele>72.239999999999995</ele>
        <time>2018-07-07T10:47:12Z</time>
      </trkpt>
      <trkpt lat="47.983930958434939" lon="-2.138922968879342">
        <ele>72.239999999999995</ele>
        <time>2018-07-07T10:47:13Z</time>
      </trkpt>
      <trkpt lat="47.984082000330091" lon="-2.138802018016577">
        <ele>72.719999999999999</ele>
        <time>2018-07-07T10:47:14Z</time>
      </trkpt>
      <trkpt lat="47.984234970062971" lon="-2.138678971678019">
        <ele>73.200000000000003</ele>
        <time>2018-07-07T10:47:15Z</time>
      </trkpt>
      <trkpt lat="47.984394980594516" lon="-2.138585010543466">
        <ele>73.200000000000003</ele>
        <time>2018-07-07T10:47:16Z</time>
      </trkpt>
      <trkpt lat="47.984564965590835" lon="-2.138543017208576">
        <ele>73.680000000000007</ele>
        <time>2018-07-07T10:47:17Z</time>
      </trkpt>
      <trkpt lat="47.984735034406185" lon="-2.138500018045306">
        <ele>74.159999999999997</ele>
        <time>2018-07-07T10:47:18Z</time>
      </trkpt>
      <trkpt lat="47.984907031059265" lon="-2.138501023873687">
        <ele>74.159999999999997</ele>
        <time>2018-07-07T10:47:19Z</time>
      </trkpt>
      <trkpt lat="47.985081039369106" lon="-2.138512004166842">
        <ele>74.640000000000001</ele>
        <time>2018-07-07T10:47:20Z</time>
      </trkpt>
      <trkpt lat="47.985254041850567" lon="-2.138545028865337">
        <ele>74.640000000000001</ele>
        <time>2018-07-07T10:47:21Z</time>
      </trkpt>
      <trkpt lat="47.986811986193061" lon="-2.138927998021245">
        <ele>77.519999999999996</ele>
        <time>2018-07-07T10:47:30Z</time>
      </trkpt>
      <trkpt lat="47.988541005179286" lon="-2.139334017410874">
        <ele>78.969999999999999</ele>
        <time>2018-07-07T10:47:39Z</time>
      </trkpt>
      <trkpt lat="47.989758979529142" lon="-2.139651020988822">
        <ele>79.930000000000007</ele>
        <time>2018-07-07T10:47:46Z</time>
      </trkpt>
      <trkpt lat="47.989923013374209" lon="-2.139683961868286">
        <ele>79.930000000000007</ele>
        <time>2018-07-07T10:47:47Z</time>
      </trkpt>
      <trkpt lat="47.990942001342773" lon="-2.13971103541553">
        <ele>79.930000000000007</ele>
        <time>2018-07-07T10:47:53Z</time>
      </trkpt>
      <trkpt lat="47.991274008527398" lon="-2.139558987691999">
        <ele>79.930000000000007</ele>
        <time>2018-07-07T10:47:55Z</time>
      </trkpt>
      <trkpt lat="47.991422032937407" lon="-2.139422027394176">
        <ele>79.930000000000007</ele>
        <time>2018-07-07T10:47:56Z</time>
      </trkpt>
      <trkpt lat="47.991559999063611" lon="-2.139278026297689">
        <ele>79.930000000000007</ele>
        <time>2018-07-07T10:47:57Z</time>
      </trkpt>
      <trkpt lat="47.991684973239899" lon="-2.13910804130137">
        <ele>80.409999999999997</ele>
        <time>2018-07-07T10:47:58Z</time>
      </trkpt>
      <trkpt lat="47.991811037063599" lon="-2.138935960829258">
        <ele>80.409999999999997</ele>
        <time>2018-07-07T10:47:59Z</time>
      </trkpt>
      <trkpt lat="47.991938022896647" lon="-2.138762958347797">
        <ele>80.409999999999997</ele>
        <time>2018-07-07T10:48:00Z</time>
      </trkpt>
      <trkpt lat="47.992190988734365" lon="-2.138417037203908">
        <ele>80.409999999999997</ele>
        <time>2018-07-07T10:48:02Z</time>
      </trkpt>
      <trkpt lat="47.993163038045168" lon="-2.137594018131495">
        <ele>81.370000000000005</ele>
        <time>2018-07-07T10:48:09Z</time>
      </trkpt>
      <trkpt lat="47.993548018857837" lon="-2.137356977909803">
        <ele>82.329999999999998</ele>
        <time>2018-07-07T10:48:12Z</time>
      </trkpt>
      <trkpt lat="47.993667963892221" lon="-2.137282965704799">
        <ele>82.810000000000002</ele>
        <time>2018-07-07T10:48:13Z</time>
      </trkpt>
      <trkpt lat="47.993757985532284" lon="-2.137168971821666">
        <ele>83.290000000000006</ele>
        <time>2018-07-07T10:48:14Z</time>
      </trkpt>
      <trkpt lat="47.993839960545301" lon="-2.137048020958901">
        <ele>83.769999999999996</ele>
        <time>2018-07-07T10:48:15Z</time>
      </trkpt>
      <trkpt lat="47.993922019377351" lon="-2.136927992105484">
        <ele>83.769999999999996</ele>
        <time>2018-07-07T10:48:16Z</time>
      </trkpt>
      <trkpt lat="47.994005000218749" lon="-2.136807041242719">
        <ele>84.25</ele>
        <time>2018-07-07T10:48:17Z</time>
      </trkpt>
      <trkpt lat="47.994059985503554" lon="-2.136657005175948">
        <ele>85.209999999999994</ele>
        <time>2018-07-07T10:48:18Z</time>
      </trkpt>
      <trkpt lat="47.994238017126918" lon="-2.135926019400358">
        <ele>87.140000000000001</ele>
        <time>2018-07-07T10:48:22Z</time>
      </trkpt>
      <trkpt lat="47.994259977713227" lon="-2.135715968906879">
        <ele>87.620000000000005</ele>
        <time>2018-07-07T10:48:23Z</time>
      </trkpt>
      <trkpt lat="47.994269030168653" lon="-2.135498039424419">
        <ele>88.099999999999994</ele>
        <time>2018-07-07T10:48:24Z</time>
      </trkpt>
      <trkpt lat="47.994269030168653" lon="-2.135266028344631">
        <ele>88.579999999999998</ele>
        <time>2018-07-07T10:48:25Z</time>
      </trkpt>
      <trkpt lat="47.994269030168653" lon="-2.134995041415095">
        <ele>89.060000000000002</ele>
        <time>2018-07-07T10:48:26Z</time>
      </trkpt>
      <trkpt lat="47.994064008817077" lon="-2.133085979148746">
        <ele>91.939999999999998</ele>
        <time>2018-07-07T10:48:33Z</time>
      </trkpt>
      <trkpt lat="47.993930988013744" lon="-2.132045030593872">
        <ele>93.870000000000005</ele>
        <time>2018-07-07T10:48:37Z</time>
      </trkpt>
      <trkpt lat="47.9938970413059" lon="-2.131778988987207">
        <ele>93.870000000000005</ele>
        <time>2018-07-07T10:48:38Z</time>
      </trkpt>
      <trkpt lat="47.993661006912589" lon="-2.129970006644726">
        <ele>96.269999999999996</ele>
        <time>2018-07-07T10:48:45Z</time>
      </trkpt>
      <trkpt lat="47.993438970297575" lon="-2.127349991351366">
        <ele>98.670000000000002</ele>
        <time>2018-07-07T10:48:55Z</time>
      </trkpt>
      <trkpt lat="47.993485992774367" lon="-2.124137962237001">
        <ele>98.670000000000002</ele>
        <time>2018-07-07T10:49:07Z</time>
      </trkpt>
      <trkpt lat="47.993313996121287" lon="-2.122031003236771">
        <ele>98.670000000000002</ele>
        <time>2018-07-07T10:49:15Z</time>
      </trkpt>
      <trkpt lat="47.993249036371708" lon="-2.121499003842473">
        <ele>98.189999999999998</ele>
        <time>2018-07-07T10:49:17Z</time>
      </trkpt>
      <trkpt lat="47.993238978087902" lon="-2.121248971670866">
        <ele>98.189999999999998</ele>
        <time>2018-07-07T10:49:18Z</time>
      </trkpt>
      <trkpt lat="47.993238978087902" lon="-2.120993994176388">
        <ele>98.670000000000002</ele>
        <time>2018-07-07T10:49:19Z</time>
      </trkpt>
      <trkpt lat="47.993238978087902" lon="-2.120661986991763">
        <ele>99.150000000000006</ele>
        <time>2018-07-07T10:49:20Z</time>
      </trkpt>
      <trkpt lat="47.993284994736314" lon="-2.120455959811807">
        <ele>99.629999999999995</ele>
        <time>2018-07-07T10:49:21Z</time>
      </trkpt>
      <trkpt lat="47.9933409858495" lon="-2.120211962610483">
        <ele>100.11</ele>
        <time>2018-07-07T10:49:22Z</time>
      </trkpt>
      <trkpt lat="47.99347098916769" lon="-2.120001995936036">
        <ele>100.59999999999999</ele>
        <time>2018-07-07T10:49:23Z</time>
      </trkpt>
      <trkpt lat="47.993595963343978" lon="-2.119814995676279">
        <ele>101.08</ele>
        <time>2018-07-07T10:49:24Z</time>
      </trkpt>
      <trkpt lat="47.993720015510917" lon="-2.119629001244903">
        <ele>101.08</ele>
        <time>2018-07-07T10:49:25Z</time>
      </trkpt>
      <trkpt lat="47.993845995515585" lon="-2.119447030127049">
        <ele>102.04000000000001</ele>
        <time>2018-07-07T10:49:26Z</time>
      </trkpt>
      <trkpt lat="47.993973987177014" lon="-2.119266986846924">
        <ele>102.52</ele>
        <time>2018-07-07T10:49:27Z</time>
      </trkpt>
      <trkpt lat="47.994103990495205" lon="-2.11908602155745">
        <ele>103</ele>
        <time>2018-07-07T10:49:28Z</time>
      </trkpt>
      <trkpt lat="47.994233993813396" lon="-2.118903966620565">
        <ele>103.95999999999999</ele>
        <time>2018-07-07T10:49:29Z</time>
      </trkpt>
      <trkpt lat="47.994463993236423" lon="-2.118510017171502">
        <ele>104.92</ele>
        <time>2018-07-07T10:49:31Z</time>
      </trkpt>
      <trkpt lat="47.994625009596348" lon="-2.118025040253997">
        <ele>106.36</ele>
        <time>2018-07-07T10:49:33Z</time>
      </trkpt>
      <trkpt lat="47.994783008471131" lon="-2.117269998416305">
        <ele>108.29000000000001</ele>
        <time>2018-07-07T10:49:36Z</time>
      </trkpt>
      <trkpt lat="47.994804969057441" lon="-2.117004040628672">
        <ele>109.25</ele>
        <time>2018-07-07T10:49:37Z</time>
      </trkpt>
      <trkpt lat="47.994804969057441" lon="-2.116734981536865">
        <ele>110.20999999999999</ele>
        <time>2018-07-07T10:49:38Z</time>
      </trkpt>
      <trkpt lat="47.994804969057441" lon="-2.115159016102552">
        <ele>115.5</ele>
        <time>2018-07-07T10:49:45Z</time>
      </trkpt>
      <trkpt lat="47.994869006797671" lon="-2.114641014486551">
        <ele>117.90000000000001</ele>
        <time>2018-07-07T10:49:48Z</time>
      </trkpt>
      <trkpt lat="47.994900019839406" lon="-2.114460971206427">
        <ele>118.86</ele>
        <time>2018-07-07T10:49:49Z</time>
      </trkpt>
      <trkpt lat="47.995452973991632" lon="-2.113075023517013">
        <ele>124.15000000000001</ele>
        <time>2018-07-07T10:49:58Z</time>
      </trkpt>
      <trkpt lat="47.996196029707789" lon="-2.111744983121753">
        <ele>127.03</ele>
        <time>2018-07-07T10:50:10Z</time>
      </trkpt>
      <trkpt lat="47.997029023244977" lon="-2.110257027670741">
        <ele>130.88</ele>
        <time>2018-07-07T10:50:23Z</time>
      </trkpt>
      <trkpt lat="47.99750997684896" lon="-2.10939796641469">
        <ele>133.75999999999999</ele>
        <time>2018-07-07T10:50:30Z</time>
      </trkpt>
      <trkpt lat="47.998488983139396" lon="-2.107640029862523">
        <ele>133.28</ele>
        <time>2018-07-07T10:50:45Z</time>
      </trkpt>
      <trkpt lat="47.999123996123672" lon="-2.106523979455233">
        <ele>132.80000000000001</ele>
        <time>2018-07-07T10:50:55Z</time>
      </trkpt>
      <trkpt lat="47.999595981091261" lon="-2.105690985918045">
        <ele>131.36000000000001</ele>
        <time>2018-07-07T10:51:04Z</time>
      </trkpt>
      <trkpt lat="48.000208027660847" lon="-2.104628998786211">
        <ele>129.43000000000001</ele>
        <time>2018-07-07T10:51:17Z</time>
      </trkpt>
      <trkpt lat="48.000518996268511" lon="-2.104116026312113">
        <ele>129.91999999999999</ele>
        <time>2018-07-07T10:51:23Z</time>
      </trkpt>
      <trkpt lat="48.000572975724936" lon="-2.104027010500431">
        <ele>129.91999999999999</ele>
        <time>2018-07-07T10:51:24Z</time>
      </trkpt>
      <trkpt lat="48.000740027055144" lon="-2.103750994428992">
        <ele>130.40000000000001</ele>
        <time>2018-07-07T10:51:27Z</time>
      </trkpt>
      <trkpt lat="48.00079601816833" lon="-2.103658961132169">
        <ele>130.40000000000001</ele>
        <time>2018-07-07T10:51:28Z</time>
      </trkpt>
      <trkpt lat="48.001070022583008" lon="-2.103152023628354">
        <ele>130.88</ele>
        <time>2018-07-07T10:51:34Z</time>
      </trkpt>
      <trkpt lat="48.0015470366925" lon="-2.102296985685825">
        <ele>133.28</ele>
        <time>2018-07-07T10:51:44Z</time>
      </trkpt>
      <trkpt lat="48.001594981178641" lon="-2.102212999016047">
        <ele>133.75999999999999</ele>
        <time>2018-07-07T10:51:45Z</time>
      </trkpt>
      <trkpt lat="48.001640997827053" lon="-2.10213202983141">
        <ele>134.24000000000001</ele>
        <time>2018-07-07T10:51:46Z</time>
      </trkpt>
      <trkpt lat="48.001680979505181" lon="-2.102039996534586">
        <ele>134.72</ele>
        <time>2018-07-07T10:51:47Z</time>
      </trkpt>
      <trkpt lat="48.001706041395664" lon="-2.10194000042975">
        <ele>134.72</ele>
        <time>2018-07-07T10:51:48Z</time>
      </trkpt>
      <trkpt lat="48.001732025295496" lon="-2.101837992668152">
        <ele>135.19999999999999</ele>
        <time>2018-07-07T10:51:49Z</time>
      </trkpt>
      <trkpt lat="48.001815006136894" lon="-2.10142501629889">
        <ele>136.63999999999999</ele>
        <time>2018-07-07T10:51:53Z</time>
      </trkpt>
      <trkpt lat="48.001835960894823" lon="-2.101323008537293">
        <ele>137.13</ele>
        <time>2018-07-07T10:51:54Z</time>
      </trkpt>
      <trkpt lat="48.001855993643403" lon="-2.101221000775695">
        <ele>138.09</ele>
        <time>2018-07-07T10:51:55Z</time>
      </trkpt>
      <trkpt lat="48.001877032220364" lon="-2.101115975528956">
        <ele>138.56999999999999</ele>
        <time>2018-07-07T10:51:56Z</time>
      </trkpt>
      <trkpt lat="48.001884995028377" lon="-2.101006004959345">
        <ele>139.53</ele>
        <time>2018-07-07T10:51:57Z</time>
      </trkpt>
      <trkpt lat="48.001881977543235" lon="-2.100893016904593">
        <ele>139.53</ele>
        <time>2018-07-07T10:51:58Z</time>
      </trkpt>
      <trkpt lat="48.001878038048744" lon="-2.100670980289578">
        <ele>139.53</ele>
        <time>2018-07-07T10:52:00Z</time>
      </trkpt>
      <trkpt lat="48.001861022785306" lon="-2.100006965920329">
        <ele>139.05000000000001</ele>
        <time>2018-07-07T10:52:06Z</time>
      </trkpt>
      <trkpt lat="48.001829003915191" lon="-2.099472032859922">
        <ele>137.61000000000001</ele>
        <time>2018-07-07T10:52:11Z</time>
      </trkpt>
      <trkpt lat="48.001856999471784" lon="-2.099038017913699">
        <ele>136.16</ele>
        <time>2018-07-07T10:52:15Z</time>
      </trkpt>
      <trkpt lat="48.001975016668439" lon="-2.098637027665973">
        <ele>136.16</ele>
        <time>2018-07-07T10:52:19Z</time>
      </trkpt>
      <trkpt lat="48.002408025786281" lon="-2.097483007237315">
        <ele>137.61000000000001</ele>
        <time>2018-07-07T10:52:31Z</time>
      </trkpt>
      <trkpt lat="48.002856038510799" lon="-2.096353964880109">
        <ele>139.53</ele>
        <time>2018-07-07T10:52:43Z</time>
      </trkpt>
      <trkpt lat="48.002893002703786" lon="-2.096260003745556">
        <ele>140.00999999999999</ele>
        <time>2018-07-07T10:52:44Z</time>
      </trkpt>
      <trkpt lat="48.003389965742826" lon="-2.095048986375332">
        <ele>140.00999999999999</ele>
        <time>2018-07-07T10:52:57Z</time>
      </trkpt>
      <trkpt lat="48.003573026508093" lon="-2.094584964215756">
        <ele>139.53</ele>
        <time>2018-07-07T10:53:02Z</time>
      </trkpt>
      <trkpt lat="48.003607979044318" lon="-2.094494020566344">
        <ele>139.53</ele>
        <time>2018-07-07T10:53:03Z</time>
      </trkpt>
      <trkpt lat="48.003680985420942" lon="-2.094301991164684">
        <ele>139.53</ele>
        <time>2018-07-07T10:53:05Z</time>
      </trkpt>
      <trkpt lat="48.003756003454328" lon="-2.094105016440153">
        <ele>139.53</ele>
        <time>2018-07-07T10:53:07Z</time>
      </trkpt>
      <trkpt lat="48.003792967647314" lon="-2.094008037820458">
        <ele>139.53</ele>
        <time>2018-07-07T10:53:08Z</time>
      </trkpt>
      <trkpt lat="48.004268975928426" lon="-2.09278897382319">
        <ele>138.56999999999999</ele>
        <time>2018-07-07T10:53:21Z</time>
      </trkpt>
      <trkpt lat="48.004822013899684" lon="-2.091387016698718">
        <ele>140.00999999999999</ele>
        <time>2018-07-07T10:53:36Z</time>
      </trkpt>
      <trkpt lat="48.004867024719715" lon="-2.09128400310874">
        <ele>140.00999999999999</ele>
        <time>2018-07-07T10:53:37Z</time>
      </trkpt>
      <trkpt lat="48.004915975034237" lon="-2.091169003397226">
        <ele>140.00999999999999</ele>
        <time>2018-07-07T10:53:38Z</time>
      </trkpt>
      <trkpt lat="48.004975989460945" lon="-2.091029025614262">
        <ele>140.00999999999999</ele>
        <time>2018-07-07T10:53:39Z</time>
      </trkpt>
      <trkpt lat="48.005613014101982" lon="-2.089403020218015">
        <ele>142.41</ele>
        <time>2018-07-07T10:53:50Z</time>
      </trkpt>
      <trkpt lat="48.006023978814483" lon="-2.088307002559304">
        <ele>142.41</ele>
        <time>2018-07-07T10:53:59Z</time>
      </trkpt>
      <trkpt lat="48.006052980199456" lon="-2.088221004232764">
        <ele>142.41</ele>
        <time>2018-07-07T10:54:00Z</time>
      </trkpt>
      <trkpt lat="48.006072007119656" lon="-2.088139029219747">
        <ele>142.41</ele>
        <time>2018-07-07T10:54:01Z</time>
      </trkpt>
      <trkpt lat="48.006090028211474" lon="-2.088058982044458">
        <ele>142.88999999999999</ele>
        <time>2018-07-07T10:54:02Z</time>
      </trkpt>
      <trkpt lat="48.006108971312642" lon="-2.087977007031441">
        <ele>142.88999999999999</ele>
        <time>2018-07-07T10:54:03Z</time>
      </trkpt>
      <trkpt lat="48.006026996299624" lon="-2.087832000106573">
        <ele>142.88999999999999</ele>
        <time>2018-07-07T10:54:04Z</time>
      </trkpt>
      <trkpt lat="48.006037976592779" lon="-2.087755976244807">
        <ele>142.88999999999999</ele>
        <time>2018-07-07T10:54:05Z</time>
      </trkpt>
      <trkpt lat="48.006105031818151" lon="-2.087643994018436">
        <ele>142.88999999999999</ele>
        <time>2018-07-07T10:54:06Z</time>
      </trkpt>
      <trkpt lat="48.006112994626164" lon="-2.087637959048152">
        <ele>142.88999999999999</ele>
        <time>2018-07-07T10:54:07Z</time>
      </trkpt>
      <trkpt lat="48.00625397823751" lon="-2.087582973763347">
        <ele>142.88999999999999</ele>
        <time>2018-07-07T10:54:08Z</time>
      </trkpt>
      <trkpt lat="48.006314998492599" lon="-2.087474009022117">
        <ele>142.88999999999999</ele>
        <time>2018-07-07T10:54:09Z</time>
      </trkpt>
      <trkpt lat="48.006392028182745" lon="-2.087337970733643">
        <ele>142.88999999999999</ele>
        <time>2018-07-07T10:54:10Z</time>
      </trkpt>
      <trkpt lat="48.00644701346755" lon="-2.087205033749342">
        <ele>142.88999999999999</ele>
        <time>2018-07-07T10:54:11Z</time>
      </trkpt>
      <trkpt lat="48.007058976218104" lon="-2.08567600697279">
        <ele>140.49000000000001</ele>
        <time>2018-07-07T10:54:21Z</time>
      </trkpt>
      <trkpt lat="48.007975034415722" lon="-2.083271993324161">
        <ele>137.13</ele>
        <time>2018-07-07T10:54:34Z</time>
      </trkpt>
      <trkpt lat="48.008791012689471" lon="-2.081079035997391">
        <ele>134.72</ele>
        <time>2018-07-07T10:54:44Z</time>
      </trkpt>
      <trkpt lat="48.009625012055039" lon="-2.078895969316363">
        <ele>136.63999999999999</ele>
        <time>2018-07-07T10:54:52Z</time>
      </trkpt>
      <trkpt lat="48.011250011622906" lon="-2.074446016922593">
        <ele>142.41</ele>
        <time>2018-07-07T10:55:09Z</time>
      </trkpt>
      <trkpt lat="48.012940976768732" lon="-2.069646958261728">
        <ele>135.19999999999999</ele>
        <time>2018-07-07T10:55:27Z</time>
      </trkpt>
      <trkpt lat="48.013567021116614" lon="-2.067783996462822">
        <ele>132.31999999999999</ele>
        <time>2018-07-07T10:55:34Z</time>
      </trkpt>
      <trkpt lat="48.014088040217757" lon="-2.066267039626837">
        <ele>133.75999999999999</ele>
        <time>2018-07-07T10:55:40Z</time>
      </trkpt>
      <trkpt lat="48.015267038717866" lon="-2.062727026641369">
        <ele>141.93000000000001</ele>
        <time>2018-07-07T10:55:53Z</time>
      </trkpt>
      <trkpt lat="48.016419969499111" lon="-2.05888501368463">
        <ele>144.34</ele>
        <time>2018-07-07T10:56:07Z</time>
      </trkpt>
      <trkpt lat="48.017643978819251" lon="-2.054776037111878">
        <ele>142.88999999999999</ele>
        <time>2018-07-07T10:56:22Z</time>
      </trkpt>
      <trkpt lat="48.019036967307329" lon="-2.05016003921628">
        <ele>141.93000000000001</ele>
        <time>2018-07-07T10:56:39Z</time>
      </trkpt>
      <trkpt lat="48.019860992208123" lon="-2.047418989241123">
        <ele>143.84999999999999</ele>
        <time>2018-07-07T10:56:49Z</time>
      </trkpt>
      <trkpt lat="48.02068904042244" lon="-2.044639969244599">
        <ele>139.05000000000001</ele>
        <time>2018-07-07T10:56:59Z</time>
      </trkpt>
      <trkpt lat="48.021660000085831" lon="-2.041371027007699">
        <ele>129.91999999999999</ele>
        <time>2018-07-07T10:57:11Z</time>
      </trkpt>
      <trkpt lat="48.022386962547898" lon="-2.0389240141958">
        <ele>130.88</ele>
        <time>2018-07-07T10:57:26Z</time>
      </trkpt>
      <trkpt lat="48.024153029546142" lon="-2.032946962863207">
        <ele>137.61000000000001</ele>
        <time>2018-07-07T10:57:42Z</time>
      </trkpt>
      <trkpt lat="48.024746971204877" lon="-2.030376987531781">
        <ele>140.49000000000001</ele>
        <time>2018-07-07T10:57:51Z</time>
      </trkpt>
      <trkpt lat="48.02561298944056" lon="-2.024225005879998">
        <ele>139.05000000000001</ele>
        <time>2018-07-07T10:58:12Z</time>
      </trkpt>
      <trkpt lat="48.02647003903985" lon="-2.019298961386085">
        <ele>138.09</ele>
        <time>2018-07-07T10:58:29Z</time>
      </trkpt>
      <trkpt lat="48.027203036472201" lon="-2.016763016581535">
        <ele>137.13</ele>
        <time>2018-07-07T10:58:39Z</time>
      </trkpt>
      <trkpt lat="48.027701005339622" lon="-2.014355985447764">
        <ele>134.72</ele>
        <time>2018-07-07T10:58:49Z</time>
      </trkpt>
      <trkpt lat="48.028439031913877" lon="-2.010631989687681">
        <ele>134.72</ele>
        <time>2018-07-07T10:59:04Z</time>
      </trkpt>
      <trkpt lat="48.029074966907501" lon="-2.007418032735586">
        <ele>131.84</ele>
        <time>2018-07-07T10:59:16Z</time>
      </trkpt>
      <trkpt lat="48.029773011803627" lon="-2.003998970612884">
        <ele>130.88</ele>
        <time>2018-07-07T10:59:29Z</time>
      </trkpt>
      <trkpt lat="48.03021096624434" lon="-2.001840965822339">
        <ele>131.84</ele>
        <time>2018-07-07T10:59:38Z</time>
      </trkpt>
      <trkpt lat="48.030240973457694" lon="-2.001692019402981">
        <ele>131.84</ele>
        <time>2018-07-07T10:59:39Z</time>
      </trkpt>
      <trkpt lat="48.030266035348177" lon="-2.001569978892803">
        <ele>131.36000000000001</ele>
        <time>2018-07-07T10:59:40Z</time>
      </trkpt>
      <trkpt lat="48.030198980122805" lon="-2.001353977248073">
        <ele>131.36000000000001</ele>
        <time>2018-07-07T10:59:41Z</time>
      </trkpt>
      <trkpt lat="48.03012203425169" lon="-2.001299997791648">
        <ele>131.36000000000001</ele>
        <time>2018-07-07T10:59:42Z</time>
      </trkpt>
      <trkpt lat="48.030032012611628" lon="-2.001235960051417">
        <ele>131.36000000000001</ele>
        <time>2018-07-07T10:59:43Z</time>
      </trkpt>
      <trkpt lat="48.029931010678411" lon="-2.001165971159935">
        <ele>130.88</ele>
        <time>2018-07-07T10:59:44Z</time>
      </trkpt>
      <trkpt lat="48.029273031279445" lon="-2.000281009823084">
        <ele>129.91999999999999</ele>
        <time>2018-07-07T10:59:50Z</time>
      </trkpt>
      <trkpt lat="48.028713036328554" lon="-1.998851979151368">
        <ele>127.98999999999999</ele>
        <time>2018-07-07T10:59:56Z</time>
      </trkpt>
      <trkpt lat="48.028482031077147" lon="-1.996455006301403">
        <ele>121.73999999999999</ele>
        <time>2018-07-07T11:00:04Z</time>
      </trkpt>
      <trkpt lat="48.028594013303518" lon="-1.994404960423708">
        <ele>116.45999999999999</ele>
        <time>2018-07-07T11:00:11Z</time>
      </trkpt>
      <trkpt lat="48.029595986008644" lon="-1.989826010540128">
        <ele>112.13</ele>
        <time>2018-07-07T11:00:27Z</time>
      </trkpt>
      <trkpt lat="48.030440965667367" lon="-1.985916020348668">
        <ele>115.5</ele>
        <time>2018-07-07T11:00:41Z</time>
      </trkpt>
      <trkpt lat="48.031474035233259" lon="-1.981020988896489">
        <ele>127.03</ele>
        <time>2018-07-07T11:00:58Z</time>
      </trkpt>
      <trkpt lat="48.03177704103291" lon="-1.977765038609505">
        <ele>128.47</ele>
        <time>2018-07-07T11:01:09Z</time>
      </trkpt>
      <trkpt lat="48.031718032434583" lon="-1.976643037050962">
        <ele>129.43000000000001</ele>
        <time>2018-07-07T11:01:13Z</time>
      </trkpt>
      <trkpt lat="48.031653994694352" lon="-1.976400967687368">
        <ele>129.43000000000001</ele>
        <time>2018-07-07T11:01:14Z</time>
      </trkpt>
      <trkpt lat="48.03158501163125" lon="-1.976169962435961">
        <ele>129.43000000000001</ele>
        <time>2018-07-07T11:01:15Z</time>
      </trkpt>
      <trkpt lat="48.031517034396529" lon="-1.975943986326456">
        <ele>129.43000000000001</ele>
        <time>2018-07-07T11:01:16Z</time>
      </trkpt>
      <trkpt lat="48.03145500831306" lon="-1.975737037137151">
        <ele>129.43000000000001</ele>
        <time>2018-07-07T11:01:17Z</time>
      </trkpt>
      <trkpt lat="48.031429024413228" lon="-1.975517012178898">
        <ele>129.43000000000001</ele>
        <time>2018-07-07T11:01:18Z</time>
      </trkpt>
      <trkpt lat="48.031405974179506" lon="-1.975315008312464">
        <ele>129.43000000000001</ele>
        <time>2018-07-07T11:01:19Z</time>
      </trkpt>
      <trkpt lat="48.031389964744449" lon="-1.975122978910804">
        <ele>129.43000000000001</ele>
        <time>2018-07-07T11:01:20Z</time>
      </trkpt>
      <trkpt lat="48.031389964744449" lon="-1.974936984479427">
        <ele>129.43000000000001</ele>
        <time>2018-07-07T11:01:21Z</time>
      </trkpt>
      <trkpt lat="48.031389964744449" lon="-1.97459701448679">
        <ele>129.43000000000001</ele>
        <time>2018-07-07T11:01:23Z</time>
      </trkpt>
      <trkpt lat="48.03136900998652" lon="-1.974429963156581">
        <ele>129.43000000000001</ele>
        <time>2018-07-07T11:01:24Z</time>
      </trkpt>
      <trkpt lat="48.031317964196205" lon="-1.9742769934237">
        <ele>129.43000000000001</ele>
        <time>2018-07-07T11:01:25Z</time>
      </trkpt>
      <trkpt lat="48.031264990568161" lon="-1.974114971235395">
        <ele>128.94999999999999</ele>
        <time>2018-07-07T11:01:26Z</time>
      </trkpt>
      <trkpt lat="48.031174968928099" lon="-1.973968036472797">
        <ele>128.94999999999999</ele>
        <time>2018-07-07T11:01:27Z</time>
      </trkpt>
      <trkpt lat="48.031062986701727" lon="-1.973839038982987">
        <ele>128.94999999999999</ele>
        <time>2018-07-07T11:01:28Z</time>
      </trkpt>
      <trkpt lat="48.030944969505072" lon="-1.973705012351275">
        <ele>128.47</ele>
        <time>2018-07-07T11:01:29Z</time>
      </trkpt>
      <trkpt lat="48.030827036127448" lon="-1.973569979891181">
        <ele>128.47</ele>
        <time>2018-07-07T11:01:30Z</time>
      </trkpt>
      <trkpt lat="48.030712958425283" lon="-1.97343897074461">
        <ele>127.98999999999999</ele>
        <time>2018-07-07T11:01:31Z</time>
      </trkpt>
      <trkpt lat="48.03061799146235" lon="-1.973305027931929">
        <ele>127.51000000000001</ele>
        <time>2018-07-07T11:01:32Z</time>
      </trkpt>
      <trkpt lat="48.030543979257345" lon="-1.973132025450468">
        <ele>127.51000000000001</ele>
        <time>2018-07-07T11:01:33Z</time>
      </trkpt>
      <trkpt lat="48.029923969879746" lon="-1.97146100923419">
        <ele>123.67</ele>
        <time>2018-07-07T11:01:43Z</time>
      </trkpt>
      <trkpt lat="48.029666980728507" lon="-1.969640040770173">
        <ele>119.34</ele>
        <time>2018-07-07T11:01:52Z</time>
      </trkpt>
      <trkpt lat="48.02952297963202" lon="-1.968332966789603">
        <ele>115.5</ele>
        <time>2018-07-07T11:01:58Z</time>
      </trkpt>
      <trkpt lat="48.029505964368582" lon="-1.968105984851718">
        <ele>115.01000000000001</ele>
        <time>2018-07-07T11:01:59Z</time>
      </trkpt>
      <trkpt lat="48.029528008773923" lon="-1.967900963500142">
        <ele>113.56999999999999</ele>
        <time>2018-07-07T11:02:00Z</time>
      </trkpt>
      <trkpt lat="48.029559021815658" lon="-1.967713963240385">
        <ele>112.61</ele>
        <time>2018-07-07T11:02:01Z</time>
      </trkpt>
      <trkpt lat="48.029613001272082" lon="-1.967536015436053">
        <ele>111.65000000000001</ele>
        <time>2018-07-07T11:02:02Z</time>
      </trkpt>
      <trkpt lat="48.029679972678423" lon="-1.967343986034393">
        <ele>110.69</ele>
        <time>2018-07-07T11:02:03Z</time>
      </trkpt>
      <trkpt lat="48.03038296289742" lon="-1.965341968461871">
        <ele>110.69</ele>
        <time>2018-07-07T11:02:12Z</time>
      </trkpt>
      <trkpt lat="48.03098302334547" lon="-1.963548995554447">
        <ele>114.53</ele>
        <time>2018-07-07T11:02:20Z</time>
      </trkpt>
      <trkpt lat="48.031009007245302" lon="-1.963299969211221">
        <ele>114.53</ele>
        <time>2018-07-07T11:02:21Z</time>
      </trkpt>
      <trkpt lat="48.031037002801895" lon="-1.963045997545123">
        <ele>114.05</ele>
        <time>2018-07-07T11:02:22Z</time>
      </trkpt>
      <trkpt lat="48.03106801584363" lon="-1.962754977867007">
        <ele>113.56999999999999</ele>
        <time>2018-07-07T11:02:23Z</time>
      </trkpt>
      <trkpt lat="48.031061980873346" lon="-1.962512992322445">
        <ele>113.56999999999999</ele>
        <time>2018-07-07T11:02:24Z</time>
      </trkpt>
      <trkpt lat="48.031055023893714" lon="-1.962235970422626">
        <ele>112.61</ele>
        <time>2018-07-07T11:02:25Z</time>
      </trkpt>
      <trkpt lat="48.03096299059689" lon="-1.958425976336002">
        <ele>106.84</ele>
        <time>2018-07-07T11:02:38Z</time>
      </trkpt>
      <trkpt lat="48.031019987538457" lon="-1.957846032455564">
        <ele>107.31999999999999</ele>
        <time>2018-07-07T11:02:40Z</time>
      </trkpt>
      <trkpt lat="48.031063992530107" lon="-1.957550989463925">
        <ele>107.81</ele>
        <time>2018-07-07T11:02:41Z</time>
      </trkpt>
      <trkpt lat="48.031403040513396" lon="-1.955321989953518">
        <ele>107.81</ele>
        <time>2018-07-07T11:02:49Z</time>
      </trkpt>
      <trkpt lat="48.031409997493029" lon="-1.955075981095433">
        <ele>107.31999999999999</ele>
        <time>2018-07-07T11:02:50Z</time>
      </trkpt>
      <trkpt lat="48.031388958916068" lon="-1.954835001379252">
        <ele>106.84</ele>
        <time>2018-07-07T11:02:51Z</time>
      </trkpt>
      <trkpt lat="48.031365992501378" lon="-1.954591004177928">
        <ele>106.36</ele>
        <time>2018-07-07T11:02:52Z</time>
      </trkpt>
      <trkpt lat="48.031312013044953" lon="-1.954366033896804">
        <ele>106.36</ele>
        <time>2018-07-07T11:02:53Z</time>
      </trkpt>
      <trkpt lat="48.031259039416909" lon="-1.954148020595312">
        <ele>105.40000000000001</ele>
        <time>2018-07-07T11:02:54Z</time>
      </trkpt>
      <trkpt lat="48.031076984480023" lon="-1.953394990414381">
        <ele>103</ele>
        <time>2018-07-07T11:02:58Z</time>
      </trkpt>
      <trkpt lat="48.031046977266669" lon="-1.953214025124908">
        <ele>102.52</ele>
        <time>2018-07-07T11:02:59Z</time>
      </trkpt>
      <trkpt lat="48.031046977266669" lon="-1.953013027086854">
        <ele>101.56</ele>
        <time>2018-07-07T11:03:00Z</time>
      </trkpt>
      <trkpt lat="48.031046977266669" lon="-1.952796019613743">
        <ele>100.59999999999999</ele>
        <time>2018-07-07T11:03:01Z</time>
      </trkpt>
      <trkpt lat="48.031046977266669" lon="-1.952567026019096">
        <ele>99.629999999999995</ele>
        <time>2018-07-07T11:03:02Z</time>
      </trkpt>
      <trkpt lat="48.031046977266669" lon="-1.952339038252831">
        <ele>98.189999999999998</ele>
        <time>2018-07-07T11:03:03Z</time>
      </trkpt>
      <trkpt lat="48.031027028337121" lon="-1.952113984152675">
        <ele>96.269999999999996</ele>
        <time>2018-07-07T11:03:04Z</time>
      </trkpt>
      <trkpt lat="48.030985035002232" lon="-1.951895970851183">
        <ele>94.829999999999998</ele>
        <time>2018-07-07T11:03:05Z</time>
      </trkpt>
      <trkpt lat="48.0309400241822" lon="-1.951661026105285">
        <ele>93.390000000000001</ele>
        <time>2018-07-07T11:03:06Z</time>
      </trkpt>
      <trkpt lat="48.03085402585566" lon="-1.951490035280585">
        <ele>92.420000000000002</ele>
        <time>2018-07-07T11:03:07Z</time>
      </trkpt>
      <trkpt lat="48.030760986730456" lon="-1.951303035020828">
        <ele>90.980000000000004</ele>
        <time>2018-07-07T11:03:08Z</time>
      </trkpt>
      <trkpt lat="48.030483964830637" lon="-1.95074999704957">
        <ele>87.620000000000005</ele>
        <time>2018-07-07T11:03:11Z</time>
      </trkpt>
      <trkpt lat="48.030421016737819" lon="-1.950546987354755">
        <ele>86.659999999999997</ele>
        <time>2018-07-07T11:03:12Z</time>
      </trkpt>
      <trkpt lat="48.030375000089407" lon="-1.950317993760109">
        <ele>85.689999999999998</ele>
        <time>2018-07-07T11:03:13Z</time>
      </trkpt>
      <trkpt lat="48.030134020373225" lon="-1.948879994452">
        <ele>78</ele>
        <time>2018-07-07T11:03:20Z</time>
      </trkpt>
      <trkpt lat="48.030163021758199" lon="-1.948691988363862">
        <ele>77.040000000000006</ele>
        <time>2018-07-07T11:03:21Z</time>
      </trkpt>
      <trkpt lat="48.030214989557862" lon="-1.94853600114584">
        <ele>75.599999999999994</ele>
        <time>2018-07-07T11:03:22Z</time>
      </trkpt>
      <trkpt lat="48.030291013419628" lon="-1.948382025584579">
        <ele>74.159999999999997</ele>
        <time>2018-07-07T11:03:23Z</time>
      </trkpt>
      <trkpt lat="48.030391009524465" lon="-1.94827800616622">
        <ele>73.200000000000003</ele>
        <time>2018-07-07T11:03:24Z</time>
      </trkpt>
      <trkpt lat="48.030495028942823" lon="-1.948169963434339">
        <ele>71.760000000000005</ele>
        <time>2018-07-07T11:03:25Z</time>
      </trkpt>
      <trkpt lat="48.030601982027292" lon="-1.948059992864728">
        <ele>70.790000000000006</ele>
        <time>2018-07-07T11:03:26Z</time>
      </trkpt>
      <trkpt lat="48.030797028914094" lon="-1.947857988998294">
        <ele>68.390000000000001</ele>
        <time>2018-07-07T11:03:28Z</time>
      </trkpt>
      <trkpt lat="48.030859977006912" lon="-1.947749024257064">
        <ele>67.430000000000007</ele>
        <time>2018-07-07T11:03:29Z</time>
      </trkpt>
      <trkpt lat="48.030879003927112" lon="-1.947607034817338">
        <ele>66.469999999999999</ele>
        <time>2018-07-07T11:03:30Z</time>
      </trkpt>
      <trkpt lat="48.030889984220266" lon="-1.947456998750567">
        <ele>65.030000000000001</ele>
        <time>2018-07-07T11:03:31Z</time>
      </trkpt>
      <trkpt lat="48.030842961743474" lon="-1.947316015139222">
        <ele>64.069999999999993</ele>
        <time>2018-07-07T11:03:32Z</time>
      </trkpt>
      <trkpt lat="48.030756963416934" lon="-1.947207972407341">
        <ele>63.100000000000001</ele>
        <time>2018-07-07T11:03:33Z</time>
      </trkpt>
      <trkpt lat="48.030645987018943" lon="-1.947168996557593">
        <ele>62.140000000000001</ele>
        <time>2018-07-07T11:03:34Z</time>
      </trkpt>
      <trkpt lat="48.030525958165526" lon="-1.947133960202336">
        <ele>61.659999999999997</ele>
        <time>2018-07-07T11:03:35Z</time>
      </trkpt>
      <trkpt lat="48.030397966504097" lon="-1.947095990180969">
        <ele>61.18</ele>
        <time>2018-07-07T11:03:36Z</time>
      </trkpt>
      <trkpt lat="48.030262012034655" lon="-1.947057014331222">
        <ele>60.700000000000003</ele>
        <time>2018-07-07T11:03:37Z</time>
      </trkpt>
      <trkpt lat="48.030135026201606" lon="-1.946951989084482">
        <ele>60.219999999999999</ele>
        <time>2018-07-07T11:03:38Z</time>
      </trkpt>
      <trkpt lat="48.030022038146853" lon="-1.946811005473137">
        <ele>59.740000000000002</ele>
        <time>2018-07-07T11:03:39Z</time>
      </trkpt>
      <trkpt lat="48.029950959607959" lon="-1.946617970243096">
        <ele>59.259999999999998</ele>
        <time>2018-07-07T11:03:40Z</time>
      </trkpt>
      <trkpt lat="48.029878959059715" lon="-1.946423007175326">
        <ele>58.299999999999997</ele>
        <time>2018-07-07T11:03:41Z</time>
      </trkpt>
      <trkpt lat="48.029644014313817" lon="-1.94578698836267">
        <ele>57.340000000000003</ele>
        <time>2018-07-07T11:03:44Z</time>
      </trkpt>
      <trkpt lat="48.029470006003976" lon="-1.945379041135311">
        <ele>56.369999999999997</ele>
        <time>2018-07-07T11:03:46Z</time>
      </trkpt>
      <trkpt lat="48.029351988807321" lon="-1.945202015340328">
        <ele>56.369999999999997</ele>
        <time>2018-07-07T11:03:47Z</time>
      </trkpt>
      <trkpt lat="48.028579009696841" lon="-1.944121001288295">
        <ele>53.009999999999998</ele>
        <time>2018-07-07T11:03:53Z</time>
      </trkpt>
      <trkpt lat="48.028498040512204" lon="-1.943907011300325">
        <ele>52.530000000000001</ele>
        <time>2018-07-07T11:03:54Z</time>
      </trkpt>
      <trkpt lat="48.028442971408367" lon="-1.943682041019201">
        <ele>52.049999999999997</ele>
        <time>2018-07-07T11:03:55Z</time>
      </trkpt>
      <trkpt lat="48.028411958366632" lon="-1.94344500079751">
        <ele>52.049999999999997</ele>
        <time>2018-07-07T11:03:56Z</time>
      </trkpt>
      <trkpt lat="48.028381029143929" lon="-1.9432089664042">
        <ele>52.049999999999997</ele>
        <time>2018-07-07T11:03:57Z</time>
      </trkpt>
      <trkpt lat="48.028322020545602" lon="-1.942753996700048">
        <ele>52.049999999999997</ele>
        <time>2018-07-07T11:03:59Z</time>
      </trkpt>
      <trkpt lat="48.028313973918557" lon="-1.942547969520092">
        <ele>52.049999999999997</ele>
        <time>2018-07-07T11:04:00Z</time>
      </trkpt>
      <trkpt lat="48.028307016938925" lon="-1.94234998896718">
        <ele>52.049999999999997</ele>
        <time>2018-07-07T11:04:01Z</time>
      </trkpt>
      <trkpt lat="48.028299976140261" lon="-1.94215402007103">
        <ele>53.009999999999998</ele>
        <time>2018-07-07T11:04:02Z</time>
      </trkpt>
      <trkpt lat="48.028301987797022" lon="-1.941953022032976">
        <ele>53.490000000000002</ele>
        <time>2018-07-07T11:04:03Z</time>
      </trkpt>
      <trkpt lat="48.028327971696854" lon="-1.941749006509781">
        <ele>53.969999999999999</ele>
        <time>2018-07-07T11:04:04Z</time>
      </trkpt>
      <trkpt lat="48.028653021901846" lon="-1.939235022291541">
        <ele>63.100000000000001</ele>
        <time>2018-07-07T11:04:15Z</time>
      </trkpt>
      <trkpt lat="48.028801968321204" lon="-1.938131041824818">
        <ele>67.430000000000007</ele>
        <time>2018-07-07T11:04:21Z</time>
      </trkpt>
      <trkpt lat="48.028919985517859" lon="-1.937201991677284">
        <ele>71.269999999999996</ele>
        <time>2018-07-07T11:04:30Z</time>
      </trkpt>
      <trkpt lat="48.028985029086471" lon="-1.936692958697677">
        <ele>71.760000000000005</ele>
        <time>2018-07-07T11:04:35Z</time>
      </trkpt>
      <trkpt lat="48.029161971062422" lon="-1.935372976586223">
        <ele>71.269999999999996</ele>
        <time>2018-07-07T11:04:48Z</time>
      </trkpt>
      <trkpt lat="48.029248975217342" lon="-1.93476595915854">
        <ele>71.269999999999996</ele>
        <time>2018-07-07T11:04:54Z</time>
      </trkpt>
      <trkpt lat="48.029587017372251" lon="-1.933538010343909">
        <ele>69.829999999999998</ele>
        <time>2018-07-07T11:05:07Z</time>
      </trkpt>
      <trkpt lat="48.029892034828663" lon="-1.932427994906902">
        <ele>67.430000000000007</ele>
        <time>2018-07-07T11:05:19Z</time>
      </trkpt>
      <trkpt lat="48.029915001243353" lon="-1.932338979095221">
        <ele>67.430000000000007</ele>
        <time>2018-07-07T11:05:20Z</time>
      </trkpt>
      <trkpt lat="48.029936039820313" lon="-1.932261027395725">
        <ele>67.909999999999997</ele>
        <time>2018-07-07T11:05:21Z</time>
      </trkpt>
      <trkpt lat="48.029999993741512" lon="-1.93218600936234">
        <ele>68.390000000000001</ele>
        <time>2018-07-07T11:05:22Z</time>
      </trkpt>
      <trkpt lat="48.03005900233984" lon="-1.932168994098902">
        <ele>68.870000000000005</ele>
        <time>2018-07-07T11:05:23Z</time>
      </trkpt>
      <trkpt lat="48.030128991231322" lon="-1.932148961350322">
        <ele>68.870000000000005</ele>
        <time>2018-07-07T11:05:24Z</time>
      </trkpt>
      <trkpt lat="48.030407018959522" lon="-1.932068997994065">
        <ele>67.430000000000007</ele>
        <time>2018-07-07T11:05:27Z</time>
      </trkpt>
      <trkpt lat="48.03055303171277" lon="-1.932027004659176">
        <ele>66.950000000000003</ele>
        <time>2018-07-07T11:05:28Z</time>
      </trkpt>
      <trkpt lat="48.031351994723082" lon="-1.931363996118307">
        <ele>59.740000000000002</ele>
        <time>2018-07-07T11:05:35Z</time>
      </trkpt>
      <trkpt lat="48.031454002484679" lon="-1.931221000850201">
        <ele>58.780000000000001</ele>
        <time>2018-07-07T11:05:36Z</time>
      </trkpt>
      <trkpt lat="48.032136959955096" lon="-1.93010101094842">
        <ele>47.240000000000002</ele>
        <time>2018-07-07T11:05:45Z</time>
      </trkpt>
      <trkpt lat="48.032653033733368" lon="-1.929256031289697">
        <ele>44.840000000000003</ele>
        <time>2018-07-07T11:05:55Z</time>
      </trkpt>
      <trkpt lat="48.032726962119341" lon="-1.929181013256311">
        <ele>45.32</ele>
        <time>2018-07-07T11:05:56Z</time>
      </trkpt>
      <trkpt lat="48.032810026779771" lon="-1.929139019921422">
        <ele>44.840000000000003</ele>
        <time>2018-07-07T11:05:57Z</time>
      </trkpt>
      <trkpt lat="48.033128036186099" lon="-1.928980015218258">
        <ele>45.32</ele>
        <time>2018-07-07T11:06:01Z</time>
      </trkpt>
      <trkpt lat="48.033205987885594" lon="-1.928980015218258">
        <ele>45.32</ele>
        <time>2018-07-07T11:06:02Z</time>
      </trkpt>
      <trkpt lat="48.033285029232502" lon="-1.929002981632948">
        <ele>45.799999999999997</ele>
        <time>2018-07-07T11:06:03Z</time>
      </trkpt>
      <trkpt lat="48.033881988376379" lon="-1.92932803183794">
        <ele>47.240000000000002</ele>
        <time>2018-07-07T11:06:10Z</time>
      </trkpt>
      <trkpt lat="48.033971004188061" lon="-1.929382011294365">
        <ele>47.719999999999999</ele>
        <time>2018-07-07T11:06:11Z</time>
      </trkpt>
      <trkpt lat="48.034150041639805" lon="-1.929507991299033">
        <ele>48.68</ele>
        <time>2018-07-07T11:06:13Z</time>
      </trkpt>
      <trkpt lat="48.034697966650128" lon="-1.929980982095003">
        <ele>49.649999999999999</ele>
        <time>2018-07-07T11:06:19Z</time>
      </trkpt>
      <trkpt lat="48.034778013825417" lon="-1.930095981806517">
        <ele>49.649999999999999</ele>
        <time>2018-07-07T11:06:20Z</time>
      </trkpt>
      <trkpt lat="48.034854959696531" lon="-1.930222967639566">
        <ele>50.130000000000003</ele>
        <time>2018-07-07T11:06:21Z</time>
      </trkpt>
      <trkpt lat="48.034927966073155" lon="-1.930368980392814">
        <ele>50.130000000000003</ele>
        <time>2018-07-07T11:06:22Z</time>
      </trkpt>
      <trkpt lat="48.034998960793018" lon="-1.930519016459584">
        <ele>50.609999999999999</ele>
        <time>2018-07-07T11:06:23Z</time>
      </trkpt>
      <trkpt lat="48.035052018240094" lon="-1.930700987577438">
        <ele>51.090000000000003</ele>
        <time>2018-07-07T11:06:24Z</time>
      </trkpt>
      <trkpt lat="48.035109015181661" lon="-1.930897040292621">
        <ele>51.57</ele>
        <time>2018-07-07T11:06:25Z</time>
      </trkpt>
      <trkpt lat="48.035165006294847" lon="-1.93109099753201">
        <ele>52.530000000000001</ele>
        <time>2018-07-07T11:06:26Z</time>
      </trkpt>
      <trkpt lat="48.035217979922891" lon="-1.931272968649864">
        <ele>53.009999999999998</ele>
        <time>2018-07-07T11:06:27Z</time>
      </trkpt>
      <trkpt lat="48.035290986299515" lon="-1.931405989453197">
        <ele>53.490000000000002</ele>
        <time>2018-07-07T11:06:28Z</time>
      </trkpt>
      <trkpt lat="48.035383019596338" lon="-1.931540016084909">
        <ele>53.490000000000002</ele>
        <time>2018-07-07T11:06:29Z</time>
      </trkpt>
      <trkpt lat="48.035487961024046" lon="-1.931673958897591">
        <ele>53.969999999999999</ele>
        <time>2018-07-07T11:06:30Z</time>
      </trkpt>
      <trkpt lat="48.035627016797662" lon="-1.931746965274215">
        <ele>54.450000000000003</ele>
        <time>2018-07-07T11:06:31Z</time>
      </trkpt>
      <trkpt lat="48.035777974873781" lon="-1.931827012449503">
        <ele>55.409999999999997</ele>
        <time>2018-07-07T11:06:32Z</time>
      </trkpt>
      <trkpt lat="48.035942008718848" lon="-1.931863976642489">
        <ele>55.890000000000001</ele>
        <time>2018-07-07T11:06:33Z</time>
      </trkpt>
      <trkpt lat="48.036106964573264" lon="-1.931876968592405">
        <ele>56.369999999999997</ele>
        <time>2018-07-07T11:06:34Z</time>
      </trkpt>
      <trkpt lat="48.036251971498132" lon="-1.931818965822458">
        <ele>57.340000000000003</ele>
        <time>2018-07-07T11:06:35Z</time>
      </trkpt>
      <trkpt lat="48.036389015614986" lon="-1.931754006072879">
        <ele>58.299999999999997</ele>
        <time>2018-07-07T11:06:36Z</time>
      </trkpt>
      <trkpt lat="48.036523964256048" lon="-1.931650992482901">
        <ele>59.259999999999998</ele>
        <time>2018-07-07T11:06:37Z</time>
      </trkpt>
      <trkpt lat="48.036663020029664" lon="-1.931544961407781">
        <ele>59.740000000000002</ele>
        <time>2018-07-07T11:06:38Z</time>
      </trkpt>
      <trkpt lat="48.037060992792249" lon="-1.931188981980085">
        <ele>61.659999999999997</ele>
        <time>2018-07-07T11:06:41Z</time>
      </trkpt>
      <trkpt lat="48.037188984453678" lon="-1.93106995895505">
        <ele>62.140000000000001</ele>
        <time>2018-07-07T11:06:42Z</time>
      </trkpt>
      <trkpt lat="48.037318987771869" lon="-1.930952025577426">
        <ele>62.619999999999997</ele>
        <time>2018-07-07T11:06:43Z</time>
      </trkpt>
      <trkpt lat="48.038735026493669" lon="-1.929722987115383">
        <ele>71.760000000000005</ele>
        <time>2018-07-07T11:06:53Z</time>
      </trkpt>
      <trkpt lat="48.040102031081915" lon="-1.928524039685726">
        <ele>77.040000000000006</ele>
        <time>2018-07-07T11:07:03Z</time>
      </trkpt>
      <trkpt lat="48.040635036304593" lon="-1.928055994212627">
        <ele>78.480000000000004</ele>
        <time>2018-07-07T11:07:07Z</time>
      </trkpt>
      <trkpt lat="48.0409299954772" lon="-1.927900006994605">
        <ele>79.930000000000007</ele>
        <time>2018-07-07T11:07:09Z</time>
      </trkpt>
      <trkpt lat="48.041065027937293" lon="-1.927879974246025">
        <ele>79.930000000000007</ele>
        <time>2018-07-07T11:07:10Z</time>
      </trkpt>
      <trkpt lat="48.04118799045682" lon="-1.927872011438012">
        <ele>79.930000000000007</ele>
        <time>2018-07-07T11:07:11Z</time>
      </trkpt>
      <trkpt lat="48.04129502736032" lon="-1.927865976467729">
        <ele>80.409999999999997</ele>
        <time>2018-07-07T11:07:12Z</time>
      </trkpt>
      <trkpt lat="48.041382031515241" lon="-1.927861031144857">
        <ele>80.409999999999997</ele>
        <time>2018-07-07T11:07:13Z</time>
      </trkpt>
      <trkpt lat="48.041523015126586" lon="-1.927851978689432">
        <ele>80.409999999999997</ele>
        <time>2018-07-07T11:07:15Z</time>
      </trkpt>
      <trkpt lat="48.041588980704546" lon="-1.927848039194942">
        <ele>80.409999999999997</ele>
        <time>2018-07-07T11:07:16Z</time>
      </trkpt>
      <trkpt lat="48.041660981252789" lon="-1.927844015881419">
        <ele>80.409999999999997</ele>
        <time>2018-07-07T11:07:17Z</time>
      </trkpt>
      <trkpt lat="48.041734993457794" lon="-1.927849967032671">
        <ele>80.409999999999997</ele>
        <time>2018-07-07T11:07:18Z</time>
      </trkpt>
      <trkpt lat="48.041823003441095" lon="-1.927860025316477">
        <ele>80.409999999999997</ele>
        <time>2018-07-07T11:07:19Z</time>
      </trkpt>
      <trkpt lat="48.042032970115542" lon="-1.927882991731167">
        <ele>79.450000000000003</ele>
        <time>2018-07-07T11:07:21Z</time>
      </trkpt>
      <trkpt lat="48.043138962239027" lon="-1.927901012822986">
        <ele>79.450000000000003</ele>
        <time>2018-07-07T11:07:29Z</time>
      </trkpt>
      <trkpt lat="48.044650973752141" lon="-1.927692973986268">
        <ele>79.450000000000003</ele>
        <time>2018-07-07T11:07:41Z</time>
      </trkpt>
      <trkpt lat="48.045338960364461" lon="-1.927921967580915">
        <ele>79.930000000000007</ele>
        <time>2018-07-07T11:07:48Z</time>
      </trkpt>
      <trkpt lat="48.045553034171462" lon="-1.927963038906455">
        <ele>80.890000000000001</ele>
        <time>2018-07-07T11:07:51Z</time>
      </trkpt>
      <trkpt lat="48.045626040548086" lon="-1.927936971187592">
        <ele>80.890000000000001</ele>
        <time>2018-07-07T11:07:52Z</time>
      </trkpt>
      <trkpt lat="48.045706003904343" lon="-1.927908975630999">
        <ele>81.370000000000005</ele>
        <time>2018-07-07T11:07:53Z</time>
      </trkpt>
      <trkpt lat="48.045796025544405" lon="-1.927877040579915">
        <ele>81.370000000000005</ele>
        <time>2018-07-07T11:07:54Z</time>
      </trkpt>
      <trkpt lat="48.045890992507339" lon="-1.927815014496446">
        <ele>79.930000000000007</ele>
        <time>2018-07-07T11:08:01Z</time>
      </trkpt>
      <trkpt lat="48.048221999779344" lon="-1.925992034375668">
        <ele>77.040000000000006</ele>
        <time>2018-07-07T11:08:09Z</time>
      </trkpt>
      <trkpt lat="48.05019199848175" lon="-1.924225967377424">
        <ele>74.159999999999997</ele>
        <time>2018-07-07T11:08:18Z</time>
      </trkpt>
      <trkpt lat="48.051436962559819" lon="-1.92208900116384">
        <ele>73.200000000000003</ele>
        <time>2018-07-07T11:08:25Z</time>
      </trkpt>
      <trkpt lat="48.052214970812201" lon="-1.919534029439092">
        <ele>73.680000000000007</ele>
        <time>2018-07-07T11:08:32Z</time>
      </trkpt>
      <trkpt lat="48.053279975429177" lon="-1.914896992966533">
        <ele>68.390000000000001</ele>
        <time>2018-07-07T11:08:44Z</time>
      </trkpt>
      <trkpt lat="48.054369958117604" lon="-1.910233972594142">
        <ele>51.090000000000003</ele>
        <time>2018-07-07T11:08:56Z</time>
      </trkpt>
      <trkpt lat="48.055572006851435" lon="-1.904886988922954">
        <ele>43.880000000000003</ele>
        <time>2018-07-07T11:09:10Z</time>
      </trkpt>
      <trkpt lat="48.056740025058389" lon="-1.899017980322242">
        <ele>38.109999999999999</ele>
        <time>2018-07-07T11:09:25Z</time>
      </trkpt>
      <trkpt lat="48.057503029704094" lon="-1.895290967077017">
        <ele>32.82</ele>
        <time>2018-07-07T11:09:35Z</time>
      </trkpt>
      <trkpt lat="48.058311967179179" lon="-1.891018962487578">
        <ele>28.02</ele>
        <time>2018-07-07T11:09:46Z</time>
      </trkpt>
      <trkpt lat="48.058905992656946" lon="-1.885809022933245">
        <ele>28.98</ele>
        <time>2018-07-07T11:09:59Z</time>
      </trkpt>
      <trkpt lat="48.059435980394483" lon="-1.88100703060627">
        <ele>34.740000000000002</ele>
        <time>2018-07-07T11:10:11Z</time>
      </trkpt>
      <trkpt lat="48.060147017240524" lon="-1.877921987324953">
        <ele>39.549999999999997</ele>
        <time>2018-07-07T11:10:19Z</time>
      </trkpt>
      <trkpt lat="48.061259966343641" lon="-1.875103991478682">
        <ele>44.359999999999999</ele>
        <time>2018-07-07T11:10:27Z</time>
      </trkpt>
      <trkpt lat="48.062584977596998" lon="-1.871529025956988">
        <ele>46.759999999999998</ele>
        <time>2018-07-07T11:10:37Z</time>
      </trkpt>
      <trkpt lat="48.063682001084089" lon="-1.866889977827668">
        <ele>40.030000000000001</ele>
        <time>2018-07-07T11:10:49Z</time>
      </trkpt>
      <trkpt lat="48.064834009855986" lon="-1.86186796054244">
        <ele>27.530000000000001</ele>
        <time>2018-07-07T11:11:02Z</time>
      </trkpt>
      <trkpt lat="48.06578803807497" lon="-1.857193037867546">
        <ele>26.09</ele>
        <time>2018-07-07T11:11:14Z</time>
      </trkpt>
      <trkpt lat="48.066309979185462" lon="-1.852386016398668">
        <ele>27.530000000000001</ele>
        <time>2018-07-07T11:11:26Z</time>
      </trkpt>
      <trkpt lat="48.066365970298648" lon="-1.847514035180211">
        <ele>27.050000000000001</ele>
        <time>2018-07-07T11:11:38Z</time>
      </trkpt>
      <trkpt lat="48.066335963085294" lon="-1.842598970979452">
        <ele>25.609999999999999</ele>
        <time>2018-07-07T11:11:50Z</time>
      </trkpt>
      <trkpt lat="48.066295981407166" lon="-1.837691031396389">
        <ele>24.170000000000002</ele>
        <time>2018-07-07T11:12:02Z</time>
      </trkpt>
      <trkpt lat="48.066353984177113" lon="-1.831997958943248">
        <ele>23.210000000000001</ele>
        <time>2018-07-07T11:12:16Z</time>
      </trkpt>
      <trkpt lat="48.066704012453556" lon="-1.827955031767488">
        <ele>24.649999999999999</ele>
        <time>2018-07-07T11:12:26Z</time>
      </trkpt>
      <trkpt lat="48.067381018772721" lon="-1.823588982224464">
        <ele>23.210000000000001</ele>
        <time>2018-07-07T11:12:37Z</time>
      </trkpt>
      <trkpt lat="48.068260028958321" lon="-1.819741018116474">
        <ele>22.25</ele>
        <time>2018-07-07T11:12:47Z</time>
      </trkpt>
      <trkpt lat="48.069412959739566" lon="-1.816061027348042">
        <ele>25.129999999999999</ele>
        <time>2018-07-07T11:12:57Z</time>
      </trkpt>
      <trkpt lat="48.070964030921459" lon="-1.811751974746585">
        <ele>30.420000000000002</ele>
        <time>2018-07-07T11:13:09Z</time>
      </trkpt>
      <trkpt lat="48.072805032134056" lon="-1.806713026016951">
        <ele>31.379999999999999</ele>
        <time>2018-07-07T11:13:23Z</time>
      </trkpt>
      <trkpt lat="48.074353002011776" lon="-1.802405985072255">
        <ele>29.940000000000001</ele>
        <time>2018-07-07T11:13:35Z</time>
      </trkpt>
      <trkpt lat="48.075826959684491" lon="-1.798994969576597">
        <ele>32.340000000000003</ele>
        <time>2018-07-07T11:13:45Z</time>
      </trkpt>
      <trkpt lat="48.077825037762523" lon="-1.795621002092958">
        <ele>32.340000000000003</ele>
        <time>2018-07-07T11:13:56Z</time>
      </trkpt>
      <trkpt lat="48.079399997368455" lon="-1.793341962620616">
        <ele>27.530000000000001</ele>
        <time>2018-07-07T11:14:04Z</time>
      </trkpt>
      <trkpt lat="48.081959998235106" lon="-1.78969700820744">
        <ele>24.170000000000002</ele>
        <time>2018-07-07T11:14:17Z</time>
      </trkpt>
      <trkpt lat="48.085720958188176" lon="-1.784355975687504">
        <ele>25.609999999999999</ele>
        <time>2018-07-07T11:14:36Z</time>
      </trkpt>
      <trkpt lat="48.088764008134604" lon="-1.779647022485733">
        <ele>28.5</ele>
        <time>2018-07-07T11:14:52Z</time>
      </trkpt>
      <trkpt lat="48.090984961017966" lon="-1.774993976578116">
        <ele>29.460000000000001</ele>
        <time>2018-07-07T11:15:06Z</time>
      </trkpt>
      <trkpt lat="48.092411980032921" lon="-1.771078035235405">
        <ele>33.299999999999997</ele>
        <time>2018-07-07T11:15:17Z</time>
      </trkpt>
      <trkpt lat="48.093717964366078" lon="-1.766542000696063">
        <ele>37.149999999999999</ele>
        <time>2018-07-07T11:15:29Z</time>
      </trkpt>
      <trkpt lat="48.094362029805779" lon="-1.76425801590085">
        <ele>34.259999999999998</ele>
        <time>2018-07-07T11:15:36Z</time>
      </trkpt>
      <trkpt lat="48.095469027757645" lon="-1.760891005396843">
        <ele>33.299999999999997</ele>
        <time>2018-07-07T11:15:48Z</time>
      </trkpt>
      <trkpt lat="48.096459014341235" lon="-1.759578986093402">
        <ele>34.740000000000002</ele>
        <time>2018-07-07T11:15:55Z</time>
      </trkpt>
      <trkpt lat="48.097543967887759" lon="-1.75856402143836">
        <ele>38.590000000000003</ele>
        <time>2018-07-07T11:16:04Z</time>
      </trkpt>
      <trkpt lat="48.098605033010244" lon="-1.757643017917872">
        <ele>40.509999999999998</ele>
        <time>2018-07-07T11:16:15Z</time>
      </trkpt>
      <trkpt lat="48.099819989874959" lon="-1.756381960585713">
        <ele>41.469999999999999</ele>
        <time>2018-07-07T11:16:25Z</time>
      </trkpt>
      <trkpt lat="48.101082975044847" lon="-1.754557974636555">
        <ele>38.109999999999999</ele>
        <time>2018-07-07T11:16:35Z</time>
      </trkpt>
      <trkpt lat="48.102405974641442" lon="-1.752487979829311">
        <ele>32.340000000000003</ele>
        <time>2018-07-07T11:16:46Z</time>
      </trkpt>
      <trkpt lat="48.103683963418007" lon="-1.750740017741919">
        <ele>29.460000000000001</ele>
        <time>2018-07-07T11:16:56Z</time>
      </trkpt>
      <trkpt lat="48.104709992185235" lon="-1.749001024290919">
        <ele>28.02</ele>
        <time>2018-07-07T11:17:05Z</time>
      </trkpt>
      <trkpt lat="48.104922976344824" lon="-1.748017994686961">
        <ele>28.5</ele>
        <time>2018-07-07T11:17:09Z</time>
      </trkpt>
      <trkpt lat="48.104952983558178" lon="-1.747767962515354">
        <ele>28.98</ele>
        <time>2018-07-07T11:17:10Z</time>
      </trkpt>
      <trkpt lat="48.104915013536811" lon="-1.745431004092097">
        <ele>29.460000000000001</ele>
        <time>2018-07-07T11:17:19Z</time>
      </trkpt>
      <trkpt lat="48.10482800938189" lon="-1.741920998319984">
        <ele>28.5</ele>
        <time>2018-07-07T11:17:33Z</time>
      </trkpt>
      <trkpt lat="48.104804959148169" lon="-1.741064032539725">
        <ele>28.5</ele>
        <time>2018-07-07T11:17:39Z</time>
      </trkpt>
      <trkpt lat="48.104792973026633" lon="-1.740662958472967">
        <ele>28.5</ele>
        <time>2018-07-07T11:17:44Z</time>
      </trkpt>
      <trkpt lat="48.104787021875381" lon="-1.740362970158458">
        <ele>29.940000000000001</ele>
        <time>2018-07-07T11:17:51Z</time>
      </trkpt>
      <trkpt lat="48.104787021875381" lon="-1.740362970158458">
        <ele>29.940000000000001</ele>
        <time>2018-07-07T11:18:06Z</time>
      </trkpt>
      <trkpt lat="48.104777969419956" lon="-1.739973966032267">
        <ele>30.420000000000002</ele>
        <time>2018-07-07T11:18:17Z</time>
      </trkpt>
      <trkpt lat="48.104753997176886" lon="-1.738629005849361">
        <ele>30.420000000000002</ele>
        <time>2018-07-07T11:18:28Z</time>
      </trkpt>
      <trkpt lat="48.10478501021862" lon="-1.737094027921557">
        <ele>32.82</ele>
        <time>2018-07-07T11:18:38Z</time>
      </trkpt>
      <trkpt lat="48.105121040716767" lon="-1.735169040039182">
        <ele>29.940000000000001</ele>
        <time>2018-07-07T11:18:49Z</time>
      </trkpt>
      <trkpt lat="48.105747001245618" lon="-1.733270036056638">
        <ele>28.5</ele>
        <time>2018-07-07T11:19:00Z</time>
      </trkpt>
      <trkpt lat="48.10643800534308" lon="-1.730906004086137">
        <ele>28.98</ele>
        <time>2018-07-07T11:19:14Z</time>
      </trkpt>
      <trkpt lat="48.106619976460934" lon="-1.729993969202042">
        <ele>29.460000000000001</ele>
        <time>2018-07-07T11:19:21Z</time>
      </trkpt>
      <trkpt lat="48.106647972017527" lon="-1.729849968105555">
        <ele>29.460000000000001</ele>
        <time>2018-07-07T11:19:29Z</time>
      </trkpt>
      <trkpt lat="48.106693988665938" lon="-1.729609994217753">
        <ele>29.940000000000001</ele>
        <time>2018-07-07T11:19:52Z</time>
      </trkpt>
      <trkpt lat="48.1068479642272" lon="-1.728298980742693">
        <ele>31.859999999999999</ele>
        <time>2018-07-07T11:20:02Z</time>
      </trkpt>
      <trkpt lat="48.106865985319018" lon="-1.727888016030192">
        <ele>32.340000000000003</ele>
        <time>2018-07-07T11:20:04Z</time>
      </trkpt>
      <trkpt lat="48.1069550011307" lon="-1.725681982934475">
        <ele>30.420000000000002</ele>
        <time>2018-07-07T11:20:15Z</time>
      </trkpt>
      <trkpt lat="48.106990037485957" lon="-1.724646985530853">
        <ele>29.940000000000001</ele>
        <time>2018-07-07T11:20:22Z</time>
      </trkpt>
      <trkpt lat="48.106993976980448" lon="-1.724529974162579">
        <ele>29.460000000000001</ele>
        <time>2018-07-07T11:20:23Z</time>
      </trkpt>
      <trkpt lat="48.107048040255904" lon="-1.723147965967655">
        <ele>28.5</ele>
        <time>2018-07-07T11:20:32Z</time>
      </trkpt>
      <trkpt lat="48.1071069650352" lon="-1.720711011439562">
        <ele>27.530000000000001</ele>
        <time>2018-07-07T11:20:44Z</time>
      </trkpt>
      <trkpt lat="48.107166979461908" lon="-1.719201011583209">
        <ele>28.02</ele>
        <time>2018-07-07T11:20:53Z</time>
      </trkpt>
      <trkpt lat="48.107175026088953" lon="-1.718920972198248">
        <ele>28.02</ele>
        <time>2018-07-07T11:21:01Z</time>
      </trkpt>
      <trkpt lat="48.107195980846882" lon="-1.718562981113792">
        <ele>28.98</ele>
        <time>2018-07-07T11:21:24Z</time>
      </trkpt>
      <trkpt lat="48.107269993051887" lon="-1.717537958174944">
        <ele>29.460000000000001</ele>
        <time>2018-07-07T11:21:30Z</time>
      </trkpt>
      <trkpt lat="48.107352973893285" lon="-1.716894982382655">
        <ele>31.379999999999999</ele>
        <time>2018-07-07T11:21:34Z</time>
      </trkpt>
      <trkpt lat="48.107396978884935" lon="-1.716576972976327">
        <ele>33.780000000000001</ele>
        <time>2018-07-07T11:21:41Z</time>
      </trkpt>
      <trkpt lat="48.107406031340361" lon="-1.716507989913225">
        <ele>34.259999999999998</ele>
        <time>2018-07-07T11:21:48Z</time>
      </trkpt>
      <trkpt lat="48.107537962496281" lon="-1.715810028836131">
        <ele>34.740000000000002</ele>
        <time>2018-07-07T11:21:55Z</time>
      </trkpt>
      <trkpt lat="48.107613986358047" lon="-1.715457988902926">
        <ele>33.299999999999997</ele>
        <time>2018-07-07T11:22:00Z</time>
      </trkpt>
      <trkpt lat="48.107850020751357" lon="-1.714574033394456">
        <ele>31.379999999999999</ele>
        <time>2018-07-07T11:22:07Z</time>
      </trkpt>
      <trkpt lat="48.10796401463449" lon="-1.714102970436215">
        <ele>30.899999999999999</ele>
        <time>2018-07-07T11:22:10Z</time>
      </trkpt>
      <trkpt lat="48.108015982434154" lon="-1.713845981284976">
        <ele>30.899999999999999</ele>
        <time>2018-07-07T11:22:11Z</time>
      </trkpt>
      <trkpt lat="48.108036015182734" lon="-1.713770041242242">
        <ele>30.899999999999999</ele>
        <time>2018-07-07T11:22:12Z</time>
      </trkpt>
      <trkpt lat="48.108439017087221" lon="-1.712216036394239">
        <ele>31.379999999999999</ele>
        <time>2018-07-07T11:22:22Z</time>
      </trkpt>
      <trkpt lat="48.108548987656832" lon="-1.711758971214294">
        <ele>31.379999999999999</ele>
        <time>2018-07-07T11:22:25Z</time>
      </trkpt>
      <trkpt lat="48.108782004565001" lon="-1.710703019052744">
        <ele>32.340000000000003</ele>
        <time>2018-07-07T11:22:33Z</time>
      </trkpt>
      <trkpt lat="48.108810000121593" lon="-1.710571004077792">
        <ele>31.859999999999999</ele>
        <time>2018-07-07T11:22:34Z</time>
      </trkpt>
      <trkpt lat="48.108969004824758" lon="-1.709852004423738">
        <ele>31.379999999999999</ele>
        <time>2018-07-07T11:22:39Z</time>
      </trkpt>
      <trkpt lat="48.109186012297869" lon="-1.708765961229801">
        <ele>32.340000000000003</ele>
        <time>2018-07-07T11:22:48Z</time>
      </trkpt>
      <trkpt lat="48.109347028657794" lon="-1.708055008202791">
        <ele>32.340000000000003</ele>
        <time>2018-07-07T11:22:56Z</time>
      </trkpt>
      <trkpt lat="48.109419029206038" lon="-1.707775974646211">
        <ele>32.82</ele>
        <time>2018-07-07T11:22:59Z</time>
      </trkpt>
      <trkpt lat="48.109431015327573" lon="-1.707474980503321">
        <ele>32.82</ele>
        <time>2018-07-07T11:23:02Z</time>
      </trkpt>
      <trkpt lat="48.109329007565975" lon="-1.707057980820537">
        <ele>32.82</ele>
        <time>2018-07-07T11:23:07Z</time>
      </trkpt>
      <trkpt lat="48.109299000352621" lon="-1.706967037171125">
        <ele>32.340000000000003</ele>
        <time>2018-07-07T11:23:08Z</time>
      </trkpt>
      <trkpt lat="48.108960036188364" lon="-1.70594897121191">
        <ele>33.299999999999997</ele>
        <time>2018-07-07T11:23:19Z</time>
      </trkpt>
      <trkpt lat="48.108945032581687" lon="-1.70590496622026">
        <ele>33.299999999999997</ele>
        <time>2018-07-07T11:23:20Z</time>
      </trkpt>
      <trkpt lat="48.108923994004726" lon="-1.705841012299061">
        <ele>33.299999999999997</ele>
        <time>2018-07-07T11:23:21Z</time>
      </trkpt>
      <trkpt lat="48.108871020376682" lon="-1.705683013424277">
        <ele>33.299999999999997</ele>
        <time>2018-07-07T11:23:23Z</time>
      </trkpt>
      <trkpt lat="48.108462989330292" lon="-1.704459004104137">
        <ele>34.740000000000002</ele>
        <time>2018-07-07T11:23:35Z</time>
      </trkpt>
      <trkpt lat="48.108358969911933" lon="-1.704148035496473">
        <ele>34.259999999999998</ele>
        <time>2018-07-07T11:23:38Z</time>
      </trkpt>
      <trkpt lat="48.108082031831145" lon="-1.703315963968635">
        <ele>34.740000000000002</ele>
        <time>2018-07-07T11:23:48Z</time>
      </trkpt>
      <trkpt lat="48.107836022973061" lon="-1.702548014000058">
        <ele>35.710000000000001</ele>
        <time>2018-07-07T11:23:56Z</time>
      </trkpt>
      <trkpt lat="48.107781959697604" lon="-1.702161021530628">
        <ele>34.740000000000002</ele>
        <time>2018-07-07T11:23:59Z</time>
      </trkpt>
      <trkpt lat="48.107787994667888" lon="-1.702038981020451">
        <ele>34.259999999999998</ele>
        <time>2018-07-07T11:24:00Z</time>
      </trkpt>
      <trkpt lat="48.107799980789423" lon="-1.701905038207769">
        <ele>33.780000000000001</ele>
        <time>2018-07-07T11:24:01Z</time>
      </trkpt>
      <trkpt lat="48.107812972739339" lon="-1.701762964949012">
        <ele>33.780000000000001</ele>
        <time>2018-07-07T11:24:02Z</time>
      </trkpt>
      <trkpt lat="48.107825964689255" lon="-1.701623992994428">
        <ele>33.299999999999997</ele>
        <time>2018-07-07T11:24:03Z</time>
      </trkpt>
      <trkpt lat="48.107839040458202" lon="-1.701480997726321">
        <ele>32.82</ele>
        <time>2018-07-07T11:24:04Z</time>
      </trkpt>
      <trkpt lat="48.107865024358034" lon="-1.701345965266228">
        <ele>32.340000000000003</ele>
        <time>2018-07-07T11:24:05Z</time>
      </trkpt>
      <trkpt lat="48.107906011864543" lon="-1.701199030503631">
        <ele>31.859999999999999</ele>
        <time>2018-07-07T11:24:06Z</time>
      </trkpt>
      <trkpt lat="48.107950016856194" lon="-1.701039019972086">
        <ele>31.379999999999999</ele>
        <time>2018-07-07T11:24:07Z</time>
      </trkpt>
      <trkpt lat="48.107995027676225" lon="-1.700880015268922">
        <ele>30.899999999999999</ele>
        <time>2018-07-07T11:24:08Z</time>
      </trkpt>
      <trkpt lat="48.108484027907252" lon="-1.699481997638941">
        <ele>31.859999999999999</ele>
        <time>2018-07-07T11:24:17Z</time>
      </trkpt>
      <trkpt lat="48.108900021761656" lon="-1.698310039937496">
        <ele>31.379999999999999</ele>
        <time>2018-07-07T11:24:26Z</time>
      </trkpt>
      <trkpt lat="48.109003035351634" lon="-1.697623981162906">
        <ele>30.899999999999999</ele>
        <time>2018-07-07T11:24:32Z</time>
      </trkpt>
      <trkpt lat="48.109003035351634" lon="-1.697539994493127">
        <ele>30.899999999999999</ele>
        <time>2018-07-07T11:24:33Z</time>
      </trkpt>
      <trkpt lat="48.10899599455297" lon="-1.697488026693463">
        <ele>30.420000000000002</ele>
        <time>2018-07-07T11:24:34Z</time>
      </trkpt>
      <trkpt lat="48.108981996774673" lon="-1.697390964254737">
        <ele>29.940000000000001</ele>
        <time>2018-07-07T11:24:35Z</time>
      </trkpt>
      <trkpt lat="48.108960036188364" lon="-1.697237994521856">
        <ele>29.940000000000001</ele>
        <time>2018-07-07T11:24:36Z</time>
      </trkpt>
      <trkpt lat="48.108941009268165" lon="-1.697157025337219">
        <ele>29.940000000000001</ele>
        <time>2018-07-07T11:24:37Z</time>
      </trkpt>
      <trkpt lat="48.108384031802416" lon="-1.696028988808394">
        <ele>28.5</ele>
        <time>2018-07-07T11:24:46Z</time>
      </trkpt>
      <trkpt lat="48.108122013509274" lon="-1.695636967197061">
        <ele>27.530000000000001</ele>
        <time>2018-07-07T11:24:50Z</time>
      </trkpt>
      <trkpt lat="48.107589008286595" lon="-1.694835992529988">
        <ele>26.57</ele>
        <time>2018-07-07T11:24:58Z</time>
      </trkpt>
      <trkpt lat="48.107538968324661" lon="-1.694726021960378">
        <ele>26.57</ele>
        <time>2018-07-07T11:24:59Z</time>
      </trkpt>
      <trkpt lat="48.107489012181759" lon="-1.694615967571735">
        <ele>26.09</ele>
        <time>2018-07-07T11:25:00Z</time>
      </trkpt>
      <trkpt lat="48.107436960563064" lon="-1.694500967860222">
        <ele>26.09</ele>
        <time>2018-07-07T11:25:01Z</time>
      </trkpt>
      <trkpt lat="48.107385998591781" lon="-1.694375993683934">
        <ele>26.09</ele>
        <time>2018-07-07T11:25:02Z</time>
      </trkpt>
      <trkpt lat="48.107349034398794" lon="-1.69421598315239">
        <ele>26.09</ele>
        <time>2018-07-07T11:25:03Z</time>
      </trkpt>
      <trkpt lat="48.107335036620498" lon="-1.69404398649931">
        <ele>26.09</ele>
        <time>2018-07-07T11:25:04Z</time>
      </trkpt>
      <trkpt lat="48.107272004708648" lon="-1.692701037973166">
        <ele>23.210000000000001</ele>
        <time>2018-07-07T11:25:12Z</time>
      </trkpt>
      <trkpt lat="48.107356997206807" lon="-1.691939039155841">
        <ele>20.809999999999999</ele>
        <time>2018-07-07T11:25:17Z</time>
      </trkpt>
      <trkpt lat="48.107401002198458" lon="-1.691804006695747">
        <ele>20.809999999999999</ele>
        <time>2018-07-07T11:25:18Z</time>
      </trkpt>
      <trkpt lat="48.107442995533347" lon="-1.69166000559926">
        <ele>20.32</ele>
        <time>2018-07-07T11:25:19Z</time>
      </trkpt>
      <trkpt lat="48.107484988868237" lon="-1.691518016159535">
        <ele>20.32</ele>
        <time>2018-07-07T11:25:20Z</time>
      </trkpt>
      <trkpt lat="48.107525976374745" lon="-1.69137803837657">
        <ele>20.32</ele>
        <time>2018-07-07T11:25:21Z</time>
      </trkpt>
      <trkpt lat="48.107566041871905" lon="-1.691237976774573">
        <ele>20.809999999999999</ele>
        <time>2018-07-07T11:25:22Z</time>
      </trkpt>
      <trkpt lat="48.107613986358047" lon="-1.691109985113144">
        <ele>21.289999999999999</ele>
        <time>2018-07-07T11:25:23Z</time>
      </trkpt>
      <trkpt lat="48.107671989127994" lon="-1.690969001501799">
        <ele>21.289999999999999</ele>
        <time>2018-07-07T11:25:24Z</time>
      </trkpt>
      <trkpt lat="48.107719011604786" lon="-1.690825000405312">
        <ele>21.77</ele>
        <time>2018-07-07T11:25:25Z</time>
      </trkpt>
      <trkpt lat="48.107765028253198" lon="-1.690682005137205">
        <ele>21.289999999999999</ele>
        <time>2018-07-07T11:25:26Z</time>
      </trkpt>
      <trkpt lat="48.107810039073229" lon="-1.690539009869099">
        <ele>21.77</ele>
        <time>2018-07-07T11:25:27Z</time>
      </trkpt>
      <trkpt lat="48.108095023781061" lon="-1.689692018553615">
        <ele>22.73</ele>
        <time>2018-07-07T11:25:33Z</time>
      </trkpt>
      <trkpt lat="48.108133999630809" lon="-1.689549023285508">
        <ele>23.210000000000001</ele>
        <time>2018-07-07T11:25:34Z</time>
      </trkpt>
      <trkpt lat="48.108228966593742" lon="-1.689277030527592">
        <ele>23.210000000000001</ele>
        <time>2018-07-07T11:25:36Z</time>
      </trkpt>
      <trkpt lat="48.108274983242154" lon="-1.689135963097215">
        <ele>23.210000000000001</ele>
        <time>2018-07-07T11:25:37Z</time>
      </trkpt>
      <trkpt lat="48.108684020116925" lon="-1.68781103566289">
        <ele>21.289999999999999</ele>
        <time>2018-07-07T11:25:47Z</time>
      </trkpt>
      <trkpt lat="48.108726013451815" lon="-1.687695030122995">
        <ele>21.77</ele>
        <time>2018-07-07T11:25:48Z</time>
      </trkpt>
      <trkpt lat="48.108771024271846" lon="-1.687581958249211">
        <ele>21.77</ele>
        <time>2018-07-07T11:25:49Z</time>
      </trkpt>
      <trkpt lat="48.109046034514904" lon="-1.68673899024725">
        <ele>25.129999999999999</ele>
        <time>2018-07-07T11:25:56Z</time>
      </trkpt>
      <trkpt lat="48.109080987051129" lon="-1.686623990535736">
        <ele>25.129999999999999</ele>
        <time>2018-07-07T11:25:57Z</time>
      </trkpt>
      <trkpt lat="48.109334036707878" lon="-1.68587900698185">
        <ele>24.170000000000002</ele>
        <time>2018-07-07T11:26:05Z</time>
      </trkpt>
      <trkpt lat="48.109352979809046" lon="-1.685823015868664">
        <ele>24.170000000000002</ele>
        <time>2018-07-07T11:26:06Z</time>
      </trkpt>
      <trkpt lat="48.109366977587342" lon="-1.685780016705394">
        <ele>24.170000000000002</ele>
        <time>2018-07-07T11:26:07Z</time>
      </trkpt>
      <trkpt lat="48.109378963708878" lon="-1.685744980350137">
        <ele>24.170000000000002</ele>
        <time>2018-07-07T11:26:08Z</time>
      </trkpt>
      <trkpt lat="48.109378963708878" lon="-1.685744980350137">
        <ele>24.170000000000002</ele>
        <time>2018-07-07T11:26:18Z</time>
      </trkpt>
      <trkpt lat="48.109502010047436" lon="-1.685356982052326">
        <ele>25.609999999999999</ele>
        <time>2018-07-07T11:26:33Z</time>
      </trkpt>
      <trkpt lat="48.109584990888834" lon="-1.68508498929441">
        <ele>26.09</ele>
        <time>2018-07-07T11:26:36Z</time>
      </trkpt>
      <trkpt lat="48.109608041122556" lon="-1.685010977089405">
        <ele>26.09</ele>
        <time>2018-07-07T11:26:37Z</time>
      </trkpt>
      <trkpt lat="48.109626984223723" lon="-1.684947023168206">
        <ele>26.57</ele>
        <time>2018-07-07T11:26:38Z</time>
      </trkpt>
      <trkpt lat="48.10964098200202" lon="-1.684903018176556">
        <ele>26.57</ele>
        <time>2018-07-07T11:26:45Z</time>
      </trkpt>
      <trkpt lat="48.109666965901852" lon="-1.684801010414958">
        <ele>28.02</ele>
        <time>2018-07-07T11:27:24Z</time>
      </trkpt>
      <trkpt lat="48.109481977298856" lon="-1.684521976858378">
        <ele>29.460000000000001</ele>
        <time>2018-07-07T11:27:33Z</time>
      </trkpt>
      <trkpt lat="48.109398996457458" lon="-1.684516025707126">
        <ele>28.02</ele>
        <time>2018-07-07T11:27:46Z</time>
      </trkpt>
      <trkpt lat="48.109123986214399" lon="-1.684513008221984">
        <ele>26.57</ele>
        <time>2018-07-07T11:27:56Z</time>
      </trkpt>
      <trkpt lat="48.10903899371624" lon="-1.684514014050365">
        <ele>26.09</ele>
        <time>2018-07-07T11:27:57Z</time>
      </trkpt>
      <trkpt lat="48.1089529953897" lon="-1.684521976858378">
        <ele>26.09</ele>
        <time>2018-07-07T11:27:58Z</time>
      </trkpt>
      <trkpt lat="48.108256962150335" lon="-1.684491969645023">
        <ele>24.170000000000002</ele>
        <time>2018-07-07T11:28:06Z</time>
      </trkpt>
      <trkpt lat="48.107941970229149" lon="-1.684491969645023">
        <ele>23.210000000000001</ele>
        <time>2018-07-07T11:28:10Z</time>
      </trkpt>
    </trkseg>
  </trk>

  <trk>
    <name>Track vom: 2018-07-07 14:01</name>
    <extensions>
      <gpxx:TrackExtension>
        <gpxx:DisplayColor>DarkGray</gpxx:DisplayColor>
      </gpxx:TrackExtension>
    </extensions>
    <trkseg>
      <trkpt lat="48.11172598041594" lon="-1.684173960238695">
        <ele>82.329999999999998</ele>
        <time>2018-07-07T12:01:50Z</time>
      </trkpt>
      <trkpt lat="48.111713994294405" lon="-1.684178989380598">
        <ele>87.140000000000001</ele>
        <time>2018-07-07T12:02:19Z</time>
      </trkpt>
      <trkpt lat="48.111697984859347" lon="-1.684144036844373">
        <ele>85.209999999999994</ele>
        <time>2018-07-07T12:02:35Z</time>
      </trkpt>
      <trkpt lat="48.111698990687728" lon="-1.684125009924173">
        <ele>84.25</ele>
        <time>2018-07-07T12:02:40Z</time>
      </trkpt>
      <trkpt lat="48.111722962930799" lon="-1.683987965807319">
        <ele>75.120000000000005</ele>
        <time>2018-07-07T12:02:52Z</time>
      </trkpt>
      <trkpt lat="48.111747018992901" lon="-1.684000035747886">
        <ele>66.950000000000003</ele>
        <time>2018-07-07T12:03:06Z</time>
      </trkpt>
      <trkpt lat="48.111722962930799" lon="-1.68401001021266">
        <ele>61.659999999999997</ele>
        <time>2018-07-07T12:03:23Z</time>
      </trkpt>
      <trkpt lat="48.111644005402923" lon="-1.684049991890788">
        <ele>57.82</ele>
        <time>2018-07-07T12:03:32Z</time>
      </trkpt>
      <trkpt lat="48.111492041498423" lon="-1.684147976338863">
        <ele>57.340000000000003</ele>
        <time>2018-07-07T12:03:34Z</time>
      </trkpt>
      <trkpt lat="48.111492041498423" lon="-1.684147976338863">
        <ele>56.859999999999999</ele>
        <time>2018-07-07T12:03:35Z</time>
      </trkpt>
      <trkpt lat="48.111492041498423" lon="-1.684147976338863">
        <ele>56.859999999999999</ele>
        <time>2018-07-07T12:03:36Z</time>
      </trkpt>
      <trkpt lat="48.111492041498423" lon="-1.684147976338863">
        <ele>56.859999999999999</ele>
        <time>2018-07-07T12:03:37Z</time>
      </trkpt>
      <trkpt lat="48.111492041498423" lon="-1.684147976338863">
        <ele>56.369999999999997</ele>
        <time>2018-07-07T12:03:38Z</time>
      </trkpt>
      <trkpt lat="48.111492041498423" lon="-1.684147976338863">
        <ele>56.369999999999997</ele>
        <time>2018-07-07T12:03:39Z</time>
      </trkpt>
      <trkpt lat="48.111490029841661" lon="-1.684147976338863">
        <ele>55.890000000000001</ele>
        <time>2018-07-07T12:03:40Z</time>
      </trkpt>
      <trkpt lat="48.11148701235652" lon="-1.684147976338863">
        <ele>55.409999999999997</ele>
        <time>2018-07-07T12:03:41Z</time>
      </trkpt>
      <trkpt lat="48.111520037055016" lon="-1.68439800851047">
        <ele>53.009999999999998</ele>
        <time>2018-07-07T12:03:52Z</time>
      </trkpt>
      <trkpt lat="48.111508972942829" lon="-1.684428015723825">
        <ele>52.530000000000001</ele>
        <time>2018-07-07T12:03:57Z</time>
      </trkpt>
      <trkpt lat="48.11150997877121" lon="-1.684432039037347">
        <ele>52.530000000000001</ele>
        <time>2018-07-07T12:03:58Z</time>
      </trkpt>
      <trkpt lat="48.111512996256351" lon="-1.684448970481753">
        <ele>52.049999999999997</ele>
        <time>2018-07-07T12:03:59Z</time>
      </trkpt>
      <trkpt lat="48.111635036766529" lon="-1.684328019618988">
        <ele>51.57</ele>
        <time>2018-07-07T12:04:00Z</time>
      </trkpt>
      <trkpt lat="48.111663032323122" lon="-1.684299018234015">
        <ele>51.57</ele>
        <time>2018-07-07T12:04:01Z</time>
      </trkpt>
      <trkpt lat="48.111824970692396" lon="-1.68409701436758">
        <ele>47.719999999999999</ele>
        <time>2018-07-07T12:04:12Z</time>
      </trkpt>
      <trkpt lat="48.111838968470693" lon="-1.684078993275762">
        <ele>47.240000000000002</ele>
        <time>2018-07-07T12:04:13Z</time>
      </trkpt>
      <trkpt lat="48.111947011202574" lon="-1.684013027697802">
        <ele>46.759999999999998</ele>
        <time>2018-07-07T12:04:14Z</time>
      </trkpt>
      <trkpt lat="48.11198296956718" lon="-1.684063989669085">
        <ele>46.280000000000001</ele>
        <time>2018-07-07T12:04:15Z</time>
      </trkpt>
      <trkpt lat="48.112021023407578" lon="-1.684116963297129">
        <ele>46.280000000000001</ele>
        <time>2018-07-07T12:04:16Z</time>
      </trkpt>
      <trkpt lat="48.112329980358481" lon="-1.684487024322152">
        <ele>43.399999999999999</ele>
        <time>2018-07-07T12:04:24Z</time>
      </trkpt>
      <trkpt lat="48.112527960911393" lon="-1.68472196906805">
        <ele>40.509999999999998</ele>
        <time>2018-07-07T12:04:32Z</time>
      </trkpt>
      <trkpt lat="48.11258596368134" lon="-1.684792041778565">
        <ele>40.509999999999998</ele>
        <time>2018-07-07T12:04:33Z</time>
      </trkpt>
      <trkpt lat="48.112579006701708" lon="-1.684837974607945">
        <ele>40.030000000000001</ele>
        <time>2018-07-07T12:04:34Z</time>
      </trkpt>
      <trkpt lat="48.112544976174831" lon="-1.685053976252675">
        <ele>39.07</ele>
        <time>2018-07-07T12:04:38Z</time>
      </trkpt>
      <trkpt lat="48.112533995881677" lon="-1.685122959315777">
        <ele>38.590000000000003</ele>
        <time>2018-07-07T12:04:39Z</time>
      </trkpt>
      <trkpt lat="48.112523015588522" lon="-1.685195965692401">
        <ele>38.109999999999999</ele>
        <time>2018-07-07T12:04:40Z</time>
      </trkpt>
      <trkpt lat="48.112511029466987" lon="-1.685269977897406">
        <ele>37.630000000000003</ele>
        <time>2018-07-07T12:04:41Z</time>
      </trkpt>
      <trkpt lat="48.1124999653548" lon="-1.685340972617269">
        <ele>37.630000000000003</ele>
        <time>2018-07-07T12:04:42Z</time>
      </trkpt>
      <trkpt lat="48.112489990890026" lon="-1.68540601618588">
        <ele>37.630000000000003</ele>
        <time>2018-07-07T12:04:43Z</time>
      </trkpt>
      <trkpt lat="48.112463001161814" lon="-1.685607014223933">
        <ele>35.710000000000001</ele>
        <time>2018-07-07T12:04:47Z</time>
      </trkpt>
      <trkpt lat="48.112459983676672" lon="-1.685639033094049">
        <ele>35.710000000000001</ele>
        <time>2018-07-07T12:04:48Z</time>
      </trkpt>
      <trkpt lat="48.11245696619153" lon="-1.6856640111655">
        <ele>35.229999999999997</ele>
        <time>2018-07-07T12:04:49Z</time>
      </trkpt>
      <trkpt lat="48.11245696619153" lon="-1.6856640111655">
        <ele>35.229999999999997</ele>
        <time>2018-07-07T12:05:06Z</time>
      </trkpt>
      <trkpt lat="48.112437017261982" lon="-1.685828967019916">
        <ele>38.590000000000003</ele>
        <time>2018-07-07T12:05:16Z</time>
      </trkpt>
      <trkpt lat="48.112412039190531" lon="-1.686042034998536">
        <ele>42.920000000000002</ele>
        <time>2018-07-07T12:05:47Z</time>
      </trkpt>
      <trkpt lat="48.112350013107061" lon="-1.686728009954095">
        <ele>47.240000000000002</ele>
        <time>2018-07-07T12:05:55Z</time>
      </trkpt>
      <trkpt lat="48.112350013107061" lon="-1.686808979138732">
        <ele>47.719999999999999</ele>
        <time>2018-07-07T12:05:56Z</time>
      </trkpt>
      <trkpt lat="48.112340038642287" lon="-1.686920961365104">
        <ele>48.200000000000003</ele>
        <time>2018-07-07T12:05:57Z</time>
      </trkpt>
      <trkpt lat="48.112296033650637" lon="-1.687120031565428">
        <ele>49.159999999999997</ele>
        <time>2018-07-07T12:05:59Z</time>
      </trkpt>
      <trkpt lat="48.112285975366831" lon="-1.687174011021853">
        <ele>50.130000000000003</ele>
        <time>2018-07-07T12:06:00Z</time>
      </trkpt>
      <trkpt lat="48.112285975366831" lon="-1.687174011021853">
        <ele>50.609999999999999</ele>
        <time>2018-07-07T12:06:01Z</time>
      </trkpt>
      <trkpt lat="48.112266026437283" lon="-1.687166970223188">
        <ele>51.090000000000003</ele>
        <time>2018-07-07T12:06:02Z</time>
      </trkpt>
      <trkpt lat="48.112214980646968" lon="-1.687148027122021">
        <ele>51.090000000000003</ele>
        <time>2018-07-07T12:06:03Z</time>
      </trkpt>
      <trkpt lat="48.112167036160827" lon="-1.687130006030202">
        <ele>51.57</ele>
        <time>2018-07-07T12:06:04Z</time>
      </trkpt>
      <trkpt lat="48.112107021734118" lon="-1.687107961624861">
        <ele>52.049999999999997</ele>
        <time>2018-07-07T12:06:05Z</time>
      </trkpt>
      <trkpt lat="48.11202596873045" lon="-1.687078038230538">
        <ele>52.049999999999997</ele>
        <time>2018-07-07T12:06:06Z</time>
      </trkpt>
      <trkpt lat="48.111060038208961" lon="-1.686559030786157">
        <ele>50.130000000000003</ele>
        <time>2018-07-07T12:06:17Z</time>
      </trkpt>
      <trkpt lat="48.110491996631026" lon="-1.686341017484665">
        <ele>49.649999999999999</ele>
        <time>2018-07-07T12:06:26Z</time>
      </trkpt>
      <trkpt lat="48.110385965555906" lon="-1.68628896586597">
        <ele>49.159999999999997</ele>
        <time>2018-07-07T12:06:34Z</time>
      </trkpt>
      <trkpt lat="48.110241964459419" lon="-1.686215959489346">
        <ele>49.649999999999999</ele>
        <time>2018-07-07T12:06:57Z</time>
      </trkpt>
      <trkpt lat="48.110183039680123" lon="-1.686164997518063">
        <ele>49.649999999999999</ele>
        <time>2018-07-07T12:07:01Z</time>
      </trkpt>
      <trkpt lat="48.110183039680123" lon="-1.686105988919735">
        <ele>49.159999999999997</ele>
        <time>2018-07-07T12:07:02Z</time>
      </trkpt>
      <trkpt lat="48.110183039680123" lon="-1.686015967279673">
        <ele>48.200000000000003</ele>
        <time>2018-07-07T12:07:03Z</time>
      </trkpt>
      <trkpt lat="48.110183039680123" lon="-1.685931980609894">
        <ele>47.719999999999999</ele>
        <time>2018-07-07T12:07:04Z</time>
      </trkpt>
      <trkpt lat="48.110183039680123" lon="-1.685861991718411">
        <ele>47.240000000000002</ele>
        <time>2018-07-07T12:07:05Z</time>
      </trkpt>
      <trkpt lat="48.110193014144897" lon="-1.684962026774883">
        <ele>43.399999999999999</ele>
        <time>2018-07-07T12:07:16Z</time>
      </trkpt>
      <trkpt lat="48.110188990831375" lon="-1.68489295989275">
        <ele>42.920000000000002</ele>
        <time>2018-07-07T12:07:19Z</time>
      </trkpt>
      <trkpt lat="48.110188990831375" lon="-1.68489295989275">
        <ele>42.439999999999998</ele>
        <time>2018-07-07T12:07:28Z</time>
      </trkpt>
      <trkpt lat="48.110184967517853" lon="-1.684820037335157">
        <ele>40.990000000000002</ele>
        <time>2018-07-07T12:07:38Z</time>
      </trkpt>
      <trkpt lat="48.110097041353583" lon="-1.684576962143183">
        <ele>39.549999999999997</ele>
        <time>2018-07-07T12:07:48Z</time>
      </trkpt>
      <trkpt lat="48.109986986964941" lon="-1.68457000516355">
        <ele>39.07</ele>
        <time>2018-07-07T12:07:49Z</time>
      </trkpt>
      <trkpt lat="48.109890008345246" lon="-1.684562964364886">
        <ele>39.07</ele>
        <time>2018-07-07T12:07:50Z</time>
      </trkpt>
      <trkpt lat="48.109165979549289" lon="-1.684513008221984">
        <ele>38.590000000000003</ele>
        <time>2018-07-07T12:08:00Z</time>
      </trkpt>
      <trkpt lat="48.10908199287951" lon="-1.684513008221984">
        <ele>39.07</ele>
        <time>2018-07-07T12:08:01Z</time>
      </trkpt>
      <trkpt lat="48.108668010681868" lon="-1.684517031535506">
        <ele>44.359999999999999</ele>
        <time>2018-07-07T12:08:07Z</time>
      </trkpt>
      <trkpt lat="48.108638003468513" lon="-1.684513008221984">
        <ele>45.32</ele>
        <time>2018-07-07T12:08:08Z</time>
      </trkpt>
      <trkpt lat="48.108638003468513" lon="-1.684513008221984">
        <ele>45.799999999999997</ele>
        <time>2018-07-07T12:08:09Z</time>
      </trkpt>
      <trkpt lat="48.10860900208354" lon="-1.684407982975245">
        <ele>46.759999999999998</ele>
        <time>2018-07-07T12:08:10Z</time>
      </trkpt>
      <trkpt lat="48.108587963506579" lon="-1.684331959113479">
        <ele>47.240000000000002</ele>
        <time>2018-07-07T12:08:11Z</time>
      </trkpt>
      <trkpt lat="48.108568014577031" lon="-1.684253001585603">
        <ele>48.200000000000003</ele>
        <time>2018-07-07T12:08:12Z</time>
      </trkpt>
      <trkpt lat="48.108546976000071" lon="-1.684159962460399">
        <ele>48.68</ele>
        <time>2018-07-07T12:08:13Z</time>
      </trkpt>
      <trkpt lat="48.108488973230124" lon="-1.683938009664416">
        <ele>49.649999999999999</ele>
        <time>2018-07-07T12:08:15Z</time>
      </trkpt>
      <trkpt lat="48.108456032350659" lon="-1.68383901938796">
        <ele>50.130000000000003</ele>
        <time>2018-07-07T12:08:16Z</time>
      </trkpt>
      <trkpt lat="48.108427030965686" lon="-1.683739023283124">
        <ele>50.609999999999999</ele>
        <time>2018-07-07T12:08:17Z</time>
      </trkpt>
      <trkpt lat="48.108397023752332" lon="-1.683628968894482">
        <ele>51.57</ele>
        <time>2018-07-07T12:08:18Z</time>
      </trkpt>
      <trkpt lat="48.108363999053836" lon="-1.683509023860097">
        <ele>52.049999999999997</ele>
        <time>2018-07-07T12:08:19Z</time>
      </trkpt>
      <trkpt lat="48.108331980183721" lon="-1.683390000835061">
        <ele>52.530000000000001</ele>
        <time>2018-07-07T12:08:20Z</time>
      </trkpt>
      <trkpt lat="48.108270037919283" lon="-1.683166036382318">
        <ele>53.969999999999999</ele>
        <time>2018-07-07T12:08:22Z</time>
      </trkpt>
      <trkpt lat="48.108123019337654" lon="-1.68272296898067">
        <ele>55.409999999999997</ele>
        <time>2018-07-07T12:08:27Z</time>
      </trkpt>
      <trkpt lat="48.108078008517623" lon="-1.682569999247789">
        <ele>56.369999999999997</ele>
        <time>2018-07-07T12:08:30Z</time>
      </trkpt>
      <trkpt lat="48.108069961890578" lon="-1.682539992034435">
        <ele>56.859999999999999</ele>
        <time>2018-07-07T12:08:31Z</time>
      </trkpt>
      <trkpt lat="48.108060993254185" lon="-1.68250797316432">
        <ele>56.859999999999999</ele>
        <time>2018-07-07T12:08:32Z</time>
      </trkpt>
      <trkpt lat="48.108049007132649" lon="-1.682470003142953">
        <ele>57.340000000000003</ele>
        <time>2018-07-07T12:08:33Z</time>
      </trkpt>
      <trkpt lat="48.108038026839495" lon="-1.682429015636444">
        <ele>57.82</ele>
        <time>2018-07-07T12:08:34Z</time>
      </trkpt>
      <trkpt lat="48.108026040717959" lon="-1.682390039786696">
        <ele>57.82</ele>
        <time>2018-07-07T12:08:35Z</time>
      </trkpt>
      <trkpt lat="48.108016988262534" lon="-1.682357015088201">
        <ele>59.259999999999998</ele>
        <time>2018-07-07T12:08:43Z</time>
      </trkpt>
      <trkpt lat="48.107939958572388" lon="-1.682088961824775">
        <ele>60.700000000000003</ele>
        <time>2018-07-07T12:09:07Z</time>
      </trkpt>
      <trkpt lat="48.107597976922989" lon="-1.680998979136348">
        <ele>64.549999999999997</ele>
        <time>2018-07-07T12:09:16Z</time>
      </trkpt>
      <trkpt lat="48.107563024386764" lon="-1.68087299913168">
        <ele>64.549999999999997</ele>
        <time>2018-07-07T12:09:17Z</time>
      </trkpt>
      <trkpt lat="48.107528993859887" lon="-1.680749030783773">
        <ele>65.030000000000001</ele>
        <time>2018-07-07T12:09:18Z</time>
      </trkpt>
      <trkpt lat="48.107459004968405" lon="-1.680489024147391">
        <ele>64.069999999999993</ele>
        <time>2018-07-07T12:09:20Z</time>
      </trkpt>
      <trkpt lat="48.107419023290277" lon="-1.680343011394143">
        <ele>62.619999999999997</ele>
        <time>2018-07-07T12:09:21Z</time>
      </trkpt>
      <trkpt lat="48.107414999976754" lon="-1.680217031389475">
        <ele>61.18</ele>
        <time>2018-07-07T12:09:22Z</time>
      </trkpt>
      <trkpt lat="48.107414999976754" lon="-1.680063977837563">
        <ele>60.700000000000003</ele>
        <time>2018-07-07T12:09:23Z</time>
      </trkpt>
      <trkpt lat="48.107414999976754" lon="-1.679902961477637">
        <ele>59.259999999999998</ele>
        <time>2018-07-07T12:09:24Z</time>
      </trkpt>
      <trkpt lat="48.107414999976754" lon="-1.679723002016544">
        <ele>57.82</ele>
        <time>2018-07-07T12:09:25Z</time>
      </trkpt>
      <trkpt lat="48.107414999976754" lon="-1.679557040333748">
        <ele>56.369999999999997</ele>
        <time>2018-07-07T12:09:26Z</time>
      </trkpt>
      <trkpt lat="48.107414999976754" lon="-1.678637964650989">
        <ele>52.049999999999997</ele>
        <time>2018-07-07T12:09:32Z</time>
      </trkpt>
      <trkpt lat="48.107414999976754" lon="-1.678462028503418">
        <ele>51.57</ele>
        <time>2018-07-07T12:09:33Z</time>
      </trkpt>
      <trkpt lat="48.107414999976754" lon="-1.678347028791904">
        <ele>51.090000000000003</ele>
        <time>2018-07-07T12:09:34Z</time>
      </trkpt>
      <trkpt lat="48.107444001361728" lon="-1.676925038918853">
        <ele>45.799999999999997</ele>
        <time>2018-07-07T12:09:44Z</time>
      </trkpt>
      <trkpt lat="48.107457999140024" lon="-1.676131021231413">
        <ele>44.840000000000003</ele>
        <time>2018-07-07T12:09:49Z</time>
      </trkpt>
      <trkpt lat="48.107457999140024" lon="-1.675979979336262">
        <ele>44.840000000000003</ele>
        <time>2018-07-07T12:09:50Z</time>
      </trkpt>
      <trkpt lat="48.107457999140024" lon="-1.675711004063487">
        <ele>44.359999999999999</ele>
        <time>2018-07-07T12:09:52Z</time>
      </trkpt>
      <trkpt lat="48.107457999140024" lon="-1.675594998523593">
        <ele>43.880000000000003</ele>
        <time>2018-07-07T12:09:53Z</time>
      </trkpt>
      <trkpt lat="48.107457999140024" lon="-1.675086971372366">
        <ele>40.030000000000001</ele>
        <time>2018-07-07T12:09:59Z</time>
      </trkpt>
      <trkpt lat="48.107457999140024" lon="-1.675036009401083">
        <ele>39.07</ele>
        <time>2018-07-07T12:10:00Z</time>
      </trkpt>
      <trkpt lat="48.107479037716985" lon="-1.674306029453874">
        <ele>36.189999999999998</ele>
        <time>2018-07-07T12:10:09Z</time>
      </trkpt>
      <trkpt lat="48.107479037716985" lon="-1.67391300201416">
        <ele>35.710000000000001</ele>
        <time>2018-07-07T12:10:13Z</time>
      </trkpt>
      <trkpt lat="48.107479037716985" lon="-1.673832032829523">
        <ele>35.229999999999997</ele>
        <time>2018-07-07T12:10:14Z</time>
      </trkpt>
      <trkpt lat="48.107479037716985" lon="-1.673759026452899">
        <ele>35.229999999999997</ele>
        <time>2018-07-07T12:10:15Z</time>
      </trkpt>
      <trkpt lat="48.107479037716985" lon="-1.673629023134708">
        <ele>34.740000000000002</ele>
        <time>2018-07-07T12:10:22Z</time>
      </trkpt>
      <trkpt lat="48.107497980818152" lon="-1.673422995954752">
        <ele>33.780000000000001</ele>
        <time>2018-07-07T12:10:28Z</time>
      </trkpt>
      <trkpt lat="48.107527988031507" lon="-1.673430036753416">
        <ele>33.780000000000001</ele>
        <time>2018-07-07T12:10:29Z</time>
      </trkpt>
      <trkpt lat="48.107575010508299" lon="-1.67344001121819">
        <ele>33.299999999999997</ele>
        <time>2018-07-07T12:10:30Z</time>
      </trkpt>
      <trkpt lat="48.107631001621485" lon="-1.673450991511345">
        <ele>33.299999999999997</ele>
        <time>2018-07-07T12:10:31Z</time>
      </trkpt>
      <trkpt lat="48.107681963592768" lon="-1.6734619718045">
        <ele>33.299999999999997</ele>
        <time>2018-07-07T12:10:32Z</time>
      </trkpt>
      <trkpt lat="48.107710964977741" lon="-1.673468006774783">
        <ele>32.82</ele>
        <time>2018-07-07T12:10:33Z</time>
      </trkpt>
      <trkpt lat="48.107733009383082" lon="-1.673473035916686">
        <ele>32.82</ele>
        <time>2018-07-07T12:10:34Z</time>
      </trkpt>
      <trkpt lat="48.107743989676237" lon="-1.673474963754416">
        <ele>32.82</ele>
        <time>2018-07-07T12:10:35Z</time>
      </trkpt>
      <trkpt lat="48.107839962467551" lon="-1.673336997628212">
        <ele>33.780000000000001</ele>
        <time>2018-07-07T12:10:40Z</time>
      </trkpt>
      <trkpt lat="48.107830993831158" lon="-1.673301961272955">
        <ele>33.780000000000001</ele>
        <time>2018-07-07T12:10:41Z</time>
      </trkpt>
      <trkpt lat="48.107816996052861" lon="-1.673252005130053">
        <ele>33.299999999999997</ele>
        <time>2018-07-07T12:10:42Z</time>
      </trkpt>
      <trkpt lat="48.107797969132662" lon="-1.673184027895331">
        <ele>33.299999999999997</ele>
        <time>2018-07-07T12:10:43Z</time>
      </trkpt>
      <trkpt lat="48.107777014374733" lon="-1.673108004033566">
        <ele>32.82</ele>
        <time>2018-07-07T12:10:44Z</time>
      </trkpt>
      <trkpt lat="48.107754969969392" lon="-1.673027034848929">
        <ele>32.82</ele>
        <time>2018-07-07T12:10:45Z</time>
      </trkpt>
      <trkpt lat="48.107382981106639" lon="-1.671906039118767">
        <ele>31.379999999999999</ele>
        <time>2018-07-07T12:10:58Z</time>
      </trkpt>
      <trkpt lat="48.107023984193802" lon="-1.670812033116818">
        <ele>34.259999999999998</ele>
        <time>2018-07-07T12:11:11Z</time>
      </trkpt>
      <trkpt lat="48.10699699446559" lon="-1.670730980113149">
        <ele>35.229999999999997</ele>
        <time>2018-07-07T12:11:12Z</time>
      </trkpt>
      <trkpt lat="48.106786021962762" lon="-1.669581988826394">
        <ele>34.259999999999998</ele>
        <time>2018-07-07T12:11:22Z</time>
      </trkpt>
      <trkpt lat="48.106629028916359" lon="-1.668889978900552">
        <ele>34.740000000000002</ele>
        <time>2018-07-07T12:11:28Z</time>
      </trkpt>
      <trkpt lat="48.106602039188147" lon="-1.668785037472844">
        <ele>34.740000000000002</ele>
        <time>2018-07-07T12:11:29Z</time>
      </trkpt>
      <trkpt lat="48.106576977297664" lon="-1.668685041368008">
        <ele>35.229999999999997</ele>
        <time>2018-07-07T12:11:30Z</time>
      </trkpt>
      <trkpt lat="48.106551999226213" lon="-1.668586973100901">
        <ele>35.710000000000001</ele>
        <time>2018-07-07T12:11:31Z</time>
      </trkpt>
      <trkpt lat="48.106527021154761" lon="-1.668489994481206">
        <ele>36.189999999999998</ele>
        <time>2018-07-07T12:11:32Z</time>
      </trkpt>
      <trkpt lat="48.106173975393176" lon="-1.66725198738277">
        <ele>40.509999999999998</ele>
        <time>2018-07-07T12:11:44Z</time>
      </trkpt>
      <trkpt lat="48.106105998158455" lon="-1.667003966867924">
        <ele>41.469999999999999</ele>
        <time>2018-07-07T12:11:46Z</time>
      </trkpt>
      <trkpt lat="48.105997033417225" lon="-1.666675982996821">
        <ele>42.920000000000002</ele>
        <time>2018-07-07T12:11:49Z</time>
      </trkpt>
      <trkpt lat="48.105903994292021" lon="-1.666402984410524">
        <ele>44.359999999999999</ele>
        <time>2018-07-07T12:11:51Z</time>
      </trkpt>
      <trkpt lat="48.105156999081373" lon="-1.665238989517093">
        <ele>47.240000000000002</ele>
        <time>2018-07-07T12:12:01Z</time>
      </trkpt>
      <trkpt lat="48.104197019711137" lon="-1.663722032681108">
        <ele>51.090000000000003</ele>
        <time>2018-07-07T12:12:14Z</time>
      </trkpt>
      <trkpt lat="48.104141028597951" lon="-1.663634022697806">
        <ele>50.609999999999999</ele>
        <time>2018-07-07T12:12:15Z</time>
      </trkpt>
      <trkpt lat="48.103945981711149" lon="-1.663325987756252">
        <ele>50.609999999999999</ele>
        <time>2018-07-07T12:12:21Z</time>
      </trkpt>
      <trkpt lat="48.103902982547879" lon="-1.663258010521531">
        <ele>50.130000000000003</ele>
        <time>2018-07-07T12:12:24Z</time>
      </trkpt>
      <trkpt lat="48.103894013911486" lon="-1.663243006914854">
        <ele>50.130000000000003</ele>
        <time>2018-07-07T12:12:25Z</time>
      </trkpt>
      <trkpt lat="48.103894013911486" lon="-1.663243006914854">
        <ele>49.649999999999999</ele>
        <time>2018-07-07T12:12:41Z</time>
      </trkpt>
      <trkpt lat="48.103807009756565" lon="-1.663105040788651">
        <ele>54.93</ele>
        <time>2018-07-07T12:13:02Z</time>
      </trkpt>
      <trkpt lat="48.103654040023685" lon="-1.662862971425057">
        <ele>60.219999999999999</ele>
        <time>2018-07-07T12:13:12Z</time>
      </trkpt>
      <trkpt lat="48.10362302698195" lon="-1.662815026938915">
        <ele>60.700000000000003</ele>
        <time>2018-07-07T12:13:13Z</time>
      </trkpt>
      <trkpt lat="48.103234022855759" lon="-1.662168027833104">
        <ele>65.030000000000001</ele>
        <time>2018-07-07T12:13:22Z</time>
      </trkpt>
      <trkpt lat="48.102599009871483" lon="-1.661078967154026">
        <ele>67.909999999999997</ele>
        <time>2018-07-07T12:13:34Z</time>
      </trkpt>
      <trkpt lat="48.102535977959633" lon="-1.66097897104919">
        <ele>67.909999999999997</ele>
        <time>2018-07-07T12:13:35Z</time>
      </trkpt>
      <trkpt lat="48.102058041840792" lon="-1.660216972231865">
        <ele>64.549999999999997</ele>
        <time>2018-07-07T12:13:43Z</time>
      </trkpt>
      <trkpt lat="48.101958967745304" lon="-1.660059979185462">
        <ele>62.140000000000001</ele>
        <time>2018-07-07T12:13:50Z</time>
      </trkpt>
      <trkpt lat="48.101894007995725" lon="-1.659951014444232">
        <ele>60.219999999999999</ele>
        <time>2018-07-07T12:14:21Z</time>
      </trkpt>
      <trkpt lat="48.101739026606083" lon="-1.659456985071302">
        <ele>55.890000000000001</ele>
        <time>2018-07-07T12:14:28Z</time>
      </trkpt>
      <trkpt lat="48.101732991635799" lon="-1.659326981753111">
        <ele>55.409999999999997</ele>
        <time>2018-07-07T12:14:29Z</time>
      </trkpt>
      <trkpt lat="48.101744977757335" lon="-1.659192033112049">
        <ele>55.409999999999997</ele>
        <time>2018-07-07T12:14:30Z</time>
      </trkpt>
      <trkpt lat="48.101768027991056" lon="-1.659053983166814">
        <ele>54.450000000000003</ele>
        <time>2018-07-07T12:14:31Z</time>
      </trkpt>
      <trkpt lat="48.101809015497565" lon="-1.658882992342114">
        <ele>53.490000000000002</ele>
        <time>2018-07-07T12:14:32Z</time>
      </trkpt>
      <trkpt lat="48.101845979690552" lon="-1.658728010952473">
        <ele>52.530000000000001</ele>
        <time>2018-07-07T12:14:33Z</time>
      </trkpt>
      <trkpt lat="48.102062987163663" lon="-1.65766904130578">
        <ele>47.240000000000002</ele>
        <time>2018-07-07T12:14:40Z</time>
      </trkpt>
      <trkpt lat="48.102072039619088" lon="-1.657540965825319">
        <ele>45.799999999999997</ele>
        <time>2018-07-07T12:14:41Z</time>
      </trkpt>
      <trkpt lat="48.102040020748973" lon="-1.657376009970903">
        <ele>44.840000000000003</ele>
        <time>2018-07-07T12:14:42Z</time>
      </trkpt>
      <trkpt lat="48.102011019363999" lon="-1.657226979732513">
        <ele>43.880000000000003</ele>
        <time>2018-07-07T12:14:43Z</time>
      </trkpt>
      <trkpt lat="48.101983023807406" lon="-1.657082978636026">
        <ele>43.399999999999999</ele>
        <time>2018-07-07T12:14:44Z</time>
      </trkpt>
      <trkpt lat="48.101956034079194" lon="-1.656943000853062">
        <ele>42.920000000000002</ele>
        <time>2018-07-07T12:14:45Z</time>
      </trkpt>
      <trkpt lat="48.101927032694221" lon="-1.656794976443052">
        <ele>42.439999999999998</ele>
        <time>2018-07-07T12:14:46Z</time>
      </trkpt>
      <trkpt lat="48.101869029924273" lon="-1.656494988128543">
        <ele>41.469999999999999</ele>
        <time>2018-07-07T12:14:48Z</time>
      </trkpt>
      <trkpt lat="48.1018400285393" lon="-1.656347969546914">
        <ele>40.990000000000002</ele>
        <time>2018-07-07T12:14:49Z</time>
      </trkpt>
      <trkpt lat="48.101812032982707" lon="-1.656202962622047">
        <ele>40.990000000000002</ele>
        <time>2018-07-07T12:14:50Z</time>
      </trkpt>
      <trkpt lat="48.101750006899238" lon="-1.655892999842763">
        <ele>41.950000000000003</ele>
        <time>2018-07-07T12:14:52Z</time>
      </trkpt>
      <trkpt lat="48.101714970543981" lon="-1.655723014846444">
        <ele>41.950000000000003</ele>
        <time>2018-07-07T12:14:53Z</time>
      </trkpt>
      <trkpt lat="48.101327978074551" lon="-1.653477000072599">
        <ele>40.990000000000002</ele>
        <time>2018-07-07T12:15:06Z</time>
      </trkpt>
      <trkpt lat="48.100950960069895" lon="-1.651519993320108">
        <ele>39.549999999999997</ele>
        <time>2018-07-07T12:15:18Z</time>
      </trkpt>
      <trkpt lat="48.100797990337014" lon="-1.651053037494421">
        <ele>39.549999999999997</ele>
        <time>2018-07-07T12:15:21Z</time>
      </trkpt>
      <trkpt lat="48.100748034194112" lon="-1.650920016691089">
        <ele>39.549999999999997</ele>
        <time>2018-07-07T12:15:22Z</time>
      </trkpt>
      <trkpt lat="48.100507976487279" lon="-1.650276035070419">
        <ele>41.469999999999999</ele>
        <time>2018-07-07T12:15:30Z</time>
      </trkpt>
      <trkpt lat="48.100507976487279" lon="-1.650276035070419">
        <ele>41.469999999999999</ele>
        <time>2018-07-07T12:15:42Z</time>
      </trkpt>
      <trkpt lat="48.100387025624514" lon="-1.649951990693808">
        <ele>42.439999999999998</ele>
        <time>2018-07-07T12:15:54Z</time>
      </trkpt>
      <trkpt lat="48.100323993712664" lon="-1.649757027626038">
        <ele>42.920000000000002</ele>
        <time>2018-07-07T12:15:56Z</time>
      </trkpt>
      <trkpt lat="48.10025199316442" lon="-1.649532979354262">
        <ele>41.950000000000003</ele>
        <time>2018-07-07T12:15:58Z</time>
      </trkpt>
      <trkpt lat="48.100133975967765" lon="-1.649163002148271">
        <ele>41.469999999999999</ele>
        <time>2018-07-07T12:16:01Z</time>
      </trkpt>
      <trkpt lat="48.100050995126367" lon="-1.64890299551189">
        <ele>41.950000000000003</ele>
        <time>2018-07-07T12:16:03Z</time>
      </trkpt>
      <trkpt lat="48.099916968494654" lon="-1.648440985009074">
        <ele>42.439999999999998</ele>
        <time>2018-07-07T12:16:07Z</time>
      </trkpt>
      <trkpt lat="48.099653022363782" lon="-1.647585025057197">
        <ele>42.920000000000002</ele>
        <time>2018-07-07T12:16:15Z</time>
      </trkpt>
      <trkpt lat="48.09949804097414" lon="-1.647051014006138">
        <ele>43.880000000000003</ele>
        <time>2018-07-07T12:16:20Z</time>
      </trkpt>
      <trkpt lat="48.09941397048533" lon="-1.646749014034867">
        <ele>44.359999999999999</ele>
        <time>2018-07-07T12:16:22Z</time>
      </trkpt>
      <trkpt lat="48.09936803765595" lon="-1.646593026816845">
        <ele>44.840000000000003</ele>
        <time>2018-07-07T12:16:23Z</time>
      </trkpt>
      <trkpt lat="48.098864033818245" lon="-1.644998034462333">
        <ele>46.759999999999998</ele>
        <time>2018-07-07T12:16:33Z</time>
      </trkpt>
      <trkpt lat="48.098440999165177" lon="-1.643992038443685">
        <ele>49.649999999999999</ele>
        <time>2018-07-07T12:16:40Z</time>
      </trkpt>
      <trkpt lat="48.097427962347865" lon="-1.642224965617061">
        <ele>53.969999999999999</ele>
        <time>2018-07-07T12:16:53Z</time>
      </trkpt>
      <trkpt lat="48.096478041261435" lon="-1.64044096134603">
        <ele>58.299999999999997</ele>
        <time>2018-07-07T12:17:05Z</time>
      </trkpt>
      <trkpt lat="48.095634989440441" lon="-1.638769023120403">
        <ele>61.659999999999997</ele>
        <time>2018-07-07T12:17:16Z</time>
      </trkpt>
      <trkpt lat="48.094963012263179" lon="-1.636905977502465">
        <ele>62.619999999999997</ele>
        <time>2018-07-07T12:17:27Z</time>
      </trkpt>
      <trkpt lat="48.094642991200089" lon="-1.635911967605352">
        <ele>62.140000000000001</ele>
        <time>2018-07-07T12:17:33Z</time>
      </trkpt>
      <trkpt lat="48.094590017572045" lon="-1.635767966508865">
        <ele>62.140000000000001</ele>
        <time>2018-07-07T12:17:34Z</time>
      </trkpt>
      <trkpt lat="48.094345014542341" lon="-1.635047039017081">
        <ele>62.619999999999997</ele>
        <time>2018-07-07T12:17:40Z</time>
      </trkpt>
      <trkpt lat="48.094318024814129" lon="-1.634964980185032">
        <ele>62.619999999999997</ele>
        <time>2018-07-07T12:17:41Z</time>
      </trkpt>
      <trkpt lat="48.094258010387421" lon="-1.634796001017094">
        <ele>62.619999999999997</ele>
        <time>2018-07-07T12:17:48Z</time>
      </trkpt>
      <trkpt lat="48.094258010387421" lon="-1.634796001017094">
        <ele>62.619999999999997</ele>
        <time>2018-07-07T12:18:03Z</time>
      </trkpt>
      <trkpt lat="48.094121972098947" lon="-1.634413031861186">
        <ele>62.619999999999997</ele>
        <time>2018-07-07T12:18:14Z</time>
      </trkpt>
      <trkpt lat="48.094090037047863" lon="-1.634326027706265">
        <ele>62.619999999999997</ele>
        <time>2018-07-07T12:18:15Z</time>
      </trkpt>
      <trkpt lat="48.094062963500619" lon="-1.6342500038445">
        <ele>62.619999999999997</ele>
        <time>2018-07-07T12:18:16Z</time>
      </trkpt>
      <trkpt lat="48.094038991257548" lon="-1.634181020781398">
        <ele>62.619999999999997</ele>
        <time>2018-07-07T12:18:17Z</time>
      </trkpt>
      <trkpt lat="48.094018036499619" lon="-1.63412201218307">
        <ele>62.619999999999997</ele>
        <time>2018-07-07T12:18:18Z</time>
      </trkpt>
      <trkpt lat="48.094001021236181" lon="-1.634074989706278">
        <ele>62.619999999999997</ele>
        <time>2018-07-07T12:18:19Z</time>
      </trkpt>
      <trkpt lat="48.094001021236181" lon="-1.634074989706278">
        <ele>62.140000000000001</ele>
        <time>2018-07-07T12:18:28Z</time>
      </trkpt>
    </trkseg>
  </trk>

  <trk>
    <name>Track vom: 2018-07-07 14:19</name>
    <extensions>
      <gpxx:TrackExtension>
        <gpxx:DisplayColor>DarkGray</gpxx:DisplayColor>
      </gpxx:TrackExtension>
    </extensions>
    <trkseg>
      <trkpt lat="48.094001021236181" lon="-1.634074989706278">
        <ele>62.140000000000001</ele>
        <time>2018-07-07T12:19:28Z</time>
      </trkpt>
      <trkpt lat="48.094001021236181" lon="-1.634074989706278">
        <ele>62.140000000000001</ele>
        <time>2018-07-07T12:19:35Z</time>
      </trkpt>
      <trkpt lat="48.093965984880924" lon="-1.633978011086583">
        <ele>62.619999999999997</ele>
        <time>2018-07-07T12:19:36Z</time>
      </trkpt>
      <trkpt lat="48.093952992931008" lon="-1.633940963074565">
        <ele>62.619999999999997</ele>
        <time>2018-07-07T12:19:37Z</time>
      </trkpt>
      <trkpt lat="48.093932960182428" lon="-1.633884971961379">
        <ele>62.140000000000001</ele>
        <time>2018-07-07T12:19:38Z</time>
      </trkpt>
      <trkpt lat="48.093908987939358" lon="-1.633816994726658">
        <ele>62.619999999999997</ele>
        <time>2018-07-07T12:19:39Z</time>
      </trkpt>
      <trkpt lat="48.093878980726004" lon="-1.633733008056879">
        <ele>62.140000000000001</ele>
        <time>2018-07-07T12:19:40Z</time>
      </trkpt>
      <trkpt lat="48.093529036268592" lon="-1.63272600620985">
        <ele>61.659999999999997</ele>
        <time>2018-07-07T12:19:48Z</time>
      </trkpt>
      <trkpt lat="48.093209015205503" lon="-1.631705006584525">
        <ele>60.219999999999999</ele>
        <time>2018-07-07T12:19:56Z</time>
      </trkpt>
      <trkpt lat="48.093175990507007" lon="-1.631614984944463">
        <ele>59.259999999999998</ele>
        <time>2018-07-07T12:20:03Z</time>
      </trkpt>
      <trkpt lat="48.093114970251918" lon="-1.631452040746808">
        <ele>59.740000000000002</ele>
        <time>2018-07-07T12:20:19Z</time>
      </trkpt>
      <trkpt lat="48.093055039644241" lon="-1.631284989416599">
        <ele>59.740000000000002</ele>
        <time>2018-07-07T12:21:02Z</time>
      </trkpt>
      <trkpt lat="48.092726971954107" lon="-1.630284022539854">
        <ele>58.299999999999997</ele>
        <time>2018-07-07T12:21:10Z</time>
      </trkpt>
      <trkpt lat="48.092119032517076" lon="-1.628673020750284">
        <ele>57.82</ele>
        <time>2018-07-07T12:21:22Z</time>
      </trkpt>
      <trkpt lat="48.091943012550473" lon="-1.628162981942296">
        <ele>57.340000000000003</ele>
        <time>2018-07-07T12:21:29Z</time>
      </trkpt>
      <trkpt lat="48.091943012550473" lon="-1.628162981942296">
        <ele>56.859999999999999</ele>
        <time>2018-07-07T12:21:42Z</time>
      </trkpt>
      <trkpt lat="48.091880986467004" lon="-1.627975981682539">
        <ele>57.82</ele>
        <time>2018-07-07T12:22:08Z</time>
      </trkpt>
      <trkpt lat="48.091762969270349" lon="-1.627652021124959">
        <ele>57.82</ele>
        <time>2018-07-07T12:22:11Z</time>
      </trkpt>
      <trkpt lat="48.091628020629287" lon="-1.627295035868883">
        <ele>57.82</ele>
        <time>2018-07-07T12:22:14Z</time>
      </trkpt>
      <trkpt lat="48.091065008193254" lon="-1.625805990770459">
        <ele>55.890000000000001</ele>
        <time>2018-07-07T12:22:24Z</time>
      </trkpt>
      <trkpt lat="48.090858981013298" lon="-1.6255500074476">
        <ele>55.409999999999997</ele>
        <time>2018-07-07T12:22:26Z</time>
      </trkpt>
      <trkpt lat="48.089713007211685" lon="-1.624831007793546">
        <ele>54.450000000000003</ele>
        <time>2018-07-07T12:22:36Z</time>
      </trkpt>
      <trkpt lat="48.08931402862072" lon="-1.624761018902063">
        <ele>53.969999999999999</ele>
        <time>2018-07-07T12:22:39Z</time>
      </trkpt>
      <trkpt lat="48.088156990706921" lon="-1.624879036098719">
        <ele>55.409999999999997</ele>
        <time>2018-07-07T12:22:48Z</time>
      </trkpt>
      <trkpt lat="48.088061017915606" lon="-1.624874006956816">
        <ele>55.890000000000001</ele>
        <time>2018-07-07T12:22:49Z</time>
      </trkpt>
      <trkpt lat="48.087966972962022" lon="-1.6248610150069">
        <ele>55.890000000000001</ele>
        <time>2018-07-07T12:22:50Z</time>
      </trkpt>
      <trkpt lat="48.087880974635482" lon="-1.624850034713745">
        <ele>55.890000000000001</ele>
        <time>2018-07-07T12:22:51Z</time>
      </trkpt>
      <trkpt lat="48.087804028764367" lon="-1.624839976429939">
        <ele>55.890000000000001</ele>
        <time>2018-07-07T12:22:52Z</time>
      </trkpt>
      <trkpt lat="48.08772599324584" lon="-1.624827990308404">
        <ele>55.890000000000001</ele>
        <time>2018-07-07T12:22:53Z</time>
      </trkpt>
      <trkpt lat="48.087633959949017" lon="-1.624813992530108">
        <ele>55.409999999999997</ele>
        <time>2018-07-07T12:22:54Z</time>
      </trkpt>
      <trkpt lat="48.087526001036167" lon="-1.62479798309505">
        <ele>54.93</ele>
        <time>2018-07-07T12:22:55Z</time>
      </trkpt>
      <trkpt lat="48.086491003632545" lon="-1.624493971467018">
        <ele>53.009999999999998</ele>
        <time>2018-07-07T12:23:02Z</time>
      </trkpt>
      <trkpt lat="48.08495401404798" lon="-1.623593000695109">
        <ele>48.68</ele>
        <time>2018-07-07T12:23:12Z</time>
      </trkpt>
      <trkpt lat="48.083419958129525" lon="-1.622020974755287">
        <ele>47.240000000000002</ele>
        <time>2018-07-07T12:23:22Z</time>
      </trkpt>
      <trkpt lat="48.082183040678501" lon="-1.619692984968424">
        <ele>45.799999999999997</ele>
        <time>2018-07-07T12:23:32Z</time>
      </trkpt>
      <trkpt lat="48.081438979133964" lon="-1.617300035431981">
        <ele>44.359999999999999</ele>
        <time>2018-07-07T12:23:40Z</time>
      </trkpt>
      <trkpt lat="48.081049975007772" lon="-1.614595027640462">
        <ele>43.399999999999999</ele>
        <time>2018-07-07T12:23:48Z</time>
      </trkpt>
      <trkpt lat="48.080731965601444" lon="-1.611850960180163">
        <ele>45.32</ele>
        <time>2018-07-07T12:23:57Z</time>
      </trkpt>
      <trkpt lat="48.080368023365736" lon="-1.608711015433073">
        <ele>47.240000000000002</ele>
        <time>2018-07-07T12:24:08Z</time>
      </trkpt>
      <trkpt lat="48.080041967332363" lon="-1.605897964909673">
        <ele>47.240000000000002</ele>
        <time>2018-07-07T12:24:19Z</time>
      </trkpt>
      <trkpt lat="48.079936020076275" lon="-1.604890041053295">
        <ele>46.280000000000001</ele>
        <time>2018-07-07T12:24:26Z</time>
      </trkpt>
      <trkpt lat="48.07984096929431" lon="-1.604759031906724">
        <ele>46.280000000000001</ele>
        <time>2018-07-07T12:24:27Z</time>
      </trkpt>
      <trkpt lat="48.079734016209841" lon="-1.604712009429932">
        <ele>46.280000000000001</ele>
        <time>2018-07-07T12:24:28Z</time>
      </trkpt>
      <trkpt lat="48.079708032310009" lon="-1.604625005275011">
        <ele>46.280000000000001</ele>
        <time>2018-07-07T12:24:29Z</time>
      </trkpt>
      <trkpt lat="48.079676013439894" lon="-1.604445967823267">
        <ele>46.280000000000001</ele>
        <time>2018-07-07T12:24:30Z</time>
      </trkpt>
      <trkpt lat="48.079691017046571" lon="-1.604326022788882">
        <ele>45.799999999999997</ele>
        <time>2018-07-07T12:24:31Z</time>
      </trkpt>
      <trkpt lat="48.07979897595942" lon="-1.60412703640759">
        <ele>45.32</ele>
        <time>2018-07-07T12:24:32Z</time>
      </trkpt>
      <trkpt lat="48.07979897595942" lon="-1.603738032281399">
        <ele>44.840000000000003</ele>
        <time>2018-07-07T12:24:34Z</time>
      </trkpt>
      <trkpt lat="48.079615999013186" lon="-1.602069027721882">
        <ele>44.359999999999999</ele>
        <time>2018-07-07T12:24:41Z</time>
      </trkpt>
      <trkpt lat="48.079136973246932" lon="-1.598437987267971">
        <ele>46.759999999999998</ele>
        <time>2018-07-07T12:24:54Z</time>
      </trkpt>
      <trkpt lat="48.07831697165966" lon="-1.594854975119233">
        <ele>48.68</ele>
        <time>2018-07-07T12:25:07Z</time>
      </trkpt>
      <trkpt lat="48.077448019757867" lon="-1.591394003480673">
        <ele>50.130000000000003</ele>
        <time>2018-07-07T12:25:19Z</time>
      </trkpt>
      <trkpt lat="48.076271032914519" lon="-1.586421020328999">
        <ele>55.890000000000001</ele>
        <time>2018-07-07T12:25:36Z</time>
      </trkpt>
      <trkpt lat="48.075082981958985" lon="-1.580785028636456">
        <ele>65.989999999999995</ele>
        <time>2018-07-07T12:25:55Z</time>
      </trkpt>
      <trkpt lat="48.073980007320642" lon="-1.577764023095369">
        <ele>65.989999999999995</ele>
        <time>2018-07-07T12:26:06Z</time>
      </trkpt>
      <trkpt lat="48.072399012744427" lon="-1.574862040579319">
        <ele>64.549999999999997</ele>
        <time>2018-07-07T12:26:18Z</time>
      </trkpt>
      <trkpt lat="48.070501014590263" lon="-1.571515984833241">
        <ele>59.259999999999998</ele>
        <time>2018-07-07T12:26:32Z</time>
      </trkpt>
      <trkpt lat="48.069151025265455" lon="-1.569161005318165">
        <ele>56.369999999999997</ele>
        <time>2018-07-07T12:26:42Z</time>
      </trkpt>
      <trkpt lat="48.067811010405421" lon="-1.566811976954341">
        <ele>58.299999999999997</ele>
        <time>2018-07-07T12:26:52Z</time>
      </trkpt>
      <trkpt lat="48.066594041883945" lon="-1.564672999083996">
        <ele>61.659999999999997</ele>
        <time>2018-07-07T12:27:01Z</time>
      </trkpt>
      <trkpt lat="48.065181020647287" lon="-1.562192961573601">
        <ele>66.950000000000003</ele>
        <time>2018-07-07T12:27:12Z</time>
      </trkpt>
      <trkpt lat="48.063503969460726" lon="-1.559244962409139">
        <ele>70.790000000000006</ele>
        <time>2018-07-07T12:27:26Z</time>
      </trkpt>
      <trkpt lat="48.061631033197045" lon="-1.555632026866078">
        <ele>75.120000000000005</ele>
        <time>2018-07-07T12:27:41Z</time>
      </trkpt>
      <trkpt lat="48.060753028839827" lon="-1.552583025768399">
        <ele>80.890000000000001</ele>
        <time>2018-07-07T12:27:52Z</time>
      </trkpt>
      <trkpt lat="48.060191022232175" lon="-1.549006970599294">
        <ele>83.769999999999996</ele>
        <time>2018-07-07T12:28:04Z</time>
      </trkpt>
      <trkpt lat="48.059398010373116" lon="-1.545211980119348">
        <ele>78</ele>
        <time>2018-07-07T12:28:17Z</time>
      </trkpt>
      <trkpt lat="48.058283971622586" lon="-1.541967010125518">
        <ele>71.760000000000005</ele>
        <time>2018-07-07T12:28:29Z</time>
      </trkpt>
      <trkpt lat="48.057508980855346" lon="-1.539537012577057">
        <ele>71.269999999999996</ele>
        <time>2018-07-07T12:28:38Z</time>
      </trkpt>
      <trkpt lat="48.056759973987937" lon="-1.536061959341168">
        <ele>72.239999999999995</ele>
        <time>2018-07-07T12:28:50Z</time>
      </trkpt>
      <trkpt lat="48.056441964581609" lon="-1.532722022384405">
        <ele>68.870000000000005</ele>
        <time>2018-07-07T12:29:01Z</time>
      </trkpt>
      <trkpt lat="48.056024964898825" lon="-1.529147978872061">
        <ele>69.349999999999994</ele>
        <time>2018-07-07T12:29:13Z</time>
      </trkpt>
      <trkpt lat="48.055550968274474" lon="-1.525767976418138">
        <ele>68.870000000000005</ele>
        <time>2018-07-07T12:29:25Z</time>
      </trkpt>
      <trkpt lat="48.055361034348607" lon="-1.524663995951414">
        <ele>64.549999999999997</ele>
        <time>2018-07-07T12:29:32Z</time>
      </trkpt>
      <trkpt lat="48.055338989943266" lon="-1.524554025381804">
        <ele>64.069999999999993</ele>
        <time>2018-07-07T12:29:33Z</time>
      </trkpt>
      <trkpt lat="48.055192977190018" lon="-1.524370964616537">
        <ele>63.100000000000001</ele>
        <time>2018-07-07T12:29:35Z</time>
      </trkpt>
      <trkpt lat="48.055185014382005" lon="-1.524214977398515">
        <ele>62.619999999999997</ele>
        <time>2018-07-07T12:29:36Z</time>
      </trkpt>
      <trkpt lat="48.05521703325212" lon="-1.524100983515382">
        <ele>62.140000000000001</ele>
        <time>2018-07-07T12:29:37Z</time>
      </trkpt>
      <trkpt lat="48.055264977738261" lon="-1.523807030171156">
        <ele>61.659999999999997</ele>
        <time>2018-07-07T12:29:39Z</time>
      </trkpt>
      <trkpt lat="48.055267995223403" lon="-1.523626986891031">
        <ele>61.18</ele>
        <time>2018-07-07T12:29:40Z</time>
      </trkpt>
      <trkpt lat="48.055191971361637" lon="-1.521896962076426">
        <ele>57.82</ele>
        <time>2018-07-07T12:29:47Z</time>
      </trkpt>
      <trkpt lat="48.05502500385046" lon="-1.519064968451858">
        <ele>51.57</ele>
        <time>2018-07-07T12:29:57Z</time>
      </trkpt>
      <trkpt lat="48.054925007745624" lon="-1.517280964180827">
        <ele>46.280000000000001</ele>
        <time>2018-07-07T12:30:06Z</time>
      </trkpt>
      <trkpt lat="48.054809002205729" lon="-1.515933992341161">
        <ele>48.200000000000003</ele>
        <time>2018-07-07T12:30:15Z</time>
      </trkpt>
      <trkpt lat="48.054591994732618" lon="-1.514360038563609">
        <ele>49.159999999999997</ele>
        <time>2018-07-07T12:30:25Z</time>
      </trkpt>
      <trkpt lat="48.054107017815113" lon="-1.512684999033809">
        <ele>43.880000000000003</ele>
        <time>2018-07-07T12:30:36Z</time>
      </trkpt>
      <trkpt lat="48.053817003965378" lon="-1.512169009074569">
        <ele>42.439999999999998</ele>
        <time>2018-07-07T12:30:41Z</time>
      </trkpt>
      <trkpt lat="48.05375799536705" lon="-1.512091979384422">
        <ele>42.439999999999998</ele>
        <time>2018-07-07T12:30:42Z</time>
      </trkpt>
      <trkpt lat="48.053684988990426" lon="-1.511992989107966">
        <ele>42.439999999999998</ele>
        <time>2018-07-07T12:30:43Z</time>
      </trkpt>
      <trkpt lat="48.05360502563417" lon="-1.511979997158051">
        <ele>42.439999999999998</ele>
        <time>2018-07-07T12:30:44Z</time>
      </trkpt>
      <trkpt lat="48.053513998165727" lon="-1.511958036571741">
        <ele>42.439999999999998</ele>
        <time>2018-07-07T12:30:45Z</time>
      </trkpt>
      <trkpt lat="48.053406961262226" lon="-1.511970022693276">
        <ele>42.439999999999998</ele>
        <time>2018-07-07T12:30:46Z</time>
      </trkpt>
      <trkpt lat="48.053299002349377" lon="-1.511996006593108">
        <ele>42.439999999999998</ele>
        <time>2018-07-07T12:30:47Z</time>
      </trkpt>
      <trkpt lat="48.053181990981102" lon="-1.512022996321321">
        <ele>42.439999999999998</ele>
        <time>2018-07-07T12:30:48Z</time>
      </trkpt>
      <trkpt lat="48.052024031057954" lon="-1.512607969343662">
        <ele>45.799999999999997</ele>
        <time>2018-07-07T12:30:56Z</time>
      </trkpt>
      <trkpt lat="48.05053498595953" lon="-1.513383965939283">
        <ele>53.490000000000002</ele>
        <time>2018-07-07T12:31:06Z</time>
      </trkpt>
      <trkpt lat="48.049082988873124" lon="-1.514143031090498">
        <ele>58.780000000000001</ele>
        <time>2018-07-07T12:31:17Z</time>
      </trkpt>
      <trkpt lat="48.047572989016771" lon="-1.514912992715836">
        <ele>62.619999999999997</ele>
        <time>2018-07-07T12:31:25Z</time>
      </trkpt>
      <trkpt lat="48.045970033854246" lon="-1.515276012942195">
        <ele>62.619999999999997</ele>
        <time>2018-07-07T12:31:33Z</time>
      </trkpt>
      <trkpt lat="48.044898994266987" lon="-1.515026986598969">
        <ele>61.18</ele>
        <time>2018-07-07T12:31:39Z</time>
      </trkpt>
      <trkpt lat="48.044331036508083" lon="-1.514882985502482">
        <ele>61.659999999999997</ele>
        <time>2018-07-07T12:31:45Z</time>
      </trkpt>
      <trkpt lat="48.044118974357843" lon="-1.514890026301146">
        <ele>62.619999999999997</ele>
        <time>2018-07-07T12:31:48Z</time>
      </trkpt>
      <trkpt lat="48.044033981859684" lon="-1.514782989397645">
        <ele>62.619999999999997</ele>
        <time>2018-07-07T12:31:49Z</time>
      </trkpt>
      <trkpt lat="48.043986037373543" lon="-1.514633037149906">
        <ele>62.619999999999997</ele>
        <time>2018-07-07T12:31:50Z</time>
      </trkpt>
      <trkpt lat="48.043884029611945" lon="-1.514438996091485">
        <ele>62.619999999999997</ele>
        <time>2018-07-07T12:31:52Z</time>
      </trkpt>
      <trkpt lat="48.043818986043334" lon="-1.514316033571959">
        <ele>62.619999999999997</ele>
        <time>2018-07-07T12:31:53Z</time>
      </trkpt>
      <trkpt lat="48.04372301325202" lon="-1.514193993061781">
        <ele>62.140000000000001</ele>
        <time>2018-07-07T12:31:54Z</time>
      </trkpt>
      <trkpt lat="48.043608013540506" lon="-1.514120986685157">
        <ele>62.140000000000001</ele>
        <time>2018-07-07T12:31:55Z</time>
      </trkpt>
      <trkpt lat="48.043483961373568" lon="-1.514042029157281">
        <ele>62.140000000000001</ele>
        <time>2018-07-07T12:31:56Z</time>
      </trkpt>
      <trkpt lat="48.043352030217648" lon="-1.51395795866847">
        <ele>62.140000000000001</ele>
        <time>2018-07-07T12:31:57Z</time>
      </trkpt>
      <trkpt lat="48.043090011924505" lon="-1.513727959245443">
        <ele>61.659999999999997</ele>
        <time>2018-07-07T12:31:59Z</time>
      </trkpt>
      <trkpt lat="48.042953973636031" lon="-1.513599967584014">
        <ele>61.659999999999997</ele>
        <time>2018-07-07T12:32:00Z</time>
      </trkpt>
      <trkpt lat="48.042833022773266" lon="-1.51343802921474">
        <ele>61.18</ele>
        <time>2018-07-07T12:32:01Z</time>
      </trkpt>
      <trkpt lat="48.041613036766648" lon="-1.511551011353731">
        <ele>61.659999999999997</ele>
        <time>2018-07-07T12:32:10Z</time>
      </trkpt>
      <trkpt lat="48.040442001074553" lon="-1.509685032069683">
        <ele>60.700000000000003</ele>
        <time>2018-07-07T12:32:18Z</time>
      </trkpt>
      <trkpt lat="48.038695966824889" lon="-1.506726974621415">
        <ele>56.369999999999997</ele>
        <time>2018-07-07T12:32:31Z</time>
      </trkpt>
      <trkpt lat="48.038166984915733" lon="-1.504808021709323">
        <ele>56.369999999999997</ele>
        <time>2018-07-07T12:32:38Z</time>
      </trkpt>
      <trkpt lat="48.038020972162485" lon="-1.503539001569152">
        <ele>58.299999999999997</ele>
        <time>2018-07-07T12:32:44Z</time>
      </trkpt>
      <trkpt lat="48.037924999371171" lon="-1.503171036019921">
        <ele>58.780000000000001</ele>
        <time>2018-07-07T12:32:47Z</time>
      </trkpt>
      <trkpt lat="48.037891974672675" lon="-1.503045978024602">
        <ele>59.259999999999998</ele>
        <time>2018-07-07T12:32:49Z</time>
      </trkpt>
      <trkpt lat="48.037797007709742" lon="-1.502927960827947">
        <ele>59.259999999999998</ele>
        <time>2018-07-07T12:32:50Z</time>
      </trkpt>
      <trkpt lat="48.037764988839626" lon="-1.502815978601575">
        <ele>59.740000000000002</ele>
        <time>2018-07-07T12:32:51Z</time>
      </trkpt>
      <trkpt lat="48.037782004103065" lon="-1.502642976120114">
        <ele>59.740000000000002</ele>
        <time>2018-07-07T12:32:52Z</time>
      </trkpt>
      <trkpt lat="48.037785021588206" lon="-1.502615986391902">
        <ele>59.740000000000002</ele>
        <time>2018-07-07T12:32:53Z</time>
      </trkpt>
      <trkpt lat="48.037868002429605" lon="-1.502337958663702">
        <ele>60.219999999999999</ele>
        <time>2018-07-07T12:32:54Z</time>
      </trkpt>
      <trkpt lat="48.037842018529773" lon="-1.502173002809286">
        <ele>60.219999999999999</ele>
        <time>2018-07-07T12:32:55Z</time>
      </trkpt>
      <trkpt lat="48.037813017144799" lon="-1.501989020034671">
        <ele>60.219999999999999</ele>
        <time>2018-07-07T12:32:56Z</time>
      </trkpt>
      <trkpt lat="48.037782004103065" lon="-1.50179497897625">
        <ele>60.700000000000003</ele>
        <time>2018-07-07T12:32:57Z</time>
      </trkpt>
      <trkpt lat="48.037748979404569" lon="-1.501587023958564">
        <ele>60.700000000000003</ele>
        <time>2018-07-07T12:32:58Z</time>
      </trkpt>
      <trkpt lat="48.037439016625285" lon="-1.499741999432445">
        <ele>60.700000000000003</ele>
        <time>2018-07-07T12:33:05Z</time>
      </trkpt>
      <trkpt lat="48.03721597418189" lon="-1.49693900719285">
        <ele>55.890000000000001</ele>
        <time>2018-07-07T12:33:14Z</time>
      </trkpt>
      <trkpt lat="48.03744999691844" lon="-1.493665035814047">
        <ele>55.890000000000001</ele>
        <time>2018-07-07T12:33:25Z</time>
      </trkpt>
      <trkpt lat="48.038085009902716" lon="-1.490816026926041">
        <ele>60.700000000000003</ele>
        <time>2018-07-07T12:33:35Z</time>
      </trkpt>
      <trkpt lat="48.038993021473289" lon="-1.488462975248694">
        <ele>65.989999999999995</ele>
        <time>2018-07-07T12:33:44Z</time>
      </trkpt>
      <trkpt lat="48.040516013279557" lon="-1.486012022942305">
        <ele>68.870000000000005</ele>
        <time>2018-07-07T12:33:55Z</time>
      </trkpt>
      <trkpt lat="48.042415017262101" lon="-1.483689984306693">
        <ele>68.390000000000001</ele>
        <time>2018-07-07T12:34:07Z</time>
      </trkpt>
      <trkpt lat="48.044740995392203" lon="-1.480689011514187">
        <ele>63.579999999999998</ele>
        <time>2018-07-07T12:34:22Z</time>
      </trkpt>
      <trkpt lat="48.045755038037896" lon="-1.478420030325651">
        <ele>55.409999999999997</ele>
        <time>2018-07-07T12:34:31Z</time>
      </trkpt>
      <trkpt lat="48.046184023842216" lon="-1.476094974204898">
        <ele>53.009999999999998</ele>
        <time>2018-07-07T12:34:39Z</time>
      </trkpt>
      <trkpt lat="48.046215958893299" lon="-1.474604001268745">
        <ele>53.969999999999999</ele>
        <time>2018-07-07T12:34:45Z</time>
      </trkpt>
      <trkpt lat="48.046282008290291" lon="-1.471308991312981">
        <ele>61.18</ele>
        <time>2018-07-07T12:34:55Z</time>
      </trkpt>
      <trkpt lat="48.046705964952707" lon="-1.468024039641023">
        <ele>69.349999999999994</ele>
        <time>2018-07-07T12:35:06Z</time>
      </trkpt>
      <trkpt lat="48.046742007136345" lon="-1.46709700115025">
        <ele>69.349999999999994</ele>
        <time>2018-07-07T12:35:09Z</time>
      </trkpt>
      <trkpt lat="48.046720968559384" lon="-1.466791983693838">
        <ele>69.349999999999994</ele>
        <time>2018-07-07T12:35:10Z</time>
      </trkpt>
      <trkpt lat="48.046313021332026" lon="-1.463971976190805">
        <ele>67.430000000000007</ele>
        <time>2018-07-07T12:35:20Z</time>
      </trkpt>
      <trkpt lat="48.04591697640717" lon="-1.459855036810041">
        <ele>62.140000000000001</ele>
        <time>2018-07-07T12:35:36Z</time>
      </trkpt>
      <trkpt lat="48.045843970030546" lon="-1.458825990557671">
        <ele>60.219999999999999</ele>
        <time>2018-07-07T12:35:42Z</time>
      </trkpt>
      <trkpt lat="48.045818991959095" lon="-1.458484008908272">
        <ele>59.740000000000002</ele>
        <time>2018-07-07T12:35:50Z</time>
      </trkpt>
      <trkpt lat="48.045812034979463" lon="-1.458373032510281">
        <ele>59.259999999999998</ele>
        <time>2018-07-07T12:35:58Z</time>
      </trkpt>
      <trkpt lat="48.045812034979463" lon="-1.458373032510281">
        <ele>59.259999999999998</ele>
        <time>2018-07-07T12:36:00Z</time>
      </trkpt>
      <trkpt lat="48.045839024707675" lon="-1.458342019468546">
        <ele>59.259999999999998</ele>
        <time>2018-07-07T12:36:01Z</time>
      </trkpt>
      <trkpt lat="48.04587297141552" lon="-1.458333972841501">
        <ele>59.259999999999998</ele>
        <time>2018-07-07T12:36:02Z</time>
      </trkpt>
      <trkpt lat="48.045924017205834" lon="-1.458320980891585">
        <ele>59.259999999999998</ele>
        <time>2018-07-07T12:36:03Z</time>
      </trkpt>
      <trkpt lat="48.045998029410839" lon="-1.458302037790418">
        <ele>59.259999999999998</ele>
        <time>2018-07-07T12:36:04Z</time>
      </trkpt>
      <trkpt lat="48.046890031546354" lon="-1.458082012832165">
        <ele>60.219999999999999</ele>
        <time>2018-07-07T12:36:12Z</time>
      </trkpt>
      <trkpt lat="48.047600984573364" lon="-1.457940023392439">
        <ele>61.659999999999997</ele>
        <time>2018-07-07T12:36:17Z</time>
      </trkpt>
      <trkpt lat="48.047717995941639" lon="-1.457903981208801">
        <ele>62.140000000000001</ele>
        <time>2018-07-07T12:36:18Z</time>
      </trkpt>
      <trkpt lat="48.047810029238462" lon="-1.457827035337687">
        <ele>62.140000000000001</ele>
        <time>2018-07-07T12:36:19Z</time>
      </trkpt>
      <trkpt lat="48.047864008694887" lon="-1.457699965685606">
        <ele>62.619999999999997</ele>
        <time>2018-07-07T12:36:20Z</time>
      </trkpt>
      <trkpt lat="48.047908013686538" lon="-1.457569962367415">
        <ele>63.100000000000001</ele>
        <time>2018-07-07T12:36:21Z</time>
      </trkpt>
      <trkpt lat="48.047955958172679" lon="-1.457415986806154">
        <ele>63.100000000000001</ele>
        <time>2018-07-07T12:36:22Z</time>
      </trkpt>
      <trkpt lat="48.047962998971343" lon="-1.457236027345061">
        <ele>63.579999999999998</ele>
        <time>2018-07-07T12:36:23Z</time>
      </trkpt>
      <trkpt lat="48.048042040318251" lon="-1.455349009484053">
        <ele>65.510000000000005</ele>
        <time>2018-07-07T12:36:31Z</time>
      </trkpt>
      <trkpt lat="48.04806299507618" lon="-1.452818010002375">
        <ele>66.950000000000003</ele>
        <time>2018-07-07T12:36:40Z</time>
      </trkpt>
      <trkpt lat="48.048137007281184" lon="-1.450312994420528">
        <ele>64.069999999999993</ele>
        <time>2018-07-07T12:36:50Z</time>
      </trkpt>
      <trkpt lat="48.048358038067818" lon="-1.448494037613273">
        <ele>61.659999999999997</ele>
        <time>2018-07-07T12:36:57Z</time>
      </trkpt>
      <trkpt lat="48.04881501942873" lon="-1.445325007662177">
        <ele>60.700000000000003</ele>
        <time>2018-07-07T12:37:07Z</time>
      </trkpt>
      <trkpt lat="48.049140991643071" lon="-1.442718990147114">
        <ele>55.890000000000001</ele>
        <time>2018-07-07T12:37:16Z</time>
      </trkpt>
      <trkpt lat="48.049823027104139" lon="-1.439920021221042">
        <ele>53.969999999999999</ele>
        <time>2018-07-07T12:37:26Z</time>
      </trkpt>
      <trkpt lat="48.050712011754513" lon="-1.436583017930389">
        <ele>55.890000000000001</ele>
        <time>2018-07-07T12:37:38Z</time>
      </trkpt>
      <trkpt lat="48.051688000559807" lon="-1.433702996000648">
        <ele>58.299999999999997</ele>
        <time>2018-07-07T12:37:49Z</time>
      </trkpt>
      <trkpt lat="48.052177000790834" lon="-1.43104299902916">
        <ele>62.140000000000001</ele>
        <time>2018-07-07T12:37:58Z</time>
      </trkpt>
      <trkpt lat="48.052965989336371" lon="-1.427896013483405">
        <ele>65.030000000000001</ele>
        <time>2018-07-07T12:38:09Z</time>
      </trkpt>
      <trkpt lat="48.053938038647175" lon="-1.423485958948731">
        <ele>71.269999999999996</ele>
        <time>2018-07-07T12:38:24Z</time>
      </trkpt>
      <trkpt lat="48.05440197698772" lon="-1.420148033648729">
        <ele>73.680000000000007</ele>
        <time>2018-07-07T12:38:35Z</time>
      </trkpt>
      <trkpt lat="48.054804978892207" lon="-1.416811030358076">
        <ele>79.450000000000003</ele>
        <time>2018-07-07T12:38:46Z</time>
      </trkpt>
      <trkpt lat="48.055697986856103" lon="-1.411678036674857">
        <ele>74.640000000000001</ele>
        <time>2018-07-07T12:39:03Z</time>
      </trkpt>
      <trkpt lat="48.056380022317171" lon="-1.407490018755198">
        <ele>75.120000000000005</ele>
        <time>2018-07-07T12:39:17Z</time>
      </trkpt>
      <trkpt lat="48.05663701146841" lon="-1.405695034191012">
        <ele>74.640000000000001</ele>
        <time>2018-07-07T12:39:23Z</time>
      </trkpt>
      <trkpt lat="48.056714041158557" lon="-1.40545497648418">
        <ele>74.640000000000001</ele>
        <time>2018-07-07T12:39:24Z</time>
      </trkpt>
      <trkpt lat="48.056796016171575" lon="-1.405220031738281">
        <ele>74.640000000000001</ele>
        <time>2018-07-07T12:39:25Z</time>
      </trkpt>
      <trkpt lat="48.056909004226327" lon="-1.405004030093551">
        <ele>74.640000000000001</ele>
        <time>2018-07-07T12:39:26Z</time>
      </trkpt>
      <trkpt lat="48.057029033079743" lon="-1.404776964336634">
        <ele>74.640000000000001</ele>
        <time>2018-07-07T12:39:27Z</time>
      </trkpt>
      <trkpt lat="48.05715199559927" lon="-1.404540007933974">
        <ele>74.640000000000001</ele>
        <time>2018-07-07T12:39:28Z</time>
      </trkpt>
      <trkpt lat="48.057277975603938" lon="-1.40427497215569">
        <ele>74.640000000000001</ele>
        <time>2018-07-07T12:39:29Z</time>
      </trkpt>
      <trkpt lat="48.057348970323801" lon="-1.403962997719646">
        <ele>74.159999999999997</ele>
        <time>2018-07-07T12:39:30Z</time>
      </trkpt>
      <trkpt lat="48.057863032445312" lon="-1.401654034852982">
        <ele>75.120000000000005</ele>
        <time>2018-07-07T12:39:38Z</time>
      </trkpt>
      <trkpt lat="48.058004016056657" lon="-1.400776030495763">
        <ele>75.120000000000005</ele>
        <time>2018-07-07T12:39:41Z</time>
      </trkpt>
      <trkpt lat="48.058019019663334" lon="-1.400473024696112">
        <ele>75.599999999999994</ele>
        <time>2018-07-07T12:39:42Z</time>
      </trkpt>
      <trkpt lat="48.058019019663334" lon="-1.400167001411319">
        <ele>76.079999999999998</ele>
        <time>2018-07-07T12:39:43Z</time>
      </trkpt>
      <trkpt lat="48.058004016056657" lon="-1.399861983954907">
        <ele>76.560000000000002</ele>
        <time>2018-07-07T12:39:44Z</time>
      </trkpt>
      <trkpt lat="48.057973003014922" lon="-1.399557972326875">
        <ele>77.519999999999996</ele>
        <time>2018-07-07T12:39:45Z</time>
      </trkpt>
      <trkpt lat="48.057851968333125" lon="-1.397907994687557">
        <ele>80.890000000000001</ele>
        <time>2018-07-07T12:39:51Z</time>
      </trkpt>
      <trkpt lat="48.057869989424944" lon="-1.397671960294247">
        <ele>80.890000000000001</ele>
        <time>2018-07-07T12:39:52Z</time>
      </trkpt>
      <trkpt lat="48.057933021336794" lon="-1.39744196087122">
        <ele>80.890000000000001</ele>
        <time>2018-07-07T12:39:53Z</time>
      </trkpt>
      <trkpt lat="48.057996975257993" lon="-1.397210033610463">
        <ele>81.370000000000005</ele>
        <time>2018-07-07T12:39:54Z</time>
      </trkpt>
      <trkpt lat="48.058094959706068" lon="-1.39700903557241">
        <ele>81.849999999999994</ele>
        <time>2018-07-07T12:39:55Z</time>
      </trkpt>
      <trkpt lat="48.058217000216246" lon="-1.396813988685608">
        <ele>81.849999999999994</ele>
        <time>2018-07-07T12:39:56Z</time>
      </trkpt>
      <trkpt lat="48.058342980220914" lon="-1.396612990647554">
        <ele>81.849999999999994</ele>
        <time>2018-07-07T12:39:57Z</time>
      </trkpt>
      <trkpt lat="48.058486981317401" lon="-1.396446023136377">
        <ele>81.849999999999994</ele>
        <time>2018-07-07T12:39:58Z</time>
      </trkpt>
      <trkpt lat="48.059191983193159" lon="-1.395523007959127">
        <ele>80.409999999999997</ele>
        <time>2018-07-07T12:40:03Z</time>
      </trkpt>
      <trkpt lat="48.05932198651135" lon="-1.395299965515733">
        <ele>79.930000000000007</ele>
        <time>2018-07-07T12:40:04Z</time>
      </trkpt>
      <trkpt lat="48.059433968737721" lon="-1.395045993849635">
        <ele>79.450000000000003</ele>
        <time>2018-07-07T12:40:05Z</time>
      </trkpt>
      <trkpt lat="48.059522984549403" lon="-1.394767966121435">
        <ele>78.969999999999999</ele>
        <time>2018-07-07T12:40:06Z</time>
      </trkpt>
      <trkpt lat="48.059613006189466" lon="-1.394483987241983">
        <ele>78.969999999999999</ele>
        <time>2018-07-07T12:40:07Z</time>
      </trkpt>
      <trkpt lat="48.060556976124644" lon="-1.391611006110907">
        <ele>77.519999999999996</ele>
        <time>2018-07-07T12:40:17Z</time>
      </trkpt>
      <trkpt lat="48.060982022434473" lon="-1.390447011217475">
        <ele>78</ele>
        <time>2018-07-07T12:40:23Z</time>
      </trkpt>
      <trkpt lat="48.061138009652495" lon="-1.390019031241536">
        <ele>78.969999999999999</ele>
        <time>2018-07-07T12:40:29Z</time>
      </trkpt>
      <trkpt lat="48.061152007430792" lon="-1.389978965744376">
        <ele>79.450000000000003</ele>
        <time>2018-07-07T12:40:30Z</time>
      </trkpt>
      <trkpt lat="48.061397010460496" lon="-1.389307994395495">
        <ele>80.409999999999997</ele>
        <time>2018-07-07T12:40:36Z</time>
      </trkpt>
      <trkpt lat="48.061959017068148" lon="-1.387765975669026">
        <ele>78</ele>
        <time>2018-07-07T12:40:43Z</time>
      </trkpt>
      <trkpt lat="48.062812965363264" lon="-1.38549498282373">
        <ele>74.159999999999997</ele>
        <time>2018-07-07T12:40:52Z</time>
      </trkpt>
      <trkpt lat="48.063228037208319" lon="-1.383979031816125">
        <ele>72.239999999999995</ele>
        <time>2018-07-07T12:40:58Z</time>
      </trkpt>
      <trkpt lat="48.063261983916163" lon="-1.383705027401447">
        <ele>72.239999999999995</ele>
        <time>2018-07-07T12:40:59Z</time>
      </trkpt>
      <trkpt lat="48.063475973904133" lon="-1.380437007173896">
        <ele>77.040000000000006</ele>
        <time>2018-07-07T12:41:10Z</time>
      </trkpt>
      <trkpt lat="48.063575970008969" lon="-1.376355020329356">
        <ele>86.180000000000007</ele>
        <time>2018-07-07T12:41:23Z</time>
      </trkpt>
      <trkpt lat="48.063323004171252" lon="-1.373179033398628">
        <ele>87.140000000000001</ele>
        <time>2018-07-07T12:41:33Z</time>
      </trkpt>
      <trkpt lat="48.063162993639708" lon="-1.369073996320367">
        <ele>87.620000000000005</ele>
        <time>2018-07-07T12:41:46Z</time>
      </trkpt>
      <trkpt lat="48.063263995572925" lon="-1.366084003821015">
        <ele>90.980000000000004</ele>
        <time>2018-07-07T12:41:57Z</time>
      </trkpt>
      <trkpt lat="48.063234994187951" lon="-1.365088988095522">
        <ele>92.420000000000002</ele>
        <time>2018-07-07T12:42:03Z</time>
      </trkpt>
      <trkpt lat="48.06323298253119" lon="-1.365029979497194">
        <ele>92.420000000000002</ele>
        <time>2018-07-07T12:42:04Z</time>
      </trkpt>
      <trkpt lat="48.063267013058066" lon="-1.364942975342274">
        <ele>92.420000000000002</ele>
        <time>2018-07-07T12:42:05Z</time>
      </trkpt>
      <trkpt lat="48.063292996957898" lon="-1.364874998107553">
        <ele>92.420000000000002</ele>
        <time>2018-07-07T12:42:06Z</time>
      </trkpt>
      <trkpt lat="48.06331898085773" lon="-1.364807020872831">
        <ele>92.420000000000002</ele>
        <time>2018-07-07T12:42:07Z</time>
      </trkpt>
      <trkpt lat="48.063323004171252" lon="-1.36467601172626">
        <ele>92.420000000000002</ele>
        <time>2018-07-07T12:42:08Z</time>
      </trkpt>
      <trkpt lat="48.063299031928182" lon="-1.364577021449804">
        <ele>92.420000000000002</ele>
        <time>2018-07-07T12:42:09Z</time>
      </trkpt>
      <trkpt lat="48.063266007229686" lon="-1.364442994818091">
        <ele>92.420000000000002</ele>
        <time>2018-07-07T12:42:10Z</time>
      </trkpt>
      <trkpt lat="48.063089987263083" lon="-1.363114966079593">
        <ele>90.980000000000004</ele>
        <time>2018-07-07T12:42:16Z</time>
      </trkpt>
      <trkpt lat="48.0629319883883" lon="-1.36012002825737">
        <ele>87.620000000000005</ele>
        <time>2018-07-07T12:42:26Z</time>
      </trkpt>
      <trkpt lat="48.062744988128543" lon="-1.355708967894316">
        <ele>83.290000000000006</ele>
        <time>2018-07-07T12:42:41Z</time>
      </trkpt>
      <trkpt lat="48.062925031408668" lon="-1.351206041872501">
        <ele>89.540000000000006</ele>
        <time>2018-07-07T12:42:56Z</time>
      </trkpt>
      <trkpt lat="48.063062997534871" lon="-1.346634970977902">
        <ele>90.019999999999996</ele>
        <time>2018-07-07T12:43:11Z</time>
      </trkpt>
      <trkpt lat="48.063104990869761" lon="-1.344469003379345">
        <ele>87.140000000000001</ele>
        <time>2018-07-07T12:43:19Z</time>
      </trkpt>
      <trkpt lat="48.063067020848393" lon="-1.343407016247511">
        <ele>86.180000000000007</ele>
        <time>2018-07-07T12:43:25Z</time>
      </trkpt>
      <trkpt lat="48.063047993928194" lon="-1.34327701292932">
        <ele>86.180000000000007</ele>
        <time>2018-07-07T12:43:26Z</time>
      </trkpt>
      <trkpt lat="48.062972975894809" lon="-1.343056987971067">
        <ele>85.689999999999998</ele>
        <time>2018-07-07T12:43:28Z</time>
      </trkpt>
      <trkpt lat="48.062941962853074" lon="-1.342977024614811">
        <ele>85.209999999999994</ele>
        <time>2018-07-07T12:43:29Z</time>
      </trkpt>
      <trkpt lat="48.062966018915176" lon="-1.342808967456222">
        <ele>85.209999999999994</ele>
        <time>2018-07-07T12:43:30Z</time>
      </trkpt>
      <trkpt lat="48.063011029735208" lon="-1.342789018526673">
        <ele>84.730000000000004</ele>
        <time>2018-07-07T12:43:31Z</time>
      </trkpt>
      <trkpt lat="48.063085963949561" lon="-1.342708971351385">
        <ele>84.25</ele>
        <time>2018-07-07T12:43:32Z</time>
      </trkpt>
      <trkpt lat="48.063091998919845" lon="-1.342595983296633">
        <ele>84.25</ele>
        <time>2018-07-07T12:43:33Z</time>
      </trkpt>
      <trkpt lat="48.063099961727858" lon="-1.34245902299881">
        <ele>84.25</ele>
        <time>2018-07-07T12:43:34Z</time>
      </trkpt>
      <trkpt lat="48.063101973384619" lon="-1.342295994982123">
        <ele>84.25</ele>
        <time>2018-07-07T12:43:35Z</time>
      </trkpt>
      <trkpt lat="48.063055034726858" lon="-1.340766968205571">
        <ele>86.180000000000007</ele>
        <time>2018-07-07T12:43:42Z</time>
      </trkpt>
      <trkpt lat="48.062957972288132" lon="-1.337635992094874">
        <ele>91.939999999999998</ele>
        <time>2018-07-07T12:43:53Z</time>
      </trkpt>
      <trkpt lat="48.062708023935556" lon="-1.333940997719765">
        <ele>91.459999999999994</ele>
        <time>2018-07-07T12:44:05Z</time>
      </trkpt>
      <trkpt lat="48.062512977048755" lon="-1.331146974116564">
        <ele>86.659999999999997</ele>
        <time>2018-07-07T12:44:14Z</time>
      </trkpt>
      <trkpt lat="48.062447011470795" lon="-1.329621970653534">
        <ele>85.209999999999994</ele>
        <time>2018-07-07T12:44:19Z</time>
      </trkpt>
      <trkpt lat="48.062446005642414" lon="-1.329326005652547">
        <ele>85.209999999999994</ele>
        <time>2018-07-07T12:44:20Z</time>
      </trkpt>
      <trkpt lat="48.062469977885485" lon="-1.329024005681276">
        <ele>85.689999999999998</ele>
        <time>2018-07-07T12:44:21Z</time>
      </trkpt>
      <trkpt lat="48.062971970066428" lon="-1.325402017682791">
        <ele>87.140000000000001</ele>
        <time>2018-07-07T12:44:33Z</time>
      </trkpt>
      <trkpt lat="48.063044976443052" lon="-1.325117032974958">
        <ele>87.620000000000005</ele>
        <time>2018-07-07T12:44:34Z</time>
      </trkpt>
      <trkpt lat="48.063142038881779" lon="-1.324849985539913">
        <ele>87.620000000000005</ele>
        <time>2018-07-07T12:44:35Z</time>
      </trkpt>
      <trkpt lat="48.063265001401305" lon="-1.324604982510209">
        <ele>88.099999999999994</ele>
        <time>2018-07-07T12:44:36Z</time>
      </trkpt>
      <trkpt lat="48.063393998891115" lon="-1.32436903193593">
        <ele>88.099999999999994</ele>
        <time>2018-07-07T12:44:37Z</time>
      </trkpt>
      <trkpt lat="48.063535988330841" lon="-1.324144983664155">
        <ele>88.579999999999998</ele>
        <time>2018-07-07T12:44:38Z</time>
      </trkpt>
      <trkpt lat="48.065011035650969" lon="-1.321564028039575">
        <ele>90.5</ele>
        <time>2018-07-07T12:44:49Z</time>
      </trkpt>
      <trkpt lat="48.066205959767103" lon="-1.319020036607981">
        <ele>91.459999999999994</ele>
        <time>2018-07-07T12:44:59Z</time>
      </trkpt>
      <trkpt lat="48.066939041018486" lon="-1.316820960491896">
        <ele>93.870000000000005</ele>
        <time>2018-07-07T12:45:07Z</time>
      </trkpt>
      <trkpt lat="48.067717971280217" lon="-1.313075004145503">
        <ele>99.629999999999995</ele>
        <time>2018-07-07T12:45:20Z</time>
      </trkpt>
      <trkpt lat="48.068079985678196" lon="-1.309835985302925">
        <ele>102.52</ele>
        <time>2018-07-07T12:45:32Z</time>
      </trkpt>
      <trkpt lat="48.068105969578028" lon="-1.308004958555102">
        <ele>102.52</ele>
        <time>2018-07-07T12:45:38Z</time>
      </trkpt>
      <trkpt lat="48.068254999816418" lon="-1.305323000997305">
        <ele>100.59999999999999</ele>
        <time>2018-07-07T12:45:47Z</time>
      </trkpt>
      <trkpt lat="48.068664958700538" lon="-1.301634963601828">
        <ele>97.709999999999994</ele>
        <time>2018-07-07T12:46:00Z</time>
      </trkpt>
      <trkpt lat="48.069311035797" lon="-1.297505032271147">
        <ele>95.790000000000006</ele>
        <time>2018-07-07T12:46:14Z</time>
      </trkpt>
      <trkpt lat="48.069987958297133" lon="-1.29360199905932">
        <ele>90.980000000000004</ele>
        <time>2018-07-07T12:46:27Z</time>
      </trkpt>
      <trkpt lat="48.070351984351873" lon="-1.290275976061821">
        <ele>88.099999999999994</ele>
        <time>2018-07-07T12:46:38Z</time>
      </trkpt>
      <trkpt lat="48.070318037644029" lon="-1.287602987140417">
        <ele>83.769999999999996</ele>
        <time>2018-07-07T12:46:47Z</time>
      </trkpt>
      <trkpt lat="48.070351984351873" lon="-1.287313979119062">
        <ele>83.290000000000006</ele>
        <time>2018-07-07T12:46:48Z</time>
      </trkpt>
      <trkpt lat="48.0706010106951" lon="-1.284808041527867">
        <ele>82.329999999999998</ele>
        <time>2018-07-07T12:46:57Z</time>
      </trkpt>
      <trkpt lat="48.070791028439999" lon="-1.282560015097261">
        <ele>83.769999999999996</ele>
        <time>2018-07-07T12:47:06Z</time>
      </trkpt>
      <trkpt lat="48.070932012051344" lon="-1.281268028542399">
        <ele>83.769999999999996</ele>
        <time>2018-07-07T12:47:13Z</time>
      </trkpt>
      <trkpt lat="48.070926982909441" lon="-1.281165014952421">
        <ele>83.769999999999996</ele>
        <time>2018-07-07T12:47:14Z</time>
      </trkpt>
      <trkpt lat="48.070922959595919" lon="-1.281083961948752">
        <ele>83.769999999999996</ele>
        <time>2018-07-07T12:47:15Z</time>
      </trkpt>
      <trkpt lat="48.070920025929809" lon="-1.281016990542412">
        <ele>83.769999999999996</ele>
        <time>2018-07-07T12:47:16Z</time>
      </trkpt>
      <trkpt lat="48.070914996787906" lon="-1.280915988609195">
        <ele>83.769999999999996</ele>
        <time>2018-07-07T12:47:17Z</time>
      </trkpt>
      <trkpt lat="48.070914996787906" lon="-1.280913976952434">
        <ele>83.769999999999996</ele>
        <time>2018-07-07T12:47:18Z</time>
      </trkpt>
      <trkpt lat="48.070894964039326" lon="-1.280848011374474">
        <ele>83.769999999999996</ele>
        <time>2018-07-07T12:47:26Z</time>
      </trkpt>
      <trkpt lat="48.070865040645003" lon="-1.280748015269637">
        <ele>83.769999999999996</ele>
        <time>2018-07-07T12:47:34Z</time>
      </trkpt>
      <trkpt lat="48.070850959047675" lon="-1.280700992792845">
        <ele>84.25</ele>
        <time>2018-07-07T12:47:35Z</time>
      </trkpt>
      <trkpt lat="48.07088197208941" lon="-1.280610971152782">
        <ele>84.25</ele>
        <time>2018-07-07T12:47:36Z</time>
      </trkpt>
      <trkpt lat="48.070922959595919" lon="-1.280491026118398">
        <ele>83.769999999999996</ele>
        <time>2018-07-07T12:47:37Z</time>
      </trkpt>
      <trkpt lat="48.070969982072711" lon="-1.280353982001543">
        <ele>83.769999999999996</ele>
        <time>2018-07-07T12:47:38Z</time>
      </trkpt>
      <trkpt lat="48.07143802754581" lon="-1.278984965756536">
        <ele>83.290000000000006</ele>
        <time>2018-07-07T12:47:47Z</time>
      </trkpt>
      <trkpt lat="48.07148496620357" lon="-1.278854040428996">
        <ele>83.769999999999996</ele>
        <time>2018-07-07T12:47:48Z</time>
      </trkpt>
      <trkpt lat="48.071515979245305" lon="-1.27864801324904">
        <ele>83.769999999999996</ele>
        <time>2018-07-07T12:47:49Z</time>
      </trkpt>
      <trkpt lat="48.071473985910416" lon="-1.278537036851049">
        <ele>83.769999999999996</ele>
        <time>2018-07-07T12:47:50Z</time>
      </trkpt>
      <trkpt lat="48.071430986747146" lon="-1.278422959148884">
        <ele>84.25</ele>
        <time>2018-07-07T12:47:51Z</time>
      </trkpt>
      <trkpt lat="48.071386981755495" lon="-1.278303014114499">
        <ele>84.25</ele>
        <time>2018-07-07T12:47:52Z</time>
      </trkpt>
      <trkpt lat="48.071285979822278" lon="-1.278034960851073">
        <ele>84.730000000000004</ele>
        <time>2018-07-07T12:47:54Z</time>
      </trkpt>
      <trkpt lat="48.071259995922446" lon="-1.27787402831018">
        <ele>85.209999999999994</ele>
        <time>2018-07-07T12:47:55Z</time>
      </trkpt>
      <trkpt lat="48.071236023679376" lon="-1.277693985030055">
        <ele>85.209999999999994</ele>
        <time>2018-07-07T12:47:56Z</time>
      </trkpt>
      <trkpt lat="48.071212973445654" lon="-1.277505978941917">
        <ele>85.209999999999994</ele>
        <time>2018-07-07T12:47:57Z</time>
      </trkpt>
      <trkpt lat="48.071200987324119" lon="-1.277302969247103">
        <ele>85.689999999999998</ele>
        <time>2018-07-07T12:47:58Z</time>
      </trkpt>
      <trkpt lat="48.071042988449335" lon="-1.274718996137381">
        <ele>88.099999999999994</ele>
        <time>2018-07-07T12:48:09Z</time>
      </trkpt>
      <trkpt lat="48.07085900567472" lon="-1.271910974755883">
        <ele>89.540000000000006</ele>
        <time>2018-07-07T12:48:21Z</time>
      </trkpt>
      <trkpt lat="48.070572009310126" lon="-1.268642032518983">
        <ele>88.579999999999998</ele>
        <time>2018-07-07T12:48:33Z</time>
      </trkpt>
      <trkpt lat="48.070118967443705" lon="-1.265676012262702">
        <ele>84.730000000000004</ele>
        <time>2018-07-07T12:48:43Z</time>
      </trkpt>
      <trkpt lat="48.069837000221014" lon="-1.262474041432142">
        <ele>83.290000000000006</ele>
        <time>2018-07-07T12:48:54Z</time>
      </trkpt>
      <trkpt lat="48.069718983024359" lon="-1.259268969297409">
        <ele>84.25</ele>
        <time>2018-07-07T12:49:05Z</time>
      </trkpt>
      <trkpt lat="48.069343976676464" lon="-1.256381990388036">
        <ele>86.180000000000007</ele>
        <time>2018-07-07T12:49:15Z</time>
      </trkpt>
      <trkpt lat="48.068923959508538" lon="-1.250821016728878">
        <ele>95.310000000000002</ele>
        <time>2018-07-07T12:49:34Z</time>
      </trkpt>
      <trkpt lat="48.068519029766321" lon="-1.248222962021828">
        <ele>97.709999999999994</ele>
        <time>2018-07-07T12:49:43Z</time>
      </trkpt>
      <trkpt lat="48.068086020648479" lon="-1.245987005531788">
        <ele>99.150000000000006</ele>
        <time>2018-07-07T12:49:52Z</time>
      </trkpt>
      <trkpt lat="48.068060036748648" lon="-1.245855996385217">
        <ele>99.629999999999995</ele>
        <time>2018-07-07T12:49:53Z</time>
      </trkpt>
      <trkpt lat="48.068042015656829" lon="-1.245761029422283">
        <ele>99.150000000000006</ele>
        <time>2018-07-07T12:49:54Z</time>
      </trkpt>
      <trkpt lat="48.068029023706913" lon="-1.245694980025291">
        <ele>99.150000000000006</ele>
        <time>2018-07-07T12:49:55Z</time>
      </trkpt>
      <trkpt lat="48.068019971251488" lon="-1.24564996920526">
        <ele>99.150000000000006</ele>
        <time>2018-07-07T12:49:56Z</time>
      </trkpt>
      <trkpt lat="48.067923998460174" lon="-1.245616022497416">
        <ele>99.150000000000006</ele>
        <time>2018-07-07T12:49:57Z</time>
      </trkpt>
      <trkpt lat="48.067885022610426" lon="-1.245660027489066">
        <ele>98.670000000000002</ele>
        <time>2018-07-07T12:49:58Z</time>
      </trkpt>
      <trkpt lat="48.067824002355337" lon="-1.245729010552168">
        <ele>98.670000000000002</ele>
        <time>2018-07-07T12:49:59Z</time>
      </trkpt>
      <trkpt lat="48.067749990150332" lon="-1.245814003050327">
        <ele>98.670000000000002</ele>
        <time>2018-07-07T12:50:00Z</time>
      </trkpt>
      <trkpt lat="48.067666003480554" lon="-1.245900001376867">
        <ele>98.189999999999998</ele>
        <time>2018-07-07T12:50:01Z</time>
      </trkpt>
      <trkpt lat="48.067341959103942" lon="-1.24616201967001">
        <ele>98.670000000000002</ele>
        <time>2018-07-07T12:50:04Z</time>
      </trkpt>
      <trkpt lat="48.067214973270893" lon="-1.24624902382493">
        <ele>98.670000000000002</ele>
        <time>2018-07-07T12:50:05Z</time>
      </trkpt>
      <trkpt lat="48.067068038508296" lon="-1.246290011331439">
        <ele>98.670000000000002</ele>
        <time>2018-07-07T12:50:06Z</time>
      </trkpt>
      <trkpt lat="48.065693993121386" lon="-1.246277019381523">
        <ele>100.11</ele>
        <time>2018-07-07T12:50:14Z</time>
      </trkpt>
      <trkpt lat="48.063317975029349" lon="-1.246018018573523">
        <ele>102.04000000000001</ele>
        <time>2018-07-07T12:50:26Z</time>
      </trkpt>
      <trkpt lat="48.062941962853074" lon="-1.246031010523439">
        <ele>101.56</ele>
        <time>2018-07-07T12:50:28Z</time>
      </trkpt>
      <trkpt lat="48.062767032533884" lon="-1.246112985536456">
        <ele>101.56</ele>
        <time>2018-07-07T12:50:29Z</time>
      </trkpt>
      <trkpt lat="48.061348982155323" lon="-1.246767025440931">
        <ele>100.11</ele>
        <time>2018-07-07T12:50:37Z</time>
      </trkpt>
      <trkpt lat="48.061195006594062" lon="-1.24680700711906">
        <ele>99.629999999999995</ele>
        <time>2018-07-07T12:50:38Z</time>
      </trkpt>
      <trkpt lat="48.061041031032801" lon="-1.246841037645936">
        <ele>99.629999999999995</ele>
        <time>2018-07-07T12:50:39Z</time>
      </trkpt>
      <trkpt lat="48.060878003016114" lon="-1.246819999068975">
        <ele>99.150000000000006</ele>
        <time>2018-07-07T12:50:40Z</time>
      </trkpt>
      <trkpt lat="48.060705000534654" lon="-1.246773982420564">
        <ele>99.150000000000006</ele>
        <time>2018-07-07T12:50:41Z</time>
      </trkpt>
      <trkpt lat="48.0605230294168" lon="-1.246726037934423">
        <ele>99.150000000000006</ele>
        <time>2018-07-07T12:50:42Z</time>
      </trkpt>
      <trkpt lat="48.05904203094542" lon="-1.246256986632943">
        <ele>102.52</ele>
        <time>2018-07-07T12:50:50Z</time>
      </trkpt>
      <trkpt lat="48.058157991617918" lon="-1.246041990816593">
        <ele>103.48</ele>
        <time>2018-07-07T12:50:55Z</time>
      </trkpt>
      <trkpt lat="48.057991024106741" lon="-1.246036039665341">
        <ele>103.48</ele>
        <time>2018-07-07T12:50:56Z</time>
      </trkpt>
      <trkpt lat="48.056430984288454" lon="-1.246110973879695">
        <ele>102.04000000000001</ele>
        <time>2018-07-07T12:51:04Z</time>
      </trkpt>
      <trkpt lat="48.054739013314247" lon="-1.245522983372212">
        <ele>105.88</ele>
        <time>2018-07-07T12:51:12Z</time>
      </trkpt>
      <trkpt lat="48.053375026211143" lon="-1.244859974831343">
        <ele>109.73</ele>
        <time>2018-07-07T12:51:20Z</time>
      </trkpt>
      <trkpt lat="48.05218999274075" lon="-1.243905024603009">
        <ele>107.81</ele>
        <time>2018-07-07T12:51:28Z</time>
      </trkpt>
      <trkpt lat="48.051349958404899" lon="-1.242944039404392">
        <ele>105.88</ele>
        <time>2018-07-07T12:51:34Z</time>
      </trkpt>
      <trkpt lat="48.051196988672018" lon="-1.242808001115918">
        <ele>105.88</ele>
        <time>2018-07-07T12:51:35Z</time>
      </trkpt>
      <trkpt lat="48.051030021160841" lon="-1.242724014446139">
        <ele>105.40000000000001</ele>
        <time>2018-07-07T12:51:36Z</time>
      </trkpt>
      <trkpt lat="48.050862969830632" lon="-1.242640027776361">
        <ele>105.40000000000001</ele>
        <time>2018-07-07T12:51:37Z</time>
      </trkpt>
      <trkpt lat="48.050692984834313" lon="-1.242556041106582">
        <ele>105.40000000000001</ele>
        <time>2018-07-07T12:51:38Z</time>
      </trkpt>
      <trkpt lat="48.048587031662464" lon="-1.241520037874579">
        <ele>105.40000000000001</ele>
        <time>2018-07-07T12:51:51Z</time>
      </trkpt>
      <trkpt lat="48.04731298238039" lon="-1.240686038509011">
        <ele>103</ele>
        <time>2018-07-07T12:52:01Z</time>
      </trkpt>
      <trkpt lat="48.046863963827491" lon="-1.240390995517373">
        <ele>102.52</ele>
        <time>2018-07-07T12:52:08Z</time>
      </trkpt>
      <trkpt lat="48.04683898575604" lon="-1.240374986082315">
        <ele>102.52</ele>
        <time>2018-07-07T12:52:11Z</time>
      </trkpt>
      <trkpt lat="48.046844014897943" lon="-1.240321006625891">
        <ele>102.52</ele>
        <time>2018-07-07T12:52:12Z</time>
      </trkpt>
      <trkpt lat="48.04688198491931" lon="-1.240263003855944">
        <ele>102.52</ele>
        <time>2018-07-07T12:52:13Z</time>
      </trkpt>
      <trkpt lat="48.046933030709624" lon="-1.240183962509036">
        <ele>103</ele>
        <time>2018-07-07T12:52:14Z</time>
      </trkpt>
      <trkpt lat="48.046992039307952" lon="-1.240092013031244">
        <ele>103.48</ele>
        <time>2018-07-07T12:52:15Z</time>
      </trkpt>
      <trkpt lat="48.047543987631798" lon="-1.239280980080366">
        <ele>106.36</ele>
        <time>2018-07-07T12:52:21Z</time>
      </trkpt>
      <trkpt lat="48.048620978370309" lon="-1.23761398717761">
        <ele>109.25</ele>
        <time>2018-07-07T12:52:29Z</time>
      </trkpt>
      <trkpt lat="48.049244005233049" lon="-1.235702997073531">
        <ele>108.77</ele>
        <time>2018-07-07T12:52:36Z</time>
      </trkpt>
      <trkpt lat="48.049506023526192" lon="-1.23335899785161">
        <ele>108.29000000000001</ele>
        <time>2018-07-07T12:52:44Z</time>
      </trkpt>
      <trkpt lat="48.049854962155223" lon="-1.230160966515541">
        <ele>108.77</ele>
        <time>2018-07-07T12:52:55Z</time>
      </trkpt>
      <trkpt lat="48.050207002088428" lon="-1.226937035098672">
        <ele>109.73</ele>
        <time>2018-07-07T12:53:06Z</time>
      </trkpt>
      <trkpt lat="48.050423003733158" lon="-1.22345301322639">
        <ele>107.81</ele>
        <time>2018-07-07T12:53:18Z</time>
      </trkpt>
      <trkpt lat="48.05032099597156" lon="-1.217837976291776">
        <ele>105.88</ele>
        <time>2018-07-07T12:53:37Z</time>
      </trkpt>
      <trkpt lat="48.049959987401962" lon="-1.213458012789488">
        <ele>103.95999999999999</ele>
        <time>2018-07-07T12:53:52Z</time>
      </trkpt>
      <trkpt lat="48.049741974100471" lon="-1.208438007161021">
        <ele>104.92</ele>
        <time>2018-07-07T12:54:09Z</time>
      </trkpt>
      <trkpt lat="48.049542987719178" lon="-1.203303001821041">
        <ele>107.81</ele>
        <time>2018-07-07T12:54:27Z</time>
      </trkpt>
      <trkpt lat="48.049495965242386" lon="-1.203083982691169">
        <ele>107.81</ele>
        <time>2018-07-07T12:54:28Z</time>
      </trkpt>
      <trkpt lat="48.049457995221019" lon="-1.202905029058456">
        <ele>107.81</ele>
        <time>2018-07-07T12:54:29Z</time>
      </trkpt>
      <trkpt lat="48.049420025199652" lon="-1.202729009091854">
        <ele>107.81</ele>
        <time>2018-07-07T12:54:30Z</time>
      </trkpt>
      <trkpt lat="48.049350036308169" lon="-1.202572016045451">
        <ele>107.81</ele>
        <time>2018-07-07T12:54:31Z</time>
      </trkpt>
      <trkpt lat="48.049274012446404" lon="-1.2024209741503">
        <ele>107.81</ele>
        <time>2018-07-07T12:54:32Z</time>
      </trkpt>
      <trkpt lat="48.049196982756257" lon="-1.202268004417419">
        <ele>107.81</ele>
        <time>2018-07-07T12:54:33Z</time>
      </trkpt>
      <trkpt lat="48.049118025228381" lon="-1.202108999714255">
        <ele>107.31999999999999</ele>
        <time>2018-07-07T12:54:34Z</time>
      </trkpt>
      <trkpt lat="48.048954997211695" lon="-1.201783027499914">
        <ele>106.84</ele>
        <time>2018-07-07T12:54:36Z</time>
      </trkpt>
      <trkpt lat="48.048906968906522" lon="-1.201615976169705">
        <ele>106.84</ele>
        <time>2018-07-07T12:54:37Z</time>
      </trkpt>
      <trkpt lat="48.048879979178309" lon="-1.201435010880232">
        <ele>106.36</ele>
        <time>2018-07-07T12:54:38Z</time>
      </trkpt>
      <trkpt lat="48.048853995278478" lon="-1.201256979256868">
        <ele>106.84</ele>
        <time>2018-07-07T12:54:39Z</time>
      </trkpt>
      <trkpt lat="48.048831028863788" lon="-1.201093029230833">
        <ele>106.84</ele>
        <time>2018-07-07T12:54:40Z</time>
      </trkpt>
      <trkpt lat="48.048791969195008" lon="-1.200826987624168">
        <ele>106.84</ele>
        <time>2018-07-07T12:54:42Z</time>
      </trkpt>
      <trkpt lat="48.048775959759951" lon="-1.2007200345397">
        <ele>107.31999999999999</ele>
        <time>2018-07-07T12:54:43Z</time>
      </trkpt>
      <trkpt lat="48.048642016947269" lon="-1.200663959607482">
        <ele>107.31999999999999</ele>
        <time>2018-07-07T12:54:44Z</time>
      </trkpt>
      <trkpt lat="48.048590971156955" lon="-1.200595982372761">
        <ele>106.84</ele>
        <time>2018-07-07T12:54:45Z</time>
      </trkpt>
      <trkpt lat="48.048504972830415" lon="-1.200414011254907">
        <ele>106.84</ele>
        <time>2018-07-07T12:54:46Z</time>
      </trkpt>
      <trkpt lat="48.048401037231088" lon="-1.200428009033203">
        <ele>106.36</ele>
        <time>2018-07-07T12:54:47Z</time>
      </trkpt>
      <trkpt lat="48.04827899672091" lon="-1.200441000983119">
        <ele>105.88</ele>
        <time>2018-07-07T12:54:48Z</time>
      </trkpt>
      <trkpt lat="48.048143964260817" lon="-1.200453992933035">
        <ele>105.88</ele>
        <time>2018-07-07T12:54:49Z</time>
      </trkpt>
      <trkpt lat="48.04649499244988" lon="-1.200591959059238">
        <ele>104.44</ele>
        <time>2018-07-07T12:55:00Z</time>
      </trkpt>
      <trkpt lat="48.046351997181773" lon="-1.200600005686283">
        <ele>103.95999999999999</ele>
        <time>2018-07-07T12:55:02Z</time>
      </trkpt>
      <trkpt lat="48.04482196457684" lon="-1.200620960444212">
        <ele>102.04000000000001</ele>
        <time>2018-07-07T12:55:10Z</time>
      </trkpt>
      <trkpt lat="48.042549965903163" lon="-1.200772002339363">
        <ele>98.670000000000002</ele>
        <time>2018-07-07T12:55:21Z</time>
      </trkpt>
      <trkpt lat="48.040001029148698" lon="-1.200879961252213">
        <ele>99.150000000000006</ele>
        <time>2018-07-07T12:55:34Z</time>
      </trkpt>
      <trkpt lat="48.037831960245967" lon="-1.200986998155713">
        <ele>103.48</ele>
        <time>2018-07-07T12:55:45Z</time>
      </trkpt>
      <trkpt lat="48.035071967169642" lon="-1.201082970947027">
        <ele>109.25</ele>
        <time>2018-07-07T12:55:59Z</time>
      </trkpt>
      <trkpt lat="48.034680029377341" lon="-1.201036032289267">
        <ele>110.20999999999999</ele>
        <time>2018-07-07T12:56:01Z</time>
      </trkpt>
      <trkpt lat="48.034490011632442" lon="-1.200960008427501">
        <ele>110.69</ele>
        <time>2018-07-07T12:56:02Z</time>
      </trkpt>
      <trkpt lat="48.034298988059163" lon="-1.200883984565735">
        <ele>111.17</ele>
        <time>2018-07-07T12:56:03Z</time>
      </trkpt>
      <trkpt lat="48.030879003927112" lon="-1.19926099665463">
        <ele>110.20999999999999</ele>
        <time>2018-07-07T12:56:21Z</time>
      </trkpt>
      <trkpt lat="48.027894040569663" lon="-1.197723001241684">
        <ele>107.31999999999999</ele>
        <time>2018-07-07T12:56:37Z</time>
      </trkpt>
      <trkpt lat="48.02468997426331" lon="-1.196205038577318">
        <ele>108.77</ele>
        <time>2018-07-07T12:56:54Z</time>
      </trkpt>
      <trkpt lat="48.022181019186974" lon="-1.195408003404737">
        <ele>109.25</ele>
        <time>2018-07-07T12:57:07Z</time>
      </trkpt>
      <trkpt lat="48.020212026312947" lon="-1.195098040625453">
        <ele>110.20999999999999</ele>
        <time>2018-07-07T12:57:17Z</time>
      </trkpt>
      <trkpt lat="48.01865098066628" lon="-1.195499030873179">
        <ele>106.84</ele>
        <time>2018-07-07T12:57:25Z</time>
      </trkpt>
      <trkpt lat="48.0160509981215" lon="-1.196955973282456">
        <ele>100.11</ele>
        <time>2018-07-07T12:57:39Z</time>
      </trkpt>
      <trkpt lat="48.013522010296583" lon="-1.198392966762185">
        <ele>98.189999999999998</ele>
        <time>2018-07-07T12:57:53Z</time>
      </trkpt>
      <trkpt lat="48.011271972209215" lon="-1.199705991894007">
        <ele>98.189999999999998</ele>
        <time>2018-07-07T12:58:07Z</time>
      </trkpt>
      <trkpt lat="48.009237013757229" lon="-1.200427003204823">
        <ele>98.670000000000002</ele>
        <time>2018-07-07T12:58:19Z</time>
      </trkpt>
      <trkpt lat="48.006905000656843" lon="-1.20106696151197">
        <ele>102.52</ele>
        <time>2018-07-07T12:58:31Z</time>
      </trkpt>
      <trkpt lat="48.004318010061979" lon="-1.201096968725324">
        <ele>103.48</ele>
        <time>2018-07-07T12:58:44Z</time>
      </trkpt>
      <trkpt lat="48.000338030979037" lon="-1.201079031452537">
        <ele>104.44</ele>
        <time>2018-07-07T12:59:04Z</time>
      </trkpt>
      <trkpt lat="47.997770989313722" lon="-1.201286986470223">
        <ele>103.48</ele>
        <time>2018-07-07T12:59:17Z</time>
      </trkpt>
      <trkpt lat="47.994218990206718" lon="-1.201914958655834">
        <ele>102.04000000000001</ele>
        <time>2018-07-07T12:59:35Z</time>
      </trkpt>
      <trkpt lat="47.991701988503337" lon="-1.202660026028752">
        <ele>95.310000000000002</ele>
        <time>2018-07-07T12:59:48Z</time>
      </trkpt>
      <trkpt lat="47.988824984058738" lon="-1.203770041465759">
        <ele>87.620000000000005</ele>
        <time>2018-07-07T13:00:03Z</time>
      </trkpt>
      <trkpt lat="47.987051038071513" lon="-1.204083021730185">
        <ele>83.769999999999996</ele>
        <time>2018-07-07T13:00:12Z</time>
      </trkpt>
      <trkpt lat="47.984304036945105" lon="-1.203841958194971">
        <ele>86.180000000000007</ele>
        <time>2018-07-07T13:00:26Z</time>
      </trkpt>
      <trkpt lat="47.98154597170651" lon="-1.203381037339568">
        <ele>91.459999999999994</ele>
        <time>2018-07-07T13:00:40Z</time>
      </trkpt>
      <trkpt lat="47.978390017524362" lon="-1.203195964917541">
        <ele>94.829999999999998</ele>
        <time>2018-07-07T13:00:56Z</time>
      </trkpt>
      <trkpt lat="47.975222999230027" lon="-1.203181967139244">
        <ele>97.230000000000004</ele>
        <time>2018-07-07T13:01:12Z</time>
      </trkpt>
      <trkpt lat="47.972440039739013" lon="-1.20319495908916">
        <ele>96.75</ele>
        <time>2018-07-07T13:01:26Z</time>
      </trkpt>
      <trkpt lat="47.970872037112713" lon="-1.203606007620692">
        <ele>90.980000000000004</ele>
        <time>2018-07-07T13:01:34Z</time>
      </trkpt>
      <trkpt lat="47.969014020636678" lon="-1.204593982547522">
        <ele>82.329999999999998</ele>
        <time>2018-07-07T13:01:44Z</time>
      </trkpt>
      <trkpt lat="47.967425985261798" lon="-1.205782033503056">
        <ele>78.969999999999999</ele>
        <time>2018-07-07T13:01:53Z</time>
      </trkpt>
      <trkpt lat="47.96448603272438" lon="-1.208233991637826">
        <ele>76.560000000000002</ele>
        <time>2018-07-07T13:02:10Z</time>
      </trkpt>
      <trkpt lat="47.962445039302111" lon="-1.210050014778972">
        <ele>68.390000000000001</ele>
        <time>2018-07-07T13:02:22Z</time>
      </trkpt>
      <trkpt lat="47.960582999512553" lon="-1.211726982146502">
        <ele>63.579999999999998</ele>
        <time>2018-07-07T13:02:33Z</time>
      </trkpt>
      <trkpt lat="47.958217039704323" lon="-1.213808041065931">
        <ele>67.430000000000007</ele>
        <time>2018-07-07T13:02:47Z</time>
      </trkpt>
      <trkpt lat="47.956002959981561" lon="-1.215749038383365">
        <ele>70.790000000000006</ele>
        <time>2018-07-07T13:03:00Z</time>
      </trkpt>
      <trkpt lat="47.953623002395034" lon="-1.21786898933351">
        <ele>83.290000000000006</ele>
        <time>2018-07-07T13:03:14Z</time>
      </trkpt>
      <trkpt lat="47.952490020543337" lon="-1.219518966972828">
        <ele>84.730000000000004</ele>
        <time>2018-07-07T13:03:22Z</time>
      </trkpt>
      <trkpt lat="47.951864982023835" lon="-1.221375977620482">
        <ele>85.209999999999994</ele>
        <time>2018-07-07T13:03:29Z</time>
      </trkpt>
      <trkpt lat="47.951556025072932" lon="-1.223402973264456">
        <ele>80.890000000000001</ele>
        <time>2018-07-07T13:03:37Z</time>
      </trkpt>
      <trkpt lat="47.951455023139715" lon="-1.2248529586941">
        <ele>77.040000000000006</ele>
        <time>2018-07-07T13:03:45Z</time>
      </trkpt>
      <trkpt lat="47.951447982341051" lon="-1.224961001425982">
        <ele>76.560000000000002</ele>
        <time>2018-07-07T13:03:46Z</time>
      </trkpt>
      <trkpt lat="47.951441025361419" lon="-1.225059991702437">
        <ele>76.079999999999998</ele>
        <time>2018-07-07T13:03:47Z</time>
      </trkpt>
      <trkpt lat="47.951482012867928" lon="-1.225212039425969">
        <ele>75.599999999999994</ele>
        <time>2018-07-07T13:03:48Z</time>
      </trkpt>
      <trkpt lat="47.951482012867928" lon="-1.225253026932478">
        <ele>75.599999999999994</ele>
        <time>2018-07-07T13:03:49Z</time>
      </trkpt>
      <trkpt lat="47.951482012867928" lon="-1.225350005552173">
        <ele>75.599999999999994</ele>
        <time>2018-07-07T13:03:50Z</time>
      </trkpt>
      <trkpt lat="47.9514230042696" lon="-1.225442038848996">
        <ele>75.599999999999994</ele>
        <time>2018-07-07T13:03:51Z</time>
      </trkpt>
      <trkpt lat="47.951374975964427" lon="-1.225490989163518">
        <ele>75.120000000000005</ele>
        <time>2018-07-07T13:03:52Z</time>
      </trkpt>
      <trkpt lat="47.951330970972776" lon="-1.22564597055316">
        <ele>75.120000000000005</ele>
        <time>2018-07-07T13:03:53Z</time>
      </trkpt>
      <trkpt lat="47.951295012608171" lon="-1.225773962214589">
        <ele>75.120000000000005</ele>
        <time>2018-07-07T13:03:54Z</time>
      </trkpt>
      <trkpt lat="47.951256036758423" lon="-1.225911006331444">
        <ele>75.120000000000005</ele>
        <time>2018-07-07T13:03:55Z</time>
      </trkpt>
      <trkpt lat="47.951215971261263" lon="-1.22605299577117">
        <ele>75.120000000000005</ele>
        <time>2018-07-07T13:03:56Z</time>
      </trkpt>
    </trkseg>
  </trk>

  <trk>
    <name>Track vom: 2018-07-07 15:03</name>
    <extensions>
      <gpxx:TrackExtension>
        <gpxx:DisplayColor>DarkGray</gpxx:DisplayColor>
      </gpxx:TrackExtension>
    </extensions>
    <trkseg>
      <trkpt lat="47.951154028996825" lon="-1.226509977132082">
        <ele>75.120000000000005</ele>
        <time>2018-07-07T13:03:59Z</time>
      </trkpt>
      <trkpt lat="47.951141037046909" lon="-1.226673005148768">
        <ele>75.599999999999994</ele>
        <time>2018-07-07T13:04:00Z</time>
      </trkpt>
      <trkpt lat="47.951127039268613" lon="-1.226841984316707">
        <ele>75.599999999999994</ele>
        <time>2018-07-07T13:04:01Z</time>
      </trkpt>
      <trkpt lat="47.950983038172126" lon="-1.228887001052499">
        <ele>74.159999999999997</ele>
        <time>2018-07-07T13:04:13Z</time>
      </trkpt>
      <trkpt lat="47.950877007097006" lon="-1.230635968968272">
        <ele>72.239999999999995</ele>
        <time>2018-07-07T13:04:22Z</time>
      </trkpt>
      <trkpt lat="47.950747003778815" lon="-1.232830015942454">
        <ele>70.790000000000006</ele>
        <time>2018-07-07T13:04:32Z</time>
      </trkpt>
      <trkpt lat="47.950651030987501" lon="-1.235340982675552">
        <ele>70.790000000000006</ele>
        <time>2018-07-07T13:04:40Z</time>
      </trkpt>
      <trkpt lat="47.950440980494022" lon="-1.239166986197233">
        <ele>76.079999999999998</ele>
        <time>2018-07-07T13:04:51Z</time>
      </trkpt>
      <trkpt lat="47.950002020224929" lon="-1.24141400679946">
        <ele>78.969999999999999</ele>
        <time>2018-07-07T13:04:58Z</time>
      </trkpt>
      <trkpt lat="47.94906098395586" lon="-1.24395003542304">
        <ele>83.290000000000006</ele>
        <time>2018-07-07T13:05:08Z</time>
      </trkpt>
      <trkpt lat="47.947874022647738" lon="-1.246638027951121">
        <ele>86.180000000000007</ele>
        <time>2018-07-07T13:05:18Z</time>
      </trkpt>
      <trkpt lat="47.946812035515904" lon="-1.249025026336312">
        <ele>83.769999999999996</ele>
        <time>2018-07-07T13:05:27Z</time>
      </trkpt>
      <trkpt lat="47.946082977578044" lon="-1.250624964013696">
        <ele>79.450000000000003</ele>
        <time>2018-07-07T13:05:35Z</time>
      </trkpt>
      <trkpt lat="47.946033021435142" lon="-1.250735018402338">
        <ele>78.969999999999999</ele>
        <time>2018-07-07T13:05:36Z</time>
      </trkpt>
      <trkpt lat="47.946046013385057" lon="-1.250946996733546">
        <ele>78.480000000000004</ele>
        <time>2018-07-07T13:05:37Z</time>
      </trkpt>
      <trkpt lat="47.94611700810492" lon="-1.251180013641715">
        <ele>78</ele>
        <time>2018-07-07T13:05:39Z</time>
      </trkpt>
      <trkpt lat="47.946099992841482" lon="-1.251322003081441">
        <ele>78</ele>
        <time>2018-07-07T13:05:40Z</time>
      </trkpt>
      <trkpt lat="47.946059005334973" lon="-1.251414036378264">
        <ele>78</ele>
        <time>2018-07-07T13:05:41Z</time>
      </trkpt>
      <trkpt lat="47.945997985079885" lon="-1.251510009169579">
        <ele>77.519999999999996</ele>
        <time>2018-07-07T13:05:42Z</time>
      </trkpt>
      <trkpt lat="47.945907963439822" lon="-1.251585027202964">
        <ele>77.519999999999996</ele>
        <time>2018-07-07T13:05:43Z</time>
      </trkpt>
      <trkpt lat="47.945828000083566" lon="-1.251597013324499">
        <ele>77.519999999999996</ele>
        <time>2018-07-07T13:05:44Z</time>
      </trkpt>
      <trkpt lat="47.945728003978729" lon="-1.251552002504468">
        <ele>77.519999999999996</ele>
        <time>2018-07-07T13:05:45Z</time>
      </trkpt>
      <trkpt lat="47.945672012865543" lon="-1.251488970592618">
        <ele>77.519999999999996</ele>
        <time>2018-07-07T13:05:46Z</time>
      </trkpt>
      <trkpt lat="47.945599006488919" lon="-1.25138696283102">
        <ele>77.519999999999996</ele>
        <time>2018-07-07T13:05:47Z</time>
      </trkpt>
      <trkpt lat="47.945584002882242" lon="-1.251279003918171">
        <ele>77.519999999999996</ele>
        <time>2018-07-07T13:05:48Z</time>
      </trkpt>
      <trkpt lat="47.9455809853971" lon="-1.251150006428361">
        <ele>77.519999999999996</ele>
        <time>2018-07-07T13:05:49Z</time>
      </trkpt>
      <trkpt lat="47.9455809853971" lon="-1.251068031415343">
        <ele>77.519999999999996</ele>
        <time>2018-07-07T13:05:50Z</time>
      </trkpt>
      <trkpt lat="47.945701014250517" lon="-1.250806013122201">
        <ele>77.519999999999996</ele>
        <time>2018-07-07T13:05:51Z</time>
      </trkpt>
      <trkpt lat="47.945659020915627" lon="-1.250678021460772">
        <ele>77.519999999999996</ele>
        <time>2018-07-07T13:05:52Z</time>
      </trkpt>
      <trkpt lat="47.945611998438835" lon="-1.250539971515536">
        <ele>77.519999999999996</ele>
        <time>2018-07-07T13:05:53Z</time>
      </trkpt>
      <trkpt lat="47.945431033149362" lon="-1.248410968109965">
        <ele>77.519999999999996</ele>
        <time>2018-07-07T13:06:06Z</time>
      </trkpt>
      <trkpt lat="47.94545098207891" lon="-1.245581991970539">
        <ele>79.450000000000003</ele>
        <time>2018-07-07T13:06:22Z</time>
      </trkpt>
      <trkpt lat="47.945473026484251" lon="-1.243720036000013">
        <ele>84.730000000000004</ele>
        <time>2018-07-07T13:06:34Z</time>
      </trkpt>
      <trkpt lat="47.945460034534335" lon="-1.243374031037092">
        <ele>86.180000000000007</ele>
        <time>2018-07-07T13:06:37Z</time>
      </trkpt>
      <trkpt lat="47.945455005392432" lon="-1.243264982476831">
        <ele>86.180000000000007</ele>
        <time>2018-07-07T13:06:38Z</time>
      </trkpt>
      <trkpt lat="47.945259036496282" lon="-1.242732983082533">
        <ele>88.099999999999994</ele>
        <time>2018-07-07T13:06:43Z</time>
      </trkpt>
      <trkpt lat="47.945207990705967" lon="-1.242659976705909">
        <ele>88.099999999999994</ele>
        <time>2018-07-07T13:06:44Z</time>
      </trkpt>
      <trkpt lat="47.944847987964749" lon="-1.241641994565725">
        <ele>90.980000000000004</ele>
        <time>2018-07-07T13:06:55Z</time>
      </trkpt>
      <trkpt lat="47.944800965487957" lon="-1.241466980427504">
        <ele>91.459999999999994</ele>
        <time>2018-07-07T13:06:57Z</time>
      </trkpt>
      <trkpt lat="47.944776993244886" lon="-1.241378970444202">
        <ele>91.939999999999998</ele>
        <time>2018-07-07T13:06:58Z</time>
      </trkpt>
      <trkpt lat="47.944517992436886" lon="-1.240418991073966">
        <ele>94.829999999999998</ele>
        <time>2018-07-07T13:07:08Z</time>
      </trkpt>
      <trkpt lat="47.944494020193815" lon="-1.240315977483988">
        <ele>95.310000000000002</ele>
        <time>2018-07-07T13:07:09Z</time>
      </trkpt>
      <trkpt lat="47.944169975817204" lon="-1.238899016752839">
        <ele>97.230000000000004</ele>
        <time>2018-07-07T13:07:22Z</time>
      </trkpt>
      <trkpt lat="47.943743001669645" lon="-1.237416006624699">
        <ele>96.269999999999996</ele>
        <time>2018-07-07T13:07:36Z</time>
      </trkpt>
      <trkpt lat="47.943657003343105" lon="-1.237130016088486">
        <ele>96.269999999999996</ele>
        <time>2018-07-07T13:07:39Z</time>
      </trkpt>
      <trkpt lat="47.943416023626924" lon="-1.235950011759996">
        <ele>92.900000000000006</ele>
        <time>2018-07-07T13:07:50Z</time>
      </trkpt>
      <trkpt lat="47.943200021982193" lon="-1.234765984117985">
        <ele>89.060000000000002</ele>
        <time>2018-07-07T13:08:01Z</time>
      </trkpt>
      <trkpt lat="47.943139001727104" lon="-1.234480999410152">
        <ele>88.099999999999994</ele>
        <time>2018-07-07T13:08:04Z</time>
      </trkpt>
      <trkpt lat="47.943118968978524" lon="-1.234386032447219">
        <ele>87.620000000000005</ele>
        <time>2018-07-07T13:08:05Z</time>
      </trkpt>
      <trkpt lat="47.942861979827285" lon="-1.233276017010212">
        <ele>84.25</ele>
        <time>2018-07-07T13:08:18Z</time>
      </trkpt>
      <trkpt lat="47.942843958735466" lon="-1.233212985098362">
        <ele>84.25</ele>
        <time>2018-07-07T13:08:19Z</time>
      </trkpt>
      <trkpt lat="47.94274102896452" lon="-1.233097985386848">
        <ele>83.769999999999996</ele>
        <time>2018-07-07T13:08:21Z</time>
      </trkpt>
      <trkpt lat="47.942697023972869" lon="-1.233092034235597">
        <ele>83.769999999999996</ele>
        <time>2018-07-07T13:08:22Z</time>
      </trkpt>
      <trkpt lat="47.942659975960851" lon="-1.23307996429503">
        <ele>83.769999999999996</ele>
        <time>2018-07-07T13:08:23Z</time>
      </trkpt>
      <trkpt lat="47.942641032859683" lon="-1.233021039515734">
        <ele>83.290000000000006</ele>
        <time>2018-07-07T13:08:24Z</time>
      </trkpt>
      <trkpt lat="47.942624017596245" lon="-1.232969993725419">
        <ele>83.290000000000006</ele>
        <time>2018-07-07T13:08:25Z</time>
      </trkpt>
      <trkpt lat="47.942603984847665" lon="-1.23288500122726">
        <ele>83.290000000000006</ele>
        <time>2018-07-07T13:08:26Z</time>
      </trkpt>
      <trkpt lat="47.942631980404258" lon="-1.232837978750467">
        <ele>83.290000000000006</ele>
        <time>2018-07-07T13:08:27Z</time>
      </trkpt>
      <trkpt lat="47.942662993445992" lon="-1.232786010950804">
        <ele>82.810000000000002</ele>
        <time>2018-07-07T13:08:28Z</time>
      </trkpt>
      <trkpt lat="47.942704986780882" lon="-1.232764972373843">
        <ele>82.810000000000002</ele>
        <time>2018-07-07T13:08:29Z</time>
      </trkpt>
      <trkpt lat="47.942733988165855" lon="-1.232750974595547">
        <ele>82.810000000000002</ele>
        <time>2018-07-07T13:08:30Z</time>
      </trkpt>
      <trkpt lat="47.942754020914435" lon="-1.23269397765398">
        <ele>82.810000000000002</ele>
        <time>2018-07-07T13:08:31Z</time>
      </trkpt>
      <trkpt lat="47.942757960408926" lon="-1.232652990147471">
        <ele>82.810000000000002</ele>
        <time>2018-07-07T13:08:32Z</time>
      </trkpt>
      <trkpt lat="47.942761983722448" lon="-1.23260697349906">
        <ele>82.329999999999998</ele>
        <time>2018-07-07T13:08:33Z</time>
      </trkpt>
      <trkpt lat="47.942770030349493" lon="-1.232529021799564">
        <ele>80.409999999999997</ele>
        <time>2018-07-07T13:08:39Z</time>
      </trkpt>
      <trkpt lat="47.942770030349493" lon="-1.232529021799564">
        <ele>79.930000000000007</ele>
        <time>2018-07-07T13:08:41Z</time>
      </trkpt>
      <trkpt lat="47.942801965400577" lon="-1.23200599104166">
        <ele>79.930000000000007</ele>
        <time>2018-07-07T13:08:42Z</time>
      </trkpt>
      <trkpt lat="47.942834990099072" lon="-1.231717988848686">
        <ele>78.969999999999999</ele>
        <time>2018-07-07T13:08:46Z</time>
      </trkpt>
      <trkpt lat="47.942939009517431" lon="-1.231084987521172">
        <ele>77.040000000000006</ele>
        <time>2018-07-07T13:08:58Z</time>
      </trkpt>
      <trkpt lat="47.942942027002573" lon="-1.230734959244728">
        <ele>74.159999999999997</ele>
        <time>2018-07-07T13:09:07Z</time>
      </trkpt>
      <trkpt lat="47.94285099953413" lon="-1.230245037004352">
        <ele>73.200000000000003</ele>
        <time>2018-07-07T13:09:17Z</time>
      </trkpt>
      <trkpt lat="47.942717978730798" lon="-1.230056025087833">
        <ele>74.640000000000001</ele>
        <time>2018-07-07T13:09:23Z</time>
      </trkpt>
      <trkpt lat="47.942685959860682" lon="-1.230041021481156">
        <ele>74.640000000000001</ele>
        <time>2018-07-07T13:09:24Z</time>
      </trkpt>
      <trkpt lat="47.942660981789231" lon="-1.230028029531241">
        <ele>74.640000000000001</ele>
        <time>2018-07-07T13:09:25Z</time>
      </trkpt>
      <trkpt lat="47.942660981789231" lon="-1.230028029531241">
        <ele>74.640000000000001</ele>
        <time>2018-07-07T13:09:26Z</time>
      </trkpt>
      <trkpt lat="47.942627035081387" lon="-1.230011014267802">
        <ele>74.159999999999997</ele>
        <time>2018-07-07T13:09:27Z</time>
      </trkpt>
      <trkpt lat="47.942610019817948" lon="-1.230002967640758">
        <ele>74.159999999999997</ele>
        <time>2018-07-07T13:09:28Z</time>
      </trkpt>
      <trkpt lat="47.94259199872613" lon="-1.229993999004364">
        <ele>73.680000000000007</ele>
        <time>2018-07-07T13:09:29Z</time>
      </trkpt>
      <trkpt lat="47.942575989291072" lon="-1.229985030367971">
        <ele>73.200000000000003</ele>
        <time>2018-07-07T13:09:30Z</time>
      </trkpt>
      <trkpt lat="47.94226803816855" lon="-1.230093995109201">
        <ele>69.349999999999994</ele>
        <time>2018-07-07T13:09:41Z</time>
      </trkpt>
      <trkpt lat="47.942046001553535" lon="-1.230219975113869">
        <ele>65.510000000000005</ele>
        <time>2018-07-07T13:09:52Z</time>
      </trkpt>
      <trkpt lat="47.941874004900455" lon="-1.2302649859339">
        <ele>68.390000000000001</ele>
        <time>2018-07-07T13:10:03Z</time>
      </trkpt>
      <trkpt lat="47.941684992983937" lon="-1.230102963745594">
        <ele>71.269999999999996</ele>
        <time>2018-07-07T13:10:14Z</time>
      </trkpt>
      <trkpt lat="47.941620033234358" lon="-1.230046972632408">
        <ele>75.599999999999994</ele>
        <time>2018-07-07T13:10:24Z</time>
      </trkpt>
      <trkpt lat="47.941610980778933" lon="-1.230040015652776">
        <ele>76.079999999999998</ele>
        <time>2018-07-07T13:10:25Z</time>
      </trkpt>
      <trkpt lat="47.941610980778933" lon="-1.230040015652776">
        <ele>75.599999999999994</ele>
        <time>2018-07-07T13:10:26Z</time>
      </trkpt>
      <trkpt lat="47.941610980778933" lon="-1.230017971247435">
        <ele>75.599999999999994</ele>
        <time>2018-07-07T13:10:27Z</time>
      </trkpt>
      <trkpt lat="47.941609974950552" lon="-1.230000033974648">
        <ele>75.599999999999994</ele>
        <time>2018-07-07T13:10:28Z</time>
      </trkpt>
      <trkpt lat="47.941607963293791" lon="-1.229973966255784">
        <ele>76.079999999999998</ele>
        <time>2018-07-07T13:10:29Z</time>
      </trkpt>
      <trkpt lat="47.941607963293791" lon="-1.229973966255784">
        <ele>75.599999999999994</ele>
        <time>2018-07-07T13:10:46Z</time>
      </trkpt>
    </trkseg>
  </trk>

  <trk>
    <name>Track vom: 2018-07-07 15:25</name>
    <extensions>
      <gpxx:TrackExtension>
        <gpxx:DisplayColor>DarkGray</gpxx:DisplayColor>
      </gpxx:TrackExtension>
    </extensions>
    <trkseg>
      <trkpt lat="47.941600000485778" lon="-1.229913029819727">
        <ele>89.060000000000002</ele>
        <time>2018-07-07T13:25:11Z</time>
      </trkpt>
      <trkpt lat="47.941598994657397" lon="-1.229857038706541">
        <ele>89.060000000000002</ele>
        <time>2018-07-07T13:25:54Z</time>
      </trkpt>
      <trkpt lat="47.941594971343875" lon="-1.229800963774324">
        <ele>89.540000000000006</ele>
        <time>2018-07-07T13:25:55Z</time>
      </trkpt>
      <trkpt lat="47.941577034071088" lon="-1.22955403290689">
        <ele>89.060000000000002</ele>
        <time>2018-07-07T13:25:58Z</time>
      </trkpt>
      <trkpt lat="47.941567981615663" lon="-1.229378012940288">
        <ele>88.099999999999994</ele>
        <time>2018-07-07T13:26:00Z</time>
      </trkpt>
      <trkpt lat="47.941567981615663" lon="-1.229297965764999">
        <ele>87.140000000000001</ele>
        <time>2018-07-07T13:26:01Z</time>
      </trkpt>
      <trkpt lat="47.941567981615663" lon="-1.229142984375358">
        <ele>84.25</ele>
        <time>2018-07-07T13:26:03Z</time>
      </trkpt>
      <trkpt lat="47.941567981615663" lon="-1.229074001312256">
        <ele>83.290000000000006</ele>
        <time>2018-07-07T13:26:04Z</time>
      </trkpt>
      <trkpt lat="47.941565969958901" lon="-1.228980040177703">
        <ele>81.849999999999994</ele>
        <time>2018-07-07T13:26:05Z</time>
      </trkpt>
      <trkpt lat="47.941562030464411" lon="-1.228799996897578">
        <ele>78.969999999999999</ele>
        <time>2018-07-07T13:26:07Z</time>
      </trkpt>
      <trkpt lat="47.941559012979269" lon="-1.228708969429135">
        <ele>78</ele>
        <time>2018-07-07T13:26:08Z</time>
      </trkpt>
      <trkpt lat="47.941505033522844" lon="-1.22807102277875">
        <ele>69.829999999999998</ele>
        <time>2018-07-07T13:26:15Z</time>
      </trkpt>
      <trkpt lat="47.941485000774264" lon="-1.228003967553377">
        <ele>68.870000000000005</ele>
        <time>2018-07-07T13:26:16Z</time>
      </trkpt>
      <trkpt lat="47.941463962197304" lon="-1.227932972833514">
        <ele>67.909999999999997</ele>
        <time>2018-07-07T13:26:17Z</time>
      </trkpt>
      <trkpt lat="47.941420963034034" lon="-1.2278370000422">
        <ele>67.430000000000007</ele>
        <time>2018-07-07T13:26:18Z</time>
      </trkpt>
      <trkpt lat="47.941370001062751" lon="-1.227799030020833">
        <ele>66.469999999999999</ele>
        <time>2018-07-07T13:26:19Z</time>
      </trkpt>
      <trkpt lat="47.941320966929197" lon="-1.227761982008815">
        <ele>65.989999999999995</ele>
        <time>2018-07-07T13:26:20Z</time>
      </trkpt>
      <trkpt lat="47.941253995522857" lon="-1.227722000330687">
        <ele>65.510000000000005</ele>
        <time>2018-07-07T13:26:21Z</time>
      </trkpt>
      <trkpt lat="47.941207978874445" lon="-1.227722000330687">
        <ele>65.030000000000001</ele>
        <time>2018-07-07T13:26:22Z</time>
      </trkpt>
      <trkpt lat="47.941163973882794" lon="-1.227722000330687">
        <ele>64.549999999999997</ele>
        <time>2018-07-07T13:26:23Z</time>
      </trkpt>
      <trkpt lat="47.941120974719524" lon="-1.227722000330687">
        <ele>64.069999999999993</ele>
        <time>2018-07-07T13:26:24Z</time>
      </trkpt>
      <trkpt lat="47.941069006919861" lon="-1.227722000330687">
        <ele>64.069999999999993</ele>
        <time>2018-07-07T13:26:25Z</time>
      </trkpt>
      <trkpt lat="47.941006980836391" lon="-1.227722000330687">
        <ele>63.579999999999998</ele>
        <time>2018-07-07T13:26:26Z</time>
      </trkpt>
      <trkpt lat="47.94096197001636" lon="-1.227700961753726">
        <ele>63.579999999999998</ele>
        <time>2018-07-07T13:26:27Z</time>
      </trkpt>
      <trkpt lat="47.940912013873458" lon="-1.227661985903978">
        <ele>63.100000000000001</ele>
        <time>2018-07-07T13:26:28Z</time>
      </trkpt>
      <trkpt lat="47.940782010555267" lon="-1.227569030597806">
        <ele>62.140000000000001</ele>
        <time>2018-07-07T13:26:30Z</time>
      </trkpt>
      <trkpt lat="47.939590020105243" lon="-1.227241968736053">
        <ele>62.619999999999997</ele>
        <time>2018-07-07T13:26:43Z</time>
      </trkpt>
      <trkpt lat="47.938365004956722" lon="-1.226755985990167">
        <ele>66.469999999999999</ele>
        <time>2018-07-07T13:26:55Z</time>
      </trkpt>
      <trkpt lat="47.937019038945436" lon="-1.226220969110727">
        <ele>70.790000000000006</ele>
        <time>2018-07-07T13:27:07Z</time>
      </trkpt>
      <trkpt lat="47.93608202598989" lon="-1.225757030770183">
        <ele>74.159999999999997</ele>
        <time>2018-07-07T13:27:15Z</time>
      </trkpt>
      <trkpt lat="47.935848003253341" lon="-1.22555703856051">
        <ele>74.159999999999997</ele>
        <time>2018-07-07T13:27:16Z</time>
      </trkpt>
      <trkpt lat="47.934075985103846" lon="-1.223919969052076">
        <ele>77.040000000000006</ele>
        <time>2018-07-07T13:27:30Z</time>
      </trkpt>
      <trkpt lat="47.932929005473852" lon="-1.222488004714251">
        <ele>76.079999999999998</ele>
        <time>2018-07-07T13:27:40Z</time>
      </trkpt>
      <trkpt lat="47.931397967040539" lon="-1.221101973205805">
        <ele>75.599999999999994</ele>
        <time>2018-07-07T13:27:50Z</time>
      </trkpt>
      <trkpt lat="47.930237995460629" lon="-1.219502035528421">
        <ele>74.640000000000001</ele>
        <time>2018-07-07T13:27:57Z</time>
      </trkpt>
      <trkpt lat="47.92877602390945" lon="-1.217320980504155">
        <ele>70.310000000000002</ele>
        <time>2018-07-07T13:28:08Z</time>
      </trkpt>
      <trkpt lat="47.927570035681129" lon="-1.215837970376015">
        <ele>68.390000000000001</ele>
        <time>2018-07-07T13:28:15Z</time>
      </trkpt>
      <trkpt lat="47.9274039901793" lon="-1.215730011463165">
        <ele>69.349999999999994</ele>
        <time>2018-07-07T13:28:17Z</time>
      </trkpt>
      <trkpt lat="47.92637201026082" lon="-1.215287027880549">
        <ele>73.200000000000003</ele>
        <time>2018-07-07T13:28:23Z</time>
      </trkpt>
      <trkpt lat="47.926211999729276" lon="-1.215191977098584">
        <ele>73.680000000000007</ele>
        <time>2018-07-07T13:28:24Z</time>
      </trkpt>
      <trkpt lat="47.926059029996395" lon="-1.215070020407438">
        <ele>74.159999999999997</ele>
        <time>2018-07-07T13:28:25Z</time>
      </trkpt>
      <trkpt lat="47.924533020704985" lon="-1.213451977819204">
        <ele>77.040000000000006</ele>
        <time>2018-07-07T13:28:34Z</time>
      </trkpt>
      <trkpt lat="47.924362029880285" lon="-1.213302025571466">
        <ele>77.519999999999996</ele>
        <time>2018-07-07T13:28:35Z</time>
      </trkpt>
      <trkpt lat="47.924173017963767" lon="-1.213197000324726">
        <ele>78</ele>
        <time>2018-07-07T13:28:36Z</time>
      </trkpt>
      <trkpt lat="47.922730995342135" lon="-1.212759967893362">
        <ele>80.409999999999997</ele>
        <time>2018-07-07T13:28:43Z</time>
      </trkpt>
      <trkpt lat="47.921651992946863" lon="-1.212782012298703">
        <ele>82.810000000000002</ele>
        <time>2018-07-07T13:28:49Z</time>
      </trkpt>
      <trkpt lat="47.921484019607306" lon="-1.212746975943446">
        <ele>83.290000000000006</ele>
        <time>2018-07-07T13:28:50Z</time>
      </trkpt>
      <trkpt lat="47.921313028782606" lon="-1.21271101757884">
        <ele>83.290000000000006</ele>
        <time>2018-07-07T13:28:51Z</time>
      </trkpt>
      <trkpt lat="47.921153018251061" lon="-1.212630970403552">
        <ele>83.290000000000006</ele>
        <time>2018-07-07T13:28:52Z</time>
      </trkpt>
      <trkpt lat="47.920992001891136" lon="-1.212532985955477">
        <ele>83.290000000000006</ele>
        <time>2018-07-07T13:28:53Z</time>
      </trkpt>
      <trkpt lat="47.919552996754646" lon="-1.211564959958196">
        <ele>85.209999999999994</ele>
        <time>2018-07-07T13:29:02Z</time>
      </trkpt>
      <trkpt lat="47.919427016749978" lon="-1.211378965526819">
        <ele>85.209999999999994</ele>
        <time>2018-07-07T13:29:03Z</time>
      </trkpt>
      <trkpt lat="47.91930103674531" lon="-1.211194982752204">
        <ele>85.209999999999994</ele>
        <time>2018-07-07T13:29:04Z</time>
      </trkpt>
      <trkpt lat="47.919186037033796" lon="-1.211006976664066">
        <ele>85.689999999999998</ele>
        <time>2018-07-07T13:29:05Z</time>
      </trkpt>
      <trkpt lat="47.919081011787057" lon="-1.210803966969252">
        <ele>85.689999999999998</ele>
        <time>2018-07-07T13:29:06Z</time>
      </trkpt>
      <trkpt lat="47.918289005756378" lon="-1.208789041265845">
        <ele>86.659999999999997</ele>
        <time>2018-07-07T13:29:15Z</time>
      </trkpt>
      <trkpt lat="47.917503034695983" lon="-1.20731801725924">
        <ele>85.209999999999994</ele>
        <time>2018-07-07T13:29:23Z</time>
      </trkpt>
      <trkpt lat="47.91552197188139" lon="-1.204766985028982">
        <ele>81.849999999999994</ele>
        <time>2018-07-07T13:29:36Z</time>
      </trkpt>
      <trkpt lat="47.914757039397955" lon="-1.203818991780281">
        <ele>82.329999999999998</ele>
        <time>2018-07-07T13:29:40Z</time>
      </trkpt>
      <trkpt lat="47.914757039397955" lon="-1.203818991780281">
        <ele>82.810000000000002</ele>
        <time>2018-07-07T13:29:41Z</time>
      </trkpt>
      <trkpt lat="47.914506001397967" lon="-1.203370979055762">
        <ele>83.290000000000006</ele>
        <time>2018-07-07T13:29:42Z</time>
      </trkpt>
      <trkpt lat="47.913617016747594" lon="-1.201411038637161">
        <ele>86.180000000000007</ele>
        <time>2018-07-07T13:29:51Z</time>
      </trkpt>
      <trkpt lat="47.912318995222449" lon="-1.199524020776153">
        <ele>88.099999999999994</ele>
        <time>2018-07-07T13:30:00Z</time>
      </trkpt>
      <trkpt lat="47.911016028374434" lon="-1.19767296127975">
        <ele>89.540000000000006</ele>
        <time>2018-07-07T13:30:09Z</time>
      </trkpt>
      <trkpt lat="47.910084966570139" lon="-1.195389982312918">
        <ele>89.540000000000006</ele>
        <time>2018-07-07T13:30:18Z</time>
      </trkpt>
      <trkpt lat="47.909445008262992" lon="-1.193855004385114">
        <ele>89.540000000000006</ele>
        <time>2018-07-07T13:30:24Z</time>
      </trkpt>
      <trkpt lat="47.908115973696113" lon="-1.19202196598053">
        <ele>86.180000000000007</ele>
        <time>2018-07-07T13:30:33Z</time>
      </trkpt>
      <trkpt lat="47.906441017985344" lon="-1.189859015867114">
        <ele>82.810000000000002</ele>
        <time>2018-07-07T13:30:44Z</time>
      </trkpt>
      <trkpt lat="47.905195970088243" lon="-1.187531026080251">
        <ele>81.849999999999994</ele>
        <time>2018-07-07T13:30:54Z</time>
      </trkpt>
      <trkpt lat="47.903524031862617" lon="-1.183814993128181">
        <ele>79.450000000000003</ele>
        <time>2018-07-07T13:31:09Z</time>
      </trkpt>
      <trkpt lat="47.902879966422915" lon="-1.182683017104864">
        <ele>79.930000000000007</ele>
        <time>2018-07-07T13:31:14Z</time>
      </trkpt>
      <trkpt lat="47.902771001681685" lon="-1.182437008246779">
        <ele>80.409999999999997</ele>
        <time>2018-07-07T13:31:15Z</time>
      </trkpt>
      <trkpt lat="47.902662036940455" lon="-1.182192005217075">
        <ele>80.409999999999997</ele>
        <time>2018-07-07T13:31:16Z</time>
      </trkpt>
      <trkpt lat="47.902105981484056" lon="-1.179671986028552">
        <ele>83.769999999999996</ele>
        <time>2018-07-07T13:31:25Z</time>
      </trkpt>
      <trkpt lat="47.901660986244678" lon="-1.175836008042097">
        <ele>88.099999999999994</ele>
        <time>2018-07-07T13:31:38Z</time>
      </trkpt>
      <trkpt lat="47.901593009009957" lon="-1.172520965337753">
        <ele>84.730000000000004</ele>
        <time>2018-07-07T13:31:49Z</time>
      </trkpt>
      <trkpt lat="47.901593009009957" lon="-1.165627017617226">
        <ele>77.040000000000006</ele>
        <time>2018-07-07T13:32:12Z</time>
      </trkpt>
      <trkpt lat="47.901593009009957" lon="-1.160562001168728">
        <ele>73.200000000000003</ele>
        <time>2018-07-07T13:32:29Z</time>
      </trkpt>
      <trkpt lat="47.901586974039674" lon="-1.156379012390971">
        <ele>70.790000000000006</ele>
        <time>2018-07-07T13:32:42Z</time>
      </trkpt>
      <trkpt lat="47.9015769995749" lon="-1.154912011697888">
        <ele>70.790000000000006</ele>
        <time>2018-07-07T13:32:49Z</time>
      </trkpt>
      <trkpt lat="47.901570964604616" lon="-1.152849979698658">
        <ele>75.599999999999994</ele>
        <time>2018-07-07T13:33:00Z</time>
      </trkpt>
      <trkpt lat="47.901570964604616" lon="-1.150477984920144">
        <ele>82.329999999999998</ele>
        <time>2018-07-07T13:33:12Z</time>
      </trkpt>
      <trkpt lat="47.901570964604616" lon="-1.14866397343576">
        <ele>83.769999999999996</ele>
        <time>2018-07-07T13:33:23Z</time>
      </trkpt>
      <trkpt lat="47.901570964604616" lon="-1.145681021735072">
        <ele>82.810000000000002</ele>
        <time>2018-07-07T13:33:36Z</time>
      </trkpt>
      <trkpt lat="47.901570964604616" lon="-1.143084978684783">
        <ele>80.409999999999997</ele>
        <time>2018-07-07T13:33:50Z</time>
      </trkpt>
      <trkpt lat="47.901570964604616" lon="-1.14039296284318">
        <ele>80.890000000000001</ele>
        <time>2018-07-07T13:34:01Z</time>
      </trkpt>
      <trkpt lat="47.901570964604616" lon="-1.138473004102707">
        <ele>80.409999999999997</ele>
        <time>2018-07-07T13:34:10Z</time>
      </trkpt>
      <trkpt lat="47.901570964604616" lon="-1.134899966418743">
        <ele>78.969999999999999</ele>
        <time>2018-07-07T13:34:23Z</time>
      </trkpt>
      <trkpt lat="47.901560990139842" lon="-1.130049023777247">
        <ele>78.480000000000004</ele>
        <time>2018-07-07T13:34:42Z</time>
      </trkpt>
      <trkpt lat="47.9015579726547" lon="-1.128726024180651">
        <ele>77.519999999999996</ele>
        <time>2018-07-07T13:34:49Z</time>
      </trkpt>
      <trkpt lat="47.9015579726547" lon="-1.128428969532251">
        <ele>77.519999999999996</ele>
        <time>2018-07-07T13:34:52Z</time>
      </trkpt>
      <trkpt lat="47.90155696682632" lon="-1.128280023112893">
        <ele>78</ele>
        <time>2018-07-07T13:34:59Z</time>
      </trkpt>
      <trkpt lat="47.90155696682632" lon="-1.128280023112893">
        <ele>78</ele>
        <time>2018-07-07T13:35:33Z</time>
      </trkpt>
      <trkpt lat="47.901593009009957" lon="-1.128249010071158">
        <ele>82.810000000000002</ele>
        <time>2018-07-07T13:52:00Z</time>
      </trkpt>
      <trkpt lat="47.90155696682632" lon="-1.128152031451464">
        <ele>82.329999999999998</ele>
        <time>2018-07-07T13:52:28Z</time>
      </trkpt>
      <trkpt lat="47.90155696682632" lon="-1.128055974841118">
        <ele>82.329999999999998</ele>
        <time>2018-07-07T13:52:29Z</time>
      </trkpt>
      <trkpt lat="47.901555960997939" lon="-1.127933012321591">
        <ele>81.849999999999994</ele>
        <time>2018-07-07T13:52:30Z</time>
      </trkpt>
      <trkpt lat="47.901555960997939" lon="-1.127785993739963">
        <ele>81.849999999999994</ele>
        <time>2018-07-07T13:52:31Z</time>
      </trkpt>
      <trkpt lat="47.901555960997939" lon="-1.127622965723276">
        <ele>81.849999999999994</ele>
        <time>2018-07-07T13:52:32Z</time>
      </trkpt>
      <trkpt lat="47.90155503898859" lon="-1.127445017918944">
        <ele>81.849999999999994</ele>
        <time>2018-07-07T13:52:33Z</time>
      </trkpt>
      <trkpt lat="47.901551015675068" lon="-1.125621031969786">
        <ele>81.370000000000005</ele>
        <time>2018-07-07T13:52:41Z</time>
      </trkpt>
      <trkpt lat="47.901542969048023" lon="-1.122339013963938">
        <ele>79.930000000000007</ele>
        <time>2018-07-07T13:52:52Z</time>
      </trkpt>
      <trkpt lat="47.901532994583249" lon="-1.117818988859654">
        <ele>77.040000000000006</ele>
        <time>2018-07-07T13:53:06Z</time>
      </trkpt>
      <trkpt lat="47.901527965441346" lon="-1.112628998234868">
        <ele>69.349999999999994</ele>
        <time>2018-07-07T13:53:22Z</time>
      </trkpt>
      <trkpt lat="47.901508016511798" lon="-1.111228968948126">
        <ele>67.909999999999997</ele>
        <time>2018-07-07T13:53:28Z</time>
      </trkpt>
      <trkpt lat="47.901479015126824" lon="-1.111071975901723">
        <ele>67.430000000000007</ele>
        <time>2018-07-07T13:53:29Z</time>
      </trkpt>
      <trkpt lat="47.90144800208509" lon="-1.110928980633616">
        <ele>67.430000000000007</ele>
        <time>2018-07-07T13:53:30Z</time>
      </trkpt>
      <trkpt lat="47.901412965729833" lon="-1.11078598536551">
        <ele>67.430000000000007</ele>
        <time>2018-07-07T13:53:31Z</time>
      </trkpt>
      <trkpt lat="47.901360997930169" lon="-1.11069998703897">
        <ele>67.430000000000007</ele>
        <time>2018-07-07T13:53:32Z</time>
      </trkpt>
      <trkpt lat="47.901315987110138" lon="-1.110636033117771">
        <ele>67.430000000000007</ele>
        <time>2018-07-07T13:53:33Z</time>
      </trkpt>
      <trkpt lat="47.901282962411642" lon="-1.11059102229774">
        <ele>67.430000000000007</ele>
        <time>2018-07-07T13:53:34Z</time>
      </trkpt>
      <trkpt lat="47.901356974616647" lon="-1.110369991511107">
        <ele>67.430000000000007</ele>
        <time>2018-07-07T13:53:35Z</time>
      </trkpt>
      <trkpt lat="47.901374995708466" lon="-1.110356999561191">
        <ele>66.950000000000003</ele>
        <time>2018-07-07T13:53:36Z</time>
      </trkpt>
      <trkpt lat="47.901440961286426" lon="-1.110309977084398">
        <ele>66.950000000000003</ele>
        <time>2018-07-07T13:53:37Z</time>
      </trkpt>
      <trkpt lat="47.901524025946856" lon="-1.110234959051013">
        <ele>66.950000000000003</ele>
        <time>2018-07-07T13:53:38Z</time>
      </trkpt>
      <trkpt lat="47.901590997353196" lon="-1.110122976824641">
        <ele>67.430000000000007</ele>
        <time>2018-07-07T13:53:39Z</time>
      </trkpt>
      <trkpt lat="47.901661992073059" lon="-1.110007977113128">
        <ele>67.430000000000007</ele>
        <time>2018-07-07T13:53:40Z</time>
      </trkpt>
      <trkpt lat="47.902512000873685" lon="-1.108728982508183">
        <ele>67.909999999999997</ele>
        <time>2018-07-07T13:53:49Z</time>
      </trkpt>
      <trkpt lat="47.903779009357095" lon="-1.106823021546006">
        <ele>65.989999999999995</ele>
        <time>2018-07-07T13:54:00Z</time>
      </trkpt>
      <trkpt lat="47.905755965039134" lon="-1.10386798158288">
        <ele>68.870000000000005</ele>
        <time>2018-07-07T13:54:16Z</time>
      </trkpt>
      <trkpt lat="47.906044973060489" lon="-1.103596994653344">
        <ele>70.310000000000002</ele>
        <time>2018-07-07T13:54:18Z</time>
      </trkpt>
      <trkpt lat="47.906189979985356" lon="-1.103488029912114">
        <ele>71.269999999999996</ele>
        <time>2018-07-07T13:54:19Z</time>
      </trkpt>
      <trkpt lat="47.90634898468852" lon="-1.103402031585574">
        <ele>72.239999999999995</ele>
        <time>2018-07-07T13:54:20Z</time>
      </trkpt>
      <trkpt lat="47.907747002318501" lon="-1.102651013061404">
        <ele>77.519999999999996</ele>
        <time>2018-07-07T13:54:30Z</time>
      </trkpt>
      <trkpt lat="47.907823026180267" lon="-1.102611031383276">
        <ele>78.480000000000004</ele>
        <time>2018-07-07T13:54:35Z</time>
      </trkpt>
      <trkpt lat="47.907921010628343" lon="-1.102558979764581">
        <ele>78.969999999999999</ele>
        <time>2018-07-07T13:55:09Z</time>
      </trkpt>
      <trkpt lat="47.90856096893549" lon="-1.102221021428704">
        <ele>81.370000000000005</ele>
        <time>2018-07-07T13:55:15Z</time>
      </trkpt>
      <trkpt lat="47.910036016255617" lon="-1.101450975984335">
        <ele>84.25</ele>
        <time>2018-07-07T13:55:25Z</time>
      </trkpt>
      <trkpt lat="47.912672962993383" lon="-1.100067039951682">
        <ele>80.409999999999997</ele>
        <time>2018-07-07T13:55:41Z</time>
      </trkpt>
      <trkpt lat="47.915215026587248" lon="-1.098725013434887">
        <ele>76.560000000000002</ele>
        <time>2018-07-07T13:55:55Z</time>
      </trkpt>
      <trkpt lat="47.9177560005337" lon="-1.097392039373517">
        <ele>75.599999999999994</ele>
        <time>2018-07-07T13:56:07Z</time>
      </trkpt>
      <trkpt lat="47.920030010864139" lon="-1.096223015338182">
        <ele>80.890000000000001</ele>
        <time>2018-07-07T13:56:19Z</time>
      </trkpt>
      <trkpt lat="47.922345008701086" lon="-1.095005962997675">
        <ele>80.409999999999997</ele>
        <time>2018-07-07T13:56:32Z</time>
      </trkpt>
      <trkpt lat="47.925360985100269" lon="-1.093437038362026">
        <ele>82.329999999999998</ele>
        <time>2018-07-07T13:56:48Z</time>
      </trkpt>
      <trkpt lat="47.927770027890801" lon="-1.092157959938049">
        <ele>75.599999999999994</ele>
        <time>2018-07-07T13:57:00Z</time>
      </trkpt>
      <trkpt lat="47.930057030171156" lon="-1.090977033600211">
        <ele>74.640000000000001</ele>
        <time>2018-07-07T13:57:12Z</time>
      </trkpt>
      <trkpt lat="47.931925021111965" lon="-1.090000960975885">
        <ele>77.040000000000006</ele>
        <time>2018-07-07T13:57:22Z</time>
      </trkpt>
      <trkpt lat="47.934614019468427" lon="-1.088603027164936">
        <ele>78.480000000000004</ele>
        <time>2018-07-07T13:57:37Z</time>
      </trkpt>
      <trkpt lat="47.936730030924082" lon="-1.087504997849464">
        <ele>83.290000000000006</ele>
        <time>2018-07-07T13:57:49Z</time>
      </trkpt>
      <trkpt lat="47.939354991540313" lon="-1.086130030453205">
        <ele>86.180000000000007</ele>
        <time>2018-07-07T13:58:04Z</time>
      </trkpt>
      <trkpt lat="47.940495014190674" lon="-1.085532987490296">
        <ele>86.659999999999997</ele>
        <time>2018-07-07T13:58:13Z</time>
      </trkpt>
      <trkpt lat="47.941519031301141" lon="-1.084821028634906">
        <ele>87.140000000000001</ele>
        <time>2018-07-07T13:58:25Z</time>
      </trkpt>
      <trkpt lat="47.941847015172243" lon="-1.084492960944772">
        <ele>86.180000000000007</ele>
        <time>2018-07-07T13:58:33Z</time>
      </trkpt>
      <trkpt lat="47.94188397936523" lon="-1.084361029788852">
        <ele>86.180000000000007</ele>
        <time>2018-07-07T13:58:35Z</time>
      </trkpt>
      <trkpt lat="47.942208023741841" lon="-1.084056012332439">
        <ele>86.180000000000007</ele>
        <time>2018-07-07T13:58:41Z</time>
      </trkpt>
      <trkpt lat="47.942842030897737" lon="-1.083064014092088">
        <ele>85.689999999999998</ele>
        <time>2018-07-07T13:58:50Z</time>
      </trkpt>
      <trkpt lat="47.943912986665964" lon="-1.081174984574318">
        <ele>85.209999999999994</ele>
        <time>2018-07-07T13:59:03Z</time>
      </trkpt>
      <trkpt lat="47.945062983781099" lon="-1.07913700863719">
        <ele>81.849999999999994</ele>
        <time>2018-07-07T13:59:13Z</time>
      </trkpt>
      <trkpt lat="47.946754032745957" lon="-1.076184986159205">
        <ele>79.450000000000003</ele>
        <time>2018-07-07T13:59:27Z</time>
      </trkpt>
      <trkpt lat="47.948302002623677" lon="-1.07348701916635">
        <ele>84.730000000000004</ele>
        <time>2018-07-07T13:59:39Z</time>
      </trkpt>
      <trkpt lat="47.950657987967134" lon="-1.069375025108457">
        <ele>93.390000000000001</ele>
        <time>2018-07-07T13:59:57Z</time>
      </trkpt>
      <trkpt lat="47.953473972156644" lon="-1.064442023634911">
        <ele>94.349999999999994</ele>
        <time>2018-07-07T14:00:19Z</time>
      </trkpt>
      <trkpt lat="47.955653015524149" lon="-1.060615014284849">
        <ele>86.659999999999997</ele>
        <time>2018-07-07T14:00:36Z</time>
      </trkpt>
      <trkpt lat="47.957402989268303" lon="-1.05754598043859">
        <ele>78.969999999999999</ele>
        <time>2018-07-07T14:00:49Z</time>
      </trkpt>
      <trkpt lat="47.958682989701629" lon="-1.055321004241705">
        <ele>80.890000000000001</ele>
        <time>2018-07-07T14:01:00Z</time>
      </trkpt>
      <trkpt lat="47.959634000435472" lon="-1.053636996075511">
        <ele>78.969999999999999</ele>
        <time>2018-07-07T14:01:08Z</time>
      </trkpt>
      <trkpt lat="47.960949959233403" lon="-1.051340019330382">
        <ele>80.409999999999997</ele>
        <time>2018-07-07T14:01:18Z</time>
      </trkpt>
      <trkpt lat="47.962915012612939" lon="-1.047892039641738">
        <ele>88.579999999999998</ele>
        <time>2018-07-07T14:01:35Z</time>
      </trkpt>
      <trkpt lat="47.963908016681671" lon="-1.046164026483893">
        <ele>90.5</ele>
        <time>2018-07-07T14:01:45Z</time>
      </trkpt>
      <trkpt lat="47.964654006063938" lon="-1.044886037707329">
        <ele>90.980000000000004</ele>
        <time>2018-07-07T14:01:55Z</time>
      </trkpt>
      <trkpt lat="47.964781997725368" lon="-1.044710017740727">
        <ele>91.939999999999998</ele>
        <time>2018-07-07T14:01:57Z</time>
      </trkpt>
      <trkpt lat="47.96485299244523" lon="-1.044636005535722">
        <ele>92.420000000000002</ele>
        <time>2018-07-07T14:01:58Z</time>
      </trkpt>
      <trkpt lat="47.964925998821855" lon="-1.044560987502337">
        <ele>92.900000000000006</ele>
        <time>2018-07-07T14:01:59Z</time>
      </trkpt>
      <trkpt lat="47.965351967141032" lon="-1.044190004467964">
        <ele>91.939999999999998</ele>
        <time>2018-07-07T14:02:05Z</time>
      </trkpt>
      <trkpt lat="47.965405024588108" lon="-1.04415999725461">
        <ele>91.459999999999994</ele>
        <time>2018-07-07T14:02:06Z</time>
      </trkpt>
      <trkpt lat="47.965442994609475" lon="-1.044138036668301">
        <ele>91.459999999999994</ele>
        <time>2018-07-07T14:02:07Z</time>
      </trkpt>
      <trkpt lat="47.965466966852546" lon="-1.044124038890004">
        <ele>91.459999999999994</ele>
        <time>2018-07-07T14:02:08Z</time>
      </trkpt>
      <trkpt lat="47.965490017086267" lon="-1.044050026685">
        <ele>90.980000000000004</ele>
        <time>2018-07-07T14:02:09Z</time>
      </trkpt>
      <trkpt lat="47.965486999601126" lon="-1.04400702752173">
        <ele>90.980000000000004</ele>
        <time>2018-07-07T14:02:10Z</time>
      </trkpt>
      <trkpt lat="47.965481970459223" lon="-1.043936032801867">
        <ele>91.459999999999994</ele>
        <time>2018-07-07T14:02:11Z</time>
      </trkpt>
      <trkpt lat="47.965476019307971" lon="-1.043841987848282">
        <ele>91.459999999999994</ele>
        <time>2018-07-07T14:02:12Z</time>
      </trkpt>
      <trkpt lat="47.965476019307971" lon="-1.043732017278671">
        <ele>90.980000000000004</ele>
        <time>2018-07-07T14:02:13Z</time>
      </trkpt>
      <trkpt lat="47.96558397822082" lon="-1.042706994339824">
        <ele>91.939999999999998</ele>
        <time>2018-07-07T14:02:22Z</time>
      </trkpt>
      <trkpt lat="47.96549404039979" lon="-1.042435001581907">
        <ele>91.939999999999998</ele>
        <time>2018-07-07T14:02:23Z</time>
      </trkpt>
      <trkpt lat="47.965482976287603" lon="-1.042394014075398">
        <ele>92.420000000000002</ele>
        <time>2018-07-07T14:02:24Z</time>
      </trkpt>
      <trkpt lat="47.965284995734692" lon="-1.040859958156943">
        <ele>93.870000000000005</ele>
        <time>2018-07-07T14:02:33Z</time>
      </trkpt>
      <trkpt lat="47.965078968554735" lon="-1.038602963089943">
        <ele>89.540000000000006</ele>
        <time>2018-07-07T14:02:44Z</time>
      </trkpt>
      <trkpt lat="47.964677978307009" lon="-1.034193998202682">
        <ele>90.019999999999996</ele>
        <time>2018-07-07T14:03:02Z</time>
      </trkpt>
      <trkpt lat="47.964344965294003" lon="-1.030419962480664">
        <ele>96.269999999999996</ele>
        <time>2018-07-07T14:03:17Z</time>
      </trkpt>
      <trkpt lat="47.964069033041596" lon="-1.02729300968349">
        <ele>98.670000000000002</ele>
        <time>2018-07-07T14:03:29Z</time>
      </trkpt>
      <trkpt lat="47.963667958974838" lon="-1.022776002064347">
        <ele>98.670000000000002</ele>
        <time>2018-07-07T14:03:44Z</time>
      </trkpt>
      <trkpt lat="47.963397977873683" lon="-1.019695987924933">
        <ele>97.709999999999994</ele>
        <time>2018-07-07T14:03:55Z</time>
      </trkpt>
      <trkpt lat="47.96298298984766" lon="-1.014895001426339">
        <ele>94.829999999999998</ele>
        <time>2018-07-07T14:04:11Z</time>
      </trkpt>
      <trkpt lat="47.962624998763204" lon="-1.010768003761768">
        <ele>91.459999999999994</ele>
        <time>2018-07-07T14:04:24Z</time>
      </trkpt>
      <trkpt lat="47.962431963533163" lon="-1.008555013686419">
        <ele>93.390000000000001</ele>
        <time>2018-07-07T14:04:32Z</time>
      </trkpt>
      <trkpt lat="47.962245969101787" lon="-1.006354009732604">
        <ele>93.390000000000001</ele>
        <time>2018-07-07T14:04:41Z</time>
      </trkpt>
      <trkpt lat="47.962216967716813" lon="-1.005989983677864">
        <ele>93.390000000000001</ele>
        <time>2018-07-07T14:04:46Z</time>
      </trkpt>
      <trkpt lat="47.962216967716813" lon="-1.005989983677864">
        <ele>93.390000000000001</ele>
        <time>2018-07-07T14:04:51Z</time>
      </trkpt>
      <trkpt lat="47.962213028222322" lon="-1.005938015878201">
        <ele>93.390000000000001</ele>
        <time>2018-07-07T14:04:52Z</time>
      </trkpt>
      <trkpt lat="47.962213028222322" lon="-1.005938015878201">
        <ele>93.390000000000001</ele>
        <time>2018-07-07T14:04:53Z</time>
      </trkpt>
      <trkpt lat="47.962213028222322" lon="-1.005938015878201">
        <ele>93.390000000000001</ele>
        <time>2018-07-07T14:05:08Z</time>
      </trkpt>
      <trkpt lat="47.962198024615645" lon="-1.005769958719611">
        <ele>92.900000000000006</ele>
        <time>2018-07-07T14:05:12Z</time>
      </trkpt>
      <trkpt lat="47.96218897216022" lon="-1.005661999806762">
        <ele>92.900000000000006</ele>
        <time>2018-07-07T14:05:13Z</time>
      </trkpt>
      <trkpt lat="47.962090987712145" lon="-1.004532035440207">
        <ele>92.900000000000006</ele>
        <time>2018-07-07T14:05:19Z</time>
      </trkpt>
      <trkpt lat="47.961890995502472" lon="-1.002235980704427">
        <ele>95.310000000000002</ele>
        <time>2018-07-07T14:05:27Z</time>
      </trkpt>
      <trkpt lat="47.961501991376281" lon="-0.99760196171701">
        <ele>98.670000000000002</ele>
        <time>2018-07-07T14:05:43Z</time>
      </trkpt>
      <trkpt lat="47.961252965033054" lon="-0.994774997234344">
        <ele>99.629999999999995</ele>
        <time>2018-07-07T14:05:53Z</time>
      </trkpt>
      <trkpt lat="47.961123967543244" lon="-0.993339009582996">
        <ele>100.59999999999999</ele>
        <time>2018-07-07T14:06:00Z</time>
      </trkpt>
      <trkpt lat="47.961110975593328" lon="-0.993215963244438">
        <ele>100.59999999999999</ele>
        <time>2018-07-07T14:06:01Z</time>
      </trkpt>
      <trkpt lat="47.961099995300174" lon="-0.99311001598835">
        <ele>100.59999999999999</ele>
        <time>2018-07-07T14:06:02Z</time>
      </trkpt>
      <trkpt lat="47.961046015843749" lon="-0.993001973256469">
        <ele>100.59999999999999</ele>
        <time>2018-07-07T14:06:03Z</time>
      </trkpt>
      <trkpt lat="47.961002010852098" lon="-0.992950005456805">
        <ele>101.08</ele>
        <time>2018-07-07T14:06:04Z</time>
      </trkpt>
      <trkpt lat="47.961001005023718" lon="-0.992878004908562">
        <ele>101.08</ele>
        <time>2018-07-07T14:06:05Z</time>
      </trkpt>
      <trkpt lat="47.961008967831731" lon="-0.992846991866827">
        <ele>101.08</ele>
        <time>2018-07-07T14:06:06Z</time>
      </trkpt>
      <trkpt lat="47.961051966995001" lon="-0.992789994925261">
        <ele>101.08</ele>
        <time>2018-07-07T14:06:07Z</time>
      </trkpt>
      <trkpt lat="47.961073005571961" lon="-0.992760993540287">
        <ele>101.08</ele>
        <time>2018-07-07T14:06:08Z</time>
      </trkpt>
      <trkpt lat="47.961106030270457" lon="-0.992777002975345">
        <ele>101.56</ele>
        <time>2018-07-07T14:06:09Z</time>
      </trkpt>
      <trkpt lat="47.961148023605347" lon="-0.992798041552305">
        <ele>101.56</ele>
        <time>2018-07-07T14:06:10Z</time>
      </trkpt>
      <trkpt lat="47.961159003898501" lon="-0.992803992703557">
        <ele>101.56</ele>
        <time>2018-07-07T14:06:11Z</time>
      </trkpt>
      <trkpt lat="47.961163027212024" lon="-0.992817990481853">
        <ele>101.56</ele>
        <time>2018-07-07T14:06:12Z</time>
      </trkpt>
      <trkpt lat="47.961173001676798" lon="-0.992856966331601">
        <ele>101.56</ele>
        <time>2018-07-07T14:06:13Z</time>
      </trkpt>
      <trkpt lat="47.961180964484811" lon="-0.992888985201716">
        <ele>101.56</ele>
        <time>2018-07-07T14:06:14Z</time>
      </trkpt>
      <trkpt lat="47.961180964484811" lon="-0.992896026000381">
        <ele>101.56</ele>
        <time>2018-07-07T14:06:15Z</time>
      </trkpt>
      <trkpt lat="47.961180964484811" lon="-0.992925027385354">
        <ele>101.08</ele>
        <time>2018-07-07T14:06:16Z</time>
      </trkpt>
      <trkpt lat="47.961180964484811" lon="-0.992925027385354">
        <ele>101.56</ele>
        <time>2018-07-07T14:06:29Z</time>
      </trkpt>
    </trkseg>
  </trk>

  <trk>
    <name>Track vom: 2018-07-07 16:09</name>
    <extensions>
      <gpxx:TrackExtension>
        <gpxx:DisplayColor>DarkGray</gpxx:DisplayColor>
      </gpxx:TrackExtension>
    </extensions>
    <trkseg>
      <trkpt lat="47.961180964484811" lon="-0.992925027385354">
        <ele>101.56</ele>
        <time>2018-07-07T14:09:44Z</time>
      </trkpt>
      <trkpt lat="47.961180964484811" lon="-0.993017982691526">
        <ele>101.56</ele>
        <time>2018-07-07T14:10:12Z</time>
      </trkpt>
      <trkpt lat="47.961107036098838" lon="-0.993055030703545">
        <ele>100.11</ele>
        <time>2018-07-07T14:10:16Z</time>
      </trkpt>
      <trkpt lat="47.961074011400342" lon="-0.993036003783345">
        <ele>99.629999999999995</ele>
        <time>2018-07-07T14:10:17Z</time>
      </trkpt>
      <trkpt lat="47.96104702167213" lon="-0.99300398491323">
        <ele>99.629999999999995</ele>
        <time>2018-07-07T14:10:18Z</time>
      </trkpt>
      <trkpt lat="47.961018020287156" lon="-0.992969032377005">
        <ele>99.150000000000006</ele>
        <time>2018-07-07T14:10:19Z</time>
      </trkpt>
      <trkpt lat="47.960991030558944" lon="-0.992918992415071">
        <ele>98.670000000000002</ele>
        <time>2018-07-07T14:10:20Z</time>
      </trkpt>
      <trkpt lat="47.96100502833724" lon="-0.992865012958646">
        <ele>98.670000000000002</ele>
        <time>2018-07-07T14:10:21Z</time>
      </trkpt>
      <trkpt lat="47.961034029722214" lon="-0.992813967168331">
        <ele>98.189999999999998</ele>
        <time>2018-07-07T14:10:22Z</time>
      </trkpt>
      <trkpt lat="47.961078034713864" lon="-0.992763005197048">
        <ele>98.189999999999998</ele>
        <time>2018-07-07T14:10:23Z</time>
      </trkpt>
      <trkpt lat="47.961118016391993" lon="-0.992783037945628">
        <ele>97.709999999999994</ele>
        <time>2018-07-07T14:10:24Z</time>
      </trkpt>
      <trkpt lat="47.961163027212024" lon="-0.992817990481853">
        <ele>97.230000000000004</ele>
        <time>2018-07-07T14:10:25Z</time>
      </trkpt>
      <trkpt lat="47.961180964484811" lon="-0.992890996858478">
        <ele>96.75</ele>
        <time>2018-07-07T14:10:26Z</time>
      </trkpt>
      <trkpt lat="47.961180964484811" lon="-0.992978001013398">
        <ele>96.75</ele>
        <time>2018-07-07T14:10:27Z</time>
      </trkpt>
      <trkpt lat="47.961098989471793" lon="-0.993100041523576">
        <ele>96.269999999999996</ele>
        <time>2018-07-07T14:10:28Z</time>
      </trkpt>
      <trkpt lat="47.961111981421709" lon="-0.993224009871483">
        <ele>96.269999999999996</ele>
        <time>2018-07-07T14:10:29Z</time>
      </trkpt>
      <trkpt lat="47.961126985028386" lon="-0.993365999311209">
        <ele>96.269999999999996</ele>
        <time>2018-07-07T14:10:30Z</time>
      </trkpt>
      <trkpt lat="47.961142994463444" lon="-0.993531960994005">
        <ele>96.269999999999996</ele>
        <time>2018-07-07T14:10:31Z</time>
      </trkpt>
      <trkpt lat="47.961303004994988" lon="-0.995356030762196">
        <ele>96.269999999999996</ele>
        <time>2018-07-07T14:10:39Z</time>
      </trkpt>
      <trkpt lat="47.961464021354914" lon="-0.99717297591269">
        <ele>96.269999999999996</ele>
        <time>2018-07-07T14:10:47Z</time>
      </trkpt>
      <trkpt lat="47.961528981104493" lon="-0.997909996658564">
        <ele>95.790000000000006</ele>
        <time>2018-07-07T14:10:52Z</time>
      </trkpt>
      <trkpt lat="47.961538033559918" lon="-0.998013010248542">
        <ele>95.790000000000006</ele>
        <time>2018-07-07T14:10:53Z</time>
      </trkpt>
      <trkpt lat="47.961611039936543" lon="-0.998128009960055">
        <ele>95.310000000000002</ele>
        <time>2018-07-07T14:10:54Z</time>
      </trkpt>
      <trkpt lat="47.961716987192631" lon="-0.998167991638184">
        <ele>95.310000000000002</ele>
        <time>2018-07-07T14:10:55Z</time>
      </trkpt>
      <trkpt lat="47.961743976920843" lon="-0.998188024386764">
        <ele>94.829999999999998</ele>
        <time>2018-07-07T14:10:56Z</time>
      </trkpt>
      <trkpt lat="47.9617980401963" lon="-0.998228006064892">
        <ele>94.829999999999998</ele>
        <time>2018-07-07T14:10:57Z</time>
      </trkpt>
      <trkpt lat="47.961857970803976" lon="-0.998273016884923">
        <ele>94.829999999999998</ele>
        <time>2018-07-07T14:10:58Z</time>
      </trkpt>
      <trkpt lat="47.9619309771806" lon="-0.998326996341348">
        <ele>95.310000000000002</ele>
        <time>2018-07-07T14:10:59Z</time>
      </trkpt>
      <trkpt lat="47.962676966562867" lon="-0.998886991292238">
        <ele>96.75</ele>
        <time>2018-07-07T14:11:06Z</time>
      </trkpt>
      <trkpt lat="47.963264035061002" lon="-0.999389989301562">
        <ele>98.189999999999998</ele>
        <time>2018-07-07T14:11:12Z</time>
      </trkpt>
      <trkpt lat="47.963370988145471" lon="-0.999482022598386">
        <ele>98.670000000000002</ele>
        <time>2018-07-07T14:11:13Z</time>
      </trkpt>
      <trkpt lat="47.964151008054614" lon="-1.000080993399024">
        <ele>100.59999999999999</ele>
        <time>2018-07-07T14:11:21Z</time>
      </trkpt>
      <trkpt lat="47.964198030531406" lon="-1.000117035582662">
        <ele>100.59999999999999</ele>
        <time>2018-07-07T14:11:22Z</time>
      </trkpt>
      <trkpt lat="47.964231977239251" lon="-1.000142013654113">
        <ele>100.59999999999999</ele>
        <time>2018-07-07T14:11:23Z</time>
      </trkpt>
      <trkpt lat="47.964259972795844" lon="-1.000163974240422">
        <ele>101.08</ele>
        <time>2018-07-07T14:11:24Z</time>
      </trkpt>
      <trkpt lat="47.964286040514708" lon="-1.000184006989002">
        <ele>101.08</ele>
        <time>2018-07-07T14:11:25Z</time>
      </trkpt>
      <trkpt lat="47.96431303024292" lon="-1.000204961746931">
        <ele>101.56</ele>
        <time>2018-07-07T14:11:26Z</time>
      </trkpt>
      <trkpt lat="47.964349994435906" lon="-1.000233041122556">
        <ele>101.56</ele>
        <time>2018-07-07T14:11:27Z</time>
      </trkpt>
      <trkpt lat="47.964395005255938" lon="-1.000266987830401">
        <ele>101.56</ele>
        <time>2018-07-07T14:11:28Z</time>
      </trkpt>
      <trkpt lat="47.964436998590827" lon="-1.000299006700516">
        <ele>102.04000000000001</ele>
        <time>2018-07-07T14:11:29Z</time>
      </trkpt>
      <trkpt lat="47.964471029117703" lon="-1.000325996428728">
        <ele>102.04000000000001</ele>
        <time>2018-07-07T14:11:30Z</time>
      </trkpt>
    </trkseg>
  </trk>

  <trk>
    <name>Track vom: 2018-07-07 16:12</name>
    <extensions>
      <gpxx:TrackExtension>
        <gpxx:DisplayColor>DarkGray</gpxx:DisplayColor>
      </gpxx:TrackExtension>
    </extensions>
    <trkseg>
      <trkpt lat="47.964471029117703" lon="-1.000325996428728">
        <ele>102.52</ele>
        <time>2018-07-07T14:12:08Z</time>
      </trkpt>
      <trkpt lat="47.964726006612182" lon="-1.000520037487149">
        <ele>102.52</ele>
        <time>2018-07-07T14:12:15Z</time>
      </trkpt>
      <trkpt lat="47.965566962957382" lon="-1.001163013279438">
        <ele>102.52</ele>
        <time>2018-07-07T14:12:22Z</time>
      </trkpt>
      <trkpt lat="47.966989958658814" lon="-1.002248972654343">
        <ele>102.04000000000001</ele>
        <time>2018-07-07T14:12:31Z</time>
      </trkpt>
      <trkpt lat="47.96822402626276" lon="-1.003408022224903">
        <ele>100.59999999999999</ele>
        <time>2018-07-07T14:12:40Z</time>
      </trkpt>
      <trkpt lat="47.969322977587581" lon="-1.004615016281605">
        <ele>100.11</ele>
        <time>2018-07-07T14:12:49Z</time>
      </trkpt>
      <trkpt lat="47.969698989763856" lon="-1.00492699071765">
        <ele>100.11</ele>
        <time>2018-07-07T14:12:52Z</time>
      </trkpt>
      <trkpt lat="47.969822036102414" lon="-1.004988010972738">
        <ele>100.11</ele>
        <time>2018-07-07T14:12:53Z</time>
      </trkpt>
      <trkpt lat="47.970039965584874" lon="-1.005096975713968">
        <ele>100.59999999999999</ele>
        <time>2018-07-07T14:12:55Z</time>
      </trkpt>
      <trkpt lat="47.970207016915083" lon="-1.005253968760371">
        <ele>101.56</ele>
        <time>2018-07-07T14:12:57Z</time>
      </trkpt>
      <trkpt lat="47.970623010769486" lon="-1.005632998421788">
        <ele>103</ele>
        <time>2018-07-07T14:13:03Z</time>
      </trkpt>
      <trkpt lat="47.970700962468982" lon="-1.005700975656509">
        <ele>103</ele>
        <time>2018-07-07T14:13:04Z</time>
      </trkpt>
      <trkpt lat="47.970791989937425" lon="-1.005771970376372">
        <ele>103</ele>
        <time>2018-07-07T14:13:05Z</time>
      </trkpt>
      <trkpt lat="47.971999989822507" lon="-1.006183018907905">
        <ele>103.48</ele>
        <time>2018-07-07T14:13:15Z</time>
      </trkpt>
      <trkpt lat="47.972401985898614" lon="-1.006288966163993">
        <ele>104.44</ele>
        <time>2018-07-07T14:13:19Z</time>
      </trkpt>
      <trkpt lat="47.972445990890265" lon="-1.006300030276179">
        <ele>104.44</ele>
        <time>2018-07-07T14:13:20Z</time>
      </trkpt>
      <trkpt lat="47.972497036680579" lon="-1.006192993372679">
        <ele>104.44</ele>
        <time>2018-07-07T14:13:21Z</time>
      </trkpt>
      <trkpt lat="47.972542969509959" lon="-1.006095008924604">
        <ele>104.44</ele>
        <time>2018-07-07T14:13:22Z</time>
      </trkpt>
      <trkpt lat="47.972598038613796" lon="-1.005977997556329">
        <ele>104.44</ele>
        <time>2018-07-07T14:13:23Z</time>
      </trkpt>
      <trkpt lat="47.972658975049853" lon="-1.005846988409758">
        <ele>104.92</ele>
        <time>2018-07-07T14:13:24Z</time>
      </trkpt>
      <trkpt lat="47.972914958372712" lon="-1.005305014550686">
        <ele>104.92</ele>
        <time>2018-07-07T14:13:28Z</time>
      </trkpt>
      <trkpt lat="47.972960975021124" lon="-1.005186997354031">
        <ele>104.44</ele>
        <time>2018-07-07T14:13:29Z</time>
      </trkpt>
      <trkpt lat="47.972960975021124" lon="-1.005049031227827">
        <ele>104.44</ele>
        <time>2018-07-07T14:13:30Z</time>
      </trkpt>
      <trkpt lat="47.972960975021124" lon="-1.004906035959721">
        <ele>104.44</ele>
        <time>2018-07-07T14:13:31Z</time>
      </trkpt>
      <trkpt lat="47.972932979464531" lon="-1.004780977964401">
        <ele>103.95999999999999</ele>
        <time>2018-07-07T14:13:32Z</time>
      </trkpt>
      <trkpt lat="47.972900960594416" lon="-1.004642006009817">
        <ele>103.95999999999999</ele>
        <time>2018-07-07T14:13:33Z</time>
      </trkpt>
      <trkpt lat="47.972510028630495" lon="-1.003206018358469">
        <ele>106.84</ele>
        <time>2018-07-07T14:13:42Z</time>
      </trkpt>
      <trkpt lat="47.972488990053535" lon="-1.002879040315747">
        <ele>107.31999999999999</ele>
        <time>2018-07-07T14:13:44Z</time>
      </trkpt>
      <trkpt lat="47.97247901558876" lon="-1.00271500647068">
        <ele>106.84</ele>
        <time>2018-07-07T14:13:45Z</time>
      </trkpt>
      <trkpt lat="47.972446996718645" lon="-1.002214020118117">
        <ele>107.31999999999999</ele>
        <time>2018-07-07T14:13:48Z</time>
      </trkpt>
      <trkpt lat="47.972412966191769" lon="-1.002042023465037">
        <ele>107.31999999999999</ele>
        <time>2018-07-07T14:13:49Z</time>
      </trkpt>
      <trkpt lat="47.971981968730688" lon="-1.000261958688498">
        <ele>105.40000000000001</ele>
        <time>2018-07-07T14:13:58Z</time>
      </trkpt>
      <trkpt lat="47.971217036247253" lon="-0.998207973316312">
        <ele>102.04000000000001</ele>
        <time>2018-07-07T14:14:08Z</time>
      </trkpt>
      <trkpt lat="47.970815962180495" lon="-0.996709959581494">
        <ele>99.150000000000006</ele>
        <time>2018-07-07T14:14:16Z</time>
      </trkpt>
      <trkpt lat="47.970514968037605" lon="-0.994345005601645">
        <ele>99.629999999999995</ele>
        <time>2018-07-07T14:14:27Z</time>
      </trkpt>
      <trkpt lat="47.970616975799203" lon="-0.992506016045809">
        <ele>98.670000000000002</ele>
        <time>2018-07-07T14:14:36Z</time>
      </trkpt>
      <trkpt lat="47.970714038237929" lon="-0.990741960704327">
        <ele>96.75</ele>
        <time>2018-07-07T14:14:43Z</time>
      </trkpt>
      <trkpt lat="47.970474986359477" lon="-0.988829964771867">
        <ele>94.829999999999998</ele>
        <time>2018-07-07T14:14:51Z</time>
      </trkpt>
      <trkpt lat="47.970322016626596" lon="-0.986552014946938">
        <ele>88.099999999999994</ele>
        <time>2018-07-07T14:15:01Z</time>
      </trkpt>
      <trkpt lat="47.970331991091371" lon="-0.986370965838432">
        <ele>87.620000000000005</ele>
        <time>2018-07-07T14:15:02Z</time>
      </trkpt>
      <trkpt lat="47.970385970547795" lon="-0.985940974205732">
        <ele>85.689999999999998</ele>
        <time>2018-07-07T14:15:06Z</time>
      </trkpt>
      <trkpt lat="47.970392005518079" lon="-0.985886994749308">
        <ele>85.689999999999998</ele>
        <time>2018-07-07T14:15:07Z</time>
      </trkpt>
      <trkpt lat="47.970397034659982" lon="-0.985847013071179">
        <ele>85.689999999999998</ele>
        <time>2018-07-07T14:15:08Z</time>
      </trkpt>
      <trkpt lat="47.970397034659982" lon="-0.985847013071179">
        <ele>85.209999999999994</ele>
        <time>2018-07-07T14:15:09Z</time>
      </trkpt>
      <trkpt lat="47.970503987744451" lon="-0.985851958394051">
        <ele>84.730000000000004</ele>
        <time>2018-07-07T14:15:14Z</time>
      </trkpt>
      <trkpt lat="47.970560984686017" lon="-0.985903004184365">
        <ele>84.730000000000004</ele>
        <time>2018-07-07T14:15:15Z</time>
      </trkpt>
      <trkpt lat="47.970632985234261" lon="-0.985966958105564">
        <ele>84.730000000000004</ele>
        <time>2018-07-07T14:15:16Z</time>
      </trkpt>
      <trkpt lat="47.971329018473625" lon="-0.986589984968305">
        <ele>86.180000000000007</ele>
        <time>2018-07-07T14:15:22Z</time>
      </trkpt>
      <trkpt lat="47.972838012501597" lon="-0.987945003435016">
        <ele>89.060000000000002</ele>
        <time>2018-07-07T14:15:32Z</time>
      </trkpt>
      <trkpt lat="47.974195964634418" lon="-0.989164989441633">
        <ele>85.209999999999994</ele>
        <time>2018-07-07T14:15:43Z</time>
      </trkpt>
      <trkpt lat="47.976079965010285" lon="-0.990858972072601">
        <ele>78.969999999999999</ele>
        <time>2018-07-07T14:15:57Z</time>
      </trkpt>
      <trkpt lat="47.977438000962138" lon="-0.991980973631144">
        <ele>76.560000000000002</ele>
        <time>2018-07-07T14:16:07Z</time>
      </trkpt>
      <trkpt lat="47.977565992623568" lon="-0.992050040513277">
        <ele>76.560000000000002</ele>
        <time>2018-07-07T14:16:08Z</time>
      </trkpt>
      <trkpt lat="47.978643989190459" lon="-0.992267969995737">
        <ele>81.370000000000005</ele>
        <time>2018-07-07T14:16:17Z</time>
      </trkpt>
      <trkpt lat="47.980327997356653" lon="-0.992443989962339">
        <ele>90.019999999999996</ele>
        <time>2018-07-07T14:16:30Z</time>
      </trkpt>
      <trkpt lat="47.981811007484794" lon="-0.992597965523601">
        <ele>93.390000000000001</ele>
        <time>2018-07-07T14:16:38Z</time>
      </trkpt>
      <trkpt lat="47.983863987028599" lon="-0.992811033502221">
        <ele>95.790000000000006</ele>
        <time>2018-07-07T14:16:49Z</time>
      </trkpt>
      <trkpt lat="47.986059039831161" lon="-0.993027035146952">
        <ele>90.5</ele>
        <time>2018-07-07T14:17:02Z</time>
      </trkpt>
      <trkpt lat="47.988220984116197" lon="-0.993287963792682">
        <ele>95.790000000000006</ele>
        <time>2018-07-07T14:17:15Z</time>
      </trkpt>
      <trkpt lat="47.989241983741522" lon="-0.993401035666466">
        <ele>100.11</ele>
        <time>2018-07-07T14:17:24Z</time>
      </trkpt>
      <trkpt lat="47.989581031724811" lon="-0.993439005687833">
        <ele>101.56</ele>
        <time>2018-07-07T14:17:31Z</time>
      </trkpt>
      <trkpt lat="47.989632999524474" lon="-0.993445040658116">
        <ele>102.52</ele>
        <time>2018-07-07T14:17:33Z</time>
      </trkpt>
      <trkpt lat="47.989697037264705" lon="-0.993360970169306">
        <ele>102.52</ele>
        <time>2018-07-07T14:17:34Z</time>
      </trkpt>
      <trkpt lat="47.98973198980093" lon="-0.993289975449443">
        <ele>103</ele>
        <time>2018-07-07T14:17:35Z</time>
      </trkpt>
      <trkpt lat="47.989778006449342" lon="-0.99319601431489">
        <ele>103.48</ele>
        <time>2018-07-07T14:17:36Z</time>
      </trkpt>
      <trkpt lat="47.989831985905766" lon="-0.993083026260138">
        <ele>103.48</ele>
        <time>2018-07-07T14:17:37Z</time>
      </trkpt>
      <trkpt lat="47.989897029474378" lon="-0.992951011285186">
        <ele>103.95999999999999</ele>
        <time>2018-07-07T14:17:38Z</time>
      </trkpt>
      <trkpt lat="47.990543022751808" lon="-0.991623988375068">
        <ele>106.36</ele>
        <time>2018-07-07T14:17:45Z</time>
      </trkpt>
      <trkpt lat="47.991728978231549" lon="-0.989213017746806">
        <ele>103</ele>
        <time>2018-07-07T14:17:54Z</time>
      </trkpt>
      <trkpt lat="47.993066981434822" lon="-0.986501974985003">
        <ele>100.11</ele>
        <time>2018-07-07T14:18:05Z</time>
      </trkpt>
      <trkpt lat="47.994077000766993" lon="-0.98445201292634">
        <ele>95.790000000000006</ele>
        <time>2018-07-07T14:18:13Z</time>
      </trkpt>
      <trkpt lat="47.995761008933187" lon="-0.981029011309147">
        <ele>81.370000000000005</ele>
        <time>2018-07-07T14:18:26Z</time>
      </trkpt>
      <trkpt lat="47.997521962970495" lon="-0.97747097723186">
        <ele>92.420000000000002</ele>
        <time>2018-07-07T14:18:40Z</time>
      </trkpt>
      <trkpt lat="47.999446028843522" lon="-0.973556963726878">
        <ele>95.310000000000002</ele>
        <time>2018-07-07T14:18:55Z</time>
      </trkpt>
      <trkpt lat="48.000659979879856" lon="-0.971074998378754">
        <ele>98.189999999999998</ele>
        <time>2018-07-07T14:19:06Z</time>
      </trkpt>
      <trkpt lat="48.001723978668451" lon="-0.968952029943466">
        <ele>94.349999999999994</ele>
        <time>2018-07-07T14:19:19Z</time>
      </trkpt>
      <trkpt lat="48.002625033259392" lon="-0.967107005417347">
        <ele>91.939999999999998</ele>
        <time>2018-07-07T14:19:32Z</time>
      </trkpt>
      <trkpt lat="48.003517035394907" lon="-0.965316966176033">
        <ele>92.900000000000006</ele>
        <time>2018-07-07T14:19:46Z</time>
      </trkpt>
      <trkpt lat="48.004236035048962" lon="-0.963871004059911">
        <ele>92.900000000000006</ele>
        <time>2018-07-07T14:19:58Z</time>
      </trkpt>
      <trkpt lat="48.00472897477448" lon="-0.962868025526404">
        <ele>90.980000000000004</ele>
        <time>2018-07-07T14:20:07Z</time>
      </trkpt>
      <trkpt lat="48.004773985594511" lon="-0.962781021371484">
        <ele>90.5</ele>
        <time>2018-07-07T14:20:08Z</time>
      </trkpt>
      <trkpt lat="48.004816984757781" lon="-0.962694017216563">
        <ele>90.019999999999996</ele>
        <time>2018-07-07T14:20:09Z</time>
      </trkpt>
      <trkpt lat="48.004869036376476" lon="-0.962591003626585">
        <ele>90.019999999999996</ele>
        <time>2018-07-07T14:20:10Z</time>
      </trkpt>
      <trkpt lat="48.00489803776145" lon="-0.962527971714735">
        <ele>89.540000000000006</ele>
        <time>2018-07-07T14:20:11Z</time>
      </trkpt>
      <trkpt lat="48.004937013611197" lon="-0.962442979216576">
        <ele>89.060000000000002</ele>
        <time>2018-07-07T14:20:12Z</time>
      </trkpt>
      <trkpt lat="48.005358036607504" lon="-0.961347967386246">
        <ele>86.180000000000007</ele>
        <time>2018-07-07T14:20:22Z</time>
      </trkpt>
      <trkpt lat="48.005837984383106" lon="-0.960049023851752">
        <ele>83.290000000000006</ele>
        <time>2018-07-07T14:20:33Z</time>
      </trkpt>
      <trkpt lat="48.00588701851666" lon="-0.959937041625381">
        <ele>83.290000000000006</ele>
        <time>2018-07-07T14:20:34Z</time>
      </trkpt>
      <trkpt lat="48.005928006023169" lon="-0.95980703830719">
        <ele>83.290000000000006</ele>
        <time>2018-07-07T14:20:35Z</time>
      </trkpt>
      <trkpt lat="48.006033031269908" lon="-0.959438988938928">
        <ele>83.290000000000006</ele>
        <time>2018-07-07T14:20:38Z</time>
      </trkpt>
      <trkpt lat="48.006066977977753" lon="-0.959320971742272">
        <ele>83.290000000000006</ele>
        <time>2018-07-07T14:20:39Z</time>
      </trkpt>
      <trkpt lat="48.006111988797784" lon="-0.959047973155975">
        <ele>82.329999999999998</ele>
        <time>2018-07-07T14:20:41Z</time>
      </trkpt>
      <trkpt lat="48.006179966032505" lon="-0.958964992314577">
        <ele>82.329999999999998</ele>
        <time>2018-07-07T14:20:42Z</time>
      </trkpt>
      <trkpt lat="48.00625397823751" lon="-0.958875976502895">
        <ele>82.329999999999998</ele>
        <time>2018-07-07T14:20:43Z</time>
      </trkpt>
      <trkpt lat="48.007175987586379" lon="-0.957744000479579">
        <ele>83.290000000000006</ele>
        <time>2018-07-07T14:20:54Z</time>
      </trkpt>
      <trkpt lat="48.007425013929605" lon="-0.957376034930348">
        <ele>84.25</ele>
        <time>2018-07-07T14:20:57Z</time>
      </trkpt>
      <trkpt lat="48.008236968889832" lon="-0.955712981522083">
        <ele>85.209999999999994</ele>
        <time>2018-07-07T14:21:07Z</time>
      </trkpt>
      <trkpt lat="48.009667005389929" lon="-0.952761964872479">
        <ele>88.099999999999994</ele>
        <time>2018-07-07T14:21:22Z</time>
      </trkpt>
      <trkpt lat="48.010651040822268" lon="-0.95072097145021">
        <ele>92.900000000000006</ele>
        <time>2018-07-07T14:21:32Z</time>
      </trkpt>
      <trkpt lat="48.012250978499651" lon="-0.947407018393278">
        <ele>104.92</ele>
        <time>2018-07-07T14:21:48Z</time>
      </trkpt>
      <trkpt lat="48.013878995552659" lon="-0.94405903480947">
        <ele>115.01000000000001</ele>
        <time>2018-07-07T14:22:03Z</time>
      </trkpt>
      <trkpt lat="48.015767019242048" lon="-0.940132029354572">
        <ele>121.26000000000001</ele>
        <time>2018-07-07T14:22:18Z</time>
      </trkpt>
      <trkpt lat="48.016848033294082" lon="-0.937953991815448">
        <ele>118.86</ele>
        <time>2018-07-07T14:22:27Z</time>
      </trkpt>
      <trkpt lat="48.018527012318373" lon="-0.934326974675059">
        <ele>118.38</ele>
        <time>2018-07-07T14:22:41Z</time>
      </trkpt>
      <trkpt lat="48.020762968808413" lon="-0.929650962352753">
        <ele>113.09</ele>
        <time>2018-07-07T14:22:59Z</time>
      </trkpt>
      <trkpt lat="48.021895028650761" lon="-0.927283996716142">
        <ele>106.84</ele>
        <time>2018-07-07T14:23:08Z</time>
      </trkpt>
      <trkpt lat="48.023629998788238" lon="-0.923655973747373">
        <ele>107.31999999999999</ele>
        <time>2018-07-07T14:23:22Z</time>
      </trkpt>
      <trkpt lat="48.025666968896985" lon="-0.919378018006682">
        <ele>112.13</ele>
        <time>2018-07-07T14:23:38Z</time>
      </trkpt>
      <trkpt lat="48.027419038116932" lon="-0.91567799448967">
        <ele>113.56999999999999</ele>
        <time>2018-07-07T14:23:52Z</time>
      </trkpt>
      <trkpt lat="48.029541000723839" lon="-0.911195017397404">
        <ele>102.04000000000001</ele>
        <time>2018-07-07T14:24:09Z</time>
      </trkpt>
      <trkpt lat="48.031248981133103" lon="-0.907568000257015">
        <ele>112.13</ele>
        <time>2018-07-07T14:24:23Z</time>
      </trkpt>
      <trkpt lat="48.033631034195423" lon="-0.902526034042239">
        <ele>115.5</ele>
        <time>2018-07-07T14:24:42Z</time>
      </trkpt>
      <trkpt lat="48.035433981567621" lon="-0.898710004985332">
        <ele>115.5</ele>
        <time>2018-07-07T14:24:57Z</time>
      </trkpt>
      <trkpt lat="48.035914013162255" lon="-0.897695040330291">
        <ele>115.98</ele>
        <time>2018-07-07T14:25:04Z</time>
      </trkpt>
      <trkpt lat="48.035952989012003" lon="-0.897577023133636">
        <ele>115.5</ele>
        <time>2018-07-07T14:25:05Z</time>
      </trkpt>
      <trkpt lat="48.035921975970268" lon="-0.897495970129967">
        <ele>115.5</ele>
        <time>2018-07-07T14:25:06Z</time>
      </trkpt>
      <trkpt lat="48.035884005948901" lon="-0.89739597402513">
        <ele>115.01000000000001</ele>
        <time>2018-07-07T14:25:07Z</time>
      </trkpt>
      <trkpt lat="48.035837989300489" lon="-0.897276028990746">
        <ele>115.01000000000001</ele>
        <time>2018-07-07T14:25:08Z</time>
      </trkpt>
      <trkpt lat="48.03566699847579" lon="-0.896832039579749">
        <ele>113.56999999999999</ele>
        <time>2018-07-07T14:25:11Z</time>
      </trkpt>
      <trkpt lat="48.035574965178967" lon="-0.896679991856217">
        <ele>113.09</ele>
        <time>2018-07-07T14:25:12Z</time>
      </trkpt>
      <trkpt lat="48.035464994609356" lon="-0.896542025730014">
        <ele>112.13</ele>
        <time>2018-07-07T14:25:13Z</time>
      </trkpt>
      <trkpt lat="48.035347983241081" lon="-0.896396012976766">
        <ele>111.65000000000001</ele>
        <time>2018-07-07T14:25:14Z</time>
      </trkpt>
      <trkpt lat="48.035210017114878" lon="-0.896223010495305">
        <ele>110.69</ele>
        <time>2018-07-07T14:25:15Z</time>
      </trkpt>
      <trkpt lat="48.033791966736317" lon="-0.894793979823589">
        <ele>103.48</ele>
        <time>2018-07-07T14:25:24Z</time>
      </trkpt>
      <trkpt lat="48.03186303935945" lon="-0.892842002213001">
        <ele>108.29000000000001</ele>
        <time>2018-07-07T14:25:36Z</time>
      </trkpt>
      <trkpt lat="48.029079996049404" lon="-0.890035992488265">
        <ele>123.67</ele>
        <time>2018-07-07T14:25:53Z</time>
      </trkpt>
      <trkpt lat="48.026955015957355" lon="-0.887921992689371">
        <ele>125.59</ele>
        <time>2018-07-07T14:26:06Z</time>
      </trkpt>
      <trkpt lat="48.02460397593677" lon="-0.885744960978627">
        <ele>118.38</ele>
        <time>2018-07-07T14:26:20Z</time>
      </trkpt>
      <trkpt lat="48.023076960816979" lon="-0.884392037987709">
        <ele>109.73</ele>
        <time>2018-07-07T14:26:29Z</time>
      </trkpt>
      <trkpt lat="48.022661972790956" lon="-0.883787032216787">
        <ele>106.84</ele>
        <time>2018-07-07T14:26:32Z</time>
      </trkpt>
      <trkpt lat="48.022546973079443" lon="-0.883554015308619">
        <ele>106.36</ele>
        <time>2018-07-07T14:26:33Z</time>
      </trkpt>
      <trkpt lat="48.022449994459748" lon="-0.883308006450534">
        <ele>105.88</ele>
        <time>2018-07-07T14:26:34Z</time>
      </trkpt>
      <trkpt lat="48.021825039759278" lon="-0.880870968103409">
        <ele>102.04000000000001</ele>
        <time>2018-07-07T14:26:43Z</time>
      </trkpt>
      <trkpt lat="48.021433018147945" lon="-0.878923013806343">
        <ele>101.08</ele>
        <time>2018-07-07T14:26:50Z</time>
      </trkpt>
      <trkpt lat="48.021331010386348" lon="-0.878710029646754">
        <ele>100.59999999999999</ele>
        <time>2018-07-07T14:26:51Z</time>
      </trkpt>
      <trkpt lat="48.02122799679637" lon="-0.878504002466798">
        <ele>100.11</ele>
        <time>2018-07-07T14:26:52Z</time>
      </trkpt>
      <trkpt lat="48.021093970164657" lon="-0.87833602912724">
        <ele>99.629999999999995</ele>
        <time>2018-07-07T14:26:53Z</time>
      </trkpt>
      <trkpt lat="48.020951980724931" lon="-0.878156991675496">
        <ele>99.150000000000006</ele>
        <time>2018-07-07T14:26:54Z</time>
      </trkpt>
      <trkpt lat="48.020802028477192" lon="-0.877969991415739">
        <ele>98.670000000000002</ele>
        <time>2018-07-07T14:26:55Z</time>
      </trkpt>
      <trkpt lat="48.019956964999437" lon="-0.876843966543674">
        <ele>96.269999999999996</ele>
        <time>2018-07-07T14:27:01Z</time>
      </trkpt>
      <trkpt lat="48.019850011914968" lon="-0.876672975718975">
        <ele>95.790000000000006</ele>
        <time>2018-07-07T14:27:02Z</time>
      </trkpt>
      <trkpt lat="48.019777005538344" lon="-0.876481030136347">
        <ele>95.310000000000002</ele>
        <time>2018-07-07T14:27:03Z</time>
      </trkpt>
      <trkpt lat="48.019716991111636" lon="-0.876287994906306">
        <ele>94.829999999999998</ele>
        <time>2018-07-07T14:27:04Z</time>
      </trkpt>
      <trkpt lat="48.01968103274703" lon="-0.876070987433195">
        <ele>94.349999999999994</ele>
        <time>2018-07-07T14:27:05Z</time>
      </trkpt>
      <trkpt lat="48.019653959199786" lon="-0.875860014930367">
        <ele>93.870000000000005</ele>
        <time>2018-07-07T14:27:06Z</time>
      </trkpt>
      <trkpt lat="48.019657982513309" lon="-0.875626998022199">
        <ele>93.390000000000001</ele>
        <time>2018-07-07T14:27:07Z</time>
      </trkpt>
      <trkpt lat="48.019662005826831" lon="-0.875392975285649">
        <ele>92.900000000000006</ele>
        <time>2018-07-07T14:27:08Z</time>
      </trkpt>
      <trkpt lat="48.019665023311973" lon="-0.875161970034242">
        <ele>92.420000000000002</ele>
        <time>2018-07-07T14:27:09Z</time>
      </trkpt>
      <trkpt lat="48.019698970019817" lon="-0.873678037896752">
        <ele>91.459999999999994</ele>
        <time>2018-07-07T14:27:17Z</time>
      </trkpt>
      <trkpt lat="48.019735012203455" lon="-0.87264496833086">
        <ele>94.349999999999994</ele>
        <time>2018-07-07T14:27:26Z</time>
      </trkpt>
      <trkpt lat="48.019786980003119" lon="-0.871261032298207">
        <ele>99.629999999999995</ele>
        <time>2018-07-07T14:27:38Z</time>
      </trkpt>
      <trkpt lat="48.019793014973402" lon="-0.871075037866831">
        <ele>100.59999999999999</ele>
        <time>2018-07-07T14:27:40Z</time>
      </trkpt>
      <trkpt lat="48.019796032458544" lon="-0.871003959327936">
        <ele>101.08</ele>
        <time>2018-07-07T14:27:41Z</time>
      </trkpt>
      <trkpt lat="48.019798966124654" lon="-0.870940005406737">
        <ele>101.56</ele>
        <time>2018-07-07T14:27:42Z</time>
      </trkpt>
      <trkpt lat="48.019800977781415" lon="-0.870887031778693">
        <ele>102.04000000000001</ele>
        <time>2018-07-07T14:27:43Z</time>
      </trkpt>
      <trkpt lat="48.019793014973402" lon="-0.870812013745308">
        <ele>102.52</ele>
        <time>2018-07-07T14:27:44Z</time>
      </trkpt>
      <trkpt lat="48.019762001931667" lon="-0.87079600431025">
        <ele>103</ele>
        <time>2018-07-07T14:27:45Z</time>
      </trkpt>
      <trkpt lat="48.0197240319103" lon="-0.870777983218431">
        <ele>103.48</ele>
        <time>2018-07-07T14:27:46Z</time>
      </trkpt>
      <trkpt lat="48.019672986119986" lon="-0.87075300514698">
        <ele>103.95999999999999</ele>
        <time>2018-07-07T14:27:47Z</time>
      </trkpt>
      <trkpt lat="48.019624035805464" lon="-0.870770020410419">
        <ele>103.95999999999999</ele>
        <time>2018-07-07T14:27:48Z</time>
      </trkpt>
      <trkpt lat="48.019577013328671" lon="-0.870787035673857">
        <ele>103.95999999999999</ele>
        <time>2018-07-07T14:27:49Z</time>
      </trkpt>
      <trkpt lat="48.019529990851879" lon="-0.870802961289883">
        <ele>103.95999999999999</ele>
        <time>2018-07-07T14:27:50Z</time>
      </trkpt>
      <trkpt lat="48.019482968375087" lon="-0.870819976553321">
        <ele>103.95999999999999</ele>
        <time>2018-07-07T14:27:51Z</time>
      </trkpt>
      <trkpt lat="48.019439969211817" lon="-0.870834980159998">
        <ele>103.95999999999999</ele>
        <time>2018-07-07T14:27:52Z</time>
      </trkpt>
      <trkpt lat="48.019399987533689" lon="-0.870848977938294">
        <ele>103.95999999999999</ele>
        <time>2018-07-07T14:27:53Z</time>
      </trkpt>
      <trkpt lat="48.019332010298967" lon="-0.870873034000397">
        <ele>103.48</ele>
        <time>2018-07-07T14:27:55Z</time>
      </trkpt>
      <trkpt lat="48.019309965893626" lon="-0.87088099680841">
        <ele>103.48</ele>
        <time>2018-07-07T14:27:56Z</time>
      </trkpt>
      <trkpt lat="48.019300997257233" lon="-0.870828023180366">
        <ele>103.48</ele>
        <time>2018-07-07T14:27:57Z</time>
      </trkpt>
      <trkpt lat="48.019289011135697" lon="-0.8707519993186">
        <ele>103.48</ele>
        <time>2018-07-07T14:27:58Z</time>
      </trkpt>
      <trkpt lat="48.019275013357401" lon="-0.870668012648821">
        <ele>103.48</ele>
        <time>2018-07-07T14:27:59Z</time>
      </trkpt>
      <trkpt lat="48.019261015579104" lon="-0.870578996837139">
        <ele>103.48</ele>
        <time>2018-07-07T14:28:00Z</time>
      </trkpt>
      <trkpt lat="48.019248023629189" lon="-0.870497021824121">
        <ele>103.48</ele>
        <time>2018-07-07T14:28:01Z</time>
      </trkpt>
      <trkpt lat="48.019217010587454" lon="-0.870307004079223">
        <ele>103</ele>
        <time>2018-07-07T14:28:04Z</time>
      </trkpt>
      <trkpt lat="48.019212987273932" lon="-0.870211031287909">
        <ele>103</ele>
        <time>2018-07-07T14:28:05Z</time>
      </trkpt>
      <trkpt lat="48.019259003922343" lon="-0.870186975225806">
        <ele>102.52</ele>
        <time>2018-07-07T14:28:06Z</time>
      </trkpt>
      <trkpt lat="48.019318012520671" lon="-0.870157973840833">
        <ele>102.04000000000001</ele>
        <time>2018-07-07T14:28:07Z</time>
      </trkpt>
      <trkpt lat="48.019380960613489" lon="-0.870126960799098">
        <ele>102.04000000000001</ele>
        <time>2018-07-07T14:28:08Z</time>
      </trkpt>
      <trkpt lat="48.019441980868578" lon="-0.870096031576395">
        <ele>101.56</ele>
        <time>2018-07-07T14:28:09Z</time>
      </trkpt>
      <trkpt lat="48.019498977810144" lon="-0.870068036019802">
        <ele>101.56</ele>
        <time>2018-07-07T14:28:10Z</time>
      </trkpt>
      <trkpt lat="48.019765019416809" lon="-0.869984971359372">
        <ele>101.56</ele>
        <time>2018-07-07T14:28:14Z</time>
      </trkpt>
      <trkpt lat="48.019955959171057" lon="-0.870016990229487">
        <ele>101.56</ele>
        <time>2018-07-07T14:28:17Z</time>
      </trkpt>
      <trkpt lat="48.019976997748017" lon="-0.869974996894598">
        <ele>101.08</ele>
        <time>2018-07-07T14:28:18Z</time>
      </trkpt>
      <trkpt lat="48.020001975819468" lon="-0.869917999953032">
        <ele>101.08</ele>
        <time>2018-07-07T14:28:19Z</time>
      </trkpt>
      <trkpt lat="48.020022008568048" lon="-0.869845999404788">
        <ele>101.08</ele>
        <time>2018-07-07T14:28:20Z</time>
      </trkpt>
      <trkpt lat="48.020042041316628" lon="-0.869771987199783">
        <ele>101.08</ele>
        <time>2018-07-07T14:28:21Z</time>
      </trkpt>
      <trkpt lat="48.020066013559699" lon="-0.869686994701624">
        <ele>101.08</ele>
        <time>2018-07-07T14:28:22Z</time>
      </trkpt>
      <trkpt lat="48.02008998580277" lon="-0.869600996375084">
        <ele>101.08</ele>
        <time>2018-07-07T14:28:23Z</time>
      </trkpt>
      <trkpt lat="48.020115969702601" lon="-0.869510974735022">
        <ele>101.08</ele>
        <time>2018-07-07T14:28:24Z</time>
      </trkpt>
      <trkpt lat="48.020141031593084" lon="-0.869421036913991">
        <ele>101.08</ele>
        <time>2018-07-07T14:28:25Z</time>
      </trkpt>
      <trkpt lat="48.020167015492916" lon="-0.86933302693069">
        <ele>101.08</ele>
        <time>2018-07-07T14:28:26Z</time>
      </trkpt>
      <trkpt lat="48.020252007991076" lon="-0.869059022516012">
        <ele>101.56</ele>
        <time>2018-07-07T14:28:29Z</time>
      </trkpt>
      <trkpt lat="48.02034798078239" lon="-0.868756016716361">
        <ele>102.04000000000001</ele>
        <time>2018-07-07T14:28:32Z</time>
      </trkpt>
      <trkpt lat="48.021040996536613" lon="-0.867363028228283">
        <ele>104.44</ele>
        <time>2018-07-07T14:28:44Z</time>
      </trkpt>
      <trkpt lat="48.021837025880814" lon="-0.865825032815337">
        <ele>110.69</ele>
        <time>2018-07-07T14:28:55Z</time>
      </trkpt>
      <trkpt lat="48.022563988342881" lon="-0.864418968558311">
        <ele>114.53</ele>
        <time>2018-07-07T14:29:04Z</time>
      </trkpt>
      <trkpt lat="48.023522961884737" lon="-0.862973006442189">
        <ele>113.09</ele>
        <time>2018-07-07T14:29:13Z</time>
      </trkpt>
      <trkpt lat="48.024522000923753" lon="-0.861507011577487">
        <ele>105.40000000000001</ele>
        <time>2018-07-07T14:29:21Z</time>
      </trkpt>
      <trkpt lat="48.025989001616836" lon="-0.859211962670088">
        <ele>90.019999999999996</ele>
        <time>2018-07-07T14:29:32Z</time>
      </trkpt>
      <trkpt lat="48.026121016591787" lon="-0.858990009874105">
        <ele>88.579999999999998</ele>
        <time>2018-07-07T14:29:33Z</time>
      </trkpt>
      <trkpt lat="48.026217995211482" lon="-0.858724974095821">
        <ele>87.140000000000001</ele>
        <time>2018-07-07T14:29:34Z</time>
      </trkpt>
      <trkpt lat="48.026318997144699" lon="-0.858449963852763">
        <ele>86.180000000000007</ele>
        <time>2018-07-07T14:29:35Z</time>
      </trkpt>
      <trkpt lat="48.026398960500956" lon="-0.858155004680157">
        <ele>85.209999999999994</ele>
        <time>2018-07-07T14:29:36Z</time>
      </trkpt>
      <trkpt lat="48.02647196687758" lon="-0.857849987223744">
        <ele>84.730000000000004</ele>
        <time>2018-07-07T14:29:37Z</time>
      </trkpt>
      <trkpt lat="48.027271013706923" lon="-0.855336003005505">
        <ele>92.420000000000002</ele>
        <time>2018-07-07T14:29:46Z</time>
      </trkpt>
      <trkpt lat="48.028472978621721" lon="-0.853070039302111">
        <ele>98.189999999999998</ele>
        <time>2018-07-07T14:29:55Z</time>
      </trkpt>
      <trkpt lat="48.030321020632982" lon="-0.85023301653564">
        <ele>109.73</ele>
        <time>2018-07-07T14:30:07Z</time>
      </trkpt>
      <trkpt lat="48.031696993857622" lon="-0.847971998155117">
        <ele>117.90000000000001</ele>
        <time>2018-07-07T14:30:17Z</time>
      </trkpt>
      <trkpt lat="48.033527014777064" lon="-0.845968974754214">
        <ele>117.42</ele>
        <time>2018-07-07T14:30:28Z</time>
      </trkpt>
      <trkpt lat="48.035093005746603" lon="-0.844054967164993">
        <ele>115.5</ele>
        <time>2018-07-07T14:30:38Z</time>
      </trkpt>
      <trkpt lat="48.035202976316214" lon="-0.843837037682533">
        <ele>115.5</ele>
        <time>2018-07-07T14:30:39Z</time>
      </trkpt>
      <trkpt lat="48.035309007391334" lon="-0.843624975532293">
        <ele>115.5</ele>
        <time>2018-07-07T14:30:40Z</time>
      </trkpt>
      <trkpt lat="48.035397017374635" lon="-0.843396987766027">
        <ele>115.5</ele>
        <time>2018-07-07T14:30:41Z</time>
      </trkpt>
      <trkpt lat="48.035445967689157" lon="-0.843141004443169">
        <ele>115.01000000000001</ele>
        <time>2018-07-07T14:30:42Z</time>
      </trkpt>
      <trkpt lat="48.035496007651091" lon="-0.842877980321646">
        <ele>115.01000000000001</ele>
        <time>2018-07-07T14:30:43Z</time>
      </trkpt>
      <trkpt lat="48.035547975450754" lon="-0.84260699339211">
        <ele>115.01000000000001</ele>
        <time>2018-07-07T14:30:44Z</time>
      </trkpt>
      <trkpt lat="48.035583011806011" lon="-0.842319997027516">
        <ele>115.01000000000001</ele>
        <time>2018-07-07T14:30:45Z</time>
      </trkpt>
      <trkpt lat="48.035888029262424" lon="-0.839023981243372">
        <ele>115.5</ele>
        <time>2018-07-07T14:30:56Z</time>
      </trkpt>
      <trkpt lat="48.036134960129857" lon="-0.836188970133662">
        <ele>117.90000000000001</ele>
        <time>2018-07-07T14:31:06Z</time>
      </trkpt>
      <trkpt lat="48.036179970949888" lon="-0.835950002074242">
        <ele>117.90000000000001</ele>
        <time>2018-07-07T14:31:07Z</time>
      </trkpt>
      <trkpt lat="48.036245014518499" lon="-0.835715979337692">
        <ele>117.90000000000001</ele>
        <time>2018-07-07T14:31:08Z</time>
      </trkpt>
      <trkpt lat="48.036603005602956" lon="-0.83474300801754">
        <ele>117.90000000000001</ele>
        <time>2018-07-07T14:31:12Z</time>
      </trkpt>
      <trkpt lat="48.036706019192934" lon="-0.834489958360791">
        <ele>117.90000000000001</ele>
        <time>2018-07-07T14:31:13Z</time>
      </trkpt>
      <trkpt lat="48.037058981135488" lon="-0.833742041140795">
        <ele>115.98</ele>
        <time>2018-07-07T14:31:16Z</time>
      </trkpt>
      <trkpt lat="48.038218030706048" lon="-0.831623012199998">
        <ele>109.73</ele>
        <time>2018-07-07T14:31:25Z</time>
      </trkpt>
      <trkpt lat="48.039258979260921" lon="-0.829386971890926">
        <ele>99.629999999999995</ele>
        <time>2018-07-07T14:31:34Z</time>
      </trkpt>
      <trkpt lat="48.03992098197341" lon="-0.827917959541082">
        <ele>91.459999999999994</ele>
        <time>2018-07-07T14:31:40Z</time>
      </trkpt>
      <trkpt lat="48.040051991119981" lon="-0.827730959281325">
        <ele>89.540000000000006</ele>
        <time>2018-07-07T14:31:41Z</time>
      </trkpt>
      <trkpt lat="48.040181994438171" lon="-0.827544964849949">
        <ele>88.099999999999994</ele>
        <time>2018-07-07T14:31:42Z</time>
      </trkpt>
      <trkpt lat="48.040339993312955" lon="-0.827422002330422">
        <ele>86.659999999999997</ele>
        <time>2018-07-07T14:31:43Z</time>
      </trkpt>
      <trkpt lat="48.040502015501261" lon="-0.827300967648625">
        <ele>84.730000000000004</ele>
        <time>2018-07-07T14:31:44Z</time>
      </trkpt>
      <trkpt lat="48.040665965527296" lon="-0.827192002907395">
        <ele>83.769999999999996</ele>
        <time>2018-07-07T14:31:45Z</time>
      </trkpt>
      <trkpt lat="48.040835028514266" lon="-0.827112961560488">
        <ele>82.329999999999998</ele>
        <time>2018-07-07T14:31:46Z</time>
      </trkpt>
      <trkpt lat="48.041307013481855" lon="-0.826876005157828">
        <ele>79.450000000000003</ele>
        <time>2018-07-07T14:31:49Z</time>
      </trkpt>
      <trkpt lat="48.041439028456807" lon="-0.826766034588218">
        <ele>78.480000000000004</ele>
        <time>2018-07-07T14:31:50Z</time>
      </trkpt>
      <trkpt lat="48.041548999026418" lon="-0.826636031270027">
        <ele>77.519999999999996</ele>
        <time>2018-07-07T14:31:51Z</time>
      </trkpt>
      <trkpt lat="48.041628962382674" lon="-0.826468979939818">
        <ele>76.560000000000002</ele>
        <time>2018-07-07T14:31:52Z</time>
      </trkpt>
      <trkpt lat="48.041712027043104" lon="-0.826296983286738">
        <ele>76.079999999999998</ele>
        <time>2018-07-07T14:31:53Z</time>
      </trkpt>
      <trkpt lat="48.041785033419728" lon="-0.826105959713459">
        <ele>75.599999999999994</ele>
        <time>2018-07-07T14:31:54Z</time>
      </trkpt>
      <trkpt lat="48.041821997612715" lon="-0.825883001089096">
        <ele>75.599999999999994</ele>
        <time>2018-07-07T14:31:55Z</time>
      </trkpt>
      <trkpt lat="48.041859967634082" lon="-0.825653001666069">
        <ele>75.599999999999994</ele>
        <time>2018-07-07T14:31:56Z</time>
      </trkpt>
      <trkpt lat="48.042233968153596" lon="-0.823552999645472">
        <ele>80.890000000000001</ele>
        <time>2018-07-07T14:32:05Z</time>
      </trkpt>
      <trkpt lat="48.042270010337234" lon="-0.823369016870856">
        <ele>81.370000000000005</ele>
        <time>2018-07-07T14:32:06Z</time>
      </trkpt>
      <trkpt lat="48.042459022253752" lon="-0.82275697030127">
        <ele>81.849999999999994</ele>
        <time>2018-07-07T14:32:10Z</time>
      </trkpt>
      <trkpt lat="48.042524987831712" lon="-0.822645993903279">
        <ele>82.329999999999998</ele>
        <time>2018-07-07T14:32:11Z</time>
      </trkpt>
      <trkpt lat="48.042618026956916" lon="-0.822553038597107">
        <ele>82.329999999999998</ele>
        <time>2018-07-07T14:32:12Z</time>
      </trkpt>
      <trkpt lat="48.042721962556243" lon="-0.822449019178748">
        <ele>82.810000000000002</ele>
        <time>2018-07-07T14:32:13Z</time>
      </trkpt>
      <trkpt lat="48.042846014723182" lon="-0.822383975610137">
        <ele>82.810000000000002</ele>
        <time>2018-07-07T14:32:14Z</time>
      </trkpt>
      <trkpt lat="48.042985992506146" lon="-0.82232303917408">
        <ele>82.810000000000002</ele>
        <time>2018-07-07T14:32:15Z</time>
      </trkpt>
      <trkpt lat="48.043138962239027" lon="-0.82226000726223">
        <ele>82.329999999999998</ele>
        <time>2018-07-07T14:32:16Z</time>
      </trkpt>
      <trkpt lat="48.043308025225997" lon="-0.822197981178761">
        <ele>81.849999999999994</ele>
        <time>2018-07-07T14:32:17Z</time>
      </trkpt>
      <trkpt lat="48.043472981080413" lon="-0.822137966752052">
        <ele>80.890000000000001</ele>
        <time>2018-07-07T14:32:18Z</time>
      </trkpt>
      <trkpt lat="48.043624022975564" lon="-0.822039982303977">
        <ele>79.930000000000007</ele>
        <time>2018-07-07T14:32:19Z</time>
      </trkpt>
      <trkpt lat="48.043750002980232" lon="-0.821915008127689">
        <ele>78.969999999999999</ele>
        <time>2018-07-07T14:32:20Z</time>
      </trkpt>
      <trkpt lat="48.043858967721462" lon="-0.821764972060919">
        <ele>78.480000000000004</ele>
        <time>2018-07-07T14:32:21Z</time>
      </trkpt>
      <trkpt lat="48.043924011290073" lon="-0.821581995114684">
        <ele>77.040000000000006</ele>
        <time>2018-07-07T14:32:22Z</time>
      </trkpt>
      <trkpt lat="48.043990982696414" lon="-0.821392983198166">
        <ele>76.560000000000002</ele>
        <time>2018-07-07T14:32:23Z</time>
      </trkpt>
      <trkpt lat="48.044057032093406" lon="-0.821179999038577">
        <ele>76.079999999999998</ele>
        <time>2018-07-07T14:32:24Z</time>
      </trkpt>
      <trkpt lat="48.044088967144489" lon="-0.820946982130408">
        <ele>75.120000000000005</ele>
        <time>2018-07-07T14:32:25Z</time>
      </trkpt>
      <trkpt lat="48.0441730376333" lon="-0.820500981062651">
        <ele>73.680000000000007</ele>
        <time>2018-07-07T14:32:27Z</time>
      </trkpt>
      <trkpt lat="48.04423900321126" lon="-0.820313980802894">
        <ele>73.680000000000007</ele>
        <time>2018-07-07T14:32:28Z</time>
      </trkpt>
      <trkpt lat="48.044322989881039" lon="-0.820162016898394">
        <ele>73.200000000000003</ele>
        <time>2018-07-07T14:32:29Z</time>
      </trkpt>
      <trkpt lat="48.044421980157495" lon="-0.820024972781539">
        <ele>72.719999999999999</ele>
        <time>2018-07-07T14:32:30Z</time>
      </trkpt>
      <trkpt lat="48.04453999735415" lon="-0.819922965019941">
        <ele>72.719999999999999</ele>
        <time>2018-07-07T14:32:31Z</time>
      </trkpt>
      <trkpt lat="48.044667989015579" lon="-0.819821963086724">
        <ele>72.719999999999999</ele>
        <time>2018-07-07T14:32:32Z</time>
      </trkpt>
      <trkpt lat="48.044805033132434" lon="-0.819715010002255">
        <ele>72.719999999999999</ele>
        <time>2018-07-07T14:32:33Z</time>
      </trkpt>
      <trkpt lat="48.045546999201179" lon="-0.819179993122816">
        <ele>70.790000000000006</ele>
        <time>2018-07-07T14:32:38Z</time>
      </trkpt>
      <trkpt lat="48.04647202603519" lon="-0.818660985678434">
        <ele>68.870000000000005</ele>
        <time>2018-07-07T14:32:45Z</time>
      </trkpt>
      <trkpt lat="48.046571016311646" lon="-0.818570964038372">
        <ele>68.870000000000005</ele>
        <time>2018-07-07T14:32:46Z</time>
      </trkpt>
      <trkpt lat="48.04666799493134" lon="-0.818459987640381">
        <ele>69.349999999999994</ele>
        <time>2018-07-07T14:32:47Z</time>
      </trkpt>
      <trkpt lat="48.047214997932315" lon="-0.817543007433414">
        <ele>69.829999999999998</ele>
        <time>2018-07-07T14:32:52Z</time>
      </trkpt>
      <trkpt lat="48.048238009214401" lon="-0.816084975376725">
        <ele>71.760000000000005</ele>
        <time>2018-07-07T14:32:59Z</time>
      </trkpt>
      <trkpt lat="48.049127999693155" lon="-0.814695004373789">
        <ele>78.969999999999999</ele>
        <time>2018-07-07T14:33:06Z</time>
      </trkpt>
      <trkpt lat="48.049606019631028" lon="-0.81375396810472">
        <ele>81.849999999999994</ele>
        <time>2018-07-07T14:33:11Z</time>
      </trkpt>
      <trkpt lat="48.049662010744214" lon="-0.81353796645999">
        <ele>82.810000000000002</ele>
        <time>2018-07-07T14:33:12Z</time>
      </trkpt>
      <trkpt lat="48.049705009907484" lon="-0.813307967036963">
        <ele>83.769999999999996</ele>
        <time>2018-07-07T14:33:13Z</time>
      </trkpt>
      <trkpt lat="48.049942972138524" lon="-0.811223974451423">
        <ele>90.980000000000004</ele>
        <time>2018-07-07T14:33:21Z</time>
      </trkpt>
      <trkpt lat="48.050071969628334" lon="-0.810576975345612">
        <ele>94.349999999999994</ele>
        <time>2018-07-07T14:33:24Z</time>
      </trkpt>
      <trkpt lat="48.050152016803622" lon="-0.810387041419744">
        <ele>95.310000000000002</ele>
        <time>2018-07-07T14:33:25Z</time>
      </trkpt>
      <trkpt lat="48.050247989594936" lon="-0.810212027281523">
        <ele>97.230000000000004</ele>
        <time>2018-07-07T14:33:26Z</time>
      </trkpt>
      <trkpt lat="48.05102800950408" lon="-0.809150962159038">
        <ele>107.81</ele>
        <time>2018-07-07T14:33:34Z</time>
      </trkpt>
      <trkpt lat="48.051683977246284" lon="-0.808688029646873">
        <ele>114.53</ele>
        <time>2018-07-07T14:33:41Z</time>
      </trkpt>
      <trkpt lat="48.051842981949449" lon="-0.808586021885276">
        <ele>115.5</ele>
        <time>2018-07-07T14:33:43Z</time>
      </trkpt>
      <trkpt lat="48.051917999982834" lon="-0.808537993580103">
        <ele>115.5</ele>
        <time>2018-07-07T14:33:44Z</time>
      </trkpt>
      <trkpt lat="48.051993018016219" lon="-0.80848996527493">
        <ele>115.98</ele>
        <time>2018-07-07T14:33:45Z</time>
      </trkpt>
      <trkpt lat="48.052068036049604" lon="-0.808443026617169">
        <ele>116.45999999999999</ele>
        <time>2018-07-07T14:33:46Z</time>
      </trkpt>
      <trkpt lat="48.052140036597848" lon="-0.808396004140377">
        <ele>116.45999999999999</ele>
        <time>2018-07-07T14:33:47Z</time>
      </trkpt>
      <trkpt lat="48.052190998569131" lon="-0.808293996378779">
        <ele>116.45999999999999</ele>
        <time>2018-07-07T14:33:48Z</time>
      </trkpt>
      <trkpt lat="48.052249001339078" lon="-0.808183019980788">
        <ele>116.45999999999999</ele>
        <time>2018-07-07T14:33:49Z</time>
      </trkpt>
      <trkpt lat="48.052313039079309" lon="-0.808060979470611">
        <ele>116.94</ele>
        <time>2018-07-07T14:33:50Z</time>
      </trkpt>
      <trkpt lat="48.053060034289956" lon="-0.806473027914763">
        <ele>115.5</ele>
        <time>2018-07-07T14:34:00Z</time>
      </trkpt>
      <trkpt lat="48.053597984835505" lon="-0.80500602722168">
        <ele>116.45999999999999</ele>
        <time>2018-07-07T14:34:08Z</time>
      </trkpt>
      <trkpt lat="48.053647018969059" lon="-0.804812991991639">
        <ele>116.45999999999999</ele>
        <time>2018-07-07T14:34:09Z</time>
      </trkpt>
      <trkpt lat="48.054216988384724" lon="-0.802848022431135">
        <ele>116.94</ele>
        <time>2018-07-07T14:34:20Z</time>
      </trkpt>
      <trkpt lat="48.054979993030429" lon="-0.800843993201852">
        <ele>117.90000000000001</ele>
        <time>2018-07-07T14:34:32Z</time>
      </trkpt>
      <trkpt lat="48.055279981344938" lon="-0.800045030191541">
        <ele>119.81999999999999</ele>
        <time>2018-07-07T14:34:38Z</time>
      </trkpt>
      <trkpt lat="48.055230025202036" lon="-0.799834979698062">
        <ele>119.81999999999999</ele>
        <time>2018-07-07T14:34:39Z</time>
      </trkpt>
      <trkpt lat="48.055290961638093" lon="-0.799655020236969">
        <ele>120.3</ele>
        <time>2018-07-07T14:34:40Z</time>
      </trkpt>
      <trkpt lat="48.055241005495191" lon="-0.799525016918778">
        <ele>120.3</ele>
        <time>2018-07-07T14:34:41Z</time>
      </trkpt>
      <trkpt lat="48.055184008553624" lon="-0.79937799833715">
        <ele>120.3</ele>
        <time>2018-07-07T14:34:42Z</time>
      </trkpt>
      <trkpt lat="48.055121982470155" lon="-0.799214970320463">
        <ele>120.3</ele>
        <time>2018-07-07T14:34:43Z</time>
      </trkpt>
      <trkpt lat="48.055055011063814" lon="-0.799040040001273">
        <ele>120.3</ele>
        <time>2018-07-07T14:34:44Z</time>
      </trkpt>
      <trkpt lat="48.054225035011768" lon="-0.797081021592021">
        <ele>121.26000000000001</ele>
        <time>2018-07-07T14:34:54Z</time>
      </trkpt>
      <trkpt lat="48.053071014583111" lon="-0.794749008491635">
        <ele>123.67</ele>
        <time>2018-07-07T14:35:08Z</time>
      </trkpt>
      <trkpt lat="48.052786029875278" lon="-0.794153977185488">
        <ele>123.19</ele>
        <time>2018-07-07T14:35:13Z</time>
      </trkpt>
      <trkpt lat="48.052739007398486" lon="-0.794060016050935">
        <ele>122.70999999999999</ele>
        <time>2018-07-07T14:35:14Z</time>
      </trkpt>
      <trkpt lat="48.052698019891977" lon="-0.793977035209537">
        <ele>122.70999999999999</ele>
        <time>2018-07-07T14:35:15Z</time>
      </trkpt>
      <trkpt lat="48.052483024075627" lon="-0.794020034372807">
        <ele>122.70999999999999</ele>
        <time>2018-07-07T14:35:16Z</time>
      </trkpt>
      <trkpt lat="48.05244698189199" lon="-0.793948033824563">
        <ele>122.70999999999999</ele>
        <time>2018-07-07T14:35:17Z</time>
      </trkpt>
      <trkpt lat="48.0524049885571" lon="-0.793863041326404">
        <ele>122.22</ele>
        <time>2018-07-07T14:35:18Z</time>
      </trkpt>
      <trkpt lat="48.052389984950423" lon="-0.793704958632588">
        <ele>122.22</ele>
        <time>2018-07-07T14:35:19Z</time>
      </trkpt>
      <trkpt lat="48.052429966628551" lon="-0.79359800554812">
        <ele>121.73999999999999</ele>
        <time>2018-07-07T14:35:20Z</time>
      </trkpt>
      <trkpt lat="48.052471959963441" lon="-0.793524999171495">
        <ele>121.73999999999999</ele>
        <time>2018-07-07T14:35:21Z</time>
      </trkpt>
      <trkpt lat="48.052549995481968" lon="-0.793472025543451">
        <ele>121.73999999999999</ele>
        <time>2018-07-07T14:35:22Z</time>
      </trkpt>
      <trkpt lat="48.052632976323366" lon="-0.79348904080689">
        <ele>121.26000000000001</ele>
        <time>2018-07-07T14:35:23Z</time>
      </trkpt>
      <trkpt lat="48.052731966599822" lon="-0.793519970029593">
        <ele>121.26000000000001</ele>
        <time>2018-07-07T14:35:24Z</time>
      </trkpt>
      <trkpt lat="48.052826011553407" lon="-0.793473031371832">
        <ele>121.26000000000001</ele>
        <time>2018-07-07T14:35:25Z</time>
      </trkpt>
      <trkpt lat="48.052932964637876" lon="-0.793418968096375">
        <ele>121.73999999999999</ele>
        <time>2018-07-07T14:35:26Z</time>
      </trkpt>
      <trkpt lat="48.053905013948679" lon="-0.792755037546158">
        <ele>121.73999999999999</ele>
        <time>2018-07-07T14:35:33Z</time>
      </trkpt>
      <trkpt lat="48.055479973554611" lon="-0.791574027389288">
        <ele>115.5</ele>
        <time>2018-07-07T14:35:44Z</time>
      </trkpt>
      <trkpt lat="48.056987039744854" lon="-0.790425036102533">
        <ele>106.36</ele>
        <time>2018-07-07T14:35:55Z</time>
      </trkpt>
      <trkpt lat="48.057906031608582" lon="-0.789207983762026">
        <ele>100.59999999999999</ele>
        <time>2018-07-07T14:36:03Z</time>
      </trkpt>
      <trkpt lat="48.058837009593844" lon="-0.787728996947408">
        <ele>94.829999999999998</ele>
        <time>2018-07-07T14:36:13Z</time>
      </trkpt>
      <trkpt lat="48.058906998485327" lon="-0.787617014721036">
        <ele>94.349999999999994</ele>
        <time>2018-07-07T14:36:14Z</time>
      </trkpt>
      <trkpt lat="48.058942034840584" lon="-0.78738902695477">
        <ele>93.870000000000005</ele>
        <time>2018-07-07T14:36:15Z</time>
      </trkpt>
      <trkpt lat="48.058969024568796" lon="-0.787327000871301">
        <ele>93.870000000000005</ele>
        <time>2018-07-07T14:36:16Z</time>
      </trkpt>
      <trkpt lat="48.059005988761783" lon="-0.787238990888">
        <ele>93.390000000000001</ele>
        <time>2018-07-07T14:36:17Z</time>
      </trkpt>
      <trkpt lat="48.059148984029889" lon="-0.787199009209871">
        <ele>93.390000000000001</ele>
        <time>2018-07-07T14:36:18Z</time>
      </trkpt>
      <trkpt lat="48.059218972921371" lon="-0.787099013105035">
        <ele>92.900000000000006</ele>
        <time>2018-07-07T14:36:19Z</time>
      </trkpt>
      <trkpt lat="48.059292985126376" lon="-0.786993987858295">
        <ele>92.420000000000002</ele>
        <time>2018-07-07T14:36:20Z</time>
      </trkpt>
      <trkpt lat="48.059371020644903" lon="-0.786884017288685">
        <ele>91.939999999999998</ele>
        <time>2018-07-07T14:36:21Z</time>
      </trkpt>
      <trkpt lat="48.059449978172779" lon="-0.78676700592041">
        <ele>91.459999999999994</ele>
        <time>2018-07-07T14:36:22Z</time>
      </trkpt>
      <trkpt lat="48.059532037004828" lon="-0.786645971238613">
        <ele>90.980000000000004</ele>
        <time>2018-07-07T14:36:23Z</time>
      </trkpt>
      <trkpt lat="48.060581032186747" lon="-0.785061959177256">
        <ele>83.769999999999996</ele>
        <time>2018-07-07T14:36:36Z</time>
      </trkpt>
      <trkpt lat="48.061005994677544" lon="-0.784370033070445">
        <ele>80.409999999999997</ele>
        <time>2018-07-07T14:36:42Z</time>
      </trkpt>
      <trkpt lat="48.06104002520442" lon="-0.784243969246745">
        <ele>80.409999999999997</ele>
        <time>2018-07-07T14:36:43Z</time>
      </trkpt>
      <trkpt lat="48.061068020761013" lon="-0.784112960100174">
        <ele>79.930000000000007</ele>
        <time>2018-07-07T14:36:44Z</time>
      </trkpt>
      <trkpt lat="48.061084030196071" lon="-0.783465960994363">
        <ele>78.969999999999999</ele>
        <time>2018-07-07T14:36:48Z</time>
      </trkpt>
      <trkpt lat="48.061044970527291" lon="-0.783292036503553">
        <ele>78.969999999999999</ele>
        <time>2018-07-07T14:36:49Z</time>
      </trkpt>
      <trkpt lat="48.060660995543003" lon="-0.781162027269602">
        <ele>80.409999999999997</ele>
        <time>2018-07-07T14:36:59Z</time>
      </trkpt>
      <trkpt lat="48.060199990868568" lon="-0.778518039733171">
        <ele>83.769999999999996</ele>
        <time>2018-07-07T14:37:11Z</time>
      </trkpt>
      <trkpt lat="48.05992104113102" lon="-0.776996975764632">
        <ele>84.730000000000004</ele>
        <time>2018-07-07T14:37:20Z</time>
      </trkpt>
      <trkpt lat="48.059851974248886" lon="-0.77653999440372">
        <ele>84.730000000000004</ele>
        <time>2018-07-07T14:37:27Z</time>
      </trkpt>
      <trkpt lat="48.059851974248886" lon="-0.77653999440372">
        <ele>84.730000000000004</ele>
        <time>2018-07-07T14:37:38Z</time>
      </trkpt>
      <trkpt lat="48.059774022549391" lon="-0.776115031912923">
        <ele>85.689999999999998</ele>
        <time>2018-07-07T14:37:45Z</time>
      </trkpt>
      <trkpt lat="48.059589033946395" lon="-0.775034017860889">
        <ele>86.180000000000007</ele>
        <time>2018-07-07T14:37:52Z</time>
      </trkpt>
      <trkpt lat="48.059288961812854" lon="-0.77327398583293">
        <ele>81.849999999999994</ele>
        <time>2018-07-07T14:38:00Z</time>
      </trkpt>
      <trkpt lat="48.059062985703349" lon="-0.771913016214967">
        <ele>75.599999999999994</ele>
        <time>2018-07-07T14:38:06Z</time>
      </trkpt>
      <trkpt lat="48.058704994618893" lon="-0.769763980060816">
        <ele>67.909999999999997</ele>
        <time>2018-07-07T14:38:16Z</time>
      </trkpt>
      <trkpt lat="48.058263016864657" lon="-0.767024019733071">
        <ele>58.299999999999997</ele>
        <time>2018-07-07T14:38:29Z</time>
      </trkpt>
      <trkpt lat="48.058340968564153" lon="-0.765396002680063">
        <ele>53.490000000000002</ele>
        <time>2018-07-07T14:38:37Z</time>
      </trkpt>
      <trkpt lat="48.058370975777507" lon="-0.765210008248687">
        <ele>53.009999999999998</ele>
        <time>2018-07-07T14:38:38Z</time>
      </trkpt>
      <trkpt lat="48.058736007660627" lon="-0.76371300034225">
        <ele>51.57</ele>
        <time>2018-07-07T14:38:47Z</time>
      </trkpt>
      <trkpt lat="48.058817982673645" lon="-0.763495992869139">
        <ele>51.090000000000003</ele>
        <time>2018-07-07T14:38:49Z</time>
      </trkpt>
      <trkpt lat="48.058883026242256" lon="-0.763346962630749">
        <ele>50.609999999999999</ele>
        <time>2018-07-07T14:38:51Z</time>
      </trkpt>
      <trkpt lat="48.058909010142088" lon="-0.763288037851453">
        <ele>50.130000000000003</ele>
        <time>2018-07-07T14:38:52Z</time>
      </trkpt>
      <trkpt lat="48.059229031205177" lon="-0.762547999620438">
        <ele>47.719999999999999</ele>
        <time>2018-07-07T14:39:00Z</time>
      </trkpt>
      <trkpt lat="48.060025982558727" lon="-0.761209996417165">
        <ele>47.240000000000002</ele>
        <time>2018-07-07T14:39:10Z</time>
      </trkpt>
      <trkpt lat="48.061177991330624" lon="-0.759473014622927">
        <ele>49.159999999999997</ele>
        <time>2018-07-07T14:39:23Z</time>
      </trkpt>
      <trkpt lat="48.062332011759281" lon="-0.758628034964204">
        <ele>49.159999999999997</ele>
        <time>2018-07-07T14:39:34Z</time>
      </trkpt>
      <trkpt lat="48.063912000507116" lon="-0.758002996444702">
        <ele>48.200000000000003</ele>
        <time>2018-07-07T14:39:47Z</time>
      </trkpt>
      <trkpt lat="48.06570203974843" lon="-0.757172014564276">
        <ele>53.490000000000002</ele>
        <time>2018-07-07T14:40:03Z</time>
      </trkpt>
      <trkpt lat="48.067071978002787" lon="-0.756587041541934">
        <ele>59.740000000000002</ele>
        <time>2018-07-07T14:40:16Z</time>
      </trkpt>
      <trkpt lat="48.067447990179062" lon="-0.756414039060473">
        <ele>62.140000000000001</ele>
        <time>2018-07-07T14:40:23Z</time>
      </trkpt>
      <trkpt lat="48.067488977685571" lon="-0.756395012140274">
        <ele>63.579999999999998</ele>
        <time>2018-07-07T14:40:26Z</time>
      </trkpt>
      <trkpt lat="48.067503981292248" lon="-0.75638797134161">
        <ele>63.579999999999998</ele>
        <time>2018-07-07T14:40:27Z</time>
      </trkpt>
      <trkpt lat="48.067660974338651" lon="-0.756313959136605">
        <ele>65.989999999999995</ele>
        <time>2018-07-07T14:40:32Z</time>
      </trkpt>
      <trkpt lat="48.06785199791193" lon="-0.756192002445459">
        <ele>65.989999999999995</ele>
        <time>2018-07-07T14:40:35Z</time>
      </trkpt>
      <trkpt lat="48.067931961268187" lon="-0.756104998290539">
        <ele>65.989999999999995</ele>
        <time>2018-07-07T14:40:36Z</time>
      </trkpt>
      <trkpt lat="48.067993987351656" lon="-0.756011959165335">
        <ele>65.989999999999995</ele>
        <time>2018-07-07T14:40:37Z</time>
      </trkpt>
      <trkpt lat="48.068054001778364" lon="-0.755915986374021">
        <ele>65.989999999999995</ele>
        <time>2018-07-07T14:40:38Z</time>
      </trkpt>
      <trkpt lat="48.068107981234789" lon="-0.755825964733958">
        <ele>66.469999999999999</ele>
        <time>2018-07-07T14:40:39Z</time>
      </trkpt>
      <trkpt lat="48.068164978176355" lon="-0.755700990557671">
        <ele>66.469999999999999</ele>
        <time>2018-07-07T14:40:40Z</time>
      </trkpt>
      <trkpt lat="48.068203032016754" lon="-0.75557098723948">
        <ele>66.950000000000003</ele>
        <time>2018-07-07T14:40:41Z</time>
      </trkpt>
      <trkpt lat="48.068246031180024" lon="-0.755425980314612">
        <ele>67.430000000000007</ele>
        <time>2018-07-07T14:40:42Z</time>
      </trkpt>
      <trkpt lat="48.068669987842441" lon="-0.753955040127039">
        <ele>69.829999999999998</ele>
        <time>2018-07-07T14:40:51Z</time>
      </trkpt>
      <trkpt lat="48.068894958123565" lon="-0.753115005791187">
        <ele>71.269999999999996</ele>
        <time>2018-07-07T14:40:56Z</time>
      </trkpt>
      <trkpt lat="48.069495018571615" lon="-0.750982984900475">
        <ele>72.239999999999995</ele>
        <time>2018-07-07T14:41:09Z</time>
      </trkpt>
      <trkpt lat="48.069734992459416" lon="-0.750123001635075">
        <ele>72.719999999999999</ele>
        <time>2018-07-07T14:41:17Z</time>
      </trkpt>
      <trkpt lat="48.069777991622686" lon="-0.74998402968049">
        <ele>72.239999999999995</ele>
        <time>2018-07-07T14:41:25Z</time>
      </trkpt>
      <trkpt lat="48.069782014936209" lon="-0.749970031902194">
        <ele>72.239999999999995</ele>
        <time>2018-07-07T14:41:29Z</time>
      </trkpt>
      <trkpt lat="48.069794001057744" lon="-0.749931978061795">
        <ele>72.239999999999995</ele>
        <time>2018-07-07T14:41:30Z</time>
      </trkpt>
      <trkpt lat="48.069813027977943" lon="-0.749870035797358">
        <ele>72.239999999999995</ele>
        <time>2018-07-07T14:41:31Z</time>
      </trkpt>
      <trkpt lat="48.070105975493789" lon="-0.749061014503241">
        <ele>71.760000000000005</ele>
        <time>2018-07-07T14:41:37Z</time>
      </trkpt>
      <trkpt lat="48.070712992921472" lon="-0.746957994997501">
        <ele>71.760000000000005</ele>
        <time>2018-07-07T14:41:47Z</time>
      </trkpt>
      <trkpt lat="48.071564007550478" lon="-0.744017958641052">
        <ele>66.469999999999999</ele>
        <time>2018-07-07T14:41:59Z</time>
      </trkpt>
      <trkpt lat="48.072590958327055" lon="-0.740310978144407">
        <ele>62.619999999999997</ele>
        <time>2018-07-07T14:42:12Z</time>
      </trkpt>
      <trkpt lat="48.073183977976441" lon="-0.737633965909481">
        <ele>65.510000000000005</ele>
        <time>2018-07-07T14:42:21Z</time>
      </trkpt>
      <trkpt lat="48.073160005733371" lon="-0.735417958348989">
        <ele>62.619999999999997</ele>
        <time>2018-07-07T14:42:28Z</time>
      </trkpt>
      <trkpt lat="48.073026984930038" lon="-0.733545022085309">
        <ele>63.100000000000001</ele>
        <time>2018-07-07T14:42:35Z</time>
      </trkpt>
      <trkpt lat="48.072862029075623" lon="-0.7313990034163">
        <ele>69.829999999999998</ele>
        <time>2018-07-07T14:42:46Z</time>
      </trkpt>
      <trkpt lat="48.07283503934741" lon="-0.731261037290096">
        <ele>70.310000000000002</ele>
        <time>2018-07-07T14:42:47Z</time>
      </trkpt>
      <trkpt lat="48.072809977456927" lon="-0.731138996779919">
        <ele>70.310000000000002</ele>
        <time>2018-07-07T14:42:48Z</time>
      </trkpt>
      <trkpt lat="48.072788016870618" lon="-0.731027014553547">
        <ele>70.310000000000002</ele>
        <time>2018-07-07T14:42:49Z</time>
      </trkpt>
      <trkpt lat="48.072609985247254" lon="-0.730913020670414">
        <ele>70.310000000000002</ele>
        <time>2018-07-07T14:42:50Z</time>
      </trkpt>
      <trkpt lat="48.072573021054268" lon="-0.730887958779931">
        <ele>70.310000000000002</ele>
        <time>2018-07-07T14:42:51Z</time>
      </trkpt>
      <trkpt lat="48.072479981929064" lon="-0.730826016515493">
        <ele>70.790000000000006</ele>
        <time>2018-07-07T14:42:52Z</time>
      </trkpt>
      <trkpt lat="48.072403036057949" lon="-0.730758039280772">
        <ele>70.790000000000006</ele>
        <time>2018-07-07T14:42:53Z</time>
      </trkpt>
      <trkpt lat="48.072337992489338" lon="-0.730641027912498">
        <ele>70.790000000000006</ele>
        <time>2018-07-07T14:42:54Z</time>
      </trkpt>
      <trkpt lat="48.072304967790842" lon="-0.730500966310501">
        <ele>70.790000000000006</ele>
        <time>2018-07-07T14:42:55Z</time>
      </trkpt>
      <trkpt lat="48.072294993326068" lon="-0.730342967435718">
        <ele>71.269999999999996</ele>
        <time>2018-07-07T14:42:56Z</time>
      </trkpt>
      <trkpt lat="48.072305973619223" lon="-0.730177005752921">
        <ele>71.269999999999996</ele>
        <time>2018-07-07T14:42:57Z</time>
      </trkpt>
      <trkpt lat="48.072351990267634" lon="-0.730050019919872">
        <ele>71.760000000000005</ele>
        <time>2018-07-07T14:42:58Z</time>
      </trkpt>
      <trkpt lat="48.072390966117382" lon="-0.72993996553123">
        <ele>71.760000000000005</ele>
        <time>2018-07-07T14:42:59Z</time>
      </trkpt>
      <trkpt lat="48.072315026074648" lon="-0.729774003848433">
        <ele>71.760000000000005</ele>
        <time>2018-07-07T14:43:00Z</time>
      </trkpt>
      <trkpt lat="48.072258029133081" lon="-0.729667972773314">
        <ele>71.269999999999996</ele>
        <time>2018-07-07T14:43:01Z</time>
      </trkpt>
      <trkpt lat="48.072199020534754" lon="-0.729564037173986">
        <ele>71.269999999999996</ele>
        <time>2018-07-07T14:43:02Z</time>
      </trkpt>
      <trkpt lat="48.072130037471652" lon="-0.729458006098866">
        <ele>70.790000000000006</ele>
        <time>2018-07-07T14:43:03Z</time>
      </trkpt>
      <trkpt lat="48.072061976417899" lon="-0.729352980852127">
        <ele>70.790000000000006</ele>
        <time>2018-07-07T14:43:04Z</time>
      </trkpt>
      <trkpt lat="48.071940019726753" lon="-0.729199005290866">
        <ele>70.310000000000002</ele>
        <time>2018-07-07T14:43:06Z</time>
      </trkpt>
      <trkpt lat="48.071895008906722" lon="-0.729162041097879">
        <ele>70.310000000000002</ele>
        <time>2018-07-07T14:43:07Z</time>
      </trkpt>
      <trkpt lat="48.071858966723084" lon="-0.729132033884525">
        <ele>70.310000000000002</ele>
        <time>2018-07-07T14:43:08Z</time>
      </trkpt>
      <trkpt lat="48.071857960894704" lon="-0.729119963943958">
        <ele>70.310000000000002</ele>
        <time>2018-07-07T14:43:09Z</time>
      </trkpt>
      <trkpt lat="48.071857960894704" lon="-0.729119963943958">
        <ele>70.310000000000002</ele>
        <time>2018-07-07T14:43:10Z</time>
      </trkpt>
      <trkpt lat="48.071858966723084" lon="-0.729132033884525">
        <ele>70.310000000000002</ele>
        <time>2018-07-07T14:43:11Z</time>
      </trkpt>
      <trkpt lat="48.071959968656301" lon="-0.729216020554304">
        <ele>70.790000000000006</ele>
        <time>2018-07-07T14:43:12Z</time>
      </trkpt>
      <trkpt lat="48.072303039953113" lon="-0.729751037433743">
        <ele>70.310000000000002</ele>
        <time>2018-07-07T14:43:18Z</time>
      </trkpt>
      <trkpt lat="48.072453998029232" lon="-0.729876011610031">
        <ele>69.829999999999998</ele>
        <time>2018-07-07T14:43:21Z</time>
      </trkpt>
      <trkpt lat="48.072498003020883" lon="-0.729838041588664">
        <ele>69.349999999999994</ele>
        <time>2018-07-07T14:43:22Z</time>
      </trkpt>
      <trkpt lat="48.072546031326056" lon="-0.729796970263124">
        <ele>69.349999999999994</ele>
        <time>2018-07-07T14:43:23Z</time>
      </trkpt>
      <trkpt lat="48.072568997740746" lon="-0.72963603772223">
        <ele>69.349999999999994</ele>
        <time>2018-07-07T14:43:24Z</time>
      </trkpt>
      <trkpt lat="48.072588024660945" lon="-0.729505028575659">
        <ele>69.349999999999994</ele>
        <time>2018-07-07T14:43:25Z</time>
      </trkpt>
      <trkpt lat="48.072609985247254" lon="-0.729350969195366">
        <ele>69.349999999999994</ele>
        <time>2018-07-07T14:43:26Z</time>
      </trkpt>
      <trkpt lat="48.072634963318706" lon="-0.729176038876176">
        <ele>68.870000000000005</ele>
        <time>2018-07-07T14:43:27Z</time>
      </trkpt>
      <trkpt lat="48.072648961097002" lon="-0.728962970897555">
        <ele>68.870000000000005</ele>
        <time>2018-07-07T14:43:28Z</time>
      </trkpt>
      <trkpt lat="48.072550976648927" lon="-0.727198999375105">
        <ele>69.829999999999998</ele>
        <time>2018-07-07T14:43:35Z</time>
      </trkpt>
      <trkpt lat="48.072352996096015" lon="-0.724517963826656">
        <ele>72.239999999999995</ele>
        <time>2018-07-07T14:43:45Z</time>
      </trkpt>
      <trkpt lat="48.072030963376164" lon="-0.720465984195471">
        <ele>74.640000000000001</ele>
        <time>2018-07-07T14:44:00Z</time>
      </trkpt>
      <trkpt lat="48.071831976994872" lon="-0.717786038294435">
        <ele>76.079999999999998</ele>
        <time>2018-07-07T14:44:11Z</time>
      </trkpt>
      <trkpt lat="48.071704991161823" lon="-0.717143984511495">
        <ele>77.040000000000006</ele>
        <time>2018-07-07T14:44:15Z</time>
      </trkpt>
      <trkpt lat="48.071657968685031" lon="-0.717015992850065">
        <ele>77.040000000000006</ele>
        <time>2018-07-07T14:44:16Z</time>
      </trkpt>
      <trkpt lat="48.071601977571845" lon="-0.716922031715512">
        <ele>78</ele>
        <time>2018-07-07T14:44:17Z</time>
      </trkpt>
      <trkpt lat="48.071601977571845" lon="-0.716803008690476">
        <ele>78.480000000000004</ele>
        <time>2018-07-07T14:44:18Z</time>
      </trkpt>
      <trkpt lat="48.071609018370509" lon="-0.716691026464105">
        <ele>78.480000000000004</ele>
        <time>2018-07-07T14:44:19Z</time>
      </trkpt>
      <trkpt lat="48.071646988391876" lon="-0.716537972912192">
        <ele>78.480000000000004</ele>
        <time>2018-07-07T14:44:20Z</time>
      </trkpt>
      <trkpt lat="48.071651011705399" lon="-0.716379974037409">
        <ele>78.480000000000004</ele>
        <time>2018-07-07T14:44:21Z</time>
      </trkpt>
      <trkpt lat="48.071656040847301" lon="-0.716202026233077">
        <ele>78.480000000000004</ele>
        <time>2018-07-07T14:44:22Z</time>
      </trkpt>
      <trkpt lat="48.071660986170173" lon="-0.716007985174656">
        <ele>78.480000000000004</ele>
        <time>2018-07-07T14:44:23Z</time>
      </trkpt>
      <trkpt lat="48.071666015312076" lon="-0.715798018500209">
        <ele>78.480000000000004</ele>
        <time>2018-07-07T14:44:24Z</time>
      </trkpt>
      <trkpt lat="48.071512039750814" lon="-0.713773034512997">
        <ele>81.370000000000005</ele>
        <time>2018-07-07T14:44:32Z</time>
      </trkpt>
      <trkpt lat="48.071257984265685" lon="-0.710549019277096">
        <ele>90.019999999999996</ele>
        <time>2018-07-07T14:44:43Z</time>
      </trkpt>
      <trkpt lat="48.070983979851007" lon="-0.707076983526349">
        <ele>92.420000000000002</ele>
        <time>2018-07-07T14:44:54Z</time>
      </trkpt>
      <trkpt lat="48.070808965712786" lon="-0.704989973455668">
        <ele>93.870000000000005</ele>
        <time>2018-07-07T14:45:02Z</time>
      </trkpt>
      <trkpt lat="48.070612996816635" lon="-0.702649997547269">
        <ele>94.829999999999998</ele>
        <time>2018-07-07T14:45:14Z</time>
      </trkpt>
      <trkpt lat="48.070479976013303" lon="-0.701412996277213">
        <ele>96.75</ele>
        <time>2018-07-07T14:45:21Z</time>
      </trkpt>
      <trkpt lat="48.07047201320529" lon="-0.701295984908938">
        <ele>96.75</ele>
        <time>2018-07-07T14:45:22Z</time>
      </trkpt>
      <trkpt lat="48.070314014330506" lon="-0.701172016561031">
        <ele>96.75</ele>
        <time>2018-07-07T14:45:23Z</time>
      </trkpt>
      <trkpt lat="48.07030102238059" lon="-0.701141003519297">
        <ele>96.75</ele>
        <time>2018-07-07T14:45:24Z</time>
      </trkpt>
      <trkpt lat="48.070261040702462" lon="-0.701047964394093">
        <ele>96.75</ele>
        <time>2018-07-07T14:45:25Z</time>
      </trkpt>
      <trkpt lat="48.070261962711811" lon="-0.700906980782747">
        <ele>97.230000000000004</ele>
        <time>2018-07-07T14:45:26Z</time>
      </trkpt>
      <trkpt lat="48.070278977975249" lon="-0.700788041576743">
        <ele>97.230000000000004</ele>
        <time>2018-07-07T14:45:27Z</time>
      </trkpt>
      <trkpt lat="48.070314014330506" lon="-0.700700031593442">
        <ele>96.75</ele>
        <time>2018-07-07T14:45:28Z</time>
      </trkpt>
      <trkpt lat="48.070411998778582" lon="-0.700533986091614">
        <ele>96.75</ele>
        <time>2018-07-07T14:45:29Z</time>
      </trkpt>
      <trkpt lat="48.070400012657046" lon="-0.700356960296631">
        <ele>96.269999999999996</ele>
        <time>2018-07-07T14:45:30Z</time>
      </trkpt>
      <trkpt lat="48.070400012657046" lon="-0.700194016098976">
        <ele>96.269999999999996</ele>
        <time>2018-07-07T14:45:31Z</time>
      </trkpt>
      <trkpt lat="48.070399006828666" lon="-0.699991006404161">
        <ele>96.269999999999996</ele>
        <time>2018-07-07T14:45:32Z</time>
      </trkpt>
      <trkpt lat="48.070263974368572" lon="-0.698219994083047">
        <ele>96.75</ele>
        <time>2018-07-07T14:45:40Z</time>
      </trkpt>
      <trkpt lat="48.070097006857395" lon="-0.695816986262798">
        <ele>98.189999999999998</ele>
        <time>2018-07-07T14:45:52Z</time>
      </trkpt>
      <trkpt lat="48.069895002990961" lon="-0.693286992609501">
        <ele>101.08</ele>
        <time>2018-07-07T14:46:02Z</time>
      </trkpt>
      <trkpt lat="48.069614041596651" lon="-0.689803976565599">
        <ele>105.40000000000001</ele>
        <time>2018-07-07T14:46:14Z</time>
      </trkpt>
      <trkpt lat="48.069303994998336" lon="-0.686063971370459">
        <ele>100.59999999999999</ele>
        <time>2018-07-07T14:46:26Z</time>
      </trkpt>
      <trkpt lat="48.068978022783995" lon="-0.681992964819074">
        <ele>92.420000000000002</ele>
        <time>2018-07-07T14:46:39Z</time>
      </trkpt>
      <trkpt lat="48.068580972030759" lon="-0.677006989717484">
        <ele>90.5</ele>
        <time>2018-07-07T14:46:55Z</time>
      </trkpt>
      <trkpt lat="48.068321971222758" lon="-0.673535959795117">
        <ele>87.620000000000005</ele>
        <time>2018-07-07T14:47:06Z</time>
      </trkpt>
      <trkpt lat="48.067932967096567" lon="-0.66883203573525">
        <ele>74.159999999999997</ele>
        <time>2018-07-07T14:47:21Z</time>
      </trkpt>
      <trkpt lat="48.067546980455518" lon="-0.663803983479738">
        <ele>61.18</ele>
        <time>2018-07-07T14:47:37Z</time>
      </trkpt>
      <trkpt lat="48.067198963835835" lon="-0.659427037462592">
        <ele>57.82</ele>
        <time>2018-07-07T14:47:51Z</time>
      </trkpt>
      <trkpt lat="48.066792022436857" lon="-0.655066017061472">
        <ele>57.82</ele>
        <time>2018-07-07T14:48:05Z</time>
      </trkpt>
      <trkpt lat="48.066306039690971" lon="-0.649913996458054">
        <ele>58.780000000000001</ele>
        <time>2018-07-07T14:48:21Z</time>
      </trkpt>
      <trkpt lat="48.065963974222541" lon="-0.645637968555093">
        <ele>64.069999999999993</ele>
        <time>2018-07-07T14:48:33Z</time>
      </trkpt>
      <trkpt lat="48.065585028380156" lon="-0.640743020921946">
        <ele>75.120000000000005</ele>
        <time>2018-07-07T14:48:45Z</time>
      </trkpt>
      <trkpt lat="48.065228965133429" lon="-0.634682988747954">
        <ele>73.200000000000003</ele>
        <time>2018-07-07T14:49:00Z</time>
      </trkpt>
      <trkpt lat="48.06553297676146" lon="-0.631517982110381">
        <ele>79.930000000000007</ele>
        <time>2018-07-07T14:49:08Z</time>
      </trkpt>
      <trkpt lat="48.065759036689997" lon="-0.628393040969968">
        <ele>86.180000000000007</ele>
        <time>2018-07-07T14:49:16Z</time>
      </trkpt>
      <trkpt lat="48.065648982301354" lon="-0.626584980636835">
        <ele>88.099999999999994</ele>
        <time>2018-07-07T14:49:22Z</time>
      </trkpt>
      <trkpt lat="48.065396016463637" lon="-0.625009015202522">
        <ele>90.019999999999996</ele>
        <time>2018-07-07T14:49:29Z</time>
      </trkpt>
      <trkpt lat="48.065358968451619" lon="-0.624841963872314">
        <ele>90.019999999999996</ele>
        <time>2018-07-07T14:49:30Z</time>
      </trkpt>
      <trkpt lat="48.065250003710389" lon="-0.624654041603208">
        <ele>90.019999999999996</ele>
        <time>2018-07-07T14:49:31Z</time>
      </trkpt>
      <trkpt lat="48.065218990668654" lon="-0.624569971114397">
        <ele>90.019999999999996</ele>
        <time>2018-07-07T14:49:32Z</time>
      </trkpt>
      <trkpt lat="48.065200969576836" lon="-0.624365033581853">
        <ele>90.019999999999996</ele>
        <time>2018-07-07T14:49:33Z</time>
      </trkpt>
      <trkpt lat="48.0652080103755" lon="-0.624310970306396">
        <ele>90.019999999999996</ele>
        <time>2018-07-07T14:49:34Z</time>
      </trkpt>
      <trkpt lat="48.065313035622239" lon="-0.623991033062339">
        <ele>90.019999999999996</ele>
        <time>2018-07-07T14:49:35Z</time>
      </trkpt>
      <trkpt lat="48.065259978175163" lon="-0.623848959803581">
        <ele>90.019999999999996</ele>
        <time>2018-07-07T14:49:36Z</time>
      </trkpt>
      <trkpt lat="48.065198035910726" lon="-0.623671011999249">
        <ele>90.019999999999996</ele>
        <time>2018-07-07T14:49:37Z</time>
      </trkpt>
      <trkpt lat="48.065127963200212" lon="-0.623471019789577">
        <ele>89.540000000000006</ele>
        <time>2018-07-07T14:49:38Z</time>
      </trkpt>
      <trkpt lat="48.065051017329097" lon="-0.623249989002943">
        <ele>89.540000000000006</ele>
        <time>2018-07-07T14:49:39Z</time>
      </trkpt>
      <trkpt lat="48.064381973817945" lon="-0.62135299667716">
        <ele>86.180000000000007</ele>
        <time>2018-07-07T14:49:46Z</time>
      </trkpt>
      <trkpt lat="48.063978971913457" lon="-0.618859967216849">
        <ele>84.25</ele>
        <time>2018-07-07T14:49:54Z</time>
      </trkpt>
      <trkpt lat="48.063661968335509" lon="-0.614803964272141">
        <ele>89.060000000000002</ele>
        <time>2018-07-07T14:50:07Z</time>
      </trkpt>
      <trkpt lat="48.063290985301137" lon="-0.610084030777216">
        <ele>91.939999999999998</ele>
        <time>2018-07-07T14:50:22Z</time>
      </trkpt>
      <trkpt lat="48.062849007546902" lon="-0.604715002700686">
        <ele>89.060000000000002</ele>
        <time>2018-07-07T14:50:39Z</time>
      </trkpt>
      <trkpt lat="48.062509037554264" lon="-0.600330010056496">
        <ele>90.019999999999996</ele>
        <time>2018-07-07T14:50:53Z</time>
      </trkpt>
      <trkpt lat="48.062187004834414" lon="-0.596243999898434">
        <ele>95.310000000000002</ele>
        <time>2018-07-07T14:51:06Z</time>
      </trkpt>
      <trkpt lat="48.061808981001377" lon="-0.591493975371122">
        <ele>92.900000000000006</ele>
        <time>2018-07-07T14:51:21Z</time>
      </trkpt>
      <trkpt lat="48.061565989628434" lon="-0.58832997456193">
        <ele>90.5</ele>
        <time>2018-07-07T14:51:31Z</time>
      </trkpt>
      <trkpt lat="48.061282010748982" lon="-0.584891969338059">
        <ele>93.870000000000005</ele>
        <time>2018-07-07T14:51:42Z</time>
      </trkpt>
      <trkpt lat="48.060914967209101" lon="-0.58018896728754">
        <ele>100.59999999999999</ele>
        <time>2018-07-07T14:51:57Z</time>
      </trkpt>
      <trkpt lat="48.06071799248457" lon="-0.577590996399522">
        <ele>102.52</ele>
        <time>2018-07-07T14:52:06Z</time>
      </trkpt>
      <trkpt lat="48.060481958091259" lon="-0.574684990569949">
        <ele>102.52</ele>
        <time>2018-07-07T14:52:20Z</time>
      </trkpt>
      <trkpt lat="48.060367964208126" lon="-0.573214972391725">
        <ele>100.11</ele>
        <time>2018-07-07T14:52:30Z</time>
      </trkpt>
      <trkpt lat="48.060213988646865" lon="-0.571414958685637">
        <ele>97.230000000000004</ele>
        <time>2018-07-07T14:52:43Z</time>
      </trkpt>
      <trkpt lat="48.060184987261891" lon="-0.571104995906353">
        <ele>96.75</ele>
        <time>2018-07-07T14:52:46Z</time>
      </trkpt>
      <trkpt lat="48.06017903611064" lon="-0.571039030328393">
        <ele>96.75</ele>
        <time>2018-07-07T14:52:47Z</time>
      </trkpt>
      <trkpt lat="48.060175012797117" lon="-0.570985972881317">
        <ele>96.75</ele>
        <time>2018-07-07T14:52:48Z</time>
      </trkpt>
      <trkpt lat="48.060170989483595" lon="-0.570942973718047">
        <ele>96.269999999999996</ele>
        <time>2018-07-07T14:52:49Z</time>
      </trkpt>
      <trkpt lat="48.060166966170073" lon="-0.570906009525061">
        <ele>96.269999999999996</ele>
        <time>2018-07-07T14:52:50Z</time>
      </trkpt>
      <trkpt lat="48.060165038332343" lon="-0.570880025625229">
        <ele>96.269999999999996</ele>
        <time>2018-07-07T14:52:51Z</time>
      </trkpt>
      <trkpt lat="48.060163026675582" lon="-0.570857981219888">
        <ele>96.269999999999996</ele>
        <time>2018-07-07T14:52:52Z</time>
      </trkpt>
      <trkpt lat="48.060163026675582" lon="-0.570857981219888">
        <ele>96.269999999999996</ele>
        <time>2018-07-07T14:52:53Z</time>
      </trkpt>
      <trkpt lat="48.060137964785099" lon="-0.57058397680521">
        <ele>95.790000000000006</ele>
        <time>2018-07-07T14:53:02Z</time>
      </trkpt>
      <trkpt lat="48.060065964236856" lon="-0.569987017661333">
        <ele>95.790000000000006</ele>
        <time>2018-07-07T14:53:11Z</time>
      </trkpt>
      <trkpt lat="48.059743009507656" lon="-0.568831991404295">
        <ele>100.11</ele>
        <time>2018-07-07T14:53:21Z</time>
      </trkpt>
      <trkpt lat="48.05964301340282" lon="-0.568494033068419">
        <ele>101.56</ele>
        <time>2018-07-07T14:53:24Z</time>
      </trkpt>
      <trkpt lat="48.059477973729372" lon="-0.567985000088811">
        <ele>105.40000000000001</ele>
        <time>2018-07-07T14:53:33Z</time>
      </trkpt>
      <trkpt lat="48.059437992051244" lon="-0.567902019247413">
        <ele>105.40000000000001</ele>
        <time>2018-07-07T14:53:34Z</time>
      </trkpt>
      <trkpt lat="48.058962989598513" lon="-0.566932987421751">
        <ele>107.81</ele>
        <time>2018-07-07T14:53:44Z</time>
      </trkpt>
      <trkpt lat="48.058766014873981" lon="-0.566422026604414">
        <ele>107.81</ele>
        <time>2018-07-07T14:53:48Z</time>
      </trkpt>
      <trkpt lat="48.058632994070649" lon="-0.565845016390085">
        <ele>107.81</ele>
        <time>2018-07-07T14:53:52Z</time>
      </trkpt>
      <trkpt lat="48.058598963543773" lon="-0.565695986151695">
        <ele>107.81</ele>
        <time>2018-07-07T14:53:53Z</time>
      </trkpt>
      <trkpt lat="48.057808969169855" lon="-0.564221022650599">
        <ele>108.77</ele>
        <time>2018-07-07T14:54:04Z</time>
      </trkpt>
      <trkpt lat="48.057626998052001" lon="-0.563884992152452">
        <ele>109.25</ele>
        <time>2018-07-07T14:54:06Z</time>
      </trkpt>
      <trkpt lat="48.05736699141562" lon="-0.563159035518765">
        <ele>109.25</ele>
        <time>2018-07-07T14:54:10Z</time>
      </trkpt>
      <trkpt lat="48.057328015565872" lon="-0.56297798641026">
        <ele>109.25</ele>
        <time>2018-07-07T14:54:11Z</time>
      </trkpt>
      <trkpt lat="48.057289039716125" lon="-0.562799032777548">
        <ele>109.25</ele>
        <time>2018-07-07T14:54:12Z</time>
      </trkpt>
      <trkpt lat="48.05685100145638" lon="-0.56065795943141">
        <ele>105.88</ele>
        <time>2018-07-07T14:54:23Z</time>
      </trkpt>
      <trkpt lat="48.056316990405321" lon="-0.557760000228882">
        <ele>100.11</ele>
        <time>2018-07-07T14:54:35Z</time>
      </trkpt>
      <trkpt lat="48.055803012102842" lon="-0.55511299520731">
        <ele>97.230000000000004</ele>
        <time>2018-07-07T14:54:45Z</time>
      </trkpt>
      <trkpt lat="48.055347036570311" lon="-0.552661037072539">
        <ele>99.629999999999995</ele>
        <time>2018-07-07T14:54:54Z</time>
      </trkpt>
      <trkpt lat="48.054572967812419" lon="-0.548626994714141">
        <ele>102.04000000000001</ele>
        <time>2018-07-07T14:55:07Z</time>
      </trkpt>
      <trkpt lat="48.053507041186094" lon="-0.543089993298054">
        <ele>101.08</ele>
        <time>2018-07-07T14:55:25Z</time>
      </trkpt>
      <trkpt lat="48.052648985758424" lon="-0.538488999009132">
        <ele>87.140000000000001</ele>
        <time>2018-07-07T14:55:39Z</time>
      </trkpt>
      <trkpt lat="48.051998969167471" lon="-0.535076977685094">
        <ele>84.25</ele>
        <time>2018-07-07T14:55:49Z</time>
      </trkpt>
      <trkpt lat="48.051294973120093" lon="-0.531385000795126">
        <ele>95.790000000000006</ele>
        <time>2018-07-07T14:56:01Z</time>
      </trkpt>
      <trkpt lat="48.0504260212183" lon="-0.526870004832745">
        <ele>109.73</ele>
        <time>2018-07-07T14:56:17Z</time>
      </trkpt>
      <trkpt lat="48.04965203627944" lon="-0.522763961926103">
        <ele>110.20999999999999</ele>
        <time>2018-07-07T14:56:30Z</time>
      </trkpt>
      <trkpt lat="48.048805966973305" lon="-0.518356002867222">
        <ele>109.25</ele>
        <time>2018-07-07T14:56:44Z</time>
      </trkpt>
      <trkpt lat="48.047774992883205" lon="-0.512987980619073">
        <ele>110.69</ele>
        <time>2018-07-07T14:57:01Z</time>
      </trkpt>
      <trkpt lat="48.046627007424831" lon="-0.506972959265113">
        <ele>114.05</ele>
        <time>2018-07-07T14:57:20Z</time>
      </trkpt>
      <trkpt lat="48.045355975627899" lon="-0.500314040109515">
        <ele>105.40000000000001</ele>
        <time>2018-07-07T14:57:41Z</time>
      </trkpt>
      <trkpt lat="48.044702019542456" lon="-0.496837981045246">
        <ele>104.92</ele>
        <time>2018-07-07T14:57:52Z</time>
      </trkpt>
      <trkpt lat="48.043794007971883" lon="-0.492082005366683">
        <ele>105.40000000000001</ele>
        <time>2018-07-07T14:58:07Z</time>
      </trkpt>
      <trkpt lat="48.043148014694452" lon="-0.488780038431287">
        <ele>101.08</ele>
        <time>2018-07-07T14:58:18Z</time>
      </trkpt>
      <trkpt lat="48.042748030275106" lon="-0.486942976713181">
        <ele>94.349999999999994</ele>
        <time>2018-07-07T14:58:27Z</time>
      </trkpt>
      <trkpt lat="48.042405964806676" lon="-0.485180011019111">
        <ele>88.099999999999994</ele>
        <time>2018-07-07T14:58:38Z</time>
      </trkpt>
      <trkpt lat="48.042319966480136" lon="-0.4846849758178">
        <ele>86.659999999999997</ele>
        <time>2018-07-07T14:58:42Z</time>
      </trkpt>
      <trkpt lat="48.042289037257433" lon="-0.48451297916472">
        <ele>86.659999999999997</ele>
        <time>2018-07-07T14:58:43Z</time>
      </trkpt>
      <trkpt lat="48.042218964546919" lon="-0.48447098582983">
        <ele>86.180000000000007</ele>
        <time>2018-07-07T14:58:44Z</time>
      </trkpt>
      <trkpt lat="48.042183006182313" lon="-0.484450031071901">
        <ele>86.180000000000007</ele>
        <time>2018-07-07T14:58:45Z</time>
      </trkpt>
      <trkpt lat="48.042031964287162" lon="-0.484349029138684">
        <ele>85.689999999999998</ele>
        <time>2018-07-07T14:58:46Z</time>
      </trkpt>
      <trkpt lat="48.041917970404029" lon="-0.484355986118317">
        <ele>85.689999999999998</ele>
        <time>2018-07-07T14:58:47Z</time>
      </trkpt>
      <trkpt lat="48.041795007884502" lon="-0.484363026916981">
        <ele>85.689999999999998</ele>
        <time>2018-07-07T14:58:48Z</time>
      </trkpt>
      <trkpt lat="48.041667016223073" lon="-0.484332013875246">
        <ele>85.689999999999998</ele>
        <time>2018-07-07T14:58:49Z</time>
      </trkpt>
      <trkpt lat="48.041523015126586" lon="-0.484290020540357">
        <ele>86.180000000000007</ele>
        <time>2018-07-07T14:58:50Z</time>
      </trkpt>
      <trkpt lat="48.041377002373338" lon="-0.484229000285268">
        <ele>86.659999999999997</ele>
        <time>2018-07-07T14:58:51Z</time>
      </trkpt>
      <trkpt lat="48.041234007105231" lon="-0.484109977260232">
        <ele>87.140000000000001</ele>
        <time>2018-07-07T14:58:52Z</time>
      </trkpt>
      <trkpt lat="48.0410819593817" lon="-0.483982991427183">
        <ele>87.140000000000001</ele>
        <time>2018-07-07T14:58:53Z</time>
      </trkpt>
      <trkpt lat="48.039614958688617" lon="-0.482641970738769">
        <ele>88.099999999999994</ele>
        <time>2018-07-07T14:59:02Z</time>
      </trkpt>
      <trkpt lat="48.038492035120726" lon="-0.481059970334172">
        <ele>87.140000000000001</ele>
        <time>2018-07-07T14:59:11Z</time>
      </trkpt>
      <trkpt lat="48.037208011373878" lon="-0.479045966640115">
        <ele>93.390000000000001</ele>
        <time>2018-07-07T14:59:23Z</time>
      </trkpt>
      <trkpt lat="48.036330007016659" lon="-0.477005979046226">
        <ele>101.08</ele>
        <time>2018-07-07T14:59:33Z</time>
      </trkpt>
      <trkpt lat="48.036045022308826" lon="-0.475861011072993">
        <ele>103.95999999999999</ele>
        <time>2018-07-07T14:59:38Z</time>
      </trkpt>
      <trkpt lat="48.03581896238029" lon="-0.473954966291785">
        <ele>107.81</ele>
        <time>2018-07-07T14:59:47Z</time>
      </trkpt>
      <trkpt lat="48.035772023722529" lon="-0.472391992807388">
        <ele>110.20999999999999</ele>
        <time>2018-07-07T14:59:56Z</time>
      </trkpt>
      <trkpt lat="48.035786021500826" lon="-0.471853036433458">
        <ele>111.17</ele>
        <time>2018-07-07T15:00:03Z</time>
      </trkpt>
      <trkpt lat="48.035737993195653" lon="-0.471768965944648">
        <ele>111.17</ele>
        <time>2018-07-07T15:00:04Z</time>
      </trkpt>
      <trkpt lat="48.035660041496158" lon="-0.471704006195068">
        <ele>111.17</ele>
        <time>2018-07-07T15:00:05Z</time>
      </trkpt>
      <trkpt lat="48.035645959898829" lon="-0.471630999818444">
        <ele>111.65000000000001</ele>
        <time>2018-07-07T15:00:06Z</time>
      </trkpt>
      <trkpt lat="48.035660041496158" lon="-0.47149102203548">
        <ele>111.65000000000001</ele>
        <time>2018-07-07T15:00:07Z</time>
      </trkpt>
      <trkpt lat="48.035660041496158" lon="-0.471489010378718">
        <ele>111.65000000000001</ele>
        <time>2018-07-07T15:00:08Z</time>
      </trkpt>
      <trkpt lat="48.035789038985968" lon="-0.471264040097594">
        <ele>111.65000000000001</ele>
        <time>2018-07-07T15:00:09Z</time>
      </trkpt>
      <trkpt lat="48.035789038985968" lon="-0.471103023737669">
        <ele>112.13</ele>
        <time>2018-07-07T15:00:10Z</time>
      </trkpt>
      <trkpt lat="48.035789038985968" lon="-0.470925997942686">
        <ele>112.13</ele>
        <time>2018-07-07T15:00:11Z</time>
      </trkpt>
      <trkpt lat="48.035789038985968" lon="-0.470735980197787">
        <ele>112.61</ele>
        <time>2018-07-07T15:00:12Z</time>
      </trkpt>
      <trkpt lat="48.035797001793981" lon="-0.470531964674592">
        <ele>112.61</ele>
        <time>2018-07-07T15:00:13Z</time>
      </trkpt>
      <trkpt lat="48.035844024270773" lon="-0.470335995778441">
        <ele>113.09</ele>
        <time>2018-07-07T15:00:14Z</time>
      </trkpt>
      <trkpt lat="48.035888029262424" lon="-0.470152013003826">
        <ele>113.09</ele>
        <time>2018-07-07T15:00:15Z</time>
      </trkpt>
      <trkpt lat="48.035951983183622" lon="-0.469985967501998">
        <ele>113.09</ele>
        <time>2018-07-07T15:00:16Z</time>
      </trkpt>
      <trkpt lat="48.036023983731866" lon="-0.469818999990821">
        <ele>113.09</ele>
        <time>2018-07-07T15:00:17Z</time>
      </trkpt>
      <trkpt lat="48.036129008978605" lon="-0.469690002501011">
        <ele>113.09</ele>
        <time>2018-07-07T15:00:18Z</time>
      </trkpt>
      <trkpt lat="48.036235962063074" lon="-0.46955999918282">
        <ele>113.09</ele>
        <time>2018-07-07T15:00:19Z</time>
      </trkpt>
      <trkpt lat="48.036325983703136" lon="-0.46945103444159">
        <ele>113.09</ele>
        <time>2018-07-07T15:00:20Z</time>
      </trkpt>
      <trkpt lat="48.036457998678088" lon="-0.469400994479656">
        <ele>112.61</ele>
        <time>2018-07-07T15:00:21Z</time>
      </trkpt>
      <trkpt lat="48.036571992561221" lon="-0.469356989488006">
        <ele>112.61</ele>
        <time>2018-07-07T15:00:22Z</time>
      </trkpt>
      <trkpt lat="48.036684980615973" lon="-0.469313990324736">
        <ele>112.13</ele>
        <time>2018-07-07T15:00:23Z</time>
      </trkpt>
      <trkpt lat="48.036791011691093" lon="-0.469276020303369">
        <ele>111.65000000000001</ele>
        <time>2018-07-07T15:00:24Z</time>
      </trkpt>
      <trkpt lat="48.036988992244005" lon="-0.469222962856293">
        <ele>110.69</ele>
        <time>2018-07-07T15:00:26Z</time>
      </trkpt>
      <trkpt lat="48.037118995562196" lon="-0.46900000423193">
        <ele>110.20999999999999</ele>
        <time>2018-07-07T15:00:27Z</time>
      </trkpt>
      <trkpt lat="48.037140034139156" lon="-0.468982988968492">
        <ele>109.73</ele>
        <time>2018-07-07T15:00:28Z</time>
      </trkpt>
      <trkpt lat="48.037270037457347" lon="-0.468832030892372">
        <ele>109.25</ele>
        <time>2018-07-07T15:00:29Z</time>
      </trkpt>
      <trkpt lat="48.037270037457347" lon="-0.468672020360827">
        <ele>109.25</ele>
        <time>2018-07-07T15:00:30Z</time>
      </trkpt>
      <trkpt lat="48.037270037457347" lon="-0.468488037586212">
        <ele>108.77</ele>
        <time>2018-07-07T15:00:31Z</time>
      </trkpt>
      <trkpt lat="48.037270037457347" lon="-0.468286033719778">
        <ele>108.29000000000001</ele>
        <time>2018-07-07T15:00:32Z</time>
      </trkpt>
      <trkpt lat="48.037270037457347" lon="-0.468069026246667">
        <ele>108.29000000000001</ele>
        <time>2018-07-07T15:00:33Z</time>
      </trkpt>
      <trkpt lat="48.037287974730134" lon="-0.465441970154643">
        <ele>108.77</ele>
        <time>2018-07-07T15:00:43Z</time>
      </trkpt>
      <trkpt lat="48.037313036620617" lon="-0.462149977684021">
        <ele>110.69</ele>
        <time>2018-07-07T15:00:54Z</time>
      </trkpt>
      <trkpt lat="48.037372967228293" lon="-0.456883041188121">
        <ele>116.45999999999999</ele>
        <time>2018-07-07T15:01:11Z</time>
      </trkpt>
      <trkpt lat="48.037419989705086" lon="-0.451545026153326">
        <ele>108.29000000000001</ele>
        <time>2018-07-07T15:01:28Z</time>
      </trkpt>
      <trkpt lat="48.037447985261679" lon="-0.447167996317148">
        <ele>100.59999999999999</ele>
        <time>2018-07-07T15:01:42Z</time>
      </trkpt>
      <trkpt lat="48.037474974989891" lon="-0.442803036421537">
        <ele>91.939999999999998</ele>
        <time>2018-07-07T15:01:56Z</time>
      </trkpt>
      <trkpt lat="48.037467012181878" lon="-0.438201958313584">
        <ele>95.790000000000006</ele>
        <time>2018-07-07T15:02:11Z</time>
      </trkpt>
      <trkpt lat="48.037484027445316" lon="-0.434115026146173">
        <ele>99.150000000000006</ele>
        <time>2018-07-07T15:02:24Z</time>
      </trkpt>
      <trkpt lat="48.037527026608586" lon="-0.42976900935173">
        <ele>99.150000000000006</ele>
        <time>2018-07-07T15:02:38Z</time>
      </trkpt>
      <trkpt lat="48.03755896165967" lon="-0.425678975880146">
        <ele>97.230000000000004</ele>
        <time>2018-07-07T15:02:51Z</time>
      </trkpt>
      <trkpt lat="48.037639008834958" lon="-0.42222898453474">
        <ele>87.620000000000005</ele>
        <time>2018-07-07T15:03:02Z</time>
      </trkpt>
      <trkpt lat="48.037660969421268" lon="-0.417574010789394">
        <ele>80.409999999999997</ele>
        <time>2018-07-07T15:03:17Z</time>
      </trkpt>
      <trkpt lat="48.03768603131175" lon="-0.41352697648108">
        <ele>83.769999999999996</ele>
        <time>2018-07-07T15:03:30Z</time>
      </trkpt>
      <trkpt lat="48.037719978019595" lon="-0.408803019672632">
        <ele>78.969999999999999</ele>
        <time>2018-07-07T15:03:45Z</time>
      </trkpt>
      <trkpt lat="48.037742022424936" lon="-0.405689980834723">
        <ele>77.040000000000006</ele>
        <time>2018-07-07T15:03:55Z</time>
      </trkpt>
      <trkpt lat="48.037760965526104" lon="-0.402581971138716">
        <ele>74.159999999999997</ele>
        <time>2018-07-07T15:04:05Z</time>
      </trkpt>
      <trkpt lat="48.037785021588206" lon="-0.398535020649433">
        <ele>73.200000000000003</ele>
        <time>2018-07-07T15:04:18Z</time>
      </trkpt>
      <trkpt lat="48.037785021588206" lon="-0.393022997304797">
        <ele>75.599999999999994</ele>
        <time>2018-07-07T15:04:36Z</time>
      </trkpt>
      <trkpt lat="48.037636997178197" lon="-0.390988038852811">
        <ele>72.239999999999995</ele>
        <time>2018-07-07T15:04:43Z</time>
      </trkpt>
      <trkpt lat="48.036897964775562" lon="-0.388803966343403">
        <ele>68.870000000000005</ele>
        <time>2018-07-07T15:04:51Z</time>
      </trkpt>
      <trkpt lat="48.035665992647409" lon="-0.386199960485101">
        <ele>70.790000000000006</ele>
        <time>2018-07-07T15:05:02Z</time>
      </trkpt>
      <trkpt lat="48.034554971382022" lon="-0.38370399735868">
        <ele>81.849999999999994</ele>
        <time>2018-07-07T15:05:12Z</time>
      </trkpt>
      <trkpt lat="48.034221958369017" lon="-0.381587985903025">
        <ele>84.25</ele>
        <time>2018-07-07T15:05:19Z</time>
      </trkpt>
      <trkpt lat="48.034108970314264" lon="-0.37760297767818">
        <ele>74.640000000000001</ele>
        <time>2018-07-07T15:05:32Z</time>
      </trkpt>
      <trkpt lat="48.033915013074875" lon="-0.37268003448844">
        <ele>77.040000000000006</ele>
        <time>2018-07-07T15:05:48Z</time>
      </trkpt>
      <trkpt lat="48.033764977008104" lon="-0.368993002921343">
        <ele>87.140000000000001</ele>
        <time>2018-07-07T15:06:00Z</time>
      </trkpt>
      <trkpt lat="48.033598009496927" lon="-0.36430399864912">
        <ele>100.11</ele>
        <time>2018-07-07T15:06:15Z</time>
      </trkpt>
      <trkpt lat="48.033384019508958" lon="-0.358993979170918">
        <ele>106.36</ele>
        <time>2018-07-07T15:06:32Z</time>
      </trkpt>
      <trkpt lat="48.03323800675571" lon="-0.354922972619534">
        <ele>106.84</ele>
        <time>2018-07-07T15:06:45Z</time>
      </trkpt>
      <trkpt lat="48.033004989847541" lon="-0.348692033439875">
        <ele>102.52</ele>
        <time>2018-07-07T15:07:05Z</time>
      </trkpt>
      <trkpt lat="48.03278898820281" lon="-0.343092000111938">
        <ele>100.59999999999999</ele>
        <time>2018-07-07T15:07:23Z</time>
      </trkpt>
      <trkpt lat="48.032621014863253" lon="-0.338729973882437">
        <ele>100.59999999999999</ele>
        <time>2018-07-07T15:07:37Z</time>
      </trkpt>
      <trkpt lat="48.032453963533044" lon="-0.334680005908012">
        <ele>99.629999999999995</ele>
        <time>2018-07-07T15:07:50Z</time>
      </trkpt>
      <trkpt lat="48.032324966043234" lon="-0.330947963520885">
        <ele>100.59999999999999</ele>
        <time>2018-07-07T15:08:02Z</time>
      </trkpt>
      <trkpt lat="48.032167972996831" lon="-0.327180968597531">
        <ele>97.709999999999994</ele>
        <time>2018-07-07T15:08:14Z</time>
      </trkpt>
      <trkpt lat="48.032040987163782" lon="-0.324043035507202">
        <ele>90.980000000000004</ele>
        <time>2018-07-07T15:08:24Z</time>
      </trkpt>
      <trkpt lat="48.03188499994576" lon="-0.320320967584848">
        <ele>83.769999999999996</ele>
        <time>2018-07-07T15:08:36Z</time>
      </trkpt>
      <trkpt lat="48.031662041321397" lon="-0.315038021653891">
        <ele>74.640000000000001</ele>
        <time>2018-07-07T15:08:53Z</time>
      </trkpt>
      <trkpt lat="48.031526003032923" lon="-0.311925988644362">
        <ele>69.349999999999994</ele>
        <time>2018-07-07T15:09:03Z</time>
      </trkpt>
      <trkpt lat="48.031337996944785" lon="-0.307628000155091">
        <ele>78.969999999999999</ele>
        <time>2018-07-07T15:09:17Z</time>
      </trkpt>
      <trkpt lat="48.031153008341789" lon="-0.303218029439449">
        <ele>72.719999999999999</ele>
        <time>2018-07-07T15:09:31Z</time>
      </trkpt>
      <trkpt lat="48.030965002253652" lon="-0.298870000988245">
        <ele>69.349999999999994</ele>
        <time>2018-07-07T15:09:45Z</time>
      </trkpt>
      <trkpt lat="48.030786970630288" lon="-0.294523984193802">
        <ele>70.790000000000006</ele>
        <time>2018-07-07T15:09:59Z</time>
      </trkpt>
      <trkpt lat="48.030677000060678" lon="-0.293284971266985">
        <ele>70.310000000000002</ele>
        <time>2018-07-07T15:10:03Z</time>
      </trkpt>
      <trkpt lat="48.030611034482718" lon="-0.292984982952476">
        <ele>69.829999999999998</ele>
        <time>2018-07-07T15:10:04Z</time>
      </trkpt>
      <trkpt lat="48.030529981479049" lon="-0.292707961052656">
        <ele>69.349999999999994</ele>
        <time>2018-07-07T15:10:05Z</time>
      </trkpt>
      <trkpt lat="48.030425040051341" lon="-0.292444014921784">
        <ele>68.870000000000005</ele>
        <time>2018-07-07T15:10:06Z</time>
      </trkpt>
      <trkpt lat="48.030312974005938" lon="-0.292188031598926">
        <ele>68.870000000000005</ele>
        <time>2018-07-07T15:10:07Z</time>
      </trkpt>
      <trkpt lat="48.029520967975259" lon="-0.290361028164625">
        <ele>68.870000000000005</ele>
        <time>2018-07-07T15:10:14Z</time>
      </trkpt>
      <trkpt lat="48.029416026547551" lon="-0.290064979344606">
        <ele>68.870000000000005</ele>
        <time>2018-07-07T15:10:15Z</time>
      </trkpt>
      <trkpt lat="48.029385013505816" lon="-0.289777982980013">
        <ele>68.870000000000005</ele>
        <time>2018-07-07T15:10:16Z</time>
      </trkpt>
      <trkpt lat="48.029352994635701" lon="-0.289476988837123">
        <ele>68.870000000000005</ele>
        <time>2018-07-07T15:10:17Z</time>
      </trkpt>
      <trkpt lat="48.029376966878772" lon="-0.289164008572698">
        <ele>69.349999999999994</ele>
        <time>2018-07-07T15:10:18Z</time>
      </trkpt>
      <trkpt lat="48.029421977698803" lon="-0.288868965581059">
        <ele>69.349999999999994</ele>
        <time>2018-07-07T15:10:19Z</time>
      </trkpt>
      <trkpt lat="48.029511999338865" lon="-0.288607031106949">
        <ele>69.349999999999994</ele>
        <time>2018-07-07T15:10:20Z</time>
      </trkpt>
      <trkpt lat="48.029604032635689" lon="-0.288340989500284">
        <ele>69.829999999999998</ele>
        <time>2018-07-07T15:10:21Z</time>
      </trkpt>
      <trkpt lat="48.029718026518822" lon="-0.28809598647058">
        <ele>70.310000000000002</ele>
        <time>2018-07-07T15:10:22Z</time>
      </trkpt>
      <trkpt lat="48.029845012351871" lon="-0.287854000926018">
        <ele>70.310000000000002</ele>
        <time>2018-07-07T15:10:23Z</time>
      </trkpt>
      <trkpt lat="48.030342981219292" lon="-0.28684800490737">
        <ele>70.790000000000006</ele>
        <time>2018-07-07T15:10:27Z</time>
      </trkpt>
      <trkpt lat="48.030400983989239" lon="-0.286555979400873">
        <ele>70.790000000000006</ele>
        <time>2018-07-07T15:10:28Z</time>
      </trkpt>
      <trkpt lat="48.03044599480927" lon="-0.286252973601222">
        <ele>71.269999999999996</ele>
        <time>2018-07-07T15:10:29Z</time>
      </trkpt>
      <trkpt lat="48.03044599480927" lon="-0.285948039963841">
        <ele>71.760000000000005</ele>
        <time>2018-07-07T15:10:30Z</time>
      </trkpt>
      <trkpt lat="48.03044599480927" lon="-0.285634975880384">
        <ele>72.239999999999995</ele>
        <time>2018-07-07T15:10:31Z</time>
      </trkpt>
      <trkpt lat="48.03044599480927" lon="-0.285325013101101">
        <ele>72.719999999999999</ele>
        <time>2018-07-07T15:10:32Z</time>
      </trkpt>
      <trkpt lat="48.030311968177557" lon="-0.282539958134294">
        <ele>77.519999999999996</ele>
        <time>2018-07-07T15:10:41Z</time>
      </trkpt>
      <trkpt lat="48.029897985979915" lon="-0.279332958161831">
        <ele>90.019999999999996</ele>
        <time>2018-07-07T15:10:52Z</time>
      </trkpt>
      <trkpt lat="48.029618030413985" lon="-0.277216024696827">
        <ele>97.230000000000004</ele>
        <time>2018-07-07T15:11:02Z</time>
      </trkpt>
      <trkpt lat="48.029213016852736" lon="-0.274155037477613">
        <ele>112.13</ele>
        <time>2018-07-07T15:11:18Z</time>
      </trkpt>
      <trkpt lat="48.029153002426028" lon="-0.273697972297668">
        <ele>114.53</ele>
        <time>2018-07-07T15:11:21Z</time>
      </trkpt>
      <trkpt lat="48.029132969677448" lon="-0.27355195954442">
        <ele>115.5</ele>
        <time>2018-07-07T15:11:22Z</time>
      </trkpt>
      <trkpt lat="48.028952004387975" lon="-0.272176992148161">
        <ele>123.19</ele>
        <time>2018-07-07T15:11:31Z</time>
      </trkpt>
      <trkpt lat="48.028934989124537" lon="-0.272018993273377">
        <ele>123.67</ele>
        <time>2018-07-07T15:11:32Z</time>
      </trkpt>
      <trkpt lat="48.028777996078134" lon="-0.270836977288127">
        <ele>122.70999999999999</ele>
        <time>2018-07-07T15:11:41Z</time>
      </trkpt>
      <trkpt lat="48.028761986643076" lon="-0.270728012546897">
        <ele>122.22</ele>
        <time>2018-07-07T15:11:42Z</time>
      </trkpt>
      <trkpt lat="48.028745977208018" lon="-0.270620975643396">
        <ele>122.22</ele>
        <time>2018-07-07T15:11:43Z</time>
      </trkpt>
      <trkpt lat="48.028681017458439" lon="-0.270170029252768">
        <ele>119.81999999999999</ele>
        <time>2018-07-07T15:11:50Z</time>
      </trkpt>
      <trkpt lat="48.028670037165284" lon="-0.270095011219382">
        <ele>119.81999999999999</ele>
        <time>2018-07-07T15:11:51Z</time>
      </trkpt>
      <trkpt lat="48.028656039386988" lon="-0.269999960437417">
        <ele>119.34</ele>
        <time>2018-07-07T15:11:52Z</time>
      </trkpt>
      <trkpt lat="48.028522012755275" lon="-0.268861027434468">
        <ele>116.94</ele>
        <time>2018-07-07T15:12:00Z</time>
      </trkpt>
      <trkpt lat="48.028288995847106" lon="-0.267049027606845">
        <ele>113.56999999999999</ele>
        <time>2018-07-07T15:12:10Z</time>
      </trkpt>
      <trkpt lat="48.028021026402712" lon="-0.264851963147521">
        <ele>107.81</ele>
        <time>2018-07-07T15:12:21Z</time>
      </trkpt>
      <trkpt lat="48.027726989239454" lon="-0.262633021920919">
        <ele>100.59999999999999</ele>
        <time>2018-07-07T15:12:28Z</time>
      </trkpt>
      <trkpt lat="48.027462959289551" lon="-0.260522961616516">
        <ele>98.189999999999998</ele>
        <time>2018-07-07T15:12:35Z</time>
      </trkpt>
      <trkpt lat="48.027077978476882" lon="-0.257484018802643">
        <ele>95.790000000000006</ele>
        <time>2018-07-07T15:12:45Z</time>
      </trkpt>
      <trkpt lat="48.026766004040837" lon="-0.254768030717969">
        <ele>93.870000000000005</ele>
        <time>2018-07-07T15:12:53Z</time>
      </trkpt>
      <trkpt lat="48.026702972128987" lon="-0.25232101790607">
        <ele>95.790000000000006</ele>
        <time>2018-07-07T15:13:01Z</time>
      </trkpt>
      <trkpt lat="48.026602976024151" lon="-0.249552978202701">
        <ele>98.189999999999998</ele>
        <time>2018-07-07T15:13:10Z</time>
      </trkpt>
      <trkpt lat="48.026524018496275" lon="-0.248633986338973">
        <ele>100.11</ele>
        <time>2018-07-07T15:13:13Z</time>
      </trkpt>
      <trkpt lat="48.026498034596443" lon="-0.248327041044831">
        <ele>100.59999999999999</ele>
        <time>2018-07-07T15:13:14Z</time>
      </trkpt>
      <trkpt lat="48.02662099711597" lon="-0.245245015248656">
        <ele>107.31999999999999</ele>
        <time>2018-07-07T15:13:24Z</time>
      </trkpt>
      <trkpt lat="48.026739014312625" lon="-0.243700984865427">
        <ele>110.69</ele>
        <time>2018-07-07T15:13:29Z</time>
      </trkpt>
      <trkpt lat="48.026525024324656" lon="-0.240905033424497">
        <ele>116.45999999999999</ele>
        <time>2018-07-07T15:13:38Z</time>
      </trkpt>
      <trkpt lat="48.026135014370084" lon="-0.238187033683062">
        <ele>123.67</ele>
        <time>2018-07-07T15:13:47Z</time>
      </trkpt>
      <trkpt lat="48.025318030267954" lon="-0.236384002491832">
        <ele>128.94999999999999</ele>
        <time>2018-07-07T15:13:54Z</time>
      </trkpt>
      <trkpt lat="48.024148000404239" lon="-0.234196996316314">
        <ele>134.72</ele>
        <time>2018-07-07T15:14:03Z</time>
      </trkpt>
      <trkpt lat="48.023706022650003" lon="-0.231829024851322">
        <ele>140.00999999999999</ele>
        <time>2018-07-07T15:14:11Z</time>
      </trkpt>
      <trkpt lat="48.023070003837347" lon="-0.227217972278595">
        <ele>146.25999999999999</ele>
        <time>2018-07-07T15:14:26Z</time>
      </trkpt>
      <trkpt lat="48.022409006953239" lon="-0.222313972190022">
        <ele>134.72</ele>
        <time>2018-07-07T15:14:42Z</time>
      </trkpt>
      <trkpt lat="48.021825961768627" lon="-0.217898972332478">
        <ele>127.98999999999999</ele>
        <time>2018-07-07T15:14:57Z</time>
      </trkpt>
      <trkpt lat="48.021479034796357" lon="-0.215459000319242">
        <ele>121.26000000000001</ele>
        <time>2018-07-07T15:15:08Z</time>
      </trkpt>
      <trkpt lat="48.021408962085843" lon="-0.21498198620975">
        <ele>120.78</ele>
        <time>2018-07-07T15:15:11Z</time>
      </trkpt>
      <trkpt lat="48.021283987909555" lon="-0.214833961799741">
        <ele>120.3</ele>
        <time>2018-07-07T15:15:12Z</time>
      </trkpt>
      <trkpt lat="48.021234031766653" lon="-0.214721979573369">
        <ele>119.81999999999999</ele>
        <time>2018-07-07T15:15:14Z</time>
      </trkpt>
      <trkpt lat="48.02120896987617" lon="-0.214584013447165">
        <ele>120.3</ele>
        <time>2018-07-07T15:15:15Z</time>
      </trkpt>
      <trkpt lat="48.021219028159976" lon="-0.214533973485231">
        <ele>120.3</ele>
        <time>2018-07-07T15:15:16Z</time>
      </trkpt>
      <trkpt lat="48.02133402787149" lon="-0.214321995154023">
        <ele>120.3</ele>
        <time>2018-07-07T15:15:17Z</time>
      </trkpt>
      <trkpt lat="48.02131500095129" lon="-0.214170031249523">
        <ele>120.3</ele>
        <time>2018-07-07T15:15:18Z</time>
      </trkpt>
      <trkpt lat="48.02129102870822" lon="-0.213988982141018">
        <ele>120.3</ele>
        <time>2018-07-07T15:15:19Z</time>
      </trkpt>
      <trkpt lat="48.021264960989356" lon="-0.213787984102964">
        <ele>119.81999999999999</ele>
        <time>2018-07-07T15:15:20Z</time>
      </trkpt>
      <trkpt lat="48.021039990708232" lon="-0.211942037567496">
        <ele>118.86</ele>
        <time>2018-07-07T15:15:27Z</time>
      </trkpt>
      <trkpt lat="48.020556019619107" lon="-0.208284007385373">
        <ele>118.86</ele>
        <time>2018-07-07T15:15:38Z</time>
      </trkpt>
      <trkpt lat="48.020235998556018" lon="-0.205802964046597">
        <ele>118.86</ele>
        <time>2018-07-07T15:15:46Z</time>
      </trkpt>
      <trkpt lat="48.01966099999845" lon="-0.201474968343973">
        <ele>114.05</ele>
        <time>2018-07-07T15:16:00Z</time>
      </trkpt>
      <trkpt lat="48.019027998670936" lon="-0.196738019585609">
        <ele>110.69</ele>
        <time>2018-07-07T15:16:16Z</time>
      </trkpt>
      <trkpt lat="48.018685011193156" lon="-0.194082967936993">
        <ele>108.29000000000001</ele>
        <time>2018-07-07T15:16:28Z</time>
      </trkpt>
      <trkpt lat="48.018405977636576" lon="-0.191897973418236">
        <ele>103.95999999999999</ele>
        <time>2018-07-07T15:16:41Z</time>
      </trkpt>
      <trkpt lat="48.018274968490005" lon="-0.190760968253016">
        <ele>101.56</ele>
        <time>2018-07-07T15:16:48Z</time>
      </trkpt>
      <trkpt lat="48.018269017338753" lon="-0.190584026277065">
        <ele>101.08</ele>
        <time>2018-07-07T15:16:49Z</time>
      </trkpt>
      <trkpt lat="48.018344035372138" lon="-0.188698014244437">
        <ele>95.310000000000002</ele>
        <time>2018-07-07T15:16:58Z</time>
      </trkpt>
      <trkpt lat="48.018486024811864" lon="-0.186442025005817">
        <ele>86.180000000000007</ele>
        <time>2018-07-07T15:17:05Z</time>
      </trkpt>
      <trkpt lat="48.018685011193156" lon="-0.183077026158571">
        <ele>77.040000000000006</ele>
        <time>2018-07-07T15:17:15Z</time>
      </trkpt>
      <trkpt lat="48.018873017281294" lon="-0.179919982329011">
        <ele>90.019999999999996</ele>
        <time>2018-07-07T15:17:25Z</time>
      </trkpt>
      <trkpt lat="48.019054988399148" lon="-0.177067033946514">
        <ele>106.36</ele>
        <time>2018-07-07T15:17:34Z</time>
      </trkpt>
      <trkpt lat="48.019223967567086" lon="-0.174453975632787">
        <ele>114.05</ele>
        <time>2018-07-07T15:17:43Z</time>
      </trkpt>
      <trkpt lat="48.019522028043866" lon="-0.169978039339185">
        <ele>116.45999999999999</ele>
        <time>2018-07-07T15:17:58Z</time>
      </trkpt>
      <trkpt lat="48.019796032458544" lon="-0.165816005319357">
        <ele>115.5</ele>
        <time>2018-07-07T15:18:12Z</time>
      </trkpt>
      <trkpt lat="48.020114041864872" lon="-0.160707989707589">
        <ele>110.69</ele>
        <time>2018-07-07T15:18:29Z</time>
      </trkpt>
      <trkpt lat="48.020409001037478" lon="-0.156249990686774">
        <ele>109.25</ele>
        <time>2018-07-07T15:18:44Z</time>
      </trkpt>
      <trkpt lat="48.020699014887214" lon="-0.151775982230902">
        <ele>107.31999999999999</ele>
        <time>2018-07-07T15:18:59Z</time>
      </trkpt>
      <trkpt lat="48.020924990996718" lon="-0.148193975910544">
        <ele>97.230000000000004</ele>
        <time>2018-07-07T15:19:11Z</time>
      </trkpt>
      <trkpt lat="48.021145015954971" lon="-0.144705008715391">
        <ele>106.84</ele>
        <time>2018-07-07T15:19:23Z</time>
      </trkpt>
      <trkpt lat="48.021405022591352" lon="-0.1407690346241">
        <ele>105.40000000000001</ele>
        <time>2018-07-07T15:19:36Z</time>
      </trkpt>
      <trkpt lat="48.021652037277818" lon="-0.136896008625627">
        <ele>99.150000000000006</ele>
        <time>2018-07-07T15:19:49Z</time>
      </trkpt>
      <trkpt lat="48.021866027265787" lon="-0.133635029196739">
        <ele>91.939999999999998</ele>
        <time>2018-07-07T15:20:00Z</time>
      </trkpt>
      <trkpt lat="48.022082028910518" lon="-0.130343036726117">
        <ele>89.540000000000006</ele>
        <time>2018-07-07T15:20:11Z</time>
      </trkpt>
      <trkpt lat="48.022265005856752" lon="-0.126858009025455">
        <ele>97.709999999999994</ele>
        <time>2018-07-07T15:20:23Z</time>
      </trkpt>
      <trkpt lat="48.022027965635061" lon="-0.124433962628245">
        <ele>96.269999999999996</ele>
        <time>2018-07-07T15:20:31Z</time>
      </trkpt>
      <trkpt lat="48.021480040624738" lon="-0.120548028498888">
        <ele>84.730000000000004</ele>
        <time>2018-07-07T15:20:45Z</time>
      </trkpt>
      <trkpt lat="48.021226990967989" lon="-0.118645001202822">
        <ele>76.079999999999998</ele>
        <time>2018-07-07T15:20:55Z</time>
      </trkpt>
      <trkpt lat="48.020961033180356" lon="-0.116712972521782">
        <ele>74.159999999999997</ele>
        <time>2018-07-07T15:21:06Z</time>
      </trkpt>
      <trkpt lat="48.020933037623763" lon="-0.116550028324127">
        <ele>74.159999999999997</ele>
        <time>2018-07-07T15:21:07Z</time>
      </trkpt>
      <trkpt lat="48.020893977954984" lon="-0.116393035277724">
        <ele>74.159999999999997</ele>
        <time>2018-07-07T15:21:08Z</time>
      </trkpt>
      <trkpt lat="48.02064897492528" lon="-0.115687027573586">
        <ele>71.760000000000005</ele>
        <time>2018-07-07T15:21:13Z</time>
      </trkpt>
      <trkpt lat="48.020625002682209" lon="-0.115544032305479">
        <ele>71.269999999999996</ele>
        <time>2018-07-07T15:21:14Z</time>
      </trkpt>
      <trkpt lat="48.020597007125616" lon="-0.115377986803651">
        <ele>70.310000000000002</ele>
        <time>2018-07-07T15:21:15Z</time>
      </trkpt>
      <trkpt lat="48.020597007125616" lon="-0.113569004461169">
        <ele>69.349999999999994</ele>
        <time>2018-07-07T15:21:25Z</time>
      </trkpt>
      <trkpt lat="48.020621985197067" lon="-0.111184017732739">
        <ele>72.239999999999995</ele>
        <time>2018-07-07T15:21:36Z</time>
      </trkpt>
      <trkpt lat="48.020656015723944" lon="-0.108825014904141">
        <ele>74.159999999999997</ele>
        <time>2018-07-07T15:21:45Z</time>
      </trkpt>
      <trkpt lat="48.020683005452156" lon="-0.106284040957689">
        <ele>78</ele>
        <time>2018-07-07T15:21:55Z</time>
      </trkpt>
      <trkpt lat="48.020719969645143" lon="-0.103463027626276">
        <ele>85.689999999999998</ele>
        <time>2018-07-07T15:22:07Z</time>
      </trkpt>
      <trkpt lat="48.020723992958665" lon="-0.10319497436285">
        <ele>85.689999999999998</ele>
        <time>2018-07-07T15:22:08Z</time>
      </trkpt>
      <trkpt lat="48.020728016272187" lon="-0.102920969948173">
        <ele>85.209999999999994</ele>
        <time>2018-07-07T15:22:09Z</time>
      </trkpt>
      <trkpt lat="48.020783001556993" lon="-0.099106030538678">
        <ele>87.620000000000005</ele>
        <time>2018-07-07T15:22:22Z</time>
      </trkpt>
      <trkpt lat="48.020822983235121" lon="-0.09627403691411">
        <ele>90.5</ele>
        <time>2018-07-07T15:22:33Z</time>
      </trkpt>
      <trkpt lat="48.020896995440125" lon="-0.093985022976995">
        <ele>93.390000000000001</ele>
        <time>2018-07-07T15:22:42Z</time>
      </trkpt>
      <trkpt lat="48.020962961018085" lon="-0.093738008290529">
        <ele>93.870000000000005</ele>
        <time>2018-07-07T15:22:43Z</time>
      </trkpt>
      <trkpt lat="48.021025992929935" lon="-0.093501973897219">
        <ele>93.870000000000005</ele>
        <time>2018-07-07T15:22:44Z</time>
      </trkpt>
      <trkpt lat="48.021095981821418" lon="-0.093280021101236">
        <ele>93.870000000000005</ele>
        <time>2018-07-07T15:22:45Z</time>
      </trkpt>
      <trkpt lat="48.021190026775002" lon="-0.093067958950996">
        <ele>93.870000000000005</ele>
        <time>2018-07-07T15:22:46Z</time>
      </trkpt>
      <trkpt lat="48.021299997344613" lon="-0.092867966741323">
        <ele>94.349999999999994</ele>
        <time>2018-07-07T15:22:47Z</time>
      </trkpt>
      <trkpt lat="48.021422037854791" lon="-0.092689013108611">
        <ele>94.349999999999994</ele>
        <time>2018-07-07T15:22:48Z</time>
      </trkpt>
      <trkpt lat="48.022612016648054" lon="-0.090504018589854">
        <ele>91.939999999999998</ele>
        <time>2018-07-07T15:22:59Z</time>
      </trkpt>
      <trkpt lat="48.022951986640692" lon="-0.08905696682632">
        <ele>88.579999999999998</ele>
        <time>2018-07-07T15:23:05Z</time>
      </trkpt>
      <trkpt lat="48.022972019389272" lon="-0.088807018473744">
        <ele>88.099999999999994</ele>
        <time>2018-07-07T15:23:06Z</time>
      </trkpt>
      <trkpt lat="48.022962966933846" lon="-0.088549023494124">
        <ele>87.140000000000001</ele>
        <time>2018-07-07T15:23:07Z</time>
      </trkpt>
      <trkpt lat="48.022940000519156" lon="-0.088294968008995">
        <ele>86.659999999999997</ele>
        <time>2018-07-07T15:23:08Z</time>
      </trkpt>
      <trkpt lat="48.022887026891112" lon="-0.08804895915091">
        <ele>86.180000000000007</ele>
        <time>2018-07-07T15:23:09Z</time>
      </trkpt>
      <trkpt lat="48.022829024121165" lon="-0.087806973606348">
        <ele>86.180000000000007</ele>
        <time>2018-07-07T15:23:10Z</time>
      </trkpt>
      <trkpt lat="48.022745037451386" lon="-0.087583009153605">
        <ele>85.689999999999998</ele>
        <time>2018-07-07T15:23:11Z</time>
      </trkpt>
      <trkpt lat="48.022659961134195" lon="-0.087356027215719">
        <ele>85.209999999999994</ele>
        <time>2018-07-07T15:23:12Z</time>
      </trkpt>
      <trkpt lat="48.022571029141545" lon="-0.087117981165648">
        <ele>84.730000000000004</ele>
        <time>2018-07-07T15:23:13Z</time>
      </trkpt>
      <trkpt lat="48.022476984187961" lon="-0.086920000612736">
        <ele>84.25</ele>
        <time>2018-07-07T15:23:14Z</time>
      </trkpt>
      <trkpt lat="48.021225985139608" lon="-0.084140980616212">
        <ele>78</ele>
        <time>2018-07-07T15:23:27Z</time>
      </trkpt>
      <trkpt lat="48.020982993766665" lon="-0.082651013508439">
        <ele>74.640000000000001</ele>
        <time>2018-07-07T15:23:33Z</time>
      </trkpt>
      <trkpt lat="48.020982993766665" lon="-0.082393018528819">
        <ele>74.159999999999997</ele>
        <time>2018-07-07T15:23:34Z</time>
      </trkpt>
      <trkpt lat="48.020991962403059" lon="-0.079337982460856">
        <ele>69.829999999999998</ele>
        <time>2018-07-07T15:23:46Z</time>
      </trkpt>
      <trkpt lat="48.020786019042134" lon="-0.075488006696105">
        <ele>69.349999999999994</ele>
        <time>2018-07-07T15:24:01Z</time>
      </trkpt>
      <trkpt lat="48.020558031275868" lon="-0.071554966270924">
        <ele>67.430000000000007</ele>
        <time>2018-07-07T15:24:16Z</time>
      </trkpt>
      <trkpt lat="48.020350998267531" lon="-0.06800003349781">
        <ele>62.140000000000001</ele>
        <time>2018-07-07T15:24:28Z</time>
      </trkpt>
      <trkpt lat="48.020057966932654" lon="-0.06271499209106">
        <ele>57.82</ele>
        <time>2018-07-07T15:24:46Z</time>
      </trkpt>
      <trkpt lat="48.019806006923318" lon="-0.058331005275249">
        <ele>57.340000000000003</ele>
        <time>2018-07-07T15:25:01Z</time>
      </trkpt>
      <trkpt lat="48.019563015550375" lon="-0.054204007610679">
        <ele>58.299999999999997</ele>
        <time>2018-07-07T15:25:15Z</time>
      </trkpt>
      <trkpt lat="48.01929596811533" lon="-0.049542998895049">
        <ele>64.069999999999993</ele>
        <time>2018-07-07T15:25:31Z</time>
      </trkpt>
      <trkpt lat="48.019022969529033" lon="-0.044522993266582">
        <ele>65.989999999999995</ele>
        <time>2018-07-07T15:25:48Z</time>
      </trkpt>
      <trkpt lat="48.018723987042904" lon="-0.039265025407076">
        <ele>64.549999999999997</ele>
        <time>2018-07-07T15:26:06Z</time>
      </trkpt>
      <trkpt lat="48.018421987071633" lon="-0.034030023962259">
        <ele>67.909999999999997</ele>
        <time>2018-07-07T15:26:24Z</time>
      </trkpt>
      <trkpt lat="48.018228029832244" lon="-0.030805002897978">
        <ele>83.290000000000006</ele>
        <time>2018-07-07T15:26:35Z</time>
      </trkpt>
      <trkpt lat="48.017997024580836" lon="-0.026887971907854">
        <ele>104.44</ele>
        <time>2018-07-07T15:26:48Z</time>
      </trkpt>
      <trkpt lat="48.017767025157809" lon="-0.022630970925093">
        <ele>114.05</ele>
        <time>2018-07-07T15:27:02Z</time>
      </trkpt>
      <trkpt lat="48.017712961882353" lon="-0.018685022369027">
        <ele>105.88</ele>
        <time>2018-07-07T15:27:15Z</time>
      </trkpt>
      <trkpt lat="48.017881019040942" lon="-0.014484012499452">
        <ele>93.870000000000005</ele>
        <time>2018-07-07T15:27:29Z</time>
      </trkpt>
      <trkpt lat="48.017996018752456" lon="-0.011775987222791">
        <ele>89.540000000000006</ele>
        <time>2018-07-07T15:27:38Z</time>
      </trkpt>
      <trkpt lat="48.018172038719058" lon="-0.008647022768855">
        <ele>83.290000000000006</ele>
        <time>2018-07-07T15:27:49Z</time>
      </trkpt>
      <trkpt lat="48.018723987042904" lon="-0.006508966907859">
        <ele>78.480000000000004</ele>
        <time>2018-07-07T15:27:58Z</time>
      </trkpt>
      <trkpt lat="48.019374003633857" lon="-0.004714988172054">
        <ele>74.640000000000001</ele>
        <time>2018-07-07T15:28:06Z</time>
      </trkpt>
      <trkpt lat="48.019411973655224" lon="-0.004470990970731">
        <ele>74.159999999999997</ele>
        <time>2018-07-07T15:28:07Z</time>
      </trkpt>
      <trkpt lat="48.019435023888946" lon="-0.004214001819491">
        <ele>73.200000000000003</ele>
        <time>2018-07-07T15:28:08Z</time>
      </trkpt>
      <trkpt lat="48.019406022503972" lon="-0.003962041810155">
        <ele>72.239999999999995</ele>
        <time>2018-07-07T15:28:09Z</time>
      </trkpt>
      <trkpt lat="48.019378026947379" lon="-0.003707986325026">
        <ele>71.269999999999996</ele>
        <time>2018-07-07T15:28:10Z</time>
      </trkpt>
      <trkpt lat="48.019318012520671" lon="-0.003468012437224">
        <ele>70.790000000000006</ele>
        <time>2018-07-07T15:28:11Z</time>
      </trkpt>
      <trkpt lat="48.01925104111433" lon="-0.003230972215533">
        <ele>70.310000000000002</ele>
        <time>2018-07-07T15:28:12Z</time>
      </trkpt>
      <trkpt lat="48.019168982282281" lon="-0.003006001934409">
        <ele>69.829999999999998</ele>
        <time>2018-07-07T15:28:13Z</time>
      </trkpt>
      <trkpt lat="48.019076026976109" lon="-0.002787988632917">
        <ele>69.349999999999994</ele>
        <time>2018-07-07T15:28:14Z</time>
      </trkpt>
      <trkpt lat="48.01865098066628" lon="-0.001670010387897">
        <ele>68.390000000000001</ele>
        <time>2018-07-07T15:28:19Z</time>
      </trkpt>
      <trkpt lat="48.018475966528058" lon="0.000083986669779">
        <ele>65.989999999999995</ele>
        <time>2018-07-07T15:28:26Z</time>
      </trkpt>
      <trkpt lat="48.018501028418541" lon="0.002094972878695">
        <ele>67.909999999999997</ele>
        <time>2018-07-07T15:28:34Z</time>
      </trkpt>
      <trkpt lat="48.018464986234903" lon="0.002336036413908">
        <ele>68.870000000000005</ele>
        <time>2018-07-07T15:28:35Z</time>
      </trkpt>
      <trkpt lat="48.018411006778479" lon="0.002573998644948">
        <ele>69.349999999999994</ele>
        <time>2018-07-07T15:28:36Z</time>
      </trkpt>
      <trkpt lat="48.017775993794203" lon="0.004854965955019">
        <ele>76.560000000000002</ele>
        <time>2018-07-07T15:28:45Z</time>
      </trkpt>
      <trkpt lat="48.01759704016149" lon="0.005733976140618">
        <ele>76.560000000000002</ele>
        <time>2018-07-07T15:28:48Z</time>
      </trkpt>
      <trkpt lat="48.017563009634614" lon="0.006027007475495">
        <ele>76.560000000000002</ele>
        <time>2018-07-07T15:28:49Z</time>
      </trkpt>
      <trkpt lat="48.017548006027937" lon="0.006329007446766">
        <ele>75.599999999999994</ele>
        <time>2018-07-07T15:28:50Z</time>
      </trkpt>
      <trkpt lat="48.01753300242126" lon="0.006625978276134">
        <ele>74.640000000000001</ele>
        <time>2018-07-07T15:28:51Z</time>
      </trkpt>
      <trkpt lat="48.017517998814583" lon="0.006923032924533">
        <ele>74.159999999999997</ele>
        <time>2018-07-07T15:28:52Z</time>
      </trkpt>
      <trkpt lat="48.01751397550106" lon="0.007213968783617">
        <ele>73.200000000000003</ele>
        <time>2018-07-07T15:28:53Z</time>
      </trkpt>
      <trkpt lat="48.017825027927756" lon="0.00919402576983">
        <ele>71.269999999999996</ele>
        <time>2018-07-07T15:29:00Z</time>
      </trkpt>
      <trkpt lat="48.018684005364776" lon="0.011125970631838">
        <ele>73.200000000000003</ele>
        <time>2018-07-07T15:29:08Z</time>
      </trkpt>
      <trkpt lat="48.020609999075532" lon="0.014425003901124">
        <ele>83.290000000000006</ele>
        <time>2018-07-07T15:29:23Z</time>
      </trkpt>
      <trkpt lat="48.021393036469817" lon="0.016451999545097">
        <ele>90.5</ele>
        <time>2018-07-07T15:29:31Z</time>
      </trkpt>
      <trkpt lat="48.021569978445768" lon="0.018443036824465">
        <ele>97.230000000000004</ele>
        <time>2018-07-07T15:29:38Z</time>
      </trkpt>
      <trkpt lat="48.021799977868795" lon="0.021994030103087">
        <ele>107.31999999999999</ele>
        <time>2018-07-07T15:29:50Z</time>
      </trkpt>
      <trkpt lat="48.022050010040402" lon="0.027020992711186">
        <ele>112.13</ele>
        <time>2018-07-07T15:30:07Z</time>
      </trkpt>
      <trkpt lat="48.022308005020022" lon="0.031431969255209">
        <ele>106.36</ele>
        <time>2018-07-07T15:30:22Z</time>
      </trkpt>
      <trkpt lat="48.022602964192629" lon="0.036722039803863">
        <ele>95.310000000000002</ele>
        <time>2018-07-07T15:30:40Z</time>
      </trkpt>
      <trkpt lat="48.022837992757559" lon="0.040818024426699">
        <ele>92.900000000000006</ele>
        <time>2018-07-07T15:30:54Z</time>
      </trkpt>
      <trkpt lat="48.023116020485759" lon="0.046072974801064">
        <ele>94.349999999999994</ele>
        <time>2018-07-07T15:31:12Z</time>
      </trkpt>
      <trkpt lat="48.023409973829985" lon="0.051348963752389">
        <ele>94.829999999999998</ele>
        <time>2018-07-07T15:31:30Z</time>
      </trkpt>
      <trkpt lat="48.023640979081392" lon="0.055742003023624">
        <ele>96.269999999999996</ele>
        <time>2018-07-07T15:31:45Z</time>
      </trkpt>
      <trkpt lat="48.023887993767858" lon="0.0603730045259">
        <ele>81.370000000000005</ele>
        <time>2018-07-07T15:32:01Z</time>
      </trkpt>
      <trkpt lat="48.023927975445986" lon="0.061090998351574">
        <ele>78</ele>
        <time>2018-07-07T15:32:05Z</time>
      </trkpt>
      <trkpt lat="48.023933004587889" lon="0.061185965314507">
        <ele>77.040000000000006</ele>
        <time>2018-07-07T15:32:06Z</time>
      </trkpt>
      <trkpt lat="48.023853963240981" lon="0.061356034129858">
        <ele>76.560000000000002</ele>
        <time>2018-07-07T15:32:07Z</time>
      </trkpt>
      <trkpt lat="48.023816999047995" lon="0.061342036351562">
        <ele>76.079999999999998</ele>
        <time>2018-07-07T15:32:08Z</time>
      </trkpt>
      <trkpt lat="48.023766959086061" lon="0.061323009431362">
        <ele>75.120000000000005</ele>
        <time>2018-07-07T15:32:09Z</time>
      </trkpt>
      <trkpt lat="48.023700993508101" lon="0.061298031359911">
        <ele>74.640000000000001</ele>
        <time>2018-07-07T15:32:10Z</time>
      </trkpt>
      <trkpt lat="48.023620024323463" lon="0.061267018318176">
        <ele>74.640000000000001</ele>
        <time>2018-07-07T15:32:11Z</time>
      </trkpt>
      <trkpt lat="48.022763980552554" lon="0.060940040275455">
        <ele>77.040000000000006</ele>
        <time>2018-07-07T15:32:18Z</time>
      </trkpt>
      <trkpt lat="48.021673997864127" lon="0.060510970652103">
        <ele>80.890000000000001</ele>
        <time>2018-07-07T15:32:26Z</time>
      </trkpt>
      <trkpt lat="48.021412985399365" lon="0.060323970392346">
        <ele>81.370000000000005</ele>
        <time>2018-07-07T15:32:28Z</time>
      </trkpt>
      <trkpt lat="48.021283987909555" lon="0.060232020914555">
        <ele>81.370000000000005</ele>
        <time>2018-07-07T15:32:29Z</time>
      </trkpt>
      <trkpt lat="48.021135963499546" lon="0.060222968459129">
        <ele>81.849999999999994</ele>
        <time>2018-07-07T15:32:30Z</time>
      </trkpt>
      <trkpt lat="48.020974025130272" lon="0.060212993994355">
        <ele>81.849999999999994</ele>
        <time>2018-07-07T15:32:31Z</time>
      </trkpt>
      <trkpt lat="48.020804040133953" lon="0.060237972065806">
        <ele>81.849999999999994</ele>
        <time>2018-07-07T15:32:32Z</time>
      </trkpt>
      <trkpt lat="48.020165003836155" lon="0.060409968718886">
        <ele>82.810000000000002</ele>
        <time>2018-07-07T15:32:36Z</time>
      </trkpt>
      <trkpt lat="48.020014967769384" lon="0.060504013672471">
        <ele>82.810000000000002</ele>
        <time>2018-07-07T15:32:37Z</time>
      </trkpt>
      <trkpt lat="48.019867027178407" lon="0.060595041140914">
        <ele>82.810000000000002</ele>
        <time>2018-07-07T15:32:38Z</time>
      </trkpt>
      <trkpt lat="48.019580030813813" lon="0.060773994773626">
        <ele>82.810000000000002</ele>
        <time>2018-07-07T15:32:40Z</time>
      </trkpt>
      <trkpt lat="48.019291022792459" lon="0.060891006141901">
        <ele>82.810000000000002</ele>
        <time>2018-07-07T15:32:42Z</time>
      </trkpt>
      <trkpt lat="48.019136041402817" lon="0.0609100330621">
        <ele>82.810000000000002</ele>
        <time>2018-07-07T15:32:43Z</time>
      </trkpt>
      <trkpt lat="48.018390974029899" lon="0.06086896173656">
        <ele>84.25</ele>
        <time>2018-07-07T15:32:48Z</time>
      </trkpt>
      <trkpt lat="48.01772897131741" lon="0.060874996706843">
        <ele>84.730000000000004</ele>
        <time>2018-07-07T15:32:53Z</time>
      </trkpt>
      <trkpt lat="48.017572984099388" lon="0.060925036668777">
        <ele>84.730000000000004</ele>
        <time>2018-07-07T15:32:54Z</time>
      </trkpt>
      <trkpt lat="48.017399981617928" lon="0.060983039438725">
        <ele>84.25</ele>
        <time>2018-07-07T15:32:55Z</time>
      </trkpt>
      <trkpt lat="48.017237037420273" lon="0.061101978644729">
        <ele>84.25</ele>
        <time>2018-07-07T15:32:56Z</time>
      </trkpt>
      <trkpt lat="48.017064034938812" lon="0.061228964477777">
        <ele>83.769999999999996</ele>
        <time>2018-07-07T15:32:57Z</time>
      </trkpt>
      <trkpt lat="48.015616983175278" lon="0.062288017943501">
        <ele>80.890000000000001</ele>
        <time>2018-07-07T15:33:05Z</time>
      </trkpt>
      <trkpt lat="48.015349013730884" lon="0.062483986839652">
        <ele>78.969999999999999</ele>
        <time>2018-07-07T15:33:07Z</time>
      </trkpt>
      <trkpt lat="48.015237031504512" lon="0.062640979886055">
        <ele>78</ele>
        <time>2018-07-07T15:33:08Z</time>
      </trkpt>
      <trkpt lat="48.015118008479476" lon="0.062838960438967">
        <ele>76.560000000000002</ele>
        <time>2018-07-07T15:33:09Z</time>
      </trkpt>
      <trkpt lat="48.013999024406075" lon="0.06469395942986">
        <ele>67.909999999999997</ele>
        <time>2018-07-07T15:33:17Z</time>
      </trkpt>
      <trkpt lat="48.013123031705618" lon="0.065817972645164">
        <ele>67.909999999999997</ele>
        <time>2018-07-07T15:33:23Z</time>
      </trkpt>
      <trkpt lat="48.012296995148063" lon="0.066593969240785">
        <ele>66.950000000000003</ele>
        <time>2018-07-07T15:33:28Z</time>
      </trkpt>
      <trkpt lat="48.012137990444899" lon="0.066677033901215">
        <ele>66.950000000000003</ele>
        <time>2018-07-07T15:33:29Z</time>
      </trkpt>
      <trkpt lat="48.011976974084973" lon="0.066760014742613">
        <ele>66.950000000000003</ele>
        <time>2018-07-07T15:33:30Z</time>
      </trkpt>
      <trkpt lat="48.011803971603513" lon="0.066834026947618">
        <ele>66.469999999999999</ele>
        <time>2018-07-07T15:33:31Z</time>
      </trkpt>
      <trkpt lat="48.011627029627562" lon="0.066878031939268">
        <ele>66.469999999999999</ele>
        <time>2018-07-07T15:33:32Z</time>
      </trkpt>
      <trkpt lat="48.010780960321426" lon="0.067169973626733">
        <ele>66.469999999999999</ele>
        <time>2018-07-07T15:33:38Z</time>
      </trkpt>
      <trkpt lat="48.010671995580196" lon="0.067252032458782">
        <ele>66.950000000000003</ele>
        <time>2018-07-07T15:33:39Z</time>
      </trkpt>
      <trkpt lat="48.010201016440988" lon="0.067726029083133">
        <ele>67.430000000000007</ele>
        <time>2018-07-07T15:33:44Z</time>
      </trkpt>
      <trkpt lat="48.010104037821293" lon="0.067871036008">
        <ele>67.909999999999997</ele>
        <time>2018-07-07T15:33:45Z</time>
      </trkpt>
      <trkpt lat="48.010057015344501" lon="0.067974971607327">
        <ele>67.909999999999997</ele>
        <time>2018-07-07T15:33:46Z</time>
      </trkpt>
      <trkpt lat="48.009502971544862" lon="0.06901097483933">
        <ele>68.390000000000001</ele>
        <time>2018-07-07T15:33:55Z</time>
      </trkpt>
      <trkpt lat="48.009035009890795" lon="0.069764005020261">
        <ele>71.760000000000005</ele>
        <time>2018-07-07T15:34:05Z</time>
      </trkpt>
      <trkpt lat="48.008763017132878" lon="0.070133982226253">
        <ele>75.120000000000005</ele>
        <time>2018-07-07T15:34:12Z</time>
      </trkpt>
      <trkpt lat="48.008610969409347" lon="0.070301033556461">
        <ele>76.079999999999998</ele>
        <time>2018-07-07T15:34:15Z</time>
      </trkpt>
      <trkpt lat="48.008507033810019" lon="0.070419972762465">
        <ele>77.040000000000006</ele>
        <time>2018-07-07T15:34:17Z</time>
      </trkpt>
      <trkpt lat="48.008453976362944" lon="0.070479987189174">
        <ele>77.040000000000006</ele>
        <time>2018-07-07T15:34:18Z</time>
      </trkpt>
      <trkpt lat="48.008257001638412" lon="0.070742005482316">
        <ele>76.560000000000002</ele>
        <time>2018-07-07T15:34:26Z</time>
      </trkpt>
      <trkpt lat="48.008231017738581" lon="0.070808976888657">
        <ele>76.079999999999998</ele>
        <time>2018-07-07T15:34:27Z</time>
      </trkpt>
      <trkpt lat="48.008091961964965" lon="0.071170991286635">
        <ele>76.079999999999998</ele>
        <time>2018-07-07T15:34:31Z</time>
      </trkpt>
      <trkpt lat="48.008060026913881" lon="0.071278028190136">
        <ele>76.560000000000002</ele>
        <time>2018-07-07T15:34:32Z</time>
      </trkpt>
      <trkpt lat="48.008040999993682" lon="0.071398979052901">
        <ele>77.040000000000006</ele>
        <time>2018-07-07T15:34:33Z</time>
      </trkpt>
      <trkpt lat="48.007938992232084" lon="0.072041032835841">
        <ele>78.969999999999999</ele>
        <time>2018-07-07T15:34:38Z</time>
      </trkpt>
      <trkpt lat="48.007890963926911" lon="0.072141028940678">
        <ele>79.930000000000007</ele>
        <time>2018-07-07T15:34:39Z</time>
      </trkpt>
      <trkpt lat="48.007840001955628" lon="0.072237001731992">
        <ele>80.409999999999997</ele>
        <time>2018-07-07T15:34:40Z</time>
      </trkpt>
      <trkpt lat="48.007737994194031" lon="0.072427019476891">
        <ele>80.890000000000001</ele>
        <time>2018-07-07T15:34:42Z</time>
      </trkpt>
      <trkpt lat="48.007688960060477" lon="0.072517963126302">
        <ele>81.370000000000005</ele>
        <time>2018-07-07T15:34:43Z</time>
      </trkpt>
      <trkpt lat="48.007041960954666" lon="0.073622027412057">
        <ele>81.849999999999994</ele>
        <time>2018-07-07T15:34:53Z</time>
      </trkpt>
      <trkpt lat="48.006166974082589" lon="0.074923988431692">
        <ele>78.969999999999999</ele>
        <time>2018-07-07T15:35:01Z</time>
      </trkpt>
      <trkpt lat="48.00524496473372" lon="0.076586036011577">
        <ele>77.519999999999996</ele>
        <time>2018-07-07T15:35:08Z</time>
      </trkpt>
      <trkpt lat="48.004472991451621" lon="0.078024035319686">
        <ele>83.769999999999996</ele>
        <time>2018-07-07T15:35:15Z</time>
      </trkpt>
      <trkpt lat="48.003867985680699" lon="0.079117035493255">
        <ele>84.25</ele>
        <time>2018-07-07T15:35:20Z</time>
      </trkpt>
      <trkpt lat="48.002840029075742" lon="0.081545021384954">
        <ele>84.25</ele>
        <time>2018-07-07T15:35:29Z</time>
      </trkpt>
      <trkpt lat="48.001780975610018" lon="0.083337994292378">
        <ele>82.329999999999998</ele>
        <time>2018-07-07T15:35:37Z</time>
      </trkpt>
      <trkpt lat="48.000985030084848" lon="0.085226017981768">
        <ele>78.480000000000004</ele>
        <time>2018-07-07T15:35:44Z</time>
      </trkpt>
      <trkpt lat="48.000789983198047" lon="0.085734967142344">
        <ele>78</ele>
        <time>2018-07-07T15:35:46Z</time>
      </trkpt>
      <trkpt lat="48.000665009021759" lon="0.085946023464203">
        <ele>77.519999999999996</ele>
        <time>2018-07-07T15:35:47Z</time>
      </trkpt>
      <trkpt lat="48.000524025410414" lon="0.086158001795411">
        <ele>77.040000000000006</ele>
        <time>2018-07-07T15:35:48Z</time>
      </trkpt>
      <trkpt lat="48.000376001000404" lon="0.086379032582045">
        <ele>77.040000000000006</ele>
        <time>2018-07-07T15:35:49Z</time>
      </trkpt>
      <trkpt lat="48.00021699629724" lon="0.086592016741633">
        <ele>76.560000000000002</ele>
        <time>2018-07-07T15:35:50Z</time>
      </trkpt>
      <trkpt lat="47.998657040297985" lon="0.08828398771584">
        <ele>69.829999999999998</ele>
        <time>2018-07-07T15:35:59Z</time>
      </trkpt>
      <trkpt lat="47.997189033776522" lon="0.089115975424647">
        <ele>65.989999999999995</ele>
        <time>2018-07-07T15:36:06Z</time>
      </trkpt>
      <trkpt lat="47.995963012799621" lon="0.089372964575887">
        <ele>72.239999999999995</ele>
        <time>2018-07-07T15:36:12Z</time>
      </trkpt>
      <trkpt lat="47.995824962854385" lon="0.089477989822626">
        <ele>73.200000000000003</ele>
        <time>2018-07-07T15:36:13Z</time>
      </trkpt>
      <trkpt lat="47.995710968971252" lon="0.089608998969197">
        <ele>74.159999999999997</ele>
        <time>2018-07-07T15:36:14Z</time>
      </trkpt>
      <trkpt lat="47.995608039200306" lon="0.089740008115768">
        <ele>75.599999999999994</ele>
        <time>2018-07-07T15:36:15Z</time>
      </trkpt>
      <trkpt lat="47.995526986196637" lon="0.089918039739132">
        <ele>76.079999999999998</ele>
        <time>2018-07-07T15:36:16Z</time>
      </trkpt>
      <trkpt lat="47.995441993698478" lon="0.090101016685367">
        <ele>77.519999999999996</ele>
        <time>2018-07-07T15:36:17Z</time>
      </trkpt>
      <trkpt lat="47.99536001868546" lon="0.090292962267995">
        <ele>78</ele>
        <time>2018-07-07T15:36:18Z</time>
      </trkpt>
      <trkpt lat="47.995324982330203" lon="0.090509969741106">
        <ele>78.969999999999999</ele>
        <time>2018-07-07T15:36:19Z</time>
      </trkpt>
      <trkpt lat="47.995290029793978" lon="0.090734018012881">
        <ele>79.450000000000003</ele>
        <time>2018-07-07T15:36:20Z</time>
      </trkpt>
      <trkpt lat="47.99525398761034" lon="0.090963011607528">
        <ele>80.409999999999997</ele>
        <time>2018-07-07T15:36:21Z</time>
      </trkpt>
      <trkpt lat="47.995242001488805" lon="0.091202985495329">
        <ele>81.370000000000005</ele>
        <time>2018-07-07T15:36:22Z</time>
      </trkpt>
      <trkpt lat="47.995259016752243" lon="0.091445976868272">
        <ele>81.849999999999994</ele>
        <time>2018-07-07T15:36:23Z</time>
      </trkpt>
      <trkpt lat="47.995277037844062" lon="0.091695003211498">
        <ele>82.810000000000002</ele>
        <time>2018-07-07T15:36:24Z</time>
      </trkpt>
      <trkpt lat="47.995378039777279" lon="0.093821994960308">
        <ele>89.060000000000002</ele>
        <time>2018-07-07T15:36:32Z</time>
      </trkpt>
      <trkpt lat="47.995343003422022" lon="0.09410597383976">
        <ele>89.540000000000006</ele>
        <time>2018-07-07T15:36:33Z</time>
      </trkpt>
      <trkpt lat="47.995041003450751" lon="0.096933022141457">
        <ele>94.349999999999994</ele>
        <time>2018-07-07T15:36:42Z</time>
      </trkpt>
      <trkpt lat="47.99510101787746" lon="0.098828002810478">
        <ele>101.56</ele>
        <time>2018-07-07T15:36:48Z</time>
      </trkpt>
      <trkpt lat="47.995077967643738" lon="0.099322032183409">
        <ele>103.48</ele>
        <time>2018-07-07T15:36:50Z</time>
      </trkpt>
      <trkpt lat="47.99506195820868" lon="0.09954197332263">
        <ele>104.44</ele>
        <time>2018-07-07T15:36:51Z</time>
      </trkpt>
      <trkpt lat="47.995004961267114" lon="0.099763004109263">
        <ele>105.40000000000001</ele>
        <time>2018-07-07T15:36:52Z</time>
      </trkpt>
      <trkpt lat="47.994955005124211" lon="0.099956961348653">
        <ele>106.36</ele>
        <time>2018-07-07T15:36:53Z</time>
      </trkpt>
      <trkpt lat="47.994911000132561" lon="0.100125018507242">
        <ele>106.84</ele>
        <time>2018-07-07T15:36:54Z</time>
      </trkpt>
      <trkpt lat="47.9945860337466" lon="0.100889028981328">
        <ele>108.29000000000001</ele>
        <time>2018-07-07T15:37:00Z</time>
      </trkpt>
      <trkpt lat="47.994532976299524" lon="0.101000005379319">
        <ele>108.29000000000001</ele>
        <time>2018-07-07T15:37:01Z</time>
      </trkpt>
      <trkpt lat="47.99392101354897" lon="0.102448984980583">
        <ele>103.95999999999999</ele>
        <time>2018-07-07T15:37:12Z</time>
      </trkpt>
      <trkpt lat="47.99387700855732" lon="0.102599021047354">
        <ele>103.48</ele>
        <time>2018-07-07T15:37:13Z</time>
      </trkpt>
      <trkpt lat="47.993852030485868" lon="0.102759031578898">
        <ele>103</ele>
        <time>2018-07-07T15:37:14Z</time>
      </trkpt>
      <trkpt lat="47.993838032707572" lon="0.102923987433314">
        <ele>102.52</ele>
        <time>2018-07-07T15:37:15Z</time>
      </trkpt>
      <trkpt lat="47.993823029100895" lon="0.103089027106762">
        <ele>102.52</ele>
        <time>2018-07-07T15:37:16Z</time>
      </trkpt>
      <trkpt lat="47.993707023561001" lon="0.104546975344419">
        <ele>98.670000000000002</ele>
        <time>2018-07-07T15:37:26Z</time>
      </trkpt>
      <trkpt lat="47.993590012192726" lon="0.106143979355693">
        <ele>94.829999999999998</ele>
        <time>2018-07-07T15:37:38Z</time>
      </trkpt>
      <trkpt lat="47.993537038564682" lon="0.106849987059832">
        <ele>94.349999999999994</ele>
        <time>2018-07-07T15:37:45Z</time>
      </trkpt>
      <trkpt lat="47.993528991937637" lon="0.106949983164668">
        <ele>93.870000000000005</ele>
        <time>2018-07-07T15:37:46Z</time>
      </trkpt>
      <trkpt lat="47.993521029129624" lon="0.107043022289872">
        <ele>93.870000000000005</ele>
        <time>2018-07-07T15:37:47Z</time>
      </trkpt>
      <trkpt lat="47.99351298250258" lon="0.107131032273173">
        <ele>93.870000000000005</ele>
        <time>2018-07-07T15:37:48Z</time>
      </trkpt>
      <trkpt lat="47.993506025522947" lon="0.107215018942952">
        <ele>93.870000000000005</ele>
        <time>2018-07-07T15:37:49Z</time>
      </trkpt>
      <trkpt lat="47.993495967239141" lon="0.107331024482846">
        <ele>93.870000000000005</ele>
        <time>2018-07-07T15:37:50Z</time>
      </trkpt>
      <trkpt lat="47.99349102191627" lon="0.107377041131258">
        <ele>93.870000000000005</ele>
        <time>2018-07-07T15:37:51Z</time>
      </trkpt>
      <trkpt lat="47.993480963632464" lon="0.107463039457798">
        <ele>93.390000000000001</ele>
        <time>2018-07-07T15:37:52Z</time>
      </trkpt>
      <trkpt lat="47.993475012481213" lon="0.107552977278829">
        <ele>93.390000000000001</ele>
        <time>2018-07-07T15:37:53Z</time>
      </trkpt>
      <trkpt lat="47.993410974740982" lon="0.107865035533905">
        <ele>92.420000000000002</ele>
        <time>2018-07-07T15:37:56Z</time>
      </trkpt>
      <trkpt lat="47.993379961699247" lon="0.107978023588657">
        <ele>91.939999999999998</ele>
        <time>2018-07-07T15:37:57Z</time>
      </trkpt>
      <trkpt lat="47.993315001949668" lon="0.108217997476459">
        <ele>90.019999999999996</ele>
        <time>2018-07-07T15:37:59Z</time>
      </trkpt>
      <trkpt lat="47.993279965594411" lon="0.108344983309507">
        <ele>88.579999999999998</ele>
        <time>2018-07-07T15:38:00Z</time>
      </trkpt>
      <trkpt lat="47.99323302693665" lon="0.108468029648066">
        <ele>87.620000000000005</ele>
        <time>2018-07-07T15:38:01Z</time>
      </trkpt>
      <trkpt lat="47.993188016116619" lon="0.108588980510831">
        <ele>86.180000000000007</ele>
        <time>2018-07-07T15:38:02Z</time>
      </trkpt>
      <trkpt lat="47.99314602278173" lon="0.108703980222344">
        <ele>85.209999999999994</ele>
        <time>2018-07-07T15:38:03Z</time>
      </trkpt>
      <trkpt lat="47.993109980598092" lon="0.108811017125845">
        <ele>84.25</ele>
        <time>2018-07-07T15:38:04Z</time>
      </trkpt>
      <trkpt lat="47.992939995601773" lon="0.109172025695443">
        <ele>81.370000000000005</ele>
        <time>2018-07-07T15:38:08Z</time>
      </trkpt>
      <trkpt lat="47.992877969518304" lon="0.109235979616642">
        <ele>80.890000000000001</ele>
        <time>2018-07-07T15:38:09Z</time>
      </trkpt>
      <trkpt lat="47.992815021425486" lon="0.109300017356873">
        <ele>80.409999999999997</ele>
        <time>2018-07-07T15:38:10Z</time>
      </trkpt>
      <trkpt lat="47.992749977856874" lon="0.109364977106452">
        <ele>80.409999999999997</ele>
        <time>2018-07-07T15:38:11Z</time>
      </trkpt>
      <trkpt lat="47.99267596565187" lon="0.109407976269722">
        <ele>79.930000000000007</ele>
        <time>2018-07-07T15:38:12Z</time>
      </trkpt>
      <trkpt lat="47.992601031437516" lon="0.109448041766882">
        <ele>79.930000000000007</ele>
        <time>2018-07-07T15:38:13Z</time>
      </trkpt>
      <trkpt lat="47.992527019232512" lon="0.109489029273391">
        <ele>79.450000000000003</ele>
        <time>2018-07-07T15:38:14Z</time>
      </trkpt>
      <trkpt lat="47.992444960400462" lon="0.109514007344842">
        <ele>79.450000000000003</ele>
        <time>2018-07-07T15:38:15Z</time>
      </trkpt>
      <trkpt lat="47.992363991215825" lon="0.109533034265041">
        <ele>79.450000000000003</ele>
        <time>2018-07-07T15:38:16Z</time>
      </trkpt>
      <trkpt lat="47.991353971883655" lon="0.109816007316113">
        <ele>79.450000000000003</ele>
        <time>2018-07-07T15:38:28Z</time>
      </trkpt>
      <trkpt lat="47.991193039342761" lon="0.10991801507771">
        <ele>79.930000000000007</ele>
        <time>2018-07-07T15:38:30Z</time>
      </trkpt>
      <trkpt lat="47.991124978289008" lon="0.109981968998909">
        <ele>79.930000000000007</ele>
        <time>2018-07-07T15:38:31Z</time>
      </trkpt>
      <trkpt lat="47.990988017991185" lon="0.110118007287383">
        <ele>80.409999999999997</ele>
        <time>2018-07-07T15:38:33Z</time>
      </trkpt>
      <trkpt lat="47.990320986136794" lon="0.111138001084328">
        <ele>81.370000000000005</ele>
        <time>2018-07-07T15:38:43Z</time>
      </trkpt>
      <trkpt lat="47.990269018337131" lon="0.111241014674306">
        <ele>81.370000000000005</ele>
        <time>2018-07-07T15:38:44Z</time>
      </trkpt>
      <trkpt lat="47.990219984203577" lon="0.111350985243917">
        <ele>81.849999999999994</ele>
        <time>2018-07-07T15:38:45Z</time>
      </trkpt>
      <trkpt lat="47.990170028060675" lon="0.11146598495543">
        <ele>81.849999999999994</ele>
        <time>2018-07-07T15:38:46Z</time>
      </trkpt>
      <trkpt lat="47.990062991157174" lon="0.111807966604829">
        <ele>81.849999999999994</ele>
        <time>2018-07-07T15:38:49Z</time>
      </trkpt>
      <trkpt lat="47.990062991157174" lon="0.111936964094639">
        <ele>82.329999999999998</ele>
        <time>2018-07-07T15:38:50Z</time>
      </trkpt>
      <trkpt lat="47.990062991157174" lon="0.112074008211493">
        <ele>82.810000000000002</ele>
        <time>2018-07-07T15:38:51Z</time>
      </trkpt>
      <trkpt lat="47.990084029734135" lon="0.113111017271876">
        <ele>83.769999999999996</ele>
        <time>2018-07-07T15:38:57Z</time>
      </trkpt>
      <trkpt lat="47.990119988098741" lon="0.113465990871191">
        <ele>83.769999999999996</ele>
        <time>2018-07-07T15:38:59Z</time>
      </trkpt>
      <trkpt lat="47.990455012768507" lon="0.114949000999331">
        <ele>80.890000000000001</ele>
        <time>2018-07-07T15:39:06Z</time>
      </trkpt>
      <trkpt lat="47.990512009710073" lon="0.115191992372274">
        <ele>80.409999999999997</ele>
        <time>2018-07-07T15:39:07Z</time>
      </trkpt>
      <trkpt lat="47.990552997216582" lon="0.115430960431695">
        <ele>79.930000000000007</ele>
        <time>2018-07-07T15:39:08Z</time>
      </trkpt>
      <trkpt lat="47.990537993609905" lon="0.115689039230347">
        <ele>79.450000000000003</ele>
        <time>2018-07-07T15:39:09Z</time>
      </trkpt>
      <trkpt lat="47.990491976961493" lon="0.115962037816644">
        <ele>78.969999999999999</ele>
        <time>2018-07-07T15:39:10Z</time>
      </trkpt>
      <trkpt lat="47.990433974191546" lon="0.116262026131153">
        <ele>79.450000000000003</ele>
        <time>2018-07-07T15:39:11Z</time>
      </trkpt>
      <trkpt lat="47.990361973643303" lon="0.116546005010605">
        <ele>79.930000000000007</ele>
        <time>2018-07-07T15:39:12Z</time>
      </trkpt>
      <trkpt lat="47.990046981722116" lon="0.117527022957802">
        <ele>80.409999999999997</ele>
        <time>2018-07-07T15:39:17Z</time>
      </trkpt>
      <trkpt lat="47.989811031147838" lon="0.117912003770471">
        <ele>80.890000000000001</ele>
        <time>2018-07-07T15:39:20Z</time>
      </trkpt>
      <trkpt lat="47.989713968709111" lon="0.118052987381816">
        <ele>81.370000000000005</ele>
        <time>2018-07-07T15:39:21Z</time>
      </trkpt>
      <trkpt lat="47.989498972892761" lon="0.118364039808512">
        <ele>80.409999999999997</ele>
        <time>2018-07-07T15:39:23Z</time>
      </trkpt>
      <trkpt lat="47.989385984838009" lon="0.118542993441224">
        <ele>79.450000000000003</ele>
        <time>2018-07-07T15:39:24Z</time>
      </trkpt>
      <trkpt lat="47.989295963197947" lon="0.118782967329025">
        <ele>78.969999999999999</ele>
        <time>2018-07-07T15:39:25Z</time>
      </trkpt>
      <trkpt lat="47.988981977105141" lon="0.119826011359692">
        <ele>75.120000000000005</ele>
        <time>2018-07-07T15:39:29Z</time>
      </trkpt>
      <trkpt lat="47.98893797211349" lon="0.120110996067524">
        <ele>73.680000000000007</ele>
        <time>2018-07-07T15:39:30Z</time>
      </trkpt>
      <trkpt lat="47.988719958811998" lon="0.12194998562336">
        <ele>65.030000000000001</ele>
        <time>2018-07-07T15:39:36Z</time>
      </trkpt>
      <trkpt lat="47.988658016547561" lon="0.122218960896134">
        <ele>64.069999999999993</ele>
        <time>2018-07-07T15:39:37Z</time>
      </trkpt>
      <trkpt lat="47.988564977422357" lon="0.122473016381264">
        <ele>63.579999999999998</ele>
        <time>2018-07-07T15:39:38Z</time>
      </trkpt>
      <trkpt lat="47.988280998542905" lon="0.123190004378557">
        <ele>63.579999999999998</ele>
        <time>2018-07-07T15:39:41Z</time>
      </trkpt>
      <trkpt lat="47.988211009651423" lon="0.123427966609597">
        <ele>64.069999999999993</ele>
        <time>2018-07-07T15:39:42Z</time>
      </trkpt>
      <trkpt lat="47.988159963861108" lon="0.123671963810921">
        <ele>65.030000000000001</ele>
        <time>2018-07-07T15:39:43Z</time>
      </trkpt>
      <trkpt lat="47.988153006881475" lon="0.123941022902727">
        <ele>65.510000000000005</ele>
        <time>2018-07-07T15:39:44Z</time>
      </trkpt>
      <trkpt lat="47.988173039630055" lon="0.124211004003882">
        <ele>65.510000000000005</ele>
        <time>2018-07-07T15:39:45Z</time>
      </trkpt>
      <trkpt lat="47.988210003823042" lon="0.124482996761799">
        <ele>65.510000000000005</ele>
        <time>2018-07-07T15:39:46Z</time>
      </trkpt>
      <trkpt lat="47.988562965765595" lon="0.127196973189712">
        <ele>64.549999999999997</ele>
        <time>2018-07-07T15:39:55Z</time>
      </trkpt>
      <trkpt lat="47.988796988502145" lon="0.129870967939496">
        <ele>66.950000000000003</ele>
        <time>2018-07-07T15:40:04Z</time>
      </trkpt>
      <trkpt lat="47.988796988502145" lon="0.130127035081387">
        <ele>66.950000000000003</ele>
        <time>2018-07-07T15:40:05Z</time>
      </trkpt>
      <trkpt lat="47.988776033744216" lon="0.130387041717768">
        <ele>66.950000000000003</ele>
        <time>2018-07-07T15:40:06Z</time>
      </trkpt>
      <trkpt lat="47.988704033195972" lon="0.130641013383865">
        <ele>66.950000000000003</ele>
        <time>2018-07-07T15:40:07Z</time>
      </trkpt>
      <trkpt lat="47.988628009334207" lon="0.130914011970162">
        <ele>66.950000000000003</ele>
        <time>2018-07-07T15:40:08Z</time>
      </trkpt>
      <trkpt lat="47.988547962158918" lon="0.131195979192853">
        <ele>66.469999999999999</ele>
        <time>2018-07-07T15:40:09Z</time>
      </trkpt>
      <trkpt lat="47.987713040784001" lon="0.13338197953999">
        <ele>63.579999999999998</ele>
        <time>2018-07-07T15:40:18Z</time>
      </trkpt>
      <trkpt lat="47.986953975632787" lon="0.135130025446415">
        <ele>60.700000000000003</ele>
        <time>2018-07-07T15:40:28Z</time>
      </trkpt>
      <trkpt lat="47.985946973785758" lon="0.137571003288031">
        <ele>57.340000000000003</ele>
        <time>2018-07-07T15:40:41Z</time>
      </trkpt>
      <trkpt lat="47.985334005206823" lon="0.139256017282605">
        <ele>56.859999999999999</ele>
        <time>2018-07-07T15:40:51Z</time>
      </trkpt>
      <trkpt lat="47.984902001917362" lon="0.140786971896887">
        <ele>56.859999999999999</ele>
        <time>2018-07-07T15:41:01Z</time>
      </trkpt>
      <trkpt lat="47.984794965013862" lon="0.141302961856127">
        <ele>57.340000000000003</ele>
        <time>2018-07-07T15:41:04Z</time>
      </trkpt>
      <trkpt lat="47.984524983912706" lon="0.142769040539861">
        <ele>58.299999999999997</ele>
        <time>2018-07-07T15:41:13Z</time>
      </trkpt>
      <trkpt lat="47.984069008380175" lon="0.144661003723741">
        <ele>61.659999999999997</ele>
        <time>2018-07-07T15:41:25Z</time>
      </trkpt>
      <trkpt lat="47.983883013948798" lon="0.146625973284245">
        <ele>64.549999999999997</ele>
        <time>2018-07-07T15:41:36Z</time>
      </trkpt>
      <trkpt lat="47.983861975371838" lon="0.148019967600703">
        <ele>66.469999999999999</ele>
        <time>2018-07-07T15:41:46Z</time>
      </trkpt>
      <trkpt lat="47.983861975371838" lon="0.148188024759293">
        <ele>66.950000000000003</ele>
        <time>2018-07-07T15:41:48Z</time>
      </trkpt>
      <trkpt lat="47.983861975371838" lon="0.148253990337253">
        <ele>66.469999999999999</ele>
        <time>2018-07-07T15:41:49Z</time>
      </trkpt>
      <trkpt lat="47.983861975371838" lon="0.148309981450439">
        <ele>66.469999999999999</ele>
        <time>2018-07-07T15:41:50Z</time>
      </trkpt>
      <trkpt lat="47.983861975371838" lon="0.148357003927231">
        <ele>66.469999999999999</ele>
        <time>2018-07-07T15:41:51Z</time>
      </trkpt>
      <trkpt lat="47.983861975371838" lon="0.148392040282488">
        <ele>66.469999999999999</ele>
        <time>2018-07-07T15:41:52Z</time>
      </trkpt>
      <trkpt lat="47.983861975371838" lon="0.148392040282488">
        <ele>66.469999999999999</ele>
        <time>2018-07-07T15:41:53Z</time>
      </trkpt>
      <trkpt lat="47.983861975371838" lon="0.148392040282488">
        <ele>66.469999999999999</ele>
        <time>2018-07-07T15:42:07Z</time>
      </trkpt>
      <trkpt lat="47.983861975371838" lon="0.148738967254758">
        <ele>65.510000000000005</ele>
        <time>2018-07-07T15:42:18Z</time>
      </trkpt>
      <trkpt lat="47.983818976208568" lon="0.149044990539551">
        <ele>62.619999999999997</ele>
        <time>2018-07-07T15:42:22Z</time>
      </trkpt>
      <trkpt lat="47.983815036714077" lon="0.149127971380949">
        <ele>62.619999999999997</ele>
        <time>2018-07-07T15:42:23Z</time>
      </trkpt>
      <trkpt lat="47.983761979267001" lon="0.150294983759522">
        <ele>57.82</ele>
        <time>2018-07-07T15:42:32Z</time>
      </trkpt>
      <trkpt lat="47.983756028115749" lon="0.1504170242697">
        <ele>57.340000000000003</ele>
        <time>2018-07-07T15:42:33Z</time>
      </trkpt>
      <trkpt lat="47.983750998973846" lon="0.150526994839311">
        <ele>57.340000000000003</ele>
        <time>2018-07-07T15:42:34Z</time>
      </trkpt>
      <trkpt lat="47.983745969831944" lon="0.150633025914431">
        <ele>57.340000000000003</ele>
        <time>2018-07-07T15:42:35Z</time>
      </trkpt>
      <trkpt lat="47.983742030337453" lon="0.150733022019267">
        <ele>57.340000000000003</ele>
        <time>2018-07-07T15:42:36Z</time>
      </trkpt>
      <trkpt lat="47.983738007023931" lon="0.150827988982201">
        <ele>57.340000000000003</ele>
        <time>2018-07-07T15:42:37Z</time>
      </trkpt>
      <trkpt lat="47.983633987605572" lon="0.151015995070338">
        <ele>56.859999999999999</ele>
        <time>2018-07-07T15:42:39Z</time>
      </trkpt>
      <trkpt lat="47.983603980392218" lon="0.151112973690033">
        <ele>56.859999999999999</ele>
        <time>2018-07-07T15:42:40Z</time>
      </trkpt>
      <trkpt lat="47.983603980392218" lon="0.15114801004529">
        <ele>56.859999999999999</ele>
        <time>2018-07-07T15:42:41Z</time>
      </trkpt>
      <trkpt lat="47.983711017295718" lon="0.151461996138096">
        <ele>57.340000000000003</ele>
        <time>2018-07-07T15:42:43Z</time>
      </trkpt>
      <trkpt lat="47.983711017295718" lon="0.151595016941428">
        <ele>57.82</ele>
        <time>2018-07-07T15:42:44Z</time>
      </trkpt>
      <trkpt lat="47.983711017295718" lon="0.151740023866296">
        <ele>57.82</ele>
        <time>2018-07-07T15:42:45Z</time>
      </trkpt>
      <trkpt lat="47.983711017295718" lon="0.151887964457273">
        <ele>58.299999999999997</ele>
        <time>2018-07-07T15:42:46Z</time>
      </trkpt>
      <trkpt lat="47.983711017295718" lon="0.152032971382141">
        <ele>58.299999999999997</ele>
        <time>2018-07-07T15:42:47Z</time>
      </trkpt>
      <trkpt lat="47.983668018132448" lon="0.153746986761689">
        <ele>60.219999999999999</ele>
        <time>2018-07-07T15:42:59Z</time>
      </trkpt>
      <trkpt lat="47.983686961233616" lon="0.154211008921266">
        <ele>60.700000000000003</ele>
        <time>2018-07-07T15:43:02Z</time>
      </trkpt>
      <trkpt lat="47.983711017295718" lon="0.154364984482527">
        <ele>60.700000000000003</ele>
        <time>2018-07-07T15:43:03Z</time>
      </trkpt>
      <trkpt lat="47.983733983710408" lon="0.154519965872169">
        <ele>60.700000000000003</ele>
        <time>2018-07-07T15:43:04Z</time>
      </trkpt>
      <trkpt lat="47.983848983421922" lon="0.155270984396338">
        <ele>60.700000000000003</ele>
        <time>2018-07-07T15:43:09Z</time>
      </trkpt>
      <trkpt lat="47.983874967321754" lon="0.155399981886148">
        <ele>60.219999999999999</ele>
        <time>2018-07-07T15:43:10Z</time>
      </trkpt>
      <trkpt lat="47.983906986191869" lon="0.155519004911184">
        <ele>59.740000000000002</ele>
        <time>2018-07-07T15:43:11Z</time>
      </trkpt>
      <trkpt lat="47.983941016718745" lon="0.155640039592981">
        <ele>59.740000000000002</ele>
        <time>2018-07-07T15:43:12Z</time>
      </trkpt>
      <trkpt lat="47.983969012275338" lon="0.155740035697818">
        <ele>59.259999999999998</ele>
        <time>2018-07-07T15:43:13Z</time>
      </trkpt>
      <trkpt lat="47.984195994213223" lon="0.157377021387219">
        <ele>56.369999999999997</ele>
        <time>2018-07-07T15:43:24Z</time>
      </trkpt>
      <trkpt lat="47.984302025288343" lon="0.158010022714734">
        <ele>54.93</ele>
        <time>2018-07-07T15:43:29Z</time>
      </trkpt>
      <trkpt lat="47.984506040811539" lon="0.159436035901308">
        <ele>54.93</ele>
        <time>2018-07-07T15:43:40Z</time>
      </trkpt>
      <trkpt lat="47.984557002782822" lon="0.160233993083239">
        <ele>55.890000000000001</ele>
        <time>2018-07-07T15:43:46Z</time>
      </trkpt>
      <trkpt lat="47.984659010544419" lon="0.160745037719607">
        <ele>57.82</ele>
        <time>2018-07-07T15:43:50Z</time>
      </trkpt>
      <trkpt lat="47.984705027192831" lon="0.160862971097231">
        <ele>58.780000000000001</ele>
        <time>2018-07-07T15:43:51Z</time>
      </trkpt>
      <trkpt lat="47.984760012477636" lon="0.160980988293886">
        <ele>59.259999999999998</ele>
        <time>2018-07-07T15:43:52Z</time>
      </trkpt>
      <trkpt lat="47.985094031319022" lon="0.161739969626069">
        <ele>63.579999999999998</ele>
        <time>2018-07-07T15:44:01Z</time>
      </trkpt>
      <trkpt lat="47.985226968303323" lon="0.162037024274468">
        <ele>65.510000000000005</ele>
        <time>2018-07-07T15:44:05Z</time>
      </trkpt>
      <trkpt lat="47.985301986336708" lon="0.162206003442407">
        <ele>65.989999999999995</ele>
        <time>2018-07-07T15:44:07Z</time>
      </trkpt>
      <trkpt lat="47.985340962186456" lon="0.162303987890482">
        <ele>66.469999999999999</ele>
        <time>2018-07-07T15:44:08Z</time>
      </trkpt>
      <trkpt lat="47.985647991299629" lon="0.163018964231014">
        <ele>66.950000000000003</ele>
        <time>2018-07-07T15:44:16Z</time>
      </trkpt>
      <trkpt lat="47.985872961580753" lon="0.163541994988918">
        <ele>65.989999999999995</ele>
        <time>2018-07-07T15:44:23Z</time>
      </trkpt>
      <trkpt lat="47.985905986279249" lon="0.163615001365542">
        <ele>65.989999999999995</ele>
        <time>2018-07-07T15:44:24Z</time>
      </trkpt>
      <trkpt lat="47.985942028462887" lon="0.163694964721799">
        <ele>65.989999999999995</ele>
        <time>2018-07-07T15:44:25Z</time>
      </trkpt>
      <trkpt lat="47.986021991819143" lon="0.163874002173543">
        <ele>65.989999999999995</ele>
        <time>2018-07-07T15:44:27Z</time>
      </trkpt>
      <trkpt lat="47.986303959041834" lon="0.164431985467672">
        <ele>64.069999999999993</ele>
        <time>2018-07-07T15:44:36Z</time>
      </trkpt>
      <trkpt lat="47.986446032300591" lon="0.164708001539111">
        <ele>62.140000000000001</ele>
        <time>2018-07-07T15:44:45Z</time>
      </trkpt>
      <trkpt lat="47.986458018422127" lon="0.164732979610562">
        <ele>62.140000000000001</ele>
        <time>2018-07-07T15:44:46Z</time>
      </trkpt>
      <trkpt lat="47.986476961523294" lon="0.164770027622581">
        <ele>62.140000000000001</ele>
        <time>2018-07-07T15:44:47Z</time>
      </trkpt>
      <trkpt lat="47.986823972314596" lon="0.165365980938077">
        <ele>60.219999999999999</ele>
        <time>2018-07-07T15:44:55Z</time>
      </trkpt>
      <trkpt lat="47.987059000879526" lon="0.165718020871282">
        <ele>58.299999999999997</ele>
        <time>2018-07-07T15:44:59Z</time>
      </trkpt>
      <trkpt lat="47.987923007458448" lon="0.166521007195115">
        <ele>56.859999999999999</ele>
        <time>2018-07-07T15:45:10Z</time>
      </trkpt>
      <trkpt lat="47.989007038995624" lon="0.167175969108939">
        <ele>55.890000000000001</ele>
        <time>2018-07-07T15:45:22Z</time>
      </trkpt>
      <trkpt lat="47.989697959274054" lon="0.167673015967011">
        <ele>56.859999999999999</ele>
        <time>2018-07-07T15:45:31Z</time>
      </trkpt>
      <trkpt lat="47.989777000620961" lon="0.167763959616423">
        <ele>57.340000000000003</ele>
        <time>2018-07-07T15:45:33Z</time>
      </trkpt>
      <trkpt lat="47.989810025319457" lon="0.167801007628441">
        <ele>57.340000000000003</ele>
        <time>2018-07-07T15:45:34Z</time>
      </trkpt>
      <trkpt lat="47.990014040842652" lon="0.167765971273184">
        <ele>57.82</ele>
        <time>2018-07-07T15:45:37Z</time>
      </trkpt>
      <trkpt lat="47.990088975057006" lon="0.16782003454864">
        <ele>57.340000000000003</ele>
        <time>2018-07-07T15:45:38Z</time>
      </trkpt>
      <trkpt lat="47.990301037207246" lon="0.168007034808397">
        <ele>56.369999999999997</ele>
        <time>2018-07-07T15:45:41Z</time>
      </trkpt>
      <trkpt lat="47.990772016346455" lon="0.168423028662801">
        <ele>52.530000000000001</ele>
        <time>2018-07-07T15:45:48Z</time>
      </trkpt>
      <trkpt lat="47.990963961929083" lon="0.16859301365912">
        <ele>51.57</ele>
        <time>2018-07-07T15:45:51Z</time>
      </trkpt>
      <trkpt lat="47.991057001054287" lon="0.168608017265797">
        <ele>51.090000000000003</ele>
        <time>2018-07-07T15:45:52Z</time>
      </trkpt>
      <trkpt lat="47.991135036572814" lon="0.168624026700854">
        <ele>51.090000000000003</ele>
        <time>2018-07-07T15:45:53Z</time>
      </trkpt>
      <trkpt lat="47.991720009595156" lon="0.168756041675806">
        <ele>49.159999999999997</ele>
        <time>2018-07-07T15:46:02Z</time>
      </trkpt>
      <trkpt lat="47.991807013750076" lon="0.168772973120213">
        <ele>49.159999999999997</ele>
        <time>2018-07-07T15:46:04Z</time>
      </trkpt>
      <trkpt lat="47.991864010691643" lon="0.168783031404018">
        <ele>49.159999999999997</ele>
        <time>2018-07-07T15:46:05Z</time>
      </trkpt>
      <trkpt lat="47.991926036775112" lon="0.168795017525554">
        <ele>49.159999999999997</ele>
        <time>2018-07-07T15:46:06Z</time>
      </trkpt>
    </trkseg>
  </trk>

  <trk>
    <name>Track vom: 2018-07-07 18:25</name>
    <extensions>
      <gpxx:TrackExtension>
        <gpxx:DisplayColor>DarkGray</gpxx:DisplayColor>
      </gpxx:TrackExtension>
    </extensions>
    <trkseg>
      <trkpt lat="47.995369993150234" lon="0.16921796835959">
        <ele>73.200000000000003</ele>
        <time>2018-07-07T16:25:45Z</time>
      </trkpt>
      <trkpt lat="47.995369993150234" lon="0.16921796835959">
        <ele>73.200000000000003</ele>
        <time>2018-07-07T16:26:00Z</time>
      </trkpt>
      <trkpt lat="47.99538197927177" lon="0.16913197003305">
        <ele>74.159999999999997</ele>
        <time>2018-07-07T16:26:15Z</time>
      </trkpt>
      <trkpt lat="47.995383990928531" lon="0.169123001396656">
        <ele>74.640000000000001</ele>
        <time>2018-07-07T16:26:36Z</time>
      </trkpt>
      <trkpt lat="47.995390025898814" lon="0.169118978083134">
        <ele>74.640000000000001</ele>
        <time>2018-07-07T16:26:58Z</time>
      </trkpt>
      <trkpt lat="47.995394971221685" lon="0.169124007225037">
        <ele>74.640000000000001</ele>
        <time>2018-07-07T16:27:19Z</time>
      </trkpt>
      <trkpt lat="47.995401006191969" lon="0.169101962819695">
        <ele>74.159999999999997</ele>
        <time>2018-07-07T16:28:04Z</time>
      </trkpt>
      <trkpt lat="47.99540201202035" lon="0.169098023325205">
        <ele>74.159999999999997</ele>
        <time>2018-07-07T16:29:03Z</time>
      </trkpt>
      <trkpt lat="47.995254993438721" lon="0.169130964204669">
        <ele>72.719999999999999</ele>
        <time>2018-07-07T16:34:33Z</time>
      </trkpt>
      <trkpt lat="47.995262034237385" lon="0.169118978083134">
        <ele>70.310000000000002</ele>
        <time>2018-07-07T16:35:02Z</time>
      </trkpt>
      <trkpt lat="47.995234038680792" lon="0.16917496919632">
        <ele>70.790000000000006</ele>
        <time>2018-07-07T16:35:06Z</time>
      </trkpt>
      <trkpt lat="47.995020970702171" lon="0.16964896582067">
        <ele>67.430000000000007</ele>
        <time>2018-07-07T16:35:19Z</time>
      </trkpt>
      <trkpt lat="47.994960034266114" lon="0.169848036020994">
        <ele>66.950000000000003</ele>
        <time>2018-07-07T16:35:20Z</time>
      </trkpt>
      <trkpt lat="47.99497595988214" lon="0.16986102797091">
        <ele>66.469999999999999</ele>
        <time>2018-07-07T16:35:21Z</time>
      </trkpt>
      <trkpt lat="47.99499599263072" lon="0.169877037405968">
        <ele>65.989999999999995</ele>
        <time>2018-07-07T16:35:22Z</time>
      </trkpt>
      <trkpt lat="47.995017031207681" lon="0.169892963021994">
        <ele>65.510000000000005</ele>
        <time>2018-07-07T16:35:23Z</time>
      </trkpt>
      <trkpt lat="47.995035974308848" lon="0.169908972457051">
        <ele>65.030000000000001</ele>
        <time>2018-07-07T16:35:24Z</time>
      </trkpt>
      <trkpt lat="47.995049972087145" lon="0.169920036569238">
        <ele>64.069999999999993</ele>
        <time>2018-07-07T16:35:25Z</time>
      </trkpt>
      <trkpt lat="47.995063969865441" lon="0.169931016862392">
        <ele>63.579999999999998</ele>
        <time>2018-07-07T16:35:26Z</time>
      </trkpt>
      <trkpt lat="47.995063969865441" lon="0.169931016862392">
        <ele>58.780000000000001</ele>
        <time>2018-07-07T16:35:36Z</time>
      </trkpt>
      <trkpt lat="47.995063969865441" lon="0.169931016862392">
        <ele>51.090000000000003</ele>
        <time>2018-07-07T16:36:03Z</time>
      </trkpt>
      <trkpt lat="47.995063969865441" lon="0.169931016862392">
        <ele>51.57</ele>
        <time>2018-07-07T16:36:31Z</time>
      </trkpt>
      <trkpt lat="47.995063969865441" lon="0.169931016862392">
        <ele>52.049999999999997</ele>
        <time>2018-07-07T16:37:04Z</time>
      </trkpt>
      <trkpt lat="47.995063969865441" lon="0.169931016862392">
        <ele>52.049999999999997</ele>
        <time>2018-07-07T16:37:25Z</time>
      </trkpt>
      <trkpt lat="47.995063969865441" lon="0.169931016862392">
        <ele>52.530000000000001</ele>
        <time>2018-07-07T16:37:52Z</time>
      </trkpt>
      <trkpt lat="47.995063969865441" lon="0.169931016862392">
        <ele>53.009999999999998</ele>
        <time>2018-07-07T16:38:20Z</time>
      </trkpt>
      <trkpt lat="47.995033962652087" lon="0.16990696080029">
        <ele>57.82</ele>
        <time>2018-07-07T16:38:24Z</time>
      </trkpt>
      <trkpt lat="47.995010996237397" lon="0.169889023527503">
        <ele>57.82</ele>
        <time>2018-07-07T16:38:25Z</time>
      </trkpt>
      <trkpt lat="47.994991969317198" lon="0.169873014092445">
        <ele>57.340000000000003</ele>
        <time>2018-07-07T16:38:26Z</time>
      </trkpt>
      <trkpt lat="47.994975037872791" lon="0.16986102797091">
        <ele>53.969999999999999</ele>
        <time>2018-07-07T16:38:39Z</time>
      </trkpt>
      <trkpt lat="47.994975037872791" lon="0.16986102797091">
        <ele>51.57</ele>
        <time>2018-07-07T16:38:57Z</time>
      </trkpt>
      <trkpt lat="47.994975037872791" lon="0.16986102797091">
        <ele>50.609999999999999</ele>
        <time>2018-07-07T16:38:58Z</time>
      </trkpt>
      <trkpt lat="47.994975037872791" lon="0.16986102797091">
        <ele>50.609999999999999</ele>
        <time>2018-07-07T16:38:59Z</time>
      </trkpt>
      <trkpt lat="47.994976965710521" lon="0.169862033799291">
        <ele>51.090000000000003</ele>
        <time>2018-07-07T16:39:00Z</time>
      </trkpt>
      <trkpt lat="47.995005967095494" lon="0.169885000213981">
        <ele>51.090000000000003</ele>
        <time>2018-07-07T16:39:01Z</time>
      </trkpt>
      <trkpt lat="47.995344009250402" lon="0.170151963829994">
        <ele>54.450000000000003</ele>
        <time>2018-07-07T16:39:08Z</time>
      </trkpt>
      <trkpt lat="47.99538197927177" lon="0.170181971043348">
        <ele>54.93</ele>
        <time>2018-07-07T16:39:09Z</time>
      </trkpt>
      <trkpt lat="47.995410980656743" lon="0.17020502127707">
        <ele>55.409999999999997</ele>
        <time>2018-07-07T16:39:10Z</time>
      </trkpt>
      <trkpt lat="47.995637962594628" lon="0.170384980738163">
        <ele>58.299999999999997</ele>
        <time>2018-07-07T16:39:17Z</time>
      </trkpt>
      <trkpt lat="47.99570401199162" lon="0.170438038185239">
        <ele>58.299999999999997</ele>
        <time>2018-07-07T16:39:18Z</time>
      </trkpt>
      <trkpt lat="47.995770983397961" lon="0.170490005984902">
        <ele>58.780000000000001</ele>
        <time>2018-07-07T16:39:19Z</time>
      </trkpt>
      <trkpt lat="47.996458970010281" lon="0.171307995915413">
        <ele>60.219999999999999</ele>
        <time>2018-07-07T16:39:29Z</time>
      </trkpt>
      <trkpt lat="47.996960040181875" lon="0.172046022489667">
        <ele>54.93</ele>
        <time>2018-07-07T16:39:39Z</time>
      </trkpt>
      <trkpt lat="47.997061964124441" lon="0.172209972515702">
        <ele>53.009999999999998</ele>
        <time>2018-07-07T16:39:41Z</time>
      </trkpt>
      <trkpt lat="47.997120972722769" lon="0.172304017469287">
        <ele>52.530000000000001</ele>
        <time>2018-07-07T16:39:42Z</time>
      </trkpt>
      <trkpt lat="47.997179981321096" lon="0.172420023009181">
        <ele>52.049999999999997</ele>
        <time>2018-07-07T16:39:43Z</time>
      </trkpt>
      <trkpt lat="47.997242007404566" lon="0.172520019114017">
        <ele>51.090000000000003</ele>
        <time>2018-07-07T16:39:44Z</time>
      </trkpt>
      <trkpt lat="47.997311996296048" lon="0.172627978026867">
        <ele>50.609999999999999</ele>
        <time>2018-07-07T16:39:45Z</time>
      </trkpt>
      <trkpt lat="47.997973999008536" lon="0.173626011237502">
        <ele>45.799999999999997</ele>
        <time>2018-07-07T16:39:55Z</time>
      </trkpt>
      <trkpt lat="47.998342970386147" lon="0.174119034782052">
        <ele>44.840000000000003</ele>
        <time>2018-07-07T16:40:01Z</time>
      </trkpt>
      <trkpt lat="47.998380018398166" lon="0.174190029501915">
        <ele>44.840000000000003</ele>
        <time>2018-07-07T16:40:02Z</time>
      </trkpt>
      <trkpt lat="47.998402984812856" lon="0.174260018393397">
        <ele>44.840000000000003</ele>
        <time>2018-07-07T16:40:03Z</time>
      </trkpt>
      <trkpt lat="47.99851899035275" lon="0.174643993377686">
        <ele>44.840000000000003</ele>
        <time>2018-07-07T16:40:08Z</time>
      </trkpt>
      <trkpt lat="47.998543968424201" lon="0.174763016402721">
        <ele>44.840000000000003</ele>
        <time>2018-07-07T16:40:09Z</time>
      </trkpt>
      <trkpt lat="47.998570958152413" lon="0.174896037206054">
        <ele>45.32</ele>
        <time>2018-07-07T16:40:10Z</time>
      </trkpt>
      <trkpt lat="47.998891985043883" lon="0.176689010113478">
        <ele>45.32</ele>
        <time>2018-07-07T16:40:21Z</time>
      </trkpt>
      <trkpt lat="47.999021988362074" lon="0.177592998370528">
        <ele>44.359999999999999</ele>
        <time>2018-07-07T16:40:29Z</time>
      </trkpt>
      <trkpt lat="47.999144028872252" lon="0.178915997967124">
        <ele>45.32</ele>
        <time>2018-07-07T16:40:39Z</time>
      </trkpt>
      <trkpt lat="47.999108992516994" lon="0.180687010288239">
        <ele>43.399999999999999</ele>
        <time>2018-07-07T16:40:51Z</time>
      </trkpt>
      <trkpt lat="47.999048978090286" lon="0.181445991620421">
        <ele>41.950000000000003</ele>
        <time>2018-07-07T16:40:58Z</time>
      </trkpt>
    </trkseg>
  </trk>

  <trk>
    <name>Track vom: 2018-07-07 18:46</name>
    <extensions>
      <gpxx:TrackExtension>
        <gpxx:DisplayColor>DarkGray</gpxx:DisplayColor>
      </gpxx:TrackExtension>
    </extensions>
    <trkseg>
      <trkpt lat="47.996643036603928" lon="0.178565969690681">
        <ele>30.420000000000002</ele>
        <time>2018-07-07T16:46:31Z</time>
      </trkpt>
      <trkpt lat="47.996686035767198" lon="0.178568987175822">
        <ele>35.229999999999997</ele>
        <time>2018-07-07T16:47:05Z</time>
      </trkpt>
      <trkpt lat="47.996657034382224" lon="0.178615003824234">
        <ele>34.740000000000002</ele>
        <time>2018-07-07T16:47:12Z</time>
      </trkpt>
      <trkpt lat="47.996653011068702" lon="0.179025968536735">
        <ele>40.990000000000002</ele>
        <time>2018-07-07T16:47:23Z</time>
      </trkpt>
      <trkpt lat="47.996581010520458" lon="0.179129987955093">
        <ele>44.359999999999999</ele>
        <time>2018-07-07T16:47:33Z</time>
      </trkpt>
      <trkpt lat="47.996522001922131" lon="0.179213974624872">
        <ele>49.649999999999999</ele>
        <time>2018-07-07T16:47:50Z</time>
      </trkpt>
      <trkpt lat="47.996552009135485" lon="0.179256973788142">
        <ele>49.649999999999999</ele>
        <time>2018-07-07T16:47:51Z</time>
      </trkpt>
      <trkpt lat="47.996595008298755" lon="0.179318999871612">
        <ele>49.649999999999999</ele>
        <time>2018-07-07T16:47:52Z</time>
      </trkpt>
      <trkpt lat="47.996655022725463" lon="0.179403992369771">
        <ele>49.159999999999997</ele>
        <time>2018-07-07T16:47:53Z</time>
      </trkpt>
      <trkpt lat="47.996716964989901" lon="0.179490996524692">
        <ele>48.200000000000003</ele>
        <time>2018-07-07T16:47:54Z</time>
      </trkpt>
      <trkpt lat="47.99677899107337" lon="0.179579006507993">
        <ele>48.200000000000003</ele>
        <time>2018-07-07T16:47:55Z</time>
      </trkpt>
      <trkpt lat="47.997539984062314" lon="0.180550971999764">
        <ele>44.359999999999999</ele>
        <time>2018-07-07T16:48:05Z</time>
      </trkpt>
      <trkpt lat="47.998340958729386" lon="0.181144997477531">
        <ele>45.32</ele>
        <time>2018-07-07T16:48:14Z</time>
      </trkpt>
      <trkpt lat="47.998934984207153" lon="0.181577000766993">
        <ele>44.840000000000003</ele>
        <time>2018-07-07T16:48:21Z</time>
      </trkpt>
      <trkpt lat="47.998994998633862" lon="0.181623017415404">
        <ele>44.359999999999999</ele>
        <time>2018-07-07T16:48:23Z</time>
      </trkpt>
      <trkpt lat="47.999006984755397" lon="0.18163500353694">
        <ele>44.359999999999999</ele>
        <time>2018-07-07T16:48:24Z</time>
      </trkpt>
      <trkpt lat="47.999039003625512" lon="0.181574989110231">
        <ele>43.399999999999999</ele>
        <time>2018-07-07T16:48:30Z</time>
      </trkpt>
      <trkpt lat="47.999044032767415" lon="0.181512041017413">
        <ele>43.399999999999999</ele>
        <time>2018-07-07T16:48:31Z</time>
      </trkpt>
      <trkpt lat="47.999049983918667" lon="0.181429982185364">
        <ele>42.920000000000002</ele>
        <time>2018-07-07T16:48:32Z</time>
      </trkpt>
      <trkpt lat="47.999058030545712" lon="0.181337026879191">
        <ele>42.920000000000002</ele>
        <time>2018-07-07T16:48:33Z</time>
      </trkpt>
      <trkpt lat="47.999065993353724" lon="0.181225966662169">
        <ele>42.920000000000002</ele>
        <time>2018-07-07T16:48:34Z</time>
      </trkpt>
      <trkpt lat="47.999157020822167" lon="0.179734993726015">
        <ele>44.840000000000003</ele>
        <time>2018-07-07T16:48:44Z</time>
      </trkpt>
      <trkpt lat="47.999068005010486" lon="0.177973033860326">
        <ele>43.399999999999999</ele>
        <time>2018-07-07T16:48:54Z</time>
      </trkpt>
      <trkpt lat="47.998950993642211" lon="0.177090000361204">
        <ele>43.399999999999999</ele>
        <time>2018-07-07T16:49:02Z</time>
      </trkpt>
      <trkpt lat="47.998740021139383" lon="0.175822991877794">
        <ele>43.399999999999999</ele>
        <time>2018-07-07T16:49:10Z</time>
      </trkpt>
      <trkpt lat="47.99849602393806" lon="0.174537040293217">
        <ele>44.840000000000003</ele>
        <time>2018-07-07T16:49:19Z</time>
      </trkpt>
      <trkpt lat="47.998316986486316" lon="0.174083998426795">
        <ele>45.32</ele>
        <time>2018-07-07T16:49:23Z</time>
      </trkpt>
      <trkpt lat="47.998263007029891" lon="0.174013003706932">
        <ele>45.799999999999997</ele>
        <time>2018-07-07T16:49:24Z</time>
      </trkpt>
      <trkpt lat="47.997777024284005" lon="0.173347983509302">
        <ele>48.68</ele>
        <time>2018-07-07T16:49:31Z</time>
      </trkpt>
      <trkpt lat="47.997152991592884" lon="0.172365959733725">
        <ele>52.049999999999997</ele>
        <time>2018-07-07T16:49:40Z</time>
      </trkpt>
      <trkpt lat="47.997031034901738" lon="0.1721600163728">
        <ele>53.009999999999998</ele>
        <time>2018-07-07T16:49:42Z</time>
      </trkpt>
      <trkpt lat="47.996827019378543" lon="0.171835971996188">
        <ele>55.409999999999997</ele>
        <time>2018-07-07T16:49:47Z</time>
      </trkpt>
      <trkpt lat="47.996793994680047" lon="0.171782998368144">
        <ele>55.409999999999997</ele>
        <time>2018-07-07T16:49:48Z</time>
      </trkpt>
      <trkpt lat="47.996650999411941" lon="0.171575965359807">
        <ele>56.859999999999999</ele>
        <time>2018-07-07T16:49:51Z</time>
      </trkpt>
      <trkpt lat="47.996102990582585" lon="0.170843973755836">
        <ele>58.780000000000001</ele>
        <time>2018-07-07T16:50:00Z</time>
      </trkpt>
      <trkpt lat="47.995578031986952" lon="0.170337036252022">
        <ele>61.18</ele>
        <time>2018-07-07T16:50:07Z</time>
      </trkpt>
      <trkpt lat="47.995515000075102" lon="0.170288002118468">
        <ele>61.659999999999997</ele>
        <time>2018-07-07T16:50:08Z</time>
      </trkpt>
      <trkpt lat="47.995459008961916" lon="0.170242991298437">
        <ele>62.140000000000001</ele>
        <time>2018-07-07T16:50:09Z</time>
      </trkpt>
      <trkpt lat="47.995300004258752" lon="0.170118017122149">
        <ele>62.619999999999997</ele>
        <time>2018-07-07T16:50:12Z</time>
      </trkpt>
      <trkpt lat="47.995260022580624" lon="0.170085998252034">
        <ele>63.100000000000001</ele>
        <time>2018-07-07T16:50:13Z</time>
      </trkpt>
      <trkpt lat="47.995229009538889" lon="0.170062026008964">
        <ele>63.100000000000001</ele>
        <time>2018-07-07T16:50:14Z</time>
      </trkpt>
      <trkpt lat="47.995204031467438" lon="0.170041993260384">
        <ele>63.579999999999998</ele>
        <time>2018-07-07T16:50:15Z</time>
      </trkpt>
      <trkpt lat="47.995181987062097" lon="0.170023972168565">
        <ele>63.579999999999998</ele>
        <time>2018-07-07T16:50:16Z</time>
      </trkpt>
      <trkpt lat="47.995160026475787" lon="0.170007040724158">
        <ele>63.579999999999998</ele>
        <time>2018-07-07T16:50:17Z</time>
      </trkpt>
      <trkpt lat="47.995137982070446" lon="0.169989019632339">
        <ele>63.579999999999998</ele>
        <time>2018-07-07T16:50:18Z</time>
      </trkpt>
      <trkpt lat="47.995115015655756" lon="0.169970998540521">
        <ele>63.579999999999998</ele>
        <time>2018-07-07T16:50:19Z</time>
      </trkpt>
      <trkpt lat="47.995115015655756" lon="0.169970998540521">
        <ele>64.069999999999993</ele>
        <time>2018-07-07T16:50:27Z</time>
      </trkpt>
      <trkpt lat="47.99503899179399" lon="0.169910984113812">
        <ele>65.510000000000005</ele>
        <time>2018-07-07T16:50:30Z</time>
      </trkpt>
      <trkpt lat="47.995001021772623" lon="0.169880976900458">
        <ele>65.989999999999995</ele>
        <time>2018-07-07T16:50:31Z</time>
      </trkpt>
      <trkpt lat="47.994966991245747" lon="0.169853987172246">
        <ele>66.469999999999999</ele>
        <time>2018-07-07T16:50:32Z</time>
      </trkpt>
      <trkpt lat="47.994944024831057" lon="0.169835966080427">
        <ele>66.950000000000003</ele>
        <time>2018-07-07T16:50:33Z</time>
      </trkpt>
      <trkpt lat="47.995056007057428" lon="0.16956296749413">
        <ele>68.390000000000001</ele>
        <time>2018-07-07T16:50:35Z</time>
      </trkpt>
      <trkpt lat="47.995220040902495" lon="0.169140016660094">
        <ele>73.200000000000003</ele>
        <time>2018-07-07T16:50:42Z</time>
      </trkpt>
      <trkpt lat="47.995292041450739" lon="0.169126018881798">
        <ele>74.640000000000001</ele>
        <time>2018-07-07T16:50:54Z</time>
      </trkpt>
      <trkpt lat="47.995275026187301" lon="0.169133981689811">
        <ele>75.120000000000005</ele>
        <time>2018-07-07T16:51:15Z</time>
      </trkpt>
      <trkpt lat="47.99527301453054" lon="0.169134987518191">
        <ele>75.120000000000005</ele>
        <time>2018-07-07T16:52:00Z</time>
      </trkpt>
    </trkseg>
  </trk>

</gpx>